<?xml version="1.0" encoding="UTF-8" standalone="no" ?>
<gpx xmlns="http://www.topografix.com/GPX/1/1" xmlns:xsi="http://www.w3.org/2001/XMLSchema-instance" xsi:schemaLocation="http://www.topografix.com/GPX/1/1 http://www.topografix.com/GPX/1/1/gpx.xsd" version="1.1" creator="VisuGPX - https://www.visugpx.com">
  <metadata>
    <name>rando du lundi</name>
    <desc><![CDATA[Rando du lundi]]></desc>
  </metadata>
  <trk>
    <name><![CDATA[8 Rue des Halles]]></name>
    <desc><![CDATA[]]></desc>
    <trkseg>
      <trkpt lat="48.85734" lon="2.34711">
        <ele>80.7</ele>
        <time>2013-02-18T19:23:27.936Z</time>
      </trkpt>
      <trkpt lat="48.85736" lon="2.34713">
        <ele>77.9</ele>
        <time>2013-02-18T19:23:29.936Z</time>
      </trkpt>
      <trkpt lat="48.85737" lon="2.3472">
        <ele>69.4</ele>
        <time>2013-02-18T19:23:30.936Z</time>
      </trkpt>
      <trkpt lat="48.85731" lon="2.34713">
        <ele>130.2</ele>
        <time>2013-02-18T19:23:31.936Z</time>
      </trkpt>
      <trkpt lat="48.85739" lon="2.34711">
        <ele>129.3</ele>
        <time>2013-02-18T19:23:32.931Z</time>
      </trkpt>
      <trkpt lat="48.85757" lon="2.34709">
        <ele>128.7</ele>
        <time>2013-02-18T19:23:33.933Z</time>
      </trkpt>
      <trkpt lat="48.85764" lon="2.34711">
        <ele>63.6</ele>
        <time>2013-02-18T19:23:34.944Z</time>
      </trkpt>
      <trkpt lat="48.85773" lon="2.34712">
        <ele>62.8</ele>
        <time>2013-02-18T19:23:35.944Z</time>
      </trkpt>
      <trkpt lat="48.8578" lon="2.34718">
        <ele>61.8</ele>
        <time>2013-02-18T19:23:36.942Z</time>
      </trkpt>
      <trkpt lat="48.85783" lon="2.3472">
        <ele>69.1</ele>
        <time>2013-02-18T19:23:38.936Z</time>
      </trkpt>
      <trkpt lat="48.85788" lon="2.34724">
        <ele>69.9</ele>
        <time>2013-02-18T19:23:39.936Z</time>
      </trkpt>
      <trkpt lat="48.85786" lon="2.34732">
        <ele>70</ele>
        <time>2013-02-18T19:23:40.936Z</time>
      </trkpt>
      <trkpt lat="48.85785" lon="2.34736">
        <ele>67.5</ele>
        <time>2013-02-18T19:23:41.936Z</time>
      </trkpt>
      <trkpt lat="48.85776" lon="2.3472">
        <ele>67.9</ele>
        <time>2013-02-18T19:23:43.000Z</time>
      </trkpt>
      <trkpt lat="48.8578" lon="2.3472">
        <ele>71.6</ele>
        <time>2013-02-18T19:23:47.000Z</time>
      </trkpt>
      <trkpt lat="48.85781" lon="2.34719">
        <ele>72.6</ele>
        <time>2013-02-18T19:23:48.000Z</time>
      </trkpt>
      <trkpt lat="48.85783" lon="2.34717">
        <ele>71.3</ele>
        <time>2013-02-18T19:23:49.000Z</time>
      </trkpt>
      <trkpt lat="48.85785" lon="2.34715">
        <ele>72.3</ele>
        <time>2013-02-18T19:23:50.000Z</time>
      </trkpt>
      <trkpt lat="48.85787" lon="2.34712">
        <ele>71.5</ele>
        <time>2013-02-18T19:23:51.000Z</time>
      </trkpt>
      <trkpt lat="48.85789" lon="2.34708">
        <ele>73.4</ele>
        <time>2013-02-18T19:23:52.000Z</time>
      </trkpt>
      <trkpt lat="48.8579" lon="2.34704">
        <ele>75.8</ele>
        <time>2013-02-18T19:23:53.000Z</time>
      </trkpt>
      <trkpt lat="48.85792" lon="2.34701">
        <ele>76.7</ele>
        <time>2013-02-18T19:23:54.000Z</time>
      </trkpt>
      <trkpt lat="48.85793" lon="2.34698">
        <ele>76.7</ele>
        <time>2013-02-18T19:23:55.000Z</time>
      </trkpt>
      <trkpt lat="48.85795" lon="2.34694">
        <ele>76.4</ele>
        <time>2013-02-18T19:23:56.000Z</time>
      </trkpt>
      <trkpt lat="48.85797" lon="2.3469">
        <ele>76.1</ele>
        <time>2013-02-18T19:23:57.000Z</time>
      </trkpt>
      <trkpt lat="48.85798" lon="2.34686">
        <ele>77.1</ele>
        <time>2013-02-18T19:23:58.000Z</time>
      </trkpt>
      <trkpt lat="48.858" lon="2.34682">
        <ele>77.8</ele>
        <time>2013-02-18T19:23:59.000Z</time>
      </trkpt>
      <trkpt lat="48.85801" lon="2.34677">
        <ele>77.7</ele>
        <time>2013-02-18T19:24:00.000Z</time>
      </trkpt>
      <trkpt lat="48.85803" lon="2.34673">
        <ele>77.8</ele>
        <time>2013-02-18T19:24:01.000Z</time>
      </trkpt>
      <trkpt lat="48.85804" lon="2.34669">
        <ele>77.4</ele>
        <time>2013-02-18T19:24:02.000Z</time>
      </trkpt>
      <trkpt lat="48.85806" lon="2.34665">
        <ele>77.1</ele>
        <time>2013-02-18T19:24:03.000Z</time>
      </trkpt>
      <trkpt lat="48.85807" lon="2.3466">
        <ele>77</ele>
        <time>2013-02-18T19:24:04.000Z</time>
      </trkpt>
      <trkpt lat="48.85809" lon="2.34656">
        <ele>76.3</ele>
        <time>2013-02-18T19:24:05.000Z</time>
      </trkpt>
      <trkpt lat="48.8581" lon="2.3465">
        <ele>74.9</ele>
        <time>2013-02-18T19:24:06.000Z</time>
      </trkpt>
      <trkpt lat="48.85811" lon="2.34645">
        <ele>74.2</ele>
        <time>2013-02-18T19:24:07.000Z</time>
      </trkpt>
      <trkpt lat="48.85812" lon="2.3464">
        <ele>74.2</ele>
        <time>2013-02-18T19:24:08.000Z</time>
      </trkpt>
      <trkpt lat="48.85814" lon="2.34635">
        <ele>74.9</ele>
        <time>2013-02-18T19:24:09.000Z</time>
      </trkpt>
      <trkpt lat="48.85815" lon="2.3463">
        <ele>75</ele>
        <time>2013-02-18T19:24:10.000Z</time>
      </trkpt>
      <trkpt lat="48.85816" lon="2.34625">
        <ele>75</ele>
        <time>2013-02-18T19:24:11.000Z</time>
      </trkpt>
      <trkpt lat="48.85817" lon="2.3462">
        <ele>73.5</ele>
        <time>2013-02-18T19:24:12.000Z</time>
      </trkpt>
      <trkpt lat="48.85818" lon="2.34616">
        <ele>73.9</ele>
        <time>2013-02-18T19:24:13.000Z</time>
      </trkpt>
      <trkpt lat="48.85819" lon="2.34611">
        <ele>74.7</ele>
        <time>2013-02-18T19:24:14.000Z</time>
      </trkpt>
      <trkpt lat="48.85821" lon="2.34606">
        <ele>74.8</ele>
        <time>2013-02-18T19:24:15.000Z</time>
      </trkpt>
      <trkpt lat="48.85822" lon="2.34602">
        <ele>74.1</ele>
        <time>2013-02-18T19:24:16.000Z</time>
      </trkpt>
      <trkpt lat="48.85822" lon="2.34597">
        <ele>74.9</ele>
        <time>2013-02-18T19:24:17.000Z</time>
      </trkpt>
      <trkpt lat="48.85823" lon="2.34593">
        <ele>76.1</ele>
        <time>2013-02-18T19:24:18.000Z</time>
      </trkpt>
      <trkpt lat="48.85827" lon="2.34589">
        <ele>74.5</ele>
        <time>2013-02-18T19:24:20.000Z</time>
      </trkpt>
      <trkpt lat="48.85828" lon="2.34589">
        <ele>73.7</ele>
        <time>2013-02-18T19:24:21.000Z</time>
      </trkpt>
      <trkpt lat="48.85832" lon="2.34588">
        <ele>72.9</ele>
        <time>2013-02-18T19:24:23.000Z</time>
      </trkpt>
      <trkpt lat="48.85835" lon="2.34588">
        <ele>72.7</ele>
        <time>2013-02-18T19:24:24.183Z</time>
      </trkpt>
      <trkpt lat="48.85837" lon="2.34589">
        <ele>71.5</ele>
        <time>2013-02-18T19:24:25.000Z</time>
      </trkpt>
      <trkpt lat="48.8584" lon="2.3459">
        <ele>72.2</ele>
        <time>2013-02-18T19:24:26.000Z</time>
      </trkpt>
      <trkpt lat="48.85843" lon="2.34592">
        <ele>72.5</ele>
        <time>2013-02-18T19:24:27.000Z</time>
      </trkpt>
      <trkpt lat="48.85846" lon="2.34594">
        <ele>72.7</ele>
        <time>2013-02-18T19:24:28.000Z</time>
      </trkpt>
      <trkpt lat="48.85849" lon="2.34596">
        <ele>72.8</ele>
        <time>2013-02-18T19:24:29.000Z</time>
      </trkpt>
      <trkpt lat="48.85851" lon="2.34597">
        <ele>73.6</ele>
        <time>2013-02-18T19:24:30.000Z</time>
      </trkpt>
      <trkpt lat="48.85855" lon="2.34598">
        <ele>75.1</ele>
        <time>2013-02-18T19:24:33.000Z</time>
      </trkpt>
      <trkpt lat="48.85856" lon="2.34598">
        <ele>75.1</ele>
        <time>2013-02-18T19:24:34.000Z</time>
      </trkpt>
      <trkpt lat="48.8586" lon="2.34597">
        <ele>75.4</ele>
        <time>2013-02-18T19:24:41.000Z</time>
      </trkpt>
      <trkpt lat="48.85861" lon="2.34596">
        <ele>75.4</ele>
        <time>2013-02-18T19:24:42.000Z</time>
      </trkpt>
      <trkpt lat="48.85864" lon="2.3459">
        <ele>75.7</ele>
        <time>2013-02-18T19:24:44.000Z</time>
      </trkpt>
      <trkpt lat="48.85866" lon="2.34587">
        <ele>74.6</ele>
        <time>2013-02-18T19:24:45.000Z</time>
      </trkpt>
      <trkpt lat="48.85869" lon="2.34584">
        <ele>73.3</ele>
        <time>2013-02-18T19:24:46.000Z</time>
      </trkpt>
      <trkpt lat="48.85871" lon="2.34582">
        <ele>73.5</ele>
        <time>2013-02-18T19:24:47.000Z</time>
      </trkpt>
      <trkpt lat="48.85874" lon="2.3458">
        <ele>73.2</ele>
        <time>2013-02-18T19:24:48.000Z</time>
      </trkpt>
      <trkpt lat="48.85876" lon="2.34578">
        <ele>73.3</ele>
        <time>2013-02-18T19:24:49.000Z</time>
      </trkpt>
      <trkpt lat="48.85878" lon="2.34573">
        <ele>75.3</ele>
        <time>2013-02-18T19:24:51.000Z</time>
      </trkpt>
      <trkpt lat="48.85878" lon="2.3457">
        <ele>73.9</ele>
        <time>2013-02-18T19:24:52.000Z</time>
      </trkpt>
      <trkpt lat="48.8588" lon="2.34566">
        <ele>71.1</ele>
        <time>2013-02-18T19:24:55.000Z</time>
      </trkpt>
      <trkpt lat="48.85882" lon="2.34565">
        <ele>70.9</ele>
        <time>2013-02-18T19:24:56.000Z</time>
      </trkpt>
      <trkpt lat="48.85883" lon="2.34563">
        <ele>68.9</ele>
        <time>2013-02-18T19:24:57.000Z</time>
      </trkpt>
      <trkpt lat="48.85886" lon="2.3456">
        <ele>68.3</ele>
        <time>2013-02-18T19:24:58.000Z</time>
      </trkpt>
      <trkpt lat="48.85887" lon="2.34556">
        <ele>69</ele>
        <time>2013-02-18T19:24:59.000Z</time>
      </trkpt>
      <trkpt lat="48.85889" lon="2.34551">
        <ele>69</ele>
        <time>2013-02-18T19:25:00.000Z</time>
      </trkpt>
      <trkpt lat="48.8589" lon="2.34547">
        <ele>69.4</ele>
        <time>2013-02-18T19:25:01.000Z</time>
      </trkpt>
      <trkpt lat="48.85892" lon="2.34543">
        <ele>67.9</ele>
        <time>2013-02-18T19:25:02.000Z</time>
      </trkpt>
      <trkpt lat="48.85893" lon="2.34539">
        <ele>67.1</ele>
        <time>2013-02-18T19:25:03.000Z</time>
      </trkpt>
      <trkpt lat="48.85893" lon="2.34535">
        <ele>66.5</ele>
        <time>2013-02-18T19:25:04.000Z</time>
      </trkpt>
      <trkpt lat="48.85894" lon="2.34531">
        <ele>67</ele>
        <time>2013-02-18T19:25:05.000Z</time>
      </trkpt>
      <trkpt lat="48.85896" lon="2.34528">
        <ele>69</ele>
        <time>2013-02-18T19:25:06.000Z</time>
      </trkpt>
      <trkpt lat="48.85899" lon="2.34527">
        <ele>71</ele>
        <time>2013-02-18T19:25:08.000Z</time>
      </trkpt>
      <trkpt lat="48.85901" lon="2.34526">
        <ele>72.2</ele>
        <time>2013-02-18T19:25:09.000Z</time>
      </trkpt>
      <trkpt lat="48.85905" lon="2.34525">
        <ele>72.6</ele>
        <time>2013-02-18T19:25:11.000Z</time>
      </trkpt>
      <trkpt lat="48.85907" lon="2.34523">
        <ele>73.6</ele>
        <time>2013-02-18T19:25:12.000Z</time>
      </trkpt>
      <trkpt lat="48.85909" lon="2.34522">
        <ele>73.9</ele>
        <time>2013-02-18T19:25:13.000Z</time>
      </trkpt>
      <trkpt lat="48.85911" lon="2.34522">
        <ele>74</ele>
        <time>2013-02-18T19:25:14.000Z</time>
      </trkpt>
      <trkpt lat="48.85914" lon="2.34527">
        <ele>73.4</ele>
        <time>2013-02-18T19:25:18.000Z</time>
      </trkpt>
      <trkpt lat="48.85915" lon="2.34528">
        <ele>73.2</ele>
        <time>2013-02-18T19:25:19.000Z</time>
      </trkpt>
      <trkpt lat="48.85917" lon="2.34529">
        <ele>72.7</ele>
        <time>2013-02-18T19:25:20.000Z</time>
      </trkpt>
      <trkpt lat="48.8592" lon="2.34528">
        <ele>65.6</ele>
        <time>2013-02-18T19:25:21.000Z</time>
      </trkpt>
      <trkpt lat="48.85922" lon="2.34526">
        <ele>65.1</ele>
        <time>2013-02-18T19:25:22.000Z</time>
      </trkpt>
      <trkpt lat="48.85925" lon="2.34525">
        <ele>64.6</ele>
        <time>2013-02-18T19:25:23.000Z</time>
      </trkpt>
      <trkpt lat="48.85928" lon="2.34523">
        <ele>63.9</ele>
        <time>2013-02-18T19:25:24.000Z</time>
      </trkpt>
      <trkpt lat="48.8593" lon="2.34519">
        <ele>65.1</ele>
        <time>2013-02-18T19:25:25.000Z</time>
      </trkpt>
      <trkpt lat="48.85933" lon="2.34515">
        <ele>65.1</ele>
        <time>2013-02-18T19:25:26.000Z</time>
      </trkpt>
      <trkpt lat="48.85935" lon="2.34511">
        <ele>63.6</ele>
        <time>2013-02-18T19:25:27.000Z</time>
      </trkpt>
      <trkpt lat="48.85938" lon="2.34507">
        <ele>64</ele>
        <time>2013-02-18T19:25:28.000Z</time>
      </trkpt>
      <trkpt lat="48.85941" lon="2.34503">
        <ele>64.7</ele>
        <time>2013-02-18T19:25:29.000Z</time>
      </trkpt>
      <trkpt lat="48.85943" lon="2.34499">
        <ele>66.2</ele>
        <time>2013-02-18T19:25:30.000Z</time>
      </trkpt>
      <trkpt lat="48.85946" lon="2.34495">
        <ele>67.9</ele>
        <time>2013-02-18T19:25:31.000Z</time>
      </trkpt>
      <trkpt lat="48.85948" lon="2.34491">
        <ele>69.7</ele>
        <time>2013-02-18T19:25:32.000Z</time>
      </trkpt>
      <trkpt lat="48.85949" lon="2.34486">
        <ele>71.5</ele>
        <time>2013-02-18T19:25:33.000Z</time>
      </trkpt>
      <trkpt lat="48.85951" lon="2.34481">
        <ele>72.4</ele>
        <time>2013-02-18T19:25:34.000Z</time>
      </trkpt>
      <trkpt lat="48.85953" lon="2.34477">
        <ele>72.9</ele>
        <time>2013-02-18T19:25:35.000Z</time>
      </trkpt>
      <trkpt lat="48.85955" lon="2.34473">
        <ele>74</ele>
        <time>2013-02-18T19:25:36.000Z</time>
      </trkpt>
      <trkpt lat="48.85956" lon="2.34468">
        <ele>75.5</ele>
        <time>2013-02-18T19:25:37.000Z</time>
      </trkpt>
      <trkpt lat="48.85958" lon="2.34463">
        <ele>76.7</ele>
        <time>2013-02-18T19:25:38.000Z</time>
      </trkpt>
      <trkpt lat="48.85961" lon="2.34458">
        <ele>76.5</ele>
        <time>2013-02-18T19:25:39.000Z</time>
      </trkpt>
      <trkpt lat="48.85963" lon="2.34453">
        <ele>75.9</ele>
        <time>2013-02-18T19:25:40.000Z</time>
      </trkpt>
      <trkpt lat="48.85965" lon="2.34448">
        <ele>75.5</ele>
        <time>2013-02-18T19:25:41.000Z</time>
      </trkpt>
      <trkpt lat="48.85968" lon="2.34444">
        <ele>75.7</ele>
        <time>2013-02-18T19:25:42.000Z</time>
      </trkpt>
      <trkpt lat="48.8597" lon="2.34441">
        <ele>74.8</ele>
        <time>2013-02-18T19:25:43.000Z</time>
      </trkpt>
      <trkpt lat="48.85973" lon="2.34436">
        <ele>75.9</ele>
        <time>2013-02-18T19:25:44.000Z</time>
      </trkpt>
      <trkpt lat="48.85976" lon="2.34431">
        <ele>75.5</ele>
        <time>2013-02-18T19:25:45.000Z</time>
      </trkpt>
      <trkpt lat="48.85978" lon="2.34427">
        <ele>74.6</ele>
        <time>2013-02-18T19:25:46.000Z</time>
      </trkpt>
      <trkpt lat="48.8598" lon="2.34423">
        <ele>73.8</ele>
        <time>2013-02-18T19:25:47.000Z</time>
      </trkpt>
      <trkpt lat="48.85982" lon="2.34419">
        <ele>73.7</ele>
        <time>2013-02-18T19:25:48.000Z</time>
      </trkpt>
      <trkpt lat="48.85985" lon="2.34415">
        <ele>73.5</ele>
        <time>2013-02-18T19:25:49.000Z</time>
      </trkpt>
      <trkpt lat="48.85987" lon="2.34413">
        <ele>73.8</ele>
        <time>2013-02-18T19:25:50.000Z</time>
      </trkpt>
      <trkpt lat="48.8599" lon="2.3441">
        <ele>74.4</ele>
        <time>2013-02-18T19:25:51.000Z</time>
      </trkpt>
      <trkpt lat="48.85992" lon="2.34408">
        <ele>74.2</ele>
        <time>2013-02-18T19:25:52.000Z</time>
      </trkpt>
      <trkpt lat="48.85994" lon="2.34404">
        <ele>74</ele>
        <time>2013-02-18T19:25:53.000Z</time>
      </trkpt>
      <trkpt lat="48.85996" lon="2.344">
        <ele>74.1</ele>
        <time>2013-02-18T19:25:54.000Z</time>
      </trkpt>
      <trkpt lat="48.85998" lon="2.34396">
        <ele>74</ele>
        <time>2013-02-18T19:25:55.000Z</time>
      </trkpt>
      <trkpt lat="48.86001" lon="2.3439">
        <ele>74.3</ele>
        <time>2013-02-18T19:25:56.000Z</time>
      </trkpt>
      <trkpt lat="48.86003" lon="2.34384">
        <ele>74.1</ele>
        <time>2013-02-18T19:25:57.000Z</time>
      </trkpt>
      <trkpt lat="48.86004" lon="2.34376">
        <ele>72.4</ele>
        <time>2013-02-18T19:25:58.000Z</time>
      </trkpt>
      <trkpt lat="48.86005" lon="2.34368">
        <ele>73.9</ele>
        <time>2013-02-18T19:25:59.000Z</time>
      </trkpt>
      <trkpt lat="48.86006" lon="2.3436">
        <ele>75.3</ele>
        <time>2013-02-18T19:26:00.000Z</time>
      </trkpt>
      <trkpt lat="48.86007" lon="2.34353">
        <ele>75.7</ele>
        <time>2013-02-18T19:26:01.000Z</time>
      </trkpt>
      <trkpt lat="48.86009" lon="2.34347">
        <ele>75.8</ele>
        <time>2013-02-18T19:26:02.000Z</time>
      </trkpt>
      <trkpt lat="48.86011" lon="2.34342">
        <ele>76.6</ele>
        <time>2013-02-18T19:26:03.000Z</time>
      </trkpt>
      <trkpt lat="48.86012" lon="2.34337">
        <ele>76.5</ele>
        <time>2013-02-18T19:26:04.000Z</time>
      </trkpt>
      <trkpt lat="48.86014" lon="2.34331">
        <ele>76.3</ele>
        <time>2013-02-18T19:26:05.000Z</time>
      </trkpt>
      <trkpt lat="48.86017" lon="2.34325">
        <ele>76.3</ele>
        <time>2013-02-18T19:26:06.000Z</time>
      </trkpt>
      <trkpt lat="48.86019" lon="2.34314">
        <ele>78</ele>
        <time>2013-02-18T19:26:07.000Z</time>
      </trkpt>
      <trkpt lat="48.86022" lon="2.34306">
        <ele>76.7</ele>
        <time>2013-02-18T19:26:08.000Z</time>
      </trkpt>
      <trkpt lat="48.86025" lon="2.34298">
        <ele>73.3</ele>
        <time>2013-02-18T19:26:09.000Z</time>
      </trkpt>
      <trkpt lat="48.86028" lon="2.3429">
        <ele>73.2</ele>
        <time>2013-02-18T19:26:10.000Z</time>
      </trkpt>
      <trkpt lat="48.86029" lon="2.34281">
        <ele>72.8</ele>
        <time>2013-02-18T19:26:11.000Z</time>
      </trkpt>
      <trkpt lat="48.86031" lon="2.34274">
        <ele>73</ele>
        <time>2013-02-18T19:26:12.000Z</time>
      </trkpt>
      <trkpt lat="48.86034" lon="2.34267">
        <ele>71.7</ele>
        <time>2013-02-18T19:26:13.000Z</time>
      </trkpt>
      <trkpt lat="48.86036" lon="2.34259">
        <ele>71.9</ele>
        <time>2013-02-18T19:26:14.000Z</time>
      </trkpt>
      <trkpt lat="48.86038" lon="2.34252">
        <ele>71.9</ele>
        <time>2013-02-18T19:26:15.000Z</time>
      </trkpt>
      <trkpt lat="48.86041" lon="2.34245">
        <ele>71.9</ele>
        <time>2013-02-18T19:26:16.000Z</time>
      </trkpt>
      <trkpt lat="48.86044" lon="2.34239">
        <ele>70.3</ele>
        <time>2013-02-18T19:26:17.000Z</time>
      </trkpt>
      <trkpt lat="48.86046" lon="2.34236">
        <ele>67.6</ele>
        <time>2013-02-18T19:26:18.000Z</time>
      </trkpt>
      <trkpt lat="48.86048" lon="2.3423">
        <ele>67</ele>
        <time>2013-02-18T19:26:19.000Z</time>
      </trkpt>
      <trkpt lat="48.8605" lon="2.34223">
        <ele>66.5</ele>
        <time>2013-02-18T19:26:20.000Z</time>
      </trkpt>
      <trkpt lat="48.86052" lon="2.34215">
        <ele>66.2</ele>
        <time>2013-02-18T19:26:21.000Z</time>
      </trkpt>
      <trkpt lat="48.86055" lon="2.34207">
        <ele>66.4</ele>
        <time>2013-02-18T19:26:22.000Z</time>
      </trkpt>
      <trkpt lat="48.86058" lon="2.34198">
        <ele>67.7</ele>
        <time>2013-02-18T19:26:23.000Z</time>
      </trkpt>
      <trkpt lat="48.86061" lon="2.34192">
        <ele>67.7</ele>
        <time>2013-02-18T19:26:24.000Z</time>
      </trkpt>
      <trkpt lat="48.86063" lon="2.34183">
        <ele>67.8</ele>
        <time>2013-02-18T19:26:25.000Z</time>
      </trkpt>
      <trkpt lat="48.86065" lon="2.34176">
        <ele>67.8</ele>
        <time>2013-02-18T19:26:26.000Z</time>
      </trkpt>
      <trkpt lat="48.86069" lon="2.34168">
        <ele>72.9</ele>
        <time>2013-02-18T19:26:27.000Z</time>
      </trkpt>
      <trkpt lat="48.86071" lon="2.3416">
        <ele>71.5</ele>
        <time>2013-02-18T19:26:28.000Z</time>
      </trkpt>
      <trkpt lat="48.86074" lon="2.34153">
        <ele>70.2</ele>
        <time>2013-02-18T19:26:29.000Z</time>
      </trkpt>
      <trkpt lat="48.86075" lon="2.34145">
        <ele>69.7</ele>
        <time>2013-02-18T19:26:30.000Z</time>
      </trkpt>
      <trkpt lat="48.8608" lon="2.34138">
        <ele>69.3</ele>
        <time>2013-02-18T19:26:31.000Z</time>
      </trkpt>
      <trkpt lat="48.86082" lon="2.3413">
        <ele>69.6</ele>
        <time>2013-02-18T19:26:32.000Z</time>
      </trkpt>
      <trkpt lat="48.86083" lon="2.34123">
        <ele>69</ele>
        <time>2013-02-18T19:26:33.000Z</time>
      </trkpt>
      <trkpt lat="48.86084" lon="2.34114">
        <ele>70</ele>
        <time>2013-02-18T19:26:34.000Z</time>
      </trkpt>
      <trkpt lat="48.86084" lon="2.34104">
        <ele>71.7</ele>
        <time>2013-02-18T19:26:35.000Z</time>
      </trkpt>
      <trkpt lat="48.86085" lon="2.34098">
        <ele>71.3</ele>
        <time>2013-02-18T19:26:36.000Z</time>
      </trkpt>
      <trkpt lat="48.86088" lon="2.34091">
        <ele>71.4</ele>
        <time>2013-02-18T19:26:37.000Z</time>
      </trkpt>
      <trkpt lat="48.8609" lon="2.34086">
        <ele>71.4</ele>
        <time>2013-02-18T19:26:38.000Z</time>
      </trkpt>
      <trkpt lat="48.86092" lon="2.3408">
        <ele>71.1</ele>
        <time>2013-02-18T19:26:39.000Z</time>
      </trkpt>
      <trkpt lat="48.86095" lon="2.34073">
        <ele>70.5</ele>
        <time>2013-02-18T19:26:40.000Z</time>
      </trkpt>
      <trkpt lat="48.86098" lon="2.34064">
        <ele>71.6</ele>
        <time>2013-02-18T19:26:41.000Z</time>
      </trkpt>
      <trkpt lat="48.86101" lon="2.34055">
        <ele>72.7</ele>
        <time>2013-02-18T19:26:42.000Z</time>
      </trkpt>
      <trkpt lat="48.86103" lon="2.34046">
        <ele>72.7</ele>
        <time>2013-02-18T19:26:43.000Z</time>
      </trkpt>
      <trkpt lat="48.86105" lon="2.34037">
        <ele>73.5</ele>
        <time>2013-02-18T19:26:44.000Z</time>
      </trkpt>
      <trkpt lat="48.86108" lon="2.34028">
        <ele>74.5</ele>
        <time>2013-02-18T19:26:45.000Z</time>
      </trkpt>
      <trkpt lat="48.8611" lon="2.34019">
        <ele>75.7</ele>
        <time>2013-02-18T19:26:46.000Z</time>
      </trkpt>
      <trkpt lat="48.86113" lon="2.3401">
        <ele>76.7</ele>
        <time>2013-02-18T19:26:47.000Z</time>
      </trkpt>
      <trkpt lat="48.86116" lon="2.34002">
        <ele>77.2</ele>
        <time>2013-02-18T19:26:48.000Z</time>
      </trkpt>
      <trkpt lat="48.86119" lon="2.33993">
        <ele>77.6</ele>
        <time>2013-02-18T19:26:49.000Z</time>
      </trkpt>
      <trkpt lat="48.8612" lon="2.33984">
        <ele>77.6</ele>
        <time>2013-02-18T19:26:50.000Z</time>
      </trkpt>
      <trkpt lat="48.86122" lon="2.33975">
        <ele>78</ele>
        <time>2013-02-18T19:26:51.000Z</time>
      </trkpt>
      <trkpt lat="48.86125" lon="2.33966">
        <ele>78.2</ele>
        <time>2013-02-18T19:26:52.000Z</time>
      </trkpt>
      <trkpt lat="48.86127" lon="2.33957">
        <ele>78.4</ele>
        <time>2013-02-18T19:26:53.000Z</time>
      </trkpt>
      <trkpt lat="48.86131" lon="2.33951">
        <ele>78.7</ele>
        <time>2013-02-18T19:26:54.000Z</time>
      </trkpt>
      <trkpt lat="48.86133" lon="2.33943">
        <ele>78.9</ele>
        <time>2013-02-18T19:26:55.000Z</time>
      </trkpt>
      <trkpt lat="48.86136" lon="2.33935">
        <ele>79</ele>
        <time>2013-02-18T19:26:56.000Z</time>
      </trkpt>
      <trkpt lat="48.86137" lon="2.33925">
        <ele>79.6</ele>
        <time>2013-02-18T19:26:57.000Z</time>
      </trkpt>
      <trkpt lat="48.86141" lon="2.33919">
        <ele>79.7</ele>
        <time>2013-02-18T19:26:58.000Z</time>
      </trkpt>
      <trkpt lat="48.86143" lon="2.33911">
        <ele>79.9</ele>
        <time>2013-02-18T19:26:59.000Z</time>
      </trkpt>
      <trkpt lat="48.86146" lon="2.33903">
        <ele>79.9</ele>
        <time>2013-02-18T19:27:00.000Z</time>
      </trkpt>
      <trkpt lat="48.86149" lon="2.33895">
        <ele>82.5</ele>
        <time>2013-02-18T19:27:01.000Z</time>
      </trkpt>
      <trkpt lat="48.86151" lon="2.33889">
        <ele>82.9</ele>
        <time>2013-02-18T19:27:02.000Z</time>
      </trkpt>
      <trkpt lat="48.86153" lon="2.33882">
        <ele>82.9</ele>
        <time>2013-02-18T19:27:03.000Z</time>
      </trkpt>
      <trkpt lat="48.86155" lon="2.33875">
        <ele>82.9</ele>
        <time>2013-02-18T19:27:04.000Z</time>
      </trkpt>
      <trkpt lat="48.86157" lon="2.33868">
        <ele>83.3</ele>
        <time>2013-02-18T19:27:05.000Z</time>
      </trkpt>
      <trkpt lat="48.8616" lon="2.33861">
        <ele>83.8</ele>
        <time>2013-02-18T19:27:06.000Z</time>
      </trkpt>
      <trkpt lat="48.86162" lon="2.33855">
        <ele>85</ele>
        <time>2013-02-18T19:27:07.000Z</time>
      </trkpt>
      <trkpt lat="48.86164" lon="2.33849">
        <ele>84.7</ele>
        <time>2013-02-18T19:27:08.000Z</time>
      </trkpt>
      <trkpt lat="48.86166" lon="2.33842">
        <ele>84.4</ele>
        <time>2013-02-18T19:27:09.000Z</time>
      </trkpt>
      <trkpt lat="48.86167" lon="2.33835">
        <ele>84.3</ele>
        <time>2013-02-18T19:27:10.000Z</time>
      </trkpt>
      <trkpt lat="48.86169" lon="2.33827">
        <ele>84.4</ele>
        <time>2013-02-18T19:27:11.000Z</time>
      </trkpt>
      <trkpt lat="48.86171" lon="2.3382">
        <ele>83.9</ele>
        <time>2013-02-18T19:27:12.000Z</time>
      </trkpt>
      <trkpt lat="48.86173" lon="2.33814">
        <ele>84.1</ele>
        <time>2013-02-18T19:27:13.000Z</time>
      </trkpt>
      <trkpt lat="48.86174" lon="2.33807">
        <ele>84.1</ele>
        <time>2013-02-18T19:27:14.000Z</time>
      </trkpt>
      <trkpt lat="48.86176" lon="2.33799">
        <ele>85</ele>
        <time>2013-02-18T19:27:15.000Z</time>
      </trkpt>
      <trkpt lat="48.86179" lon="2.33792">
        <ele>84.6</ele>
        <time>2013-02-18T19:27:16.000Z</time>
      </trkpt>
      <trkpt lat="48.8618" lon="2.33785">
        <ele>84.3</ele>
        <time>2013-02-18T19:27:17.000Z</time>
      </trkpt>
      <trkpt lat="48.86185" lon="2.33782">
        <ele>83.9</ele>
        <time>2013-02-18T19:27:18.000Z</time>
      </trkpt>
      <trkpt lat="48.86186" lon="2.33773">
        <ele>84.9</ele>
        <time>2013-02-18T19:27:19.000Z</time>
      </trkpt>
      <trkpt lat="48.8619" lon="2.33767">
        <ele>84.1</ele>
        <time>2013-02-18T19:27:20.000Z</time>
      </trkpt>
      <trkpt lat="48.86191" lon="2.33759">
        <ele>85.4</ele>
        <time>2013-02-18T19:27:21.000Z</time>
      </trkpt>
      <trkpt lat="48.86193" lon="2.3375">
        <ele>84.4</ele>
        <time>2013-02-18T19:27:22.000Z</time>
      </trkpt>
      <trkpt lat="48.86198" lon="2.33734">
        <ele>84.5</ele>
        <time>2013-02-18T19:27:24.000Z</time>
      </trkpt>
      <trkpt lat="48.86201" lon="2.33726">
        <ele>83.5</ele>
        <time>2013-02-18T19:27:25.000Z</time>
      </trkpt>
      <trkpt lat="48.86204" lon="2.33719">
        <ele>82.2</ele>
        <time>2013-02-18T19:27:26.000Z</time>
      </trkpt>
      <trkpt lat="48.86206" lon="2.33712">
        <ele>82.3</ele>
        <time>2013-02-18T19:27:27.000Z</time>
      </trkpt>
      <trkpt lat="48.86209" lon="2.33705">
        <ele>82.2</ele>
        <time>2013-02-18T19:27:28.000Z</time>
      </trkpt>
      <trkpt lat="48.86212" lon="2.33699">
        <ele>82</ele>
        <time>2013-02-18T19:27:29.000Z</time>
      </trkpt>
      <trkpt lat="48.86213" lon="2.33689">
        <ele>80.6</ele>
        <time>2013-02-18T19:27:30.000Z</time>
      </trkpt>
      <trkpt lat="48.86217" lon="2.33685">
        <ele>80.7</ele>
        <time>2013-02-18T19:27:31.000Z</time>
      </trkpt>
      <trkpt lat="48.8622" lon="2.33679">
        <ele>79.7</ele>
        <time>2013-02-18T19:27:32.000Z</time>
      </trkpt>
      <trkpt lat="48.86222" lon="2.33671">
        <ele>79.9</ele>
        <time>2013-02-18T19:27:33.000Z</time>
      </trkpt>
      <trkpt lat="48.86223" lon="2.33665">
        <ele>79.2</ele>
        <time>2013-02-18T19:27:34.000Z</time>
      </trkpt>
      <trkpt lat="48.86225" lon="2.33657">
        <ele>80.2</ele>
        <time>2013-02-18T19:27:35.000Z</time>
      </trkpt>
      <trkpt lat="48.86226" lon="2.33649">
        <ele>80.1</ele>
        <time>2013-02-18T19:27:36.000Z</time>
      </trkpt>
      <trkpt lat="48.86228" lon="2.33644">
        <ele>81.2</ele>
        <time>2013-02-18T19:27:37.000Z</time>
      </trkpt>
      <trkpt lat="48.8623" lon="2.33638">
        <ele>81.8</ele>
        <time>2013-02-18T19:27:38.000Z</time>
      </trkpt>
      <trkpt lat="48.86231" lon="2.33632">
        <ele>81.8</ele>
        <time>2013-02-18T19:27:39.000Z</time>
      </trkpt>
      <trkpt lat="48.86234" lon="2.33627">
        <ele>81.4</ele>
        <time>2013-02-18T19:27:40.000Z</time>
      </trkpt>
      <trkpt lat="48.86237" lon="2.3362">
        <ele>81.5</ele>
        <time>2013-02-18T19:27:41.000Z</time>
      </trkpt>
      <trkpt lat="48.86239" lon="2.33613">
        <ele>81.8</ele>
        <time>2013-02-18T19:27:42.000Z</time>
      </trkpt>
      <trkpt lat="48.86242" lon="2.33606">
        <ele>81.7</ele>
        <time>2013-02-18T19:27:43.000Z</time>
      </trkpt>
      <trkpt lat="48.86242" lon="2.33601">
        <ele>81.5</ele>
        <time>2013-02-18T19:27:44.000Z</time>
      </trkpt>
      <trkpt lat="48.86245" lon="2.33593">
        <ele>83.8</ele>
        <time>2013-02-18T19:27:45.000Z</time>
      </trkpt>
      <trkpt lat="48.86246" lon="2.33586">
        <ele>83.1</ele>
        <time>2013-02-18T19:27:46.000Z</time>
      </trkpt>
      <trkpt lat="48.86249" lon="2.33578">
        <ele>82.9</ele>
        <time>2013-02-18T19:27:47.000Z</time>
      </trkpt>
      <trkpt lat="48.86251" lon="2.33572">
        <ele>82.6</ele>
        <time>2013-02-18T19:27:48.000Z</time>
      </trkpt>
      <trkpt lat="48.86253" lon="2.33566">
        <ele>82.4</ele>
        <time>2013-02-18T19:27:49.000Z</time>
      </trkpt>
      <trkpt lat="48.86255" lon="2.33563">
        <ele>82.4</ele>
        <time>2013-02-18T19:27:50.000Z</time>
      </trkpt>
      <trkpt lat="48.86258" lon="2.33563">
        <ele>83.2</ele>
        <time>2013-02-18T19:27:51.000Z</time>
      </trkpt>
      <trkpt lat="48.86259" lon="2.33554">
        <ele>80</ele>
        <time>2013-02-18T19:27:52.000Z</time>
      </trkpt>
      <trkpt lat="48.8626" lon="2.33551">
        <ele>81.8</ele>
        <time>2013-02-18T19:27:54.000Z</time>
      </trkpt>
      <trkpt lat="48.86261" lon="2.33545">
        <ele>82.2</ele>
        <time>2013-02-18T19:27:55.000Z</time>
      </trkpt>
      <trkpt lat="48.86263" lon="2.3354">
        <ele>82.4</ele>
        <time>2013-02-18T19:27:56.000Z</time>
      </trkpt>
      <trkpt lat="48.86263" lon="2.33536">
        <ele>82.6</ele>
        <time>2013-02-18T19:27:57.000Z</time>
      </trkpt>
      <trkpt lat="48.86266" lon="2.33534">
        <ele>89</ele>
        <time>2013-02-18T19:28:19.000Z</time>
      </trkpt>
      <trkpt lat="48.86268" lon="2.33533">
        <ele>85.2</ele>
        <time>2013-02-18T19:28:20.000Z</time>
      </trkpt>
      <trkpt lat="48.86269" lon="2.33531">
        <ele>85.3</ele>
        <time>2013-02-18T19:28:21.000Z</time>
      </trkpt>
      <trkpt lat="48.86271" lon="2.33528">
        <ele>84.9</ele>
        <time>2013-02-18T19:28:22.000Z</time>
      </trkpt>
      <trkpt lat="48.86272" lon="2.33523">
        <ele>83.7</ele>
        <time>2013-02-18T19:28:23.000Z</time>
      </trkpt>
      <trkpt lat="48.86273" lon="2.33518">
        <ele>83.6</ele>
        <time>2013-02-18T19:28:24.000Z</time>
      </trkpt>
      <trkpt lat="48.86274" lon="2.33514">
        <ele>82.5</ele>
        <time>2013-02-18T19:28:25.000Z</time>
      </trkpt>
      <trkpt lat="48.86275" lon="2.33509">
        <ele>80.8</ele>
        <time>2013-02-18T19:28:26.000Z</time>
      </trkpt>
      <trkpt lat="48.86277" lon="2.33505">
        <ele>80.8</ele>
        <time>2013-02-18T19:28:27.000Z</time>
      </trkpt>
      <trkpt lat="48.86278" lon="2.33501">
        <ele>80.3</ele>
        <time>2013-02-18T19:28:28.000Z</time>
      </trkpt>
      <trkpt lat="48.8628" lon="2.33496">
        <ele>80.1</ele>
        <time>2013-02-18T19:28:29.000Z</time>
      </trkpt>
      <trkpt lat="48.86282" lon="2.3349">
        <ele>79.8</ele>
        <time>2013-02-18T19:28:30.000Z</time>
      </trkpt>
      <trkpt lat="48.86284" lon="2.33483">
        <ele>79.4</ele>
        <time>2013-02-18T19:28:31.000Z</time>
      </trkpt>
      <trkpt lat="48.86286" lon="2.33476">
        <ele>80.7</ele>
        <time>2013-02-18T19:28:32.000Z</time>
      </trkpt>
      <trkpt lat="48.86288" lon="2.33469">
        <ele>80.7</ele>
        <time>2013-02-18T19:28:33.000Z</time>
      </trkpt>
      <trkpt lat="48.86293" lon="2.33461">
        <ele>80.3</ele>
        <time>2013-02-18T19:28:34.000Z</time>
      </trkpt>
      <trkpt lat="48.86295" lon="2.33454">
        <ele>79.3</ele>
        <time>2013-02-18T19:28:35.000Z</time>
      </trkpt>
      <trkpt lat="48.86298" lon="2.33448">
        <ele>78.9</ele>
        <time>2013-02-18T19:28:36.000Z</time>
      </trkpt>
      <trkpt lat="48.86301" lon="2.3344">
        <ele>78.8</ele>
        <time>2013-02-18T19:28:37.000Z</time>
      </trkpt>
      <trkpt lat="48.86303" lon="2.33432">
        <ele>79.6</ele>
        <time>2013-02-18T19:28:38.000Z</time>
      </trkpt>
      <trkpt lat="48.86305" lon="2.33425">
        <ele>79.2</ele>
        <time>2013-02-18T19:28:39.000Z</time>
      </trkpt>
      <trkpt lat="48.86307" lon="2.33418">
        <ele>78.6</ele>
        <time>2013-02-18T19:28:40.000Z</time>
      </trkpt>
      <trkpt lat="48.8631" lon="2.33413">
        <ele>78.5</ele>
        <time>2013-02-18T19:28:41.000Z</time>
      </trkpt>
      <trkpt lat="48.86312" lon="2.33405">
        <ele>77.8</ele>
        <time>2013-02-18T19:28:42.000Z</time>
      </trkpt>
      <trkpt lat="48.86315" lon="2.33396">
        <ele>76.6</ele>
        <time>2013-02-18T19:28:43.000Z</time>
      </trkpt>
      <trkpt lat="48.86316" lon="2.33387">
        <ele>77</ele>
        <time>2013-02-18T19:28:44.000Z</time>
      </trkpt>
      <trkpt lat="48.86319" lon="2.33378">
        <ele>76.7</ele>
        <time>2013-02-18T19:28:45.000Z</time>
      </trkpt>
      <trkpt lat="48.86321" lon="2.33372">
        <ele>77</ele>
        <time>2013-02-18T19:28:46.000Z</time>
      </trkpt>
      <trkpt lat="48.86323" lon="2.33364">
        <ele>76</ele>
        <time>2013-02-18T19:28:47.000Z</time>
      </trkpt>
      <trkpt lat="48.86325" lon="2.33354">
        <ele>75.6</ele>
        <time>2013-02-18T19:28:48.000Z</time>
      </trkpt>
      <trkpt lat="48.86327" lon="2.33347">
        <ele>74.7</ele>
        <time>2013-02-18T19:28:49.000Z</time>
      </trkpt>
      <trkpt lat="48.8633" lon="2.33341">
        <ele>74</ele>
        <time>2013-02-18T19:28:50.000Z</time>
      </trkpt>
      <trkpt lat="48.86332" lon="2.33334">
        <ele>72.8</ele>
        <time>2013-02-18T19:28:51.000Z</time>
      </trkpt>
      <trkpt lat="48.86334" lon="2.33326">
        <ele>72.7</ele>
        <time>2013-02-18T19:28:52.000Z</time>
      </trkpt>
      <trkpt lat="48.86337" lon="2.33319">
        <ele>72.8</ele>
        <time>2013-02-18T19:28:53.000Z</time>
      </trkpt>
      <trkpt lat="48.8634" lon="2.33314">
        <ele>72.2</ele>
        <time>2013-02-18T19:28:54.000Z</time>
      </trkpt>
      <trkpt lat="48.86343" lon="2.33306">
        <ele>71.9</ele>
        <time>2013-02-18T19:28:55.000Z</time>
      </trkpt>
      <trkpt lat="48.86346" lon="2.33299">
        <ele>71.5</ele>
        <time>2013-02-18T19:28:56.000Z</time>
      </trkpt>
      <trkpt lat="48.86349" lon="2.33293">
        <ele>71.4</ele>
        <time>2013-02-18T19:28:57.000Z</time>
      </trkpt>
      <trkpt lat="48.86352" lon="2.33285">
        <ele>71.1</ele>
        <time>2013-02-18T19:28:58.000Z</time>
      </trkpt>
      <trkpt lat="48.86353" lon="2.33276">
        <ele>71.4</ele>
        <time>2013-02-18T19:28:59.000Z</time>
      </trkpt>
      <trkpt lat="48.86355" lon="2.33268">
        <ele>71.3</ele>
        <time>2013-02-18T19:29:00.000Z</time>
      </trkpt>
      <trkpt lat="48.86358" lon="2.33259">
        <ele>71</ele>
        <time>2013-02-18T19:29:01.000Z</time>
      </trkpt>
      <trkpt lat="48.86362" lon="2.33253">
        <ele>70.5</ele>
        <time>2013-02-18T19:29:02.000Z</time>
      </trkpt>
      <trkpt lat="48.86365" lon="2.33249">
        <ele>71.2</ele>
        <time>2013-02-18T19:29:03.000Z</time>
      </trkpt>
      <trkpt lat="48.86367" lon="2.3324">
        <ele>70.2</ele>
        <time>2013-02-18T19:29:04.000Z</time>
      </trkpt>
      <trkpt lat="48.8637" lon="2.33235">
        <ele>71.9</ele>
        <time>2013-02-18T19:29:05.000Z</time>
      </trkpt>
      <trkpt lat="48.86372" lon="2.33229">
        <ele>73</ele>
        <time>2013-02-18T19:29:06.000Z</time>
      </trkpt>
      <trkpt lat="48.86374" lon="2.33223">
        <ele>73.1</ele>
        <time>2013-02-18T19:29:07.000Z</time>
      </trkpt>
      <trkpt lat="48.86377" lon="2.33217">
        <ele>73.2</ele>
        <time>2013-02-18T19:29:08.000Z</time>
      </trkpt>
      <trkpt lat="48.86378" lon="2.33211">
        <ele>72.9</ele>
        <time>2013-02-18T19:29:09.000Z</time>
      </trkpt>
      <trkpt lat="48.86379" lon="2.33202">
        <ele>75</ele>
        <time>2013-02-18T19:29:10.000Z</time>
      </trkpt>
      <trkpt lat="48.86381" lon="2.33197">
        <ele>75.7</ele>
        <time>2013-02-18T19:29:11.000Z</time>
      </trkpt>
      <trkpt lat="48.86382" lon="2.33191">
        <ele>76.8</ele>
        <time>2013-02-18T19:29:12.000Z</time>
      </trkpt>
      <trkpt lat="48.86383" lon="2.33187">
        <ele>77.3</ele>
        <time>2013-02-18T19:29:13.000Z</time>
      </trkpt>
      <trkpt lat="48.86384" lon="2.33184">
        <ele>77.9</ele>
        <time>2013-02-18T19:29:14.000Z</time>
      </trkpt>
      <trkpt lat="48.86387" lon="2.33179">
        <ele>74.8</ele>
        <time>2013-02-18T19:29:16.000Z</time>
      </trkpt>
      <trkpt lat="48.86388" lon="2.33173">
        <ele>76.6</ele>
        <time>2013-02-18T19:29:17.000Z</time>
      </trkpt>
      <trkpt lat="48.86389" lon="2.33169">
        <ele>77.9</ele>
        <time>2013-02-18T19:29:18.000Z</time>
      </trkpt>
      <trkpt lat="48.8639" lon="2.33165">
        <ele>79</ele>
        <time>2013-02-18T19:29:19.000Z</time>
      </trkpt>
      <trkpt lat="48.86391" lon="2.33159">
        <ele>79.6</ele>
        <time>2013-02-18T19:29:21.000Z</time>
      </trkpt>
      <trkpt lat="48.86392" lon="2.33157">
        <ele>79.2</ele>
        <time>2013-02-18T19:29:22.000Z</time>
      </trkpt>
      <trkpt lat="48.86394" lon="2.33152">
        <ele>79.6</ele>
        <time>2013-02-18T19:29:24.000Z</time>
      </trkpt>
      <trkpt lat="48.86395" lon="2.3315">
        <ele>79</ele>
        <time>2013-02-18T19:29:25.000Z</time>
      </trkpt>
      <trkpt lat="48.86396" lon="2.33145">
        <ele>80.1</ele>
        <time>2013-02-18T19:29:27.000Z</time>
      </trkpt>
      <trkpt lat="48.86397" lon="2.33143">
        <ele>79.9</ele>
        <time>2013-02-18T19:29:28.000Z</time>
      </trkpt>
      <trkpt lat="48.86399" lon="2.33138">
        <ele>80.7</ele>
        <time>2013-02-18T19:29:30.000Z</time>
      </trkpt>
      <trkpt lat="48.86399" lon="2.33135">
        <ele>82.2</ele>
        <time>2013-02-18T19:29:31.000Z</time>
      </trkpt>
      <trkpt lat="48.864" lon="2.33129">
        <ele>82.5</ele>
        <time>2013-02-18T19:29:33.000Z</time>
      </trkpt>
      <trkpt lat="48.864" lon="2.33126">
        <ele>82.4</ele>
        <time>2013-02-18T19:29:34.000Z</time>
      </trkpt>
      <trkpt lat="48.86401" lon="2.33119">
        <ele>83.5</ele>
        <time>2013-02-18T19:29:36.000Z</time>
      </trkpt>
      <trkpt lat="48.86402" lon="2.33114">
        <ele>85</ele>
        <time>2013-02-18T19:29:37.000Z</time>
      </trkpt>
      <trkpt lat="48.86403" lon="2.3311">
        <ele>84.4</ele>
        <time>2013-02-18T19:29:38.000Z</time>
      </trkpt>
      <trkpt lat="48.86404" lon="2.33105">
        <ele>83.8</ele>
        <time>2013-02-18T19:29:39.000Z</time>
      </trkpt>
      <trkpt lat="48.86405" lon="2.331">
        <ele>83.3</ele>
        <time>2013-02-18T19:29:40.000Z</time>
      </trkpt>
      <trkpt lat="48.86407" lon="2.33095">
        <ele>83.2</ele>
        <time>2013-02-18T19:29:41.000Z</time>
      </trkpt>
      <trkpt lat="48.86409" lon="2.33089">
        <ele>82.7</ele>
        <time>2013-02-18T19:29:42.000Z</time>
      </trkpt>
      <trkpt lat="48.86411" lon="2.33083">
        <ele>82.1</ele>
        <time>2013-02-18T19:29:43.000Z</time>
      </trkpt>
      <trkpt lat="48.86413" lon="2.33077">
        <ele>81.3</ele>
        <time>2013-02-18T19:29:44.000Z</time>
      </trkpt>
      <trkpt lat="48.86415" lon="2.33071">
        <ele>80.8</ele>
        <time>2013-02-18T19:29:45.000Z</time>
      </trkpt>
      <trkpt lat="48.86417" lon="2.33065">
        <ele>80.2</ele>
        <time>2013-02-18T19:29:46.000Z</time>
      </trkpt>
      <trkpt lat="48.86419" lon="2.33059">
        <ele>82.4</ele>
        <time>2013-02-18T19:29:47.000Z</time>
      </trkpt>
      <trkpt lat="48.86422" lon="2.33052">
        <ele>81.6</ele>
        <time>2013-02-18T19:29:48.000Z</time>
      </trkpt>
      <trkpt lat="48.86424" lon="2.33047">
        <ele>80.7</ele>
        <time>2013-02-18T19:29:49.000Z</time>
      </trkpt>
      <trkpt lat="48.86426" lon="2.33041">
        <ele>79.9</ele>
        <time>2013-02-18T19:29:50.000Z</time>
      </trkpt>
      <trkpt lat="48.86429" lon="2.33035">
        <ele>79.3</ele>
        <time>2013-02-18T19:29:51.000Z</time>
      </trkpt>
      <trkpt lat="48.86431" lon="2.3303">
        <ele>78.7</ele>
        <time>2013-02-18T19:29:52.000Z</time>
      </trkpt>
      <trkpt lat="48.86434" lon="2.33024">
        <ele>78.4</ele>
        <time>2013-02-18T19:29:53.000Z</time>
      </trkpt>
      <trkpt lat="48.86436" lon="2.33016">
        <ele>78.6</ele>
        <time>2013-02-18T19:29:54.000Z</time>
      </trkpt>
      <trkpt lat="48.86438" lon="2.3301">
        <ele>78.4</ele>
        <time>2013-02-18T19:29:55.000Z</time>
      </trkpt>
      <trkpt lat="48.8644" lon="2.33005">
        <ele>77</ele>
        <time>2013-02-18T19:29:56.000Z</time>
      </trkpt>
      <trkpt lat="48.86443" lon="2.32998">
        <ele>76.7</ele>
        <time>2013-02-18T19:29:57.000Z</time>
      </trkpt>
      <trkpt lat="48.86444" lon="2.32991">
        <ele>76.6</ele>
        <time>2013-02-18T19:29:58.000Z</time>
      </trkpt>
      <trkpt lat="48.86447" lon="2.32984">
        <ele>76.4</ele>
        <time>2013-02-18T19:29:59.000Z</time>
      </trkpt>
      <trkpt lat="48.8645" lon="2.32977">
        <ele>76.2</ele>
        <time>2013-02-18T19:30:00.000Z</time>
      </trkpt>
      <trkpt lat="48.86453" lon="2.32969">
        <ele>76.6</ele>
        <time>2013-02-18T19:30:01.000Z</time>
      </trkpt>
      <trkpt lat="48.86454" lon="2.32961">
        <ele>76</ele>
        <time>2013-02-18T19:30:02.000Z</time>
      </trkpt>
      <trkpt lat="48.86456" lon="2.32954">
        <ele>75.7</ele>
        <time>2013-02-18T19:30:03.000Z</time>
      </trkpt>
      <trkpt lat="48.86459" lon="2.32947">
        <ele>75.7</ele>
        <time>2013-02-18T19:30:04.000Z</time>
      </trkpt>
      <trkpt lat="48.86462" lon="2.32941">
        <ele>75.6</ele>
        <time>2013-02-18T19:30:05.000Z</time>
      </trkpt>
      <trkpt lat="48.86465" lon="2.32934">
        <ele>75.5</ele>
        <time>2013-02-18T19:30:06.000Z</time>
      </trkpt>
      <trkpt lat="48.86468" lon="2.32927">
        <ele>75.6</ele>
        <time>2013-02-18T19:30:07.000Z</time>
      </trkpt>
      <trkpt lat="48.8647" lon="2.32919">
        <ele>75.8</ele>
        <time>2013-02-18T19:30:08.000Z</time>
      </trkpt>
      <trkpt lat="48.86473" lon="2.32911">
        <ele>75.9</ele>
        <time>2013-02-18T19:30:09.000Z</time>
      </trkpt>
      <trkpt lat="48.86475" lon="2.32902">
        <ele>75.6</ele>
        <time>2013-02-18T19:30:10.000Z</time>
      </trkpt>
      <trkpt lat="48.86477" lon="2.32896">
        <ele>75.4</ele>
        <time>2013-02-18T19:30:11.000Z</time>
      </trkpt>
      <trkpt lat="48.86479" lon="2.32889">
        <ele>75.7</ele>
        <time>2013-02-18T19:30:12.000Z</time>
      </trkpt>
      <trkpt lat="48.86481" lon="2.32883">
        <ele>75.7</ele>
        <time>2013-02-18T19:30:13.000Z</time>
      </trkpt>
      <trkpt lat="48.86484" lon="2.32873">
        <ele>75.8</ele>
        <time>2013-02-18T19:30:14.000Z</time>
      </trkpt>
      <trkpt lat="48.86487" lon="2.32865">
        <ele>76.8</ele>
        <time>2013-02-18T19:30:15.000Z</time>
      </trkpt>
      <trkpt lat="48.8649" lon="2.32858">
        <ele>76.8</ele>
        <time>2013-02-18T19:30:16.000Z</time>
      </trkpt>
      <trkpt lat="48.86493" lon="2.3285">
        <ele>77.3</ele>
        <time>2013-02-18T19:30:17.000Z</time>
      </trkpt>
      <trkpt lat="48.86495" lon="2.32843">
        <ele>77.5</ele>
        <time>2013-02-18T19:30:18.000Z</time>
      </trkpt>
      <trkpt lat="48.86497" lon="2.32835">
        <ele>78.8</ele>
        <time>2013-02-18T19:30:19.000Z</time>
      </trkpt>
      <trkpt lat="48.86499" lon="2.32826">
        <ele>77.4</ele>
        <time>2013-02-18T19:30:20.000Z</time>
      </trkpt>
      <trkpt lat="48.865" lon="2.32816">
        <ele>76.9</ele>
        <time>2013-02-18T19:30:21.000Z</time>
      </trkpt>
      <trkpt lat="48.86503" lon="2.32809">
        <ele>77.3</ele>
        <time>2013-02-18T19:30:22.000Z</time>
      </trkpt>
      <trkpt lat="48.86505" lon="2.32802">
        <ele>77.2</ele>
        <time>2013-02-18T19:30:23.000Z</time>
      </trkpt>
      <trkpt lat="48.86507" lon="2.32794">
        <ele>77</ele>
        <time>2013-02-18T19:30:24.000Z</time>
      </trkpt>
      <trkpt lat="48.8651" lon="2.32787">
        <ele>77.3</ele>
        <time>2013-02-18T19:30:25.000Z</time>
      </trkpt>
      <trkpt lat="48.86513" lon="2.3278">
        <ele>77.1</ele>
        <time>2013-02-18T19:30:26.000Z</time>
      </trkpt>
      <trkpt lat="48.86516" lon="2.32773">
        <ele>77.4</ele>
        <time>2013-02-18T19:30:27.000Z</time>
      </trkpt>
      <trkpt lat="48.86519" lon="2.32767">
        <ele>77.2</ele>
        <time>2013-02-18T19:30:28.000Z</time>
      </trkpt>
      <trkpt lat="48.86522" lon="2.32759">
        <ele>76.9</ele>
        <time>2013-02-18T19:30:29.000Z</time>
      </trkpt>
      <trkpt lat="48.86524" lon="2.32752">
        <ele>77.1</ele>
        <time>2013-02-18T19:30:30.000Z</time>
      </trkpt>
      <trkpt lat="48.86526" lon="2.32745">
        <ele>76.6</ele>
        <time>2013-02-18T19:30:31.000Z</time>
      </trkpt>
      <trkpt lat="48.86529" lon="2.32737">
        <ele>77.3</ele>
        <time>2013-02-18T19:30:32.000Z</time>
      </trkpt>
      <trkpt lat="48.86532" lon="2.3273">
        <ele>78.6</ele>
        <time>2013-02-18T19:30:33.000Z</time>
      </trkpt>
      <trkpt lat="48.86534" lon="2.32723">
        <ele>78.3</ele>
        <time>2013-02-18T19:30:34.000Z</time>
      </trkpt>
      <trkpt lat="48.86537" lon="2.32715">
        <ele>78.9</ele>
        <time>2013-02-18T19:30:35.000Z</time>
      </trkpt>
      <trkpt lat="48.86539" lon="2.32707">
        <ele>79.2</ele>
        <time>2013-02-18T19:30:36.000Z</time>
      </trkpt>
      <trkpt lat="48.86542" lon="2.32699">
        <ele>79</ele>
        <time>2013-02-18T19:30:37.000Z</time>
      </trkpt>
      <trkpt lat="48.86544" lon="2.32691">
        <ele>78.9</ele>
        <time>2013-02-18T19:30:38.000Z</time>
      </trkpt>
      <trkpt lat="48.86546" lon="2.32683">
        <ele>78.5</ele>
        <time>2013-02-18T19:30:39.000Z</time>
      </trkpt>
      <trkpt lat="48.86549" lon="2.32677">
        <ele>77.9</ele>
        <time>2013-02-18T19:30:40.000Z</time>
      </trkpt>
      <trkpt lat="48.86551" lon="2.3267">
        <ele>78.6</ele>
        <time>2013-02-18T19:30:41.000Z</time>
      </trkpt>
      <trkpt lat="48.86554" lon="2.32662">
        <ele>78.7</ele>
        <time>2013-02-18T19:30:42.000Z</time>
      </trkpt>
      <trkpt lat="48.86556" lon="2.32655">
        <ele>78.6</ele>
        <time>2013-02-18T19:30:43.000Z</time>
      </trkpt>
      <trkpt lat="48.86559" lon="2.32649">
        <ele>79</ele>
        <time>2013-02-18T19:30:44.000Z</time>
      </trkpt>
      <trkpt lat="48.86561" lon="2.32641">
        <ele>79</ele>
        <time>2013-02-18T19:30:45.000Z</time>
      </trkpt>
      <trkpt lat="48.86563" lon="2.32634">
        <ele>79</ele>
        <time>2013-02-18T19:30:46.000Z</time>
      </trkpt>
      <trkpt lat="48.86566" lon="2.32627">
        <ele>79.1</ele>
        <time>2013-02-18T19:30:47.000Z</time>
      </trkpt>
      <trkpt lat="48.86568" lon="2.3262">
        <ele>79.1</ele>
        <time>2013-02-18T19:30:48.000Z</time>
      </trkpt>
      <trkpt lat="48.86571" lon="2.32612">
        <ele>79.1</ele>
        <time>2013-02-18T19:30:49.000Z</time>
      </trkpt>
      <trkpt lat="48.86573" lon="2.32605">
        <ele>79.1</ele>
        <time>2013-02-18T19:30:50.000Z</time>
      </trkpt>
      <trkpt lat="48.86575" lon="2.32598">
        <ele>79.7</ele>
        <time>2013-02-18T19:30:51.000Z</time>
      </trkpt>
      <trkpt lat="48.86578" lon="2.32592">
        <ele>79.6</ele>
        <time>2013-02-18T19:30:52.000Z</time>
      </trkpt>
      <trkpt lat="48.8658" lon="2.32584">
        <ele>79.6</ele>
        <time>2013-02-18T19:30:53.000Z</time>
      </trkpt>
      <trkpt lat="48.86583" lon="2.32577">
        <ele>79.9</ele>
        <time>2013-02-18T19:30:54.000Z</time>
      </trkpt>
      <trkpt lat="48.86585" lon="2.32571">
        <ele>80.2</ele>
        <time>2013-02-18T19:30:55.000Z</time>
      </trkpt>
      <trkpt lat="48.86588" lon="2.32566">
        <ele>80.4</ele>
        <time>2013-02-18T19:30:56.000Z</time>
      </trkpt>
      <trkpt lat="48.8659" lon="2.32559">
        <ele>80.3</ele>
        <time>2013-02-18T19:30:57.000Z</time>
      </trkpt>
      <trkpt lat="48.86592" lon="2.32552">
        <ele>79.7</ele>
        <time>2013-02-18T19:30:58.000Z</time>
      </trkpt>
      <trkpt lat="48.86594" lon="2.32544">
        <ele>79.9</ele>
        <time>2013-02-18T19:30:59.000Z</time>
      </trkpt>
      <trkpt lat="48.86596" lon="2.32537">
        <ele>80</ele>
        <time>2013-02-18T19:31:00.000Z</time>
      </trkpt>
      <trkpt lat="48.86599" lon="2.3253">
        <ele>80</ele>
        <time>2013-02-18T19:31:01.000Z</time>
      </trkpt>
      <trkpt lat="48.86601" lon="2.32524">
        <ele>79.7</ele>
        <time>2013-02-18T19:31:02.000Z</time>
      </trkpt>
      <trkpt lat="48.86603" lon="2.32517">
        <ele>79.7</ele>
        <time>2013-02-18T19:31:03.000Z</time>
      </trkpt>
      <trkpt lat="48.86605" lon="2.3251">
        <ele>79.3</ele>
        <time>2013-02-18T19:31:04.000Z</time>
      </trkpt>
      <trkpt lat="48.86607" lon="2.32502">
        <ele>78.8</ele>
        <time>2013-02-18T19:31:05.000Z</time>
      </trkpt>
      <trkpt lat="48.8661" lon="2.32495">
        <ele>79.8</ele>
        <time>2013-02-18T19:31:06.000Z</time>
      </trkpt>
      <trkpt lat="48.86612" lon="2.32489">
        <ele>79.7</ele>
        <time>2013-02-18T19:31:07.000Z</time>
      </trkpt>
      <trkpt lat="48.86614" lon="2.32483">
        <ele>79.4</ele>
        <time>2013-02-18T19:31:08.000Z</time>
      </trkpt>
      <trkpt lat="48.86617" lon="2.32476">
        <ele>79.2</ele>
        <time>2013-02-18T19:31:09.000Z</time>
      </trkpt>
      <trkpt lat="48.86619" lon="2.32469">
        <ele>78.7</ele>
        <time>2013-02-18T19:31:10.000Z</time>
      </trkpt>
      <trkpt lat="48.86621" lon="2.32463">
        <ele>77.8</ele>
        <time>2013-02-18T19:31:11.000Z</time>
      </trkpt>
      <trkpt lat="48.86623" lon="2.32457">
        <ele>77.4</ele>
        <time>2013-02-18T19:31:12.000Z</time>
      </trkpt>
      <trkpt lat="48.86625" lon="2.3245">
        <ele>76.8</ele>
        <time>2013-02-18T19:31:13.000Z</time>
      </trkpt>
      <trkpt lat="48.86627" lon="2.32441">
        <ele>75.1</ele>
        <time>2013-02-18T19:31:14.000Z</time>
      </trkpt>
      <trkpt lat="48.86629" lon="2.32435">
        <ele>75.1</ele>
        <time>2013-02-18T19:31:15.000Z</time>
      </trkpt>
      <trkpt lat="48.8663" lon="2.32427">
        <ele>74.6</ele>
        <time>2013-02-18T19:31:16.000Z</time>
      </trkpt>
      <trkpt lat="48.86632" lon="2.32421">
        <ele>74.1</ele>
        <time>2013-02-18T19:31:17.000Z</time>
      </trkpt>
      <trkpt lat="48.86632" lon="2.32414">
        <ele>73.6</ele>
        <time>2013-02-18T19:31:18.000Z</time>
      </trkpt>
      <trkpt lat="48.86634" lon="2.32405">
        <ele>74.1</ele>
        <time>2013-02-18T19:31:19.000Z</time>
      </trkpt>
      <trkpt lat="48.86635" lon="2.32398">
        <ele>73.8</ele>
        <time>2013-02-18T19:31:20.000Z</time>
      </trkpt>
      <trkpt lat="48.86637" lon="2.3239">
        <ele>74.9</ele>
        <time>2013-02-18T19:31:21.000Z</time>
      </trkpt>
      <trkpt lat="48.86637" lon="2.32385">
        <ele>75</ele>
        <time>2013-02-18T19:31:22.000Z</time>
      </trkpt>
      <trkpt lat="48.86638" lon="2.32379">
        <ele>74.9</ele>
        <time>2013-02-18T19:31:23.000Z</time>
      </trkpt>
      <trkpt lat="48.86638" lon="2.32373">
        <ele>75.8</ele>
        <time>2013-02-18T19:31:24.000Z</time>
      </trkpt>
      <trkpt lat="48.86639" lon="2.32367">
        <ele>75.6</ele>
        <time>2013-02-18T19:31:25.000Z</time>
      </trkpt>
      <trkpt lat="48.86639" lon="2.32362">
        <ele>75.8</ele>
        <time>2013-02-18T19:31:26.000Z</time>
      </trkpt>
      <trkpt lat="48.8664" lon="2.32355">
        <ele>77.4</ele>
        <time>2013-02-18T19:31:27.000Z</time>
      </trkpt>
      <trkpt lat="48.8664" lon="2.32351">
        <ele>78</ele>
        <time>2013-02-18T19:31:28.000Z</time>
      </trkpt>
      <trkpt lat="48.8664" lon="2.32347">
        <ele>77.8</ele>
        <time>2013-02-18T19:31:29.000Z</time>
      </trkpt>
      <trkpt lat="48.8664" lon="2.32343">
        <ele>77.5</ele>
        <time>2013-02-18T19:31:30.000Z</time>
      </trkpt>
      <trkpt lat="48.86641" lon="2.3234">
        <ele>77.3</ele>
        <time>2013-02-18T19:31:31.000Z</time>
      </trkpt>
      <trkpt lat="48.86642" lon="2.32336">
        <ele>78</ele>
        <time>2013-02-18T19:31:32.000Z</time>
      </trkpt>
      <trkpt lat="48.86643" lon="2.32332">
        <ele>78.2</ele>
        <time>2013-02-18T19:31:33.000Z</time>
      </trkpt>
      <trkpt lat="48.86645" lon="2.32328">
        <ele>77.2</ele>
        <time>2013-02-18T19:31:34.000Z</time>
      </trkpt>
      <trkpt lat="48.86646" lon="2.32324">
        <ele>77.9</ele>
        <time>2013-02-18T19:31:35.000Z</time>
      </trkpt>
      <trkpt lat="48.86648" lon="2.32319">
        <ele>78</ele>
        <time>2013-02-18T19:31:36.000Z</time>
      </trkpt>
      <trkpt lat="48.86649" lon="2.32314">
        <ele>78</ele>
        <time>2013-02-18T19:31:37.000Z</time>
      </trkpt>
      <trkpt lat="48.86651" lon="2.32309">
        <ele>78</ele>
        <time>2013-02-18T19:31:38.000Z</time>
      </trkpt>
      <trkpt lat="48.86653" lon="2.32304">
        <ele>77.9</ele>
        <time>2013-02-18T19:31:39.000Z</time>
      </trkpt>
      <trkpt lat="48.86654" lon="2.32299">
        <ele>78.6</ele>
        <time>2013-02-18T19:31:40.000Z</time>
      </trkpt>
      <trkpt lat="48.86656" lon="2.32293">
        <ele>78.3</ele>
        <time>2013-02-18T19:31:41.000Z</time>
      </trkpt>
      <trkpt lat="48.86658" lon="2.32288">
        <ele>79.2</ele>
        <time>2013-02-18T19:31:42.000Z</time>
      </trkpt>
      <trkpt lat="48.86659" lon="2.32283">
        <ele>79.7</ele>
        <time>2013-02-18T19:31:43.000Z</time>
      </trkpt>
      <trkpt lat="48.8666" lon="2.32278">
        <ele>79.9</ele>
        <time>2013-02-18T19:31:44.000Z</time>
      </trkpt>
      <trkpt lat="48.86661" lon="2.32274">
        <ele>80.5</ele>
        <time>2013-02-18T19:31:45.000Z</time>
      </trkpt>
      <trkpt lat="48.86663" lon="2.32269">
        <ele>80.7</ele>
        <time>2013-02-18T19:31:50.000Z</time>
      </trkpt>
      <trkpt lat="48.86664" lon="2.32268">
        <ele>79.9</ele>
        <time>2013-02-18T19:31:51.000Z</time>
      </trkpt>
      <trkpt lat="48.86659" lon="2.32269">
        <ele>82.9</ele>
        <time>2013-02-18T19:32:52.000Z</time>
      </trkpt>
      <trkpt lat="48.86659" lon="2.32269">
        <ele>82.9</ele>
        <time>2013-02-18T19:32:53.000Z</time>
      </trkpt>
      <trkpt lat="48.86661" lon="2.32266">
        <ele>81.8</ele>
        <time>2013-02-18T19:33:44.000Z</time>
      </trkpt>
      <trkpt lat="48.86662" lon="2.32264">
        <ele>80.9</ele>
        <time>2013-02-18T19:33:45.000Z</time>
      </trkpt>
      <trkpt lat="48.86665" lon="2.32261">
        <ele>79.8</ele>
        <time>2013-02-18T19:33:47.000Z</time>
      </trkpt>
      <trkpt lat="48.86666" lon="2.3226">
        <ele>79.3</ele>
        <time>2013-02-18T19:33:48.000Z</time>
      </trkpt>
      <trkpt lat="48.8667" lon="2.32256">
        <ele>79.9</ele>
        <time>2013-02-18T19:33:51.000Z</time>
      </trkpt>
      <trkpt lat="48.8667" lon="2.32254">
        <ele>79.3</ele>
        <time>2013-02-18T19:33:52.000Z</time>
      </trkpt>
      <trkpt lat="48.86671" lon="2.32249">
        <ele>78.1</ele>
        <time>2013-02-18T19:33:54.000Z</time>
      </trkpt>
      <trkpt lat="48.86672" lon="2.32247">
        <ele>78.9</ele>
        <time>2013-02-18T19:33:55.000Z</time>
      </trkpt>
      <trkpt lat="48.86674" lon="2.32242">
        <ele>78</ele>
        <time>2013-02-18T19:33:57.000Z</time>
      </trkpt>
      <trkpt lat="48.86675" lon="2.3224">
        <ele>77.6</ele>
        <time>2013-02-18T19:33:58.000Z</time>
      </trkpt>
      <trkpt lat="48.86676" lon="2.32233">
        <ele>78.9</ele>
        <time>2013-02-18T19:34:03.000Z</time>
      </trkpt>
      <trkpt lat="48.86676" lon="2.32233">
        <ele>78.9</ele>
        <time>2013-02-18T19:34:04.000Z</time>
      </trkpt>
      <trkpt lat="48.86677" lon="2.32228">
        <ele>79.2</ele>
        <time>2013-02-18T19:34:13.000Z</time>
      </trkpt>
      <trkpt lat="48.86677" lon="2.32226">
        <ele>79.7</ele>
        <time>2013-02-18T19:34:14.000Z</time>
      </trkpt>
      <trkpt lat="48.86679" lon="2.3222">
        <ele>80.8</ele>
        <time>2013-02-18T19:34:20.000Z</time>
      </trkpt>
      <trkpt lat="48.86679" lon="2.32219">
        <ele>80.2</ele>
        <time>2013-02-18T19:34:21.000Z</time>
      </trkpt>
      <trkpt lat="48.86681" lon="2.32214">
        <ele>79.6</ele>
        <time>2013-02-18T19:34:23.000Z</time>
      </trkpt>
      <trkpt lat="48.86682" lon="2.32211">
        <ele>79.7</ele>
        <time>2013-02-18T19:34:24.000Z</time>
      </trkpt>
      <trkpt lat="48.86684" lon="2.32207">
        <ele>79.3</ele>
        <time>2013-02-18T19:34:26.000Z</time>
      </trkpt>
      <trkpt lat="48.86685" lon="2.32204">
        <ele>79.3</ele>
        <time>2013-02-18T19:34:27.000Z</time>
      </trkpt>
      <trkpt lat="48.86687" lon="2.32199">
        <ele>79.3</ele>
        <time>2013-02-18T19:34:29.000Z</time>
      </trkpt>
      <trkpt lat="48.86688" lon="2.32197">
        <ele>79.6</ele>
        <time>2013-02-18T19:34:30.000Z</time>
      </trkpt>
      <trkpt lat="48.86689" lon="2.32194">
        <ele>79.4</ele>
        <time>2013-02-18T19:34:31.000Z</time>
      </trkpt>
      <trkpt lat="48.8669" lon="2.3219">
        <ele>78.7</ele>
        <time>2013-02-18T19:34:32.000Z</time>
      </trkpt>
      <trkpt lat="48.86692" lon="2.32186">
        <ele>78.3</ele>
        <time>2013-02-18T19:34:33.000Z</time>
      </trkpt>
      <trkpt lat="48.86694" lon="2.32182">
        <ele>79.1</ele>
        <time>2013-02-18T19:34:34.000Z</time>
      </trkpt>
      <trkpt lat="48.86695" lon="2.32178">
        <ele>79.3</ele>
        <time>2013-02-18T19:34:35.000Z</time>
      </trkpt>
      <trkpt lat="48.86697" lon="2.32175">
        <ele>79.2</ele>
        <time>2013-02-18T19:34:36.000Z</time>
      </trkpt>
      <trkpt lat="48.86698" lon="2.32172">
        <ele>78.6</ele>
        <time>2013-02-18T19:34:37.000Z</time>
      </trkpt>
      <trkpt lat="48.86699" lon="2.32169">
        <ele>78.4</ele>
        <time>2013-02-18T19:34:38.000Z</time>
      </trkpt>
      <trkpt lat="48.86702" lon="2.32164">
        <ele>76.8</ele>
        <time>2013-02-18T19:34:40.000Z</time>
      </trkpt>
      <trkpt lat="48.86704" lon="2.32162">
        <ele>75.8</ele>
        <time>2013-02-18T19:34:41.000Z</time>
      </trkpt>
      <trkpt lat="48.86705" lon="2.32159">
        <ele>76.1</ele>
        <time>2013-02-18T19:34:42.000Z</time>
      </trkpt>
      <trkpt lat="48.86706" lon="2.32156">
        <ele>76.3</ele>
        <time>2013-02-18T19:34:43.000Z</time>
      </trkpt>
      <trkpt lat="48.86707" lon="2.32153">
        <ele>75.8</ele>
        <time>2013-02-18T19:34:44.000Z</time>
      </trkpt>
      <trkpt lat="48.86708" lon="2.32149">
        <ele>76.2</ele>
        <time>2013-02-18T19:34:45.000Z</time>
      </trkpt>
      <trkpt lat="48.86709" lon="2.32145">
        <ele>76.3</ele>
        <time>2013-02-18T19:34:46.000Z</time>
      </trkpt>
      <trkpt lat="48.8671" lon="2.32142">
        <ele>75.7</ele>
        <time>2013-02-18T19:34:47.000Z</time>
      </trkpt>
      <trkpt lat="48.86711" lon="2.32138">
        <ele>74</ele>
        <time>2013-02-18T19:34:48.000Z</time>
      </trkpt>
      <trkpt lat="48.86712" lon="2.32134">
        <ele>73.1</ele>
        <time>2013-02-18T19:34:49.000Z</time>
      </trkpt>
      <trkpt lat="48.86712" lon="2.3213">
        <ele>73.6</ele>
        <time>2013-02-18T19:34:50.000Z</time>
      </trkpt>
      <trkpt lat="48.86713" lon="2.32127">
        <ele>72.7</ele>
        <time>2013-02-18T19:34:51.000Z</time>
      </trkpt>
      <trkpt lat="48.86713" lon="2.32123">
        <ele>72.3</ele>
        <time>2013-02-18T19:34:52.000Z</time>
      </trkpt>
      <trkpt lat="48.86715" lon="2.3212">
        <ele>71.7</ele>
        <time>2013-02-18T19:34:53.000Z</time>
      </trkpt>
      <trkpt lat="48.86716" lon="2.32116">
        <ele>71.3</ele>
        <time>2013-02-18T19:34:54.000Z</time>
      </trkpt>
      <trkpt lat="48.86717" lon="2.32113">
        <ele>71.5</ele>
        <time>2013-02-18T19:34:55.000Z</time>
      </trkpt>
      <trkpt lat="48.86718" lon="2.32109">
        <ele>72.6</ele>
        <time>2013-02-18T19:34:56.000Z</time>
      </trkpt>
      <trkpt lat="48.86719" lon="2.32106">
        <ele>72.6</ele>
        <time>2013-02-18T19:34:57.000Z</time>
      </trkpt>
      <trkpt lat="48.8672" lon="2.32102">
        <ele>72.4</ele>
        <time>2013-02-18T19:34:58.000Z</time>
      </trkpt>
      <trkpt lat="48.8672" lon="2.32098">
        <ele>73.2</ele>
        <time>2013-02-18T19:34:59.000Z</time>
      </trkpt>
      <trkpt lat="48.8672" lon="2.32094">
        <ele>73.5</ele>
        <time>2013-02-18T19:35:00.000Z</time>
      </trkpt>
      <trkpt lat="48.8672" lon="2.3209">
        <ele>73.7</ele>
        <time>2013-02-18T19:35:01.000Z</time>
      </trkpt>
      <trkpt lat="48.8672" lon="2.32086">
        <ele>73.8</ele>
        <time>2013-02-18T19:35:02.000Z</time>
      </trkpt>
      <trkpt lat="48.86719" lon="2.32082">
        <ele>74.2</ele>
        <time>2013-02-18T19:35:03.000Z</time>
      </trkpt>
      <trkpt lat="48.86719" lon="2.32078">
        <ele>75.3</ele>
        <time>2013-02-18T19:35:04.000Z</time>
      </trkpt>
      <trkpt lat="48.86718" lon="2.32074">
        <ele>76.4</ele>
        <time>2013-02-18T19:35:05.000Z</time>
      </trkpt>
      <trkpt lat="48.86716" lon="2.3207">
        <ele>76.8</ele>
        <time>2013-02-18T19:35:06.000Z</time>
      </trkpt>
      <trkpt lat="48.86715" lon="2.32066">
        <ele>77.9</ele>
        <time>2013-02-18T19:35:07.000Z</time>
      </trkpt>
      <trkpt lat="48.86714" lon="2.32062">
        <ele>78.8</ele>
        <time>2013-02-18T19:35:08.000Z</time>
      </trkpt>
      <trkpt lat="48.86713" lon="2.32058">
        <ele>79.2</ele>
        <time>2013-02-18T19:35:09.000Z</time>
      </trkpt>
      <trkpt lat="48.86712" lon="2.32052">
        <ele>79</ele>
        <time>2013-02-18T19:35:11.000Z</time>
      </trkpt>
      <trkpt lat="48.86712" lon="2.3205">
        <ele>78.8</ele>
        <time>2013-02-18T19:35:12.000Z</time>
      </trkpt>
      <trkpt lat="48.86711" lon="2.32044">
        <ele>81.1</ele>
        <time>2013-02-18T19:35:14.000Z</time>
      </trkpt>
      <trkpt lat="48.8671" lon="2.32041">
        <ele>80.1</ele>
        <time>2013-02-18T19:35:15.000Z</time>
      </trkpt>
      <trkpt lat="48.86709" lon="2.32038">
        <ele>78.9</ele>
        <time>2013-02-18T19:35:16.000Z</time>
      </trkpt>
      <trkpt lat="48.86709" lon="2.32033">
        <ele>78</ele>
        <time>2013-02-18T19:35:17.000Z</time>
      </trkpt>
      <trkpt lat="48.8671" lon="2.32029">
        <ele>77.1</ele>
        <time>2013-02-18T19:35:18.000Z</time>
      </trkpt>
      <trkpt lat="48.86711" lon="2.32024">
        <ele>77.2</ele>
        <time>2013-02-18T19:35:19.000Z</time>
      </trkpt>
      <trkpt lat="48.86713" lon="2.3202">
        <ele>76.3</ele>
        <time>2013-02-18T19:35:20.000Z</time>
      </trkpt>
      <trkpt lat="48.86714" lon="2.32015">
        <ele>76.6</ele>
        <time>2013-02-18T19:35:21.000Z</time>
      </trkpt>
      <trkpt lat="48.86717" lon="2.3201">
        <ele>77.1</ele>
        <time>2013-02-18T19:35:22.000Z</time>
      </trkpt>
      <trkpt lat="48.86719" lon="2.32006">
        <ele>77.5</ele>
        <time>2013-02-18T19:35:23.000Z</time>
      </trkpt>
      <trkpt lat="48.86721" lon="2.32">
        <ele>77.2</ele>
        <time>2013-02-18T19:35:24.000Z</time>
      </trkpt>
      <trkpt lat="48.86723" lon="2.31995">
        <ele>76.4</ele>
        <time>2013-02-18T19:35:25.000Z</time>
      </trkpt>
      <trkpt lat="48.86725" lon="2.31988">
        <ele>75.7</ele>
        <time>2013-02-18T19:35:26.000Z</time>
      </trkpt>
      <trkpt lat="48.86727" lon="2.31981">
        <ele>75</ele>
        <time>2013-02-18T19:35:27.000Z</time>
      </trkpt>
      <trkpt lat="48.86729" lon="2.31974">
        <ele>75.1</ele>
        <time>2013-02-18T19:35:28.000Z</time>
      </trkpt>
      <trkpt lat="48.86732" lon="2.31965">
        <ele>75.7</ele>
        <time>2013-02-18T19:35:29.000Z</time>
      </trkpt>
      <trkpt lat="48.86735" lon="2.31958">
        <ele>75.2</ele>
        <time>2013-02-18T19:35:30.000Z</time>
      </trkpt>
      <trkpt lat="48.86737" lon="2.31952">
        <ele>75.6</ele>
        <time>2013-02-18T19:35:31.000Z</time>
      </trkpt>
      <trkpt lat="48.86739" lon="2.31946">
        <ele>75.7</ele>
        <time>2013-02-18T19:35:32.000Z</time>
      </trkpt>
      <trkpt lat="48.86741" lon="2.3194">
        <ele>74.8</ele>
        <time>2013-02-18T19:35:33.000Z</time>
      </trkpt>
      <trkpt lat="48.86743" lon="2.31936">
        <ele>74.4</ele>
        <time>2013-02-18T19:35:34.000Z</time>
      </trkpt>
      <trkpt lat="48.86746" lon="2.3193">
        <ele>73.9</ele>
        <time>2013-02-18T19:35:35.000Z</time>
      </trkpt>
      <trkpt lat="48.86748" lon="2.31925">
        <ele>73.6</ele>
        <time>2013-02-18T19:35:36.000Z</time>
      </trkpt>
      <trkpt lat="48.86751" lon="2.31917">
        <ele>72.9</ele>
        <time>2013-02-18T19:35:37.000Z</time>
      </trkpt>
      <trkpt lat="48.86753" lon="2.31909">
        <ele>72.7</ele>
        <time>2013-02-18T19:35:38.000Z</time>
      </trkpt>
      <trkpt lat="48.86756" lon="2.31911">
        <ele>68.9</ele>
        <time>2013-02-18T19:35:39.000Z</time>
      </trkpt>
      <trkpt lat="48.86758" lon="2.31906">
        <ele>67.9</ele>
        <time>2013-02-18T19:35:40.000Z</time>
      </trkpt>
      <trkpt lat="48.8676" lon="2.31903">
        <ele>78.8</ele>
        <time>2013-02-18T19:35:41.000Z</time>
      </trkpt>
      <trkpt lat="48.86763" lon="2.319">
        <ele>76</ele>
        <time>2013-02-18T19:35:42.000Z</time>
      </trkpt>
      <trkpt lat="48.86765" lon="2.31896">
        <ele>74.1</ele>
        <time>2013-02-18T19:35:43.000Z</time>
      </trkpt>
      <trkpt lat="48.86767" lon="2.31892">
        <ele>71.9</ele>
        <time>2013-02-18T19:35:44.000Z</time>
      </trkpt>
      <trkpt lat="48.8677" lon="2.31886">
        <ele>71.4</ele>
        <time>2013-02-18T19:35:45.000Z</time>
      </trkpt>
      <trkpt lat="48.86773" lon="2.31881">
        <ele>73.2</ele>
        <time>2013-02-18T19:35:46.000Z</time>
      </trkpt>
      <trkpt lat="48.86776" lon="2.31875">
        <ele>71.6</ele>
        <time>2013-02-18T19:35:47.000Z</time>
      </trkpt>
      <trkpt lat="48.86778" lon="2.31869">
        <ele>71.6</ele>
        <time>2013-02-18T19:35:48.000Z</time>
      </trkpt>
      <trkpt lat="48.8678" lon="2.31861">
        <ele>70.1</ele>
        <time>2013-02-18T19:35:49.000Z</time>
      </trkpt>
      <trkpt lat="48.86782" lon="2.31841">
        <ele>68.5</ele>
        <time>2013-02-18T19:35:50.000Z</time>
      </trkpt>
      <trkpt lat="48.86784" lon="2.31836">
        <ele>67.3</ele>
        <time>2013-02-18T19:35:51.000Z</time>
      </trkpt>
      <trkpt lat="48.86786" lon="2.3183">
        <ele>66.4</ele>
        <time>2013-02-18T19:35:52.000Z</time>
      </trkpt>
      <trkpt lat="48.86789" lon="2.31822">
        <ele>65.8</ele>
        <time>2013-02-18T19:35:53.000Z</time>
      </trkpt>
      <trkpt lat="48.86793" lon="2.31813">
        <ele>64.6</ele>
        <time>2013-02-18T19:35:54.000Z</time>
      </trkpt>
      <trkpt lat="48.86797" lon="2.31804">
        <ele>65</ele>
        <time>2013-02-18T19:35:55.000Z</time>
      </trkpt>
      <trkpt lat="48.868" lon="2.31793">
        <ele>64.3</ele>
        <time>2013-02-18T19:35:56.000Z</time>
      </trkpt>
      <trkpt lat="48.86803" lon="2.31784">
        <ele>63.3</ele>
        <time>2013-02-18T19:35:57.000Z</time>
      </trkpt>
      <trkpt lat="48.86807" lon="2.31775">
        <ele>61.7</ele>
        <time>2013-02-18T19:35:58.000Z</time>
      </trkpt>
      <trkpt lat="48.86808" lon="2.31766">
        <ele>61.6</ele>
        <time>2013-02-18T19:35:59.000Z</time>
      </trkpt>
      <trkpt lat="48.86811" lon="2.31758">
        <ele>62.1</ele>
        <time>2013-02-18T19:36:00.000Z</time>
      </trkpt>
      <trkpt lat="48.86814" lon="2.31748">
        <ele>61.1</ele>
        <time>2013-02-18T19:36:01.000Z</time>
      </trkpt>
      <trkpt lat="48.86815" lon="2.3174">
        <ele>64.9</ele>
        <time>2013-02-18T19:36:02.000Z</time>
      </trkpt>
      <trkpt lat="48.86816" lon="2.31734">
        <ele>64.1</ele>
        <time>2013-02-18T19:36:03.000Z</time>
      </trkpt>
      <trkpt lat="48.86819" lon="2.31725">
        <ele>63.5</ele>
        <time>2013-02-18T19:36:04.000Z</time>
      </trkpt>
      <trkpt lat="48.86821" lon="2.31719">
        <ele>62.7</ele>
        <time>2013-02-18T19:36:05.000Z</time>
      </trkpt>
      <trkpt lat="48.86822" lon="2.31709">
        <ele>62.8</ele>
        <time>2013-02-18T19:36:06.000Z</time>
      </trkpt>
      <trkpt lat="48.86823" lon="2.317">
        <ele>63.6</ele>
        <time>2013-02-18T19:36:07.000Z</time>
      </trkpt>
      <trkpt lat="48.86826" lon="2.31693">
        <ele>64.3</ele>
        <time>2013-02-18T19:36:08.000Z</time>
      </trkpt>
      <trkpt lat="48.86828" lon="2.31687">
        <ele>63</ele>
        <time>2013-02-18T19:36:09.000Z</time>
      </trkpt>
      <trkpt lat="48.8683" lon="2.31679">
        <ele>64.4</ele>
        <time>2013-02-18T19:36:10.000Z</time>
      </trkpt>
      <trkpt lat="48.86831" lon="2.31674">
        <ele>64.3</ele>
        <time>2013-02-18T19:36:11.000Z</time>
      </trkpt>
      <trkpt lat="48.86832" lon="2.31666">
        <ele>64.5</ele>
        <time>2013-02-18T19:36:12.000Z</time>
      </trkpt>
      <trkpt lat="48.86832" lon="2.31658">
        <ele>65.7</ele>
        <time>2013-02-18T19:36:13.000Z</time>
      </trkpt>
      <trkpt lat="48.86833" lon="2.31648">
        <ele>67.4</ele>
        <time>2013-02-18T19:36:14.000Z</time>
      </trkpt>
      <trkpt lat="48.86833" lon="2.31642">
        <ele>67.8</ele>
        <time>2013-02-18T19:36:15.000Z</time>
      </trkpt>
      <trkpt lat="48.86833" lon="2.31636">
        <ele>68.7</ele>
        <time>2013-02-18T19:36:16.000Z</time>
      </trkpt>
      <trkpt lat="48.86832" lon="2.3163">
        <ele>68.1</ele>
        <time>2013-02-18T19:36:17.000Z</time>
      </trkpt>
      <trkpt lat="48.86832" lon="2.31625">
        <ele>67.2</ele>
        <time>2013-02-18T19:36:18.000Z</time>
      </trkpt>
      <trkpt lat="48.86831" lon="2.31619">
        <ele>66.6</ele>
        <time>2013-02-18T19:36:19.000Z</time>
      </trkpt>
      <trkpt lat="48.86831" lon="2.31614">
        <ele>66.8</ele>
        <time>2013-02-18T19:36:20.000Z</time>
      </trkpt>
      <trkpt lat="48.86831" lon="2.31608">
        <ele>66.8</ele>
        <time>2013-02-18T19:36:21.000Z</time>
      </trkpt>
      <trkpt lat="48.86832" lon="2.31603">
        <ele>66.9</ele>
        <time>2013-02-18T19:36:22.000Z</time>
      </trkpt>
      <trkpt lat="48.86832" lon="2.31591">
        <ele>67</ele>
        <time>2013-02-18T19:36:24.133Z</time>
      </trkpt>
      <trkpt lat="48.86832" lon="2.31588">
        <ele>65.1</ele>
        <time>2013-02-18T19:36:25.000Z</time>
      </trkpt>
      <trkpt lat="48.86832" lon="2.31583">
        <ele>65.2</ele>
        <time>2013-02-18T19:36:26.000Z</time>
      </trkpt>
      <trkpt lat="48.86832" lon="2.31579">
        <ele>64.9</ele>
        <time>2013-02-18T19:36:27.000Z</time>
      </trkpt>
      <trkpt lat="48.86832" lon="2.31573">
        <ele>66.5</ele>
        <time>2013-02-18T19:36:28.000Z</time>
      </trkpt>
      <trkpt lat="48.86833" lon="2.31567">
        <ele>66</ele>
        <time>2013-02-18T19:36:29.000Z</time>
      </trkpt>
      <trkpt lat="48.86834" lon="2.31559">
        <ele>66.9</ele>
        <time>2013-02-18T19:36:30.000Z</time>
      </trkpt>
      <trkpt lat="48.86835" lon="2.31551">
        <ele>66.9</ele>
        <time>2013-02-18T19:36:31.000Z</time>
      </trkpt>
      <trkpt lat="48.86837" lon="2.31544">
        <ele>66.8</ele>
        <time>2013-02-18T19:36:32.000Z</time>
      </trkpt>
      <trkpt lat="48.86839" lon="2.31537">
        <ele>66.5</ele>
        <time>2013-02-18T19:36:33.000Z</time>
      </trkpt>
      <trkpt lat="48.86844" lon="2.31525">
        <ele>67</ele>
        <time>2013-02-18T19:36:34.000Z</time>
      </trkpt>
      <trkpt lat="48.86847" lon="2.31519">
        <ele>66.9</ele>
        <time>2013-02-18T19:36:35.000Z</time>
      </trkpt>
      <trkpt lat="48.8685" lon="2.31513">
        <ele>67.2</ele>
        <time>2013-02-18T19:36:36.000Z</time>
      </trkpt>
      <trkpt lat="48.86853" lon="2.31507">
        <ele>67.7</ele>
        <time>2013-02-18T19:36:37.000Z</time>
      </trkpt>
      <trkpt lat="48.86856" lon="2.31503">
        <ele>68.1</ele>
        <time>2013-02-18T19:36:38.000Z</time>
      </trkpt>
      <trkpt lat="48.86859" lon="2.315">
        <ele>67.2</ele>
        <time>2013-02-18T19:36:39.000Z</time>
      </trkpt>
      <trkpt lat="48.86862" lon="2.31498">
        <ele>65.8</ele>
        <time>2013-02-18T19:36:40.000Z</time>
      </trkpt>
      <trkpt lat="48.86866" lon="2.31493">
        <ele>66.8</ele>
        <time>2013-02-18T19:36:41.000Z</time>
      </trkpt>
      <trkpt lat="48.86869" lon="2.31491">
        <ele>67.5</ele>
        <time>2013-02-18T19:36:42.000Z</time>
      </trkpt>
      <trkpt lat="48.86873" lon="2.31487">
        <ele>69.4</ele>
        <time>2013-02-18T19:36:43.000Z</time>
      </trkpt>
      <trkpt lat="48.86875" lon="2.31486">
        <ele>68.3</ele>
        <time>2013-02-18T19:36:44.000Z</time>
      </trkpt>
      <trkpt lat="48.86877" lon="2.31483">
        <ele>68.8</ele>
        <time>2013-02-18T19:36:45.000Z</time>
      </trkpt>
      <trkpt lat="48.86881" lon="2.31482">
        <ele>71.7</ele>
        <time>2013-02-18T19:36:47.000Z</time>
      </trkpt>
      <trkpt lat="48.86883" lon="2.31483">
        <ele>71.4</ele>
        <time>2013-02-18T19:36:48.000Z</time>
      </trkpt>
      <trkpt lat="48.86886" lon="2.31485">
        <ele>71.1</ele>
        <time>2013-02-18T19:36:51.000Z</time>
      </trkpt>
      <trkpt lat="48.86888" lon="2.31487">
        <ele>70</ele>
        <time>2013-02-18T19:36:52.000Z</time>
      </trkpt>
      <trkpt lat="48.8689" lon="2.31488">
        <ele>69.2</ele>
        <time>2013-02-18T19:36:53.000Z</time>
      </trkpt>
      <trkpt lat="48.86892" lon="2.3149">
        <ele>68.7</ele>
        <time>2013-02-18T19:36:54.000Z</time>
      </trkpt>
      <trkpt lat="48.86894" lon="2.31492">
        <ele>69.5</ele>
        <time>2013-02-18T19:36:55.000Z</time>
      </trkpt>
      <trkpt lat="48.86897" lon="2.31494">
        <ele>69.9</ele>
        <time>2013-02-18T19:36:56.000Z</time>
      </trkpt>
      <trkpt lat="48.86899" lon="2.31496">
        <ele>69.7</ele>
        <time>2013-02-18T19:36:57.000Z</time>
      </trkpt>
      <trkpt lat="48.86902" lon="2.31498">
        <ele>69.2</ele>
        <time>2013-02-18T19:36:58.000Z</time>
      </trkpt>
      <trkpt lat="48.86905" lon="2.31501">
        <ele>65.8</ele>
        <time>2013-02-18T19:37:00.000Z</time>
      </trkpt>
      <trkpt lat="48.86907" lon="2.31502">
        <ele>65.7</ele>
        <time>2013-02-18T19:37:01.000Z</time>
      </trkpt>
      <trkpt lat="48.8691" lon="2.31504">
        <ele>64.8</ele>
        <time>2013-02-18T19:37:02.000Z</time>
      </trkpt>
      <trkpt lat="48.86912" lon="2.31506">
        <ele>64.3</ele>
        <time>2013-02-18T19:37:03.000Z</time>
      </trkpt>
      <trkpt lat="48.86914" lon="2.31508">
        <ele>63.4</ele>
        <time>2013-02-18T19:37:04.000Z</time>
      </trkpt>
      <trkpt lat="48.86916" lon="2.31511">
        <ele>62.9</ele>
        <time>2013-02-18T19:37:05.000Z</time>
      </trkpt>
      <trkpt lat="48.86918" lon="2.31513">
        <ele>63.2</ele>
        <time>2013-02-18T19:37:06.000Z</time>
      </trkpt>
      <trkpt lat="48.86921" lon="2.31516">
        <ele>63</ele>
        <time>2013-02-18T19:37:07.000Z</time>
      </trkpt>
      <trkpt lat="48.86924" lon="2.31519">
        <ele>63.7</ele>
        <time>2013-02-18T19:37:08.000Z</time>
      </trkpt>
      <trkpt lat="48.86927" lon="2.31521">
        <ele>64</ele>
        <time>2013-02-18T19:37:09.000Z</time>
      </trkpt>
      <trkpt lat="48.86929" lon="2.31522">
        <ele>64.3</ele>
        <time>2013-02-18T19:37:10.000Z</time>
      </trkpt>
      <trkpt lat="48.86932" lon="2.31524">
        <ele>64.3</ele>
        <time>2013-02-18T19:37:11.000Z</time>
      </trkpt>
      <trkpt lat="48.86934" lon="2.31526">
        <ele>62.8</ele>
        <time>2013-02-18T19:37:12.000Z</time>
      </trkpt>
      <trkpt lat="48.86937" lon="2.31528">
        <ele>64.1</ele>
        <time>2013-02-18T19:37:13.000Z</time>
      </trkpt>
      <trkpt lat="48.8694" lon="2.31531">
        <ele>63.3</ele>
        <time>2013-02-18T19:37:14.000Z</time>
      </trkpt>
      <trkpt lat="48.86943" lon="2.31533">
        <ele>63.1</ele>
        <time>2013-02-18T19:37:15.000Z</time>
      </trkpt>
      <trkpt lat="48.86947" lon="2.31536">
        <ele>63.4</ele>
        <time>2013-02-18T19:37:16.000Z</time>
      </trkpt>
      <trkpt lat="48.8695" lon="2.31539">
        <ele>63.9</ele>
        <time>2013-02-18T19:37:17.000Z</time>
      </trkpt>
      <trkpt lat="48.86954" lon="2.31541">
        <ele>62.9</ele>
        <time>2013-02-18T19:37:18.000Z</time>
      </trkpt>
      <trkpt lat="48.86958" lon="2.31544">
        <ele>63.1</ele>
        <time>2013-02-18T19:37:19.000Z</time>
      </trkpt>
      <trkpt lat="48.86963" lon="2.31548">
        <ele>62.8</ele>
        <time>2013-02-18T19:37:20.000Z</time>
      </trkpt>
      <trkpt lat="48.86968" lon="2.31552">
        <ele>62.5</ele>
        <time>2013-02-18T19:37:21.000Z</time>
      </trkpt>
      <trkpt lat="48.86972" lon="2.31556">
        <ele>63.4</ele>
        <time>2013-02-18T19:37:22.000Z</time>
      </trkpt>
      <trkpt lat="48.86983" lon="2.31565">
        <ele>60.6</ele>
        <time>2013-02-18T19:37:25.000Z</time>
      </trkpt>
      <trkpt lat="48.86985" lon="2.31568">
        <ele>60.3</ele>
        <time>2013-02-18T19:37:26.000Z</time>
      </trkpt>
      <trkpt lat="48.86987" lon="2.31571">
        <ele>60.3</ele>
        <time>2013-02-18T19:37:27.000Z</time>
      </trkpt>
      <trkpt lat="48.86991" lon="2.31573">
        <ele>61</ele>
        <time>2013-02-18T19:37:28.000Z</time>
      </trkpt>
      <trkpt lat="48.87" lon="2.31578">
        <ele>60.5</ele>
        <time>2013-02-18T19:37:29.000Z</time>
      </trkpt>
      <trkpt lat="48.87004" lon="2.31581">
        <ele>60.2</ele>
        <time>2013-02-18T19:37:30.000Z</time>
      </trkpt>
      <trkpt lat="48.87009" lon="2.31584">
        <ele>59.8</ele>
        <time>2013-02-18T19:37:31.000Z</time>
      </trkpt>
      <trkpt lat="48.87014" lon="2.31588">
        <ele>60.6</ele>
        <time>2013-02-18T19:37:32.000Z</time>
      </trkpt>
      <trkpt lat="48.8702" lon="2.31591">
        <ele>61.9</ele>
        <time>2013-02-18T19:37:33.000Z</time>
      </trkpt>
      <trkpt lat="48.87025" lon="2.31593">
        <ele>62.4</ele>
        <time>2013-02-18T19:37:34.000Z</time>
      </trkpt>
      <trkpt lat="48.8703" lon="2.31598">
        <ele>61</ele>
        <time>2013-02-18T19:37:35.000Z</time>
      </trkpt>
      <trkpt lat="48.87033" lon="2.31602">
        <ele>60.9</ele>
        <time>2013-02-18T19:37:36.000Z</time>
      </trkpt>
      <trkpt lat="48.87038" lon="2.31605">
        <ele>61.2</ele>
        <time>2013-02-18T19:37:37.000Z</time>
      </trkpt>
      <trkpt lat="48.87043" lon="2.31607">
        <ele>61.7</ele>
        <time>2013-02-18T19:37:38.000Z</time>
      </trkpt>
      <trkpt lat="48.87045" lon="2.3161">
        <ele>61.9</ele>
        <time>2013-02-18T19:37:39.000Z</time>
      </trkpt>
      <trkpt lat="48.87049" lon="2.31613">
        <ele>62.2</ele>
        <time>2013-02-18T19:37:40.000Z</time>
      </trkpt>
      <trkpt lat="48.87052" lon="2.31616">
        <ele>62.5</ele>
        <time>2013-02-18T19:37:41.000Z</time>
      </trkpt>
      <trkpt lat="48.87056" lon="2.31619">
        <ele>63.2</ele>
        <time>2013-02-18T19:37:42.000Z</time>
      </trkpt>
      <trkpt lat="48.8706" lon="2.31622">
        <ele>62.9</ele>
        <time>2013-02-18T19:37:43.000Z</time>
      </trkpt>
      <trkpt lat="48.87065" lon="2.31625">
        <ele>63.7</ele>
        <time>2013-02-18T19:37:44.000Z</time>
      </trkpt>
      <trkpt lat="48.87069" lon="2.31627">
        <ele>63</ele>
        <time>2013-02-18T19:37:45.000Z</time>
      </trkpt>
      <trkpt lat="48.87073" lon="2.31628">
        <ele>62.1</ele>
        <time>2013-02-18T19:37:46.000Z</time>
      </trkpt>
      <trkpt lat="48.87076" lon="2.3163">
        <ele>61.9</ele>
        <time>2013-02-18T19:37:47.000Z</time>
      </trkpt>
      <trkpt lat="48.87078" lon="2.31634">
        <ele>62.1</ele>
        <time>2013-02-18T19:37:48.000Z</time>
      </trkpt>
      <trkpt lat="48.87081" lon="2.31637">
        <ele>62</ele>
        <time>2013-02-18T19:37:49.000Z</time>
      </trkpt>
      <trkpt lat="48.87083" lon="2.31642">
        <ele>63.7</ele>
        <time>2013-02-18T19:37:50.000Z</time>
      </trkpt>
      <trkpt lat="48.87085" lon="2.31646">
        <ele>63.3</ele>
        <time>2013-02-18T19:37:51.000Z</time>
      </trkpt>
      <trkpt lat="48.87087" lon="2.31652">
        <ele>64.5</ele>
        <time>2013-02-18T19:37:52.000Z</time>
      </trkpt>
      <trkpt lat="48.87088" lon="2.31657">
        <ele>65.2</ele>
        <time>2013-02-18T19:37:53.000Z</time>
      </trkpt>
      <trkpt lat="48.8709" lon="2.31662">
        <ele>65.1</ele>
        <time>2013-02-18T19:37:54.000Z</time>
      </trkpt>
      <trkpt lat="48.87091" lon="2.31668">
        <ele>64.2</ele>
        <time>2013-02-18T19:37:55.000Z</time>
      </trkpt>
      <trkpt lat="48.87093" lon="2.31673">
        <ele>63</ele>
        <time>2013-02-18T19:37:56.000Z</time>
      </trkpt>
      <trkpt lat="48.87095" lon="2.31678">
        <ele>62</ele>
        <time>2013-02-18T19:37:57.000Z</time>
      </trkpt>
      <trkpt lat="48.87097" lon="2.31682">
        <ele>61.5</ele>
        <time>2013-02-18T19:37:58.000Z</time>
      </trkpt>
      <trkpt lat="48.87099" lon="2.31687">
        <ele>62</ele>
        <time>2013-02-18T19:37:59.000Z</time>
      </trkpt>
      <trkpt lat="48.87101" lon="2.31693">
        <ele>62.4</ele>
        <time>2013-02-18T19:38:00.000Z</time>
      </trkpt>
      <trkpt lat="48.87103" lon="2.317">
        <ele>62.4</ele>
        <time>2013-02-18T19:38:01.000Z</time>
      </trkpt>
      <trkpt lat="48.87106" lon="2.31706">
        <ele>62.1</ele>
        <time>2013-02-18T19:38:02.000Z</time>
      </trkpt>
      <trkpt lat="48.87107" lon="2.31713">
        <ele>62</ele>
        <time>2013-02-18T19:38:03.000Z</time>
      </trkpt>
      <trkpt lat="48.8711" lon="2.31719">
        <ele>62.3</ele>
        <time>2013-02-18T19:38:04.000Z</time>
      </trkpt>
      <trkpt lat="48.87112" lon="2.31726">
        <ele>62.7</ele>
        <time>2013-02-18T19:38:05.000Z</time>
      </trkpt>
      <trkpt lat="48.87113" lon="2.31733">
        <ele>62.4</ele>
        <time>2013-02-18T19:38:06.000Z</time>
      </trkpt>
      <trkpt lat="48.87115" lon="2.31739">
        <ele>62</ele>
        <time>2013-02-18T19:38:07.000Z</time>
      </trkpt>
      <trkpt lat="48.87116" lon="2.31746">
        <ele>61.4</ele>
        <time>2013-02-18T19:38:08.000Z</time>
      </trkpt>
      <trkpt lat="48.87116" lon="2.31753">
        <ele>60.5</ele>
        <time>2013-02-18T19:38:09.000Z</time>
      </trkpt>
      <trkpt lat="48.87117" lon="2.3176">
        <ele>62.4</ele>
        <time>2013-02-18T19:38:10.000Z</time>
      </trkpt>
      <trkpt lat="48.87118" lon="2.31767">
        <ele>62.9</ele>
        <time>2013-02-18T19:38:11.000Z</time>
      </trkpt>
      <trkpt lat="48.87119" lon="2.31774">
        <ele>62.9</ele>
        <time>2013-02-18T19:38:12.000Z</time>
      </trkpt>
      <trkpt lat="48.87121" lon="2.3178">
        <ele>62.2</ele>
        <time>2013-02-18T19:38:13.000Z</time>
      </trkpt>
      <trkpt lat="48.87123" lon="2.31787">
        <ele>62.2</ele>
        <time>2013-02-18T19:38:14.000Z</time>
      </trkpt>
      <trkpt lat="48.87126" lon="2.31793">
        <ele>61.7</ele>
        <time>2013-02-18T19:38:15.000Z</time>
      </trkpt>
      <trkpt lat="48.87128" lon="2.31799">
        <ele>62.2</ele>
        <time>2013-02-18T19:38:16.000Z</time>
      </trkpt>
      <trkpt lat="48.87131" lon="2.31804">
        <ele>63.7</ele>
        <time>2013-02-18T19:38:17.000Z</time>
      </trkpt>
      <trkpt lat="48.87133" lon="2.31807">
        <ele>63</ele>
        <time>2013-02-18T19:38:18.000Z</time>
      </trkpt>
      <trkpt lat="48.87136" lon="2.31811">
        <ele>62.8</ele>
        <time>2013-02-18T19:38:19.000Z</time>
      </trkpt>
      <trkpt lat="48.87139" lon="2.31814">
        <ele>60.4</ele>
        <time>2013-02-18T19:38:20.000Z</time>
      </trkpt>
      <trkpt lat="48.87142" lon="2.31818">
        <ele>59.6</ele>
        <time>2013-02-18T19:38:21.000Z</time>
      </trkpt>
      <trkpt lat="48.87145" lon="2.31822">
        <ele>58.8</ele>
        <time>2013-02-18T19:38:22.000Z</time>
      </trkpt>
      <trkpt lat="48.87149" lon="2.31826">
        <ele>58.1</ele>
        <time>2013-02-18T19:38:23.000Z</time>
      </trkpt>
      <trkpt lat="48.87153" lon="2.3183">
        <ele>57.3</ele>
        <time>2013-02-18T19:38:24.000Z</time>
      </trkpt>
      <trkpt lat="48.87157" lon="2.31834">
        <ele>58.5</ele>
        <time>2013-02-18T19:38:25.000Z</time>
      </trkpt>
      <trkpt lat="48.87163" lon="2.31837">
        <ele>60.3</ele>
        <time>2013-02-18T19:38:26.000Z</time>
      </trkpt>
      <trkpt lat="48.87168" lon="2.31838">
        <ele>60.9</ele>
        <time>2013-02-18T19:38:27.000Z</time>
      </trkpt>
      <trkpt lat="48.87173" lon="2.31838">
        <ele>60.7</ele>
        <time>2013-02-18T19:38:28.000Z</time>
      </trkpt>
      <trkpt lat="48.87178" lon="2.31838">
        <ele>61.4</ele>
        <time>2013-02-18T19:38:29.000Z</time>
      </trkpt>
      <trkpt lat="48.87183" lon="2.31836">
        <ele>61.5</ele>
        <time>2013-02-18T19:38:30.000Z</time>
      </trkpt>
      <trkpt lat="48.87188" lon="2.31833">
        <ele>62.2</ele>
        <time>2013-02-18T19:38:31.000Z</time>
      </trkpt>
      <trkpt lat="48.87193" lon="2.3183">
        <ele>61.3</ele>
        <time>2013-02-18T19:38:32.000Z</time>
      </trkpt>
      <trkpt lat="48.87197" lon="2.31827">
        <ele>61.2</ele>
        <time>2013-02-18T19:38:33.000Z</time>
      </trkpt>
      <trkpt lat="48.87201" lon="2.31824">
        <ele>61.1</ele>
        <time>2013-02-18T19:38:34.000Z</time>
      </trkpt>
      <trkpt lat="48.87205" lon="2.31822">
        <ele>61.1</ele>
        <time>2013-02-18T19:38:35.000Z</time>
      </trkpt>
      <trkpt lat="48.87209" lon="2.31819">
        <ele>61</ele>
        <time>2013-02-18T19:38:36.000Z</time>
      </trkpt>
      <trkpt lat="48.87217" lon="2.31813">
        <ele>61.7</ele>
        <time>2013-02-18T19:38:37.000Z</time>
      </trkpt>
      <trkpt lat="48.8722" lon="2.31811">
        <ele>61.5</ele>
        <time>2013-02-18T19:38:38.000Z</time>
      </trkpt>
      <trkpt lat="48.87224" lon="2.31809">
        <ele>61.3</ele>
        <time>2013-02-18T19:38:39.000Z</time>
      </trkpt>
      <trkpt lat="48.87229" lon="2.31806">
        <ele>61.2</ele>
        <time>2013-02-18T19:38:40.000Z</time>
      </trkpt>
      <trkpt lat="48.87233" lon="2.31804">
        <ele>61.5</ele>
        <time>2013-02-18T19:38:41.000Z</time>
      </trkpt>
      <trkpt lat="48.87238" lon="2.31801">
        <ele>61.7</ele>
        <time>2013-02-18T19:38:42.000Z</time>
      </trkpt>
      <trkpt lat="48.8724" lon="2.31798">
        <ele>62</ele>
        <time>2013-02-18T19:38:43.000Z</time>
      </trkpt>
      <trkpt lat="48.87244" lon="2.31795">
        <ele>61.8</ele>
        <time>2013-02-18T19:38:44.000Z</time>
      </trkpt>
      <trkpt lat="48.87255" lon="2.31802">
        <ele>62.2</ele>
        <time>2013-02-18T19:38:45.000Z</time>
      </trkpt>
      <trkpt lat="48.8726" lon="2.31802">
        <ele>61.7</ele>
        <time>2013-02-18T19:38:46.000Z</time>
      </trkpt>
      <trkpt lat="48.87265" lon="2.31802">
        <ele>61.8</ele>
        <time>2013-02-18T19:38:47.000Z</time>
      </trkpt>
      <trkpt lat="48.87267" lon="2.31801">
        <ele>61.9</ele>
        <time>2013-02-18T19:38:48.000Z</time>
      </trkpt>
      <trkpt lat="48.87274" lon="2.318">
        <ele>62.3</ele>
        <time>2013-02-18T19:38:49.000Z</time>
      </trkpt>
      <trkpt lat="48.87281" lon="2.31801">
        <ele>62.7</ele>
        <time>2013-02-18T19:38:50.000Z</time>
      </trkpt>
      <trkpt lat="48.87287" lon="2.31799">
        <ele>62.9</ele>
        <time>2013-02-18T19:38:51.000Z</time>
      </trkpt>
      <trkpt lat="48.8729" lon="2.31795">
        <ele>63</ele>
        <time>2013-02-18T19:38:52.000Z</time>
      </trkpt>
      <trkpt lat="48.87296" lon="2.31797">
        <ele>63.4</ele>
        <time>2013-02-18T19:38:53.000Z</time>
      </trkpt>
      <trkpt lat="48.873" lon="2.31796">
        <ele>63.6</ele>
        <time>2013-02-18T19:38:54.000Z</time>
      </trkpt>
      <trkpt lat="48.87306" lon="2.31792">
        <ele>63.8</ele>
        <time>2013-02-18T19:38:55.000Z</time>
      </trkpt>
      <trkpt lat="48.87309" lon="2.3179">
        <ele>63.8</ele>
        <time>2013-02-18T19:38:56.000Z</time>
      </trkpt>
      <trkpt lat="48.87314" lon="2.31782">
        <ele>63.9</ele>
        <time>2013-02-18T19:38:57.000Z</time>
      </trkpt>
      <trkpt lat="48.87314" lon="2.31784">
        <ele>62.9</ele>
        <time>2013-02-18T19:38:58.000Z</time>
      </trkpt>
      <trkpt lat="48.87321" lon="2.31785">
        <ele>62.1</ele>
        <time>2013-02-18T19:38:59.000Z</time>
      </trkpt>
      <trkpt lat="48.87327" lon="2.31783">
        <ele>63.4</ele>
        <time>2013-02-18T19:39:00.000Z</time>
      </trkpt>
      <trkpt lat="48.87332" lon="2.31783">
        <ele>62.9</ele>
        <time>2013-02-18T19:39:01.000Z</time>
      </trkpt>
      <trkpt lat="48.87334" lon="2.31783">
        <ele>62.6</ele>
        <time>2013-02-18T19:39:02.000Z</time>
      </trkpt>
      <trkpt lat="48.87338" lon="2.31782">
        <ele>62.3</ele>
        <time>2013-02-18T19:39:03.000Z</time>
      </trkpt>
      <trkpt lat="48.87346" lon="2.31778">
        <ele>62.5</ele>
        <time>2013-02-18T19:39:04.000Z</time>
      </trkpt>
      <trkpt lat="48.87353" lon="2.31776">
        <ele>62.4</ele>
        <time>2013-02-18T19:39:05.000Z</time>
      </trkpt>
      <trkpt lat="48.87356" lon="2.31774">
        <ele>62.5</ele>
        <time>2013-02-18T19:39:06.000Z</time>
      </trkpt>
      <trkpt lat="48.87361" lon="2.31772">
        <ele>63.1</ele>
        <time>2013-02-18T19:39:07.000Z</time>
      </trkpt>
      <trkpt lat="48.87367" lon="2.3177">
        <ele>63.3</ele>
        <time>2013-02-18T19:39:08.000Z</time>
      </trkpt>
      <trkpt lat="48.87371" lon="2.31769">
        <ele>62.9</ele>
        <time>2013-02-18T19:39:09.000Z</time>
      </trkpt>
      <trkpt lat="48.87377" lon="2.31766">
        <ele>63</ele>
        <time>2013-02-18T19:39:10.000Z</time>
      </trkpt>
      <trkpt lat="48.87382" lon="2.31764">
        <ele>62.6</ele>
        <time>2013-02-18T19:39:11.000Z</time>
      </trkpt>
      <trkpt lat="48.87383" lon="2.3176">
        <ele>62.6</ele>
        <time>2013-02-18T19:39:12.000Z</time>
      </trkpt>
      <trkpt lat="48.87386" lon="2.31756">
        <ele>62.1</ele>
        <time>2013-02-18T19:39:13.000Z</time>
      </trkpt>
      <trkpt lat="48.87388" lon="2.31753">
        <ele>62.3</ele>
        <time>2013-02-18T19:39:14.000Z</time>
      </trkpt>
      <trkpt lat="48.87393" lon="2.31749">
        <ele>61</ele>
        <time>2013-02-18T19:39:15.000Z</time>
      </trkpt>
      <trkpt lat="48.87396" lon="2.31746">
        <ele>66.6</ele>
        <time>2013-02-18T19:39:17.000Z</time>
      </trkpt>
      <trkpt lat="48.87398" lon="2.31743">
        <ele>68.1</ele>
        <time>2013-02-18T19:39:18.000Z</time>
      </trkpt>
      <trkpt lat="48.87403" lon="2.31748">
        <ele>69.2</ele>
        <time>2013-02-18T19:39:19.000Z</time>
      </trkpt>
      <trkpt lat="48.87408" lon="2.31749">
        <ele>69.4</ele>
        <time>2013-02-18T19:39:20.000Z</time>
      </trkpt>
      <trkpt lat="48.8741" lon="2.3175">
        <ele>69.7</ele>
        <time>2013-02-18T19:39:21.000Z</time>
      </trkpt>
      <trkpt lat="48.87411" lon="2.31745">
        <ele>71</ele>
        <time>2013-02-18T19:39:23.000Z</time>
      </trkpt>
      <trkpt lat="48.87412" lon="2.31743">
        <ele>71.8</ele>
        <time>2013-02-18T19:39:24.000Z</time>
      </trkpt>
      <trkpt lat="48.87412" lon="2.31737">
        <ele>71.1</ele>
        <time>2013-02-18T19:39:26.000Z</time>
      </trkpt>
      <trkpt lat="48.87412" lon="2.31734">
        <ele>71.5</ele>
        <time>2013-02-18T19:39:27.000Z</time>
      </trkpt>
      <trkpt lat="48.87412" lon="2.31731">
        <ele>72.2</ele>
        <time>2013-02-18T19:39:28.000Z</time>
      </trkpt>
      <trkpt lat="48.87413" lon="2.31726">
        <ele>72.8</ele>
        <time>2013-02-18T19:39:29.000Z</time>
      </trkpt>
      <trkpt lat="48.87413" lon="2.31721">
        <ele>71.8</ele>
        <time>2013-02-18T19:39:30.000Z</time>
      </trkpt>
      <trkpt lat="48.87413" lon="2.31716">
        <ele>72</ele>
        <time>2013-02-18T19:39:31.000Z</time>
      </trkpt>
      <trkpt lat="48.87413" lon="2.31711">
        <ele>72.1</ele>
        <time>2013-02-18T19:39:32.000Z</time>
      </trkpt>
      <trkpt lat="48.87412" lon="2.31706">
        <ele>71.8</ele>
        <time>2013-02-18T19:39:33.000Z</time>
      </trkpt>
      <trkpt lat="48.87412" lon="2.31701">
        <ele>72.1</ele>
        <time>2013-02-18T19:39:34.000Z</time>
      </trkpt>
      <trkpt lat="48.87411" lon="2.31695">
        <ele>72.4</ele>
        <time>2013-02-18T19:39:35.000Z</time>
      </trkpt>
      <trkpt lat="48.8741" lon="2.3169">
        <ele>70.9</ele>
        <time>2013-02-18T19:39:36.000Z</time>
      </trkpt>
      <trkpt lat="48.8741" lon="2.31685">
        <ele>70.6</ele>
        <time>2013-02-18T19:39:37.000Z</time>
      </trkpt>
      <trkpt lat="48.87409" lon="2.31679">
        <ele>70.3</ele>
        <time>2013-02-18T19:39:38.000Z</time>
      </trkpt>
      <trkpt lat="48.87408" lon="2.31674">
        <ele>69.7</ele>
        <time>2013-02-18T19:39:39.000Z</time>
      </trkpt>
      <trkpt lat="48.87408" lon="2.31669">
        <ele>70.5</ele>
        <time>2013-02-18T19:39:40.000Z</time>
      </trkpt>
      <trkpt lat="48.87407" lon="2.31663">
        <ele>69.9</ele>
        <time>2013-02-18T19:39:41.000Z</time>
      </trkpt>
      <trkpt lat="48.87406" lon="2.31657">
        <ele>70.4</ele>
        <time>2013-02-18T19:39:42.000Z</time>
      </trkpt>
      <trkpt lat="48.87405" lon="2.31652">
        <ele>71</ele>
        <time>2013-02-18T19:39:43.000Z</time>
      </trkpt>
      <trkpt lat="48.87404" lon="2.31645">
        <ele>72</ele>
        <time>2013-02-18T19:39:44.000Z</time>
      </trkpt>
      <trkpt lat="48.87402" lon="2.31639">
        <ele>72.2</ele>
        <time>2013-02-18T19:39:45.000Z</time>
      </trkpt>
      <trkpt lat="48.87401" lon="2.31632">
        <ele>73.4</ele>
        <time>2013-02-18T19:39:46.000Z</time>
      </trkpt>
      <trkpt lat="48.874" lon="2.31625">
        <ele>73.6</ele>
        <time>2013-02-18T19:39:47.000Z</time>
      </trkpt>
      <trkpt lat="48.87398" lon="2.31618">
        <ele>76</ele>
        <time>2013-02-18T19:39:48.000Z</time>
      </trkpt>
      <trkpt lat="48.87396" lon="2.31611">
        <ele>78.1</ele>
        <time>2013-02-18T19:39:49.000Z</time>
      </trkpt>
      <trkpt lat="48.87393" lon="2.31603">
        <ele>78.4</ele>
        <time>2013-02-18T19:39:50.000Z</time>
      </trkpt>
      <trkpt lat="48.87392" lon="2.31596">
        <ele>79.5</ele>
        <time>2013-02-18T19:39:51.000Z</time>
      </trkpt>
      <trkpt lat="48.8739" lon="2.31589">
        <ele>79.1</ele>
        <time>2013-02-18T19:39:52.000Z</time>
      </trkpt>
      <trkpt lat="48.87388" lon="2.31582">
        <ele>79</ele>
        <time>2013-02-18T19:39:53.000Z</time>
      </trkpt>
      <trkpt lat="48.87387" lon="2.31575">
        <ele>78.7</ele>
        <time>2013-02-18T19:39:54.000Z</time>
      </trkpt>
      <trkpt lat="48.87383" lon="2.31565">
        <ele>78.6</ele>
        <time>2013-02-18T19:39:55.000Z</time>
      </trkpt>
      <trkpt lat="48.87382" lon="2.31557">
        <ele>79.1</ele>
        <time>2013-02-18T19:39:56.000Z</time>
      </trkpt>
      <trkpt lat="48.87381" lon="2.3155">
        <ele>77.7</ele>
        <time>2013-02-18T19:39:57.000Z</time>
      </trkpt>
      <trkpt lat="48.8738" lon="2.31544">
        <ele>77.7</ele>
        <time>2013-02-18T19:39:58.000Z</time>
      </trkpt>
      <trkpt lat="48.87379" lon="2.31536">
        <ele>77.5</ele>
        <time>2013-02-18T19:39:59.000Z</time>
      </trkpt>
      <trkpt lat="48.87377" lon="2.31528">
        <ele>77.6</ele>
        <time>2013-02-18T19:40:00.000Z</time>
      </trkpt>
      <trkpt lat="48.87376" lon="2.31521">
        <ele>77.9</ele>
        <time>2013-02-18T19:40:01.000Z</time>
      </trkpt>
      <trkpt lat="48.87376" lon="2.31513">
        <ele>78.1</ele>
        <time>2013-02-18T19:40:02.000Z</time>
      </trkpt>
      <trkpt lat="48.87375" lon="2.31507">
        <ele>77.4</ele>
        <time>2013-02-18T19:40:03.000Z</time>
      </trkpt>
      <trkpt lat="48.87375" lon="2.31501">
        <ele>77.6</ele>
        <time>2013-02-18T19:40:04.000Z</time>
      </trkpt>
      <trkpt lat="48.87373" lon="2.31495">
        <ele>77.5</ele>
        <time>2013-02-18T19:40:05.000Z</time>
      </trkpt>
      <trkpt lat="48.87372" lon="2.31488">
        <ele>78.2</ele>
        <time>2013-02-18T19:40:06.000Z</time>
      </trkpt>
      <trkpt lat="48.87372" lon="2.31481">
        <ele>78.4</ele>
        <time>2013-02-18T19:40:07.000Z</time>
      </trkpt>
      <trkpt lat="48.8737" lon="2.31472">
        <ele>79.5</ele>
        <time>2013-02-18T19:40:08.000Z</time>
      </trkpt>
      <trkpt lat="48.87368" lon="2.31464">
        <ele>80.1</ele>
        <time>2013-02-18T19:40:09.000Z</time>
      </trkpt>
      <trkpt lat="48.87366" lon="2.31456">
        <ele>80.2</ele>
        <time>2013-02-18T19:40:10.000Z</time>
      </trkpt>
      <trkpt lat="48.87365" lon="2.31449">
        <ele>80.2</ele>
        <time>2013-02-18T19:40:11.000Z</time>
      </trkpt>
      <trkpt lat="48.87364" lon="2.31439">
        <ele>81.3</ele>
        <time>2013-02-18T19:40:12.000Z</time>
      </trkpt>
      <trkpt lat="48.87363" lon="2.31432">
        <ele>80.6</ele>
        <time>2013-02-18T19:40:13.000Z</time>
      </trkpt>
      <trkpt lat="48.8736" lon="2.31423">
        <ele>79.9</ele>
        <time>2013-02-18T19:40:14.000Z</time>
      </trkpt>
      <trkpt lat="48.87358" lon="2.31415">
        <ele>79.3</ele>
        <time>2013-02-18T19:40:15.000Z</time>
      </trkpt>
      <trkpt lat="48.87357" lon="2.31407">
        <ele>78.5</ele>
        <time>2013-02-18T19:40:16.000Z</time>
      </trkpt>
      <trkpt lat="48.87356" lon="2.31399">
        <ele>78.9</ele>
        <time>2013-02-18T19:40:17.000Z</time>
      </trkpt>
      <trkpt lat="48.87355" lon="2.31391">
        <ele>78.6</ele>
        <time>2013-02-18T19:40:18.000Z</time>
      </trkpt>
      <trkpt lat="48.87353" lon="2.31382">
        <ele>78.1</ele>
        <time>2013-02-18T19:40:19.000Z</time>
      </trkpt>
      <trkpt lat="48.87351" lon="2.31372">
        <ele>78</ele>
        <time>2013-02-18T19:40:20.000Z</time>
      </trkpt>
      <trkpt lat="48.87349" lon="2.31363">
        <ele>77.4</ele>
        <time>2013-02-18T19:40:21.000Z</time>
      </trkpt>
      <trkpt lat="48.87347" lon="2.31355">
        <ele>78</ele>
        <time>2013-02-18T19:40:22.000Z</time>
      </trkpt>
      <trkpt lat="48.87346" lon="2.31348">
        <ele>77.6</ele>
        <time>2013-02-18T19:40:23.000Z</time>
      </trkpt>
      <trkpt lat="48.87343" lon="2.3134">
        <ele>77.3</ele>
        <time>2013-02-18T19:40:24.000Z</time>
      </trkpt>
      <trkpt lat="48.87342" lon="2.31332">
        <ele>76.8</ele>
        <time>2013-02-18T19:40:25.000Z</time>
      </trkpt>
      <trkpt lat="48.87342" lon="2.31323">
        <ele>76.5</ele>
        <time>2013-02-18T19:40:26.000Z</time>
      </trkpt>
      <trkpt lat="48.8734" lon="2.31314">
        <ele>76.9</ele>
        <time>2013-02-18T19:40:27.000Z</time>
      </trkpt>
      <trkpt lat="48.87339" lon="2.31308">
        <ele>76.1</ele>
        <time>2013-02-18T19:40:28.000Z</time>
      </trkpt>
      <trkpt lat="48.87337" lon="2.31299">
        <ele>76.2</ele>
        <time>2013-02-18T19:40:29.000Z</time>
      </trkpt>
      <trkpt lat="48.87335" lon="2.31291">
        <ele>76.5</ele>
        <time>2013-02-18T19:40:30.000Z</time>
      </trkpt>
      <trkpt lat="48.87333" lon="2.31281">
        <ele>76.8</ele>
        <time>2013-02-18T19:40:31.000Z</time>
      </trkpt>
      <trkpt lat="48.87331" lon="2.31273">
        <ele>76.3</ele>
        <time>2013-02-18T19:40:32.000Z</time>
      </trkpt>
      <trkpt lat="48.87331" lon="2.31264">
        <ele>77.7</ele>
        <time>2013-02-18T19:40:33.000Z</time>
      </trkpt>
      <trkpt lat="48.8733" lon="2.31256">
        <ele>78.2</ele>
        <time>2013-02-18T19:40:34.000Z</time>
      </trkpt>
      <trkpt lat="48.87329" lon="2.31248">
        <ele>78.1</ele>
        <time>2013-02-18T19:40:35.000Z</time>
      </trkpt>
      <trkpt lat="48.87328" lon="2.3124">
        <ele>78.2</ele>
        <time>2013-02-18T19:40:36.000Z</time>
      </trkpt>
      <trkpt lat="48.87326" lon="2.3123">
        <ele>78.9</ele>
        <time>2013-02-18T19:40:37.000Z</time>
      </trkpt>
      <trkpt lat="48.87323" lon="2.31224">
        <ele>78.8</ele>
        <time>2013-02-18T19:40:38.000Z</time>
      </trkpt>
      <trkpt lat="48.8732" lon="2.31216">
        <ele>79.2</ele>
        <time>2013-02-18T19:40:39.000Z</time>
      </trkpt>
      <trkpt lat="48.87318" lon="2.31208">
        <ele>79.5</ele>
        <time>2013-02-18T19:40:40.000Z</time>
      </trkpt>
      <trkpt lat="48.87316" lon="2.31199">
        <ele>80.1</ele>
        <time>2013-02-18T19:40:41.000Z</time>
      </trkpt>
      <trkpt lat="48.87315" lon="2.31191">
        <ele>80.5</ele>
        <time>2013-02-18T19:40:42.000Z</time>
      </trkpt>
      <trkpt lat="48.87313" lon="2.31184">
        <ele>81.6</ele>
        <time>2013-02-18T19:40:43.000Z</time>
      </trkpt>
      <trkpt lat="48.8731" lon="2.31177">
        <ele>81.1</ele>
        <time>2013-02-18T19:40:44.000Z</time>
      </trkpt>
      <trkpt lat="48.87308" lon="2.31169">
        <ele>81.6</ele>
        <time>2013-02-18T19:40:45.000Z</time>
      </trkpt>
      <trkpt lat="48.87306" lon="2.31161">
        <ele>81.7</ele>
        <time>2013-02-18T19:40:46.000Z</time>
      </trkpt>
      <trkpt lat="48.87304" lon="2.31156">
        <ele>82.3</ele>
        <time>2013-02-18T19:40:47.000Z</time>
      </trkpt>
      <trkpt lat="48.87304" lon="2.3115">
        <ele>80.7</ele>
        <time>2013-02-18T19:40:48.000Z</time>
      </trkpt>
      <trkpt lat="48.87302" lon="2.31144">
        <ele>79.9</ele>
        <time>2013-02-18T19:40:49.000Z</time>
      </trkpt>
      <trkpt lat="48.87303" lon="2.3114">
        <ele>79.9</ele>
        <time>2013-02-18T19:40:50.000Z</time>
      </trkpt>
      <trkpt lat="48.87302" lon="2.31135">
        <ele>79.9</ele>
        <time>2013-02-18T19:40:51.000Z</time>
      </trkpt>
      <trkpt lat="48.87301" lon="2.3113">
        <ele>81</ele>
        <time>2013-02-18T19:40:52.000Z</time>
      </trkpt>
      <trkpt lat="48.873" lon="2.31127">
        <ele>81.2</ele>
        <time>2013-02-18T19:40:53.000Z</time>
      </trkpt>
      <trkpt lat="48.87298" lon="2.31122">
        <ele>82.4</ele>
        <time>2013-02-18T19:40:54.000Z</time>
      </trkpt>
      <trkpt lat="48.87297" lon="2.31117">
        <ele>82</ele>
        <time>2013-02-18T19:40:55.000Z</time>
      </trkpt>
      <trkpt lat="48.87296" lon="2.31111">
        <ele>81</ele>
        <time>2013-02-18T19:40:56.000Z</time>
      </trkpt>
      <trkpt lat="48.87295" lon="2.31107">
        <ele>81.4</ele>
        <time>2013-02-18T19:40:57.000Z</time>
      </trkpt>
      <trkpt lat="48.87294" lon="2.31102">
        <ele>80.9</ele>
        <time>2013-02-18T19:40:58.000Z</time>
      </trkpt>
      <trkpt lat="48.87294" lon="2.31097">
        <ele>81.6</ele>
        <time>2013-02-18T19:40:59.000Z</time>
      </trkpt>
      <trkpt lat="48.87294" lon="2.31092">
        <ele>81.5</ele>
        <time>2013-02-18T19:41:00.000Z</time>
      </trkpt>
      <trkpt lat="48.87294" lon="2.31088">
        <ele>81.5</ele>
        <time>2013-02-18T19:41:01.000Z</time>
      </trkpt>
      <trkpt lat="48.87294" lon="2.31084">
        <ele>81.5</ele>
        <time>2013-02-18T19:41:02.000Z</time>
      </trkpt>
      <trkpt lat="48.87292" lon="2.31078">
        <ele>80.1</ele>
        <time>2013-02-18T19:41:04.000Z</time>
      </trkpt>
      <trkpt lat="48.87292" lon="2.31076">
        <ele>79.1</ele>
        <time>2013-02-18T19:41:05.000Z</time>
      </trkpt>
      <trkpt lat="48.87292" lon="2.31071">
        <ele>78.1</ele>
        <time>2013-02-18T19:41:07.000Z</time>
      </trkpt>
      <trkpt lat="48.87292" lon="2.31068">
        <ele>78.5</ele>
        <time>2013-02-18T19:41:08.000Z</time>
      </trkpt>
      <trkpt lat="48.87292" lon="2.31064">
        <ele>79.5</ele>
        <time>2013-02-18T19:41:09.000Z</time>
      </trkpt>
      <trkpt lat="48.87292" lon="2.31061">
        <ele>80.3</ele>
        <time>2013-02-18T19:41:10.000Z</time>
      </trkpt>
      <trkpt lat="48.87293" lon="2.31057">
        <ele>80</ele>
        <time>2013-02-18T19:41:11.000Z</time>
      </trkpt>
      <trkpt lat="48.87294" lon="2.31053">
        <ele>80</ele>
        <time>2013-02-18T19:41:12.000Z</time>
      </trkpt>
      <trkpt lat="48.87295" lon="2.3105">
        <ele>80</ele>
        <time>2013-02-18T19:41:13.000Z</time>
      </trkpt>
      <trkpt lat="48.87297" lon="2.31046">
        <ele>80.8</ele>
        <time>2013-02-18T19:41:14.000Z</time>
      </trkpt>
      <trkpt lat="48.87298" lon="2.31042">
        <ele>81.5</ele>
        <time>2013-02-18T19:41:15.000Z</time>
      </trkpt>
      <trkpt lat="48.87299" lon="2.31038">
        <ele>81.9</ele>
        <time>2013-02-18T19:41:16.000Z</time>
      </trkpt>
      <trkpt lat="48.873" lon="2.31033">
        <ele>82.1</ele>
        <time>2013-02-18T19:41:17.000Z</time>
      </trkpt>
      <trkpt lat="48.87302" lon="2.31029">
        <ele>82</ele>
        <time>2013-02-18T19:41:18.000Z</time>
      </trkpt>
      <trkpt lat="48.87303" lon="2.31024">
        <ele>81.3</ele>
        <time>2013-02-18T19:41:19.000Z</time>
      </trkpt>
      <trkpt lat="48.87304" lon="2.3102">
        <ele>81.6</ele>
        <time>2013-02-18T19:41:20.000Z</time>
      </trkpt>
      <trkpt lat="48.87305" lon="2.31015">
        <ele>81.7</ele>
        <time>2013-02-18T19:41:21.000Z</time>
      </trkpt>
      <trkpt lat="48.87306" lon="2.31011">
        <ele>81.4</ele>
        <time>2013-02-18T19:41:22.000Z</time>
      </trkpt>
      <trkpt lat="48.87308" lon="2.31008">
        <ele>78</ele>
        <time>2013-02-18T19:41:23.000Z</time>
      </trkpt>
      <trkpt lat="48.8731" lon="2.31005">
        <ele>79.6</ele>
        <time>2013-02-18T19:41:24.000Z</time>
      </trkpt>
      <trkpt lat="48.87313" lon="2.31004">
        <ele>81.2</ele>
        <time>2013-02-18T19:41:25.000Z</time>
      </trkpt>
      <trkpt lat="48.87316" lon="2.31004">
        <ele>81.8</ele>
        <time>2013-02-18T19:41:26.000Z</time>
      </trkpt>
      <trkpt lat="48.87319" lon="2.31005">
        <ele>81.9</ele>
        <time>2013-02-18T19:41:27.000Z</time>
      </trkpt>
      <trkpt lat="48.87322" lon="2.31006">
        <ele>82.8</ele>
        <time>2013-02-18T19:41:28.000Z</time>
      </trkpt>
      <trkpt lat="48.87324" lon="2.31006">
        <ele>82.8</ele>
        <time>2013-02-18T19:41:29.000Z</time>
      </trkpt>
      <trkpt lat="48.87327" lon="2.31007">
        <ele>81.5</ele>
        <time>2013-02-18T19:41:30.000Z</time>
      </trkpt>
      <trkpt lat="48.8733" lon="2.31007">
        <ele>82.5</ele>
        <time>2013-02-18T19:41:34.000Z</time>
      </trkpt>
      <trkpt lat="48.87331" lon="2.31006">
        <ele>81.1</ele>
        <time>2013-02-18T19:41:35.000Z</time>
      </trkpt>
      <trkpt lat="48.87335" lon="2.31004">
        <ele>80.6</ele>
        <time>2013-02-18T19:41:38.000Z</time>
      </trkpt>
      <trkpt lat="48.87338" lon="2.31004">
        <ele>81</ele>
        <time>2013-02-18T19:41:39.000Z</time>
      </trkpt>
      <trkpt lat="48.87343" lon="2.31004">
        <ele>81.5</ele>
        <time>2013-02-18T19:41:40.000Z</time>
      </trkpt>
      <trkpt lat="48.87346" lon="2.31004">
        <ele>81.6</ele>
        <time>2013-02-18T19:41:41.000Z</time>
      </trkpt>
      <trkpt lat="48.87349" lon="2.31004">
        <ele>81</ele>
        <time>2013-02-18T19:41:42.000Z</time>
      </trkpt>
      <trkpt lat="48.87352" lon="2.31004">
        <ele>80.7</ele>
        <time>2013-02-18T19:41:43.000Z</time>
      </trkpt>
      <trkpt lat="48.87355" lon="2.31006">
        <ele>74.9</ele>
        <time>2013-02-18T19:41:49.000Z</time>
      </trkpt>
      <trkpt lat="48.87356" lon="2.31006">
        <ele>74.2</ele>
        <time>2013-02-18T19:41:50.000Z</time>
      </trkpt>
      <trkpt lat="48.8736" lon="2.31006">
        <ele>74.2</ele>
        <time>2013-02-18T19:41:53.000Z</time>
      </trkpt>
      <trkpt lat="48.87361" lon="2.31006">
        <ele>73.7</ele>
        <time>2013-02-18T19:41:54.000Z</time>
      </trkpt>
      <trkpt lat="48.87364" lon="2.31003">
        <ele>73.7</ele>
        <time>2013-02-18T19:41:57.000Z</time>
      </trkpt>
      <trkpt lat="48.87366" lon="2.31002">
        <ele>72.3</ele>
        <time>2013-02-18T19:41:58.000Z</time>
      </trkpt>
      <trkpt lat="48.8737" lon="2.31001">
        <ele>71.8</ele>
        <time>2013-02-18T19:42:00.000Z</time>
      </trkpt>
      <trkpt lat="48.87373" lon="2.31">
        <ele>71.3</ele>
        <time>2013-02-18T19:42:01.000Z</time>
      </trkpt>
      <trkpt lat="48.87376" lon="2.30999">
        <ele>69.3</ele>
        <time>2013-02-18T19:42:02.000Z</time>
      </trkpt>
      <trkpt lat="48.87379" lon="2.30999">
        <ele>67.5</ele>
        <time>2013-02-18T19:42:03.000Z</time>
      </trkpt>
      <trkpt lat="48.87382" lon="2.31">
        <ele>67.4</ele>
        <time>2013-02-18T19:42:04.000Z</time>
      </trkpt>
      <trkpt lat="48.87385" lon="2.30999">
        <ele>65.8</ele>
        <time>2013-02-18T19:42:05.000Z</time>
      </trkpt>
      <trkpt lat="48.87388" lon="2.30998">
        <ele>65</ele>
        <time>2013-02-18T19:42:06.000Z</time>
      </trkpt>
      <trkpt lat="48.87391" lon="2.30997">
        <ele>63.9</ele>
        <time>2013-02-18T19:42:07.000Z</time>
      </trkpt>
      <trkpt lat="48.87393" lon="2.30994">
        <ele>64.4</ele>
        <time>2013-02-18T19:42:08.000Z</time>
      </trkpt>
      <trkpt lat="48.87395" lon="2.30991">
        <ele>64.8</ele>
        <time>2013-02-18T19:42:09.000Z</time>
      </trkpt>
      <trkpt lat="48.87397" lon="2.30989">
        <ele>64.3</ele>
        <time>2013-02-18T19:42:10.000Z</time>
      </trkpt>
      <trkpt lat="48.87399" lon="2.30987">
        <ele>65.1</ele>
        <time>2013-02-18T19:42:11.000Z</time>
      </trkpt>
      <trkpt lat="48.87402" lon="2.30985">
        <ele>63.7</ele>
        <time>2013-02-18T19:42:12.000Z</time>
      </trkpt>
      <trkpt lat="48.87406" lon="2.30982">
        <ele>63.1</ele>
        <time>2013-02-18T19:42:13.000Z</time>
      </trkpt>
      <trkpt lat="48.8741" lon="2.30979">
        <ele>62.4</ele>
        <time>2013-02-18T19:42:14.000Z</time>
      </trkpt>
      <trkpt lat="48.87413" lon="2.30976">
        <ele>62.5</ele>
        <time>2013-02-18T19:42:15.000Z</time>
      </trkpt>
      <trkpt lat="48.87417" lon="2.30974">
        <ele>64.4</ele>
        <time>2013-02-18T19:42:16.000Z</time>
      </trkpt>
      <trkpt lat="48.8742" lon="2.30972">
        <ele>65.7</ele>
        <time>2013-02-18T19:42:17.000Z</time>
      </trkpt>
      <trkpt lat="48.87424" lon="2.3097">
        <ele>65.1</ele>
        <time>2013-02-18T19:42:18.000Z</time>
      </trkpt>
      <trkpt lat="48.87427" lon="2.30968">
        <ele>65.7</ele>
        <time>2013-02-18T19:42:19.000Z</time>
      </trkpt>
      <trkpt lat="48.87431" lon="2.30966">
        <ele>65.3</ele>
        <time>2013-02-18T19:42:20.000Z</time>
      </trkpt>
      <trkpt lat="48.87434" lon="2.30963">
        <ele>64.8</ele>
        <time>2013-02-18T19:42:21.000Z</time>
      </trkpt>
      <trkpt lat="48.87437" lon="2.30961">
        <ele>64.8</ele>
        <time>2013-02-18T19:42:22.000Z</time>
      </trkpt>
      <trkpt lat="48.8744" lon="2.30958">
        <ele>65.5</ele>
        <time>2013-02-18T19:42:23.000Z</time>
      </trkpt>
      <trkpt lat="48.87443" lon="2.30955">
        <ele>65.8</ele>
        <time>2013-02-18T19:42:24.000Z</time>
      </trkpt>
      <trkpt lat="48.87446" lon="2.30952">
        <ele>67</ele>
        <time>2013-02-18T19:42:25.000Z</time>
      </trkpt>
      <trkpt lat="48.87449" lon="2.30949">
        <ele>66.9</ele>
        <time>2013-02-18T19:42:26.000Z</time>
      </trkpt>
      <trkpt lat="48.87451" lon="2.30947">
        <ele>67.1</ele>
        <time>2013-02-18T19:42:27.000Z</time>
      </trkpt>
      <trkpt lat="48.87453" lon="2.30944">
        <ele>68.5</ele>
        <time>2013-02-18T19:42:28.000Z</time>
      </trkpt>
      <trkpt lat="48.87455" lon="2.3094">
        <ele>69.5</ele>
        <time>2013-02-18T19:42:34.000Z</time>
      </trkpt>
      <trkpt lat="48.87456" lon="2.30939">
        <ele>70.5</ele>
        <time>2013-02-18T19:42:35.000Z</time>
      </trkpt>
      <trkpt lat="48.87461" lon="2.30939">
        <ele>73.2</ele>
        <time>2013-02-18T19:42:47.000Z</time>
      </trkpt>
      <trkpt lat="48.87461" lon="2.30939">
        <ele>73.2</ele>
        <time>2013-02-18T19:42:48.000Z</time>
      </trkpt>
      <trkpt lat="48.87463" lon="2.30942">
        <ele>72.2</ele>
        <time>2013-02-18T19:42:55.000Z</time>
      </trkpt>
      <trkpt lat="48.87464" lon="2.30945">
        <ele>72</ele>
        <time>2013-02-18T19:42:56.000Z</time>
      </trkpt>
      <trkpt lat="48.87465" lon="2.3095">
        <ele>72</ele>
        <time>2013-02-18T19:42:58.000Z</time>
      </trkpt>
      <trkpt lat="48.87465" lon="2.30953">
        <ele>71.1</ele>
        <time>2013-02-18T19:42:59.000Z</time>
      </trkpt>
      <trkpt lat="48.87466" lon="2.30959">
        <ele>69.8</ele>
        <time>2013-02-18T19:43:01.000Z</time>
      </trkpt>
      <trkpt lat="48.87466" lon="2.30963">
        <ele>69</ele>
        <time>2013-02-18T19:43:02.000Z</time>
      </trkpt>
      <trkpt lat="48.87467" lon="2.30968">
        <ele>69.1</ele>
        <time>2013-02-18T19:43:03.000Z</time>
      </trkpt>
      <trkpt lat="48.87466" lon="2.30973">
        <ele>68.2</ele>
        <time>2013-02-18T19:43:04.000Z</time>
      </trkpt>
      <trkpt lat="48.87466" lon="2.30978">
        <ele>67.9</ele>
        <time>2013-02-18T19:43:05.000Z</time>
      </trkpt>
      <trkpt lat="48.87467" lon="2.30983">
        <ele>68.6</ele>
        <time>2013-02-18T19:43:06.000Z</time>
      </trkpt>
      <trkpt lat="48.87467" lon="2.30987">
        <ele>68.7</ele>
        <time>2013-02-18T19:43:07.000Z</time>
      </trkpt>
      <trkpt lat="48.87468" lon="2.30991">
        <ele>66.1</ele>
        <time>2013-02-18T19:43:08.000Z</time>
      </trkpt>
      <trkpt lat="48.87469" lon="2.30996">
        <ele>64.4</ele>
        <time>2013-02-18T19:43:09.000Z</time>
      </trkpt>
      <trkpt lat="48.87469" lon="2.31">
        <ele>63.4</ele>
        <time>2013-02-18T19:43:10.000Z</time>
      </trkpt>
      <trkpt lat="48.87469" lon="2.31004">
        <ele>62.1</ele>
        <time>2013-02-18T19:43:11.000Z</time>
      </trkpt>
      <trkpt lat="48.87469" lon="2.31008">
        <ele>61.5</ele>
        <time>2013-02-18T19:43:12.000Z</time>
      </trkpt>
      <trkpt lat="48.8747" lon="2.31013">
        <ele>63.2</ele>
        <time>2013-02-18T19:43:13.000Z</time>
      </trkpt>
      <trkpt lat="48.8747" lon="2.31018">
        <ele>63.6</ele>
        <time>2013-02-18T19:43:14.000Z</time>
      </trkpt>
      <trkpt lat="48.8747" lon="2.31023">
        <ele>63.4</ele>
        <time>2013-02-18T19:43:15.000Z</time>
      </trkpt>
      <trkpt lat="48.87471" lon="2.31028">
        <ele>62.8</ele>
        <time>2013-02-18T19:43:16.000Z</time>
      </trkpt>
      <trkpt lat="48.87472" lon="2.31034">
        <ele>61.3</ele>
        <time>2013-02-18T19:43:17.000Z</time>
      </trkpt>
      <trkpt lat="48.87473" lon="2.3104">
        <ele>61.6</ele>
        <time>2013-02-18T19:43:18.000Z</time>
      </trkpt>
      <trkpt lat="48.87475" lon="2.31046">
        <ele>61.5</ele>
        <time>2013-02-18T19:43:19.000Z</time>
      </trkpt>
      <trkpt lat="48.87477" lon="2.31052">
        <ele>61</ele>
        <time>2013-02-18T19:43:20.000Z</time>
      </trkpt>
      <trkpt lat="48.87477" lon="2.31057">
        <ele>59.2</ele>
        <time>2013-02-18T19:43:21.000Z</time>
      </trkpt>
      <trkpt lat="48.87476" lon="2.31061">
        <ele>59</ele>
        <time>2013-02-18T19:43:22.000Z</time>
      </trkpt>
      <trkpt lat="48.87475" lon="2.31065">
        <ele>58.6</ele>
        <time>2013-02-18T19:43:23.000Z</time>
      </trkpt>
      <trkpt lat="48.87475" lon="2.31069">
        <ele>57.5</ele>
        <time>2013-02-18T19:43:24.000Z</time>
      </trkpt>
      <trkpt lat="48.87475" lon="2.31074">
        <ele>57.6</ele>
        <time>2013-02-18T19:43:25.000Z</time>
      </trkpt>
      <trkpt lat="48.87476" lon="2.3108">
        <ele>57.3</ele>
        <time>2013-02-18T19:43:26.000Z</time>
      </trkpt>
      <trkpt lat="48.87477" lon="2.31085">
        <ele>56.5</ele>
        <time>2013-02-18T19:43:27.000Z</time>
      </trkpt>
      <trkpt lat="48.87479" lon="2.31091">
        <ele>57.8</ele>
        <time>2013-02-18T19:43:28.000Z</time>
      </trkpt>
      <trkpt lat="48.87481" lon="2.31097">
        <ele>56.1</ele>
        <time>2013-02-18T19:43:29.000Z</time>
      </trkpt>
      <trkpt lat="48.87483" lon="2.31102">
        <ele>55.6</ele>
        <time>2013-02-18T19:43:30.000Z</time>
      </trkpt>
      <trkpt lat="48.87484" lon="2.31107">
        <ele>53.9</ele>
        <time>2013-02-18T19:43:31.000Z</time>
      </trkpt>
      <trkpt lat="48.87486" lon="2.3111">
        <ele>54.1</ele>
        <time>2013-02-18T19:43:32.000Z</time>
      </trkpt>
      <trkpt lat="48.87488" lon="2.31114">
        <ele>53.9</ele>
        <time>2013-02-18T19:43:33.000Z</time>
      </trkpt>
      <trkpt lat="48.8749" lon="2.31118">
        <ele>54</ele>
        <time>2013-02-18T19:43:34.000Z</time>
      </trkpt>
      <trkpt lat="48.87491" lon="2.31123">
        <ele>53.9</ele>
        <time>2013-02-18T19:43:35.000Z</time>
      </trkpt>
      <trkpt lat="48.87493" lon="2.31127">
        <ele>54.8</ele>
        <time>2013-02-18T19:43:36.000Z</time>
      </trkpt>
      <trkpt lat="48.87494" lon="2.31131">
        <ele>55</ele>
        <time>2013-02-18T19:43:37.000Z</time>
      </trkpt>
      <trkpt lat="48.87495" lon="2.31135">
        <ele>54.4</ele>
        <time>2013-02-18T19:43:38.000Z</time>
      </trkpt>
      <trkpt lat="48.87495" lon="2.3114">
        <ele>53.6</ele>
        <time>2013-02-18T19:43:39.000Z</time>
      </trkpt>
      <trkpt lat="48.87496" lon="2.31145">
        <ele>52.6</ele>
        <time>2013-02-18T19:43:40.000Z</time>
      </trkpt>
      <trkpt lat="48.87497" lon="2.3115">
        <ele>53.1</ele>
        <time>2013-02-18T19:43:41.000Z</time>
      </trkpt>
      <trkpt lat="48.87498" lon="2.31156">
        <ele>52</ele>
        <time>2013-02-18T19:43:42.000Z</time>
      </trkpt>
      <trkpt lat="48.87499" lon="2.31161">
        <ele>51.3</ele>
        <time>2013-02-18T19:43:43.000Z</time>
      </trkpt>
      <trkpt lat="48.87501" lon="2.31167">
        <ele>51.7</ele>
        <time>2013-02-18T19:43:44.000Z</time>
      </trkpt>
      <trkpt lat="48.87504" lon="2.31172">
        <ele>52.2</ele>
        <time>2013-02-18T19:43:45.000Z</time>
      </trkpt>
      <trkpt lat="48.87506" lon="2.31176">
        <ele>51.9</ele>
        <time>2013-02-18T19:43:46.000Z</time>
      </trkpt>
      <trkpt lat="48.87509" lon="2.31181">
        <ele>52</ele>
        <time>2013-02-18T19:43:47.000Z</time>
      </trkpt>
      <trkpt lat="48.87512" lon="2.31185">
        <ele>52</ele>
        <time>2013-02-18T19:43:48.000Z</time>
      </trkpt>
      <trkpt lat="48.87514" lon="2.3119">
        <ele>51.8</ele>
        <time>2013-02-18T19:43:49.000Z</time>
      </trkpt>
      <trkpt lat="48.87516" lon="2.31193">
        <ele>50.2</ele>
        <time>2013-02-18T19:43:50.000Z</time>
      </trkpt>
      <trkpt lat="48.87519" lon="2.31194">
        <ele>50.3</ele>
        <time>2013-02-18T19:43:51.000Z</time>
      </trkpt>
      <trkpt lat="48.87521" lon="2.31195">
        <ele>50.5</ele>
        <time>2013-02-18T19:43:52.000Z</time>
      </trkpt>
      <trkpt lat="48.87522" lon="2.312">
        <ele>48.8</ele>
        <time>2013-02-18T19:43:54.000Z</time>
      </trkpt>
      <trkpt lat="48.87521" lon="2.31203">
        <ele>47.8</ele>
        <time>2013-02-18T19:43:55.000Z</time>
      </trkpt>
      <trkpt lat="48.8752" lon="2.31206">
        <ele>46.1</ele>
        <time>2013-02-18T19:43:56.000Z</time>
      </trkpt>
      <trkpt lat="48.87519" lon="2.3121">
        <ele>46.9</ele>
        <time>2013-02-18T19:43:57.000Z</time>
      </trkpt>
      <trkpt lat="48.87518" lon="2.31215">
        <ele>47.4</ele>
        <time>2013-02-18T19:43:58.000Z</time>
      </trkpt>
      <trkpt lat="48.87517" lon="2.3122">
        <ele>47.5</ele>
        <time>2013-02-18T19:43:59.000Z</time>
      </trkpt>
      <trkpt lat="48.87517" lon="2.31224">
        <ele>48.7</ele>
        <time>2013-02-18T19:44:00.000Z</time>
      </trkpt>
      <trkpt lat="48.87517" lon="2.31229">
        <ele>48.1</ele>
        <time>2013-02-18T19:44:01.000Z</time>
      </trkpt>
      <trkpt lat="48.87517" lon="2.31233">
        <ele>50.2</ele>
        <time>2013-02-18T19:44:02.000Z</time>
      </trkpt>
      <trkpt lat="48.87519" lon="2.31238">
        <ele>51.4</ele>
        <time>2013-02-18T19:44:03.000Z</time>
      </trkpt>
      <trkpt lat="48.87519" lon="2.31242">
        <ele>51.7</ele>
        <time>2013-02-18T19:44:04.000Z</time>
      </trkpt>
      <trkpt lat="48.8752" lon="2.31246">
        <ele>52.8</ele>
        <time>2013-02-18T19:44:05.000Z</time>
      </trkpt>
      <trkpt lat="48.8752" lon="2.3125">
        <ele>53.5</ele>
        <time>2013-02-18T19:44:06.000Z</time>
      </trkpt>
      <trkpt lat="48.8752" lon="2.31255">
        <ele>53.5</ele>
        <time>2013-02-18T19:44:07.000Z</time>
      </trkpt>
      <trkpt lat="48.8752" lon="2.31259">
        <ele>53.6</ele>
        <time>2013-02-18T19:44:08.000Z</time>
      </trkpt>
      <trkpt lat="48.8752" lon="2.31264">
        <ele>53</ele>
        <time>2013-02-18T19:44:09.000Z</time>
      </trkpt>
      <trkpt lat="48.8752" lon="2.31268">
        <ele>52.4</ele>
        <time>2013-02-18T19:44:10.000Z</time>
      </trkpt>
      <trkpt lat="48.8752" lon="2.31272">
        <ele>52.2</ele>
        <time>2013-02-18T19:44:11.000Z</time>
      </trkpt>
      <trkpt lat="48.8752" lon="2.31277">
        <ele>52.2</ele>
        <time>2013-02-18T19:44:12.000Z</time>
      </trkpt>
      <trkpt lat="48.87519" lon="2.31281">
        <ele>52.2</ele>
        <time>2013-02-18T19:44:13.000Z</time>
      </trkpt>
      <trkpt lat="48.87519" lon="2.31285">
        <ele>52.1</ele>
        <time>2013-02-18T19:44:14.000Z</time>
      </trkpt>
      <trkpt lat="48.87519" lon="2.31289">
        <ele>51.6</ele>
        <time>2013-02-18T19:44:15.000Z</time>
      </trkpt>
      <trkpt lat="48.87519" lon="2.31296">
        <ele>52.3</ele>
        <time>2013-02-18T19:44:16.000Z</time>
      </trkpt>
      <trkpt lat="48.8752" lon="2.31301">
        <ele>52.2</ele>
        <time>2013-02-18T19:44:17.000Z</time>
      </trkpt>
      <trkpt lat="48.8752" lon="2.31306">
        <ele>49.9</ele>
        <time>2013-02-18T19:44:18.000Z</time>
      </trkpt>
      <trkpt lat="48.8752" lon="2.31311">
        <ele>49.9</ele>
        <time>2013-02-18T19:44:19.000Z</time>
      </trkpt>
      <trkpt lat="48.87521" lon="2.31317">
        <ele>50.2</ele>
        <time>2013-02-18T19:44:20.000Z</time>
      </trkpt>
      <trkpt lat="48.87521" lon="2.31324">
        <ele>49.4</ele>
        <time>2013-02-18T19:44:21.000Z</time>
      </trkpt>
      <trkpt lat="48.87522" lon="2.3133">
        <ele>50.1</ele>
        <time>2013-02-18T19:44:22.000Z</time>
      </trkpt>
      <trkpt lat="48.87523" lon="2.31337">
        <ele>49.7</ele>
        <time>2013-02-18T19:44:23.000Z</time>
      </trkpt>
      <trkpt lat="48.87524" lon="2.31344">
        <ele>49.4</ele>
        <time>2013-02-18T19:44:24.000Z</time>
      </trkpt>
      <trkpt lat="48.87525" lon="2.31352">
        <ele>49.6</ele>
        <time>2013-02-18T19:44:25.000Z</time>
      </trkpt>
      <trkpt lat="48.87524" lon="2.3136">
        <ele>49</ele>
        <time>2013-02-18T19:44:26.000Z</time>
      </trkpt>
      <trkpt lat="48.87523" lon="2.31366">
        <ele>49.4</ele>
        <time>2013-02-18T19:44:27.000Z</time>
      </trkpt>
      <trkpt lat="48.87521" lon="2.31372">
        <ele>49.7</ele>
        <time>2013-02-18T19:44:28.000Z</time>
      </trkpt>
      <trkpt lat="48.87521" lon="2.31378">
        <ele>49.1</ele>
        <time>2013-02-18T19:44:29.000Z</time>
      </trkpt>
      <trkpt lat="48.87521" lon="2.31384">
        <ele>50.2</ele>
        <time>2013-02-18T19:44:30.000Z</time>
      </trkpt>
      <trkpt lat="48.87522" lon="2.3139">
        <ele>51.1</ele>
        <time>2013-02-18T19:44:31.000Z</time>
      </trkpt>
      <trkpt lat="48.87522" lon="2.31396">
        <ele>52</ele>
        <time>2013-02-18T19:44:32.000Z</time>
      </trkpt>
      <trkpt lat="48.87523" lon="2.31402">
        <ele>50.8</ele>
        <time>2013-02-18T19:44:33.000Z</time>
      </trkpt>
      <trkpt lat="48.87523" lon="2.31408">
        <ele>52.7</ele>
        <time>2013-02-18T19:44:34.000Z</time>
      </trkpt>
      <trkpt lat="48.87523" lon="2.31413">
        <ele>54</ele>
        <time>2013-02-18T19:44:35.000Z</time>
      </trkpt>
      <trkpt lat="48.87523" lon="2.31418">
        <ele>55.5</ele>
        <time>2013-02-18T19:44:36.000Z</time>
      </trkpt>
      <trkpt lat="48.87523" lon="2.31424">
        <ele>57.2</ele>
        <time>2013-02-18T19:44:37.000Z</time>
      </trkpt>
      <trkpt lat="48.87523" lon="2.31429">
        <ele>57.9</ele>
        <time>2013-02-18T19:44:38.000Z</time>
      </trkpt>
      <trkpt lat="48.87523" lon="2.31434">
        <ele>58.1</ele>
        <time>2013-02-18T19:44:39.000Z</time>
      </trkpt>
      <trkpt lat="48.87522" lon="2.3144">
        <ele>59.1</ele>
        <time>2013-02-18T19:44:40.000Z</time>
      </trkpt>
      <trkpt lat="48.87522" lon="2.31446">
        <ele>57.1</ele>
        <time>2013-02-18T19:44:41.000Z</time>
      </trkpt>
      <trkpt lat="48.87521" lon="2.31451">
        <ele>57.1</ele>
        <time>2013-02-18T19:44:42.000Z</time>
      </trkpt>
      <trkpt lat="48.8752" lon="2.31456">
        <ele>56.7</ele>
        <time>2013-02-18T19:44:43.000Z</time>
      </trkpt>
      <trkpt lat="48.8752" lon="2.3146">
        <ele>57</ele>
        <time>2013-02-18T19:44:44.000Z</time>
      </trkpt>
      <trkpt lat="48.87519" lon="2.31465">
        <ele>54</ele>
        <time>2013-02-18T19:44:45.000Z</time>
      </trkpt>
      <trkpt lat="48.87519" lon="2.31468">
        <ele>53.6</ele>
        <time>2013-02-18T19:44:46.000Z</time>
      </trkpt>
      <trkpt lat="48.87518" lon="2.31474">
        <ele>49</ele>
        <time>2013-02-18T19:44:48.000Z</time>
      </trkpt>
      <trkpt lat="48.87517" lon="2.31478">
        <ele>49.1</ele>
        <time>2013-02-18T19:44:49.000Z</time>
      </trkpt>
      <trkpt lat="48.87517" lon="2.31481">
        <ele>49.1</ele>
        <time>2013-02-18T19:44:50.000Z</time>
      </trkpt>
      <trkpt lat="48.87516" lon="2.31485">
        <ele>48.3</ele>
        <time>2013-02-18T19:44:51.000Z</time>
      </trkpt>
      <trkpt lat="48.87516" lon="2.31489">
        <ele>43.7</ele>
        <time>2013-02-18T19:44:52.000Z</time>
      </trkpt>
      <trkpt lat="48.87515" lon="2.31493">
        <ele>43.4</ele>
        <time>2013-02-18T19:44:53.000Z</time>
      </trkpt>
      <trkpt lat="48.87514" lon="2.31498">
        <ele>44.9</ele>
        <time>2013-02-18T19:44:54.000Z</time>
      </trkpt>
      <trkpt lat="48.87514" lon="2.31504">
        <ele>44.6</ele>
        <time>2013-02-18T19:44:55.000Z</time>
      </trkpt>
      <trkpt lat="48.87514" lon="2.3151">
        <ele>46.2</ele>
        <time>2013-02-18T19:44:56.000Z</time>
      </trkpt>
      <trkpt lat="48.87514" lon="2.31515">
        <ele>44.2</ele>
        <time>2013-02-18T19:44:57.000Z</time>
      </trkpt>
      <trkpt lat="48.87513" lon="2.31521">
        <ele>43.5</ele>
        <time>2013-02-18T19:44:58.000Z</time>
      </trkpt>
      <trkpt lat="48.87513" lon="2.31525">
        <ele>42.1</ele>
        <time>2013-02-18T19:44:59.000Z</time>
      </trkpt>
      <trkpt lat="48.87513" lon="2.3153">
        <ele>43.5</ele>
        <time>2013-02-18T19:45:00.000Z</time>
      </trkpt>
      <trkpt lat="48.87513" lon="2.31534">
        <ele>44.1</ele>
        <time>2013-02-18T19:45:01.000Z</time>
      </trkpt>
      <trkpt lat="48.87512" lon="2.3154">
        <ele>46.7</ele>
        <time>2013-02-18T19:45:04.000Z</time>
      </trkpt>
      <trkpt lat="48.87513" lon="2.31541">
        <ele>47.8</ele>
        <time>2013-02-18T19:45:05.000Z</time>
      </trkpt>
      <trkpt lat="48.87514" lon="2.31547">
        <ele>52.3</ele>
        <time>2013-02-18T19:45:09.000Z</time>
      </trkpt>
      <trkpt lat="48.87515" lon="2.31548">
        <ele>54.3</ele>
        <time>2013-02-18T19:45:10.000Z</time>
      </trkpt>
      <trkpt lat="48.87519" lon="2.3155">
        <ele>57.1</ele>
        <time>2013-02-18T19:45:12.000Z</time>
      </trkpt>
      <trkpt lat="48.87521" lon="2.3155">
        <ele>60.1</ele>
        <time>2013-02-18T19:45:13.000Z</time>
      </trkpt>
      <trkpt lat="48.87524" lon="2.31551">
        <ele>64.3</ele>
        <time>2013-02-18T19:45:15.000Z</time>
      </trkpt>
      <trkpt lat="48.87526" lon="2.31551">
        <ele>66</ele>
        <time>2013-02-18T19:45:16.000Z</time>
      </trkpt>
      <trkpt lat="48.8753" lon="2.31552">
        <ele>67</ele>
        <time>2013-02-18T19:45:18.000Z</time>
      </trkpt>
      <trkpt lat="48.87532" lon="2.31552">
        <ele>67.8</ele>
        <time>2013-02-18T19:45:19.000Z</time>
      </trkpt>
      <trkpt lat="48.87535" lon="2.31552">
        <ele>68.6</ele>
        <time>2013-02-18T19:45:21.000Z</time>
      </trkpt>
      <trkpt lat="48.87537" lon="2.31552">
        <ele>70.1</ele>
        <time>2013-02-18T19:45:22.000Z</time>
      </trkpt>
      <trkpt lat="48.87539" lon="2.31548">
        <ele>70.5</ele>
        <time>2013-02-18T19:45:24.000Z</time>
      </trkpt>
      <trkpt lat="48.87541" lon="2.31543">
        <ele>71.2</ele>
        <time>2013-02-18T19:45:25.000Z</time>
      </trkpt>
      <trkpt lat="48.87542" lon="2.31538">
        <ele>70.8</ele>
        <time>2013-02-18T19:45:26.000Z</time>
      </trkpt>
      <trkpt lat="48.87544" lon="2.31533">
        <ele>71.4</ele>
        <time>2013-02-18T19:45:27.000Z</time>
      </trkpt>
      <trkpt lat="48.87546" lon="2.31528">
        <ele>71.1</ele>
        <time>2013-02-18T19:45:28.000Z</time>
      </trkpt>
      <trkpt lat="48.87547" lon="2.31523">
        <ele>70.7</ele>
        <time>2013-02-18T19:45:29.000Z</time>
      </trkpt>
      <trkpt lat="48.87549" lon="2.31518">
        <ele>70.9</ele>
        <time>2013-02-18T19:45:30.000Z</time>
      </trkpt>
      <trkpt lat="48.8755" lon="2.31513">
        <ele>70.2</ele>
        <time>2013-02-18T19:45:31.000Z</time>
      </trkpt>
      <trkpt lat="48.87551" lon="2.31508">
        <ele>70</ele>
        <time>2013-02-18T19:45:32.000Z</time>
      </trkpt>
      <trkpt lat="48.87553" lon="2.31503">
        <ele>70.2</ele>
        <time>2013-02-18T19:45:33.000Z</time>
      </trkpt>
      <trkpt lat="48.87555" lon="2.315">
        <ele>69.8</ele>
        <time>2013-02-18T19:45:34.000Z</time>
      </trkpt>
      <trkpt lat="48.87557" lon="2.31497">
        <ele>69.7</ele>
        <time>2013-02-18T19:45:35.000Z</time>
      </trkpt>
      <trkpt lat="48.87558" lon="2.31493">
        <ele>69.7</ele>
        <time>2013-02-18T19:45:36.000Z</time>
      </trkpt>
      <trkpt lat="48.8756" lon="2.31488">
        <ele>70.1</ele>
        <time>2013-02-18T19:45:37.000Z</time>
      </trkpt>
      <trkpt lat="48.87561" lon="2.31483">
        <ele>69.7</ele>
        <time>2013-02-18T19:45:38.000Z</time>
      </trkpt>
      <trkpt lat="48.87562" lon="2.31478">
        <ele>69.6</ele>
        <time>2013-02-18T19:45:39.000Z</time>
      </trkpt>
      <trkpt lat="48.87563" lon="2.31474">
        <ele>71.7</ele>
        <time>2013-02-18T19:45:40.000Z</time>
      </trkpt>
      <trkpt lat="48.87566" lon="2.3147">
        <ele>72</ele>
        <time>2013-02-18T19:45:41.000Z</time>
      </trkpt>
      <trkpt lat="48.87568" lon="2.31467">
        <ele>72.1</ele>
        <time>2013-02-18T19:45:42.000Z</time>
      </trkpt>
      <trkpt lat="48.8757" lon="2.31464">
        <ele>71.9</ele>
        <time>2013-02-18T19:45:43.000Z</time>
      </trkpt>
      <trkpt lat="48.87573" lon="2.3146">
        <ele>71.8</ele>
        <time>2013-02-18T19:45:44.000Z</time>
      </trkpt>
      <trkpt lat="48.87575" lon="2.31456">
        <ele>71.7</ele>
        <time>2013-02-18T19:45:45.000Z</time>
      </trkpt>
      <trkpt lat="48.87577" lon="2.31451">
        <ele>71.8</ele>
        <time>2013-02-18T19:45:46.000Z</time>
      </trkpt>
      <trkpt lat="48.87579" lon="2.31447">
        <ele>71.7</ele>
        <time>2013-02-18T19:45:47.000Z</time>
      </trkpt>
      <trkpt lat="48.87581" lon="2.31442">
        <ele>72</ele>
        <time>2013-02-18T19:45:48.000Z</time>
      </trkpt>
      <trkpt lat="48.87583" lon="2.31437">
        <ele>72.1</ele>
        <time>2013-02-18T19:45:49.000Z</time>
      </trkpt>
      <trkpt lat="48.87585" lon="2.31431">
        <ele>73.7</ele>
        <time>2013-02-18T19:45:50.000Z</time>
      </trkpt>
      <trkpt lat="48.87587" lon="2.31426">
        <ele>74.8</ele>
        <time>2013-02-18T19:45:51.000Z</time>
      </trkpt>
      <trkpt lat="48.87589" lon="2.31421">
        <ele>75.3</ele>
        <time>2013-02-18T19:45:52.000Z</time>
      </trkpt>
      <trkpt lat="48.87592" lon="2.31416">
        <ele>75.5</ele>
        <time>2013-02-18T19:45:53.000Z</time>
      </trkpt>
      <trkpt lat="48.87594" lon="2.31411">
        <ele>75.1</ele>
        <time>2013-02-18T19:45:54.000Z</time>
      </trkpt>
      <trkpt lat="48.87596" lon="2.31406">
        <ele>74.9</ele>
        <time>2013-02-18T19:45:55.000Z</time>
      </trkpt>
      <trkpt lat="48.87598" lon="2.31401">
        <ele>74.9</ele>
        <time>2013-02-18T19:45:56.000Z</time>
      </trkpt>
      <trkpt lat="48.876" lon="2.31395">
        <ele>74.2</ele>
        <time>2013-02-18T19:45:57.000Z</time>
      </trkpt>
      <trkpt lat="48.87602" lon="2.3139">
        <ele>73.9</ele>
        <time>2013-02-18T19:45:58.000Z</time>
      </trkpt>
      <trkpt lat="48.87604" lon="2.31384">
        <ele>73.3</ele>
        <time>2013-02-18T19:45:59.000Z</time>
      </trkpt>
      <trkpt lat="48.87606" lon="2.31379">
        <ele>71.9</ele>
        <time>2013-02-18T19:46:00.000Z</time>
      </trkpt>
      <trkpt lat="48.87608" lon="2.31375">
        <ele>72.6</ele>
        <time>2013-02-18T19:46:01.000Z</time>
      </trkpt>
      <trkpt lat="48.87609" lon="2.31372">
        <ele>72.5</ele>
        <time>2013-02-18T19:46:02.000Z</time>
      </trkpt>
      <trkpt lat="48.87612" lon="2.31369">
        <ele>71.7</ele>
        <time>2013-02-18T19:46:03.000Z</time>
      </trkpt>
      <trkpt lat="48.87614" lon="2.31366">
        <ele>71.9</ele>
        <time>2013-02-18T19:46:04.000Z</time>
      </trkpt>
      <trkpt lat="48.87616" lon="2.31363">
        <ele>72.4</ele>
        <time>2013-02-18T19:46:05.000Z</time>
      </trkpt>
      <trkpt lat="48.87619" lon="2.31359">
        <ele>71.9</ele>
        <time>2013-02-18T19:46:06.000Z</time>
      </trkpt>
      <trkpt lat="48.8762" lon="2.31355">
        <ele>71.4</ele>
        <time>2013-02-18T19:46:07.000Z</time>
      </trkpt>
      <trkpt lat="48.87623" lon="2.31351">
        <ele>73.2</ele>
        <time>2013-02-18T19:46:08.000Z</time>
      </trkpt>
      <trkpt lat="48.87625" lon="2.31346">
        <ele>74.5</ele>
        <time>2013-02-18T19:46:09.000Z</time>
      </trkpt>
      <trkpt lat="48.87628" lon="2.3134">
        <ele>76.7</ele>
        <time>2013-02-18T19:46:10.000Z</time>
      </trkpt>
      <trkpt lat="48.8763" lon="2.31335">
        <ele>78</ele>
        <time>2013-02-18T19:46:11.000Z</time>
      </trkpt>
      <trkpt lat="48.87633" lon="2.31329">
        <ele>77</ele>
        <time>2013-02-18T19:46:12.000Z</time>
      </trkpt>
      <trkpt lat="48.87635" lon="2.31323">
        <ele>76.7</ele>
        <time>2013-02-18T19:46:13.000Z</time>
      </trkpt>
      <trkpt lat="48.87637" lon="2.31318">
        <ele>77.1</ele>
        <time>2013-02-18T19:46:14.000Z</time>
      </trkpt>
      <trkpt lat="48.87639" lon="2.31314">
        <ele>77.5</ele>
        <time>2013-02-18T19:46:15.000Z</time>
      </trkpt>
      <trkpt lat="48.87641" lon="2.3131">
        <ele>74.9</ele>
        <time>2013-02-18T19:46:16.000Z</time>
      </trkpt>
      <trkpt lat="48.87644" lon="2.31308">
        <ele>76.8</ele>
        <time>2013-02-18T19:46:17.000Z</time>
      </trkpt>
      <trkpt lat="48.87647" lon="2.31306">
        <ele>77.7</ele>
        <time>2013-02-18T19:46:18.000Z</time>
      </trkpt>
      <trkpt lat="48.87649" lon="2.31305">
        <ele>77.9</ele>
        <time>2013-02-18T19:46:19.000Z</time>
      </trkpt>
      <trkpt lat="48.87652" lon="2.31303">
        <ele>79.7</ele>
        <time>2013-02-18T19:46:20.000Z</time>
      </trkpt>
      <trkpt lat="48.87654" lon="2.313">
        <ele>80.8</ele>
        <time>2013-02-18T19:46:21.000Z</time>
      </trkpt>
      <trkpt lat="48.87657" lon="2.31296">
        <ele>81.9</ele>
        <time>2013-02-18T19:46:22.000Z</time>
      </trkpt>
      <trkpt lat="48.87661" lon="2.31288">
        <ele>82.7</ele>
        <time>2013-02-18T19:46:24.156Z</time>
      </trkpt>
      <trkpt lat="48.87663" lon="2.31285">
        <ele>82.9</ele>
        <time>2013-02-18T19:46:25.000Z</time>
      </trkpt>
      <trkpt lat="48.87664" lon="2.31281">
        <ele>84.1</ele>
        <time>2013-02-18T19:46:26.000Z</time>
      </trkpt>
      <trkpt lat="48.87666" lon="2.31278">
        <ele>84.5</ele>
        <time>2013-02-18T19:46:27.000Z</time>
      </trkpt>
      <trkpt lat="48.87668" lon="2.31276">
        <ele>85</ele>
        <time>2013-02-18T19:46:28.000Z</time>
      </trkpt>
      <trkpt lat="48.87671" lon="2.31275">
        <ele>84.1</ele>
        <time>2013-02-18T19:46:29.000Z</time>
      </trkpt>
      <trkpt lat="48.87673" lon="2.31274">
        <ele>84.1</ele>
        <time>2013-02-18T19:46:30.000Z</time>
      </trkpt>
      <trkpt lat="48.87676" lon="2.31274">
        <ele>84.2</ele>
        <time>2013-02-18T19:46:31.000Z</time>
      </trkpt>
      <trkpt lat="48.87679" lon="2.31273">
        <ele>84.3</ele>
        <time>2013-02-18T19:46:32.000Z</time>
      </trkpt>
      <trkpt lat="48.87682" lon="2.31272">
        <ele>84.7</ele>
        <time>2013-02-18T19:46:33.000Z</time>
      </trkpt>
      <trkpt lat="48.87685" lon="2.31271">
        <ele>85.9</ele>
        <time>2013-02-18T19:46:34.000Z</time>
      </trkpt>
      <trkpt lat="48.87688" lon="2.3127">
        <ele>86.3</ele>
        <time>2013-02-18T19:46:35.000Z</time>
      </trkpt>
      <trkpt lat="48.87692" lon="2.31269">
        <ele>86.8</ele>
        <time>2013-02-18T19:46:36.000Z</time>
      </trkpt>
      <trkpt lat="48.87695" lon="2.31268">
        <ele>86.6</ele>
        <time>2013-02-18T19:46:37.000Z</time>
      </trkpt>
      <trkpt lat="48.87698" lon="2.31267">
        <ele>85.8</ele>
        <time>2013-02-18T19:46:38.000Z</time>
      </trkpt>
      <trkpt lat="48.87701" lon="2.31266">
        <ele>84.6</ele>
        <time>2013-02-18T19:46:39.000Z</time>
      </trkpt>
      <trkpt lat="48.87705" lon="2.31264">
        <ele>84.1</ele>
        <time>2013-02-18T19:46:40.000Z</time>
      </trkpt>
      <trkpt lat="48.87708" lon="2.31261">
        <ele>84.2</ele>
        <time>2013-02-18T19:46:41.000Z</time>
      </trkpt>
      <trkpt lat="48.87711" lon="2.31259">
        <ele>84.5</ele>
        <time>2013-02-18T19:46:42.000Z</time>
      </trkpt>
      <trkpt lat="48.87714" lon="2.31257">
        <ele>84.6</ele>
        <time>2013-02-18T19:46:43.000Z</time>
      </trkpt>
      <trkpt lat="48.87718" lon="2.31255">
        <ele>85.3</ele>
        <time>2013-02-18T19:46:44.000Z</time>
      </trkpt>
      <trkpt lat="48.87721" lon="2.31255">
        <ele>84.3</ele>
        <time>2013-02-18T19:46:45.000Z</time>
      </trkpt>
      <trkpt lat="48.87724" lon="2.31256">
        <ele>84.9</ele>
        <time>2013-02-18T19:46:46.000Z</time>
      </trkpt>
      <trkpt lat="48.87727" lon="2.31256">
        <ele>83.7</ele>
        <time>2013-02-18T19:46:47.000Z</time>
      </trkpt>
      <trkpt lat="48.87729" lon="2.31257">
        <ele>82.2</ele>
        <time>2013-02-18T19:46:48.000Z</time>
      </trkpt>
      <trkpt lat="48.87731" lon="2.31257">
        <ele>82.5</ele>
        <time>2013-02-18T19:46:49.000Z</time>
      </trkpt>
      <trkpt lat="48.87734" lon="2.31257">
        <ele>82.6</ele>
        <time>2013-02-18T19:46:50.000Z</time>
      </trkpt>
      <trkpt lat="48.87737" lon="2.31257">
        <ele>82.4</ele>
        <time>2013-02-18T19:46:51.000Z</time>
      </trkpt>
      <trkpt lat="48.8774" lon="2.31258">
        <ele>83.6</ele>
        <time>2013-02-18T19:46:52.000Z</time>
      </trkpt>
      <trkpt lat="48.87744" lon="2.31257">
        <ele>84</ele>
        <time>2013-02-18T19:46:53.000Z</time>
      </trkpt>
      <trkpt lat="48.87749" lon="2.31257">
        <ele>83.3</ele>
        <time>2013-02-18T19:46:54.000Z</time>
      </trkpt>
      <trkpt lat="48.87754" lon="2.31257">
        <ele>83.7</ele>
        <time>2013-02-18T19:46:55.000Z</time>
      </trkpt>
      <trkpt lat="48.87759" lon="2.31256">
        <ele>85.1</ele>
        <time>2013-02-18T19:46:56.000Z</time>
      </trkpt>
      <trkpt lat="48.87765" lon="2.31256">
        <ele>84</ele>
        <time>2013-02-18T19:46:57.000Z</time>
      </trkpt>
      <trkpt lat="48.87769" lon="2.31255">
        <ele>84.4</ele>
        <time>2013-02-18T19:46:58.000Z</time>
      </trkpt>
      <trkpt lat="48.87773" lon="2.31253">
        <ele>84.6</ele>
        <time>2013-02-18T19:46:59.000Z</time>
      </trkpt>
      <trkpt lat="48.87777" lon="2.31253">
        <ele>85.2</ele>
        <time>2013-02-18T19:47:00.000Z</time>
      </trkpt>
      <trkpt lat="48.8778" lon="2.31252">
        <ele>85.2</ele>
        <time>2013-02-18T19:47:01.000Z</time>
      </trkpt>
      <trkpt lat="48.87784" lon="2.31251">
        <ele>85.1</ele>
        <time>2013-02-18T19:47:02.000Z</time>
      </trkpt>
      <trkpt lat="48.87788" lon="2.3125">
        <ele>84.6</ele>
        <time>2013-02-18T19:47:03.000Z</time>
      </trkpt>
      <trkpt lat="48.87791" lon="2.31248">
        <ele>85</ele>
        <time>2013-02-18T19:47:04.000Z</time>
      </trkpt>
      <trkpt lat="48.87794" lon="2.31247">
        <ele>85</ele>
        <time>2013-02-18T19:47:05.000Z</time>
      </trkpt>
      <trkpt lat="48.87797" lon="2.31245">
        <ele>84.5</ele>
        <time>2013-02-18T19:47:06.000Z</time>
      </trkpt>
      <trkpt lat="48.878" lon="2.31244">
        <ele>84</ele>
        <time>2013-02-18T19:47:07.000Z</time>
      </trkpt>
      <trkpt lat="48.87803" lon="2.31243">
        <ele>82.3</ele>
        <time>2013-02-18T19:47:08.000Z</time>
      </trkpt>
      <trkpt lat="48.87806" lon="2.31242">
        <ele>82</ele>
        <time>2013-02-18T19:47:09.000Z</time>
      </trkpt>
      <trkpt lat="48.8781" lon="2.31238">
        <ele>79.5</ele>
        <time>2013-02-18T19:47:11.000Z</time>
      </trkpt>
      <trkpt lat="48.87811" lon="2.31238">
        <ele>77.4</ele>
        <time>2013-02-18T19:47:12.000Z</time>
      </trkpt>
      <trkpt lat="48.87814" lon="2.31239">
        <ele>76.9</ele>
        <time>2013-02-18T19:47:14.000Z</time>
      </trkpt>
      <trkpt lat="48.87816" lon="2.3124">
        <ele>77.7</ele>
        <time>2013-02-18T19:47:15.000Z</time>
      </trkpt>
      <trkpt lat="48.8782" lon="2.31239">
        <ele>82.9</ele>
        <time>2013-02-18T19:47:17.000Z</time>
      </trkpt>
      <trkpt lat="48.87822" lon="2.31238">
        <ele>85.6</ele>
        <time>2013-02-18T19:47:18.000Z</time>
      </trkpt>
      <trkpt lat="48.87825" lon="2.31234">
        <ele>89.2</ele>
        <time>2013-02-18T19:47:20.000Z</time>
      </trkpt>
      <trkpt lat="48.87826" lon="2.31233">
        <ele>89.2</ele>
        <time>2013-02-18T19:47:21.000Z</time>
      </trkpt>
      <trkpt lat="48.87824" lon="2.31228">
        <ele>89.2</ele>
        <time>2013-02-18T19:47:23.000Z</time>
      </trkpt>
      <trkpt lat="48.87823" lon="2.31225">
        <ele>90</ele>
        <time>2013-02-18T19:47:24.000Z</time>
      </trkpt>
      <trkpt lat="48.87822" lon="2.31221">
        <ele>91.1</ele>
        <time>2013-02-18T19:47:25.000Z</time>
      </trkpt>
      <trkpt lat="48.8782" lon="2.31218">
        <ele>91.7</ele>
        <time>2013-02-18T19:47:26.000Z</time>
      </trkpt>
      <trkpt lat="48.87819" lon="2.31215">
        <ele>92.5</ele>
        <time>2013-02-18T19:47:27.000Z</time>
      </trkpt>
      <trkpt lat="48.87818" lon="2.31212">
        <ele>91.2</ele>
        <time>2013-02-18T19:47:28.000Z</time>
      </trkpt>
      <trkpt lat="48.87817" lon="2.31209">
        <ele>91.1</ele>
        <time>2013-02-18T19:47:29.000Z</time>
      </trkpt>
      <trkpt lat="48.87817" lon="2.31206">
        <ele>92.3</ele>
        <time>2013-02-18T19:47:30.000Z</time>
      </trkpt>
      <trkpt lat="48.87817" lon="2.31202">
        <ele>93.1</ele>
        <time>2013-02-18T19:47:31.000Z</time>
      </trkpt>
      <trkpt lat="48.87817" lon="2.31197">
        <ele>93.3</ele>
        <time>2013-02-18T19:47:32.000Z</time>
      </trkpt>
      <trkpt lat="48.87816" lon="2.31193">
        <ele>93</ele>
        <time>2013-02-18T19:47:33.000Z</time>
      </trkpt>
      <trkpt lat="48.87815" lon="2.31188">
        <ele>93.3</ele>
        <time>2013-02-18T19:47:34.000Z</time>
      </trkpt>
      <trkpt lat="48.87813" lon="2.31184">
        <ele>93.7</ele>
        <time>2013-02-18T19:47:35.000Z</time>
      </trkpt>
      <trkpt lat="48.87812" lon="2.31179">
        <ele>93.4</ele>
        <time>2013-02-18T19:47:36.000Z</time>
      </trkpt>
      <trkpt lat="48.87811" lon="2.31175">
        <ele>93.3</ele>
        <time>2013-02-18T19:47:37.000Z</time>
      </trkpt>
      <trkpt lat="48.8781" lon="2.3117">
        <ele>93.1</ele>
        <time>2013-02-18T19:47:38.000Z</time>
      </trkpt>
      <trkpt lat="48.87809" lon="2.31167">
        <ele>93</ele>
        <time>2013-02-18T19:47:39.000Z</time>
      </trkpt>
      <trkpt lat="48.87807" lon="2.31163">
        <ele>93.2</ele>
        <time>2013-02-18T19:47:40.000Z</time>
      </trkpt>
      <trkpt lat="48.87806" lon="2.31159">
        <ele>94.1</ele>
        <time>2013-02-18T19:47:41.000Z</time>
      </trkpt>
      <trkpt lat="48.87804" lon="2.31155">
        <ele>94.7</ele>
        <time>2013-02-18T19:47:42.000Z</time>
      </trkpt>
      <trkpt lat="48.87802" lon="2.31151">
        <ele>94.9</ele>
        <time>2013-02-18T19:47:43.000Z</time>
      </trkpt>
      <trkpt lat="48.87801" lon="2.31147">
        <ele>95</ele>
        <time>2013-02-18T19:47:44.000Z</time>
      </trkpt>
      <trkpt lat="48.878" lon="2.31142">
        <ele>94.9</ele>
        <time>2013-02-18T19:47:45.000Z</time>
      </trkpt>
      <trkpt lat="48.87799" lon="2.31137">
        <ele>94.7</ele>
        <time>2013-02-18T19:47:46.000Z</time>
      </trkpt>
      <trkpt lat="48.87798" lon="2.31132">
        <ele>94</ele>
        <time>2013-02-18T19:47:47.000Z</time>
      </trkpt>
      <trkpt lat="48.87797" lon="2.31127">
        <ele>94.9</ele>
        <time>2013-02-18T19:47:48.000Z</time>
      </trkpt>
      <trkpt lat="48.87795" lon="2.31122">
        <ele>94.9</ele>
        <time>2013-02-18T19:47:49.000Z</time>
      </trkpt>
      <trkpt lat="48.87793" lon="2.31118">
        <ele>95.2</ele>
        <time>2013-02-18T19:47:50.000Z</time>
      </trkpt>
      <trkpt lat="48.87791" lon="2.31114">
        <ele>95.6</ele>
        <time>2013-02-18T19:47:51.000Z</time>
      </trkpt>
      <trkpt lat="48.8779" lon="2.31109">
        <ele>95.6</ele>
        <time>2013-02-18T19:47:52.000Z</time>
      </trkpt>
      <trkpt lat="48.87788" lon="2.31105">
        <ele>94.7</ele>
        <time>2013-02-18T19:47:53.000Z</time>
      </trkpt>
      <trkpt lat="48.87786" lon="2.31101">
        <ele>95</ele>
        <time>2013-02-18T19:47:54.000Z</time>
      </trkpt>
      <trkpt lat="48.87785" lon="2.31097">
        <ele>93.6</ele>
        <time>2013-02-18T19:47:55.000Z</time>
      </trkpt>
      <trkpt lat="48.87783" lon="2.31093">
        <ele>93.4</ele>
        <time>2013-02-18T19:47:56.000Z</time>
      </trkpt>
      <trkpt lat="48.87781" lon="2.31089">
        <ele>93.3</ele>
        <time>2013-02-18T19:47:57.000Z</time>
      </trkpt>
      <trkpt lat="48.87778" lon="2.31085">
        <ele>93.8</ele>
        <time>2013-02-18T19:47:58.000Z</time>
      </trkpt>
      <trkpt lat="48.87778" lon="2.3108">
        <ele>94.8</ele>
        <time>2013-02-18T19:47:59.000Z</time>
      </trkpt>
      <trkpt lat="48.87777" lon="2.31075">
        <ele>94.3</ele>
        <time>2013-02-18T19:48:00.000Z</time>
      </trkpt>
      <trkpt lat="48.87776" lon="2.3107">
        <ele>93.7</ele>
        <time>2013-02-18T19:48:01.000Z</time>
      </trkpt>
      <trkpt lat="48.87775" lon="2.31065">
        <ele>94.2</ele>
        <time>2013-02-18T19:48:02.000Z</time>
      </trkpt>
      <trkpt lat="48.87774" lon="2.3106">
        <ele>94.3</ele>
        <time>2013-02-18T19:48:03.000Z</time>
      </trkpt>
      <trkpt lat="48.87774" lon="2.31055">
        <ele>94</ele>
        <time>2013-02-18T19:48:04.000Z</time>
      </trkpt>
      <trkpt lat="48.87773" lon="2.3105">
        <ele>94.4</ele>
        <time>2013-02-18T19:48:05.000Z</time>
      </trkpt>
      <trkpt lat="48.87773" lon="2.31045">
        <ele>94.8</ele>
        <time>2013-02-18T19:48:06.000Z</time>
      </trkpt>
      <trkpt lat="48.87772" lon="2.3104">
        <ele>97.1</ele>
        <time>2013-02-18T19:48:07.000Z</time>
      </trkpt>
      <trkpt lat="48.87771" lon="2.31035">
        <ele>98.4</ele>
        <time>2013-02-18T19:48:08.000Z</time>
      </trkpt>
      <trkpt lat="48.8777" lon="2.3103">
        <ele>99.1</ele>
        <time>2013-02-18T19:48:09.000Z</time>
      </trkpt>
      <trkpt lat="48.87768" lon="2.31026">
        <ele>99.8</ele>
        <time>2013-02-18T19:48:10.000Z</time>
      </trkpt>
      <trkpt lat="48.87767" lon="2.31022">
        <ele>101.3</ele>
        <time>2013-02-18T19:48:11.000Z</time>
      </trkpt>
      <trkpt lat="48.87765" lon="2.31019">
        <ele>102</ele>
        <time>2013-02-18T19:48:12.000Z</time>
      </trkpt>
      <trkpt lat="48.87763" lon="2.31013">
        <ele>103.1</ele>
        <time>2013-02-18T19:48:14.000Z</time>
      </trkpt>
      <trkpt lat="48.87763" lon="2.3101">
        <ele>101.6</ele>
        <time>2013-02-18T19:48:15.000Z</time>
      </trkpt>
      <trkpt lat="48.87761" lon="2.31004">
        <ele>102.8</ele>
        <time>2013-02-18T19:48:17.000Z</time>
      </trkpt>
      <trkpt lat="48.8776" lon="2.31001">
        <ele>103.2</ele>
        <time>2013-02-18T19:48:18.000Z</time>
      </trkpt>
      <trkpt lat="48.8776" lon="2.30997">
        <ele>102.1</ele>
        <time>2013-02-18T19:48:19.000Z</time>
      </trkpt>
      <trkpt lat="48.87759" lon="2.30994">
        <ele>102.3</ele>
        <time>2013-02-18T19:48:20.000Z</time>
      </trkpt>
      <trkpt lat="48.87758" lon="2.3099">
        <ele>101.6</ele>
        <time>2013-02-18T19:48:21.000Z</time>
      </trkpt>
      <trkpt lat="48.87757" lon="2.30986">
        <ele>101.8</ele>
        <time>2013-02-18T19:48:22.000Z</time>
      </trkpt>
      <trkpt lat="48.87756" lon="2.30982">
        <ele>101.5</ele>
        <time>2013-02-18T19:48:23.000Z</time>
      </trkpt>
      <trkpt lat="48.87754" lon="2.30977">
        <ele>101.3</ele>
        <time>2013-02-18T19:48:24.000Z</time>
      </trkpt>
      <trkpt lat="48.87753" lon="2.30972">
        <ele>101.2</ele>
        <time>2013-02-18T19:48:25.000Z</time>
      </trkpt>
      <trkpt lat="48.87752" lon="2.30967">
        <ele>100.9</ele>
        <time>2013-02-18T19:48:26.000Z</time>
      </trkpt>
      <trkpt lat="48.87751" lon="2.30961">
        <ele>101.1</ele>
        <time>2013-02-18T19:48:27.000Z</time>
      </trkpt>
      <trkpt lat="48.8775" lon="2.30955">
        <ele>100.6</ele>
        <time>2013-02-18T19:48:28.000Z</time>
      </trkpt>
      <trkpt lat="48.87748" lon="2.30947">
        <ele>100.5</ele>
        <time>2013-02-18T19:48:29.000Z</time>
      </trkpt>
      <trkpt lat="48.87747" lon="2.3094">
        <ele>100.4</ele>
        <time>2013-02-18T19:48:30.000Z</time>
      </trkpt>
      <trkpt lat="48.87745" lon="2.30932">
        <ele>95.9</ele>
        <time>2013-02-18T19:48:31.000Z</time>
      </trkpt>
      <trkpt lat="48.87739" lon="2.30916">
        <ele>96.8</ele>
        <time>2013-02-18T19:48:32.000Z</time>
      </trkpt>
      <trkpt lat="48.87737" lon="2.30906">
        <ele>97.3</ele>
        <time>2013-02-18T19:48:33.000Z</time>
      </trkpt>
      <trkpt lat="48.87739" lon="2.309">
        <ele>97.3</ele>
        <time>2013-02-18T19:48:34.000Z</time>
      </trkpt>
      <trkpt lat="48.8774" lon="2.30891">
        <ele>97</ele>
        <time>2013-02-18T19:48:35.000Z</time>
      </trkpt>
      <trkpt lat="48.87738" lon="2.30881">
        <ele>97.1</ele>
        <time>2013-02-18T19:48:36.000Z</time>
      </trkpt>
      <trkpt lat="48.87734" lon="2.30873">
        <ele>96.6</ele>
        <time>2013-02-18T19:48:37.000Z</time>
      </trkpt>
      <trkpt lat="48.87734" lon="2.30866">
        <ele>97.5</ele>
        <time>2013-02-18T19:48:38.000Z</time>
      </trkpt>
      <trkpt lat="48.87738" lon="2.30857">
        <ele>97.2</ele>
        <time>2013-02-18T19:48:39.000Z</time>
      </trkpt>
      <trkpt lat="48.87741" lon="2.30847">
        <ele>97.5</ele>
        <time>2013-02-18T19:48:40.000Z</time>
      </trkpt>
      <trkpt lat="48.87736" lon="2.3084">
        <ele>98.1</ele>
        <time>2013-02-18T19:48:41.000Z</time>
      </trkpt>
      <trkpt lat="48.87739" lon="2.30831">
        <ele>97.4</ele>
        <time>2013-02-18T19:48:42.000Z</time>
      </trkpt>
      <trkpt lat="48.87738" lon="2.30823">
        <ele>97.6</ele>
        <time>2013-02-18T19:48:43.000Z</time>
      </trkpt>
      <trkpt lat="48.87736" lon="2.30816">
        <ele>97.9</ele>
        <time>2013-02-18T19:48:44.000Z</time>
      </trkpt>
      <trkpt lat="48.87737" lon="2.30806">
        <ele>100</ele>
        <time>2013-02-18T19:48:45.000Z</time>
      </trkpt>
      <trkpt lat="48.87738" lon="2.30798">
        <ele>100.3</ele>
        <time>2013-02-18T19:48:46.000Z</time>
      </trkpt>
      <trkpt lat="48.87739" lon="2.30789">
        <ele>100.8</ele>
        <time>2013-02-18T19:48:47.000Z</time>
      </trkpt>
      <trkpt lat="48.87738" lon="2.30783">
        <ele>99.5</ele>
        <time>2013-02-18T19:48:48.000Z</time>
      </trkpt>
      <trkpt lat="48.87738" lon="2.30776">
        <ele>97.2</ele>
        <time>2013-02-18T19:48:49.000Z</time>
      </trkpt>
      <trkpt lat="48.87738" lon="2.30769">
        <ele>96.9</ele>
        <time>2013-02-18T19:48:50.000Z</time>
      </trkpt>
      <trkpt lat="48.87737" lon="2.30762">
        <ele>97.4</ele>
        <time>2013-02-18T19:48:51.000Z</time>
      </trkpt>
      <trkpt lat="48.87733" lon="2.30754">
        <ele>98.9</ele>
        <time>2013-02-18T19:48:52.000Z</time>
      </trkpt>
      <trkpt lat="48.87733" lon="2.30747">
        <ele>99</ele>
        <time>2013-02-18T19:48:53.000Z</time>
      </trkpt>
      <trkpt lat="48.87732" lon="2.30739">
        <ele>99.5</ele>
        <time>2013-02-18T19:48:54.000Z</time>
      </trkpt>
      <trkpt lat="48.87733" lon="2.30734">
        <ele>98.8</ele>
        <time>2013-02-18T19:48:55.000Z</time>
      </trkpt>
      <trkpt lat="48.87733" lon="2.30728">
        <ele>98.6</ele>
        <time>2013-02-18T19:48:56.000Z</time>
      </trkpt>
      <trkpt lat="48.87732" lon="2.30723">
        <ele>99</ele>
        <time>2013-02-18T19:48:57.000Z</time>
      </trkpt>
      <trkpt lat="48.87731" lon="2.30718">
        <ele>98.7</ele>
        <time>2013-02-18T19:48:58.000Z</time>
      </trkpt>
      <trkpt lat="48.8773" lon="2.30711">
        <ele>98.7</ele>
        <time>2013-02-18T19:48:59.000Z</time>
      </trkpt>
      <trkpt lat="48.8773" lon="2.30706">
        <ele>99.7</ele>
        <time>2013-02-18T19:49:00.000Z</time>
      </trkpt>
      <trkpt lat="48.87729" lon="2.30702">
        <ele>99.4</ele>
        <time>2013-02-18T19:49:01.000Z</time>
      </trkpt>
      <trkpt lat="48.87728" lon="2.30696">
        <ele>100.6</ele>
        <time>2013-02-18T19:49:02.000Z</time>
      </trkpt>
      <trkpt lat="48.87731" lon="2.30691">
        <ele>101.3</ele>
        <time>2013-02-18T19:49:03.000Z</time>
      </trkpt>
      <trkpt lat="48.87735" lon="2.30686">
        <ele>103</ele>
        <time>2013-02-18T19:49:04.000Z</time>
      </trkpt>
      <trkpt lat="48.87735" lon="2.30682">
        <ele>100.1</ele>
        <time>2013-02-18T19:49:05.000Z</time>
      </trkpt>
      <trkpt lat="48.87734" lon="2.30678">
        <ele>100.3</ele>
        <time>2013-02-18T19:49:06.000Z</time>
      </trkpt>
      <trkpt lat="48.87734" lon="2.30674">
        <ele>100</ele>
        <time>2013-02-18T19:49:07.000Z</time>
      </trkpt>
      <trkpt lat="48.87735" lon="2.3067">
        <ele>99.3</ele>
        <time>2013-02-18T19:49:08.000Z</time>
      </trkpt>
      <trkpt lat="48.87737" lon="2.30667">
        <ele>99.3</ele>
        <time>2013-02-18T19:49:09.000Z</time>
      </trkpt>
      <trkpt lat="48.87739" lon="2.30663">
        <ele>98.9</ele>
        <time>2013-02-18T19:49:10.000Z</time>
      </trkpt>
      <trkpt lat="48.87742" lon="2.30658">
        <ele>98.4</ele>
        <time>2013-02-18T19:49:11.000Z</time>
      </trkpt>
      <trkpt lat="48.87745" lon="2.30652">
        <ele>97.7</ele>
        <time>2013-02-18T19:49:12.000Z</time>
      </trkpt>
      <trkpt lat="48.87748" lon="2.30646">
        <ele>97.1</ele>
        <time>2013-02-18T19:49:13.000Z</time>
      </trkpt>
      <trkpt lat="48.8775" lon="2.30641">
        <ele>96.1</ele>
        <time>2013-02-18T19:49:14.000Z</time>
      </trkpt>
      <trkpt lat="48.87753" lon="2.30635">
        <ele>95.8</ele>
        <time>2013-02-18T19:49:15.000Z</time>
      </trkpt>
      <trkpt lat="48.87756" lon="2.30629">
        <ele>95.3</ele>
        <time>2013-02-18T19:49:16.000Z</time>
      </trkpt>
      <trkpt lat="48.87758" lon="2.30618">
        <ele>96</ele>
        <time>2013-02-18T19:49:17.000Z</time>
      </trkpt>
      <trkpt lat="48.8776" lon="2.30612">
        <ele>95.7</ele>
        <time>2013-02-18T19:49:18.000Z</time>
      </trkpt>
      <trkpt lat="48.87764" lon="2.30605">
        <ele>96</ele>
        <time>2013-02-18T19:49:19.000Z</time>
      </trkpt>
      <trkpt lat="48.87765" lon="2.30596">
        <ele>96.7</ele>
        <time>2013-02-18T19:49:20.000Z</time>
      </trkpt>
      <trkpt lat="48.87767" lon="2.30588">
        <ele>97</ele>
        <time>2013-02-18T19:49:21.000Z</time>
      </trkpt>
      <trkpt lat="48.87772" lon="2.30581">
        <ele>98</ele>
        <time>2013-02-18T19:49:22.000Z</time>
      </trkpt>
      <trkpt lat="48.87775" lon="2.30562">
        <ele>96.3</ele>
        <time>2013-02-18T19:49:25.000Z</time>
      </trkpt>
      <trkpt lat="48.8778" lon="2.30558">
        <ele>96.3</ele>
        <time>2013-02-18T19:49:26.000Z</time>
      </trkpt>
      <trkpt lat="48.87783" lon="2.30555">
        <ele>96.5</ele>
        <time>2013-02-18T19:49:27.000Z</time>
      </trkpt>
      <trkpt lat="48.87784" lon="2.30552">
        <ele>96.3</ele>
        <time>2013-02-18T19:49:28.000Z</time>
      </trkpt>
      <trkpt lat="48.87785" lon="2.30549">
        <ele>96.4</ele>
        <time>2013-02-18T19:49:29.000Z</time>
      </trkpt>
      <trkpt lat="48.87786" lon="2.30545">
        <ele>96.1</ele>
        <time>2013-02-18T19:49:30.000Z</time>
      </trkpt>
      <trkpt lat="48.87789" lon="2.30544">
        <ele>97.1</ele>
        <time>2013-02-18T19:49:31.000Z</time>
      </trkpt>
      <trkpt lat="48.8779" lon="2.30543">
        <ele>97.5</ele>
        <time>2013-02-18T19:49:32.000Z</time>
      </trkpt>
      <trkpt lat="48.87793" lon="2.30542">
        <ele>96.9</ele>
        <time>2013-02-18T19:49:33.000Z</time>
      </trkpt>
      <trkpt lat="48.87796" lon="2.30542">
        <ele>94</ele>
        <time>2013-02-18T19:49:34.000Z</time>
      </trkpt>
      <trkpt lat="48.87799" lon="2.3054">
        <ele>94.2</ele>
        <time>2013-02-18T19:49:35.000Z</time>
      </trkpt>
      <trkpt lat="48.87801" lon="2.30538">
        <ele>94.3</ele>
        <time>2013-02-18T19:49:36.000Z</time>
      </trkpt>
      <trkpt lat="48.87804" lon="2.30536">
        <ele>93.4</ele>
        <time>2013-02-18T19:49:37.000Z</time>
      </trkpt>
      <trkpt lat="48.87806" lon="2.30534">
        <ele>94</ele>
        <time>2013-02-18T19:49:38.000Z</time>
      </trkpt>
      <trkpt lat="48.87809" lon="2.30532">
        <ele>93.5</ele>
        <time>2013-02-18T19:49:39.000Z</time>
      </trkpt>
      <trkpt lat="48.87811" lon="2.3053">
        <ele>93.3</ele>
        <time>2013-02-18T19:49:40.000Z</time>
      </trkpt>
      <trkpt lat="48.87813" lon="2.30528">
        <ele>94.4</ele>
        <time>2013-02-18T19:49:41.000Z</time>
      </trkpt>
      <trkpt lat="48.87815" lon="2.30525">
        <ele>94</ele>
        <time>2013-02-18T19:49:42.000Z</time>
      </trkpt>
      <trkpt lat="48.87817" lon="2.30522">
        <ele>95</ele>
        <time>2013-02-18T19:49:43.000Z</time>
      </trkpt>
      <trkpt lat="48.87819" lon="2.30521">
        <ele>94.2</ele>
        <time>2013-02-18T19:49:44.000Z</time>
      </trkpt>
      <trkpt lat="48.87821" lon="2.3052">
        <ele>93.9</ele>
        <time>2013-02-18T19:49:45.000Z</time>
      </trkpt>
      <trkpt lat="48.87824" lon="2.3052">
        <ele>93.7</ele>
        <time>2013-02-18T19:49:46.000Z</time>
      </trkpt>
      <trkpt lat="48.87827" lon="2.3052">
        <ele>94.1</ele>
        <time>2013-02-18T19:49:47.000Z</time>
      </trkpt>
      <trkpt lat="48.8783" lon="2.3052">
        <ele>94.2</ele>
        <time>2013-02-18T19:49:48.000Z</time>
      </trkpt>
      <trkpt lat="48.87834" lon="2.3052">
        <ele>93.5</ele>
        <time>2013-02-18T19:49:49.000Z</time>
      </trkpt>
      <trkpt lat="48.87838" lon="2.3052">
        <ele>94</ele>
        <time>2013-02-18T19:49:50.000Z</time>
      </trkpt>
      <trkpt lat="48.87842" lon="2.3052">
        <ele>94.1</ele>
        <time>2013-02-18T19:49:51.000Z</time>
      </trkpt>
      <trkpt lat="48.87846" lon="2.30519">
        <ele>92.5</ele>
        <time>2013-02-18T19:49:52.000Z</time>
      </trkpt>
      <trkpt lat="48.8785" lon="2.30518">
        <ele>92.2</ele>
        <time>2013-02-18T19:49:53.000Z</time>
      </trkpt>
      <trkpt lat="48.87853" lon="2.30516">
        <ele>90.9</ele>
        <time>2013-02-18T19:49:54.000Z</time>
      </trkpt>
      <trkpt lat="48.87857" lon="2.30515">
        <ele>90.1</ele>
        <time>2013-02-18T19:49:55.000Z</time>
      </trkpt>
      <trkpt lat="48.8786" lon="2.30514">
        <ele>90.4</ele>
        <time>2013-02-18T19:49:56.000Z</time>
      </trkpt>
      <trkpt lat="48.87864" lon="2.30513">
        <ele>91</ele>
        <time>2013-02-18T19:49:57.000Z</time>
      </trkpt>
      <trkpt lat="48.87868" lon="2.30513">
        <ele>91</ele>
        <time>2013-02-18T19:49:58.000Z</time>
      </trkpt>
      <trkpt lat="48.87871" lon="2.30511">
        <ele>89.8</ele>
        <time>2013-02-18T19:49:59.000Z</time>
      </trkpt>
      <trkpt lat="48.87875" lon="2.3051">
        <ele>91.3</ele>
        <time>2013-02-18T19:50:00.000Z</time>
      </trkpt>
      <trkpt lat="48.87879" lon="2.30509">
        <ele>89.9</ele>
        <time>2013-02-18T19:50:01.000Z</time>
      </trkpt>
      <trkpt lat="48.87882" lon="2.30508">
        <ele>90.1</ele>
        <time>2013-02-18T19:50:02.000Z</time>
      </trkpt>
      <trkpt lat="48.87886" lon="2.30508">
        <ele>90.3</ele>
        <time>2013-02-18T19:50:03.000Z</time>
      </trkpt>
      <trkpt lat="48.8789" lon="2.30507">
        <ele>90.1</ele>
        <time>2013-02-18T19:50:04.000Z</time>
      </trkpt>
      <trkpt lat="48.87893" lon="2.30506">
        <ele>89.6</ele>
        <time>2013-02-18T19:50:05.000Z</time>
      </trkpt>
      <trkpt lat="48.87897" lon="2.30504">
        <ele>90.5</ele>
        <time>2013-02-18T19:50:06.000Z</time>
      </trkpt>
      <trkpt lat="48.879" lon="2.30503">
        <ele>90.2</ele>
        <time>2013-02-18T19:50:07.000Z</time>
      </trkpt>
      <trkpt lat="48.87902" lon="2.30503">
        <ele>87.9</ele>
        <time>2013-02-18T19:50:08.000Z</time>
      </trkpt>
      <trkpt lat="48.87906" lon="2.30502">
        <ele>87.4</ele>
        <time>2013-02-18T19:50:10.000Z</time>
      </trkpt>
      <trkpt lat="48.87907" lon="2.30502">
        <ele>85.6</ele>
        <time>2013-02-18T19:50:11.000Z</time>
      </trkpt>
      <trkpt lat="48.87911" lon="2.30501">
        <ele>84</ele>
        <time>2013-02-18T19:50:14.000Z</time>
      </trkpt>
      <trkpt lat="48.87912" lon="2.30503">
        <ele>85.7</ele>
        <time>2013-02-18T19:50:15.000Z</time>
      </trkpt>
      <trkpt lat="48.87916" lon="2.30504">
        <ele>88.2</ele>
        <time>2013-02-18T19:50:17.000Z</time>
      </trkpt>
      <trkpt lat="48.87918" lon="2.30504">
        <ele>88.4</ele>
        <time>2013-02-18T19:50:18.000Z</time>
      </trkpt>
      <trkpt lat="48.8792" lon="2.30504">
        <ele>89.9</ele>
        <time>2013-02-18T19:50:19.000Z</time>
      </trkpt>
      <trkpt lat="48.87923" lon="2.30505">
        <ele>90.7</ele>
        <time>2013-02-18T19:50:20.000Z</time>
      </trkpt>
      <trkpt lat="48.87928" lon="2.30505">
        <ele>90.9</ele>
        <time>2013-02-18T19:50:40.000Z</time>
      </trkpt>
      <trkpt lat="48.8793" lon="2.30504">
        <ele>93.3</ele>
        <time>2013-02-18T19:50:41.000Z</time>
      </trkpt>
      <trkpt lat="48.87933" lon="2.30502">
        <ele>96.5</ele>
        <time>2013-02-18T19:50:42.000Z</time>
      </trkpt>
      <trkpt lat="48.87936" lon="2.305">
        <ele>97.6</ele>
        <time>2013-02-18T19:50:43.000Z</time>
      </trkpt>
      <trkpt lat="48.87939" lon="2.30497">
        <ele>98.4</ele>
        <time>2013-02-18T19:50:44.000Z</time>
      </trkpt>
      <trkpt lat="48.87942" lon="2.30495">
        <ele>98.5</ele>
        <time>2013-02-18T19:50:45.000Z</time>
      </trkpt>
      <trkpt lat="48.87945" lon="2.30492">
        <ele>99.6</ele>
        <time>2013-02-18T19:50:46.000Z</time>
      </trkpt>
      <trkpt lat="48.87947" lon="2.30491">
        <ele>100.5</ele>
        <time>2013-02-18T19:50:47.000Z</time>
      </trkpt>
      <trkpt lat="48.8795" lon="2.30489">
        <ele>101.2</ele>
        <time>2013-02-18T19:50:48.000Z</time>
      </trkpt>
      <trkpt lat="48.87952" lon="2.30488">
        <ele>101.3</ele>
        <time>2013-02-18T19:50:49.000Z</time>
      </trkpt>
      <trkpt lat="48.87954" lon="2.30486">
        <ele>101.9</ele>
        <time>2013-02-18T19:50:50.000Z</time>
      </trkpt>
      <trkpt lat="48.87956" lon="2.30485">
        <ele>101.8</ele>
        <time>2013-02-18T19:50:51.000Z</time>
      </trkpt>
      <trkpt lat="48.8796" lon="2.30483">
        <ele>102.3</ele>
        <time>2013-02-18T19:50:53.000Z</time>
      </trkpt>
      <trkpt lat="48.87962" lon="2.30481">
        <ele>102.6</ele>
        <time>2013-02-18T19:50:54.000Z</time>
      </trkpt>
      <trkpt lat="48.87966" lon="2.30482">
        <ele>102.3</ele>
        <time>2013-02-18T19:50:56.000Z</time>
      </trkpt>
      <trkpt lat="48.87968" lon="2.30482">
        <ele>102.1</ele>
        <time>2013-02-18T19:50:57.000Z</time>
      </trkpt>
      <trkpt lat="48.8797" lon="2.30487">
        <ele>102.5</ele>
        <time>2013-02-18T19:51:02.000Z</time>
      </trkpt>
      <trkpt lat="48.87971" lon="2.30487">
        <ele>99.3</ele>
        <time>2013-02-18T19:51:03.000Z</time>
      </trkpt>
      <trkpt lat="48.87974" lon="2.30487">
        <ele>97.1</ele>
        <time>2013-02-18T19:51:06.000Z</time>
      </trkpt>
      <trkpt lat="48.87976" lon="2.30489">
        <ele>96.2</ele>
        <time>2013-02-18T19:51:07.000Z</time>
      </trkpt>
      <trkpt lat="48.87978" lon="2.30493">
        <ele>92.6</ele>
        <time>2013-02-18T19:51:08.000Z</time>
      </trkpt>
      <trkpt lat="48.87981" lon="2.30497">
        <ele>90.7</ele>
        <time>2013-02-18T19:51:09.000Z</time>
      </trkpt>
      <trkpt lat="48.87984" lon="2.30501">
        <ele>88.2</ele>
        <time>2013-02-18T19:51:10.000Z</time>
      </trkpt>
      <trkpt lat="48.87987" lon="2.30505">
        <ele>88.3</ele>
        <time>2013-02-18T19:51:11.000Z</time>
      </trkpt>
      <trkpt lat="48.87989" lon="2.3051">
        <ele>87.8</ele>
        <time>2013-02-18T19:51:12.000Z</time>
      </trkpt>
      <trkpt lat="48.87992" lon="2.30514">
        <ele>87.2</ele>
        <time>2013-02-18T19:51:13.000Z</time>
      </trkpt>
      <trkpt lat="48.87995" lon="2.30518">
        <ele>87.7</ele>
        <time>2013-02-18T19:51:14.000Z</time>
      </trkpt>
      <trkpt lat="48.87997" lon="2.30522">
        <ele>87</ele>
        <time>2013-02-18T19:51:15.000Z</time>
      </trkpt>
      <trkpt lat="48.88" lon="2.30526">
        <ele>86.8</ele>
        <time>2013-02-18T19:51:16.000Z</time>
      </trkpt>
      <trkpt lat="48.88002" lon="2.3053">
        <ele>86.8</ele>
        <time>2013-02-18T19:51:17.000Z</time>
      </trkpt>
      <trkpt lat="48.88004" lon="2.30535">
        <ele>86.1</ele>
        <time>2013-02-18T19:51:18.000Z</time>
      </trkpt>
      <trkpt lat="48.88006" lon="2.30539">
        <ele>85.7</ele>
        <time>2013-02-18T19:51:19.000Z</time>
      </trkpt>
      <trkpt lat="48.88009" lon="2.30546">
        <ele>85.1</ele>
        <time>2013-02-18T19:51:20.000Z</time>
      </trkpt>
      <trkpt lat="48.88012" lon="2.30552">
        <ele>84.1</ele>
        <time>2013-02-18T19:51:21.000Z</time>
      </trkpt>
      <trkpt lat="48.88016" lon="2.30557">
        <ele>84.4</ele>
        <time>2013-02-18T19:51:22.000Z</time>
      </trkpt>
      <trkpt lat="48.8802" lon="2.30563">
        <ele>84.1</ele>
        <time>2013-02-18T19:51:23.000Z</time>
      </trkpt>
      <trkpt lat="48.88024" lon="2.30568">
        <ele>83.7</ele>
        <time>2013-02-18T19:51:24.000Z</time>
      </trkpt>
      <trkpt lat="48.88029" lon="2.30572">
        <ele>83.5</ele>
        <time>2013-02-18T19:51:25.000Z</time>
      </trkpt>
      <trkpt lat="48.88034" lon="2.30575">
        <ele>83.2</ele>
        <time>2013-02-18T19:51:26.000Z</time>
      </trkpt>
      <trkpt lat="48.88039" lon="2.30579">
        <ele>82.8</ele>
        <time>2013-02-18T19:51:27.000Z</time>
      </trkpt>
      <trkpt lat="48.88043" lon="2.30583">
        <ele>82</ele>
        <time>2013-02-18T19:51:28.000Z</time>
      </trkpt>
      <trkpt lat="48.88048" lon="2.30588">
        <ele>81.6</ele>
        <time>2013-02-18T19:51:29.000Z</time>
      </trkpt>
      <trkpt lat="48.88052" lon="2.30592">
        <ele>80.7</ele>
        <time>2013-02-18T19:51:30.000Z</time>
      </trkpt>
      <trkpt lat="48.88057" lon="2.30596">
        <ele>78.2</ele>
        <time>2013-02-18T19:51:31.000Z</time>
      </trkpt>
      <trkpt lat="48.88061" lon="2.306">
        <ele>79.2</ele>
        <time>2013-02-18T19:51:32.000Z</time>
      </trkpt>
      <trkpt lat="48.88065" lon="2.30605">
        <ele>78.7</ele>
        <time>2013-02-18T19:51:33.000Z</time>
      </trkpt>
      <trkpt lat="48.88069" lon="2.3061">
        <ele>78.3</ele>
        <time>2013-02-18T19:51:34.000Z</time>
      </trkpt>
      <trkpt lat="48.88073" lon="2.30615">
        <ele>79.6</ele>
        <time>2013-02-18T19:51:35.000Z</time>
      </trkpt>
      <trkpt lat="48.88076" lon="2.30621">
        <ele>79.1</ele>
        <time>2013-02-18T19:51:36.000Z</time>
      </trkpt>
      <trkpt lat="48.88079" lon="2.30626">
        <ele>78.7</ele>
        <time>2013-02-18T19:51:37.000Z</time>
      </trkpt>
      <trkpt lat="48.88081" lon="2.30631">
        <ele>78.8</ele>
        <time>2013-02-18T19:51:38.000Z</time>
      </trkpt>
      <trkpt lat="48.88084" lon="2.30636">
        <ele>79.4</ele>
        <time>2013-02-18T19:51:39.000Z</time>
      </trkpt>
      <trkpt lat="48.88086" lon="2.30641">
        <ele>80</ele>
        <time>2013-02-18T19:51:40.000Z</time>
      </trkpt>
      <trkpt lat="48.88089" lon="2.30646">
        <ele>80.7</ele>
        <time>2013-02-18T19:51:41.000Z</time>
      </trkpt>
      <trkpt lat="48.88092" lon="2.3065">
        <ele>80.6</ele>
        <time>2013-02-18T19:51:42.000Z</time>
      </trkpt>
      <trkpt lat="48.88094" lon="2.30654">
        <ele>79.8</ele>
        <time>2013-02-18T19:51:43.000Z</time>
      </trkpt>
      <trkpt lat="48.88096" lon="2.30659">
        <ele>80</ele>
        <time>2013-02-18T19:51:44.000Z</time>
      </trkpt>
      <trkpt lat="48.88098" lon="2.30663">
        <ele>82.3</ele>
        <time>2013-02-18T19:51:45.000Z</time>
      </trkpt>
      <trkpt lat="48.881" lon="2.30666">
        <ele>82.9</ele>
        <time>2013-02-18T19:51:46.000Z</time>
      </trkpt>
      <trkpt lat="48.88102" lon="2.3067">
        <ele>84.5</ele>
        <time>2013-02-18T19:51:47.000Z</time>
      </trkpt>
      <trkpt lat="48.88104" lon="2.30674">
        <ele>85.9</ele>
        <time>2013-02-18T19:51:48.000Z</time>
      </trkpt>
      <trkpt lat="48.88107" lon="2.30676">
        <ele>84.1</ele>
        <time>2013-02-18T19:51:49.000Z</time>
      </trkpt>
      <trkpt lat="48.88109" lon="2.30678">
        <ele>92.8</ele>
        <time>2013-02-18T19:51:50.000Z</time>
      </trkpt>
      <trkpt lat="48.88112" lon="2.3068">
        <ele>90.2</ele>
        <time>2013-02-18T19:51:51.000Z</time>
      </trkpt>
      <trkpt lat="48.88115" lon="2.30681">
        <ele>89.8</ele>
        <time>2013-02-18T19:51:52.000Z</time>
      </trkpt>
      <trkpt lat="48.88118" lon="2.30681">
        <ele>87.7</ele>
        <time>2013-02-18T19:51:53.000Z</time>
      </trkpt>
      <trkpt lat="48.88121" lon="2.3068">
        <ele>86.8</ele>
        <time>2013-02-18T19:51:54.000Z</time>
      </trkpt>
      <trkpt lat="48.88124" lon="2.30677">
        <ele>85.6</ele>
        <time>2013-02-18T19:51:55.000Z</time>
      </trkpt>
      <trkpt lat="48.88127" lon="2.30674">
        <ele>85.2</ele>
        <time>2013-02-18T19:51:56.000Z</time>
      </trkpt>
      <trkpt lat="48.8813" lon="2.30669">
        <ele>84.6</ele>
        <time>2013-02-18T19:51:57.000Z</time>
      </trkpt>
      <trkpt lat="48.88132" lon="2.30663">
        <ele>84.2</ele>
        <time>2013-02-18T19:51:58.000Z</time>
      </trkpt>
      <trkpt lat="48.88134" lon="2.30658">
        <ele>84.2</ele>
        <time>2013-02-18T19:51:59.000Z</time>
      </trkpt>
      <trkpt lat="48.88137" lon="2.30652">
        <ele>83.8</ele>
        <time>2013-02-18T19:52:00.000Z</time>
      </trkpt>
      <trkpt lat="48.88139" lon="2.30646">
        <ele>83.2</ele>
        <time>2013-02-18T19:52:01.000Z</time>
      </trkpt>
      <trkpt lat="48.88142" lon="2.3064">
        <ele>83.4</ele>
        <time>2013-02-18T19:52:02.000Z</time>
      </trkpt>
      <trkpt lat="48.88144" lon="2.30634">
        <ele>84</ele>
        <time>2013-02-18T19:52:03.000Z</time>
      </trkpt>
      <trkpt lat="48.88146" lon="2.30627">
        <ele>84.2</ele>
        <time>2013-02-18T19:52:04.000Z</time>
      </trkpt>
      <trkpt lat="48.88149" lon="2.3062">
        <ele>83.7</ele>
        <time>2013-02-18T19:52:05.000Z</time>
      </trkpt>
      <trkpt lat="48.88152" lon="2.30607">
        <ele>83.2</ele>
        <time>2013-02-18T19:52:06.000Z</time>
      </trkpt>
      <trkpt lat="48.88154" lon="2.30601">
        <ele>83.9</ele>
        <time>2013-02-18T19:52:07.000Z</time>
      </trkpt>
      <trkpt lat="48.88156" lon="2.30595">
        <ele>83.6</ele>
        <time>2013-02-18T19:52:08.000Z</time>
      </trkpt>
      <trkpt lat="48.88159" lon="2.3059">
        <ele>83.3</ele>
        <time>2013-02-18T19:52:09.000Z</time>
      </trkpt>
      <trkpt lat="48.88164" lon="2.30583">
        <ele>86.4</ele>
        <time>2013-02-18T19:52:10.000Z</time>
      </trkpt>
      <trkpt lat="48.88166" lon="2.30576">
        <ele>85.4</ele>
        <time>2013-02-18T19:52:11.000Z</time>
      </trkpt>
      <trkpt lat="48.88169" lon="2.3057">
        <ele>85.6</ele>
        <time>2013-02-18T19:52:12.000Z</time>
      </trkpt>
      <trkpt lat="48.88171" lon="2.30563">
        <ele>86.3</ele>
        <time>2013-02-18T19:52:13.000Z</time>
      </trkpt>
      <trkpt lat="48.88174" lon="2.30554">
        <ele>86.9</ele>
        <time>2013-02-18T19:52:14.000Z</time>
      </trkpt>
      <trkpt lat="48.88175" lon="2.30541">
        <ele>88.5</ele>
        <time>2013-02-18T19:52:15.000Z</time>
      </trkpt>
      <trkpt lat="48.88177" lon="2.30534">
        <ele>88.8</ele>
        <time>2013-02-18T19:52:16.000Z</time>
      </trkpt>
      <trkpt lat="48.8818" lon="2.30529">
        <ele>87.5</ele>
        <time>2013-02-18T19:52:17.000Z</time>
      </trkpt>
      <trkpt lat="48.88184" lon="2.30523">
        <ele>88.4</ele>
        <time>2013-02-18T19:52:18.000Z</time>
      </trkpt>
      <trkpt lat="48.88186" lon="2.30516">
        <ele>88.1</ele>
        <time>2013-02-18T19:52:19.000Z</time>
      </trkpt>
      <trkpt lat="48.8819" lon="2.3051">
        <ele>87.8</ele>
        <time>2013-02-18T19:52:20.000Z</time>
      </trkpt>
      <trkpt lat="48.88193" lon="2.30502">
        <ele>87.9</ele>
        <time>2013-02-18T19:52:21.000Z</time>
      </trkpt>
      <trkpt lat="48.88198" lon="2.30495">
        <ele>87.4</ele>
        <time>2013-02-18T19:52:22.000Z</time>
      </trkpt>
      <trkpt lat="48.88205" lon="2.30473">
        <ele>86.5</ele>
        <time>2013-02-18T19:52:26.000Z</time>
      </trkpt>
      <trkpt lat="48.88207" lon="2.30466">
        <ele>86.5</ele>
        <time>2013-02-18T19:52:27.000Z</time>
      </trkpt>
      <trkpt lat="48.88207" lon="2.30457">
        <ele>86.6</ele>
        <time>2013-02-18T19:52:28.000Z</time>
      </trkpt>
      <trkpt lat="48.88208" lon="2.30449">
        <ele>86.5</ele>
        <time>2013-02-18T19:52:29.000Z</time>
      </trkpt>
      <trkpt lat="48.88212" lon="2.30441">
        <ele>86.6</ele>
        <time>2013-02-18T19:52:30.000Z</time>
      </trkpt>
      <trkpt lat="48.88215" lon="2.30435">
        <ele>86.5</ele>
        <time>2013-02-18T19:52:31.000Z</time>
      </trkpt>
      <trkpt lat="48.88216" lon="2.30428">
        <ele>86.5</ele>
        <time>2013-02-18T19:52:32.000Z</time>
      </trkpt>
      <trkpt lat="48.88217" lon="2.30419">
        <ele>87.2</ele>
        <time>2013-02-18T19:52:33.000Z</time>
      </trkpt>
      <trkpt lat="48.88219" lon="2.30408">
        <ele>88.3</ele>
        <time>2013-02-18T19:52:34.000Z</time>
      </trkpt>
      <trkpt lat="48.8822" lon="2.304">
        <ele>89.4</ele>
        <time>2013-02-18T19:52:35.000Z</time>
      </trkpt>
      <trkpt lat="48.88221" lon="2.30393">
        <ele>89.4</ele>
        <time>2013-02-18T19:52:36.000Z</time>
      </trkpt>
      <trkpt lat="48.88221" lon="2.30377">
        <ele>90.1</ele>
        <time>2013-02-18T19:52:37.000Z</time>
      </trkpt>
      <trkpt lat="48.88222" lon="2.3037">
        <ele>90.1</ele>
        <time>2013-02-18T19:52:38.000Z</time>
      </trkpt>
      <trkpt lat="48.88228" lon="2.30359">
        <ele>90.2</ele>
        <time>2013-02-18T19:52:39.000Z</time>
      </trkpt>
      <trkpt lat="48.8823" lon="2.30353">
        <ele>90.3</ele>
        <time>2013-02-18T19:52:40.000Z</time>
      </trkpt>
      <trkpt lat="48.88237" lon="2.30348">
        <ele>90.8</ele>
        <time>2013-02-18T19:52:41.000Z</time>
      </trkpt>
      <trkpt lat="48.88243" lon="2.30342">
        <ele>91.1</ele>
        <time>2013-02-18T19:52:42.000Z</time>
      </trkpt>
      <trkpt lat="48.88258" lon="2.30338">
        <ele>91.3</ele>
        <time>2013-02-18T19:52:43.000Z</time>
      </trkpt>
      <trkpt lat="48.88261" lon="2.30328">
        <ele>91.4</ele>
        <time>2013-02-18T19:52:44.000Z</time>
      </trkpt>
      <trkpt lat="48.88267" lon="2.30324">
        <ele>91.7</ele>
        <time>2013-02-18T19:52:45.000Z</time>
      </trkpt>
      <trkpt lat="48.8827" lon="2.30321">
        <ele>91.6</ele>
        <time>2013-02-18T19:52:46.000Z</time>
      </trkpt>
      <trkpt lat="48.88279" lon="2.30316">
        <ele>91.8</ele>
        <time>2013-02-18T19:52:47.000Z</time>
      </trkpt>
      <trkpt lat="48.88286" lon="2.30308">
        <ele>92.1</ele>
        <time>2013-02-18T19:52:48.000Z</time>
      </trkpt>
      <trkpt lat="48.88286" lon="2.30307">
        <ele>92.1</ele>
        <time>2013-02-18T19:52:49.000Z</time>
      </trkpt>
      <trkpt lat="48.88285" lon="2.303">
        <ele>92</ele>
        <time>2013-02-18T19:52:50.000Z</time>
      </trkpt>
      <trkpt lat="48.88288" lon="2.30296">
        <ele>92.2</ele>
        <time>2013-02-18T19:52:51.000Z</time>
      </trkpt>
      <trkpt lat="48.88291" lon="2.3029">
        <ele>92.2</ele>
        <time>2013-02-18T19:52:52.000Z</time>
      </trkpt>
      <trkpt lat="48.88293" lon="2.30286">
        <ele>92.2</ele>
        <time>2013-02-18T19:52:53.000Z</time>
      </trkpt>
      <trkpt lat="48.88295" lon="2.30279">
        <ele>92.2</ele>
        <time>2013-02-18T19:52:54.000Z</time>
      </trkpt>
      <trkpt lat="48.88297" lon="2.30268">
        <ele>92.5</ele>
        <time>2013-02-18T19:52:55.000Z</time>
      </trkpt>
      <trkpt lat="48.88298" lon="2.30262">
        <ele>92.2</ele>
        <time>2013-02-18T19:52:56.000Z</time>
      </trkpt>
      <trkpt lat="48.88301" lon="2.30256">
        <ele>92.3</ele>
        <time>2013-02-18T19:52:57.000Z</time>
      </trkpt>
      <trkpt lat="48.88302" lon="2.30247">
        <ele>94.1</ele>
        <time>2013-02-18T19:52:58.000Z</time>
      </trkpt>
      <trkpt lat="48.88304" lon="2.30241">
        <ele>94.2</ele>
        <time>2013-02-18T19:52:59.000Z</time>
      </trkpt>
      <trkpt lat="48.88306" lon="2.30233">
        <ele>95.5</ele>
        <time>2013-02-18T19:53:00.000Z</time>
      </trkpt>
      <trkpt lat="48.88308" lon="2.30226">
        <ele>95.4</ele>
        <time>2013-02-18T19:53:01.000Z</time>
      </trkpt>
      <trkpt lat="48.8831" lon="2.30218">
        <ele>97.8</ele>
        <time>2013-02-18T19:53:02.000Z</time>
      </trkpt>
      <trkpt lat="48.88315" lon="2.30214">
        <ele>98.7</ele>
        <time>2013-02-18T19:53:03.000Z</time>
      </trkpt>
      <trkpt lat="48.88318" lon="2.30211">
        <ele>98.5</ele>
        <time>2013-02-18T19:53:04.000Z</time>
      </trkpt>
      <trkpt lat="48.8832" lon="2.30203">
        <ele>99.8</ele>
        <time>2013-02-18T19:53:05.000Z</time>
      </trkpt>
      <trkpt lat="48.88319" lon="2.30196">
        <ele>102.5</ele>
        <time>2013-02-18T19:53:06.000Z</time>
      </trkpt>
      <trkpt lat="48.88322" lon="2.3019">
        <ele>104.4</ele>
        <time>2013-02-18T19:53:07.000Z</time>
      </trkpt>
      <trkpt lat="48.88326" lon="2.30188">
        <ele>104.8</ele>
        <time>2013-02-18T19:53:08.000Z</time>
      </trkpt>
      <trkpt lat="48.88328" lon="2.30185">
        <ele>106</ele>
        <time>2013-02-18T19:53:09.000Z</time>
      </trkpt>
      <trkpt lat="48.88332" lon="2.30185">
        <ele>90</ele>
        <time>2013-02-18T19:53:11.000Z</time>
      </trkpt>
      <trkpt lat="48.88334" lon="2.30188">
        <ele>90.7</ele>
        <time>2013-02-18T19:53:12.000Z</time>
      </trkpt>
      <trkpt lat="48.88337" lon="2.30191">
        <ele>91.4</ele>
        <time>2013-02-18T19:53:13.000Z</time>
      </trkpt>
      <trkpt lat="48.8834" lon="2.30195">
        <ele>91.7</ele>
        <time>2013-02-18T19:53:14.000Z</time>
      </trkpt>
      <trkpt lat="48.88343" lon="2.30199">
        <ele>91.2</ele>
        <time>2013-02-18T19:53:15.000Z</time>
      </trkpt>
      <trkpt lat="48.88346" lon="2.30203">
        <ele>90.5</ele>
        <time>2013-02-18T19:53:16.000Z</time>
      </trkpt>
      <trkpt lat="48.8835" lon="2.30206">
        <ele>89.4</ele>
        <time>2013-02-18T19:53:17.000Z</time>
      </trkpt>
      <trkpt lat="48.88354" lon="2.30209">
        <ele>88.7</ele>
        <time>2013-02-18T19:53:18.000Z</time>
      </trkpt>
      <trkpt lat="48.88358" lon="2.30212">
        <ele>88.3</ele>
        <time>2013-02-18T19:53:19.000Z</time>
      </trkpt>
      <trkpt lat="48.88362" lon="2.30215">
        <ele>89.1</ele>
        <time>2013-02-18T19:53:20.000Z</time>
      </trkpt>
      <trkpt lat="48.88366" lon="2.30218">
        <ele>87.7</ele>
        <time>2013-02-18T19:53:21.000Z</time>
      </trkpt>
      <trkpt lat="48.8837" lon="2.30221">
        <ele>87</ele>
        <time>2013-02-18T19:53:22.000Z</time>
      </trkpt>
      <trkpt lat="48.88383" lon="2.3023">
        <ele>86.4</ele>
        <time>2013-02-18T19:53:25.000Z</time>
      </trkpt>
      <trkpt lat="48.88386" lon="2.30233">
        <ele>86.2</ele>
        <time>2013-02-18T19:53:26.000Z</time>
      </trkpt>
      <trkpt lat="48.8839" lon="2.30236">
        <ele>86</ele>
        <time>2013-02-18T19:53:27.000Z</time>
      </trkpt>
      <trkpt lat="48.88393" lon="2.30239">
        <ele>84.5</ele>
        <time>2013-02-18T19:53:28.000Z</time>
      </trkpt>
      <trkpt lat="48.88397" lon="2.30242">
        <ele>83.2</ele>
        <time>2013-02-18T19:53:29.000Z</time>
      </trkpt>
      <trkpt lat="48.884" lon="2.30246">
        <ele>83.1</ele>
        <time>2013-02-18T19:53:30.000Z</time>
      </trkpt>
      <trkpt lat="48.88404" lon="2.30249">
        <ele>82.9</ele>
        <time>2013-02-18T19:53:31.000Z</time>
      </trkpt>
      <trkpt lat="48.88407" lon="2.30252">
        <ele>82.9</ele>
        <time>2013-02-18T19:53:32.000Z</time>
      </trkpt>
      <trkpt lat="48.88411" lon="2.30255">
        <ele>81.3</ele>
        <time>2013-02-18T19:53:33.000Z</time>
      </trkpt>
      <trkpt lat="48.88414" lon="2.30259">
        <ele>81.8</ele>
        <time>2013-02-18T19:53:34.000Z</time>
      </trkpt>
      <trkpt lat="48.88417" lon="2.30262">
        <ele>80.5</ele>
        <time>2013-02-18T19:53:35.000Z</time>
      </trkpt>
      <trkpt lat="48.8842" lon="2.30266">
        <ele>81.2</ele>
        <time>2013-02-18T19:53:36.000Z</time>
      </trkpt>
      <trkpt lat="48.88422" lon="2.30269">
        <ele>81.4</ele>
        <time>2013-02-18T19:53:37.000Z</time>
      </trkpt>
      <trkpt lat="48.88425" lon="2.30272">
        <ele>81.1</ele>
        <time>2013-02-18T19:53:38.000Z</time>
      </trkpt>
      <trkpt lat="48.88427" lon="2.30275">
        <ele>79.2</ele>
        <time>2013-02-18T19:53:39.000Z</time>
      </trkpt>
      <trkpt lat="48.8843" lon="2.30277">
        <ele>77.8</ele>
        <time>2013-02-18T19:53:40.000Z</time>
      </trkpt>
      <trkpt lat="48.88434" lon="2.3028">
        <ele>78.6</ele>
        <time>2013-02-18T19:53:41.000Z</time>
      </trkpt>
      <trkpt lat="48.88437" lon="2.30282">
        <ele>78.2</ele>
        <time>2013-02-18T19:53:42.000Z</time>
      </trkpt>
      <trkpt lat="48.88442" lon="2.30285">
        <ele>78.7</ele>
        <time>2013-02-18T19:53:43.000Z</time>
      </trkpt>
      <trkpt lat="48.88447" lon="2.30288">
        <ele>78.9</ele>
        <time>2013-02-18T19:53:44.000Z</time>
      </trkpt>
      <trkpt lat="48.88451" lon="2.30292">
        <ele>78.4</ele>
        <time>2013-02-18T19:53:45.000Z</time>
      </trkpt>
      <trkpt lat="48.88455" lon="2.30295">
        <ele>79.8</ele>
        <time>2013-02-18T19:53:46.000Z</time>
      </trkpt>
      <trkpt lat="48.8846" lon="2.30299">
        <ele>79.3</ele>
        <time>2013-02-18T19:53:47.000Z</time>
      </trkpt>
      <trkpt lat="48.88465" lon="2.30302">
        <ele>78.7</ele>
        <time>2013-02-18T19:53:48.000Z</time>
      </trkpt>
      <trkpt lat="48.88473" lon="2.30303">
        <ele>78.1</ele>
        <time>2013-02-18T19:53:49.000Z</time>
      </trkpt>
      <trkpt lat="48.88477" lon="2.30305">
        <ele>77.7</ele>
        <time>2013-02-18T19:53:50.000Z</time>
      </trkpt>
      <trkpt lat="48.88481" lon="2.30309">
        <ele>77.2</ele>
        <time>2013-02-18T19:53:51.000Z</time>
      </trkpt>
      <trkpt lat="48.88485" lon="2.30311">
        <ele>77.3</ele>
        <time>2013-02-18T19:53:52.000Z</time>
      </trkpt>
      <trkpt lat="48.88489" lon="2.30313">
        <ele>77.2</ele>
        <time>2013-02-18T19:53:53.000Z</time>
      </trkpt>
      <trkpt lat="48.88491" lon="2.30317">
        <ele>75.7</ele>
        <time>2013-02-18T19:53:54.000Z</time>
      </trkpt>
      <trkpt lat="48.88494" lon="2.30318">
        <ele>75</ele>
        <time>2013-02-18T19:53:55.000Z</time>
      </trkpt>
      <trkpt lat="48.88496" lon="2.3032">
        <ele>74.4</ele>
        <time>2013-02-18T19:53:56.000Z</time>
      </trkpt>
      <trkpt lat="48.88498" lon="2.30322">
        <ele>74.1</ele>
        <time>2013-02-18T19:53:57.000Z</time>
      </trkpt>
      <trkpt lat="48.88501" lon="2.30324">
        <ele>73.9</ele>
        <time>2013-02-18T19:53:58.000Z</time>
      </trkpt>
      <trkpt lat="48.88503" lon="2.30325">
        <ele>73.6</ele>
        <time>2013-02-18T19:53:59.000Z</time>
      </trkpt>
      <trkpt lat="48.88505" lon="2.30327">
        <ele>73.5</ele>
        <time>2013-02-18T19:54:00.000Z</time>
      </trkpt>
      <trkpt lat="48.88508" lon="2.3033">
        <ele>74.9</ele>
        <time>2013-02-18T19:54:01.000Z</time>
      </trkpt>
      <trkpt lat="48.8851" lon="2.30332">
        <ele>75.3</ele>
        <time>2013-02-18T19:54:02.000Z</time>
      </trkpt>
      <trkpt lat="48.88513" lon="2.30335">
        <ele>74.3</ele>
        <time>2013-02-18T19:54:03.000Z</time>
      </trkpt>
      <trkpt lat="48.88516" lon="2.30338">
        <ele>74.2</ele>
        <time>2013-02-18T19:54:04.000Z</time>
      </trkpt>
      <trkpt lat="48.88519" lon="2.30341">
        <ele>74.3</ele>
        <time>2013-02-18T19:54:05.000Z</time>
      </trkpt>
      <trkpt lat="48.88522" lon="2.30343">
        <ele>73.7</ele>
        <time>2013-02-18T19:54:06.000Z</time>
      </trkpt>
      <trkpt lat="48.88525" lon="2.30345">
        <ele>73</ele>
        <time>2013-02-18T19:54:07.000Z</time>
      </trkpt>
      <trkpt lat="48.88528" lon="2.30348">
        <ele>75.8</ele>
        <time>2013-02-18T19:54:10.000Z</time>
      </trkpt>
      <trkpt lat="48.88528" lon="2.30349">
        <ele>76.9</ele>
        <time>2013-02-18T19:54:11.000Z</time>
      </trkpt>
      <trkpt lat="48.8853" lon="2.30343">
        <ele>80.6</ele>
        <time>2013-02-18T19:54:21.000Z</time>
      </trkpt>
      <trkpt lat="48.88531" lon="2.30339">
        <ele>81.5</ele>
        <time>2013-02-18T19:54:22.000Z</time>
      </trkpt>
      <trkpt lat="48.88532" lon="2.30335">
        <ele>83</ele>
        <time>2013-02-18T19:54:23.000Z</time>
      </trkpt>
      <trkpt lat="48.88533" lon="2.3033">
        <ele>84.8</ele>
        <time>2013-02-18T19:54:24.000Z</time>
      </trkpt>
      <trkpt lat="48.88534" lon="2.30325">
        <ele>84.3</ele>
        <time>2013-02-18T19:54:25.000Z</time>
      </trkpt>
      <trkpt lat="48.88536" lon="2.30321">
        <ele>82.4</ele>
        <time>2013-02-18T19:54:26.000Z</time>
      </trkpt>
      <trkpt lat="48.88538" lon="2.30317">
        <ele>81.7</ele>
        <time>2013-02-18T19:54:27.000Z</time>
      </trkpt>
      <trkpt lat="48.88541" lon="2.30313">
        <ele>80.7</ele>
        <time>2013-02-18T19:54:28.000Z</time>
      </trkpt>
      <trkpt lat="48.88544" lon="2.3031">
        <ele>80.8</ele>
        <time>2013-02-18T19:54:29.000Z</time>
      </trkpt>
      <trkpt lat="48.88547" lon="2.30307">
        <ele>79.9</ele>
        <time>2013-02-18T19:54:30.000Z</time>
      </trkpt>
      <trkpt lat="48.8855" lon="2.30304">
        <ele>79.3</ele>
        <time>2013-02-18T19:54:31.000Z</time>
      </trkpt>
      <trkpt lat="48.88554" lon="2.303">
        <ele>80.2</ele>
        <time>2013-02-18T19:54:32.000Z</time>
      </trkpt>
      <trkpt lat="48.88558" lon="2.30295">
        <ele>80.5</ele>
        <time>2013-02-18T19:54:33.000Z</time>
      </trkpt>
      <trkpt lat="48.88561" lon="2.30289">
        <ele>79.5</ele>
        <time>2013-02-18T19:54:34.000Z</time>
      </trkpt>
      <trkpt lat="48.88567" lon="2.30282">
        <ele>79.4</ele>
        <time>2013-02-18T19:54:35.000Z</time>
      </trkpt>
      <trkpt lat="48.88571" lon="2.30278">
        <ele>78.3</ele>
        <time>2013-02-18T19:54:36.000Z</time>
      </trkpt>
      <trkpt lat="48.88574" lon="2.30274">
        <ele>77.5</ele>
        <time>2013-02-18T19:54:37.000Z</time>
      </trkpt>
      <trkpt lat="48.88578" lon="2.30271">
        <ele>75.3</ele>
        <time>2013-02-18T19:54:38.000Z</time>
      </trkpt>
      <trkpt lat="48.88581" lon="2.30267">
        <ele>74.6</ele>
        <time>2013-02-18T19:54:39.000Z</time>
      </trkpt>
      <trkpt lat="48.88585" lon="2.30262">
        <ele>73.6</ele>
        <time>2013-02-18T19:54:40.000Z</time>
      </trkpt>
      <trkpt lat="48.8859" lon="2.30256">
        <ele>73.9</ele>
        <time>2013-02-18T19:54:41.000Z</time>
      </trkpt>
      <trkpt lat="48.88594" lon="2.30251">
        <ele>73.9</ele>
        <time>2013-02-18T19:54:42.000Z</time>
      </trkpt>
      <trkpt lat="48.88598" lon="2.30244">
        <ele>74.8</ele>
        <time>2013-02-18T19:54:43.000Z</time>
      </trkpt>
      <trkpt lat="48.88603" lon="2.30239">
        <ele>74.1</ele>
        <time>2013-02-18T19:54:44.000Z</time>
      </trkpt>
      <trkpt lat="48.88606" lon="2.30235">
        <ele>73.7</ele>
        <time>2013-02-18T19:54:45.000Z</time>
      </trkpt>
      <trkpt lat="48.8861" lon="2.30231">
        <ele>73.2</ele>
        <time>2013-02-18T19:54:46.000Z</time>
      </trkpt>
      <trkpt lat="48.88614" lon="2.30228">
        <ele>73</ele>
        <time>2013-02-18T19:54:47.000Z</time>
      </trkpt>
      <trkpt lat="48.88618" lon="2.30225">
        <ele>72.5</ele>
        <time>2013-02-18T19:54:48.000Z</time>
      </trkpt>
      <trkpt lat="48.88622" lon="2.3022">
        <ele>71.8</ele>
        <time>2013-02-18T19:54:49.000Z</time>
      </trkpt>
      <trkpt lat="48.88624" lon="2.30213">
        <ele>71.7</ele>
        <time>2013-02-18T19:54:50.000Z</time>
      </trkpt>
      <trkpt lat="48.88627" lon="2.30209">
        <ele>71.7</ele>
        <time>2013-02-18T19:54:51.000Z</time>
      </trkpt>
      <trkpt lat="48.8863" lon="2.30203">
        <ele>71.6</ele>
        <time>2013-02-18T19:54:52.000Z</time>
      </trkpt>
      <trkpt lat="48.88633" lon="2.30197">
        <ele>71.4</ele>
        <time>2013-02-18T19:54:53.000Z</time>
      </trkpt>
      <trkpt lat="48.88636" lon="2.30192">
        <ele>71.7</ele>
        <time>2013-02-18T19:54:54.000Z</time>
      </trkpt>
      <trkpt lat="48.88638" lon="2.30188">
        <ele>71.7</ele>
        <time>2013-02-18T19:54:55.000Z</time>
      </trkpt>
      <trkpt lat="48.88641" lon="2.30184">
        <ele>71.2</ele>
        <time>2013-02-18T19:54:56.000Z</time>
      </trkpt>
      <trkpt lat="48.88644" lon="2.30181">
        <ele>70.8</ele>
        <time>2013-02-18T19:54:57.000Z</time>
      </trkpt>
      <trkpt lat="48.88646" lon="2.30178">
        <ele>75.6</ele>
        <time>2013-02-18T19:54:58.000Z</time>
      </trkpt>
      <trkpt lat="48.88649" lon="2.30175">
        <ele>73.6</ele>
        <time>2013-02-18T19:54:59.000Z</time>
      </trkpt>
      <trkpt lat="48.88652" lon="2.30173">
        <ele>72.5</ele>
        <time>2013-02-18T19:55:00.000Z</time>
      </trkpt>
      <trkpt lat="48.88655" lon="2.3017">
        <ele>71.7</ele>
        <time>2013-02-18T19:55:01.000Z</time>
      </trkpt>
      <trkpt lat="48.88658" lon="2.30168">
        <ele>70.9</ele>
        <time>2013-02-18T19:55:02.000Z</time>
      </trkpt>
      <trkpt lat="48.88661" lon="2.30165">
        <ele>70.5</ele>
        <time>2013-02-18T19:55:03.000Z</time>
      </trkpt>
      <trkpt lat="48.88664" lon="2.30162">
        <ele>70.7</ele>
        <time>2013-02-18T19:55:04.000Z</time>
      </trkpt>
      <trkpt lat="48.88667" lon="2.30158">
        <ele>70.6</ele>
        <time>2013-02-18T19:55:05.000Z</time>
      </trkpt>
      <trkpt lat="48.88671" lon="2.30155">
        <ele>72.2</ele>
        <time>2013-02-18T19:55:06.000Z</time>
      </trkpt>
      <trkpt lat="48.88674" lon="2.30151">
        <ele>73</ele>
        <time>2013-02-18T19:55:07.000Z</time>
      </trkpt>
      <trkpt lat="48.88677" lon="2.30147">
        <ele>73.4</ele>
        <time>2013-02-18T19:55:08.000Z</time>
      </trkpt>
      <trkpt lat="48.8868" lon="2.30142">
        <ele>74.7</ele>
        <time>2013-02-18T19:55:09.000Z</time>
      </trkpt>
      <trkpt lat="48.88683" lon="2.30138">
        <ele>74.9</ele>
        <time>2013-02-18T19:55:10.000Z</time>
      </trkpt>
      <trkpt lat="48.88686" lon="2.30134">
        <ele>75</ele>
        <time>2013-02-18T19:55:11.000Z</time>
      </trkpt>
      <trkpt lat="48.88689" lon="2.3013">
        <ele>74.8</ele>
        <time>2013-02-18T19:55:12.000Z</time>
      </trkpt>
      <trkpt lat="48.88692" lon="2.30126">
        <ele>74.9</ele>
        <time>2013-02-18T19:55:13.000Z</time>
      </trkpt>
      <trkpt lat="48.88695" lon="2.30122">
        <ele>75.7</ele>
        <time>2013-02-18T19:55:14.000Z</time>
      </trkpt>
      <trkpt lat="48.88698" lon="2.30118">
        <ele>73.4</ele>
        <time>2013-02-18T19:55:15.000Z</time>
      </trkpt>
      <trkpt lat="48.88701" lon="2.30114">
        <ele>72.9</ele>
        <time>2013-02-18T19:55:16.000Z</time>
      </trkpt>
      <trkpt lat="48.88703" lon="2.30111">
        <ele>72.8</ele>
        <time>2013-02-18T19:55:17.000Z</time>
      </trkpt>
      <trkpt lat="48.88706" lon="2.30107">
        <ele>72</ele>
        <time>2013-02-18T19:55:18.000Z</time>
      </trkpt>
      <trkpt lat="48.88708" lon="2.30104">
        <ele>72.1</ele>
        <time>2013-02-18T19:55:19.000Z</time>
      </trkpt>
      <trkpt lat="48.8871" lon="2.301">
        <ele>72.3</ele>
        <time>2013-02-18T19:55:20.000Z</time>
      </trkpt>
      <trkpt lat="48.88713" lon="2.30098">
        <ele>71.1</ele>
        <time>2013-02-18T19:55:21.000Z</time>
      </trkpt>
      <trkpt lat="48.88715" lon="2.30095">
        <ele>71.2</ele>
        <time>2013-02-18T19:55:22.000Z</time>
      </trkpt>
      <trkpt lat="48.88717" lon="2.30092">
        <ele>70.6</ele>
        <time>2013-02-18T19:55:23.000Z</time>
      </trkpt>
      <trkpt lat="48.88719" lon="2.30089">
        <ele>70.9</ele>
        <time>2013-02-18T19:55:24.000Z</time>
      </trkpt>
      <trkpt lat="48.88721" lon="2.30086">
        <ele>70.5</ele>
        <time>2013-02-18T19:55:25.000Z</time>
      </trkpt>
      <trkpt lat="48.88723" lon="2.30084">
        <ele>69.6</ele>
        <time>2013-02-18T19:55:26.000Z</time>
      </trkpt>
      <trkpt lat="48.88725" lon="2.30081">
        <ele>69.9</ele>
        <time>2013-02-18T19:55:27.000Z</time>
      </trkpt>
      <trkpt lat="48.88727" lon="2.30079">
        <ele>70</ele>
        <time>2013-02-18T19:55:28.000Z</time>
      </trkpt>
      <trkpt lat="48.88728" lon="2.30075">
        <ele>70.7</ele>
        <time>2013-02-18T19:55:29.000Z</time>
      </trkpt>
      <trkpt lat="48.88731" lon="2.30072">
        <ele>71.2</ele>
        <time>2013-02-18T19:55:30.000Z</time>
      </trkpt>
      <trkpt lat="48.88733" lon="2.30068">
        <ele>71.3</ele>
        <time>2013-02-18T19:55:31.000Z</time>
      </trkpt>
      <trkpt lat="48.88735" lon="2.30064">
        <ele>71.3</ele>
        <time>2013-02-18T19:55:32.000Z</time>
      </trkpt>
      <trkpt lat="48.88738" lon="2.30061">
        <ele>71.1</ele>
        <time>2013-02-18T19:55:33.000Z</time>
      </trkpt>
      <trkpt lat="48.8874" lon="2.30057">
        <ele>69.5</ele>
        <time>2013-02-18T19:55:34.000Z</time>
      </trkpt>
      <trkpt lat="48.88742" lon="2.30054">
        <ele>69.5</ele>
        <time>2013-02-18T19:55:35.000Z</time>
      </trkpt>
      <trkpt lat="48.88745" lon="2.3005">
        <ele>69.3</ele>
        <time>2013-02-18T19:55:36.000Z</time>
      </trkpt>
      <trkpt lat="48.88747" lon="2.30046">
        <ele>69.4</ele>
        <time>2013-02-18T19:55:37.000Z</time>
      </trkpt>
      <trkpt lat="48.88749" lon="2.30042">
        <ele>69.6</ele>
        <time>2013-02-18T19:55:38.000Z</time>
      </trkpt>
      <trkpt lat="48.88751" lon="2.30039">
        <ele>69.5</ele>
        <time>2013-02-18T19:55:39.000Z</time>
      </trkpt>
      <trkpt lat="48.88752" lon="2.30035">
        <ele>70</ele>
        <time>2013-02-18T19:55:40.000Z</time>
      </trkpt>
      <trkpt lat="48.88754" lon="2.30031">
        <ele>70.7</ele>
        <time>2013-02-18T19:55:41.000Z</time>
      </trkpt>
      <trkpt lat="48.88755" lon="2.30027">
        <ele>71.3</ele>
        <time>2013-02-18T19:55:42.000Z</time>
      </trkpt>
      <trkpt lat="48.88757" lon="2.30024">
        <ele>70.2</ele>
        <time>2013-02-18T19:55:43.000Z</time>
      </trkpt>
      <trkpt lat="48.88758" lon="2.3002">
        <ele>70</ele>
        <time>2013-02-18T19:55:44.000Z</time>
      </trkpt>
      <trkpt lat="48.8876" lon="2.30018">
        <ele>69.4</ele>
        <time>2013-02-18T19:55:45.000Z</time>
      </trkpt>
      <trkpt lat="48.88762" lon="2.30015">
        <ele>69.2</ele>
        <time>2013-02-18T19:55:46.000Z</time>
      </trkpt>
      <trkpt lat="48.88765" lon="2.30013">
        <ele>68.6</ele>
        <time>2013-02-18T19:55:47.000Z</time>
      </trkpt>
      <trkpt lat="48.88767" lon="2.3001">
        <ele>68.1</ele>
        <time>2013-02-18T19:55:48.000Z</time>
      </trkpt>
      <trkpt lat="48.8877" lon="2.30008">
        <ele>68.4</ele>
        <time>2013-02-18T19:55:49.000Z</time>
      </trkpt>
      <trkpt lat="48.88772" lon="2.30005">
        <ele>68.5</ele>
        <time>2013-02-18T19:55:50.000Z</time>
      </trkpt>
      <trkpt lat="48.88774" lon="2.30002">
        <ele>68.5</ele>
        <time>2013-02-18T19:55:51.000Z</time>
      </trkpt>
      <trkpt lat="48.88776" lon="2.3">
        <ele>68.8</ele>
        <time>2013-02-18T19:55:52.000Z</time>
      </trkpt>
      <trkpt lat="48.88778" lon="2.29997">
        <ele>68</ele>
        <time>2013-02-18T19:55:53.000Z</time>
      </trkpt>
      <trkpt lat="48.88781" lon="2.29995">
        <ele>69.1</ele>
        <time>2013-02-18T19:55:54.000Z</time>
      </trkpt>
      <trkpt lat="48.88783" lon="2.29992">
        <ele>70.6</ele>
        <time>2013-02-18T19:55:55.000Z</time>
      </trkpt>
      <trkpt lat="48.88785" lon="2.2999">
        <ele>69.7</ele>
        <time>2013-02-18T19:55:56.000Z</time>
      </trkpt>
      <trkpt lat="48.88788" lon="2.29988">
        <ele>69.8</ele>
        <time>2013-02-18T19:55:57.000Z</time>
      </trkpt>
      <trkpt lat="48.8879" lon="2.29986">
        <ele>69.9</ele>
        <time>2013-02-18T19:55:58.000Z</time>
      </trkpt>
      <trkpt lat="48.88793" lon="2.29984">
        <ele>70.6</ele>
        <time>2013-02-18T19:55:59.000Z</time>
      </trkpt>
      <trkpt lat="48.88796" lon="2.29983">
        <ele>69.9</ele>
        <time>2013-02-18T19:56:00.000Z</time>
      </trkpt>
      <trkpt lat="48.88799" lon="2.29982">
        <ele>71.7</ele>
        <time>2013-02-18T19:56:01.000Z</time>
      </trkpt>
      <trkpt lat="48.88802" lon="2.2998">
        <ele>71.5</ele>
        <time>2013-02-18T19:56:02.000Z</time>
      </trkpt>
      <trkpt lat="48.88805" lon="2.29979">
        <ele>71.6</ele>
        <time>2013-02-18T19:56:03.000Z</time>
      </trkpt>
      <trkpt lat="48.88807" lon="2.29977">
        <ele>72.3</ele>
        <time>2013-02-18T19:56:04.000Z</time>
      </trkpt>
      <trkpt lat="48.88809" lon="2.29975">
        <ele>72.5</ele>
        <time>2013-02-18T19:56:05.000Z</time>
      </trkpt>
      <trkpt lat="48.88813" lon="2.29971">
        <ele>75.5</ele>
        <time>2013-02-18T19:56:08.000Z</time>
      </trkpt>
      <trkpt lat="48.88812" lon="2.2997">
        <ele>77.2</ele>
        <time>2013-02-18T19:56:09.000Z</time>
      </trkpt>
      <trkpt lat="48.88809" lon="2.29966">
        <ele>79.9</ele>
        <time>2013-02-18T19:56:16.000Z</time>
      </trkpt>
      <trkpt lat="48.88809" lon="2.29965">
        <ele>80.3</ele>
        <time>2013-02-18T19:56:17.000Z</time>
      </trkpt>
      <trkpt lat="48.88806" lon="2.2996">
        <ele>83.4</ele>
        <time>2013-02-18T19:56:32.000Z</time>
      </trkpt>
      <trkpt lat="48.88805" lon="2.29957">
        <ele>85.7</ele>
        <time>2013-02-18T19:56:33.000Z</time>
      </trkpt>
      <trkpt lat="48.88803" lon="2.29953">
        <ele>86.4</ele>
        <time>2013-02-18T19:56:34.000Z</time>
      </trkpt>
      <trkpt lat="48.88801" lon="2.29949">
        <ele>87.8</ele>
        <time>2013-02-18T19:56:35.000Z</time>
      </trkpt>
      <trkpt lat="48.88799" lon="2.29946">
        <ele>87.7</ele>
        <time>2013-02-18T19:56:36.000Z</time>
      </trkpt>
      <trkpt lat="48.88797" lon="2.29941">
        <ele>87.2</ele>
        <time>2013-02-18T19:56:37.000Z</time>
      </trkpt>
      <trkpt lat="48.88795" lon="2.29936">
        <ele>87.3</ele>
        <time>2013-02-18T19:56:38.000Z</time>
      </trkpt>
      <trkpt lat="48.88792" lon="2.29931">
        <ele>88</ele>
        <time>2013-02-18T19:56:39.000Z</time>
      </trkpt>
      <trkpt lat="48.8879" lon="2.29926">
        <ele>87.8</ele>
        <time>2013-02-18T19:56:40.000Z</time>
      </trkpt>
      <trkpt lat="48.88788" lon="2.29921">
        <ele>89.1</ele>
        <time>2013-02-18T19:56:41.000Z</time>
      </trkpt>
      <trkpt lat="48.88786" lon="2.29915">
        <ele>89</ele>
        <time>2013-02-18T19:56:42.000Z</time>
      </trkpt>
      <trkpt lat="48.88783" lon="2.2991">
        <ele>89</ele>
        <time>2013-02-18T19:56:43.000Z</time>
      </trkpt>
      <trkpt lat="48.8878" lon="2.29905">
        <ele>89.3</ele>
        <time>2013-02-18T19:56:44.000Z</time>
      </trkpt>
      <trkpt lat="48.88777" lon="2.29899">
        <ele>89.3</ele>
        <time>2013-02-18T19:56:45.000Z</time>
      </trkpt>
      <trkpt lat="48.88774" lon="2.29893">
        <ele>89.9</ele>
        <time>2013-02-18T19:56:46.000Z</time>
      </trkpt>
      <trkpt lat="48.88771" lon="2.29888">
        <ele>88.8</ele>
        <time>2013-02-18T19:56:47.000Z</time>
      </trkpt>
      <trkpt lat="48.88768" lon="2.29882">
        <ele>89.2</ele>
        <time>2013-02-18T19:56:48.000Z</time>
      </trkpt>
      <trkpt lat="48.88764" lon="2.29873">
        <ele>88.3</ele>
        <time>2013-02-18T19:56:49.000Z</time>
      </trkpt>
      <trkpt lat="48.88761" lon="2.29866">
        <ele>88.2</ele>
        <time>2013-02-18T19:56:50.000Z</time>
      </trkpt>
      <trkpt lat="48.88757" lon="2.2986">
        <ele>88.3</ele>
        <time>2013-02-18T19:56:51.000Z</time>
      </trkpt>
      <trkpt lat="48.88754" lon="2.29854">
        <ele>88</ele>
        <time>2013-02-18T19:56:52.000Z</time>
      </trkpt>
      <trkpt lat="48.88751" lon="2.29848">
        <ele>88</ele>
        <time>2013-02-18T19:56:53.000Z</time>
      </trkpt>
      <trkpt lat="48.88749" lon="2.29843">
        <ele>87.7</ele>
        <time>2013-02-18T19:56:54.000Z</time>
      </trkpt>
      <trkpt lat="48.88747" lon="2.29837">
        <ele>86.9</ele>
        <time>2013-02-18T19:56:55.000Z</time>
      </trkpt>
      <trkpt lat="48.88745" lon="2.29831">
        <ele>87.9</ele>
        <time>2013-02-18T19:56:56.000Z</time>
      </trkpt>
      <trkpt lat="48.88742" lon="2.29825">
        <ele>88.2</ele>
        <time>2013-02-18T19:56:57.000Z</time>
      </trkpt>
      <trkpt lat="48.88739" lon="2.29821">
        <ele>88.1</ele>
        <time>2013-02-18T19:56:58.000Z</time>
      </trkpt>
      <trkpt lat="48.88737" lon="2.29815">
        <ele>88.2</ele>
        <time>2013-02-18T19:56:59.000Z</time>
      </trkpt>
      <trkpt lat="48.88734" lon="2.29809">
        <ele>88.7</ele>
        <time>2013-02-18T19:57:00.000Z</time>
      </trkpt>
      <trkpt lat="48.88732" lon="2.29803">
        <ele>89.3</ele>
        <time>2013-02-18T19:57:01.000Z</time>
      </trkpt>
      <trkpt lat="48.88731" lon="2.29797">
        <ele>89.5</ele>
        <time>2013-02-18T19:57:02.000Z</time>
      </trkpt>
      <trkpt lat="48.8873" lon="2.29791">
        <ele>88.9</ele>
        <time>2013-02-18T19:57:03.000Z</time>
      </trkpt>
      <trkpt lat="48.88729" lon="2.29785">
        <ele>89.1</ele>
        <time>2013-02-18T19:57:04.000Z</time>
      </trkpt>
      <trkpt lat="48.88728" lon="2.29778">
        <ele>90.5</ele>
        <time>2013-02-18T19:57:05.000Z</time>
      </trkpt>
      <trkpt lat="48.88726" lon="2.29772">
        <ele>89.6</ele>
        <time>2013-02-18T19:57:06.000Z</time>
      </trkpt>
      <trkpt lat="48.88725" lon="2.29766">
        <ele>90.2</ele>
        <time>2013-02-18T19:57:07.000Z</time>
      </trkpt>
      <trkpt lat="48.88724" lon="2.2976">
        <ele>90.1</ele>
        <time>2013-02-18T19:57:08.000Z</time>
      </trkpt>
      <trkpt lat="48.88721" lon="2.29755">
        <ele>88</ele>
        <time>2013-02-18T19:57:09.000Z</time>
      </trkpt>
      <trkpt lat="48.88719" lon="2.29749">
        <ele>88.7</ele>
        <time>2013-02-18T19:57:10.000Z</time>
      </trkpt>
      <trkpt lat="48.88716" lon="2.29744">
        <ele>89.5</ele>
        <time>2013-02-18T19:57:11.000Z</time>
      </trkpt>
      <trkpt lat="48.88713" lon="2.2974">
        <ele>89.8</ele>
        <time>2013-02-18T19:57:12.000Z</time>
      </trkpt>
      <trkpt lat="48.88709" lon="2.29735">
        <ele>89.7</ele>
        <time>2013-02-18T19:57:13.000Z</time>
      </trkpt>
      <trkpt lat="48.88706" lon="2.29731">
        <ele>89.3</ele>
        <time>2013-02-18T19:57:14.000Z</time>
      </trkpt>
      <trkpt lat="48.88702" lon="2.29727">
        <ele>88.9</ele>
        <time>2013-02-18T19:57:15.000Z</time>
      </trkpt>
      <trkpt lat="48.88698" lon="2.2972">
        <ele>88.9</ele>
        <time>2013-02-18T19:57:16.000Z</time>
      </trkpt>
      <trkpt lat="48.88696" lon="2.29713">
        <ele>89.3</ele>
        <time>2013-02-18T19:57:17.000Z</time>
      </trkpt>
      <trkpt lat="48.88694" lon="2.29708">
        <ele>89</ele>
        <time>2013-02-18T19:57:18.000Z</time>
      </trkpt>
      <trkpt lat="48.88693" lon="2.29702">
        <ele>88.7</ele>
        <time>2013-02-18T19:57:19.000Z</time>
      </trkpt>
      <trkpt lat="48.88691" lon="2.29695">
        <ele>88.9</ele>
        <time>2013-02-18T19:57:20.000Z</time>
      </trkpt>
      <trkpt lat="48.88689" lon="2.29689">
        <ele>88.6</ele>
        <time>2013-02-18T19:57:21.000Z</time>
      </trkpt>
      <trkpt lat="48.88687" lon="2.29684">
        <ele>88.4</ele>
        <time>2013-02-18T19:57:22.000Z</time>
      </trkpt>
      <trkpt lat="48.88686" lon="2.29678">
        <ele>88.1</ele>
        <time>2013-02-18T19:57:23.000Z</time>
      </trkpt>
      <trkpt lat="48.88686" lon="2.29672">
        <ele>88.6</ele>
        <time>2013-02-18T19:57:24.000Z</time>
      </trkpt>
      <trkpt lat="48.88684" lon="2.29666">
        <ele>88.4</ele>
        <time>2013-02-18T19:57:25.000Z</time>
      </trkpt>
      <trkpt lat="48.88679" lon="2.29658">
        <ele>89.3</ele>
        <time>2013-02-18T19:57:26.000Z</time>
      </trkpt>
      <trkpt lat="48.88676" lon="2.29651">
        <ele>89.7</ele>
        <time>2013-02-18T19:57:27.000Z</time>
      </trkpt>
      <trkpt lat="48.88674" lon="2.29645">
        <ele>89.6</ele>
        <time>2013-02-18T19:57:28.000Z</time>
      </trkpt>
      <trkpt lat="48.88672" lon="2.29639">
        <ele>89.9</ele>
        <time>2013-02-18T19:57:29.000Z</time>
      </trkpt>
      <trkpt lat="48.88669" lon="2.29633">
        <ele>89.7</ele>
        <time>2013-02-18T19:57:30.000Z</time>
      </trkpt>
      <trkpt lat="48.88666" lon="2.29628">
        <ele>89.6</ele>
        <time>2013-02-18T19:57:31.000Z</time>
      </trkpt>
      <trkpt lat="48.88663" lon="2.29622">
        <ele>88.9</ele>
        <time>2013-02-18T19:57:32.000Z</time>
      </trkpt>
      <trkpt lat="48.88662" lon="2.29617">
        <ele>88.9</ele>
        <time>2013-02-18T19:57:33.000Z</time>
      </trkpt>
      <trkpt lat="48.88659" lon="2.29611">
        <ele>89</ele>
        <time>2013-02-18T19:57:34.000Z</time>
      </trkpt>
      <trkpt lat="48.88658" lon="2.29606">
        <ele>89.1</ele>
        <time>2013-02-18T19:57:35.000Z</time>
      </trkpt>
      <trkpt lat="48.88656" lon="2.29602">
        <ele>89</ele>
        <time>2013-02-18T19:57:36.000Z</time>
      </trkpt>
      <trkpt lat="48.88654" lon="2.29597">
        <ele>89.2</ele>
        <time>2013-02-18T19:57:37.000Z</time>
      </trkpt>
      <trkpt lat="48.88653" lon="2.29592">
        <ele>89.3</ele>
        <time>2013-02-18T19:57:38.000Z</time>
      </trkpt>
      <trkpt lat="48.88653" lon="2.29587">
        <ele>90</ele>
        <time>2013-02-18T19:57:39.000Z</time>
      </trkpt>
      <trkpt lat="48.88652" lon="2.29582">
        <ele>89.8</ele>
        <time>2013-02-18T19:57:40.000Z</time>
      </trkpt>
      <trkpt lat="48.88653" lon="2.29578">
        <ele>88.6</ele>
        <time>2013-02-18T19:57:41.000Z</time>
      </trkpt>
      <trkpt lat="48.88655" lon="2.29574">
        <ele>86.7</ele>
        <time>2013-02-18T19:57:42.000Z</time>
      </trkpt>
      <trkpt lat="48.88657" lon="2.29571">
        <ele>87</ele>
        <time>2013-02-18T19:57:43.000Z</time>
      </trkpt>
      <trkpt lat="48.8866" lon="2.29568">
        <ele>87.6</ele>
        <time>2013-02-18T19:57:44.000Z</time>
      </trkpt>
      <trkpt lat="48.88663" lon="2.29564">
        <ele>87.3</ele>
        <time>2013-02-18T19:57:45.000Z</time>
      </trkpt>
      <trkpt lat="48.88664" lon="2.29561">
        <ele>86.8</ele>
        <time>2013-02-18T19:57:46.000Z</time>
      </trkpt>
      <trkpt lat="48.88667" lon="2.29557">
        <ele>86.7</ele>
        <time>2013-02-18T19:57:47.000Z</time>
      </trkpt>
      <trkpt lat="48.88671" lon="2.29554">
        <ele>86.3</ele>
        <time>2013-02-18T19:57:48.000Z</time>
      </trkpt>
      <trkpt lat="48.88674" lon="2.29551">
        <ele>85.1</ele>
        <time>2013-02-18T19:57:49.000Z</time>
      </trkpt>
      <trkpt lat="48.88679" lon="2.29548">
        <ele>84.9</ele>
        <time>2013-02-18T19:57:50.000Z</time>
      </trkpt>
      <trkpt lat="48.88683" lon="2.29544">
        <ele>84.5</ele>
        <time>2013-02-18T19:57:51.000Z</time>
      </trkpt>
      <trkpt lat="48.88687" lon="2.2954">
        <ele>84.6</ele>
        <time>2013-02-18T19:57:52.000Z</time>
      </trkpt>
      <trkpt lat="48.88691" lon="2.29536">
        <ele>84.3</ele>
        <time>2013-02-18T19:57:53.000Z</time>
      </trkpt>
      <trkpt lat="48.88696" lon="2.29532">
        <ele>83.3</ele>
        <time>2013-02-18T19:57:54.000Z</time>
      </trkpt>
      <trkpt lat="48.88702" lon="2.29524">
        <ele>84.5</ele>
        <time>2013-02-18T19:57:55.000Z</time>
      </trkpt>
      <trkpt lat="48.88707" lon="2.29521">
        <ele>84.4</ele>
        <time>2013-02-18T19:57:56.000Z</time>
      </trkpt>
      <trkpt lat="48.88709" lon="2.29519">
        <ele>82.1</ele>
        <time>2013-02-18T19:57:57.000Z</time>
      </trkpt>
      <trkpt lat="48.88714" lon="2.29514">
        <ele>82.4</ele>
        <time>2013-02-18T19:57:58.000Z</time>
      </trkpt>
      <trkpt lat="48.88718" lon="2.29509">
        <ele>81.9</ele>
        <time>2013-02-18T19:57:59.000Z</time>
      </trkpt>
      <trkpt lat="48.88722" lon="2.29505">
        <ele>81.6</ele>
        <time>2013-02-18T19:58:00.000Z</time>
      </trkpt>
      <trkpt lat="48.88725" lon="2.29501">
        <ele>81.2</ele>
        <time>2013-02-18T19:58:01.000Z</time>
      </trkpt>
      <trkpt lat="48.8873" lon="2.29498">
        <ele>81.2</ele>
        <time>2013-02-18T19:58:02.000Z</time>
      </trkpt>
      <trkpt lat="48.88734" lon="2.29493">
        <ele>81.9</ele>
        <time>2013-02-18T19:58:03.000Z</time>
      </trkpt>
      <trkpt lat="48.88737" lon="2.29491">
        <ele>80.3</ele>
        <time>2013-02-18T19:58:04.000Z</time>
      </trkpt>
      <trkpt lat="48.88742" lon="2.29488">
        <ele>81.5</ele>
        <time>2013-02-18T19:58:05.000Z</time>
      </trkpt>
      <trkpt lat="48.88746" lon="2.29485">
        <ele>80.2</ele>
        <time>2013-02-18T19:58:06.000Z</time>
      </trkpt>
      <trkpt lat="48.8875" lon="2.29482">
        <ele>80.8</ele>
        <time>2013-02-18T19:58:07.000Z</time>
      </trkpt>
      <trkpt lat="48.88753" lon="2.2948">
        <ele>81.5</ele>
        <time>2013-02-18T19:58:08.000Z</time>
      </trkpt>
      <trkpt lat="48.88757" lon="2.29477">
        <ele>81.4</ele>
        <time>2013-02-18T19:58:09.000Z</time>
      </trkpt>
      <trkpt lat="48.88761" lon="2.29474">
        <ele>80.7</ele>
        <time>2013-02-18T19:58:10.000Z</time>
      </trkpt>
      <trkpt lat="48.88764" lon="2.29469">
        <ele>81.2</ele>
        <time>2013-02-18T19:58:11.000Z</time>
      </trkpt>
      <trkpt lat="48.88768" lon="2.29465">
        <ele>81.2</ele>
        <time>2013-02-18T19:58:12.000Z</time>
      </trkpt>
      <trkpt lat="48.88772" lon="2.29461">
        <ele>80.6</ele>
        <time>2013-02-18T19:58:13.000Z</time>
      </trkpt>
      <trkpt lat="48.88775" lon="2.29457">
        <ele>79.7</ele>
        <time>2013-02-18T19:58:14.000Z</time>
      </trkpt>
      <trkpt lat="48.8878" lon="2.29453">
        <ele>78.6</ele>
        <time>2013-02-18T19:58:15.000Z</time>
      </trkpt>
      <trkpt lat="48.88784" lon="2.2945">
        <ele>78.2</ele>
        <time>2013-02-18T19:58:16.000Z</time>
      </trkpt>
      <trkpt lat="48.88788" lon="2.29446">
        <ele>78.1</ele>
        <time>2013-02-18T19:58:17.000Z</time>
      </trkpt>
      <trkpt lat="48.88791" lon="2.29442">
        <ele>78.1</ele>
        <time>2013-02-18T19:58:18.000Z</time>
      </trkpt>
      <trkpt lat="48.88795" lon="2.29438">
        <ele>78.1</ele>
        <time>2013-02-18T19:58:19.000Z</time>
      </trkpt>
      <trkpt lat="48.88798" lon="2.29434">
        <ele>78.1</ele>
        <time>2013-02-18T19:58:20.000Z</time>
      </trkpt>
      <trkpt lat="48.88803" lon="2.29428">
        <ele>81.6</ele>
        <time>2013-02-18T19:58:21.000Z</time>
      </trkpt>
      <trkpt lat="48.88807" lon="2.29425">
        <ele>81.8</ele>
        <time>2013-02-18T19:58:22.000Z</time>
      </trkpt>
      <trkpt lat="48.8881" lon="2.2942">
        <ele>82.1</ele>
        <time>2013-02-18T19:58:23.000Z</time>
      </trkpt>
      <trkpt lat="48.88814" lon="2.29416">
        <ele>82.1</ele>
        <time>2013-02-18T19:58:24.000Z</time>
      </trkpt>
      <trkpt lat="48.88817" lon="2.29412">
        <ele>82.3</ele>
        <time>2013-02-18T19:58:25.000Z</time>
      </trkpt>
      <trkpt lat="48.88821" lon="2.2941">
        <ele>81.7</ele>
        <time>2013-02-18T19:58:26.000Z</time>
      </trkpt>
      <trkpt lat="48.88824" lon="2.29407">
        <ele>82.1</ele>
        <time>2013-02-18T19:58:27.000Z</time>
      </trkpt>
      <trkpt lat="48.88827" lon="2.29402">
        <ele>82</ele>
        <time>2013-02-18T19:58:28.000Z</time>
      </trkpt>
      <trkpt lat="48.8883" lon="2.29399">
        <ele>84.9</ele>
        <time>2013-02-18T19:58:29.000Z</time>
      </trkpt>
      <trkpt lat="48.88834" lon="2.29395">
        <ele>84</ele>
        <time>2013-02-18T19:58:30.000Z</time>
      </trkpt>
      <trkpt lat="48.88837" lon="2.29394">
        <ele>82.6</ele>
        <time>2013-02-18T19:58:31.000Z</time>
      </trkpt>
      <trkpt lat="48.88839" lon="2.29391">
        <ele>82.2</ele>
        <time>2013-02-18T19:58:32.000Z</time>
      </trkpt>
      <trkpt lat="48.88843" lon="2.2939">
        <ele>81.4</ele>
        <time>2013-02-18T19:58:33.000Z</time>
      </trkpt>
      <trkpt lat="48.88846" lon="2.29388">
        <ele>82.4</ele>
        <time>2013-02-18T19:58:34.000Z</time>
      </trkpt>
      <trkpt lat="48.8885" lon="2.29385">
        <ele>82.5</ele>
        <time>2013-02-18T19:58:35.000Z</time>
      </trkpt>
      <trkpt lat="48.88854" lon="2.29382">
        <ele>82.7</ele>
        <time>2013-02-18T19:58:36.000Z</time>
      </trkpt>
      <trkpt lat="48.88857" lon="2.29379">
        <ele>81.7</ele>
        <time>2013-02-18T19:58:37.000Z</time>
      </trkpt>
      <trkpt lat="48.8886" lon="2.29376">
        <ele>82</ele>
        <time>2013-02-18T19:58:38.000Z</time>
      </trkpt>
      <trkpt lat="48.88863" lon="2.29372">
        <ele>82.5</ele>
        <time>2013-02-18T19:58:39.000Z</time>
      </trkpt>
      <trkpt lat="48.88867" lon="2.29369">
        <ele>83.4</ele>
        <time>2013-02-18T19:58:40.000Z</time>
      </trkpt>
      <trkpt lat="48.8887" lon="2.29366">
        <ele>82.2</ele>
        <time>2013-02-18T19:58:41.000Z</time>
      </trkpt>
      <trkpt lat="48.88874" lon="2.29364">
        <ele>81.8</ele>
        <time>2013-02-18T19:58:42.000Z</time>
      </trkpt>
      <trkpt lat="48.88877" lon="2.29361">
        <ele>81.4</ele>
        <time>2013-02-18T19:58:43.000Z</time>
      </trkpt>
      <trkpt lat="48.88881" lon="2.29359">
        <ele>80.5</ele>
        <time>2013-02-18T19:58:44.000Z</time>
      </trkpt>
      <trkpt lat="48.88884" lon="2.29356">
        <ele>79.6</ele>
        <time>2013-02-18T19:58:45.000Z</time>
      </trkpt>
      <trkpt lat="48.88888" lon="2.29353">
        <ele>79.6</ele>
        <time>2013-02-18T19:58:46.000Z</time>
      </trkpt>
      <trkpt lat="48.88892" lon="2.2935">
        <ele>79.6</ele>
        <time>2013-02-18T19:58:47.000Z</time>
      </trkpt>
      <trkpt lat="48.88895" lon="2.29346">
        <ele>77.8</ele>
        <time>2013-02-18T19:58:48.000Z</time>
      </trkpt>
      <trkpt lat="48.88898" lon="2.29342">
        <ele>77.2</ele>
        <time>2013-02-18T19:58:49.000Z</time>
      </trkpt>
      <trkpt lat="48.88902" lon="2.29338">
        <ele>77.1</ele>
        <time>2013-02-18T19:58:50.000Z</time>
      </trkpt>
      <trkpt lat="48.88907" lon="2.29332">
        <ele>76.7</ele>
        <time>2013-02-18T19:58:51.000Z</time>
      </trkpt>
      <trkpt lat="48.88912" lon="2.29328">
        <ele>76.6</ele>
        <time>2013-02-18T19:58:52.000Z</time>
      </trkpt>
      <trkpt lat="48.88916" lon="2.29324">
        <ele>76.6</ele>
        <time>2013-02-18T19:58:53.000Z</time>
      </trkpt>
      <trkpt lat="48.88921" lon="2.29319">
        <ele>76.6</ele>
        <time>2013-02-18T19:58:54.000Z</time>
      </trkpt>
      <trkpt lat="48.88925" lon="2.29315">
        <ele>76.7</ele>
        <time>2013-02-18T19:58:55.000Z</time>
      </trkpt>
      <trkpt lat="48.8893" lon="2.29309">
        <ele>76.5</ele>
        <time>2013-02-18T19:58:56.000Z</time>
      </trkpt>
      <trkpt lat="48.88935" lon="2.29305">
        <ele>76.6</ele>
        <time>2013-02-18T19:58:57.000Z</time>
      </trkpt>
      <trkpt lat="48.88942" lon="2.29298">
        <ele>79.4</ele>
        <time>2013-02-18T19:58:58.000Z</time>
      </trkpt>
      <trkpt lat="48.88947" lon="2.29293">
        <ele>79.5</ele>
        <time>2013-02-18T19:58:59.000Z</time>
      </trkpt>
      <trkpt lat="48.8895" lon="2.29289">
        <ele>80.3</ele>
        <time>2013-02-18T19:59:00.000Z</time>
      </trkpt>
      <trkpt lat="48.88955" lon="2.29285">
        <ele>80.3</ele>
        <time>2013-02-18T19:59:01.000Z</time>
      </trkpt>
      <trkpt lat="48.8896" lon="2.2928">
        <ele>80.5</ele>
        <time>2013-02-18T19:59:02.000Z</time>
      </trkpt>
      <trkpt lat="48.88964" lon="2.29277">
        <ele>79.8</ele>
        <time>2013-02-18T19:59:03.000Z</time>
      </trkpt>
      <trkpt lat="48.88967" lon="2.29274">
        <ele>80.6</ele>
        <time>2013-02-18T19:59:04.000Z</time>
      </trkpt>
      <trkpt lat="48.88971" lon="2.29271">
        <ele>80.8</ele>
        <time>2013-02-18T19:59:05.000Z</time>
      </trkpt>
      <trkpt lat="48.88975" lon="2.29268">
        <ele>81.4</ele>
        <time>2013-02-18T19:59:06.000Z</time>
      </trkpt>
      <trkpt lat="48.88978" lon="2.29266">
        <ele>81</ele>
        <time>2013-02-18T19:59:07.000Z</time>
      </trkpt>
      <trkpt lat="48.88981" lon="2.29263">
        <ele>81.3</ele>
        <time>2013-02-18T19:59:08.000Z</time>
      </trkpt>
      <trkpt lat="48.88983" lon="2.2926">
        <ele>81.2</ele>
        <time>2013-02-18T19:59:09.000Z</time>
      </trkpt>
      <trkpt lat="48.88987" lon="2.29257">
        <ele>82.4</ele>
        <time>2013-02-18T19:59:10.000Z</time>
      </trkpt>
      <trkpt lat="48.8899" lon="2.2925">
        <ele>83.5</ele>
        <time>2013-02-18T19:59:11.000Z</time>
      </trkpt>
      <trkpt lat="48.88992" lon="2.29244">
        <ele>84.5</ele>
        <time>2013-02-18T19:59:12.000Z</time>
      </trkpt>
      <trkpt lat="48.88995" lon="2.29239">
        <ele>85.4</ele>
        <time>2013-02-18T19:59:13.000Z</time>
      </trkpt>
      <trkpt lat="48.88998" lon="2.29235">
        <ele>84.8</ele>
        <time>2013-02-18T19:59:14.000Z</time>
      </trkpt>
      <trkpt lat="48.89" lon="2.29232">
        <ele>84.5</ele>
        <time>2013-02-18T19:59:15.000Z</time>
      </trkpt>
      <trkpt lat="48.89003" lon="2.29229">
        <ele>83.5</ele>
        <time>2013-02-18T19:59:16.000Z</time>
      </trkpt>
      <trkpt lat="48.89005" lon="2.29226">
        <ele>82.8</ele>
        <time>2013-02-18T19:59:17.000Z</time>
      </trkpt>
      <trkpt lat="48.89008" lon="2.29224">
        <ele>80.4</ele>
        <time>2013-02-18T19:59:18.000Z</time>
      </trkpt>
      <trkpt lat="48.89011" lon="2.29223">
        <ele>80.3</ele>
        <time>2013-02-18T19:59:19.000Z</time>
      </trkpt>
      <trkpt lat="48.89014" lon="2.29221">
        <ele>80.4</ele>
        <time>2013-02-18T19:59:20.000Z</time>
      </trkpt>
      <trkpt lat="48.89017" lon="2.29218">
        <ele>77.2</ele>
        <time>2013-02-18T19:59:22.000Z</time>
      </trkpt>
      <trkpt lat="48.89019" lon="2.29213">
        <ele>75.1</ele>
        <time>2013-02-18T19:59:23.935Z</time>
      </trkpt>
      <trkpt lat="48.89022" lon="2.29208">
        <ele>75.1</ele>
        <time>2013-02-18T19:59:26.000Z</time>
      </trkpt>
      <trkpt lat="48.89024" lon="2.29205">
        <ele>74.7</ele>
        <time>2013-02-18T19:59:27.000Z</time>
      </trkpt>
      <trkpt lat="48.89028" lon="2.292">
        <ele>75.8</ele>
        <time>2013-02-18T19:59:28.000Z</time>
      </trkpt>
      <trkpt lat="48.89032" lon="2.29196">
        <ele>76.4</ele>
        <time>2013-02-18T19:59:29.000Z</time>
      </trkpt>
      <trkpt lat="48.89036" lon="2.29193">
        <ele>75.7</ele>
        <time>2013-02-18T19:59:30.000Z</time>
      </trkpt>
      <trkpt lat="48.8904" lon="2.29191">
        <ele>72.7</ele>
        <time>2013-02-18T19:59:31.000Z</time>
      </trkpt>
      <trkpt lat="48.89045" lon="2.29191">
        <ele>71.5</ele>
        <time>2013-02-18T19:59:32.000Z</time>
      </trkpt>
      <trkpt lat="48.89049" lon="2.29193">
        <ele>70.8</ele>
        <time>2013-02-18T19:59:33.000Z</time>
      </trkpt>
      <trkpt lat="48.89054" lon="2.29195">
        <ele>70.4</ele>
        <time>2013-02-18T19:59:34.000Z</time>
      </trkpt>
      <trkpt lat="48.89058" lon="2.29197">
        <ele>70.1</ele>
        <time>2013-02-18T19:59:35.000Z</time>
      </trkpt>
      <trkpt lat="48.89062" lon="2.29199">
        <ele>67.8</ele>
        <time>2013-02-18T19:59:36.000Z</time>
      </trkpt>
      <trkpt lat="48.89065" lon="2.29201">
        <ele>65</ele>
        <time>2013-02-18T19:59:37.000Z</time>
      </trkpt>
      <trkpt lat="48.89067" lon="2.29204">
        <ele>63.5</ele>
        <time>2013-02-18T19:59:38.000Z</time>
      </trkpt>
      <trkpt lat="48.89069" lon="2.29207">
        <ele>61.8</ele>
        <time>2013-02-18T19:59:39.000Z</time>
      </trkpt>
      <trkpt lat="48.89072" lon="2.2921">
        <ele>61.7</ele>
        <time>2013-02-18T19:59:40.000Z</time>
      </trkpt>
      <trkpt lat="48.89075" lon="2.29212">
        <ele>60.7</ele>
        <time>2013-02-18T19:59:41.000Z</time>
      </trkpt>
      <trkpt lat="48.89078" lon="2.29215">
        <ele>60.8</ele>
        <time>2013-02-18T19:59:42.000Z</time>
      </trkpt>
      <trkpt lat="48.89081" lon="2.29218">
        <ele>60.4</ele>
        <time>2013-02-18T19:59:43.000Z</time>
      </trkpt>
      <trkpt lat="48.89084" lon="2.2922">
        <ele>60.8</ele>
        <time>2013-02-18T19:59:44.000Z</time>
      </trkpt>
      <trkpt lat="48.89087" lon="2.29223">
        <ele>61.3</ele>
        <time>2013-02-18T19:59:45.000Z</time>
      </trkpt>
      <trkpt lat="48.89091" lon="2.29225">
        <ele>61.9</ele>
        <time>2013-02-18T19:59:46.000Z</time>
      </trkpt>
      <trkpt lat="48.89096" lon="2.29228">
        <ele>62</ele>
        <time>2013-02-18T19:59:47.000Z</time>
      </trkpt>
      <trkpt lat="48.891" lon="2.29231">
        <ele>62.1</ele>
        <time>2013-02-18T19:59:48.000Z</time>
      </trkpt>
      <trkpt lat="48.89104" lon="2.29235">
        <ele>62.6</ele>
        <time>2013-02-18T19:59:49.000Z</time>
      </trkpt>
      <trkpt lat="48.89108" lon="2.29238">
        <ele>62.1</ele>
        <time>2013-02-18T19:59:50.000Z</time>
      </trkpt>
      <trkpt lat="48.89112" lon="2.2924">
        <ele>61.3</ele>
        <time>2013-02-18T19:59:51.000Z</time>
      </trkpt>
      <trkpt lat="48.89116" lon="2.29243">
        <ele>61.7</ele>
        <time>2013-02-18T19:59:52.000Z</time>
      </trkpt>
      <trkpt lat="48.8912" lon="2.29246">
        <ele>62.4</ele>
        <time>2013-02-18T19:59:53.000Z</time>
      </trkpt>
      <trkpt lat="48.89125" lon="2.29248">
        <ele>62.3</ele>
        <time>2013-02-18T19:59:54.000Z</time>
      </trkpt>
      <trkpt lat="48.89129" lon="2.29251">
        <ele>62.2</ele>
        <time>2013-02-18T19:59:55.000Z</time>
      </trkpt>
      <trkpt lat="48.89132" lon="2.29253">
        <ele>60</ele>
        <time>2013-02-18T19:59:56.000Z</time>
      </trkpt>
      <trkpt lat="48.89136" lon="2.29255">
        <ele>61.1</ele>
        <time>2013-02-18T19:59:57.000Z</time>
      </trkpt>
      <trkpt lat="48.8914" lon="2.29257">
        <ele>61</ele>
        <time>2013-02-18T19:59:58.000Z</time>
      </trkpt>
      <trkpt lat="48.89143" lon="2.2926">
        <ele>61</ele>
        <time>2013-02-18T19:59:59.000Z</time>
      </trkpt>
      <trkpt lat="48.89147" lon="2.29262">
        <ele>59.9</ele>
        <time>2013-02-18T20:00:00.000Z</time>
      </trkpt>
      <trkpt lat="48.89151" lon="2.29264">
        <ele>60.5</ele>
        <time>2013-02-18T20:00:01.000Z</time>
      </trkpt>
      <trkpt lat="48.89154" lon="2.29266">
        <ele>60.6</ele>
        <time>2013-02-18T20:00:02.000Z</time>
      </trkpt>
      <trkpt lat="48.89158" lon="2.29269">
        <ele>61.3</ele>
        <time>2013-02-18T20:00:03.000Z</time>
      </trkpt>
      <trkpt lat="48.89161" lon="2.29272">
        <ele>61.8</ele>
        <time>2013-02-18T20:00:04.000Z</time>
      </trkpt>
      <trkpt lat="48.89164" lon="2.29272">
        <ele>62.2</ele>
        <time>2013-02-18T20:00:05.000Z</time>
      </trkpt>
      <trkpt lat="48.89168" lon="2.29269">
        <ele>62.8</ele>
        <time>2013-02-18T20:00:06.000Z</time>
      </trkpt>
      <trkpt lat="48.89171" lon="2.29266">
        <ele>62.9</ele>
        <time>2013-02-18T20:00:07.000Z</time>
      </trkpt>
      <trkpt lat="48.89174" lon="2.29264">
        <ele>62.6</ele>
        <time>2013-02-18T20:00:08.000Z</time>
      </trkpt>
      <trkpt lat="48.89176" lon="2.29261">
        <ele>62.3</ele>
        <time>2013-02-18T20:00:09.000Z</time>
      </trkpt>
      <trkpt lat="48.89178" lon="2.29255">
        <ele>68.9</ele>
        <time>2013-02-18T20:00:11.000Z</time>
      </trkpt>
      <trkpt lat="48.8918" lon="2.29256">
        <ele>66.4</ele>
        <time>2013-02-18T20:00:12.000Z</time>
      </trkpt>
      <trkpt lat="48.89183" lon="2.29259">
        <ele>65.3</ele>
        <time>2013-02-18T20:00:14.000Z</time>
      </trkpt>
      <trkpt lat="48.89185" lon="2.2926">
        <ele>65.6</ele>
        <time>2013-02-18T20:00:15.000Z</time>
      </trkpt>
      <trkpt lat="48.89189" lon="2.29263">
        <ele>67.2</ele>
        <time>2013-02-18T20:00:19.000Z</time>
      </trkpt>
      <trkpt lat="48.89191" lon="2.29262">
        <ele>66.9</ele>
        <time>2013-02-18T20:00:20.000Z</time>
      </trkpt>
      <trkpt lat="48.89195" lon="2.29261">
        <ele>67.7</ele>
        <time>2013-02-18T20:00:22.000Z</time>
      </trkpt>
      <trkpt lat="48.89199" lon="2.29262">
        <ele>67.9</ele>
        <time>2013-02-18T20:00:24.071Z</time>
      </trkpt>
      <trkpt lat="48.89203" lon="2.29259">
        <ele>69.2</ele>
        <time>2013-02-18T20:00:26.000Z</time>
      </trkpt>
      <trkpt lat="48.89205" lon="2.29256">
        <ele>69</ele>
        <time>2013-02-18T20:00:27.000Z</time>
      </trkpt>
      <trkpt lat="48.89206" lon="2.29254">
        <ele>68.6</ele>
        <time>2013-02-18T20:00:28.000Z</time>
      </trkpt>
      <trkpt lat="48.89208" lon="2.29252">
        <ele>68.5</ele>
        <time>2013-02-18T20:00:29.000Z</time>
      </trkpt>
      <trkpt lat="48.8921" lon="2.29249">
        <ele>68.4</ele>
        <time>2013-02-18T20:00:30.000Z</time>
      </trkpt>
      <trkpt lat="48.89212" lon="2.29247">
        <ele>67.7</ele>
        <time>2013-02-18T20:00:31.000Z</time>
      </trkpt>
      <trkpt lat="48.89213" lon="2.29244">
        <ele>68.2</ele>
        <time>2013-02-18T20:00:32.000Z</time>
      </trkpt>
      <trkpt lat="48.89215" lon="2.29241">
        <ele>67.8</ele>
        <time>2013-02-18T20:00:33.000Z</time>
      </trkpt>
      <trkpt lat="48.89218" lon="2.29237">
        <ele>68.6</ele>
        <time>2013-02-18T20:00:35.000Z</time>
      </trkpt>
      <trkpt lat="48.8922" lon="2.29235">
        <ele>67.9</ele>
        <time>2013-02-18T20:00:36.000Z</time>
      </trkpt>
      <trkpt lat="48.89223" lon="2.29234">
        <ele>64.3</ele>
        <time>2013-02-18T20:00:38.000Z</time>
      </trkpt>
      <trkpt lat="48.89225" lon="2.29232">
        <ele>63.1</ele>
        <time>2013-02-18T20:00:39.000Z</time>
      </trkpt>
      <trkpt lat="48.89226" lon="2.2923">
        <ele>62</ele>
        <time>2013-02-18T20:00:40.000Z</time>
      </trkpt>
      <trkpt lat="48.89228" lon="2.29227">
        <ele>61.2</ele>
        <time>2013-02-18T20:00:41.000Z</time>
      </trkpt>
      <trkpt lat="48.89231" lon="2.29223">
        <ele>61.1</ele>
        <time>2013-02-18T20:00:42.000Z</time>
      </trkpt>
      <trkpt lat="48.89234" lon="2.29218">
        <ele>62.6</ele>
        <time>2013-02-18T20:00:43.000Z</time>
      </trkpt>
      <trkpt lat="48.89237" lon="2.29213">
        <ele>62.1</ele>
        <time>2013-02-18T20:00:44.000Z</time>
      </trkpt>
      <trkpt lat="48.89238" lon="2.29207">
        <ele>60.7</ele>
        <time>2013-02-18T20:00:45.000Z</time>
      </trkpt>
      <trkpt lat="48.89238" lon="2.292">
        <ele>60.5</ele>
        <time>2013-02-18T20:00:46.000Z</time>
      </trkpt>
      <trkpt lat="48.89238" lon="2.29194">
        <ele>60.4</ele>
        <time>2013-02-18T20:00:47.000Z</time>
      </trkpt>
      <trkpt lat="48.89238" lon="2.2919">
        <ele>58.4</ele>
        <time>2013-02-18T20:00:48.000Z</time>
      </trkpt>
      <trkpt lat="48.8924" lon="2.29186">
        <ele>58.4</ele>
        <time>2013-02-18T20:00:49.000Z</time>
      </trkpt>
      <trkpt lat="48.89241" lon="2.29188">
        <ele>55.6</ele>
        <time>2013-02-18T20:00:50.000Z</time>
      </trkpt>
      <trkpt lat="48.89243" lon="2.2919">
        <ele>55.4</ele>
        <time>2013-02-18T20:00:51.000Z</time>
      </trkpt>
      <trkpt lat="48.89245" lon="2.29194">
        <ele>53.7</ele>
        <time>2013-02-18T20:00:52.000Z</time>
      </trkpt>
      <trkpt lat="48.89248" lon="2.29198">
        <ele>53.2</ele>
        <time>2013-02-18T20:00:53.000Z</time>
      </trkpt>
      <trkpt lat="48.89251" lon="2.29203">
        <ele>52.6</ele>
        <time>2013-02-18T20:00:54.000Z</time>
      </trkpt>
      <trkpt lat="48.89255" lon="2.29208">
        <ele>52.7</ele>
        <time>2013-02-18T20:00:55.000Z</time>
      </trkpt>
      <trkpt lat="48.89258" lon="2.29214">
        <ele>51.9</ele>
        <time>2013-02-18T20:00:56.000Z</time>
      </trkpt>
      <trkpt lat="48.89262" lon="2.29221">
        <ele>52.2</ele>
        <time>2013-02-18T20:00:57.000Z</time>
      </trkpt>
      <trkpt lat="48.89266" lon="2.29228">
        <ele>52.4</ele>
        <time>2013-02-18T20:00:58.000Z</time>
      </trkpt>
      <trkpt lat="48.8927" lon="2.29235">
        <ele>52.3</ele>
        <time>2013-02-18T20:00:59.000Z</time>
      </trkpt>
      <trkpt lat="48.89273" lon="2.29242">
        <ele>53.1</ele>
        <time>2013-02-18T20:01:00.000Z</time>
      </trkpt>
      <trkpt lat="48.89277" lon="2.29249">
        <ele>54.9</ele>
        <time>2013-02-18T20:01:01.000Z</time>
      </trkpt>
      <trkpt lat="48.89279" lon="2.29257">
        <ele>54.5</ele>
        <time>2013-02-18T20:01:02.000Z</time>
      </trkpt>
      <trkpt lat="48.89277" lon="2.29277">
        <ele>55.8</ele>
        <time>2013-02-18T20:01:03.000Z</time>
      </trkpt>
      <trkpt lat="48.89286" lon="2.29281">
        <ele>56.9</ele>
        <time>2013-02-18T20:01:04.000Z</time>
      </trkpt>
      <trkpt lat="48.89296" lon="2.29285">
        <ele>58.4</ele>
        <time>2013-02-18T20:01:05.000Z</time>
      </trkpt>
      <trkpt lat="48.89298" lon="2.29293">
        <ele>58.4</ele>
        <time>2013-02-18T20:01:06.000Z</time>
      </trkpt>
      <trkpt lat="48.89301" lon="2.29299">
        <ele>57.8</ele>
        <time>2013-02-18T20:01:07.000Z</time>
      </trkpt>
      <trkpt lat="48.89305" lon="2.29307">
        <ele>58.9</ele>
        <time>2013-02-18T20:01:08.000Z</time>
      </trkpt>
      <trkpt lat="48.89306" lon="2.29316">
        <ele>60.5</ele>
        <time>2013-02-18T20:01:09.000Z</time>
      </trkpt>
      <trkpt lat="48.89311" lon="2.29322">
        <ele>60.4</ele>
        <time>2013-02-18T20:01:10.000Z</time>
      </trkpt>
      <trkpt lat="48.89313" lon="2.29328">
        <ele>59.8</ele>
        <time>2013-02-18T20:01:11.000Z</time>
      </trkpt>
      <trkpt lat="48.89319" lon="2.29333">
        <ele>60.3</ele>
        <time>2013-02-18T20:01:12.000Z</time>
      </trkpt>
      <trkpt lat="48.89322" lon="2.29339">
        <ele>60.7</ele>
        <time>2013-02-18T20:01:13.000Z</time>
      </trkpt>
      <trkpt lat="48.89325" lon="2.29344">
        <ele>61.1</ele>
        <time>2013-02-18T20:01:14.000Z</time>
      </trkpt>
      <trkpt lat="48.89329" lon="2.2935">
        <ele>62.3</ele>
        <time>2013-02-18T20:01:15.000Z</time>
      </trkpt>
      <trkpt lat="48.89331" lon="2.29355">
        <ele>62.4</ele>
        <time>2013-02-18T20:01:16.000Z</time>
      </trkpt>
      <trkpt lat="48.89336" lon="2.29359">
        <ele>63.5</ele>
        <time>2013-02-18T20:01:17.000Z</time>
      </trkpt>
      <trkpt lat="48.89341" lon="2.29366">
        <ele>64.3</ele>
        <time>2013-02-18T20:01:18.000Z</time>
      </trkpt>
      <trkpt lat="48.89348" lon="2.29372">
        <ele>65.4</ele>
        <time>2013-02-18T20:01:19.000Z</time>
      </trkpt>
      <trkpt lat="48.8935" lon="2.29378">
        <ele>64.8</ele>
        <time>2013-02-18T20:01:20.000Z</time>
      </trkpt>
      <trkpt lat="48.89353" lon="2.29383">
        <ele>64.4</ele>
        <time>2013-02-18T20:01:21.000Z</time>
      </trkpt>
      <trkpt lat="48.89354" lon="2.29392">
        <ele>62.8</ele>
        <time>2013-02-18T20:01:22.000Z</time>
      </trkpt>
      <trkpt lat="48.89367" lon="2.29413">
        <ele>64.1</ele>
        <time>2013-02-18T20:01:26.000Z</time>
      </trkpt>
      <trkpt lat="48.8937" lon="2.2942">
        <ele>63.9</ele>
        <time>2013-02-18T20:01:27.000Z</time>
      </trkpt>
      <trkpt lat="48.89371" lon="2.29426">
        <ele>64.5</ele>
        <time>2013-02-18T20:01:28.000Z</time>
      </trkpt>
      <trkpt lat="48.89375" lon="2.2943">
        <ele>64.5</ele>
        <time>2013-02-18T20:01:29.000Z</time>
      </trkpt>
      <trkpt lat="48.89376" lon="2.29436">
        <ele>64.4</ele>
        <time>2013-02-18T20:01:30.000Z</time>
      </trkpt>
      <trkpt lat="48.89379" lon="2.29437">
        <ele>64.8</ele>
        <time>2013-02-18T20:01:31.000Z</time>
      </trkpt>
      <trkpt lat="48.89381" lon="2.29439">
        <ele>64.3</ele>
        <time>2013-02-18T20:01:32.000Z</time>
      </trkpt>
      <trkpt lat="48.89383" lon="2.29443">
        <ele>64.1</ele>
        <time>2013-02-18T20:01:33.000Z</time>
      </trkpt>
      <trkpt lat="48.89385" lon="2.29451">
        <ele>63.3</ele>
        <time>2013-02-18T20:01:34.000Z</time>
      </trkpt>
      <trkpt lat="48.89387" lon="2.29457">
        <ele>63.2</ele>
        <time>2013-02-18T20:01:35.000Z</time>
      </trkpt>
      <trkpt lat="48.89391" lon="2.29463">
        <ele>65.7</ele>
        <time>2013-02-18T20:01:36.000Z</time>
      </trkpt>
      <trkpt lat="48.89393" lon="2.29469">
        <ele>65.6</ele>
        <time>2013-02-18T20:01:37.000Z</time>
      </trkpt>
      <trkpt lat="48.89394" lon="2.29475">
        <ele>65.4</ele>
        <time>2013-02-18T20:01:38.000Z</time>
      </trkpt>
      <trkpt lat="48.89396" lon="2.2948">
        <ele>65.4</ele>
        <time>2013-02-18T20:01:39.000Z</time>
      </trkpt>
      <trkpt lat="48.89397" lon="2.29486">
        <ele>65.3</ele>
        <time>2013-02-18T20:01:40.000Z</time>
      </trkpt>
      <trkpt lat="48.89399" lon="2.29491">
        <ele>65.4</ele>
        <time>2013-02-18T20:01:41.000Z</time>
      </trkpt>
      <trkpt lat="48.894" lon="2.29496">
        <ele>65.5</ele>
        <time>2013-02-18T20:01:42.000Z</time>
      </trkpt>
      <trkpt lat="48.89401" lon="2.29502">
        <ele>65.5</ele>
        <time>2013-02-18T20:01:43.000Z</time>
      </trkpt>
      <trkpt lat="48.89403" lon="2.29511">
        <ele>74.4</ele>
        <time>2013-02-18T20:01:44.000Z</time>
      </trkpt>
      <trkpt lat="48.89404" lon="2.29521">
        <ele>80</ele>
        <time>2013-02-18T20:01:45.000Z</time>
      </trkpt>
      <trkpt lat="48.89405" lon="2.29531">
        <ele>84.5</ele>
        <time>2013-02-18T20:01:46.000Z</time>
      </trkpt>
      <trkpt lat="48.89406" lon="2.29539">
        <ele>84.7</ele>
        <time>2013-02-18T20:01:47.000Z</time>
      </trkpt>
      <trkpt lat="48.89407" lon="2.29546">
        <ele>87.4</ele>
        <time>2013-02-18T20:01:48.000Z</time>
      </trkpt>
      <trkpt lat="48.89409" lon="2.29552">
        <ele>86.4</ele>
        <time>2013-02-18T20:01:49.000Z</time>
      </trkpt>
      <trkpt lat="48.89412" lon="2.29557">
        <ele>85.1</ele>
        <time>2013-02-18T20:01:50.000Z</time>
      </trkpt>
      <trkpt lat="48.89415" lon="2.29561">
        <ele>84.5</ele>
        <time>2013-02-18T20:01:51.000Z</time>
      </trkpt>
      <trkpt lat="48.89418" lon="2.29564">
        <ele>84</ele>
        <time>2013-02-18T20:01:52.000Z</time>
      </trkpt>
      <trkpt lat="48.89421" lon="2.29567">
        <ele>83.6</ele>
        <time>2013-02-18T20:01:53.000Z</time>
      </trkpt>
      <trkpt lat="48.89425" lon="2.29571">
        <ele>83.4</ele>
        <time>2013-02-18T20:01:54.000Z</time>
      </trkpt>
      <trkpt lat="48.89428" lon="2.29574">
        <ele>71.6</ele>
        <time>2013-02-18T20:01:55.000Z</time>
      </trkpt>
      <trkpt lat="48.89432" lon="2.29576">
        <ele>73.4</ele>
        <time>2013-02-18T20:01:56.000Z</time>
      </trkpt>
      <trkpt lat="48.89436" lon="2.29577">
        <ele>76.4</ele>
        <time>2013-02-18T20:01:57.000Z</time>
      </trkpt>
      <trkpt lat="48.89441" lon="2.29576">
        <ele>77.8</ele>
        <time>2013-02-18T20:01:58.000Z</time>
      </trkpt>
      <trkpt lat="48.89446" lon="2.29575">
        <ele>78.5</ele>
        <time>2013-02-18T20:01:59.000Z</time>
      </trkpt>
      <trkpt lat="48.89451" lon="2.29572">
        <ele>77.4</ele>
        <time>2013-02-18T20:02:00.000Z</time>
      </trkpt>
      <trkpt lat="48.89454" lon="2.29568">
        <ele>78.3</ele>
        <time>2013-02-18T20:02:01.000Z</time>
      </trkpt>
      <trkpt lat="48.89458" lon="2.29564">
        <ele>78</ele>
        <time>2013-02-18T20:02:02.000Z</time>
      </trkpt>
      <trkpt lat="48.89462" lon="2.2956">
        <ele>77.4</ele>
        <time>2013-02-18T20:02:03.000Z</time>
      </trkpt>
      <trkpt lat="48.89465" lon="2.29557">
        <ele>76.4</ele>
        <time>2013-02-18T20:02:04.000Z</time>
      </trkpt>
      <trkpt lat="48.89469" lon="2.29554">
        <ele>75.4</ele>
        <time>2013-02-18T20:02:05.000Z</time>
      </trkpt>
      <trkpt lat="48.89473" lon="2.29552">
        <ele>75.7</ele>
        <time>2013-02-18T20:02:06.000Z</time>
      </trkpt>
      <trkpt lat="48.89477" lon="2.29549">
        <ele>74.1</ele>
        <time>2013-02-18T20:02:07.000Z</time>
      </trkpt>
      <trkpt lat="48.8948" lon="2.29546">
        <ele>72.7</ele>
        <time>2013-02-18T20:02:08.000Z</time>
      </trkpt>
      <trkpt lat="48.89483" lon="2.29542">
        <ele>72.8</ele>
        <time>2013-02-18T20:02:09.000Z</time>
      </trkpt>
      <trkpt lat="48.89486" lon="2.29539">
        <ele>72.3</ele>
        <time>2013-02-18T20:02:10.000Z</time>
      </trkpt>
      <trkpt lat="48.89489" lon="2.29535">
        <ele>71.7</ele>
        <time>2013-02-18T20:02:11.000Z</time>
      </trkpt>
      <trkpt lat="48.89493" lon="2.29532">
        <ele>71.3</ele>
        <time>2013-02-18T20:02:12.000Z</time>
      </trkpt>
      <trkpt lat="48.89496" lon="2.29527">
        <ele>69.5</ele>
        <time>2013-02-18T20:02:13.000Z</time>
      </trkpt>
      <trkpt lat="48.89499" lon="2.29523">
        <ele>71.2</ele>
        <time>2013-02-18T20:02:14.000Z</time>
      </trkpt>
      <trkpt lat="48.89503" lon="2.29519">
        <ele>71.1</ele>
        <time>2013-02-18T20:02:15.000Z</time>
      </trkpt>
      <trkpt lat="48.89506" lon="2.29515">
        <ele>71.1</ele>
        <time>2013-02-18T20:02:16.000Z</time>
      </trkpt>
      <trkpt lat="48.89509" lon="2.29513">
        <ele>71</ele>
        <time>2013-02-18T20:02:17.000Z</time>
      </trkpt>
      <trkpt lat="48.89511" lon="2.2951">
        <ele>70.4</ele>
        <time>2013-02-18T20:02:18.000Z</time>
      </trkpt>
      <trkpt lat="48.89513" lon="2.29508">
        <ele>69.8</ele>
        <time>2013-02-18T20:02:19.000Z</time>
      </trkpt>
      <trkpt lat="48.89515" lon="2.29506">
        <ele>70.4</ele>
        <time>2013-02-18T20:02:20.000Z</time>
      </trkpt>
      <trkpt lat="48.89517" lon="2.29503">
        <ele>71.1</ele>
        <time>2013-02-18T20:02:21.000Z</time>
      </trkpt>
      <trkpt lat="48.89519" lon="2.29501">
        <ele>71.6</ele>
        <time>2013-02-18T20:02:22.000Z</time>
      </trkpt>
      <trkpt lat="48.89521" lon="2.29497">
        <ele>72.1</ele>
        <time>2013-02-18T20:02:24.164Z</time>
      </trkpt>
      <trkpt lat="48.89521" lon="2.29495">
        <ele>72</ele>
        <time>2013-02-18T20:02:25.000Z</time>
      </trkpt>
      <trkpt lat="48.89523" lon="2.29491">
        <ele>73.8</ele>
        <time>2013-02-18T20:02:27.000Z</time>
      </trkpt>
      <trkpt lat="48.89525" lon="2.29488">
        <ele>74</ele>
        <time>2013-02-18T20:02:28.000Z</time>
      </trkpt>
      <trkpt lat="48.89528" lon="2.29485">
        <ele>74.4</ele>
        <time>2013-02-18T20:02:29.000Z</time>
      </trkpt>
      <trkpt lat="48.89531" lon="2.29481">
        <ele>75.2</ele>
        <time>2013-02-18T20:02:30.000Z</time>
      </trkpt>
      <trkpt lat="48.89534" lon="2.29477">
        <ele>75.7</ele>
        <time>2013-02-18T20:02:31.000Z</time>
      </trkpt>
      <trkpt lat="48.89538" lon="2.29474">
        <ele>76.6</ele>
        <time>2013-02-18T20:02:32.000Z</time>
      </trkpt>
      <trkpt lat="48.89541" lon="2.29471">
        <ele>77.2</ele>
        <time>2013-02-18T20:02:33.000Z</time>
      </trkpt>
      <trkpt lat="48.89545" lon="2.29468">
        <ele>77.2</ele>
        <time>2013-02-18T20:02:34.000Z</time>
      </trkpt>
      <trkpt lat="48.89549" lon="2.29466">
        <ele>77.3</ele>
        <time>2013-02-18T20:02:35.000Z</time>
      </trkpt>
      <trkpt lat="48.89553" lon="2.29464">
        <ele>77.5</ele>
        <time>2013-02-18T20:02:36.000Z</time>
      </trkpt>
      <trkpt lat="48.89559" lon="2.2946">
        <ele>73.1</ele>
        <time>2013-02-18T20:02:37.000Z</time>
      </trkpt>
      <trkpt lat="48.89566" lon="2.29457">
        <ele>75.4</ele>
        <time>2013-02-18T20:02:38.000Z</time>
      </trkpt>
      <trkpt lat="48.89571" lon="2.29453">
        <ele>76</ele>
        <time>2013-02-18T20:02:39.000Z</time>
      </trkpt>
      <trkpt lat="48.89575" lon="2.29449">
        <ele>74.9</ele>
        <time>2013-02-18T20:02:40.000Z</time>
      </trkpt>
      <trkpt lat="48.89578" lon="2.29445">
        <ele>74.8</ele>
        <time>2013-02-18T20:02:41.000Z</time>
      </trkpt>
      <trkpt lat="48.89581" lon="2.29442">
        <ele>75.7</ele>
        <time>2013-02-18T20:02:42.000Z</time>
      </trkpt>
      <trkpt lat="48.89584" lon="2.29441">
        <ele>73.9</ele>
        <time>2013-02-18T20:02:43.000Z</time>
      </trkpt>
      <trkpt lat="48.89586" lon="2.29439">
        <ele>73.9</ele>
        <time>2013-02-18T20:02:44.000Z</time>
      </trkpt>
      <trkpt lat="48.89589" lon="2.29438">
        <ele>75</ele>
        <time>2013-02-18T20:02:45.000Z</time>
      </trkpt>
      <trkpt lat="48.89591" lon="2.29435">
        <ele>71.9</ele>
        <time>2013-02-18T20:02:46.000Z</time>
      </trkpt>
      <trkpt lat="48.89592" lon="2.29432">
        <ele>72.5</ele>
        <time>2013-02-18T20:02:47.000Z</time>
      </trkpt>
      <trkpt lat="48.89592" lon="2.29427">
        <ele>72.8</ele>
        <time>2013-02-18T20:02:48.000Z</time>
      </trkpt>
      <trkpt lat="48.89592" lon="2.29423">
        <ele>74.2</ele>
        <time>2013-02-18T20:02:49.000Z</time>
      </trkpt>
      <trkpt lat="48.89592" lon="2.29417">
        <ele>74.3</ele>
        <time>2013-02-18T20:02:50.000Z</time>
      </trkpt>
      <trkpt lat="48.8959" lon="2.29412">
        <ele>76.5</ele>
        <time>2013-02-18T20:02:51.000Z</time>
      </trkpt>
      <trkpt lat="48.89588" lon="2.29407">
        <ele>78</ele>
        <time>2013-02-18T20:02:52.000Z</time>
      </trkpt>
      <trkpt lat="48.89586" lon="2.29403">
        <ele>79.8</ele>
        <time>2013-02-18T20:02:53.000Z</time>
      </trkpt>
      <trkpt lat="48.89584" lon="2.29399">
        <ele>80</ele>
        <time>2013-02-18T20:02:54.000Z</time>
      </trkpt>
      <trkpt lat="48.89583" lon="2.29394">
        <ele>80.1</ele>
        <time>2013-02-18T20:02:55.000Z</time>
      </trkpt>
      <trkpt lat="48.89581" lon="2.2939">
        <ele>79.6</ele>
        <time>2013-02-18T20:02:56.000Z</time>
      </trkpt>
      <trkpt lat="48.8958" lon="2.29386">
        <ele>80.6</ele>
        <time>2013-02-18T20:02:57.000Z</time>
      </trkpt>
      <trkpt lat="48.89579" lon="2.29381">
        <ele>79.9</ele>
        <time>2013-02-18T20:02:58.000Z</time>
      </trkpt>
      <trkpt lat="48.89578" lon="2.29376">
        <ele>78.8</ele>
        <time>2013-02-18T20:02:59.000Z</time>
      </trkpt>
      <trkpt lat="48.89577" lon="2.29372">
        <ele>78.7</ele>
        <time>2013-02-18T20:03:00.000Z</time>
      </trkpt>
      <trkpt lat="48.89576" lon="2.29367">
        <ele>79</ele>
        <time>2013-02-18T20:03:01.000Z</time>
      </trkpt>
      <trkpt lat="48.89576" lon="2.29362">
        <ele>80.1</ele>
        <time>2013-02-18T20:03:02.000Z</time>
      </trkpt>
      <trkpt lat="48.89577" lon="2.29355">
        <ele>80.2</ele>
        <time>2013-02-18T20:03:03.000Z</time>
      </trkpt>
      <trkpt lat="48.89578" lon="2.29349">
        <ele>80.4</ele>
        <time>2013-02-18T20:03:04.000Z</time>
      </trkpt>
      <trkpt lat="48.89581" lon="2.29344">
        <ele>81.1</ele>
        <time>2013-02-18T20:03:05.000Z</time>
      </trkpt>
      <trkpt lat="48.89584" lon="2.29339">
        <ele>81.8</ele>
        <time>2013-02-18T20:03:06.000Z</time>
      </trkpt>
      <trkpt lat="48.89587" lon="2.29336">
        <ele>82.7</ele>
        <time>2013-02-18T20:03:07.000Z</time>
      </trkpt>
      <trkpt lat="48.8959" lon="2.29333">
        <ele>82.8</ele>
        <time>2013-02-18T20:03:08.000Z</time>
      </trkpt>
      <trkpt lat="48.89593" lon="2.2933">
        <ele>83.6</ele>
        <time>2013-02-18T20:03:09.000Z</time>
      </trkpt>
      <trkpt lat="48.89597" lon="2.29328">
        <ele>82.4</ele>
        <time>2013-02-18T20:03:10.000Z</time>
      </trkpt>
      <trkpt lat="48.89601" lon="2.29325">
        <ele>81.5</ele>
        <time>2013-02-18T20:03:11.000Z</time>
      </trkpt>
      <trkpt lat="48.89606" lon="2.29321">
        <ele>80</ele>
        <time>2013-02-18T20:03:12.000Z</time>
      </trkpt>
      <trkpt lat="48.89611" lon="2.29317">
        <ele>79.1</ele>
        <time>2013-02-18T20:03:13.000Z</time>
      </trkpt>
      <trkpt lat="48.89615" lon="2.29313">
        <ele>79.3</ele>
        <time>2013-02-18T20:03:14.000Z</time>
      </trkpt>
      <trkpt lat="48.8962" lon="2.29309">
        <ele>78.1</ele>
        <time>2013-02-18T20:03:15.000Z</time>
      </trkpt>
      <trkpt lat="48.89624" lon="2.29306">
        <ele>77.5</ele>
        <time>2013-02-18T20:03:16.000Z</time>
      </trkpt>
      <trkpt lat="48.89628" lon="2.29304">
        <ele>77.6</ele>
        <time>2013-02-18T20:03:17.000Z</time>
      </trkpt>
      <trkpt lat="48.89632" lon="2.29301">
        <ele>76.7</ele>
        <time>2013-02-18T20:03:18.000Z</time>
      </trkpt>
      <trkpt lat="48.89636" lon="2.29297">
        <ele>74.6</ele>
        <time>2013-02-18T20:03:19.000Z</time>
      </trkpt>
      <trkpt lat="48.8964" lon="2.29293">
        <ele>73.7</ele>
        <time>2013-02-18T20:03:20.000Z</time>
      </trkpt>
      <trkpt lat="48.89643" lon="2.29289">
        <ele>73.8</ele>
        <time>2013-02-18T20:03:21.000Z</time>
      </trkpt>
      <trkpt lat="48.89647" lon="2.29285">
        <ele>74.2</ele>
        <time>2013-02-18T20:03:22.000Z</time>
      </trkpt>
      <trkpt lat="48.89652" lon="2.29281">
        <ele>74.5</ele>
        <time>2013-02-18T20:03:23.000Z</time>
      </trkpt>
      <trkpt lat="48.89656" lon="2.29278">
        <ele>72.6</ele>
        <time>2013-02-18T20:03:24.000Z</time>
      </trkpt>
      <trkpt lat="48.8966" lon="2.29276">
        <ele>72.8</ele>
        <time>2013-02-18T20:03:25.000Z</time>
      </trkpt>
      <trkpt lat="48.89665" lon="2.29273">
        <ele>74</ele>
        <time>2013-02-18T20:03:26.000Z</time>
      </trkpt>
      <trkpt lat="48.89668" lon="2.29271">
        <ele>73.6</ele>
        <time>2013-02-18T20:03:27.000Z</time>
      </trkpt>
      <trkpt lat="48.89671" lon="2.29268">
        <ele>73.7</ele>
        <time>2013-02-18T20:03:28.000Z</time>
      </trkpt>
      <trkpt lat="48.89674" lon="2.29265">
        <ele>75.3</ele>
        <time>2013-02-18T20:03:29.000Z</time>
      </trkpt>
      <trkpt lat="48.89676" lon="2.29263">
        <ele>75.7</ele>
        <time>2013-02-18T20:03:30.000Z</time>
      </trkpt>
      <trkpt lat="48.89679" lon="2.2926">
        <ele>76.6</ele>
        <time>2013-02-18T20:03:31.000Z</time>
      </trkpt>
      <trkpt lat="48.89683" lon="2.29257">
        <ele>75.3</ele>
        <time>2013-02-18T20:03:32.000Z</time>
      </trkpt>
      <trkpt lat="48.89685" lon="2.29254">
        <ele>74.4</ele>
        <time>2013-02-18T20:03:33.000Z</time>
      </trkpt>
      <trkpt lat="48.89688" lon="2.2925">
        <ele>73.5</ele>
        <time>2013-02-18T20:03:34.000Z</time>
      </trkpt>
      <trkpt lat="48.89689" lon="2.29246">
        <ele>71.4</ele>
        <time>2013-02-18T20:03:35.000Z</time>
      </trkpt>
      <trkpt lat="48.8969" lon="2.29242">
        <ele>69.3</ele>
        <time>2013-02-18T20:03:36.000Z</time>
      </trkpt>
      <trkpt lat="48.89692" lon="2.29237">
        <ele>68.7</ele>
        <time>2013-02-18T20:03:38.000Z</time>
      </trkpt>
      <trkpt lat="48.89694" lon="2.29235">
        <ele>68.3</ele>
        <time>2013-02-18T20:03:39.000Z</time>
      </trkpt>
      <trkpt lat="48.89696" lon="2.29233">
        <ele>68</ele>
        <time>2013-02-18T20:03:40.000Z</time>
      </trkpt>
      <trkpt lat="48.89699" lon="2.2923">
        <ele>68</ele>
        <time>2013-02-18T20:03:41.000Z</time>
      </trkpt>
      <trkpt lat="48.89703" lon="2.29227">
        <ele>67.7</ele>
        <time>2013-02-18T20:03:42.000Z</time>
      </trkpt>
      <trkpt lat="48.89707" lon="2.29225">
        <ele>66.1</ele>
        <time>2013-02-18T20:03:43.000Z</time>
      </trkpt>
      <trkpt lat="48.8971" lon="2.29223">
        <ele>64</ele>
        <time>2013-02-18T20:03:44.000Z</time>
      </trkpt>
      <trkpt lat="48.89712" lon="2.29221">
        <ele>62.2</ele>
        <time>2013-02-18T20:03:45.000Z</time>
      </trkpt>
      <trkpt lat="48.89714" lon="2.29219">
        <ele>60.1</ele>
        <time>2013-02-18T20:03:46.000Z</time>
      </trkpt>
      <trkpt lat="48.89716" lon="2.29217">
        <ele>58.9</ele>
        <time>2013-02-18T20:03:47.000Z</time>
      </trkpt>
      <trkpt lat="48.89718" lon="2.29215">
        <ele>59.1</ele>
        <time>2013-02-18T20:03:48.000Z</time>
      </trkpt>
      <trkpt lat="48.89721" lon="2.29214">
        <ele>59.4</ele>
        <time>2013-02-18T20:03:49.000Z</time>
      </trkpt>
      <trkpt lat="48.89723" lon="2.29212">
        <ele>59.6</ele>
        <time>2013-02-18T20:03:50.000Z</time>
      </trkpt>
      <trkpt lat="48.89727" lon="2.29211">
        <ele>60.5</ele>
        <time>2013-02-18T20:03:51.000Z</time>
      </trkpt>
      <trkpt lat="48.89731" lon="2.29211">
        <ele>60.2</ele>
        <time>2013-02-18T20:03:52.000Z</time>
      </trkpt>
      <trkpt lat="48.89735" lon="2.2921">
        <ele>58.9</ele>
        <time>2013-02-18T20:03:53.000Z</time>
      </trkpt>
      <trkpt lat="48.8974" lon="2.29208">
        <ele>58.5</ele>
        <time>2013-02-18T20:03:54.000Z</time>
      </trkpt>
      <trkpt lat="48.89744" lon="2.29206">
        <ele>56.5</ele>
        <time>2013-02-18T20:03:55.000Z</time>
      </trkpt>
      <trkpt lat="48.89748" lon="2.29204">
        <ele>56.3</ele>
        <time>2013-02-18T20:03:56.000Z</time>
      </trkpt>
      <trkpt lat="48.89751" lon="2.292">
        <ele>52.9</ele>
        <time>2013-02-18T20:03:57.000Z</time>
      </trkpt>
      <trkpt lat="48.89753" lon="2.29196">
        <ele>50.6</ele>
        <time>2013-02-18T20:03:58.000Z</time>
      </trkpt>
      <trkpt lat="48.89755" lon="2.29191">
        <ele>49.4</ele>
        <time>2013-02-18T20:03:59.000Z</time>
      </trkpt>
      <trkpt lat="48.89757" lon="2.29186">
        <ele>49.1</ele>
        <time>2013-02-18T20:04:00.000Z</time>
      </trkpt>
      <trkpt lat="48.89758" lon="2.29182">
        <ele>45.5</ele>
        <time>2013-02-18T20:04:01.000Z</time>
      </trkpt>
      <trkpt lat="48.8976" lon="2.29179">
        <ele>43.3</ele>
        <time>2013-02-18T20:04:02.000Z</time>
      </trkpt>
      <trkpt lat="48.89762" lon="2.29176">
        <ele>41.8</ele>
        <time>2013-02-18T20:04:03.000Z</time>
      </trkpt>
      <trkpt lat="48.89764" lon="2.29173">
        <ele>41.4</ele>
        <time>2013-02-18T20:04:04.000Z</time>
      </trkpt>
      <trkpt lat="48.89766" lon="2.2917">
        <ele>37.7</ele>
        <time>2013-02-18T20:04:05.000Z</time>
      </trkpt>
      <trkpt lat="48.89767" lon="2.29167">
        <ele>36</ele>
        <time>2013-02-18T20:04:06.000Z</time>
      </trkpt>
      <trkpt lat="48.89769" lon="2.29163">
        <ele>34.5</ele>
        <time>2013-02-18T20:04:07.000Z</time>
      </trkpt>
      <trkpt lat="48.89771" lon="2.2916">
        <ele>34.1</ele>
        <time>2013-02-18T20:04:08.000Z</time>
      </trkpt>
      <trkpt lat="48.89773" lon="2.29158">
        <ele>33.5</ele>
        <time>2013-02-18T20:04:09.000Z</time>
      </trkpt>
      <trkpt lat="48.89775" lon="2.29155">
        <ele>33.7</ele>
        <time>2013-02-18T20:04:10.000Z</time>
      </trkpt>
      <trkpt lat="48.89778" lon="2.29152">
        <ele>34</ele>
        <time>2013-02-18T20:04:11.000Z</time>
      </trkpt>
      <trkpt lat="48.8978" lon="2.29148">
        <ele>34</ele>
        <time>2013-02-18T20:04:12.000Z</time>
      </trkpt>
      <trkpt lat="48.89785" lon="2.29143">
        <ele>32.8</ele>
        <time>2013-02-18T20:04:13.000Z</time>
      </trkpt>
      <trkpt lat="48.89789" lon="2.29139">
        <ele>33.3</ele>
        <time>2013-02-18T20:04:14.000Z</time>
      </trkpt>
      <trkpt lat="48.89794" lon="2.29135">
        <ele>31.3</ele>
        <time>2013-02-18T20:04:15.000Z</time>
      </trkpt>
      <trkpt lat="48.89798" lon="2.2913">
        <ele>27.9</ele>
        <time>2013-02-18T20:04:16.000Z</time>
      </trkpt>
      <trkpt lat="48.89802" lon="2.29125">
        <ele>24.7</ele>
        <time>2013-02-18T20:04:17.000Z</time>
      </trkpt>
      <trkpt lat="48.89805" lon="2.2912">
        <ele>23.7</ele>
        <time>2013-02-18T20:04:18.000Z</time>
      </trkpt>
      <trkpt lat="48.89807" lon="2.29115">
        <ele>22.7</ele>
        <time>2013-02-18T20:04:19.000Z</time>
      </trkpt>
      <trkpt lat="48.89809" lon="2.2911">
        <ele>22.3</ele>
        <time>2013-02-18T20:04:20.000Z</time>
      </trkpt>
      <trkpt lat="48.89812" lon="2.29105">
        <ele>22.8</ele>
        <time>2013-02-18T20:04:21.000Z</time>
      </trkpt>
      <trkpt lat="48.89816" lon="2.29101">
        <ele>23.1</ele>
        <time>2013-02-18T20:04:22.000Z</time>
      </trkpt>
      <trkpt lat="48.89822" lon="2.29097">
        <ele>25.2</ele>
        <time>2013-02-18T20:04:23.000Z</time>
      </trkpt>
      <trkpt lat="48.89827" lon="2.29094">
        <ele>70.3</ele>
        <time>2013-02-18T20:04:24.000Z</time>
      </trkpt>
      <trkpt lat="48.89832" lon="2.29091">
        <ele>66.5</ele>
        <time>2013-02-18T20:04:25.000Z</time>
      </trkpt>
      <trkpt lat="48.89838" lon="2.29088">
        <ele>62.3</ele>
        <time>2013-02-18T20:04:26.000Z</time>
      </trkpt>
      <trkpt lat="48.89843" lon="2.29086">
        <ele>58.6</ele>
        <time>2013-02-18T20:04:27.000Z</time>
      </trkpt>
      <trkpt lat="48.89849" lon="2.29084">
        <ele>56.3</ele>
        <time>2013-02-18T20:04:28.000Z</time>
      </trkpt>
      <trkpt lat="48.89854" lon="2.29081">
        <ele>55.1</ele>
        <time>2013-02-18T20:04:29.000Z</time>
      </trkpt>
      <trkpt lat="48.8986" lon="2.2908">
        <ele>50.5</ele>
        <time>2013-02-18T20:04:30.000Z</time>
      </trkpt>
      <trkpt lat="48.89865" lon="2.29078">
        <ele>49.3</ele>
        <time>2013-02-18T20:04:31.000Z</time>
      </trkpt>
      <trkpt lat="48.8987" lon="2.29075">
        <ele>47.4</ele>
        <time>2013-02-18T20:04:32.000Z</time>
      </trkpt>
      <trkpt lat="48.89875" lon="2.29073">
        <ele>45.2</ele>
        <time>2013-02-18T20:04:33.000Z</time>
      </trkpt>
      <trkpt lat="48.8988" lon="2.2907">
        <ele>43.2</ele>
        <time>2013-02-18T20:04:34.000Z</time>
      </trkpt>
      <trkpt lat="48.89885" lon="2.29067">
        <ele>43</ele>
        <time>2013-02-18T20:04:35.000Z</time>
      </trkpt>
      <trkpt lat="48.8989" lon="2.29065">
        <ele>41.2</ele>
        <time>2013-02-18T20:04:36.000Z</time>
      </trkpt>
      <trkpt lat="48.89894" lon="2.29062">
        <ele>39.6</ele>
        <time>2013-02-18T20:04:37.000Z</time>
      </trkpt>
      <trkpt lat="48.89899" lon="2.29059">
        <ele>38</ele>
        <time>2013-02-18T20:04:38.000Z</time>
      </trkpt>
      <trkpt lat="48.89903" lon="2.29056">
        <ele>37.6</ele>
        <time>2013-02-18T20:04:39.000Z</time>
      </trkpt>
      <trkpt lat="48.89908" lon="2.29054">
        <ele>38.6</ele>
        <time>2013-02-18T20:04:40.000Z</time>
      </trkpt>
      <trkpt lat="48.89914" lon="2.29053">
        <ele>39.2</ele>
        <time>2013-02-18T20:04:41.000Z</time>
      </trkpt>
      <trkpt lat="48.89919" lon="2.29054">
        <ele>39.2</ele>
        <time>2013-02-18T20:04:42.000Z</time>
      </trkpt>
      <trkpt lat="48.89924" lon="2.29057">
        <ele>40.7</ele>
        <time>2013-02-18T20:04:43.000Z</time>
      </trkpt>
      <trkpt lat="48.89929" lon="2.29061">
        <ele>40</ele>
        <time>2013-02-18T20:04:44.000Z</time>
      </trkpt>
      <trkpt lat="48.89934" lon="2.29066">
        <ele>41</ele>
        <time>2013-02-18T20:04:45.000Z</time>
      </trkpt>
      <trkpt lat="48.89939" lon="2.29071">
        <ele>43</ele>
        <time>2013-02-18T20:04:46.000Z</time>
      </trkpt>
      <trkpt lat="48.89943" lon="2.29077">
        <ele>40.2</ele>
        <time>2013-02-18T20:04:47.000Z</time>
      </trkpt>
      <trkpt lat="48.89946" lon="2.29083">
        <ele>40.1</ele>
        <time>2013-02-18T20:04:48.000Z</time>
      </trkpt>
      <trkpt lat="48.89949" lon="2.2909">
        <ele>40.6</ele>
        <time>2013-02-18T20:04:49.000Z</time>
      </trkpt>
      <trkpt lat="48.89952" lon="2.29097">
        <ele>40.8</ele>
        <time>2013-02-18T20:04:50.000Z</time>
      </trkpt>
      <trkpt lat="48.89958" lon="2.2911">
        <ele>40.8</ele>
        <time>2013-02-18T20:04:51.000Z</time>
      </trkpt>
      <trkpt lat="48.8996" lon="2.29115">
        <ele>40.9</ele>
        <time>2013-02-18T20:04:52.000Z</time>
      </trkpt>
      <trkpt lat="48.89963" lon="2.29122">
        <ele>40.8</ele>
        <time>2013-02-18T20:04:53.000Z</time>
      </trkpt>
      <trkpt lat="48.89965" lon="2.2913">
        <ele>41.1</ele>
        <time>2013-02-18T20:04:54.000Z</time>
      </trkpt>
      <trkpt lat="48.89968" lon="2.29137">
        <ele>41.6</ele>
        <time>2013-02-18T20:04:55.000Z</time>
      </trkpt>
      <trkpt lat="48.89972" lon="2.29144">
        <ele>42.2</ele>
        <time>2013-02-18T20:04:56.000Z</time>
      </trkpt>
      <trkpt lat="48.89975" lon="2.29151">
        <ele>42.8</ele>
        <time>2013-02-18T20:04:57.000Z</time>
      </trkpt>
      <trkpt lat="48.89978" lon="2.29158">
        <ele>43.5</ele>
        <time>2013-02-18T20:04:58.000Z</time>
      </trkpt>
      <trkpt lat="48.89981" lon="2.2917">
        <ele>44.4</ele>
        <time>2013-02-18T20:04:59.000Z</time>
      </trkpt>
      <trkpt lat="48.89984" lon="2.29177">
        <ele>44.9</ele>
        <time>2013-02-18T20:05:00.000Z</time>
      </trkpt>
      <trkpt lat="48.89986" lon="2.29184">
        <ele>45.2</ele>
        <time>2013-02-18T20:05:01.000Z</time>
      </trkpt>
      <trkpt lat="48.89989" lon="2.29192">
        <ele>45.7</ele>
        <time>2013-02-18T20:05:02.000Z</time>
      </trkpt>
      <trkpt lat="48.89991" lon="2.29194">
        <ele>47.4</ele>
        <time>2013-02-18T20:05:03.000Z</time>
      </trkpt>
      <trkpt lat="48.89993" lon="2.29201">
        <ele>48</ele>
        <time>2013-02-18T20:05:04.000Z</time>
      </trkpt>
      <trkpt lat="48.89995" lon="2.29207">
        <ele>48.4</ele>
        <time>2013-02-18T20:05:05.000Z</time>
      </trkpt>
      <trkpt lat="48.89998" lon="2.29214">
        <ele>48.8</ele>
        <time>2013-02-18T20:05:06.000Z</time>
      </trkpt>
      <trkpt lat="48.89999" lon="2.2922">
        <ele>49</ele>
        <time>2013-02-18T20:05:07.000Z</time>
      </trkpt>
      <trkpt lat="48.90002" lon="2.29231">
        <ele>49.7</ele>
        <time>2013-02-18T20:05:08.000Z</time>
      </trkpt>
      <trkpt lat="48.90004" lon="2.29236">
        <ele>49.8</ele>
        <time>2013-02-18T20:05:09.000Z</time>
      </trkpt>
      <trkpt lat="48.90007" lon="2.29245">
        <ele>51.5</ele>
        <time>2013-02-18T20:05:10.000Z</time>
      </trkpt>
      <trkpt lat="48.90008" lon="2.29251">
        <ele>51.6</ele>
        <time>2013-02-18T20:05:11.000Z</time>
      </trkpt>
      <trkpt lat="48.90009" lon="2.29256">
        <ele>51.9</ele>
        <time>2013-02-18T20:05:12.000Z</time>
      </trkpt>
      <trkpt lat="48.9001" lon="2.29261">
        <ele>53</ele>
        <time>2013-02-18T20:05:15.000Z</time>
      </trkpt>
      <trkpt lat="48.9001" lon="2.29263">
        <ele>53.7</ele>
        <time>2013-02-18T20:05:16.000Z</time>
      </trkpt>
      <trkpt lat="48.9001" lon="2.29268">
        <ele>59.6</ele>
        <time>2013-02-18T20:05:18.000Z</time>
      </trkpt>
      <trkpt lat="48.9001" lon="2.29271">
        <ele>60.7</ele>
        <time>2013-02-18T20:05:19.000Z</time>
      </trkpt>
      <trkpt lat="48.90012" lon="2.29276">
        <ele>61.1</ele>
        <time>2013-02-18T20:05:21.000Z</time>
      </trkpt>
      <trkpt lat="48.90013" lon="2.29278">
        <ele>60.8</ele>
        <time>2013-02-18T20:05:22.000Z</time>
      </trkpt>
      <trkpt lat="48.90017" lon="2.29284">
        <ele>60.9</ele>
        <time>2013-02-18T20:05:25.000Z</time>
      </trkpt>
      <trkpt lat="48.90055" lon="2.29275">
        <ele>59.3</ele>
        <time>2013-02-18T20:05:36.000Z</time>
      </trkpt>
      <trkpt lat="48.90061" lon="2.2927">
        <ele>60.6</ele>
        <time>2013-02-18T20:05:37.000Z</time>
      </trkpt>
      <trkpt lat="48.90067" lon="2.29267">
        <ele>60</ele>
        <time>2013-02-18T20:05:38.000Z</time>
      </trkpt>
      <trkpt lat="48.90071" lon="2.29265">
        <ele>59.5</ele>
        <time>2013-02-18T20:05:39.000Z</time>
      </trkpt>
      <trkpt lat="48.90075" lon="2.29261">
        <ele>60.7</ele>
        <time>2013-02-18T20:05:40.000Z</time>
      </trkpt>
      <trkpt lat="48.90079" lon="2.29257">
        <ele>61.9</ele>
        <time>2013-02-18T20:05:41.000Z</time>
      </trkpt>
      <trkpt lat="48.90083" lon="2.29251">
        <ele>63.4</ele>
        <time>2013-02-18T20:05:42.000Z</time>
      </trkpt>
      <trkpt lat="48.90087" lon="2.29246">
        <ele>62.7</ele>
        <time>2013-02-18T20:05:43.000Z</time>
      </trkpt>
      <trkpt lat="48.90091" lon="2.2924">
        <ele>63.3</ele>
        <time>2013-02-18T20:05:44.000Z</time>
      </trkpt>
      <trkpt lat="48.90098" lon="2.29232">
        <ele>63.3</ele>
        <time>2013-02-18T20:05:45.000Z</time>
      </trkpt>
      <trkpt lat="48.90102" lon="2.29227">
        <ele>62.5</ele>
        <time>2013-02-18T20:05:46.000Z</time>
      </trkpt>
      <trkpt lat="48.90107" lon="2.2922">
        <ele>65.4</ele>
        <time>2013-02-18T20:05:47.000Z</time>
      </trkpt>
      <trkpt lat="48.90113" lon="2.29214">
        <ele>67.3</ele>
        <time>2013-02-18T20:05:48.000Z</time>
      </trkpt>
      <trkpt lat="48.90117" lon="2.29208">
        <ele>68.2</ele>
        <time>2013-02-18T20:05:49.000Z</time>
      </trkpt>
      <trkpt lat="48.90121" lon="2.29202">
        <ele>68.4</ele>
        <time>2013-02-18T20:05:50.000Z</time>
      </trkpt>
      <trkpt lat="48.90125" lon="2.29196">
        <ele>68.7</ele>
        <time>2013-02-18T20:05:51.000Z</time>
      </trkpt>
      <trkpt lat="48.90129" lon="2.2919">
        <ele>68.9</ele>
        <time>2013-02-18T20:05:52.000Z</time>
      </trkpt>
      <trkpt lat="48.90133" lon="2.29185">
        <ele>67.7</ele>
        <time>2013-02-18T20:05:53.000Z</time>
      </trkpt>
      <trkpt lat="48.90137" lon="2.29178">
        <ele>67.2</ele>
        <time>2013-02-18T20:05:54.000Z</time>
      </trkpt>
      <trkpt lat="48.9014" lon="2.2917">
        <ele>69.1</ele>
        <time>2013-02-18T20:05:55.000Z</time>
      </trkpt>
      <trkpt lat="48.90144" lon="2.29164">
        <ele>69.4</ele>
        <time>2013-02-18T20:05:56.000Z</time>
      </trkpt>
      <trkpt lat="48.90148" lon="2.29157">
        <ele>69.9</ele>
        <time>2013-02-18T20:05:57.000Z</time>
      </trkpt>
      <trkpt lat="48.90152" lon="2.2915">
        <ele>69.6</ele>
        <time>2013-02-18T20:05:58.000Z</time>
      </trkpt>
      <trkpt lat="48.90157" lon="2.29146">
        <ele>69.2</ele>
        <time>2013-02-18T20:05:59.000Z</time>
      </trkpt>
      <trkpt lat="48.90162" lon="2.2914">
        <ele>68.8</ele>
        <time>2013-02-18T20:06:00.000Z</time>
      </trkpt>
      <trkpt lat="48.90167" lon="2.29136">
        <ele>69.4</ele>
        <time>2013-02-18T20:06:01.000Z</time>
      </trkpt>
      <trkpt lat="48.90171" lon="2.29131">
        <ele>69.2</ele>
        <time>2013-02-18T20:06:02.000Z</time>
      </trkpt>
      <trkpt lat="48.90176" lon="2.29126">
        <ele>70.1</ele>
        <time>2013-02-18T20:06:03.000Z</time>
      </trkpt>
      <trkpt lat="48.90182" lon="2.29122">
        <ele>70.1</ele>
        <time>2013-02-18T20:06:04.000Z</time>
      </trkpt>
      <trkpt lat="48.90187" lon="2.29116">
        <ele>70.8</ele>
        <time>2013-02-18T20:06:05.000Z</time>
      </trkpt>
      <trkpt lat="48.90192" lon="2.2911">
        <ele>71.6</ele>
        <time>2013-02-18T20:06:06.000Z</time>
      </trkpt>
      <trkpt lat="48.90197" lon="2.29106">
        <ele>72</ele>
        <time>2013-02-18T20:06:07.000Z</time>
      </trkpt>
      <trkpt lat="48.90202" lon="2.29104">
        <ele>71.7</ele>
        <time>2013-02-18T20:06:08.000Z</time>
      </trkpt>
      <trkpt lat="48.90206" lon="2.291">
        <ele>71.6</ele>
        <time>2013-02-18T20:06:09.000Z</time>
      </trkpt>
      <trkpt lat="48.9021" lon="2.29098">
        <ele>72.1</ele>
        <time>2013-02-18T20:06:10.000Z</time>
      </trkpt>
      <trkpt lat="48.90213" lon="2.29095">
        <ele>71.4</ele>
        <time>2013-02-18T20:06:11.000Z</time>
      </trkpt>
      <trkpt lat="48.90216" lon="2.29093">
        <ele>72.9</ele>
        <time>2013-02-18T20:06:12.000Z</time>
      </trkpt>
      <trkpt lat="48.90218" lon="2.2909">
        <ele>73.5</ele>
        <time>2013-02-18T20:06:13.000Z</time>
      </trkpt>
      <trkpt lat="48.9022" lon="2.29087">
        <ele>73.9</ele>
        <time>2013-02-18T20:06:14.000Z</time>
      </trkpt>
      <trkpt lat="48.90223" lon="2.29085">
        <ele>74.4</ele>
        <time>2013-02-18T20:06:15.000Z</time>
      </trkpt>
      <trkpt lat="48.90227" lon="2.2908">
        <ele>75.1</ele>
        <time>2013-02-18T20:06:16.000Z</time>
      </trkpt>
      <trkpt lat="48.90229" lon="2.29076">
        <ele>75.8</ele>
        <time>2013-02-18T20:06:17.000Z</time>
      </trkpt>
      <trkpt lat="48.90232" lon="2.29074">
        <ele>75.8</ele>
        <time>2013-02-18T20:06:18.000Z</time>
      </trkpt>
      <trkpt lat="48.90236" lon="2.29071">
        <ele>76</ele>
        <time>2013-02-18T20:06:19.000Z</time>
      </trkpt>
      <trkpt lat="48.90238" lon="2.29067">
        <ele>76.4</ele>
        <time>2013-02-18T20:06:20.000Z</time>
      </trkpt>
      <trkpt lat="48.90241" lon="2.29064">
        <ele>77.5</ele>
        <time>2013-02-18T20:06:21.000Z</time>
      </trkpt>
      <trkpt lat="48.90244" lon="2.2906">
        <ele>75.9</ele>
        <time>2013-02-18T20:06:22.000Z</time>
      </trkpt>
      <trkpt lat="48.90246" lon="2.29057">
        <ele>75.5</ele>
        <time>2013-02-18T20:06:23.000Z</time>
      </trkpt>
      <trkpt lat="48.90249" lon="2.29053">
        <ele>76</ele>
        <time>2013-02-18T20:06:24.000Z</time>
      </trkpt>
      <trkpt lat="48.90252" lon="2.2905">
        <ele>74.9</ele>
        <time>2013-02-18T20:06:25.000Z</time>
      </trkpt>
      <trkpt lat="48.90255" lon="2.29047">
        <ele>74</ele>
        <time>2013-02-18T20:06:26.000Z</time>
      </trkpt>
      <trkpt lat="48.90258" lon="2.29043">
        <ele>73.9</ele>
        <time>2013-02-18T20:06:27.000Z</time>
      </trkpt>
      <trkpt lat="48.90262" lon="2.29039">
        <ele>74.3</ele>
        <time>2013-02-18T20:06:28.000Z</time>
      </trkpt>
      <trkpt lat="48.90265" lon="2.29036">
        <ele>74.2</ele>
        <time>2013-02-18T20:06:29.000Z</time>
      </trkpt>
      <trkpt lat="48.90269" lon="2.29032">
        <ele>74.3</ele>
        <time>2013-02-18T20:06:30.000Z</time>
      </trkpt>
      <trkpt lat="48.90272" lon="2.29028">
        <ele>74.9</ele>
        <time>2013-02-18T20:06:31.000Z</time>
      </trkpt>
      <trkpt lat="48.90276" lon="2.29024">
        <ele>74.9</ele>
        <time>2013-02-18T20:06:32.000Z</time>
      </trkpt>
      <trkpt lat="48.9028" lon="2.2902">
        <ele>74.8</ele>
        <time>2013-02-18T20:06:33.000Z</time>
      </trkpt>
      <trkpt lat="48.90285" lon="2.29016">
        <ele>75.1</ele>
        <time>2013-02-18T20:06:34.000Z</time>
      </trkpt>
      <trkpt lat="48.90293" lon="2.29013">
        <ele>74.8</ele>
        <time>2013-02-18T20:06:35.000Z</time>
      </trkpt>
      <trkpt lat="48.90297" lon="2.29009">
        <ele>75.1</ele>
        <time>2013-02-18T20:06:36.000Z</time>
      </trkpt>
      <trkpt lat="48.90301" lon="2.29005">
        <ele>75.3</ele>
        <time>2013-02-18T20:06:37.000Z</time>
      </trkpt>
      <trkpt lat="48.90305" lon="2.29002">
        <ele>75.9</ele>
        <time>2013-02-18T20:06:38.000Z</time>
      </trkpt>
      <trkpt lat="48.9031" lon="2.28995">
        <ele>77.7</ele>
        <time>2013-02-18T20:06:39.000Z</time>
      </trkpt>
      <trkpt lat="48.90313" lon="2.28991">
        <ele>78.7</ele>
        <time>2013-02-18T20:06:40.000Z</time>
      </trkpt>
      <trkpt lat="48.90316" lon="2.28988">
        <ele>78.8</ele>
        <time>2013-02-18T20:06:41.000Z</time>
      </trkpt>
      <trkpt lat="48.90318" lon="2.28985">
        <ele>78.9</ele>
        <time>2013-02-18T20:06:42.000Z</time>
      </trkpt>
      <trkpt lat="48.9032" lon="2.28983">
        <ele>77.8</ele>
        <time>2013-02-18T20:06:43.000Z</time>
      </trkpt>
      <trkpt lat="48.90322" lon="2.28981">
        <ele>77.6</ele>
        <time>2013-02-18T20:06:44.000Z</time>
      </trkpt>
      <trkpt lat="48.90324" lon="2.28981">
        <ele>78.4</ele>
        <time>2013-02-18T20:06:45.000Z</time>
      </trkpt>
      <trkpt lat="48.90328" lon="2.28979">
        <ele>78.5</ele>
        <time>2013-02-18T20:06:47.000Z</time>
      </trkpt>
      <trkpt lat="48.9033" lon="2.28979">
        <ele>78.4</ele>
        <time>2013-02-18T20:06:48.000Z</time>
      </trkpt>
      <trkpt lat="48.90333" lon="2.28978">
        <ele>79.3</ele>
        <time>2013-02-18T20:07:32.000Z</time>
      </trkpt>
      <trkpt lat="48.90335" lon="2.28977">
        <ele>78</ele>
        <time>2013-02-18T20:07:33.000Z</time>
      </trkpt>
      <trkpt lat="48.90338" lon="2.28975">
        <ele>77.1</ele>
        <time>2013-02-18T20:07:34.000Z</time>
      </trkpt>
      <trkpt lat="48.9034" lon="2.28973">
        <ele>76.6</ele>
        <time>2013-02-18T20:07:35.000Z</time>
      </trkpt>
      <trkpt lat="48.90342" lon="2.2897">
        <ele>79.3</ele>
        <time>2013-02-18T20:07:36.000Z</time>
      </trkpt>
      <trkpt lat="48.90343" lon="2.28967">
        <ele>79</ele>
        <time>2013-02-18T20:07:37.000Z</time>
      </trkpt>
      <trkpt lat="48.90345" lon="2.28963">
        <ele>79.9</ele>
        <time>2013-02-18T20:07:38.000Z</time>
      </trkpt>
      <trkpt lat="48.90346" lon="2.2896">
        <ele>80.6</ele>
        <time>2013-02-18T20:07:39.000Z</time>
      </trkpt>
      <trkpt lat="48.90348" lon="2.28955">
        <ele>80.8</ele>
        <time>2013-02-18T20:07:40.000Z</time>
      </trkpt>
      <trkpt lat="48.90351" lon="2.28951">
        <ele>81.5</ele>
        <time>2013-02-18T20:07:41.000Z</time>
      </trkpt>
      <trkpt lat="48.90353" lon="2.28948">
        <ele>81.2</ele>
        <time>2013-02-18T20:07:42.000Z</time>
      </trkpt>
      <trkpt lat="48.90356" lon="2.28945">
        <ele>81.6</ele>
        <time>2013-02-18T20:07:43.000Z</time>
      </trkpt>
      <trkpt lat="48.90358" lon="2.28942">
        <ele>81.7</ele>
        <time>2013-02-18T20:07:44.000Z</time>
      </trkpt>
      <trkpt lat="48.90361" lon="2.28938">
        <ele>82.8</ele>
        <time>2013-02-18T20:07:45.000Z</time>
      </trkpt>
      <trkpt lat="48.90364" lon="2.28935">
        <ele>83.2</ele>
        <time>2013-02-18T20:07:46.000Z</time>
      </trkpt>
      <trkpt lat="48.90366" lon="2.28932">
        <ele>83.3</ele>
        <time>2013-02-18T20:07:47.000Z</time>
      </trkpt>
      <trkpt lat="48.9037" lon="2.28928">
        <ele>82.9</ele>
        <time>2013-02-18T20:07:48.000Z</time>
      </trkpt>
      <trkpt lat="48.90373" lon="2.28925">
        <ele>83.3</ele>
        <time>2013-02-18T20:07:49.000Z</time>
      </trkpt>
      <trkpt lat="48.90376" lon="2.28922">
        <ele>83.3</ele>
        <time>2013-02-18T20:07:50.000Z</time>
      </trkpt>
      <trkpt lat="48.90379" lon="2.28918">
        <ele>83</ele>
        <time>2013-02-18T20:07:51.000Z</time>
      </trkpt>
      <trkpt lat="48.90382" lon="2.28915">
        <ele>82.6</ele>
        <time>2013-02-18T20:07:52.000Z</time>
      </trkpt>
      <trkpt lat="48.90385" lon="2.28912">
        <ele>82</ele>
        <time>2013-02-18T20:07:53.000Z</time>
      </trkpt>
      <trkpt lat="48.90388" lon="2.28908">
        <ele>82.3</ele>
        <time>2013-02-18T20:07:54.000Z</time>
      </trkpt>
      <trkpt lat="48.90391" lon="2.28905">
        <ele>82.3</ele>
        <time>2013-02-18T20:07:55.000Z</time>
      </trkpt>
      <trkpt lat="48.90395" lon="2.28902">
        <ele>82.5</ele>
        <time>2013-02-18T20:07:56.000Z</time>
      </trkpt>
      <trkpt lat="48.90398" lon="2.28898">
        <ele>81.2</ele>
        <time>2013-02-18T20:07:57.000Z</time>
      </trkpt>
      <trkpt lat="48.90401" lon="2.28895">
        <ele>82.2</ele>
        <time>2013-02-18T20:07:58.000Z</time>
      </trkpt>
      <trkpt lat="48.90404" lon="2.28891">
        <ele>82.1</ele>
        <time>2013-02-18T20:07:59.000Z</time>
      </trkpt>
      <trkpt lat="48.90408" lon="2.28887">
        <ele>82.5</ele>
        <time>2013-02-18T20:08:00.000Z</time>
      </trkpt>
      <trkpt lat="48.90411" lon="2.28884">
        <ele>82.6</ele>
        <time>2013-02-18T20:08:01.000Z</time>
      </trkpt>
      <trkpt lat="48.90414" lon="2.2888">
        <ele>81.8</ele>
        <time>2013-02-18T20:08:02.000Z</time>
      </trkpt>
      <trkpt lat="48.90417" lon="2.28876">
        <ele>81.6</ele>
        <time>2013-02-18T20:08:03.000Z</time>
      </trkpt>
      <trkpt lat="48.90421" lon="2.28872">
        <ele>81.8</ele>
        <time>2013-02-18T20:08:04.000Z</time>
      </trkpt>
      <trkpt lat="48.90424" lon="2.28868">
        <ele>81.8</ele>
        <time>2013-02-18T20:08:05.000Z</time>
      </trkpt>
      <trkpt lat="48.90428" lon="2.28864">
        <ele>81.8</ele>
        <time>2013-02-18T20:08:06.000Z</time>
      </trkpt>
      <trkpt lat="48.90431" lon="2.28861">
        <ele>81.7</ele>
        <time>2013-02-18T20:08:07.000Z</time>
      </trkpt>
      <trkpt lat="48.90435" lon="2.28856">
        <ele>82.3</ele>
        <time>2013-02-18T20:08:08.000Z</time>
      </trkpt>
      <trkpt lat="48.9044" lon="2.2885">
        <ele>81.7</ele>
        <time>2013-02-18T20:08:09.000Z</time>
      </trkpt>
      <trkpt lat="48.90444" lon="2.28846">
        <ele>82.1</ele>
        <time>2013-02-18T20:08:10.000Z</time>
      </trkpt>
      <trkpt lat="48.90448" lon="2.28841">
        <ele>82.2</ele>
        <time>2013-02-18T20:08:11.000Z</time>
      </trkpt>
      <trkpt lat="48.90452" lon="2.28836">
        <ele>82.3</ele>
        <time>2013-02-18T20:08:12.000Z</time>
      </trkpt>
      <trkpt lat="48.90455" lon="2.28831">
        <ele>83</ele>
        <time>2013-02-18T20:08:13.000Z</time>
      </trkpt>
      <trkpt lat="48.90459" lon="2.28826">
        <ele>83.2</ele>
        <time>2013-02-18T20:08:14.000Z</time>
      </trkpt>
      <trkpt lat="48.90462" lon="2.28822">
        <ele>83.4</ele>
        <time>2013-02-18T20:08:15.000Z</time>
      </trkpt>
      <trkpt lat="48.90465" lon="2.28817">
        <ele>83.4</ele>
        <time>2013-02-18T20:08:16.000Z</time>
      </trkpt>
      <trkpt lat="48.90468" lon="2.28814">
        <ele>84.3</ele>
        <time>2013-02-18T20:08:17.000Z</time>
      </trkpt>
      <trkpt lat="48.90471" lon="2.28809">
        <ele>84.1</ele>
        <time>2013-02-18T20:08:18.000Z</time>
      </trkpt>
      <trkpt lat="48.90475" lon="2.28806">
        <ele>83.6</ele>
        <time>2013-02-18T20:08:19.000Z</time>
      </trkpt>
      <trkpt lat="48.90478" lon="2.28802">
        <ele>83.6</ele>
        <time>2013-02-18T20:08:20.000Z</time>
      </trkpt>
      <trkpt lat="48.90481" lon="2.28798">
        <ele>84.8</ele>
        <time>2013-02-18T20:08:21.000Z</time>
      </trkpt>
      <trkpt lat="48.90484" lon="2.28795">
        <ele>85</ele>
        <time>2013-02-18T20:08:22.000Z</time>
      </trkpt>
      <trkpt lat="48.90491" lon="2.28789">
        <ele>84.4</ele>
        <time>2013-02-18T20:08:24.190Z</time>
      </trkpt>
      <trkpt lat="48.90493" lon="2.28788">
        <ele>83.9</ele>
        <time>2013-02-18T20:08:25.000Z</time>
      </trkpt>
      <trkpt lat="48.90497" lon="2.28786">
        <ele>83.4</ele>
        <time>2013-02-18T20:08:26.000Z</time>
      </trkpt>
      <trkpt lat="48.905" lon="2.28784">
        <ele>82.7</ele>
        <time>2013-02-18T20:08:27.000Z</time>
      </trkpt>
      <trkpt lat="48.90504" lon="2.28781">
        <ele>82.6</ele>
        <time>2013-02-18T20:08:28.000Z</time>
      </trkpt>
      <trkpt lat="48.90507" lon="2.28778">
        <ele>82.6</ele>
        <time>2013-02-18T20:08:29.000Z</time>
      </trkpt>
      <trkpt lat="48.9051" lon="2.28774">
        <ele>82.9</ele>
        <time>2013-02-18T20:08:30.000Z</time>
      </trkpt>
      <trkpt lat="48.90513" lon="2.2877">
        <ele>82.8</ele>
        <time>2013-02-18T20:08:31.000Z</time>
      </trkpt>
      <trkpt lat="48.90516" lon="2.28764">
        <ele>82.2</ele>
        <time>2013-02-18T20:08:32.000Z</time>
      </trkpt>
      <trkpt lat="48.90517" lon="2.28758">
        <ele>83</ele>
        <time>2013-02-18T20:08:33.000Z</time>
      </trkpt>
      <trkpt lat="48.90517" lon="2.28752">
        <ele>81.8</ele>
        <time>2013-02-18T20:08:34.000Z</time>
      </trkpt>
      <trkpt lat="48.90516" lon="2.28747">
        <ele>80.9</ele>
        <time>2013-02-18T20:08:35.000Z</time>
      </trkpt>
      <trkpt lat="48.90515" lon="2.28741">
        <ele>81.1</ele>
        <time>2013-02-18T20:08:36.000Z</time>
      </trkpt>
      <trkpt lat="48.90514" lon="2.28735">
        <ele>80.2</ele>
        <time>2013-02-18T20:08:37.000Z</time>
      </trkpt>
      <trkpt lat="48.90512" lon="2.28729">
        <ele>80.2</ele>
        <time>2013-02-18T20:08:38.000Z</time>
      </trkpt>
      <trkpt lat="48.90509" lon="2.28723">
        <ele>80</ele>
        <time>2013-02-18T20:08:39.000Z</time>
      </trkpt>
      <trkpt lat="48.90505" lon="2.28716">
        <ele>79.9</ele>
        <time>2013-02-18T20:08:40.000Z</time>
      </trkpt>
      <trkpt lat="48.90498" lon="2.28706">
        <ele>80.5</ele>
        <time>2013-02-18T20:08:41.000Z</time>
      </trkpt>
      <trkpt lat="48.90494" lon="2.28701">
        <ele>79.8</ele>
        <time>2013-02-18T20:08:42.000Z</time>
      </trkpt>
      <trkpt lat="48.90491" lon="2.28693">
        <ele>80.1</ele>
        <time>2013-02-18T20:08:43.000Z</time>
      </trkpt>
      <trkpt lat="48.90488" lon="2.28685">
        <ele>80.6</ele>
        <time>2013-02-18T20:08:44.000Z</time>
      </trkpt>
      <trkpt lat="48.90483" lon="2.28677">
        <ele>81.2</ele>
        <time>2013-02-18T20:08:45.000Z</time>
      </trkpt>
      <trkpt lat="48.90479" lon="2.28669">
        <ele>81.5</ele>
        <time>2013-02-18T20:08:46.000Z</time>
      </trkpt>
      <trkpt lat="48.90476" lon="2.28661">
        <ele>81.6</ele>
        <time>2013-02-18T20:08:47.000Z</time>
      </trkpt>
      <trkpt lat="48.90472" lon="2.28654">
        <ele>81.3</ele>
        <time>2013-02-18T20:08:48.000Z</time>
      </trkpt>
      <trkpt lat="48.90467" lon="2.28647">
        <ele>83.1</ele>
        <time>2013-02-18T20:08:49.000Z</time>
      </trkpt>
      <trkpt lat="48.90463" lon="2.28639">
        <ele>82.3</ele>
        <time>2013-02-18T20:08:50.000Z</time>
      </trkpt>
      <trkpt lat="48.90458" lon="2.28631">
        <ele>82.9</ele>
        <time>2013-02-18T20:08:51.000Z</time>
      </trkpt>
      <trkpt lat="48.90453" lon="2.28624">
        <ele>82.1</ele>
        <time>2013-02-18T20:08:52.000Z</time>
      </trkpt>
      <trkpt lat="48.9045" lon="2.28618">
        <ele>82.1</ele>
        <time>2013-02-18T20:08:53.000Z</time>
      </trkpt>
      <trkpt lat="48.90447" lon="2.28611">
        <ele>82.3</ele>
        <time>2013-02-18T20:08:54.000Z</time>
      </trkpt>
      <trkpt lat="48.90443" lon="2.28604">
        <ele>82.3</ele>
        <time>2013-02-18T20:08:55.000Z</time>
      </trkpt>
      <trkpt lat="48.9043" lon="2.28577">
        <ele>81.5</ele>
        <time>2013-02-18T20:08:59.000Z</time>
      </trkpt>
      <trkpt lat="48.90428" lon="2.2857">
        <ele>81.7</ele>
        <time>2013-02-18T20:09:00.000Z</time>
      </trkpt>
      <trkpt lat="48.90424" lon="2.28563">
        <ele>80.6</ele>
        <time>2013-02-18T20:09:01.000Z</time>
      </trkpt>
      <trkpt lat="48.90421" lon="2.28557">
        <ele>80.4</ele>
        <time>2013-02-18T20:09:02.000Z</time>
      </trkpt>
      <trkpt lat="48.90416" lon="2.28551">
        <ele>81.5</ele>
        <time>2013-02-18T20:09:03.000Z</time>
      </trkpt>
      <trkpt lat="48.90413" lon="2.28547">
        <ele>82</ele>
        <time>2013-02-18T20:09:04.000Z</time>
      </trkpt>
      <trkpt lat="48.90411" lon="2.28542">
        <ele>82.1</ele>
        <time>2013-02-18T20:09:05.000Z</time>
      </trkpt>
      <trkpt lat="48.90408" lon="2.28539">
        <ele>81.7</ele>
        <time>2013-02-18T20:09:06.000Z</time>
      </trkpt>
      <trkpt lat="48.90404" lon="2.28535">
        <ele>81.8</ele>
        <time>2013-02-18T20:09:07.000Z</time>
      </trkpt>
      <trkpt lat="48.90401" lon="2.28531">
        <ele>81.9</ele>
        <time>2013-02-18T20:09:08.000Z</time>
      </trkpt>
      <trkpt lat="48.90398" lon="2.28526">
        <ele>81.4</ele>
        <time>2013-02-18T20:09:09.000Z</time>
      </trkpt>
      <trkpt lat="48.90394" lon="2.28523">
        <ele>81.7</ele>
        <time>2013-02-18T20:09:10.000Z</time>
      </trkpt>
      <trkpt lat="48.90392" lon="2.28519">
        <ele>80.4</ele>
        <time>2013-02-18T20:09:11.000Z</time>
      </trkpt>
      <trkpt lat="48.90389" lon="2.28512">
        <ele>81.2</ele>
        <time>2013-02-18T20:09:12.000Z</time>
      </trkpt>
      <trkpt lat="48.90387" lon="2.28507">
        <ele>82.2</ele>
        <time>2013-02-18T20:09:13.000Z</time>
      </trkpt>
      <trkpt lat="48.90383" lon="2.28502">
        <ele>82.4</ele>
        <time>2013-02-18T20:09:14.000Z</time>
      </trkpt>
      <trkpt lat="48.9038" lon="2.28497">
        <ele>81.6</ele>
        <time>2013-02-18T20:09:15.000Z</time>
      </trkpt>
      <trkpt lat="48.90377" lon="2.28493">
        <ele>80.3</ele>
        <time>2013-02-18T20:09:16.000Z</time>
      </trkpt>
      <trkpt lat="48.90374" lon="2.28488">
        <ele>80.8</ele>
        <time>2013-02-18T20:09:17.000Z</time>
      </trkpt>
      <trkpt lat="48.9037" lon="2.28483">
        <ele>80.7</ele>
        <time>2013-02-18T20:09:18.000Z</time>
      </trkpt>
      <trkpt lat="48.90367" lon="2.28478">
        <ele>80.3</ele>
        <time>2013-02-18T20:09:19.000Z</time>
      </trkpt>
      <trkpt lat="48.90364" lon="2.28473">
        <ele>81.3</ele>
        <time>2013-02-18T20:09:20.000Z</time>
      </trkpt>
      <trkpt lat="48.9036" lon="2.28465">
        <ele>81.7</ele>
        <time>2013-02-18T20:09:21.000Z</time>
      </trkpt>
      <trkpt lat="48.90357" lon="2.28459">
        <ele>82.3</ele>
        <time>2013-02-18T20:09:22.000Z</time>
      </trkpt>
      <trkpt lat="48.90353" lon="2.28452">
        <ele>83.2</ele>
        <time>2013-02-18T20:09:23.000Z</time>
      </trkpt>
      <trkpt lat="48.90348" lon="2.28445">
        <ele>83.9</ele>
        <time>2013-02-18T20:09:24.360Z</time>
      </trkpt>
      <trkpt lat="48.90346" lon="2.28441">
        <ele>84</ele>
        <time>2013-02-18T20:09:25.000Z</time>
      </trkpt>
      <trkpt lat="48.90344" lon="2.28432">
        <ele>83.3</ele>
        <time>2013-02-18T20:09:26.000Z</time>
      </trkpt>
      <trkpt lat="48.90341" lon="2.28428">
        <ele>83</ele>
        <time>2013-02-18T20:09:27.000Z</time>
      </trkpt>
      <trkpt lat="48.90337" lon="2.28421">
        <ele>83.7</ele>
        <time>2013-02-18T20:09:28.000Z</time>
      </trkpt>
      <trkpt lat="48.90332" lon="2.28414">
        <ele>84.8</ele>
        <time>2013-02-18T20:09:29.000Z</time>
      </trkpt>
      <trkpt lat="48.90329" lon="2.28408">
        <ele>84.3</ele>
        <time>2013-02-18T20:09:30.000Z</time>
      </trkpt>
      <trkpt lat="48.90325" lon="2.28399">
        <ele>84.5</ele>
        <time>2013-02-18T20:09:31.000Z</time>
      </trkpt>
      <trkpt lat="48.90321" lon="2.28392">
        <ele>84.9</ele>
        <time>2013-02-18T20:09:32.000Z</time>
      </trkpt>
      <trkpt lat="48.90317" lon="2.28386">
        <ele>84.1</ele>
        <time>2013-02-18T20:09:33.000Z</time>
      </trkpt>
      <trkpt lat="48.90314" lon="2.28379">
        <ele>84.1</ele>
        <time>2013-02-18T20:09:34.000Z</time>
      </trkpt>
      <trkpt lat="48.90311" lon="2.28372">
        <ele>84.1</ele>
        <time>2013-02-18T20:09:35.000Z</time>
      </trkpt>
      <trkpt lat="48.90308" lon="2.28363">
        <ele>83.7</ele>
        <time>2013-02-18T20:09:36.000Z</time>
      </trkpt>
      <trkpt lat="48.90305" lon="2.28355">
        <ele>83.9</ele>
        <time>2013-02-18T20:09:37.000Z</time>
      </trkpt>
      <trkpt lat="48.90298" lon="2.28346">
        <ele>84.5</ele>
        <time>2013-02-18T20:09:38.000Z</time>
      </trkpt>
      <trkpt lat="48.90294" lon="2.28339">
        <ele>84.7</ele>
        <time>2013-02-18T20:09:39.000Z</time>
      </trkpt>
      <trkpt lat="48.90291" lon="2.2833">
        <ele>84.7</ele>
        <time>2013-02-18T20:09:40.000Z</time>
      </trkpt>
      <trkpt lat="48.90286" lon="2.28322">
        <ele>83.9</ele>
        <time>2013-02-18T20:09:41.000Z</time>
      </trkpt>
      <trkpt lat="48.90283" lon="2.28314">
        <ele>84.5</ele>
        <time>2013-02-18T20:09:42.000Z</time>
      </trkpt>
      <trkpt lat="48.90278" lon="2.28306">
        <ele>84.4</ele>
        <time>2013-02-18T20:09:43.000Z</time>
      </trkpt>
      <trkpt lat="48.90275" lon="2.283">
        <ele>83.8</ele>
        <time>2013-02-18T20:09:44.000Z</time>
      </trkpt>
      <trkpt lat="48.90273" lon="2.28293">
        <ele>83.6</ele>
        <time>2013-02-18T20:09:45.000Z</time>
      </trkpt>
      <trkpt lat="48.90269" lon="2.28284">
        <ele>82.8</ele>
        <time>2013-02-18T20:09:46.000Z</time>
      </trkpt>
      <trkpt lat="48.90265" lon="2.28275">
        <ele>82.9</ele>
        <time>2013-02-18T20:09:47.000Z</time>
      </trkpt>
      <trkpt lat="48.90262" lon="2.28264">
        <ele>84.1</ele>
        <time>2013-02-18T20:09:48.000Z</time>
      </trkpt>
      <trkpt lat="48.9026" lon="2.28255">
        <ele>84.3</ele>
        <time>2013-02-18T20:09:49.000Z</time>
      </trkpt>
      <trkpt lat="48.90257" lon="2.28246">
        <ele>84.9</ele>
        <time>2013-02-18T20:09:50.000Z</time>
      </trkpt>
      <trkpt lat="48.90255" lon="2.28237">
        <ele>85.6</ele>
        <time>2013-02-18T20:09:51.000Z</time>
      </trkpt>
      <trkpt lat="48.90252" lon="2.28226">
        <ele>85.7</ele>
        <time>2013-02-18T20:09:52.000Z</time>
      </trkpt>
      <trkpt lat="48.90251" lon="2.28219">
        <ele>83.8</ele>
        <time>2013-02-18T20:09:53.000Z</time>
      </trkpt>
      <trkpt lat="48.90248" lon="2.28211">
        <ele>83.1</ele>
        <time>2013-02-18T20:09:54.000Z</time>
      </trkpt>
      <trkpt lat="48.90246" lon="2.28202">
        <ele>83.4</ele>
        <time>2013-02-18T20:09:55.000Z</time>
      </trkpt>
      <trkpt lat="48.90243" lon="2.28193">
        <ele>83.8</ele>
        <time>2013-02-18T20:09:56.000Z</time>
      </trkpt>
      <trkpt lat="48.9024" lon="2.28184">
        <ele>83.6</ele>
        <time>2013-02-18T20:09:57.000Z</time>
      </trkpt>
      <trkpt lat="48.90237" lon="2.28174">
        <ele>83.3</ele>
        <time>2013-02-18T20:09:58.000Z</time>
      </trkpt>
      <trkpt lat="48.90234" lon="2.28164">
        <ele>83</ele>
        <time>2013-02-18T20:09:59.000Z</time>
      </trkpt>
      <trkpt lat="48.90231" lon="2.28155">
        <ele>83.4</ele>
        <time>2013-02-18T20:10:00.000Z</time>
      </trkpt>
      <trkpt lat="48.90228" lon="2.28146">
        <ele>83.5</ele>
        <time>2013-02-18T20:10:01.000Z</time>
      </trkpt>
      <trkpt lat="48.90225" lon="2.28136">
        <ele>84.1</ele>
        <time>2013-02-18T20:10:02.000Z</time>
      </trkpt>
      <trkpt lat="48.90222" lon="2.28126">
        <ele>84.8</ele>
        <time>2013-02-18T20:10:03.000Z</time>
      </trkpt>
      <trkpt lat="48.90219" lon="2.28116">
        <ele>84.4</ele>
        <time>2013-02-18T20:10:04.000Z</time>
      </trkpt>
      <trkpt lat="48.90216" lon="2.28107">
        <ele>84.3</ele>
        <time>2013-02-18T20:10:05.000Z</time>
      </trkpt>
      <trkpt lat="48.90213" lon="2.28099">
        <ele>84.3</ele>
        <time>2013-02-18T20:10:06.000Z</time>
      </trkpt>
      <trkpt lat="48.90212" lon="2.2809">
        <ele>83.9</ele>
        <time>2013-02-18T20:10:07.000Z</time>
      </trkpt>
      <trkpt lat="48.90209" lon="2.2808">
        <ele>85</ele>
        <time>2013-02-18T20:10:08.000Z</time>
      </trkpt>
      <trkpt lat="48.90207" lon="2.28071">
        <ele>85.5</ele>
        <time>2013-02-18T20:10:09.000Z</time>
      </trkpt>
      <trkpt lat="48.90205" lon="2.28061">
        <ele>85.5</ele>
        <time>2013-02-18T20:10:10.000Z</time>
      </trkpt>
      <trkpt lat="48.90203" lon="2.28052">
        <ele>85.5</ele>
        <time>2013-02-18T20:10:11.000Z</time>
      </trkpt>
      <trkpt lat="48.902" lon="2.28042">
        <ele>86.3</ele>
        <time>2013-02-18T20:10:12.000Z</time>
      </trkpt>
      <trkpt lat="48.90198" lon="2.28033">
        <ele>85.2</ele>
        <time>2013-02-18T20:10:13.000Z</time>
      </trkpt>
      <trkpt lat="48.90195" lon="2.28023">
        <ele>85.8</ele>
        <time>2013-02-18T20:10:14.000Z</time>
      </trkpt>
      <trkpt lat="48.90193" lon="2.28012">
        <ele>85</ele>
        <time>2013-02-18T20:10:15.000Z</time>
      </trkpt>
      <trkpt lat="48.9019" lon="2.28001">
        <ele>85.9</ele>
        <time>2013-02-18T20:10:16.000Z</time>
      </trkpt>
      <trkpt lat="48.90187" lon="2.2799">
        <ele>86</ele>
        <time>2013-02-18T20:10:17.000Z</time>
      </trkpt>
      <trkpt lat="48.90184" lon="2.27981">
        <ele>86.9</ele>
        <time>2013-02-18T20:10:18.000Z</time>
      </trkpt>
      <trkpt lat="48.90182" lon="2.27973">
        <ele>86.4</ele>
        <time>2013-02-18T20:10:19.000Z</time>
      </trkpt>
      <trkpt lat="48.9018" lon="2.27964">
        <ele>85.8</ele>
        <time>2013-02-18T20:10:20.000Z</time>
      </trkpt>
      <trkpt lat="48.90177" lon="2.27954">
        <ele>85.9</ele>
        <time>2013-02-18T20:10:21.000Z</time>
      </trkpt>
      <trkpt lat="48.90174" lon="2.27944">
        <ele>85.7</ele>
        <time>2013-02-18T20:10:22.000Z</time>
      </trkpt>
      <trkpt lat="48.90172" lon="2.27935">
        <ele>84.4</ele>
        <time>2013-02-18T20:10:23.000Z</time>
      </trkpt>
      <trkpt lat="48.90171" lon="2.27925">
        <ele>84.3</ele>
        <time>2013-02-18T20:10:24.000Z</time>
      </trkpt>
      <trkpt lat="48.90168" lon="2.27916">
        <ele>84.5</ele>
        <time>2013-02-18T20:10:25.000Z</time>
      </trkpt>
      <trkpt lat="48.90166" lon="2.27907">
        <ele>84.1</ele>
        <time>2013-02-18T20:10:26.000Z</time>
      </trkpt>
      <trkpt lat="48.90165" lon="2.27898">
        <ele>84.5</ele>
        <time>2013-02-18T20:10:27.000Z</time>
      </trkpt>
      <trkpt lat="48.90163" lon="2.27887">
        <ele>84.7</ele>
        <time>2013-02-18T20:10:28.000Z</time>
      </trkpt>
      <trkpt lat="48.90161" lon="2.27878">
        <ele>84.7</ele>
        <time>2013-02-18T20:10:29.000Z</time>
      </trkpt>
      <trkpt lat="48.90159" lon="2.27868">
        <ele>84.1</ele>
        <time>2013-02-18T20:10:30.000Z</time>
      </trkpt>
      <trkpt lat="48.90156" lon="2.2786">
        <ele>83</ele>
        <time>2013-02-18T20:10:31.000Z</time>
      </trkpt>
      <trkpt lat="48.90155" lon="2.27851">
        <ele>82.3</ele>
        <time>2013-02-18T20:10:32.000Z</time>
      </trkpt>
      <trkpt lat="48.90154" lon="2.27842">
        <ele>82.3</ele>
        <time>2013-02-18T20:10:33.000Z</time>
      </trkpt>
      <trkpt lat="48.90152" lon="2.27833">
        <ele>81.9</ele>
        <time>2013-02-18T20:10:34.000Z</time>
      </trkpt>
      <trkpt lat="48.90149" lon="2.27823">
        <ele>82.2</ele>
        <time>2013-02-18T20:10:35.000Z</time>
      </trkpt>
      <trkpt lat="48.90146" lon="2.27815">
        <ele>81.7</ele>
        <time>2013-02-18T20:10:36.000Z</time>
      </trkpt>
      <trkpt lat="48.90145" lon="2.27806">
        <ele>82.5</ele>
        <time>2013-02-18T20:10:37.000Z</time>
      </trkpt>
      <trkpt lat="48.90143" lon="2.27797">
        <ele>83.6</ele>
        <time>2013-02-18T20:10:38.000Z</time>
      </trkpt>
      <trkpt lat="48.90142" lon="2.27787">
        <ele>84</ele>
        <time>2013-02-18T20:10:39.000Z</time>
      </trkpt>
      <trkpt lat="48.9014" lon="2.27779">
        <ele>83.2</ele>
        <time>2013-02-18T20:10:40.000Z</time>
      </trkpt>
      <trkpt lat="48.90138" lon="2.27771">
        <ele>83.2</ele>
        <time>2013-02-18T20:10:41.000Z</time>
      </trkpt>
      <trkpt lat="48.90137" lon="2.27761">
        <ele>82.8</ele>
        <time>2013-02-18T20:10:42.000Z</time>
      </trkpt>
      <trkpt lat="48.90136" lon="2.27752">
        <ele>83.4</ele>
        <time>2013-02-18T20:10:43.000Z</time>
      </trkpt>
      <trkpt lat="48.90135" lon="2.27743">
        <ele>83.4</ele>
        <time>2013-02-18T20:10:44.000Z</time>
      </trkpt>
      <trkpt lat="48.90135" lon="2.27734">
        <ele>83.2</ele>
        <time>2013-02-18T20:10:45.000Z</time>
      </trkpt>
      <trkpt lat="48.90132" lon="2.27725">
        <ele>83.2</ele>
        <time>2013-02-18T20:10:46.000Z</time>
      </trkpt>
      <trkpt lat="48.9013" lon="2.27715">
        <ele>83.8</ele>
        <time>2013-02-18T20:10:47.000Z</time>
      </trkpt>
      <trkpt lat="48.90129" lon="2.27706">
        <ele>83.6</ele>
        <time>2013-02-18T20:10:48.000Z</time>
      </trkpt>
      <trkpt lat="48.90126" lon="2.27696">
        <ele>84.3</ele>
        <time>2013-02-18T20:10:49.000Z</time>
      </trkpt>
      <trkpt lat="48.90126" lon="2.27688">
        <ele>83.5</ele>
        <time>2013-02-18T20:10:50.000Z</time>
      </trkpt>
      <trkpt lat="48.90124" lon="2.27679">
        <ele>83.6</ele>
        <time>2013-02-18T20:10:51.000Z</time>
      </trkpt>
      <trkpt lat="48.90122" lon="2.2767">
        <ele>83.7</ele>
        <time>2013-02-18T20:10:52.000Z</time>
      </trkpt>
      <trkpt lat="48.90119" lon="2.27662">
        <ele>84.2</ele>
        <time>2013-02-18T20:10:53.000Z</time>
      </trkpt>
      <trkpt lat="48.90114" lon="2.27655">
        <ele>84.6</ele>
        <time>2013-02-18T20:10:54.000Z</time>
      </trkpt>
      <trkpt lat="48.90111" lon="2.27646">
        <ele>84.3</ele>
        <time>2013-02-18T20:10:55.000Z</time>
      </trkpt>
      <trkpt lat="48.90108" lon="2.27637">
        <ele>84.1</ele>
        <time>2013-02-18T20:10:56.000Z</time>
      </trkpt>
      <trkpt lat="48.90105" lon="2.2763">
        <ele>84</ele>
        <time>2013-02-18T20:10:57.000Z</time>
      </trkpt>
      <trkpt lat="48.90102" lon="2.27621">
        <ele>84</ele>
        <time>2013-02-18T20:10:58.000Z</time>
      </trkpt>
      <trkpt lat="48.901" lon="2.27612">
        <ele>84.1</ele>
        <time>2013-02-18T20:10:59.000Z</time>
      </trkpt>
      <trkpt lat="48.90097" lon="2.27605">
        <ele>83.5</ele>
        <time>2013-02-18T20:11:00.000Z</time>
      </trkpt>
      <trkpt lat="48.90094" lon="2.27598">
        <ele>83.5</ele>
        <time>2013-02-18T20:11:01.000Z</time>
      </trkpt>
      <trkpt lat="48.90092" lon="2.2759">
        <ele>83.1</ele>
        <time>2013-02-18T20:11:02.000Z</time>
      </trkpt>
      <trkpt lat="48.90089" lon="2.27583">
        <ele>82.9</ele>
        <time>2013-02-18T20:11:03.000Z</time>
      </trkpt>
      <trkpt lat="48.90088" lon="2.27576">
        <ele>82.5</ele>
        <time>2013-02-18T20:11:04.000Z</time>
      </trkpt>
      <trkpt lat="48.90085" lon="2.27567">
        <ele>83</ele>
        <time>2013-02-18T20:11:05.000Z</time>
      </trkpt>
      <trkpt lat="48.90082" lon="2.27558">
        <ele>82.9</ele>
        <time>2013-02-18T20:11:06.000Z</time>
      </trkpt>
      <trkpt lat="48.9008" lon="2.27551">
        <ele>82.4</ele>
        <time>2013-02-18T20:11:07.000Z</time>
      </trkpt>
      <trkpt lat="48.90077" lon="2.27544">
        <ele>82</ele>
        <time>2013-02-18T20:11:08.000Z</time>
      </trkpt>
      <trkpt lat="48.90076" lon="2.27538">
        <ele>81.2</ele>
        <time>2013-02-18T20:11:09.000Z</time>
      </trkpt>
      <trkpt lat="48.90074" lon="2.27533">
        <ele>81.8</ele>
        <time>2013-02-18T20:11:10.000Z</time>
      </trkpt>
      <trkpt lat="48.90073" lon="2.27528">
        <ele>81.3</ele>
        <time>2013-02-18T20:11:11.000Z</time>
      </trkpt>
      <trkpt lat="48.90072" lon="2.27523">
        <ele>81.6</ele>
        <time>2013-02-18T20:11:12.000Z</time>
      </trkpt>
      <trkpt lat="48.90073" lon="2.27517">
        <ele>81.9</ele>
        <time>2013-02-18T20:11:13.000Z</time>
      </trkpt>
      <trkpt lat="48.90075" lon="2.27513">
        <ele>81.8</ele>
        <time>2013-02-18T20:11:14.000Z</time>
      </trkpt>
      <trkpt lat="48.90079" lon="2.2751">
        <ele>82</ele>
        <time>2013-02-18T20:11:16.000Z</time>
      </trkpt>
      <trkpt lat="48.90081" lon="2.27508">
        <ele>81</ele>
        <time>2013-02-18T20:11:17.000Z</time>
      </trkpt>
      <trkpt lat="48.90084" lon="2.27505">
        <ele>80</ele>
        <time>2013-02-18T20:11:26.000Z</time>
      </trkpt>
      <trkpt lat="48.90084" lon="2.27504">
        <ele>80</ele>
        <time>2013-02-18T20:11:27.000Z</time>
      </trkpt>
      <trkpt lat="48.90085" lon="2.27497">
        <ele>83.3</ele>
        <time>2013-02-18T20:11:32.000Z</time>
      </trkpt>
      <trkpt lat="48.90085" lon="2.27497">
        <ele>83.4</ele>
        <time>2013-02-18T20:11:33.000Z</time>
      </trkpt>
      <trkpt lat="48.90088" lon="2.27492">
        <ele>80.2</ele>
        <time>2013-02-18T20:11:39.000Z</time>
      </trkpt>
      <trkpt lat="48.90088" lon="2.27491">
        <ele>80.5</ele>
        <time>2013-02-18T20:11:40.000Z</time>
      </trkpt>
      <trkpt lat="48.90091" lon="2.27488">
        <ele>82</ele>
        <time>2013-02-18T20:11:43.000Z</time>
      </trkpt>
      <trkpt lat="48.90092" lon="2.27488">
        <ele>83.5</ele>
        <time>2013-02-18T20:11:44.000Z</time>
      </trkpt>
      <trkpt lat="48.90096" lon="2.27488">
        <ele>84.3</ele>
        <time>2013-02-18T20:12:02.000Z</time>
      </trkpt>
      <trkpt lat="48.90097" lon="2.27488">
        <ele>84.1</ele>
        <time>2013-02-18T20:12:03.000Z</time>
      </trkpt>
      <trkpt lat="48.90099" lon="2.27486">
        <ele>84.2</ele>
        <time>2013-02-18T20:12:05.000Z</time>
      </trkpt>
      <trkpt lat="48.90101" lon="2.27484">
        <ele>83.9</ele>
        <time>2013-02-18T20:12:06.000Z</time>
      </trkpt>
      <trkpt lat="48.90104" lon="2.27481">
        <ele>83.4</ele>
        <time>2013-02-18T20:12:08.000Z</time>
      </trkpt>
      <trkpt lat="48.90106" lon="2.27479">
        <ele>83.7</ele>
        <time>2013-02-18T20:12:09.000Z</time>
      </trkpt>
      <trkpt lat="48.90108" lon="2.27476">
        <ele>84.5</ele>
        <time>2013-02-18T20:12:10.000Z</time>
      </trkpt>
      <trkpt lat="48.9011" lon="2.27474">
        <ele>85</ele>
        <time>2013-02-18T20:12:11.000Z</time>
      </trkpt>
      <trkpt lat="48.90113" lon="2.27471">
        <ele>84.7</ele>
        <time>2013-02-18T20:12:12.000Z</time>
      </trkpt>
      <trkpt lat="48.90115" lon="2.27468">
        <ele>84.7</ele>
        <time>2013-02-18T20:12:13.000Z</time>
      </trkpt>
      <trkpt lat="48.90117" lon="2.27466">
        <ele>85.1</ele>
        <time>2013-02-18T20:12:14.000Z</time>
      </trkpt>
      <trkpt lat="48.9012" lon="2.27462">
        <ele>86.2</ele>
        <time>2013-02-18T20:12:15.000Z</time>
      </trkpt>
      <trkpt lat="48.90122" lon="2.27458">
        <ele>86.6</ele>
        <time>2013-02-18T20:12:16.000Z</time>
      </trkpt>
      <trkpt lat="48.90124" lon="2.27456">
        <ele>86.7</ele>
        <time>2013-02-18T20:12:17.000Z</time>
      </trkpt>
      <trkpt lat="48.90127" lon="2.27453">
        <ele>87.1</ele>
        <time>2013-02-18T20:12:18.000Z</time>
      </trkpt>
      <trkpt lat="48.90129" lon="2.2745">
        <ele>87</ele>
        <time>2013-02-18T20:12:19.000Z</time>
      </trkpt>
      <trkpt lat="48.90131" lon="2.27447">
        <ele>87.5</ele>
        <time>2013-02-18T20:12:20.000Z</time>
      </trkpt>
      <trkpt lat="48.90133" lon="2.27444">
        <ele>87.6</ele>
        <time>2013-02-18T20:12:21.000Z</time>
      </trkpt>
      <trkpt lat="48.90135" lon="2.27441">
        <ele>87.8</ele>
        <time>2013-02-18T20:12:22.000Z</time>
      </trkpt>
      <trkpt lat="48.90139" lon="2.27436">
        <ele>88</ele>
        <time>2013-02-18T20:12:24.070Z</time>
      </trkpt>
      <trkpt lat="48.90141" lon="2.27433">
        <ele>89.4</ele>
        <time>2013-02-18T20:12:25.000Z</time>
      </trkpt>
      <trkpt lat="48.90143" lon="2.27431">
        <ele>89</ele>
        <time>2013-02-18T20:12:26.000Z</time>
      </trkpt>
      <trkpt lat="48.90145" lon="2.27429">
        <ele>88.2</ele>
        <time>2013-02-18T20:12:27.000Z</time>
      </trkpt>
      <trkpt lat="48.90148" lon="2.27428">
        <ele>89.6</ele>
        <time>2013-02-18T20:12:28.000Z</time>
      </trkpt>
      <trkpt lat="48.9015" lon="2.27427">
        <ele>89.6</ele>
        <time>2013-02-18T20:12:29.000Z</time>
      </trkpt>
      <trkpt lat="48.90153" lon="2.27425">
        <ele>89.7</ele>
        <time>2013-02-18T20:12:30.000Z</time>
      </trkpt>
      <trkpt lat="48.90156" lon="2.27423">
        <ele>89.9</ele>
        <time>2013-02-18T20:12:32.000Z</time>
      </trkpt>
      <trkpt lat="48.90157" lon="2.27422">
        <ele>90.6</ele>
        <time>2013-02-18T20:12:33.000Z</time>
      </trkpt>
      <trkpt lat="48.9016" lon="2.27418">
        <ele>91</ele>
        <time>2013-02-18T20:12:35.000Z</time>
      </trkpt>
      <trkpt lat="48.90161" lon="2.27416">
        <ele>90.9</ele>
        <time>2013-02-18T20:12:36.000Z</time>
      </trkpt>
      <trkpt lat="48.90163" lon="2.27414">
        <ele>90.9</ele>
        <time>2013-02-18T20:12:37.000Z</time>
      </trkpt>
      <trkpt lat="48.90165" lon="2.27411">
        <ele>91.1</ele>
        <time>2013-02-18T20:12:38.000Z</time>
      </trkpt>
      <trkpt lat="48.90167" lon="2.27409">
        <ele>91.4</ele>
        <time>2013-02-18T20:12:39.000Z</time>
      </trkpt>
      <trkpt lat="48.90169" lon="2.27407">
        <ele>91.7</ele>
        <time>2013-02-18T20:12:40.000Z</time>
      </trkpt>
      <trkpt lat="48.90172" lon="2.27403">
        <ele>92</ele>
        <time>2013-02-18T20:12:42.000Z</time>
      </trkpt>
      <trkpt lat="48.90173" lon="2.27402">
        <ele>92.1</ele>
        <time>2013-02-18T20:12:43.000Z</time>
      </trkpt>
      <trkpt lat="48.90175" lon="2.274">
        <ele>93.4</ele>
        <time>2013-02-18T20:12:45.000Z</time>
      </trkpt>
      <trkpt lat="48.90176" lon="2.27399">
        <ele>93.5</ele>
        <time>2013-02-18T20:12:46.000Z</time>
      </trkpt>
      <trkpt lat="48.90179" lon="2.27396">
        <ele>94.1</ele>
        <time>2013-02-18T20:12:47.000Z</time>
      </trkpt>
      <trkpt lat="48.90181" lon="2.27394">
        <ele>94.6</ele>
        <time>2013-02-18T20:12:48.000Z</time>
      </trkpt>
      <trkpt lat="48.90183" lon="2.27391">
        <ele>95.4</ele>
        <time>2013-02-18T20:12:49.000Z</time>
      </trkpt>
      <trkpt lat="48.90184" lon="2.27389">
        <ele>96.2</ele>
        <time>2013-02-18T20:12:50.000Z</time>
      </trkpt>
      <trkpt lat="48.90187" lon="2.27386">
        <ele>96.5</ele>
        <time>2013-02-18T20:12:51.000Z</time>
      </trkpt>
      <trkpt lat="48.90188" lon="2.27384">
        <ele>97</ele>
        <time>2013-02-18T20:12:52.000Z</time>
      </trkpt>
      <trkpt lat="48.9019" lon="2.27382">
        <ele>97.9</ele>
        <time>2013-02-18T20:12:53.000Z</time>
      </trkpt>
      <trkpt lat="48.90192" lon="2.27379">
        <ele>98.4</ele>
        <time>2013-02-18T20:12:54.000Z</time>
      </trkpt>
      <trkpt lat="48.90194" lon="2.27377">
        <ele>98.7</ele>
        <time>2013-02-18T20:12:55.000Z</time>
      </trkpt>
      <trkpt lat="48.90196" lon="2.27376">
        <ele>99.8</ele>
        <time>2013-02-18T20:12:56.000Z</time>
      </trkpt>
      <trkpt lat="48.902" lon="2.27374">
        <ele>100.5</ele>
        <time>2013-02-18T20:13:00.000Z</time>
      </trkpt>
      <trkpt lat="48.902" lon="2.27373">
        <ele>100.9</ele>
        <time>2013-02-18T20:13:01.000Z</time>
      </trkpt>
      <trkpt lat="48.90204" lon="2.2737">
        <ele>101.3</ele>
        <time>2013-02-18T20:13:05.000Z</time>
      </trkpt>
      <trkpt lat="48.90205" lon="2.2737">
        <ele>100.7</ele>
        <time>2013-02-18T20:13:06.000Z</time>
      </trkpt>
      <trkpt lat="48.90208" lon="2.27373">
        <ele>95.9</ele>
        <time>2013-02-18T20:13:11.000Z</time>
      </trkpt>
      <trkpt lat="48.90208" lon="2.27375">
        <ele>95.3</ele>
        <time>2013-02-18T20:13:12.000Z</time>
      </trkpt>
      <trkpt lat="48.9021" lon="2.27379">
        <ele>93.3</ele>
        <time>2013-02-18T20:13:16.000Z</time>
      </trkpt>
      <trkpt lat="48.90211" lon="2.2738">
        <ele>93.2</ele>
        <time>2013-02-18T20:13:17.000Z</time>
      </trkpt>
      <trkpt lat="48.90214" lon="2.27384">
        <ele>92.3</ele>
        <time>2013-02-18T20:13:21.000Z</time>
      </trkpt>
      <trkpt lat="48.90214" lon="2.27385">
        <ele>91.4</ele>
        <time>2013-02-18T20:13:22.000Z</time>
      </trkpt>
      <trkpt lat="48.90218" lon="2.27388">
        <ele>91.3</ele>
        <time>2013-02-18T20:13:27.000Z</time>
      </trkpt>
      <trkpt lat="48.90218" lon="2.27389">
        <ele>91.1</ele>
        <time>2013-02-18T20:13:28.000Z</time>
      </trkpt>
      <trkpt lat="48.90222" lon="2.27388">
        <ele>90.9</ele>
        <time>2013-02-18T20:13:35.000Z</time>
      </trkpt>
      <trkpt lat="48.90223" lon="2.27388">
        <ele>90.6</ele>
        <time>2013-02-18T20:13:36.000Z</time>
      </trkpt>
      <trkpt lat="48.90226" lon="2.27391">
        <ele>89.3</ele>
        <time>2013-02-18T20:13:55.000Z</time>
      </trkpt>
      <trkpt lat="48.90227" lon="2.27394">
        <ele>88.7</ele>
        <time>2013-02-18T20:13:56.000Z</time>
      </trkpt>
      <trkpt lat="48.90229" lon="2.27398">
        <ele>87.3</ele>
        <time>2013-02-18T20:13:58.000Z</time>
      </trkpt>
      <trkpt lat="48.9023" lon="2.27399">
        <ele>87.6</ele>
        <time>2013-02-18T20:13:59.000Z</time>
      </trkpt>
      <trkpt lat="48.90233" lon="2.27402">
        <ele>87</ele>
        <time>2013-02-18T20:14:02.000Z</time>
      </trkpt>
      <trkpt lat="48.90234" lon="2.27404">
        <ele>86.3</ele>
        <time>2013-02-18T20:14:03.000Z</time>
      </trkpt>
      <trkpt lat="48.90236" lon="2.27407">
        <ele>86.2</ele>
        <time>2013-02-18T20:14:05.000Z</time>
      </trkpt>
      <trkpt lat="48.90237" lon="2.27409">
        <ele>85.7</ele>
        <time>2013-02-18T20:14:06.000Z</time>
      </trkpt>
      <trkpt lat="48.90238" lon="2.27413">
        <ele>86.1</ele>
        <time>2013-02-18T20:14:07.000Z</time>
      </trkpt>
      <trkpt lat="48.9024" lon="2.27416">
        <ele>85</ele>
        <time>2013-02-18T20:14:08.000Z</time>
      </trkpt>
      <trkpt lat="48.90241" lon="2.27419">
        <ele>85.7</ele>
        <time>2013-02-18T20:14:09.000Z</time>
      </trkpt>
      <trkpt lat="48.90243" lon="2.27422">
        <ele>85.8</ele>
        <time>2013-02-18T20:14:10.000Z</time>
      </trkpt>
      <trkpt lat="48.90245" lon="2.27425">
        <ele>86</ele>
        <time>2013-02-18T20:14:11.000Z</time>
      </trkpt>
      <trkpt lat="48.90247" lon="2.27429">
        <ele>85.3</ele>
        <time>2013-02-18T20:14:12.000Z</time>
      </trkpt>
      <trkpt lat="48.90249" lon="2.27431">
        <ele>84.5</ele>
        <time>2013-02-18T20:14:13.000Z</time>
      </trkpt>
      <trkpt lat="48.90251" lon="2.27434">
        <ele>85.4</ele>
        <time>2013-02-18T20:14:14.000Z</time>
      </trkpt>
      <trkpt lat="48.90252" lon="2.27437">
        <ele>85.4</ele>
        <time>2013-02-18T20:14:15.000Z</time>
      </trkpt>
      <trkpt lat="48.90254" lon="2.2744">
        <ele>86.2</ele>
        <time>2013-02-18T20:14:16.000Z</time>
      </trkpt>
      <trkpt lat="48.90256" lon="2.27443">
        <ele>85.1</ele>
        <time>2013-02-18T20:14:18.000Z</time>
      </trkpt>
      <trkpt lat="48.90257" lon="2.27445">
        <ele>84.7</ele>
        <time>2013-02-18T20:14:19.000Z</time>
      </trkpt>
      <trkpt lat="48.90259" lon="2.27449">
        <ele>84.1</ele>
        <time>2013-02-18T20:14:21.000Z</time>
      </trkpt>
      <trkpt lat="48.90259" lon="2.27452">
        <ele>84.1</ele>
        <time>2013-02-18T20:14:22.000Z</time>
      </trkpt>
      <trkpt lat="48.90258" lon="2.27457">
        <ele>83.5</ele>
        <time>2013-02-18T20:14:24.000Z</time>
      </trkpt>
      <trkpt lat="48.90257" lon="2.27459">
        <ele>83.2</ele>
        <time>2013-02-18T20:14:25.000Z</time>
      </trkpt>
      <trkpt lat="48.90257" lon="2.27466">
        <ele>83.7</ele>
        <time>2013-02-18T20:14:53.000Z</time>
      </trkpt>
      <trkpt lat="48.90257" lon="2.27468">
        <ele>83.5</ele>
        <time>2013-02-18T20:14:54.000Z</time>
      </trkpt>
      <trkpt lat="48.90256" lon="2.27472">
        <ele>82.8</ele>
        <time>2013-02-18T20:15:01.000Z</time>
      </trkpt>
      <trkpt lat="48.90255" lon="2.27475">
        <ele>82</ele>
        <time>2013-02-18T20:15:02.000Z</time>
      </trkpt>
      <trkpt lat="48.90253" lon="2.27477">
        <ele>80.3</ele>
        <time>2013-02-18T20:15:03.000Z</time>
      </trkpt>
      <trkpt lat="48.9025" lon="2.27481">
        <ele>79.5</ele>
        <time>2013-02-18T20:15:04.000Z</time>
      </trkpt>
      <trkpt lat="48.90247" lon="2.27484">
        <ele>77.8</ele>
        <time>2013-02-18T20:15:05.000Z</time>
      </trkpt>
      <trkpt lat="48.90243" lon="2.27488">
        <ele>77.1</ele>
        <time>2013-02-18T20:15:06.000Z</time>
      </trkpt>
      <trkpt lat="48.9024" lon="2.27491">
        <ele>76.8</ele>
        <time>2013-02-18T20:15:07.000Z</time>
      </trkpt>
      <trkpt lat="48.90236" lon="2.27495">
        <ele>76.8</ele>
        <time>2013-02-18T20:15:08.000Z</time>
      </trkpt>
      <trkpt lat="48.90233" lon="2.27499">
        <ele>76</ele>
        <time>2013-02-18T20:15:09.000Z</time>
      </trkpt>
      <trkpt lat="48.90228" lon="2.27505">
        <ele>75.7</ele>
        <time>2013-02-18T20:15:10.000Z</time>
      </trkpt>
      <trkpt lat="48.90223" lon="2.2751">
        <ele>75.3</ele>
        <time>2013-02-18T20:15:11.000Z</time>
      </trkpt>
      <trkpt lat="48.90214" lon="2.27521">
        <ele>74.6</ele>
        <time>2013-02-18T20:15:12.000Z</time>
      </trkpt>
      <trkpt lat="48.90209" lon="2.27526">
        <ele>75.1</ele>
        <time>2013-02-18T20:15:13.000Z</time>
      </trkpt>
      <trkpt lat="48.90204" lon="2.2753">
        <ele>74.8</ele>
        <time>2013-02-18T20:15:14.000Z</time>
      </trkpt>
      <trkpt lat="48.902" lon="2.27536">
        <ele>74.7</ele>
        <time>2013-02-18T20:15:15.000Z</time>
      </trkpt>
      <trkpt lat="48.90195" lon="2.27541">
        <ele>74.7</ele>
        <time>2013-02-18T20:15:16.000Z</time>
      </trkpt>
      <trkpt lat="48.9019" lon="2.27547">
        <ele>75.5</ele>
        <time>2013-02-18T20:15:17.000Z</time>
      </trkpt>
      <trkpt lat="48.90184" lon="2.27554">
        <ele>74.8</ele>
        <time>2013-02-18T20:15:18.000Z</time>
      </trkpt>
      <trkpt lat="48.9018" lon="2.2756">
        <ele>74.6</ele>
        <time>2013-02-18T20:15:19.000Z</time>
      </trkpt>
      <trkpt lat="48.90174" lon="2.27567">
        <ele>75.5</ele>
        <time>2013-02-18T20:15:20.000Z</time>
      </trkpt>
      <trkpt lat="48.90169" lon="2.27574">
        <ele>75.9</ele>
        <time>2013-02-18T20:15:21.000Z</time>
      </trkpt>
      <trkpt lat="48.90163" lon="2.2758">
        <ele>76.3</ele>
        <time>2013-02-18T20:15:22.000Z</time>
      </trkpt>
      <trkpt lat="48.90151" lon="2.27592">
        <ele>77.4</ele>
        <time>2013-02-18T20:15:23.946Z</time>
      </trkpt>
      <trkpt lat="48.90145" lon="2.27598">
        <ele>77.5</ele>
        <time>2013-02-18T20:15:25.000Z</time>
      </trkpt>
      <trkpt lat="48.9014" lon="2.27602">
        <ele>77.4</ele>
        <time>2013-02-18T20:15:26.000Z</time>
      </trkpt>
      <trkpt lat="48.90135" lon="2.27608">
        <ele>77.4</ele>
        <time>2013-02-18T20:15:27.000Z</time>
      </trkpt>
      <trkpt lat="48.90128" lon="2.27614">
        <ele>77.4</ele>
        <time>2013-02-18T20:15:28.000Z</time>
      </trkpt>
      <trkpt lat="48.90122" lon="2.27622">
        <ele>77.7</ele>
        <time>2013-02-18T20:15:29.000Z</time>
      </trkpt>
      <trkpt lat="48.90117" lon="2.27627">
        <ele>77.8</ele>
        <time>2013-02-18T20:15:30.000Z</time>
      </trkpt>
      <trkpt lat="48.90111" lon="2.27634">
        <ele>77.1</ele>
        <time>2013-02-18T20:15:31.000Z</time>
      </trkpt>
      <trkpt lat="48.90104" lon="2.27644">
        <ele>78.5</ele>
        <time>2013-02-18T20:15:32.000Z</time>
      </trkpt>
      <trkpt lat="48.901" lon="2.2765">
        <ele>78.5</ele>
        <time>2013-02-18T20:15:33.000Z</time>
      </trkpt>
      <trkpt lat="48.90094" lon="2.27656">
        <ele>78.5</ele>
        <time>2013-02-18T20:15:34.000Z</time>
      </trkpt>
      <trkpt lat="48.9009" lon="2.27661">
        <ele>79</ele>
        <time>2013-02-18T20:15:35.000Z</time>
      </trkpt>
      <trkpt lat="48.90085" lon="2.27667">
        <ele>77.6</ele>
        <time>2013-02-18T20:15:36.000Z</time>
      </trkpt>
      <trkpt lat="48.90081" lon="2.27674">
        <ele>76.4</ele>
        <time>2013-02-18T20:15:37.000Z</time>
      </trkpt>
      <trkpt lat="48.90075" lon="2.27679">
        <ele>77.2</ele>
        <time>2013-02-18T20:15:38.000Z</time>
      </trkpt>
      <trkpt lat="48.9007" lon="2.27685">
        <ele>76.8</ele>
        <time>2013-02-18T20:15:39.000Z</time>
      </trkpt>
      <trkpt lat="48.90065" lon="2.27691">
        <ele>76.7</ele>
        <time>2013-02-18T20:15:40.000Z</time>
      </trkpt>
      <trkpt lat="48.9006" lon="2.27695">
        <ele>76.1</ele>
        <time>2013-02-18T20:15:41.000Z</time>
      </trkpt>
      <trkpt lat="48.90055" lon="2.27701">
        <ele>76</ele>
        <time>2013-02-18T20:15:42.000Z</time>
      </trkpt>
      <trkpt lat="48.9005" lon="2.27706">
        <ele>75.2</ele>
        <time>2013-02-18T20:15:43.000Z</time>
      </trkpt>
      <trkpt lat="48.90045" lon="2.27712">
        <ele>75.2</ele>
        <time>2013-02-18T20:15:44.000Z</time>
      </trkpt>
      <trkpt lat="48.9004" lon="2.27718">
        <ele>75.7</ele>
        <time>2013-02-18T20:15:45.000Z</time>
      </trkpt>
      <trkpt lat="48.90035" lon="2.27724">
        <ele>75.7</ele>
        <time>2013-02-18T20:15:46.000Z</time>
      </trkpt>
      <trkpt lat="48.9003" lon="2.2773">
        <ele>75.9</ele>
        <time>2013-02-18T20:15:47.000Z</time>
      </trkpt>
      <trkpt lat="48.90025" lon="2.27735">
        <ele>75.9</ele>
        <time>2013-02-18T20:15:48.000Z</time>
      </trkpt>
      <trkpt lat="48.90021" lon="2.27741">
        <ele>75.7</ele>
        <time>2013-02-18T20:15:49.000Z</time>
      </trkpt>
      <trkpt lat="48.90016" lon="2.27746">
        <ele>75.7</ele>
        <time>2013-02-18T20:15:50.000Z</time>
      </trkpt>
      <trkpt lat="48.90011" lon="2.27751">
        <ele>75.6</ele>
        <time>2013-02-18T20:15:51.000Z</time>
      </trkpt>
      <trkpt lat="48.90007" lon="2.27757">
        <ele>73.3</ele>
        <time>2013-02-18T20:15:52.000Z</time>
      </trkpt>
      <trkpt lat="48.90002" lon="2.27762">
        <ele>73.3</ele>
        <time>2013-02-18T20:15:53.000Z</time>
      </trkpt>
      <trkpt lat="48.89997" lon="2.27767">
        <ele>73.2</ele>
        <time>2013-02-18T20:15:54.000Z</time>
      </trkpt>
      <trkpt lat="48.89993" lon="2.27772">
        <ele>73.2</ele>
        <time>2013-02-18T20:15:55.000Z</time>
      </trkpt>
      <trkpt lat="48.89988" lon="2.27777">
        <ele>73.2</ele>
        <time>2013-02-18T20:15:56.000Z</time>
      </trkpt>
      <trkpt lat="48.89981" lon="2.27785">
        <ele>73.5</ele>
        <time>2013-02-18T20:15:57.000Z</time>
      </trkpt>
      <trkpt lat="48.89976" lon="2.27791">
        <ele>73.5</ele>
        <time>2013-02-18T20:15:58.000Z</time>
      </trkpt>
      <trkpt lat="48.89971" lon="2.27796">
        <ele>74.9</ele>
        <time>2013-02-18T20:15:59.000Z</time>
      </trkpt>
      <trkpt lat="48.89966" lon="2.27801">
        <ele>74.8</ele>
        <time>2013-02-18T20:16:00.000Z</time>
      </trkpt>
      <trkpt lat="48.89962" lon="2.27806">
        <ele>74</ele>
        <time>2013-02-18T20:16:01.000Z</time>
      </trkpt>
      <trkpt lat="48.89958" lon="2.27811">
        <ele>74</ele>
        <time>2013-02-18T20:16:02.000Z</time>
      </trkpt>
      <trkpt lat="48.89955" lon="2.27814">
        <ele>73.6</ele>
        <time>2013-02-18T20:16:03.000Z</time>
      </trkpt>
      <trkpt lat="48.89951" lon="2.27819">
        <ele>73.5</ele>
        <time>2013-02-18T20:16:04.000Z</time>
      </trkpt>
      <trkpt lat="48.89947" lon="2.27823">
        <ele>73.9</ele>
        <time>2013-02-18T20:16:05.000Z</time>
      </trkpt>
      <trkpt lat="48.89942" lon="2.27828">
        <ele>72.9</ele>
        <time>2013-02-18T20:16:06.000Z</time>
      </trkpt>
      <trkpt lat="48.89939" lon="2.27834">
        <ele>73.2</ele>
        <time>2013-02-18T20:16:07.000Z</time>
      </trkpt>
      <trkpt lat="48.89935" lon="2.27838">
        <ele>73.7</ele>
        <time>2013-02-18T20:16:08.000Z</time>
      </trkpt>
      <trkpt lat="48.89931" lon="2.27842">
        <ele>73.2</ele>
        <time>2013-02-18T20:16:09.000Z</time>
      </trkpt>
      <trkpt lat="48.89927" lon="2.27847">
        <ele>73.4</ele>
        <time>2013-02-18T20:16:10.000Z</time>
      </trkpt>
      <trkpt lat="48.89923" lon="2.27853">
        <ele>74.2</ele>
        <time>2013-02-18T20:16:11.000Z</time>
      </trkpt>
      <trkpt lat="48.89919" lon="2.27857">
        <ele>74.2</ele>
        <time>2013-02-18T20:16:12.000Z</time>
      </trkpt>
      <trkpt lat="48.89914" lon="2.27864">
        <ele>74.9</ele>
        <time>2013-02-18T20:16:13.000Z</time>
      </trkpt>
      <trkpt lat="48.89909" lon="2.27869">
        <ele>74.8</ele>
        <time>2013-02-18T20:16:14.000Z</time>
      </trkpt>
      <trkpt lat="48.89904" lon="2.27875">
        <ele>75.3</ele>
        <time>2013-02-18T20:16:15.000Z</time>
      </trkpt>
      <trkpt lat="48.89899" lon="2.2788">
        <ele>75.3</ele>
        <time>2013-02-18T20:16:16.000Z</time>
      </trkpt>
      <trkpt lat="48.89893" lon="2.27886">
        <ele>76.8</ele>
        <time>2013-02-18T20:16:17.000Z</time>
      </trkpt>
      <trkpt lat="48.89888" lon="2.27891">
        <ele>76.8</ele>
        <time>2013-02-18T20:16:18.000Z</time>
      </trkpt>
      <trkpt lat="48.89883" lon="2.27895">
        <ele>76.9</ele>
        <time>2013-02-18T20:16:19.000Z</time>
      </trkpt>
      <trkpt lat="48.89878" lon="2.279">
        <ele>76.9</ele>
        <time>2013-02-18T20:16:20.000Z</time>
      </trkpt>
      <trkpt lat="48.89872" lon="2.27908">
        <ele>76.9</ele>
        <time>2013-02-18T20:16:21.000Z</time>
      </trkpt>
      <trkpt lat="48.89867" lon="2.27907">
        <ele>77</ele>
        <time>2013-02-18T20:16:22.000Z</time>
      </trkpt>
      <trkpt lat="48.89858" lon="2.27919">
        <ele>77</ele>
        <time>2013-02-18T20:16:24.040Z</time>
      </trkpt>
      <trkpt lat="48.89852" lon="2.27923">
        <ele>77.3</ele>
        <time>2013-02-18T20:16:25.000Z</time>
      </trkpt>
      <trkpt lat="48.89847" lon="2.27926">
        <ele>77.9</ele>
        <time>2013-02-18T20:16:26.000Z</time>
      </trkpt>
      <trkpt lat="48.89842" lon="2.27929">
        <ele>77.5</ele>
        <time>2013-02-18T20:16:27.000Z</time>
      </trkpt>
      <trkpt lat="48.89837" lon="2.27933">
        <ele>77.7</ele>
        <time>2013-02-18T20:16:28.000Z</time>
      </trkpt>
      <trkpt lat="48.89834" lon="2.27937">
        <ele>78.4</ele>
        <time>2013-02-18T20:16:29.000Z</time>
      </trkpt>
      <trkpt lat="48.89829" lon="2.2794">
        <ele>78.2</ele>
        <time>2013-02-18T20:16:30.000Z</time>
      </trkpt>
      <trkpt lat="48.89826" lon="2.27943">
        <ele>78.2</ele>
        <time>2013-02-18T20:16:31.000Z</time>
      </trkpt>
      <trkpt lat="48.89821" lon="2.27944">
        <ele>77.8</ele>
        <time>2013-02-18T20:16:32.000Z</time>
      </trkpt>
      <trkpt lat="48.89818" lon="2.27949">
        <ele>77.3</ele>
        <time>2013-02-18T20:16:33.000Z</time>
      </trkpt>
      <trkpt lat="48.89814" lon="2.27953">
        <ele>76.2</ele>
        <time>2013-02-18T20:16:34.000Z</time>
      </trkpt>
      <trkpt lat="48.8981" lon="2.27958">
        <ele>77.4</ele>
        <time>2013-02-18T20:16:35.000Z</time>
      </trkpt>
      <trkpt lat="48.89806" lon="2.27961">
        <ele>77.4</ele>
        <time>2013-02-18T20:16:36.000Z</time>
      </trkpt>
      <trkpt lat="48.89801" lon="2.27965">
        <ele>77.4</ele>
        <time>2013-02-18T20:16:37.000Z</time>
      </trkpt>
      <trkpt lat="48.89801" lon="2.27969">
        <ele>74.1</ele>
        <time>2013-02-18T20:16:38.000Z</time>
      </trkpt>
      <trkpt lat="48.89797" lon="2.27971">
        <ele>74.2</ele>
        <time>2013-02-18T20:16:39.000Z</time>
      </trkpt>
      <trkpt lat="48.89792" lon="2.27974">
        <ele>75.3</ele>
        <time>2013-02-18T20:16:40.000Z</time>
      </trkpt>
      <trkpt lat="48.89789" lon="2.27977">
        <ele>75.9</ele>
        <time>2013-02-18T20:16:41.000Z</time>
      </trkpt>
      <trkpt lat="48.89785" lon="2.2798">
        <ele>76</ele>
        <time>2013-02-18T20:16:42.000Z</time>
      </trkpt>
      <trkpt lat="48.89781" lon="2.27983">
        <ele>75.9</ele>
        <time>2013-02-18T20:16:43.000Z</time>
      </trkpt>
      <trkpt lat="48.89777" lon="2.27985">
        <ele>76.1</ele>
        <time>2013-02-18T20:16:44.000Z</time>
      </trkpt>
      <trkpt lat="48.89773" lon="2.27988">
        <ele>76.7</ele>
        <time>2013-02-18T20:16:45.000Z</time>
      </trkpt>
      <trkpt lat="48.89768" lon="2.27994">
        <ele>78.4</ele>
        <time>2013-02-18T20:16:46.000Z</time>
      </trkpt>
      <trkpt lat="48.89765" lon="2.27997">
        <ele>78.8</ele>
        <time>2013-02-18T20:16:47.000Z</time>
      </trkpt>
      <trkpt lat="48.89763" lon="2.28">
        <ele>79.8</ele>
        <time>2013-02-18T20:16:48.000Z</time>
      </trkpt>
      <trkpt lat="48.89759" lon="2.28005">
        <ele>79.6</ele>
        <time>2013-02-18T20:16:49.000Z</time>
      </trkpt>
      <trkpt lat="48.89755" lon="2.28008">
        <ele>79.3</ele>
        <time>2013-02-18T20:16:50.000Z</time>
      </trkpt>
      <trkpt lat="48.89752" lon="2.28011">
        <ele>79.3</ele>
        <time>2013-02-18T20:16:51.000Z</time>
      </trkpt>
      <trkpt lat="48.89748" lon="2.28013">
        <ele>79.4</ele>
        <time>2013-02-18T20:16:52.000Z</time>
      </trkpt>
      <trkpt lat="48.89745" lon="2.28015">
        <ele>79.5</ele>
        <time>2013-02-18T20:16:53.000Z</time>
      </trkpt>
      <trkpt lat="48.89741" lon="2.28017">
        <ele>79.8</ele>
        <time>2013-02-18T20:16:54.000Z</time>
      </trkpt>
      <trkpt lat="48.89737" lon="2.2802">
        <ele>79.4</ele>
        <time>2013-02-18T20:16:55.000Z</time>
      </trkpt>
      <trkpt lat="48.8973" lon="2.28024">
        <ele>81</ele>
        <time>2013-02-18T20:16:56.000Z</time>
      </trkpt>
      <trkpt lat="48.89727" lon="2.28027">
        <ele>77.2</ele>
        <time>2013-02-18T20:16:57.000Z</time>
      </trkpt>
      <trkpt lat="48.89723" lon="2.28029">
        <ele>78.4</ele>
        <time>2013-02-18T20:16:58.000Z</time>
      </trkpt>
      <trkpt lat="48.89718" lon="2.28029">
        <ele>79.6</ele>
        <time>2013-02-18T20:16:59.000Z</time>
      </trkpt>
      <trkpt lat="48.89713" lon="2.28033">
        <ele>80.8</ele>
        <time>2013-02-18T20:17:00.000Z</time>
      </trkpt>
      <trkpt lat="48.89707" lon="2.28037">
        <ele>82.8</ele>
        <time>2013-02-18T20:17:01.000Z</time>
      </trkpt>
      <trkpt lat="48.89701" lon="2.28042">
        <ele>83.2</ele>
        <time>2013-02-18T20:17:02.000Z</time>
      </trkpt>
      <trkpt lat="48.89696" lon="2.28045">
        <ele>84.4</ele>
        <time>2013-02-18T20:17:03.000Z</time>
      </trkpt>
      <trkpt lat="48.89691" lon="2.28049">
        <ele>85.3</ele>
        <time>2013-02-18T20:17:04.000Z</time>
      </trkpt>
      <trkpt lat="48.89685" lon="2.28055">
        <ele>87.1</ele>
        <time>2013-02-18T20:17:05.000Z</time>
      </trkpt>
      <trkpt lat="48.89681" lon="2.2806">
        <ele>88</ele>
        <time>2013-02-18T20:17:06.000Z</time>
      </trkpt>
      <trkpt lat="48.89677" lon="2.28063">
        <ele>88.6</ele>
        <time>2013-02-18T20:17:07.000Z</time>
      </trkpt>
      <trkpt lat="48.89674" lon="2.28069">
        <ele>89.2</ele>
        <time>2013-02-18T20:17:08.000Z</time>
      </trkpt>
      <trkpt lat="48.89669" lon="2.28076">
        <ele>89.6</ele>
        <time>2013-02-18T20:17:09.000Z</time>
      </trkpt>
      <trkpt lat="48.89665" lon="2.28081">
        <ele>89.9</ele>
        <time>2013-02-18T20:17:10.000Z</time>
      </trkpt>
      <trkpt lat="48.89661" lon="2.28087">
        <ele>89.6</ele>
        <time>2013-02-18T20:17:11.000Z</time>
      </trkpt>
      <trkpt lat="48.89658" lon="2.28088">
        <ele>89</ele>
        <time>2013-02-18T20:17:12.000Z</time>
      </trkpt>
      <trkpt lat="48.89655" lon="2.28091">
        <ele>90.5</ele>
        <time>2013-02-18T20:17:13.000Z</time>
      </trkpt>
      <trkpt lat="48.89651" lon="2.2809">
        <ele>92.1</ele>
        <time>2013-02-18T20:17:14.000Z</time>
      </trkpt>
      <trkpt lat="48.89648" lon="2.28088">
        <ele>95.4</ele>
        <time>2013-02-18T20:17:15.000Z</time>
      </trkpt>
      <trkpt lat="48.89645" lon="2.28085">
        <ele>96.7</ele>
        <time>2013-02-18T20:17:16.000Z</time>
      </trkpt>
      <trkpt lat="48.89643" lon="2.28079">
        <ele>96.5</ele>
        <time>2013-02-18T20:17:17.000Z</time>
      </trkpt>
      <trkpt lat="48.89639" lon="2.28075">
        <ele>96.6</ele>
        <time>2013-02-18T20:17:18.000Z</time>
      </trkpt>
      <trkpt lat="48.89638" lon="2.2807">
        <ele>94.3</ele>
        <time>2013-02-18T20:17:20.000Z</time>
      </trkpt>
      <trkpt lat="48.89636" lon="2.28065">
        <ele>90.6</ele>
        <time>2013-02-18T20:17:21.000Z</time>
      </trkpt>
      <trkpt lat="48.89634" lon="2.28062">
        <ele>90.3</ele>
        <time>2013-02-18T20:17:22.000Z</time>
      </trkpt>
      <trkpt lat="48.8963" lon="2.28054">
        <ele>89.2</ele>
        <time>2013-02-18T20:17:23.964Z</time>
      </trkpt>
      <trkpt lat="48.89628" lon="2.28051">
        <ele>86.1</ele>
        <time>2013-02-18T20:17:25.000Z</time>
      </trkpt>
      <trkpt lat="48.89626" lon="2.28048">
        <ele>86.5</ele>
        <time>2013-02-18T20:17:26.000Z</time>
      </trkpt>
      <trkpt lat="48.89624" lon="2.28045">
        <ele>86</ele>
        <time>2013-02-18T20:17:27.000Z</time>
      </trkpt>
      <trkpt lat="48.89621" lon="2.28041">
        <ele>89</ele>
        <time>2013-02-18T20:17:28.000Z</time>
      </trkpt>
      <trkpt lat="48.89618" lon="2.28037">
        <ele>89.5</ele>
        <time>2013-02-18T20:17:29.000Z</time>
      </trkpt>
      <trkpt lat="48.89616" lon="2.28033">
        <ele>90.1</ele>
        <time>2013-02-18T20:17:30.000Z</time>
      </trkpt>
      <trkpt lat="48.89612" lon="2.28028">
        <ele>89.6</ele>
        <time>2013-02-18T20:17:31.000Z</time>
      </trkpt>
      <trkpt lat="48.89609" lon="2.28022">
        <ele>89.3</ele>
        <time>2013-02-18T20:17:32.000Z</time>
      </trkpt>
      <trkpt lat="48.89606" lon="2.28017">
        <ele>89.4</ele>
        <time>2013-02-18T20:17:33.000Z</time>
      </trkpt>
      <trkpt lat="48.89602" lon="2.28013">
        <ele>87.2</ele>
        <time>2013-02-18T20:17:34.000Z</time>
      </trkpt>
      <trkpt lat="48.89599" lon="2.2801">
        <ele>85.9</ele>
        <time>2013-02-18T20:17:35.000Z</time>
      </trkpt>
      <trkpt lat="48.89595" lon="2.28007">
        <ele>86</ele>
        <time>2013-02-18T20:17:36.000Z</time>
      </trkpt>
      <trkpt lat="48.89592" lon="2.28003">
        <ele>87.5</ele>
        <time>2013-02-18T20:17:37.000Z</time>
      </trkpt>
      <trkpt lat="48.89589" lon="2.27998">
        <ele>86.9</ele>
        <time>2013-02-18T20:17:38.000Z</time>
      </trkpt>
      <trkpt lat="48.89587" lon="2.27993">
        <ele>86.2</ele>
        <time>2013-02-18T20:17:39.000Z</time>
      </trkpt>
      <trkpt lat="48.89584" lon="2.27988">
        <ele>87.6</ele>
        <time>2013-02-18T20:17:40.000Z</time>
      </trkpt>
      <trkpt lat="48.89582" lon="2.27982">
        <ele>86.9</ele>
        <time>2013-02-18T20:17:41.000Z</time>
      </trkpt>
      <trkpt lat="48.89579" lon="2.27976">
        <ele>88.4</ele>
        <time>2013-02-18T20:17:42.000Z</time>
      </trkpt>
      <trkpt lat="48.89577" lon="2.27971">
        <ele>86.3</ele>
        <time>2013-02-18T20:17:43.000Z</time>
      </trkpt>
      <trkpt lat="48.89574" lon="2.27966">
        <ele>87</ele>
        <time>2013-02-18T20:17:44.000Z</time>
      </trkpt>
      <trkpt lat="48.8957" lon="2.27961">
        <ele>86.7</ele>
        <time>2013-02-18T20:17:45.000Z</time>
      </trkpt>
      <trkpt lat="48.89567" lon="2.27955">
        <ele>87.7</ele>
        <time>2013-02-18T20:17:46.000Z</time>
      </trkpt>
      <trkpt lat="48.89564" lon="2.27949">
        <ele>87.5</ele>
        <time>2013-02-18T20:17:47.000Z</time>
      </trkpt>
      <trkpt lat="48.89562" lon="2.27944">
        <ele>88.5</ele>
        <time>2013-02-18T20:17:48.000Z</time>
      </trkpt>
      <trkpt lat="48.89559" lon="2.27939">
        <ele>88.2</ele>
        <time>2013-02-18T20:17:49.000Z</time>
      </trkpt>
      <trkpt lat="48.89556" lon="2.27935">
        <ele>89.9</ele>
        <time>2013-02-18T20:17:50.000Z</time>
      </trkpt>
      <trkpt lat="48.89552" lon="2.27931">
        <ele>90</ele>
        <time>2013-02-18T20:17:51.000Z</time>
      </trkpt>
      <trkpt lat="48.89549" lon="2.27928">
        <ele>90.6</ele>
        <time>2013-02-18T20:17:52.000Z</time>
      </trkpt>
      <trkpt lat="48.89546" lon="2.27924">
        <ele>90.1</ele>
        <time>2013-02-18T20:17:53.000Z</time>
      </trkpt>
      <trkpt lat="48.89544" lon="2.27921">
        <ele>90.1</ele>
        <time>2013-02-18T20:17:54.000Z</time>
      </trkpt>
      <trkpt lat="48.89542" lon="2.2792">
        <ele>91.2</ele>
        <time>2013-02-18T20:17:55.000Z</time>
      </trkpt>
      <trkpt lat="48.8954" lon="2.27917">
        <ele>91.5</ele>
        <time>2013-02-18T20:17:56.000Z</time>
      </trkpt>
      <trkpt lat="48.89538" lon="2.27913">
        <ele>92.1</ele>
        <time>2013-02-18T20:17:57.000Z</time>
      </trkpt>
      <trkpt lat="48.89536" lon="2.27909">
        <ele>93.7</ele>
        <time>2013-02-18T20:17:58.000Z</time>
      </trkpt>
      <trkpt lat="48.89534" lon="2.27902">
        <ele>94.2</ele>
        <time>2013-02-18T20:17:59.000Z</time>
      </trkpt>
      <trkpt lat="48.89532" lon="2.27895">
        <ele>95</ele>
        <time>2013-02-18T20:18:00.000Z</time>
      </trkpt>
      <trkpt lat="48.8953" lon="2.27888">
        <ele>94.8</ele>
        <time>2013-02-18T20:18:01.000Z</time>
      </trkpt>
      <trkpt lat="48.89527" lon="2.27882">
        <ele>93.7</ele>
        <time>2013-02-18T20:18:02.000Z</time>
      </trkpt>
      <trkpt lat="48.89524" lon="2.27876">
        <ele>94.5</ele>
        <time>2013-02-18T20:18:03.000Z</time>
      </trkpt>
      <trkpt lat="48.89521" lon="2.2787">
        <ele>96.2</ele>
        <time>2013-02-18T20:18:04.000Z</time>
      </trkpt>
      <trkpt lat="48.89518" lon="2.27864">
        <ele>94.6</ele>
        <time>2013-02-18T20:18:05.000Z</time>
      </trkpt>
      <trkpt lat="48.89515" lon="2.27859">
        <ele>90.5</ele>
        <time>2013-02-18T20:18:06.000Z</time>
      </trkpt>
      <trkpt lat="48.89512" lon="2.27855">
        <ele>87.7</ele>
        <time>2013-02-18T20:18:07.000Z</time>
      </trkpt>
      <trkpt lat="48.89508" lon="2.27851">
        <ele>86.5</ele>
        <time>2013-02-18T20:18:08.000Z</time>
      </trkpt>
      <trkpt lat="48.89505" lon="2.27846">
        <ele>85.6</ele>
        <time>2013-02-18T20:18:09.000Z</time>
      </trkpt>
      <trkpt lat="48.89503" lon="2.27842">
        <ele>85</ele>
        <time>2013-02-18T20:18:10.000Z</time>
      </trkpt>
      <trkpt lat="48.895" lon="2.27837">
        <ele>84.5</ele>
        <time>2013-02-18T20:18:11.000Z</time>
      </trkpt>
      <trkpt lat="48.89497" lon="2.27833">
        <ele>84.5</ele>
        <time>2013-02-18T20:18:12.000Z</time>
      </trkpt>
      <trkpt lat="48.89493" lon="2.2783">
        <ele>85.9</ele>
        <time>2013-02-18T20:18:13.000Z</time>
      </trkpt>
      <trkpt lat="48.89488" lon="2.27829">
        <ele>85.8</ele>
        <time>2013-02-18T20:18:14.000Z</time>
      </trkpt>
      <trkpt lat="48.89484" lon="2.2783">
        <ele>85</ele>
        <time>2013-02-18T20:18:15.000Z</time>
      </trkpt>
      <trkpt lat="48.8948" lon="2.27833">
        <ele>86.5</ele>
        <time>2013-02-18T20:18:16.000Z</time>
      </trkpt>
      <trkpt lat="48.89476" lon="2.27836">
        <ele>87</ele>
        <time>2013-02-18T20:18:17.000Z</time>
      </trkpt>
      <trkpt lat="48.89473" lon="2.2784">
        <ele>86</ele>
        <time>2013-02-18T20:18:18.000Z</time>
      </trkpt>
      <trkpt lat="48.89469" lon="2.27844">
        <ele>83.6</ele>
        <time>2013-02-18T20:18:19.000Z</time>
      </trkpt>
      <trkpt lat="48.89466" lon="2.27847">
        <ele>82.2</ele>
        <time>2013-02-18T20:18:20.000Z</time>
      </trkpt>
      <trkpt lat="48.89462" lon="2.2785">
        <ele>81</ele>
        <time>2013-02-18T20:18:21.000Z</time>
      </trkpt>
      <trkpt lat="48.89458" lon="2.27853">
        <ele>80.5</ele>
        <time>2013-02-18T20:18:22.000Z</time>
      </trkpt>
      <trkpt lat="48.89451" lon="2.27859">
        <ele>80.5</ele>
        <time>2013-02-18T20:18:24.255Z</time>
      </trkpt>
      <trkpt lat="48.89448" lon="2.2786">
        <ele>80.3</ele>
        <time>2013-02-18T20:18:25.000Z</time>
      </trkpt>
      <trkpt lat="48.89445" lon="2.27863">
        <ele>78.9</ele>
        <time>2013-02-18T20:18:26.000Z</time>
      </trkpt>
      <trkpt lat="48.89442" lon="2.27866">
        <ele>78.2</ele>
        <time>2013-02-18T20:18:27.000Z</time>
      </trkpt>
      <trkpt lat="48.89439" lon="2.27869">
        <ele>77.8</ele>
        <time>2013-02-18T20:18:28.000Z</time>
      </trkpt>
      <trkpt lat="48.89436" lon="2.27872">
        <ele>77.8</ele>
        <time>2013-02-18T20:18:29.000Z</time>
      </trkpt>
      <trkpt lat="48.89433" lon="2.27874">
        <ele>78.4</ele>
        <time>2013-02-18T20:18:30.000Z</time>
      </trkpt>
      <trkpt lat="48.8943" lon="2.27877">
        <ele>78.4</ele>
        <time>2013-02-18T20:18:31.000Z</time>
      </trkpt>
      <trkpt lat="48.89427" lon="2.2788">
        <ele>77.9</ele>
        <time>2013-02-18T20:18:32.000Z</time>
      </trkpt>
      <trkpt lat="48.89424" lon="2.27883">
        <ele>77.5</ele>
        <time>2013-02-18T20:18:33.000Z</time>
      </trkpt>
      <trkpt lat="48.89421" lon="2.27886">
        <ele>79</ele>
        <time>2013-02-18T20:18:34.000Z</time>
      </trkpt>
      <trkpt lat="48.89418" lon="2.27889">
        <ele>79</ele>
        <time>2013-02-18T20:18:35.000Z</time>
      </trkpt>
      <trkpt lat="48.89416" lon="2.2789">
        <ele>78.9</ele>
        <time>2013-02-18T20:18:36.000Z</time>
      </trkpt>
      <trkpt lat="48.89414" lon="2.27895">
        <ele>78.3</ele>
        <time>2013-02-18T20:18:38.000Z</time>
      </trkpt>
      <trkpt lat="48.89414" lon="2.27899">
        <ele>76.4</ele>
        <time>2013-02-18T20:18:39.000Z</time>
      </trkpt>
      <trkpt lat="48.89414" lon="2.27903">
        <ele>75.6</ele>
        <time>2013-02-18T20:18:40.000Z</time>
      </trkpt>
      <trkpt lat="48.89416" lon="2.27906">
        <ele>75.4</ele>
        <time>2013-02-18T20:18:41.000Z</time>
      </trkpt>
      <trkpt lat="48.89417" lon="2.2791">
        <ele>74.2</ele>
        <time>2013-02-18T20:18:42.000Z</time>
      </trkpt>
      <trkpt lat="48.8942" lon="2.27916">
        <ele>73.6</ele>
        <time>2013-02-18T20:18:43.000Z</time>
      </trkpt>
      <trkpt lat="48.89422" lon="2.27921">
        <ele>73.1</ele>
        <time>2013-02-18T20:18:44.000Z</time>
      </trkpt>
      <trkpt lat="48.89424" lon="2.27926">
        <ele>72.9</ele>
        <time>2013-02-18T20:18:45.000Z</time>
      </trkpt>
      <trkpt lat="48.89427" lon="2.27931">
        <ele>73.1</ele>
        <time>2013-02-18T20:18:46.000Z</time>
      </trkpt>
      <trkpt lat="48.89429" lon="2.27937">
        <ele>72.9</ele>
        <time>2013-02-18T20:18:47.000Z</time>
      </trkpt>
      <trkpt lat="48.89431" lon="2.27942">
        <ele>72.8</ele>
        <time>2013-02-18T20:18:48.000Z</time>
      </trkpt>
      <trkpt lat="48.89434" lon="2.27948">
        <ele>72.8</ele>
        <time>2013-02-18T20:18:49.000Z</time>
      </trkpt>
      <trkpt lat="48.89436" lon="2.27954">
        <ele>72.7</ele>
        <time>2013-02-18T20:18:50.000Z</time>
      </trkpt>
      <trkpt lat="48.89439" lon="2.2796">
        <ele>72.8</ele>
        <time>2013-02-18T20:18:51.000Z</time>
      </trkpt>
      <trkpt lat="48.89441" lon="2.27965">
        <ele>73.5</ele>
        <time>2013-02-18T20:18:52.000Z</time>
      </trkpt>
      <trkpt lat="48.89443" lon="2.27971">
        <ele>73.7</ele>
        <time>2013-02-18T20:18:53.000Z</time>
      </trkpt>
      <trkpt lat="48.89445" lon="2.27976">
        <ele>73.7</ele>
        <time>2013-02-18T20:18:54.000Z</time>
      </trkpt>
      <trkpt lat="48.89448" lon="2.27982">
        <ele>74.5</ele>
        <time>2013-02-18T20:18:55.000Z</time>
      </trkpt>
      <trkpt lat="48.8945" lon="2.27987">
        <ele>76.5</ele>
        <time>2013-02-18T20:18:56.000Z</time>
      </trkpt>
      <trkpt lat="48.89453" lon="2.27992">
        <ele>76.7</ele>
        <time>2013-02-18T20:18:57.000Z</time>
      </trkpt>
      <trkpt lat="48.89456" lon="2.27997">
        <ele>78.9</ele>
        <time>2013-02-18T20:18:58.000Z</time>
      </trkpt>
      <trkpt lat="48.89458" lon="2.28003">
        <ele>78</ele>
        <time>2013-02-18T20:18:59.000Z</time>
      </trkpt>
      <trkpt lat="48.89461" lon="2.28008">
        <ele>78</ele>
        <time>2013-02-18T20:19:00.000Z</time>
      </trkpt>
      <trkpt lat="48.89463" lon="2.28013">
        <ele>77.6</ele>
        <time>2013-02-18T20:19:01.000Z</time>
      </trkpt>
      <trkpt lat="48.89466" lon="2.28019">
        <ele>77.6</ele>
        <time>2013-02-18T20:19:02.000Z</time>
      </trkpt>
      <trkpt lat="48.89469" lon="2.28024">
        <ele>77</ele>
        <time>2013-02-18T20:19:03.000Z</time>
      </trkpt>
      <trkpt lat="48.89473" lon="2.28031">
        <ele>77.4</ele>
        <time>2013-02-18T20:19:04.000Z</time>
      </trkpt>
      <trkpt lat="48.89476" lon="2.28036">
        <ele>78.2</ele>
        <time>2013-02-18T20:19:05.000Z</time>
      </trkpt>
      <trkpt lat="48.8948" lon="2.28043">
        <ele>79.3</ele>
        <time>2013-02-18T20:19:06.000Z</time>
      </trkpt>
      <trkpt lat="48.89483" lon="2.28049">
        <ele>79.3</ele>
        <time>2013-02-18T20:19:07.000Z</time>
      </trkpt>
      <trkpt lat="48.89487" lon="2.28057">
        <ele>80.5</ele>
        <time>2013-02-18T20:19:08.000Z</time>
      </trkpt>
      <trkpt lat="48.8949" lon="2.28063">
        <ele>83.3</ele>
        <time>2013-02-18T20:19:09.000Z</time>
      </trkpt>
      <trkpt lat="48.89493" lon="2.28069">
        <ele>82.1</ele>
        <time>2013-02-18T20:19:10.000Z</time>
      </trkpt>
      <trkpt lat="48.89495" lon="2.28074">
        <ele>81.2</ele>
        <time>2013-02-18T20:19:11.000Z</time>
      </trkpt>
      <trkpt lat="48.89499" lon="2.2808">
        <ele>82.8</ele>
        <time>2013-02-18T20:19:12.000Z</time>
      </trkpt>
      <trkpt lat="48.89501" lon="2.28086">
        <ele>82.8</ele>
        <time>2013-02-18T20:19:13.000Z</time>
      </trkpt>
      <trkpt lat="48.89499" lon="2.281">
        <ele>85.5</ele>
        <time>2013-02-18T20:19:14.000Z</time>
      </trkpt>
      <trkpt lat="48.89497" lon="2.28107">
        <ele>86.2</ele>
        <time>2013-02-18T20:19:15.000Z</time>
      </trkpt>
      <trkpt lat="48.89494" lon="2.28114">
        <ele>86.6</ele>
        <time>2013-02-18T20:19:16.000Z</time>
      </trkpt>
      <trkpt lat="48.89488" lon="2.28119">
        <ele>82</ele>
        <time>2013-02-18T20:19:17.000Z</time>
      </trkpt>
      <trkpt lat="48.89484" lon="2.28119">
        <ele>79.6</ele>
        <time>2013-02-18T20:19:18.000Z</time>
      </trkpt>
      <trkpt lat="48.89481" lon="2.28122">
        <ele>79.2</ele>
        <time>2013-02-18T20:19:19.000Z</time>
      </trkpt>
      <trkpt lat="48.89478" lon="2.28125">
        <ele>78.3</ele>
        <time>2013-02-18T20:19:20.000Z</time>
      </trkpt>
      <trkpt lat="48.89475" lon="2.28128">
        <ele>77.7</ele>
        <time>2013-02-18T20:19:21.000Z</time>
      </trkpt>
      <trkpt lat="48.89472" lon="2.28131">
        <ele>77.7</ele>
        <time>2013-02-18T20:19:22.000Z</time>
      </trkpt>
      <trkpt lat="48.89464" lon="2.28138">
        <ele>77.6</ele>
        <time>2013-02-18T20:19:24.402Z</time>
      </trkpt>
      <trkpt lat="48.89462" lon="2.2814">
        <ele>77.6</ele>
        <time>2013-02-18T20:19:25.000Z</time>
      </trkpt>
      <trkpt lat="48.89459" lon="2.28143">
        <ele>76.4</ele>
        <time>2013-02-18T20:19:26.000Z</time>
      </trkpt>
      <trkpt lat="48.89455" lon="2.28145">
        <ele>76.3</ele>
        <time>2013-02-18T20:19:27.000Z</time>
      </trkpt>
      <trkpt lat="48.89451" lon="2.28148">
        <ele>75.3</ele>
        <time>2013-02-18T20:19:28.000Z</time>
      </trkpt>
      <trkpt lat="48.89447" lon="2.28151">
        <ele>74.9</ele>
        <time>2013-02-18T20:19:29.000Z</time>
      </trkpt>
      <trkpt lat="48.89443" lon="2.28154">
        <ele>73.6</ele>
        <time>2013-02-18T20:19:30.000Z</time>
      </trkpt>
      <trkpt lat="48.89438" lon="2.28157">
        <ele>73.6</ele>
        <time>2013-02-18T20:19:31.000Z</time>
      </trkpt>
      <trkpt lat="48.89433" lon="2.2816">
        <ele>74.1</ele>
        <time>2013-02-18T20:19:32.000Z</time>
      </trkpt>
      <trkpt lat="48.89422" lon="2.28166">
        <ele>75.5</ele>
        <time>2013-02-18T20:19:33.000Z</time>
      </trkpt>
      <trkpt lat="48.89417" lon="2.28169">
        <ele>78.3</ele>
        <time>2013-02-18T20:19:34.000Z</time>
      </trkpt>
      <trkpt lat="48.89412" lon="2.28175">
        <ele>79.9</ele>
        <time>2013-02-18T20:19:35.000Z</time>
      </trkpt>
      <trkpt lat="48.89408" lon="2.2818">
        <ele>81.9</ele>
        <time>2013-02-18T20:19:36.000Z</time>
      </trkpt>
      <trkpt lat="48.89401" lon="2.28186">
        <ele>84.4</ele>
        <time>2013-02-18T20:19:37.000Z</time>
      </trkpt>
      <trkpt lat="48.89399" lon="2.28188">
        <ele>83.7</ele>
        <time>2013-02-18T20:19:38.000Z</time>
      </trkpt>
      <trkpt lat="48.89397" lon="2.2819">
        <ele>84.9</ele>
        <time>2013-02-18T20:19:39.000Z</time>
      </trkpt>
      <trkpt lat="48.89393" lon="2.28191">
        <ele>86.8</ele>
        <time>2013-02-18T20:19:40.000Z</time>
      </trkpt>
      <trkpt lat="48.8939" lon="2.28194">
        <ele>85.5</ele>
        <time>2013-02-18T20:19:41.000Z</time>
      </trkpt>
      <trkpt lat="48.89386" lon="2.28195">
        <ele>85.8</ele>
        <time>2013-02-18T20:19:42.000Z</time>
      </trkpt>
      <trkpt lat="48.89384" lon="2.28195">
        <ele>85.4</ele>
        <time>2013-02-18T20:19:43.000Z</time>
      </trkpt>
      <trkpt lat="48.89382" lon="2.28196">
        <ele>83.6</ele>
        <time>2013-02-18T20:19:44.000Z</time>
      </trkpt>
      <trkpt lat="48.89378" lon="2.28196">
        <ele>83.9</ele>
        <time>2013-02-18T20:19:45.000Z</time>
      </trkpt>
      <trkpt lat="48.89375" lon="2.28196">
        <ele>84.6</ele>
        <time>2013-02-18T20:19:46.000Z</time>
      </trkpt>
      <trkpt lat="48.89371" lon="2.28198">
        <ele>84.8</ele>
        <time>2013-02-18T20:19:47.000Z</time>
      </trkpt>
      <trkpt lat="48.89368" lon="2.282">
        <ele>84.8</ele>
        <time>2013-02-18T20:19:48.000Z</time>
      </trkpt>
      <trkpt lat="48.89365" lon="2.28203">
        <ele>85</ele>
        <time>2013-02-18T20:19:49.000Z</time>
      </trkpt>
      <trkpt lat="48.89361" lon="2.28206">
        <ele>82.9</ele>
        <time>2013-02-18T20:19:50.000Z</time>
      </trkpt>
      <trkpt lat="48.89357" lon="2.28209">
        <ele>82.9</ele>
        <time>2013-02-18T20:19:51.000Z</time>
      </trkpt>
      <trkpt lat="48.89353" lon="2.28213">
        <ele>83</ele>
        <time>2013-02-18T20:19:52.000Z</time>
      </trkpt>
      <trkpt lat="48.89349" lon="2.28217">
        <ele>82.8</ele>
        <time>2013-02-18T20:19:53.000Z</time>
      </trkpt>
      <trkpt lat="48.89345" lon="2.28221">
        <ele>82.9</ele>
        <time>2013-02-18T20:19:54.000Z</time>
      </trkpt>
      <trkpt lat="48.89341" lon="2.28225">
        <ele>82.3</ele>
        <time>2013-02-18T20:19:55.000Z</time>
      </trkpt>
      <trkpt lat="48.89337" lon="2.28228">
        <ele>81.7</ele>
        <time>2013-02-18T20:19:56.000Z</time>
      </trkpt>
      <trkpt lat="48.89333" lon="2.28231">
        <ele>81.5</ele>
        <time>2013-02-18T20:19:57.000Z</time>
      </trkpt>
      <trkpt lat="48.89329" lon="2.28235">
        <ele>81.3</ele>
        <time>2013-02-18T20:19:58.000Z</time>
      </trkpt>
      <trkpt lat="48.8932" lon="2.28239">
        <ele>81</ele>
        <time>2013-02-18T20:19:59.000Z</time>
      </trkpt>
      <trkpt lat="48.89315" lon="2.28244">
        <ele>80.8</ele>
        <time>2013-02-18T20:20:00.000Z</time>
      </trkpt>
      <trkpt lat="48.89311" lon="2.28246">
        <ele>81.2</ele>
        <time>2013-02-18T20:20:01.000Z</time>
      </trkpt>
      <trkpt lat="48.89307" lon="2.28249">
        <ele>81.2</ele>
        <time>2013-02-18T20:20:02.000Z</time>
      </trkpt>
      <trkpt lat="48.89302" lon="2.28251">
        <ele>81.3</ele>
        <time>2013-02-18T20:20:03.000Z</time>
      </trkpt>
      <trkpt lat="48.89297" lon="2.28255">
        <ele>80.7</ele>
        <time>2013-02-18T20:20:04.000Z</time>
      </trkpt>
      <trkpt lat="48.89292" lon="2.28259">
        <ele>80.2</ele>
        <time>2013-02-18T20:20:05.000Z</time>
      </trkpt>
      <trkpt lat="48.89287" lon="2.28262">
        <ele>80.1</ele>
        <time>2013-02-18T20:20:06.000Z</time>
      </trkpt>
      <trkpt lat="48.89283" lon="2.28264">
        <ele>79.6</ele>
        <time>2013-02-18T20:20:07.000Z</time>
      </trkpt>
      <trkpt lat="48.89277" lon="2.28268">
        <ele>80.6</ele>
        <time>2013-02-18T20:20:08.000Z</time>
      </trkpt>
      <trkpt lat="48.89271" lon="2.28273">
        <ele>82.6</ele>
        <time>2013-02-18T20:20:09.000Z</time>
      </trkpt>
      <trkpt lat="48.89267" lon="2.28277">
        <ele>82.7</ele>
        <time>2013-02-18T20:20:10.000Z</time>
      </trkpt>
      <trkpt lat="48.89262" lon="2.28281">
        <ele>85.2</ele>
        <time>2013-02-18T20:20:11.000Z</time>
      </trkpt>
      <trkpt lat="48.89257" lon="2.28286">
        <ele>85.8</ele>
        <time>2013-02-18T20:20:12.000Z</time>
      </trkpt>
      <trkpt lat="48.89252" lon="2.28289">
        <ele>87.1</ele>
        <time>2013-02-18T20:20:13.000Z</time>
      </trkpt>
      <trkpt lat="48.89248" lon="2.28292">
        <ele>87.8</ele>
        <time>2013-02-18T20:20:14.000Z</time>
      </trkpt>
      <trkpt lat="48.89243" lon="2.28295">
        <ele>88.7</ele>
        <time>2013-02-18T20:20:15.000Z</time>
      </trkpt>
      <trkpt lat="48.8924" lon="2.28297">
        <ele>87.8</ele>
        <time>2013-02-18T20:20:16.000Z</time>
      </trkpt>
      <trkpt lat="48.89239" lon="2.283">
        <ele>85.7</ele>
        <time>2013-02-18T20:20:17.000Z</time>
      </trkpt>
      <trkpt lat="48.89237" lon="2.28302">
        <ele>85.7</ele>
        <time>2013-02-18T20:20:18.000Z</time>
      </trkpt>
      <trkpt lat="48.89235" lon="2.28306">
        <ele>83.6</ele>
        <time>2013-02-18T20:20:19.000Z</time>
      </trkpt>
      <trkpt lat="48.89232" lon="2.28311">
        <ele>82.8</ele>
        <time>2013-02-18T20:20:20.000Z</time>
      </trkpt>
      <trkpt lat="48.89228" lon="2.28316">
        <ele>84.2</ele>
        <time>2013-02-18T20:20:21.000Z</time>
      </trkpt>
      <trkpt lat="48.89225" lon="2.28317">
        <ele>83.8</ele>
        <time>2013-02-18T20:20:22.000Z</time>
      </trkpt>
      <trkpt lat="48.89215" lon="2.28322">
        <ele>81.9</ele>
        <time>2013-02-18T20:20:25.000Z</time>
      </trkpt>
      <trkpt lat="48.89211" lon="2.28323">
        <ele>81.4</ele>
        <time>2013-02-18T20:20:26.000Z</time>
      </trkpt>
      <trkpt lat="48.89208" lon="2.28324">
        <ele>81</ele>
        <time>2013-02-18T20:20:27.000Z</time>
      </trkpt>
      <trkpt lat="48.89204" lon="2.28326">
        <ele>81.1</ele>
        <time>2013-02-18T20:20:28.000Z</time>
      </trkpt>
      <trkpt lat="48.892" lon="2.28329">
        <ele>80.8</ele>
        <time>2013-02-18T20:20:29.000Z</time>
      </trkpt>
      <trkpt lat="48.89195" lon="2.28334">
        <ele>80.5</ele>
        <time>2013-02-18T20:20:30.000Z</time>
      </trkpt>
      <trkpt lat="48.8919" lon="2.28338">
        <ele>81</ele>
        <time>2013-02-18T20:20:31.000Z</time>
      </trkpt>
      <trkpt lat="48.89185" lon="2.28342">
        <ele>82</ele>
        <time>2013-02-18T20:20:32.000Z</time>
      </trkpt>
      <trkpt lat="48.89181" lon="2.28347">
        <ele>83.5</ele>
        <time>2013-02-18T20:20:33.000Z</time>
      </trkpt>
      <trkpt lat="48.89177" lon="2.28351">
        <ele>85.2</ele>
        <time>2013-02-18T20:20:34.000Z</time>
      </trkpt>
      <trkpt lat="48.89175" lon="2.28356">
        <ele>84.6</ele>
        <time>2013-02-18T20:20:35.000Z</time>
      </trkpt>
      <trkpt lat="48.89175" lon="2.28362">
        <ele>80.5</ele>
        <time>2013-02-18T20:20:36.000Z</time>
      </trkpt>
      <trkpt lat="48.89176" lon="2.28368">
        <ele>79.5</ele>
        <time>2013-02-18T20:20:37.000Z</time>
      </trkpt>
      <trkpt lat="48.89177" lon="2.28373">
        <ele>78</ele>
        <time>2013-02-18T20:20:38.000Z</time>
      </trkpt>
      <trkpt lat="48.89179" lon="2.28379">
        <ele>78.7</ele>
        <time>2013-02-18T20:20:39.000Z</time>
      </trkpt>
      <trkpt lat="48.89182" lon="2.28384">
        <ele>78.3</ele>
        <time>2013-02-18T20:20:40.000Z</time>
      </trkpt>
      <trkpt lat="48.89184" lon="2.2839">
        <ele>77.6</ele>
        <time>2013-02-18T20:20:41.000Z</time>
      </trkpt>
      <trkpt lat="48.89187" lon="2.28394">
        <ele>77</ele>
        <time>2013-02-18T20:20:42.000Z</time>
      </trkpt>
      <trkpt lat="48.89189" lon="2.284">
        <ele>77.6</ele>
        <time>2013-02-18T20:20:43.000Z</time>
      </trkpt>
      <trkpt lat="48.89192" lon="2.28405">
        <ele>77.4</ele>
        <time>2013-02-18T20:20:44.000Z</time>
      </trkpt>
      <trkpt lat="48.89194" lon="2.2841">
        <ele>77.9</ele>
        <time>2013-02-18T20:20:45.000Z</time>
      </trkpt>
      <trkpt lat="48.89197" lon="2.28416">
        <ele>78</ele>
        <time>2013-02-18T20:20:46.000Z</time>
      </trkpt>
      <trkpt lat="48.89199" lon="2.28422">
        <ele>77.9</ele>
        <time>2013-02-18T20:20:47.000Z</time>
      </trkpt>
      <trkpt lat="48.89201" lon="2.28427">
        <ele>78.1</ele>
        <time>2013-02-18T20:20:48.000Z</time>
      </trkpt>
      <trkpt lat="48.89204" lon="2.28432">
        <ele>78.8</ele>
        <time>2013-02-18T20:20:49.000Z</time>
      </trkpt>
      <trkpt lat="48.89206" lon="2.28437">
        <ele>79.6</ele>
        <time>2013-02-18T20:20:50.000Z</time>
      </trkpt>
      <trkpt lat="48.89209" lon="2.28443">
        <ele>79.1</ele>
        <time>2013-02-18T20:20:51.000Z</time>
      </trkpt>
      <trkpt lat="48.89211" lon="2.28448">
        <ele>78.5</ele>
        <time>2013-02-18T20:20:52.000Z</time>
      </trkpt>
      <trkpt lat="48.89213" lon="2.28453">
        <ele>77.5</ele>
        <time>2013-02-18T20:20:53.000Z</time>
      </trkpt>
      <trkpt lat="48.89215" lon="2.28458">
        <ele>77.1</ele>
        <time>2013-02-18T20:20:54.000Z</time>
      </trkpt>
      <trkpt lat="48.89217" lon="2.28464">
        <ele>76.7</ele>
        <time>2013-02-18T20:20:55.000Z</time>
      </trkpt>
      <trkpt lat="48.89218" lon="2.28468">
        <ele>77.2</ele>
        <time>2013-02-18T20:20:56.000Z</time>
      </trkpt>
      <trkpt lat="48.8922" lon="2.28473">
        <ele>76.7</ele>
        <time>2013-02-18T20:20:57.000Z</time>
      </trkpt>
      <trkpt lat="48.89223" lon="2.28478">
        <ele>76.6</ele>
        <time>2013-02-18T20:21:02.000Z</time>
      </trkpt>
      <trkpt lat="48.89223" lon="2.28478">
        <ele>75.8</ele>
        <time>2013-02-18T20:21:03.000Z</time>
      </trkpt>
      <trkpt lat="48.89221" lon="2.28483">
        <ele>85.2</ele>
        <time>2013-02-18T20:22:02.000Z</time>
      </trkpt>
      <trkpt lat="48.8922" lon="2.28483">
        <ele>85.4</ele>
        <time>2013-02-18T20:22:03.000Z</time>
      </trkpt>
      <trkpt lat="48.89217" lon="2.28488">
        <ele>86.9</ele>
        <time>2013-02-18T20:22:11.000Z</time>
      </trkpt>
      <trkpt lat="48.89217" lon="2.28489">
        <ele>86.9</ele>
        <time>2013-02-18T20:22:12.000Z</time>
      </trkpt>
      <trkpt lat="48.8922" lon="2.28486">
        <ele>95</ele>
        <time>2013-02-18T20:25:13.000Z</time>
      </trkpt>
      <trkpt lat="48.89221" lon="2.28486">
        <ele>94.9</ele>
        <time>2013-02-18T20:25:14.000Z</time>
      </trkpt>
      <trkpt lat="48.89225" lon="2.28483">
        <ele>97.5</ele>
        <time>2013-02-18T20:25:27.000Z</time>
      </trkpt>
      <trkpt lat="48.89226" lon="2.28482">
        <ele>98.3</ele>
        <time>2013-02-18T20:25:28.000Z</time>
      </trkpt>
      <trkpt lat="48.89229" lon="2.28481">
        <ele>100.2</ele>
        <time>2013-02-18T20:27:32.000Z</time>
      </trkpt>
      <trkpt lat="48.89231" lon="2.2848">
        <ele>100.6</ele>
        <time>2013-02-18T20:27:33.000Z</time>
      </trkpt>
      <trkpt lat="48.89234" lon="2.28484">
        <ele>100.4</ele>
        <time>2013-02-18T20:27:37.000Z</time>
      </trkpt>
      <trkpt lat="48.89236" lon="2.28487">
        <ele>99.3</ele>
        <time>2013-02-18T20:27:38.000Z</time>
      </trkpt>
      <trkpt lat="48.89238" lon="2.28492">
        <ele>98</ele>
        <time>2013-02-18T20:27:40.000Z</time>
      </trkpt>
      <trkpt lat="48.89239" lon="2.28494">
        <ele>98</ele>
        <time>2013-02-18T20:27:41.000Z</time>
      </trkpt>
      <trkpt lat="48.8924" lon="2.28498">
        <ele>98</ele>
        <time>2013-02-18T20:27:42.000Z</time>
      </trkpt>
      <trkpt lat="48.89241" lon="2.28501">
        <ele>96.2</ele>
        <time>2013-02-18T20:27:43.000Z</time>
      </trkpt>
      <trkpt lat="48.89242" lon="2.28505">
        <ele>95.2</ele>
        <time>2013-02-18T20:27:44.000Z</time>
      </trkpt>
      <trkpt lat="48.89243" lon="2.28509">
        <ele>94.7</ele>
        <time>2013-02-18T20:27:45.000Z</time>
      </trkpt>
      <trkpt lat="48.89244" lon="2.28513">
        <ele>94.4</ele>
        <time>2013-02-18T20:27:46.000Z</time>
      </trkpt>
      <trkpt lat="48.89245" lon="2.28517">
        <ele>93.8</ele>
        <time>2013-02-18T20:27:47.000Z</time>
      </trkpt>
      <trkpt lat="48.89247" lon="2.28521">
        <ele>94.2</ele>
        <time>2013-02-18T20:27:48.000Z</time>
      </trkpt>
      <trkpt lat="48.89249" lon="2.28525">
        <ele>93.3</ele>
        <time>2013-02-18T20:27:49.000Z</time>
      </trkpt>
      <trkpt lat="48.89251" lon="2.28528">
        <ele>92.1</ele>
        <time>2013-02-18T20:27:50.000Z</time>
      </trkpt>
      <trkpt lat="48.89253" lon="2.28531">
        <ele>93.5</ele>
        <time>2013-02-18T20:27:51.000Z</time>
      </trkpt>
      <trkpt lat="48.89254" lon="2.28536">
        <ele>91.7</ele>
        <time>2013-02-18T20:27:52.000Z</time>
      </trkpt>
      <trkpt lat="48.89256" lon="2.2854">
        <ele>90.8</ele>
        <time>2013-02-18T20:27:53.000Z</time>
      </trkpt>
      <trkpt lat="48.89258" lon="2.28545">
        <ele>90.4</ele>
        <time>2013-02-18T20:27:54.000Z</time>
      </trkpt>
      <trkpt lat="48.8926" lon="2.2855">
        <ele>90</ele>
        <time>2013-02-18T20:27:55.000Z</time>
      </trkpt>
      <trkpt lat="48.89262" lon="2.28554">
        <ele>89</ele>
        <time>2013-02-18T20:27:56.000Z</time>
      </trkpt>
      <trkpt lat="48.89264" lon="2.28559">
        <ele>88.7</ele>
        <time>2013-02-18T20:27:57.000Z</time>
      </trkpt>
      <trkpt lat="48.89266" lon="2.28564">
        <ele>87.4</ele>
        <time>2013-02-18T20:27:58.000Z</time>
      </trkpt>
      <trkpt lat="48.89268" lon="2.28568">
        <ele>86.6</ele>
        <time>2013-02-18T20:27:59.000Z</time>
      </trkpt>
      <trkpt lat="48.8927" lon="2.28573">
        <ele>87.3</ele>
        <time>2013-02-18T20:28:00.000Z</time>
      </trkpt>
      <trkpt lat="48.89272" lon="2.28578">
        <ele>87</ele>
        <time>2013-02-18T20:28:01.000Z</time>
      </trkpt>
      <trkpt lat="48.89274" lon="2.28583">
        <ele>86.9</ele>
        <time>2013-02-18T20:28:02.000Z</time>
      </trkpt>
      <trkpt lat="48.89276" lon="2.28587">
        <ele>87.2</ele>
        <time>2013-02-18T20:28:03.000Z</time>
      </trkpt>
      <trkpt lat="48.89278" lon="2.28592">
        <ele>87</ele>
        <time>2013-02-18T20:28:04.000Z</time>
      </trkpt>
      <trkpt lat="48.89279" lon="2.28597">
        <ele>87</ele>
        <time>2013-02-18T20:28:05.000Z</time>
      </trkpt>
      <trkpt lat="48.89281" lon="2.28602">
        <ele>85.6</ele>
        <time>2013-02-18T20:28:06.000Z</time>
      </trkpt>
      <trkpt lat="48.89283" lon="2.28607">
        <ele>84.7</ele>
        <time>2013-02-18T20:28:07.000Z</time>
      </trkpt>
      <trkpt lat="48.89285" lon="2.28612">
        <ele>83.7</ele>
        <time>2013-02-18T20:28:08.000Z</time>
      </trkpt>
      <trkpt lat="48.89286" lon="2.28618">
        <ele>84.3</ele>
        <time>2013-02-18T20:28:09.000Z</time>
      </trkpt>
      <trkpt lat="48.89288" lon="2.28623">
        <ele>83.7</ele>
        <time>2013-02-18T20:28:10.000Z</time>
      </trkpt>
      <trkpt lat="48.89291" lon="2.28632">
        <ele>83.3</ele>
        <time>2013-02-18T20:28:11.000Z</time>
      </trkpt>
      <trkpt lat="48.89292" lon="2.28637">
        <ele>82.8</ele>
        <time>2013-02-18T20:28:12.000Z</time>
      </trkpt>
      <trkpt lat="48.89294" lon="2.28641">
        <ele>82.7</ele>
        <time>2013-02-18T20:28:13.000Z</time>
      </trkpt>
      <trkpt lat="48.89296" lon="2.28645">
        <ele>82.2</ele>
        <time>2013-02-18T20:28:14.000Z</time>
      </trkpt>
      <trkpt lat="48.89298" lon="2.28649">
        <ele>81.3</ele>
        <time>2013-02-18T20:28:15.000Z</time>
      </trkpt>
      <trkpt lat="48.89299" lon="2.28656">
        <ele>80.4</ele>
        <time>2013-02-18T20:28:16.000Z</time>
      </trkpt>
      <trkpt lat="48.89302" lon="2.28659">
        <ele>80.7</ele>
        <time>2013-02-18T20:28:17.000Z</time>
      </trkpt>
      <trkpt lat="48.89305" lon="2.28665">
        <ele>80.9</ele>
        <time>2013-02-18T20:28:18.000Z</time>
      </trkpt>
      <trkpt lat="48.89307" lon="2.28671">
        <ele>80.3</ele>
        <time>2013-02-18T20:28:19.000Z</time>
      </trkpt>
      <trkpt lat="48.89307" lon="2.28679">
        <ele>79.1</ele>
        <time>2013-02-18T20:28:20.000Z</time>
      </trkpt>
      <trkpt lat="48.89308" lon="2.28682">
        <ele>77.3</ele>
        <time>2013-02-18T20:28:21.000Z</time>
      </trkpt>
      <trkpt lat="48.8931" lon="2.28686">
        <ele>77.1</ele>
        <time>2013-02-18T20:28:22.000Z</time>
      </trkpt>
      <trkpt lat="48.89317" lon="2.28698">
        <ele>82</ele>
        <time>2013-02-18T20:28:23.808Z</time>
      </trkpt>
      <trkpt lat="48.89317" lon="2.28707">
        <ele>80.9</ele>
        <time>2013-02-18T20:28:25.000Z</time>
      </trkpt>
      <trkpt lat="48.89321" lon="2.28714">
        <ele>80.5</ele>
        <time>2013-02-18T20:28:26.000Z</time>
      </trkpt>
      <trkpt lat="48.89323" lon="2.28721">
        <ele>79.6</ele>
        <time>2013-02-18T20:28:27.000Z</time>
      </trkpt>
      <trkpt lat="48.89326" lon="2.28727">
        <ele>78.4</ele>
        <time>2013-02-18T20:28:28.000Z</time>
      </trkpt>
      <trkpt lat="48.89329" lon="2.28733">
        <ele>78.2</ele>
        <time>2013-02-18T20:28:29.000Z</time>
      </trkpt>
      <trkpt lat="48.89332" lon="2.28739">
        <ele>77.8</ele>
        <time>2013-02-18T20:28:30.000Z</time>
      </trkpt>
      <trkpt lat="48.89335" lon="2.28747">
        <ele>78.2</ele>
        <time>2013-02-18T20:28:31.000Z</time>
      </trkpt>
      <trkpt lat="48.89338" lon="2.28754">
        <ele>79</ele>
        <time>2013-02-18T20:28:32.000Z</time>
      </trkpt>
      <trkpt lat="48.89341" lon="2.28759">
        <ele>77.8</ele>
        <time>2013-02-18T20:28:33.000Z</time>
      </trkpt>
      <trkpt lat="48.89344" lon="2.28765">
        <ele>78.3</ele>
        <time>2013-02-18T20:28:34.000Z</time>
      </trkpt>
      <trkpt lat="48.89347" lon="2.28771">
        <ele>78.1</ele>
        <time>2013-02-18T20:28:35.000Z</time>
      </trkpt>
      <trkpt lat="48.89348" lon="2.28777">
        <ele>77.6</ele>
        <time>2013-02-18T20:28:36.000Z</time>
      </trkpt>
      <trkpt lat="48.8935" lon="2.28785">
        <ele>76.4</ele>
        <time>2013-02-18T20:28:37.000Z</time>
      </trkpt>
      <trkpt lat="48.89352" lon="2.28792">
        <ele>76.8</ele>
        <time>2013-02-18T20:28:38.000Z</time>
      </trkpt>
      <trkpt lat="48.89355" lon="2.28798">
        <ele>75.7</ele>
        <time>2013-02-18T20:28:39.000Z</time>
      </trkpt>
      <trkpt lat="48.89357" lon="2.28803">
        <ele>74.4</ele>
        <time>2013-02-18T20:28:40.000Z</time>
      </trkpt>
      <trkpt lat="48.8936" lon="2.28808">
        <ele>74.1</ele>
        <time>2013-02-18T20:28:41.000Z</time>
      </trkpt>
      <trkpt lat="48.89362" lon="2.28814">
        <ele>73.5</ele>
        <time>2013-02-18T20:28:42.000Z</time>
      </trkpt>
      <trkpt lat="48.89365" lon="2.2882">
        <ele>73.5</ele>
        <time>2013-02-18T20:28:43.000Z</time>
      </trkpt>
      <trkpt lat="48.89368" lon="2.28826">
        <ele>72.7</ele>
        <time>2013-02-18T20:28:44.000Z</time>
      </trkpt>
      <trkpt lat="48.89371" lon="2.2883">
        <ele>72.2</ele>
        <time>2013-02-18T20:28:45.000Z</time>
      </trkpt>
      <trkpt lat="48.89374" lon="2.28835">
        <ele>72.1</ele>
        <time>2013-02-18T20:28:46.000Z</time>
      </trkpt>
      <trkpt lat="48.89377" lon="2.28839">
        <ele>71.4</ele>
        <time>2013-02-18T20:28:47.000Z</time>
      </trkpt>
      <trkpt lat="48.8938" lon="2.28843">
        <ele>71.5</ele>
        <time>2013-02-18T20:28:48.000Z</time>
      </trkpt>
      <trkpt lat="48.89383" lon="2.28846">
        <ele>70.9</ele>
        <time>2013-02-18T20:28:49.000Z</time>
      </trkpt>
      <trkpt lat="48.89385" lon="2.28849">
        <ele>71.1</ele>
        <time>2013-02-18T20:28:50.000Z</time>
      </trkpt>
      <trkpt lat="48.89387" lon="2.28854">
        <ele>71.8</ele>
        <time>2013-02-18T20:28:52.000Z</time>
      </trkpt>
      <trkpt lat="48.89388" lon="2.28856">
        <ele>72.3</ele>
        <time>2013-02-18T20:28:53.000Z</time>
      </trkpt>
      <trkpt lat="48.89388" lon="2.28862">
        <ele>71.2</ele>
        <time>2013-02-18T20:28:59.000Z</time>
      </trkpt>
      <trkpt lat="48.89388" lon="2.28863">
        <ele>71</ele>
        <time>2013-02-18T20:29:00.000Z</time>
      </trkpt>
      <trkpt lat="48.89391" lon="2.28867">
        <ele>72.7</ele>
        <time>2013-02-18T20:29:12.000Z</time>
      </trkpt>
      <trkpt lat="48.89393" lon="2.2887">
        <ele>73.8</ele>
        <time>2013-02-18T20:29:13.000Z</time>
      </trkpt>
      <trkpt lat="48.89395" lon="2.28875">
        <ele>76</ele>
        <time>2013-02-18T20:29:14.000Z</time>
      </trkpt>
      <trkpt lat="48.89396" lon="2.28879">
        <ele>76.9</ele>
        <time>2013-02-18T20:29:15.000Z</time>
      </trkpt>
      <trkpt lat="48.89398" lon="2.28883">
        <ele>77.5</ele>
        <time>2013-02-18T20:29:16.000Z</time>
      </trkpt>
      <trkpt lat="48.894" lon="2.28887">
        <ele>78.1</ele>
        <time>2013-02-18T20:29:17.000Z</time>
      </trkpt>
      <trkpt lat="48.89402" lon="2.28891">
        <ele>79.1</ele>
        <time>2013-02-18T20:29:18.000Z</time>
      </trkpt>
      <trkpt lat="48.89404" lon="2.28895">
        <ele>79.1</ele>
        <time>2013-02-18T20:29:19.000Z</time>
      </trkpt>
      <trkpt lat="48.89405" lon="2.28898">
        <ele>79.5</ele>
        <time>2013-02-18T20:29:20.000Z</time>
      </trkpt>
      <trkpt lat="48.89407" lon="2.28902">
        <ele>78.9</ele>
        <time>2013-02-18T20:29:21.000Z</time>
      </trkpt>
      <trkpt lat="48.89408" lon="2.28905">
        <ele>78.5</ele>
        <time>2013-02-18T20:29:22.000Z</time>
      </trkpt>
      <trkpt lat="48.89412" lon="2.28912">
        <ele>76.7</ele>
        <time>2013-02-18T20:29:23.905Z</time>
      </trkpt>
      <trkpt lat="48.89413" lon="2.28916">
        <ele>74.1</ele>
        <time>2013-02-18T20:29:25.000Z</time>
      </trkpt>
      <trkpt lat="48.89414" lon="2.28919">
        <ele>73.8</ele>
        <time>2013-02-18T20:29:26.000Z</time>
      </trkpt>
      <trkpt lat="48.89416" lon="2.28923">
        <ele>72.8</ele>
        <time>2013-02-18T20:29:27.000Z</time>
      </trkpt>
      <trkpt lat="48.89418" lon="2.28926">
        <ele>73</ele>
        <time>2013-02-18T20:29:28.000Z</time>
      </trkpt>
      <trkpt lat="48.8942" lon="2.28929">
        <ele>72</ele>
        <time>2013-02-18T20:29:29.000Z</time>
      </trkpt>
      <trkpt lat="48.89422" lon="2.28933">
        <ele>71</ele>
        <time>2013-02-18T20:29:30.000Z</time>
      </trkpt>
      <trkpt lat="48.89424" lon="2.28937">
        <ele>70.4</ele>
        <time>2013-02-18T20:29:31.000Z</time>
      </trkpt>
      <trkpt lat="48.89424" lon="2.28942">
        <ele>70.9</ele>
        <time>2013-02-18T20:29:32.000Z</time>
      </trkpt>
      <trkpt lat="48.89424" lon="2.28946">
        <ele>71.9</ele>
        <time>2013-02-18T20:29:33.000Z</time>
      </trkpt>
      <trkpt lat="48.89423" lon="2.28949">
        <ele>72.6</ele>
        <time>2013-02-18T20:29:34.000Z</time>
      </trkpt>
      <trkpt lat="48.89421" lon="2.28952">
        <ele>72.9</ele>
        <time>2013-02-18T20:29:35.000Z</time>
      </trkpt>
      <trkpt lat="48.89418" lon="2.28954">
        <ele>73</ele>
        <time>2013-02-18T20:29:36.000Z</time>
      </trkpt>
      <trkpt lat="48.89414" lon="2.28957">
        <ele>69.5</ele>
        <time>2013-02-18T20:29:37.000Z</time>
      </trkpt>
      <trkpt lat="48.8941" lon="2.2896">
        <ele>68.4</ele>
        <time>2013-02-18T20:29:38.000Z</time>
      </trkpt>
      <trkpt lat="48.89405" lon="2.28964">
        <ele>67.5</ele>
        <time>2013-02-18T20:29:39.000Z</time>
      </trkpt>
      <trkpt lat="48.894" lon="2.28968">
        <ele>68.6</ele>
        <time>2013-02-18T20:29:40.000Z</time>
      </trkpt>
      <trkpt lat="48.89395" lon="2.28973">
        <ele>69.1</ele>
        <time>2013-02-18T20:29:41.000Z</time>
      </trkpt>
      <trkpt lat="48.89391" lon="2.28977">
        <ele>70.3</ele>
        <time>2013-02-18T20:29:42.000Z</time>
      </trkpt>
      <trkpt lat="48.89387" lon="2.28981">
        <ele>71.3</ele>
        <time>2013-02-18T20:29:43.000Z</time>
      </trkpt>
      <trkpt lat="48.89383" lon="2.28986">
        <ele>73</ele>
        <time>2013-02-18T20:29:44.000Z</time>
      </trkpt>
      <trkpt lat="48.89379" lon="2.2899">
        <ele>74.7</ele>
        <time>2013-02-18T20:29:45.000Z</time>
      </trkpt>
      <trkpt lat="48.89375" lon="2.28994">
        <ele>77.2</ele>
        <time>2013-02-18T20:29:46.000Z</time>
      </trkpt>
      <trkpt lat="48.89371" lon="2.28999">
        <ele>78.1</ele>
        <time>2013-02-18T20:29:47.000Z</time>
      </trkpt>
      <trkpt lat="48.89368" lon="2.29003">
        <ele>77.5</ele>
        <time>2013-02-18T20:29:48.000Z</time>
      </trkpt>
      <trkpt lat="48.89364" lon="2.29008">
        <ele>77.9</ele>
        <time>2013-02-18T20:29:49.000Z</time>
      </trkpt>
      <trkpt lat="48.89355" lon="2.29018">
        <ele>77.6</ele>
        <time>2013-02-18T20:29:50.000Z</time>
      </trkpt>
      <trkpt lat="48.8935" lon="2.29023">
        <ele>77.4</ele>
        <time>2013-02-18T20:29:51.000Z</time>
      </trkpt>
      <trkpt lat="48.89347" lon="2.29025">
        <ele>77.3</ele>
        <time>2013-02-18T20:29:52.000Z</time>
      </trkpt>
      <trkpt lat="48.89343" lon="2.29027">
        <ele>75.6</ele>
        <time>2013-02-18T20:29:53.000Z</time>
      </trkpt>
      <trkpt lat="48.89339" lon="2.2903">
        <ele>75.5</ele>
        <time>2013-02-18T20:29:54.000Z</time>
      </trkpt>
      <trkpt lat="48.89335" lon="2.29034">
        <ele>76.7</ele>
        <time>2013-02-18T20:29:55.000Z</time>
      </trkpt>
      <trkpt lat="48.89333" lon="2.29037">
        <ele>76.6</ele>
        <time>2013-02-18T20:29:56.000Z</time>
      </trkpt>
      <trkpt lat="48.89329" lon="2.2904">
        <ele>76.6</ele>
        <time>2013-02-18T20:29:57.000Z</time>
      </trkpt>
      <trkpt lat="48.89326" lon="2.29043">
        <ele>75.6</ele>
        <time>2013-02-18T20:29:58.000Z</time>
      </trkpt>
      <trkpt lat="48.89322" lon="2.29047">
        <ele>75.9</ele>
        <time>2013-02-18T20:29:59.000Z</time>
      </trkpt>
      <trkpt lat="48.89318" lon="2.2905">
        <ele>75.7</ele>
        <time>2013-02-18T20:30:00.000Z</time>
      </trkpt>
      <trkpt lat="48.89315" lon="2.29053">
        <ele>74.9</ele>
        <time>2013-02-18T20:30:01.000Z</time>
      </trkpt>
      <trkpt lat="48.89311" lon="2.29055">
        <ele>75.1</ele>
        <time>2013-02-18T20:30:02.000Z</time>
      </trkpt>
      <trkpt lat="48.89308" lon="2.29059">
        <ele>75.1</ele>
        <time>2013-02-18T20:30:03.000Z</time>
      </trkpt>
      <trkpt lat="48.89304" lon="2.29062">
        <ele>75.1</ele>
        <time>2013-02-18T20:30:04.000Z</time>
      </trkpt>
      <trkpt lat="48.89299" lon="2.29065">
        <ele>75.1</ele>
        <time>2013-02-18T20:30:05.000Z</time>
      </trkpt>
      <trkpt lat="48.89296" lon="2.29067">
        <ele>74.4</ele>
        <time>2013-02-18T20:30:06.000Z</time>
      </trkpt>
      <trkpt lat="48.89292" lon="2.2907">
        <ele>77.3</ele>
        <time>2013-02-18T20:30:07.000Z</time>
      </trkpt>
      <trkpt lat="48.89288" lon="2.29073">
        <ele>77.4</ele>
        <time>2013-02-18T20:30:08.000Z</time>
      </trkpt>
      <trkpt lat="48.89285" lon="2.29074">
        <ele>72.7</ele>
        <time>2013-02-18T20:30:09.000Z</time>
      </trkpt>
      <trkpt lat="48.89282" lon="2.29076">
        <ele>70.3</ele>
        <time>2013-02-18T20:30:10.000Z</time>
      </trkpt>
      <trkpt lat="48.89279" lon="2.29076">
        <ele>70.6</ele>
        <time>2013-02-18T20:30:11.000Z</time>
      </trkpt>
      <trkpt lat="48.89276" lon="2.29078">
        <ele>70.9</ele>
        <time>2013-02-18T20:30:12.000Z</time>
      </trkpt>
      <trkpt lat="48.89273" lon="2.29079">
        <ele>70.8</ele>
        <time>2013-02-18T20:30:13.000Z</time>
      </trkpt>
      <trkpt lat="48.8927" lon="2.29081">
        <ele>70.6</ele>
        <time>2013-02-18T20:30:14.000Z</time>
      </trkpt>
      <trkpt lat="48.89267" lon="2.29084">
        <ele>70.1</ele>
        <time>2013-02-18T20:30:15.000Z</time>
      </trkpt>
      <trkpt lat="48.89264" lon="2.29088">
        <ele>70.7</ele>
        <time>2013-02-18T20:30:16.000Z</time>
      </trkpt>
      <trkpt lat="48.89261" lon="2.29092">
        <ele>72</ele>
        <time>2013-02-18T20:30:17.000Z</time>
      </trkpt>
      <trkpt lat="48.89258" lon="2.29096">
        <ele>71</ele>
        <time>2013-02-18T20:30:18.000Z</time>
      </trkpt>
      <trkpt lat="48.89255" lon="2.29099">
        <ele>69.9</ele>
        <time>2013-02-18T20:30:19.000Z</time>
      </trkpt>
      <trkpt lat="48.8925" lon="2.29103">
        <ele>69</ele>
        <time>2013-02-18T20:30:20.000Z</time>
      </trkpt>
      <trkpt lat="48.89246" lon="2.29108">
        <ele>67.6</ele>
        <time>2013-02-18T20:30:21.000Z</time>
      </trkpt>
      <trkpt lat="48.89242" lon="2.29112">
        <ele>67.7</ele>
        <time>2013-02-18T20:30:22.000Z</time>
      </trkpt>
      <trkpt lat="48.89228" lon="2.29123">
        <ele>67.8</ele>
        <time>2013-02-18T20:30:25.000Z</time>
      </trkpt>
      <trkpt lat="48.89224" lon="2.29128">
        <ele>68.6</ele>
        <time>2013-02-18T20:30:26.000Z</time>
      </trkpt>
      <trkpt lat="48.8922" lon="2.29132">
        <ele>69</ele>
        <time>2013-02-18T20:30:27.000Z</time>
      </trkpt>
      <trkpt lat="48.89215" lon="2.29136">
        <ele>69.7</ele>
        <time>2013-02-18T20:30:28.000Z</time>
      </trkpt>
      <trkpt lat="48.8921" lon="2.29141">
        <ele>69.8</ele>
        <time>2013-02-18T20:30:29.000Z</time>
      </trkpt>
      <trkpt lat="48.89202" lon="2.2915">
        <ele>70.4</ele>
        <time>2013-02-18T20:30:30.000Z</time>
      </trkpt>
      <trkpt lat="48.89196" lon="2.29154">
        <ele>70.6</ele>
        <time>2013-02-18T20:30:31.000Z</time>
      </trkpt>
      <trkpt lat="48.89188" lon="2.29161">
        <ele>68.1</ele>
        <time>2013-02-18T20:30:32.000Z</time>
      </trkpt>
      <trkpt lat="48.89182" lon="2.29165">
        <ele>67.1</ele>
        <time>2013-02-18T20:30:33.000Z</time>
      </trkpt>
      <trkpt lat="48.89176" lon="2.29169">
        <ele>67.1</ele>
        <time>2013-02-18T20:30:34.000Z</time>
      </trkpt>
      <trkpt lat="48.89168" lon="2.29173">
        <ele>68.9</ele>
        <time>2013-02-18T20:30:35.000Z</time>
      </trkpt>
      <trkpt lat="48.89162" lon="2.29178">
        <ele>70.9</ele>
        <time>2013-02-18T20:30:36.000Z</time>
      </trkpt>
      <trkpt lat="48.89158" lon="2.29184">
        <ele>71.7</ele>
        <time>2013-02-18T20:30:37.000Z</time>
      </trkpt>
      <trkpt lat="48.89155" lon="2.29186">
        <ele>72.3</ele>
        <time>2013-02-18T20:30:38.000Z</time>
      </trkpt>
      <trkpt lat="48.8915" lon="2.2919">
        <ele>73.1</ele>
        <time>2013-02-18T20:30:39.000Z</time>
      </trkpt>
      <trkpt lat="48.89144" lon="2.29193">
        <ele>73.6</ele>
        <time>2013-02-18T20:30:40.000Z</time>
      </trkpt>
      <trkpt lat="48.89141" lon="2.29196">
        <ele>73.9</ele>
        <time>2013-02-18T20:30:41.000Z</time>
      </trkpt>
      <trkpt lat="48.89136" lon="2.292">
        <ele>72</ele>
        <time>2013-02-18T20:30:42.000Z</time>
      </trkpt>
      <trkpt lat="48.89134" lon="2.29204">
        <ele>72.3</ele>
        <time>2013-02-18T20:30:43.000Z</time>
      </trkpt>
      <trkpt lat="48.89127" lon="2.2921">
        <ele>73.1</ele>
        <time>2013-02-18T20:30:44.000Z</time>
      </trkpt>
      <trkpt lat="48.89122" lon="2.29217">
        <ele>74.6</ele>
        <time>2013-02-18T20:30:45.000Z</time>
      </trkpt>
      <trkpt lat="48.89117" lon="2.29222">
        <ele>75.5</ele>
        <time>2013-02-18T20:30:46.000Z</time>
      </trkpt>
      <trkpt lat="48.8911" lon="2.29224">
        <ele>79</ele>
        <time>2013-02-18T20:30:47.000Z</time>
      </trkpt>
      <trkpt lat="48.89106" lon="2.29225">
        <ele>79.8</ele>
        <time>2013-02-18T20:30:48.000Z</time>
      </trkpt>
      <trkpt lat="48.89102" lon="2.29225">
        <ele>79.2</ele>
        <time>2013-02-18T20:30:49.000Z</time>
      </trkpt>
      <trkpt lat="48.89099" lon="2.29225">
        <ele>80.5</ele>
        <time>2013-02-18T20:30:50.000Z</time>
      </trkpt>
      <trkpt lat="48.89096" lon="2.29224">
        <ele>82</ele>
        <time>2013-02-18T20:30:51.000Z</time>
      </trkpt>
      <trkpt lat="48.89093" lon="2.29221">
        <ele>82.1</ele>
        <time>2013-02-18T20:30:52.000Z</time>
      </trkpt>
      <trkpt lat="48.89091" lon="2.29218">
        <ele>81.4</ele>
        <time>2013-02-18T20:30:53.000Z</time>
      </trkpt>
      <trkpt lat="48.89089" lon="2.29214">
        <ele>79.6</ele>
        <time>2013-02-18T20:30:54.000Z</time>
      </trkpt>
      <trkpt lat="48.89088" lon="2.2921">
        <ele>80</ele>
        <time>2013-02-18T20:30:55.000Z</time>
      </trkpt>
      <trkpt lat="48.89084" lon="2.29206">
        <ele>80.7</ele>
        <time>2013-02-18T20:30:57.000Z</time>
      </trkpt>
      <trkpt lat="48.89082" lon="2.29205">
        <ele>81.3</ele>
        <time>2013-02-18T20:30:58.000Z</time>
      </trkpt>
      <trkpt lat="48.8908" lon="2.29203">
        <ele>81</ele>
        <time>2013-02-18T20:30:59.000Z</time>
      </trkpt>
      <trkpt lat="48.89078" lon="2.29202">
        <ele>81.5</ele>
        <time>2013-02-18T20:31:00.000Z</time>
      </trkpt>
      <trkpt lat="48.89074" lon="2.29198">
        <ele>82.6</ele>
        <time>2013-02-18T20:31:03.000Z</time>
      </trkpt>
      <trkpt lat="48.89073" lon="2.29197">
        <ele>83.1</ele>
        <time>2013-02-18T20:31:04.000Z</time>
      </trkpt>
      <trkpt lat="48.8907" lon="2.29194">
        <ele>83.4</ele>
        <time>2013-02-18T20:31:06.000Z</time>
      </trkpt>
      <trkpt lat="48.89069" lon="2.29192">
        <ele>84.6</ele>
        <time>2013-02-18T20:31:07.000Z</time>
      </trkpt>
      <trkpt lat="48.89069" lon="2.29187">
        <ele>83.8</ele>
        <time>2013-02-18T20:31:09.000Z</time>
      </trkpt>
      <trkpt lat="48.89071" lon="2.29185">
        <ele>82.5</ele>
        <time>2013-02-18T20:31:10.000Z</time>
      </trkpt>
      <trkpt lat="48.89072" lon="2.29179">
        <ele>81.9</ele>
        <time>2013-02-18T20:31:12.000Z</time>
      </trkpt>
      <trkpt lat="48.89073" lon="2.29175">
        <ele>81.9</ele>
        <time>2013-02-18T20:31:13.000Z</time>
      </trkpt>
      <trkpt lat="48.89072" lon="2.29171">
        <ele>82</ele>
        <time>2013-02-18T20:31:14.000Z</time>
      </trkpt>
      <trkpt lat="48.89071" lon="2.29166">
        <ele>81.7</ele>
        <time>2013-02-18T20:31:15.000Z</time>
      </trkpt>
      <trkpt lat="48.89069" lon="2.29159">
        <ele>81.7</ele>
        <time>2013-02-18T20:31:16.000Z</time>
      </trkpt>
      <trkpt lat="48.89066" lon="2.29153">
        <ele>80.7</ele>
        <time>2013-02-18T20:31:17.000Z</time>
      </trkpt>
      <trkpt lat="48.89064" lon="2.29147">
        <ele>80.2</ele>
        <time>2013-02-18T20:31:18.000Z</time>
      </trkpt>
      <trkpt lat="48.89062" lon="2.29141">
        <ele>79</ele>
        <time>2013-02-18T20:31:19.000Z</time>
      </trkpt>
      <trkpt lat="48.89059" lon="2.29135">
        <ele>77.7</ele>
        <time>2013-02-18T20:31:20.000Z</time>
      </trkpt>
      <trkpt lat="48.89056" lon="2.29129">
        <ele>77.2</ele>
        <time>2013-02-18T20:31:21.000Z</time>
      </trkpt>
      <trkpt lat="48.89053" lon="2.29123">
        <ele>76</ele>
        <time>2013-02-18T20:31:22.000Z</time>
      </trkpt>
      <trkpt lat="48.89043" lon="2.29109">
        <ele>74.9</ele>
        <time>2013-02-18T20:31:25.000Z</time>
      </trkpt>
      <trkpt lat="48.89039" lon="2.29104">
        <ele>73.7</ele>
        <time>2013-02-18T20:31:26.000Z</time>
      </trkpt>
      <trkpt lat="48.89035" lon="2.291">
        <ele>72.1</ele>
        <time>2013-02-18T20:31:27.000Z</time>
      </trkpt>
      <trkpt lat="48.89031" lon="2.29097">
        <ele>71.1</ele>
        <time>2013-02-18T20:31:28.000Z</time>
      </trkpt>
      <trkpt lat="48.89027" lon="2.29093">
        <ele>70.4</ele>
        <time>2013-02-18T20:31:29.000Z</time>
      </trkpt>
      <trkpt lat="48.89023" lon="2.29089">
        <ele>70.5</ele>
        <time>2013-02-18T20:31:30.000Z</time>
      </trkpt>
      <trkpt lat="48.89019" lon="2.29085">
        <ele>71.3</ele>
        <time>2013-02-18T20:31:31.000Z</time>
      </trkpt>
      <trkpt lat="48.8901" lon="2.29073">
        <ele>71.4</ele>
        <time>2013-02-18T20:31:32.000Z</time>
      </trkpt>
      <trkpt lat="48.89006" lon="2.29066">
        <ele>72</ele>
        <time>2013-02-18T20:31:33.000Z</time>
      </trkpt>
      <trkpt lat="48.89001" lon="2.29061">
        <ele>71.5</ele>
        <time>2013-02-18T20:31:34.000Z</time>
      </trkpt>
      <trkpt lat="48.88997" lon="2.29056">
        <ele>71.4</ele>
        <time>2013-02-18T20:31:35.000Z</time>
      </trkpt>
      <trkpt lat="48.88993" lon="2.2905">
        <ele>71.7</ele>
        <time>2013-02-18T20:31:36.000Z</time>
      </trkpt>
      <trkpt lat="48.88995" lon="2.29042">
        <ele>68.9</ele>
        <time>2013-02-18T20:31:37.000Z</time>
      </trkpt>
      <trkpt lat="48.8899" lon="2.29038">
        <ele>68.8</ele>
        <time>2013-02-18T20:31:38.000Z</time>
      </trkpt>
      <trkpt lat="48.88988" lon="2.29031">
        <ele>69</ele>
        <time>2013-02-18T20:31:39.000Z</time>
      </trkpt>
      <trkpt lat="48.88983" lon="2.29027">
        <ele>67</ele>
        <time>2013-02-18T20:31:40.000Z</time>
      </trkpt>
      <trkpt lat="48.88977" lon="2.29022">
        <ele>67.4</ele>
        <time>2013-02-18T20:31:41.000Z</time>
      </trkpt>
      <trkpt lat="48.88972" lon="2.29018">
        <ele>68.1</ele>
        <time>2013-02-18T20:31:42.000Z</time>
      </trkpt>
      <trkpt lat="48.88972" lon="2.29009">
        <ele>67.9</ele>
        <time>2013-02-18T20:31:43.000Z</time>
      </trkpt>
      <trkpt lat="48.88972" lon="2.29001">
        <ele>67.4</ele>
        <time>2013-02-18T20:31:44.000Z</time>
      </trkpt>
      <trkpt lat="48.88968" lon="2.28993">
        <ele>67.4</ele>
        <time>2013-02-18T20:31:45.000Z</time>
      </trkpt>
      <trkpt lat="48.88966" lon="2.28984">
        <ele>67.4</ele>
        <time>2013-02-18T20:31:46.000Z</time>
      </trkpt>
      <trkpt lat="48.88963" lon="2.28976">
        <ele>66.7</ele>
        <time>2013-02-18T20:31:47.000Z</time>
      </trkpt>
      <trkpt lat="48.88959" lon="2.2897">
        <ele>66.4</ele>
        <time>2013-02-18T20:31:48.000Z</time>
      </trkpt>
      <trkpt lat="48.88955" lon="2.28964">
        <ele>66.3</ele>
        <time>2013-02-18T20:31:49.000Z</time>
      </trkpt>
      <trkpt lat="48.8895" lon="2.28959">
        <ele>66.5</ele>
        <time>2013-02-18T20:31:50.000Z</time>
      </trkpt>
      <trkpt lat="48.8895" lon="2.28953">
        <ele>65.5</ele>
        <time>2013-02-18T20:31:51.000Z</time>
      </trkpt>
      <trkpt lat="48.88948" lon="2.28947">
        <ele>65.2</ele>
        <time>2013-02-18T20:31:52.000Z</time>
      </trkpt>
      <trkpt lat="48.88944" lon="2.28943">
        <ele>64.3</ele>
        <time>2013-02-18T20:31:53.000Z</time>
      </trkpt>
      <trkpt lat="48.88941" lon="2.28938">
        <ele>63.7</ele>
        <time>2013-02-18T20:31:54.000Z</time>
      </trkpt>
      <trkpt lat="48.88938" lon="2.28931">
        <ele>64.2</ele>
        <time>2013-02-18T20:31:55.000Z</time>
      </trkpt>
      <trkpt lat="48.88937" lon="2.28927">
        <ele>63.3</ele>
        <time>2013-02-18T20:31:56.000Z</time>
      </trkpt>
      <trkpt lat="48.88935" lon="2.28922">
        <ele>73.8</ele>
        <time>2013-02-18T20:31:57.000Z</time>
      </trkpt>
      <trkpt lat="48.88933" lon="2.28917">
        <ele>70</ele>
        <time>2013-02-18T20:31:58.000Z</time>
      </trkpt>
      <trkpt lat="48.88932" lon="2.28911">
        <ele>67.1</ele>
        <time>2013-02-18T20:31:59.000Z</time>
      </trkpt>
      <trkpt lat="48.88932" lon="2.289">
        <ele>65.6</ele>
        <time>2013-02-18T20:32:00.000Z</time>
      </trkpt>
      <trkpt lat="48.88929" lon="2.28893">
        <ele>65</ele>
        <time>2013-02-18T20:32:01.000Z</time>
      </trkpt>
      <trkpt lat="48.88925" lon="2.28887">
        <ele>66.2</ele>
        <time>2013-02-18T20:32:02.000Z</time>
      </trkpt>
      <trkpt lat="48.88921" lon="2.2888">
        <ele>66.7</ele>
        <time>2013-02-18T20:32:03.000Z</time>
      </trkpt>
      <trkpt lat="48.88919" lon="2.28872">
        <ele>66.6</ele>
        <time>2013-02-18T20:32:04.000Z</time>
      </trkpt>
      <trkpt lat="48.88916" lon="2.28865">
        <ele>67.1</ele>
        <time>2013-02-18T20:32:05.000Z</time>
      </trkpt>
      <trkpt lat="48.88911" lon="2.2886">
        <ele>69.1</ele>
        <time>2013-02-18T20:32:06.000Z</time>
      </trkpt>
      <trkpt lat="48.88908" lon="2.28852">
        <ele>69.4</ele>
        <time>2013-02-18T20:32:07.000Z</time>
      </trkpt>
      <trkpt lat="48.88905" lon="2.28845">
        <ele>70.6</ele>
        <time>2013-02-18T20:32:08.000Z</time>
      </trkpt>
      <trkpt lat="48.88902" lon="2.2884">
        <ele>70</ele>
        <time>2013-02-18T20:32:09.000Z</time>
      </trkpt>
      <trkpt lat="48.88899" lon="2.28834">
        <ele>70</ele>
        <time>2013-02-18T20:32:10.000Z</time>
      </trkpt>
      <trkpt lat="48.88897" lon="2.28828">
        <ele>70.2</ele>
        <time>2013-02-18T20:32:11.000Z</time>
      </trkpt>
      <trkpt lat="48.88894" lon="2.28823">
        <ele>70.8</ele>
        <time>2013-02-18T20:32:12.000Z</time>
      </trkpt>
      <trkpt lat="48.88893" lon="2.28816">
        <ele>71.2</ele>
        <time>2013-02-18T20:32:13.000Z</time>
      </trkpt>
      <trkpt lat="48.88891" lon="2.2881">
        <ele>70.2</ele>
        <time>2013-02-18T20:32:14.000Z</time>
      </trkpt>
      <trkpt lat="48.88891" lon="2.28802">
        <ele>71.3</ele>
        <time>2013-02-18T20:32:15.000Z</time>
      </trkpt>
      <trkpt lat="48.88888" lon="2.28797">
        <ele>71.5</ele>
        <time>2013-02-18T20:32:16.000Z</time>
      </trkpt>
      <trkpt lat="48.88886" lon="2.28793">
        <ele>70.2</ele>
        <time>2013-02-18T20:32:17.000Z</time>
      </trkpt>
      <trkpt lat="48.88883" lon="2.2879">
        <ele>69.6</ele>
        <time>2013-02-18T20:32:18.000Z</time>
      </trkpt>
      <trkpt lat="48.88882" lon="2.28782">
        <ele>70.3</ele>
        <time>2013-02-18T20:32:19.000Z</time>
      </trkpt>
      <trkpt lat="48.8888" lon="2.28777">
        <ele>71.5</ele>
        <time>2013-02-18T20:32:20.000Z</time>
      </trkpt>
      <trkpt lat="48.88877" lon="2.28773">
        <ele>70.3</ele>
        <time>2013-02-18T20:32:21.000Z</time>
      </trkpt>
      <trkpt lat="48.88875" lon="2.28768">
        <ele>70.6</ele>
        <time>2013-02-18T20:32:22.000Z</time>
      </trkpt>
      <trkpt lat="48.88867" lon="2.28748">
        <ele>70.5</ele>
        <time>2013-02-18T20:32:25.000Z</time>
      </trkpt>
      <trkpt lat="48.88864" lon="2.28743">
        <ele>70</ele>
        <time>2013-02-18T20:32:26.000Z</time>
      </trkpt>
      <trkpt lat="48.88861" lon="2.28737">
        <ele>69.8</ele>
        <time>2013-02-18T20:32:27.000Z</time>
      </trkpt>
      <trkpt lat="48.88859" lon="2.28731">
        <ele>69.1</ele>
        <time>2013-02-18T20:32:28.000Z</time>
      </trkpt>
      <trkpt lat="48.88856" lon="2.28726">
        <ele>69.6</ele>
        <time>2013-02-18T20:32:29.000Z</time>
      </trkpt>
      <trkpt lat="48.88854" lon="2.28721">
        <ele>69.7</ele>
        <time>2013-02-18T20:32:30.000Z</time>
      </trkpt>
      <trkpt lat="48.88849" lon="2.28716">
        <ele>70.6</ele>
        <time>2013-02-18T20:32:31.000Z</time>
      </trkpt>
      <trkpt lat="48.88846" lon="2.2871">
        <ele>70.3</ele>
        <time>2013-02-18T20:32:32.000Z</time>
      </trkpt>
      <trkpt lat="48.88844" lon="2.28707">
        <ele>70.4</ele>
        <time>2013-02-18T20:32:33.000Z</time>
      </trkpt>
      <trkpt lat="48.88839" lon="2.28705">
        <ele>71.7</ele>
        <time>2013-02-18T20:32:34.000Z</time>
      </trkpt>
      <trkpt lat="48.88836" lon="2.28702">
        <ele>72.5</ele>
        <time>2013-02-18T20:32:35.000Z</time>
      </trkpt>
      <trkpt lat="48.88843" lon="2.28689">
        <ele>73.7</ele>
        <time>2013-02-18T20:32:36.000Z</time>
      </trkpt>
      <trkpt lat="48.88841" lon="2.28684">
        <ele>73.8</ele>
        <time>2013-02-18T20:32:37.000Z</time>
      </trkpt>
      <trkpt lat="48.8884" lon="2.2868">
        <ele>74</ele>
        <time>2013-02-18T20:32:38.000Z</time>
      </trkpt>
      <trkpt lat="48.88837" lon="2.28675">
        <ele>74.4</ele>
        <time>2013-02-18T20:32:39.000Z</time>
      </trkpt>
      <trkpt lat="48.88834" lon="2.28673">
        <ele>74.9</ele>
        <time>2013-02-18T20:32:40.000Z</time>
      </trkpt>
      <trkpt lat="48.88831" lon="2.28667">
        <ele>74.9</ele>
        <time>2013-02-18T20:32:41.000Z</time>
      </trkpt>
      <trkpt lat="48.88827" lon="2.28663">
        <ele>74.6</ele>
        <time>2013-02-18T20:32:42.000Z</time>
      </trkpt>
      <trkpt lat="48.88825" lon="2.28658">
        <ele>74.3</ele>
        <time>2013-02-18T20:32:43.000Z</time>
      </trkpt>
      <trkpt lat="48.88822" lon="2.28653">
        <ele>73.6</ele>
        <time>2013-02-18T20:32:44.000Z</time>
      </trkpt>
      <trkpt lat="48.88819" lon="2.28648">
        <ele>73.1</ele>
        <time>2013-02-18T20:32:45.000Z</time>
      </trkpt>
      <trkpt lat="48.88816" lon="2.28644">
        <ele>72.9</ele>
        <time>2013-02-18T20:32:46.000Z</time>
      </trkpt>
      <trkpt lat="48.88814" lon="2.28639">
        <ele>71.9</ele>
        <time>2013-02-18T20:32:47.000Z</time>
      </trkpt>
      <trkpt lat="48.88811" lon="2.28634">
        <ele>73.1</ele>
        <time>2013-02-18T20:32:48.000Z</time>
      </trkpt>
      <trkpt lat="48.88809" lon="2.28629">
        <ele>73.2</ele>
        <time>2013-02-18T20:32:49.000Z</time>
      </trkpt>
      <trkpt lat="48.88806" lon="2.28625">
        <ele>73.3</ele>
        <time>2013-02-18T20:32:50.000Z</time>
      </trkpt>
      <trkpt lat="48.88803" lon="2.2862">
        <ele>72.7</ele>
        <time>2013-02-18T20:32:51.000Z</time>
      </trkpt>
      <trkpt lat="48.88801" lon="2.28615">
        <ele>72.5</ele>
        <time>2013-02-18T20:32:52.000Z</time>
      </trkpt>
      <trkpt lat="48.88798" lon="2.2861">
        <ele>72.3</ele>
        <time>2013-02-18T20:32:53.000Z</time>
      </trkpt>
      <trkpt lat="48.88796" lon="2.28604">
        <ele>72.1</ele>
        <time>2013-02-18T20:32:54.000Z</time>
      </trkpt>
      <trkpt lat="48.88793" lon="2.28599">
        <ele>71.8</ele>
        <time>2013-02-18T20:32:55.000Z</time>
      </trkpt>
      <trkpt lat="48.88791" lon="2.28594">
        <ele>72.2</ele>
        <time>2013-02-18T20:32:56.000Z</time>
      </trkpt>
      <trkpt lat="48.88788" lon="2.28589">
        <ele>72.1</ele>
        <time>2013-02-18T20:32:57.000Z</time>
      </trkpt>
      <trkpt lat="48.88786" lon="2.28583">
        <ele>72.4</ele>
        <time>2013-02-18T20:32:58.000Z</time>
      </trkpt>
      <trkpt lat="48.88783" lon="2.28578">
        <ele>72.1</ele>
        <time>2013-02-18T20:32:59.000Z</time>
      </trkpt>
      <trkpt lat="48.88781" lon="2.28573">
        <ele>72.3</ele>
        <time>2013-02-18T20:33:00.000Z</time>
      </trkpt>
      <trkpt lat="48.88778" lon="2.28568">
        <ele>72</ele>
        <time>2013-02-18T20:33:01.000Z</time>
      </trkpt>
      <trkpt lat="48.88775" lon="2.28563">
        <ele>72.3</ele>
        <time>2013-02-18T20:33:02.000Z</time>
      </trkpt>
      <trkpt lat="48.88773" lon="2.28558">
        <ele>72.2</ele>
        <time>2013-02-18T20:33:03.000Z</time>
      </trkpt>
      <trkpt lat="48.88771" lon="2.28553">
        <ele>72.5</ele>
        <time>2013-02-18T20:33:04.000Z</time>
      </trkpt>
      <trkpt lat="48.88768" lon="2.28548">
        <ele>72.5</ele>
        <time>2013-02-18T20:33:05.000Z</time>
      </trkpt>
      <trkpt lat="48.88766" lon="2.28543">
        <ele>72.7</ele>
        <time>2013-02-18T20:33:06.000Z</time>
      </trkpt>
      <trkpt lat="48.88764" lon="2.28538">
        <ele>72.8</ele>
        <time>2013-02-18T20:33:07.000Z</time>
      </trkpt>
      <trkpt lat="48.88761" lon="2.28534">
        <ele>74.6</ele>
        <time>2013-02-18T20:33:08.000Z</time>
      </trkpt>
      <trkpt lat="48.88759" lon="2.2853">
        <ele>74.3</ele>
        <time>2013-02-18T20:33:09.000Z</time>
      </trkpt>
      <trkpt lat="48.88757" lon="2.28525">
        <ele>74.5</ele>
        <time>2013-02-18T20:33:10.000Z</time>
      </trkpt>
      <trkpt lat="48.88756" lon="2.28521">
        <ele>73.1</ele>
        <time>2013-02-18T20:33:11.000Z</time>
      </trkpt>
      <trkpt lat="48.88756" lon="2.28517">
        <ele>72</ele>
        <time>2013-02-18T20:33:12.000Z</time>
      </trkpt>
      <trkpt lat="48.88756" lon="2.28512">
        <ele>73.4</ele>
        <time>2013-02-18T20:33:13.000Z</time>
      </trkpt>
      <trkpt lat="48.88755" lon="2.28508">
        <ele>73.5</ele>
        <time>2013-02-18T20:33:14.000Z</time>
      </trkpt>
      <trkpt lat="48.88753" lon="2.28505">
        <ele>74</ele>
        <time>2013-02-18T20:33:15.000Z</time>
      </trkpt>
      <trkpt lat="48.8875" lon="2.28504">
        <ele>75</ele>
        <time>2013-02-18T20:33:17.000Z</time>
      </trkpt>
      <trkpt lat="48.88749" lon="2.28506">
        <ele>74.7</ele>
        <time>2013-02-18T20:33:18.000Z</time>
      </trkpt>
      <trkpt lat="48.88748" lon="2.28512">
        <ele>73</ele>
        <time>2013-02-18T20:33:20.000Z</time>
      </trkpt>
      <trkpt lat="48.8875" lon="2.28515">
        <ele>72.8</ele>
        <time>2013-02-18T20:33:21.000Z</time>
      </trkpt>
      <trkpt lat="48.88751" lon="2.28518">
        <ele>73.3</ele>
        <time>2013-02-18T20:33:22.000Z</time>
      </trkpt>
      <trkpt lat="48.88756" lon="2.28521">
        <ele>71.7</ele>
        <time>2013-02-18T20:33:24.357Z</time>
      </trkpt>
      <trkpt lat="48.8876" lon="2.28521">
        <ele>69.8</ele>
        <time>2013-02-18T20:33:26.000Z</time>
      </trkpt>
      <trkpt lat="48.88762" lon="2.28519">
        <ele>69.5</ele>
        <time>2013-02-18T20:33:27.000Z</time>
      </trkpt>
      <trkpt lat="48.88764" lon="2.28514">
        <ele>70.6</ele>
        <time>2013-02-18T20:33:29.000Z</time>
      </trkpt>
      <trkpt lat="48.88764" lon="2.2851">
        <ele>70.9</ele>
        <time>2013-02-18T20:33:30.000Z</time>
      </trkpt>
      <trkpt lat="48.88764" lon="2.28507">
        <ele>70.9</ele>
        <time>2013-02-18T20:33:31.000Z</time>
      </trkpt>
      <trkpt lat="48.88763" lon="2.28503">
        <ele>69</ele>
        <time>2013-02-18T20:33:32.000Z</time>
      </trkpt>
      <trkpt lat="48.88761" lon="2.28499">
        <ele>68.4</ele>
        <time>2013-02-18T20:33:33.000Z</time>
      </trkpt>
      <trkpt lat="48.88759" lon="2.28496">
        <ele>69.2</ele>
        <time>2013-02-18T20:33:34.000Z</time>
      </trkpt>
      <trkpt lat="48.88756" lon="2.28491">
        <ele>68.1</ele>
        <time>2013-02-18T20:33:35.000Z</time>
      </trkpt>
      <trkpt lat="48.88752" lon="2.28486">
        <ele>68.7</ele>
        <time>2013-02-18T20:33:36.000Z</time>
      </trkpt>
      <trkpt lat="48.88749" lon="2.28481">
        <ele>69.3</ele>
        <time>2013-02-18T20:33:37.000Z</time>
      </trkpt>
      <trkpt lat="48.88746" lon="2.28475">
        <ele>69.2</ele>
        <time>2013-02-18T20:33:38.000Z</time>
      </trkpt>
      <trkpt lat="48.88743" lon="2.2847">
        <ele>69.6</ele>
        <time>2013-02-18T20:33:39.000Z</time>
      </trkpt>
      <trkpt lat="48.8874" lon="2.28465">
        <ele>70.4</ele>
        <time>2013-02-18T20:33:40.000Z</time>
      </trkpt>
      <trkpt lat="48.88736" lon="2.2846">
        <ele>70.5</ele>
        <time>2013-02-18T20:33:41.000Z</time>
      </trkpt>
      <trkpt lat="48.88733" lon="2.28454">
        <ele>69.9</ele>
        <time>2013-02-18T20:33:42.000Z</time>
      </trkpt>
      <trkpt lat="48.8873" lon="2.28449">
        <ele>69.2</ele>
        <time>2013-02-18T20:33:43.000Z</time>
      </trkpt>
      <trkpt lat="48.88727" lon="2.28444">
        <ele>67.7</ele>
        <time>2013-02-18T20:33:44.000Z</time>
      </trkpt>
      <trkpt lat="48.88724" lon="2.2844">
        <ele>67.1</ele>
        <time>2013-02-18T20:33:45.000Z</time>
      </trkpt>
      <trkpt lat="48.88721" lon="2.28435">
        <ele>67.5</ele>
        <time>2013-02-18T20:33:46.000Z</time>
      </trkpt>
      <trkpt lat="48.88717" lon="2.28427">
        <ele>68.4</ele>
        <time>2013-02-18T20:33:47.000Z</time>
      </trkpt>
      <trkpt lat="48.88714" lon="2.28421">
        <ele>68.5</ele>
        <time>2013-02-18T20:33:48.000Z</time>
      </trkpt>
      <trkpt lat="48.88711" lon="2.28416">
        <ele>68.4</ele>
        <time>2013-02-18T20:33:49.000Z</time>
      </trkpt>
      <trkpt lat="48.88708" lon="2.28411">
        <ele>68.3</ele>
        <time>2013-02-18T20:33:50.000Z</time>
      </trkpt>
      <trkpt lat="48.88706" lon="2.28406">
        <ele>68.2</ele>
        <time>2013-02-18T20:33:51.000Z</time>
      </trkpt>
      <trkpt lat="48.88704" lon="2.284">
        <ele>68.9</ele>
        <time>2013-02-18T20:33:52.000Z</time>
      </trkpt>
      <trkpt lat="48.88703" lon="2.28395">
        <ele>68.7</ele>
        <time>2013-02-18T20:33:53.000Z</time>
      </trkpt>
      <trkpt lat="48.887" lon="2.28389">
        <ele>69.4</ele>
        <time>2013-02-18T20:33:54.000Z</time>
      </trkpt>
      <trkpt lat="48.88697" lon="2.28384">
        <ele>69.1</ele>
        <time>2013-02-18T20:33:55.000Z</time>
      </trkpt>
      <trkpt lat="48.88695" lon="2.28379">
        <ele>70</ele>
        <time>2013-02-18T20:33:56.000Z</time>
      </trkpt>
      <trkpt lat="48.88693" lon="2.28375">
        <ele>69.5</ele>
        <time>2013-02-18T20:33:57.000Z</time>
      </trkpt>
      <trkpt lat="48.88689" lon="2.28373">
        <ele>71.4</ele>
        <time>2013-02-18T20:33:58.000Z</time>
      </trkpt>
      <trkpt lat="48.8869" lon="2.28369">
        <ele>70.9</ele>
        <time>2013-02-18T20:33:59.000Z</time>
      </trkpt>
      <trkpt lat="48.88686" lon="2.28365">
        <ele>71.7</ele>
        <time>2013-02-18T20:34:00.000Z</time>
      </trkpt>
      <trkpt lat="48.88685" lon="2.28361">
        <ele>72.7</ele>
        <time>2013-02-18T20:34:01.000Z</time>
      </trkpt>
      <trkpt lat="48.88684" lon="2.28357">
        <ele>71.1</ele>
        <time>2013-02-18T20:34:02.000Z</time>
      </trkpt>
      <trkpt lat="48.88684" lon="2.28354">
        <ele>70.7</ele>
        <time>2013-02-18T20:34:03.000Z</time>
      </trkpt>
      <trkpt lat="48.88684" lon="2.2835">
        <ele>70.7</ele>
        <time>2013-02-18T20:34:04.000Z</time>
      </trkpt>
      <trkpt lat="48.88685" lon="2.28346">
        <ele>70.9</ele>
        <time>2013-02-18T20:34:05.000Z</time>
      </trkpt>
      <trkpt lat="48.88685" lon="2.28342">
        <ele>71.7</ele>
        <time>2013-02-18T20:34:06.000Z</time>
      </trkpt>
      <trkpt lat="48.88686" lon="2.28338">
        <ele>72</ele>
        <time>2013-02-18T20:34:07.000Z</time>
      </trkpt>
      <trkpt lat="48.88686" lon="2.28334">
        <ele>73</ele>
        <time>2013-02-18T20:34:08.000Z</time>
      </trkpt>
      <trkpt lat="48.88686" lon="2.28329">
        <ele>72.6</ele>
        <time>2013-02-18T20:34:09.000Z</time>
      </trkpt>
      <trkpt lat="48.88686" lon="2.28326">
        <ele>73.5</ele>
        <time>2013-02-18T20:34:10.000Z</time>
      </trkpt>
      <trkpt lat="48.88685" lon="2.28322">
        <ele>74</ele>
        <time>2013-02-18T20:34:11.000Z</time>
      </trkpt>
      <trkpt lat="48.88684" lon="2.28318">
        <ele>74.3</ele>
        <time>2013-02-18T20:34:12.000Z</time>
      </trkpt>
      <trkpt lat="48.88684" lon="2.28314">
        <ele>74.7</ele>
        <time>2013-02-18T20:34:13.000Z</time>
      </trkpt>
      <trkpt lat="48.88683" lon="2.28309">
        <ele>74.8</ele>
        <time>2013-02-18T20:34:14.000Z</time>
      </trkpt>
      <trkpt lat="48.88683" lon="2.28305">
        <ele>74</ele>
        <time>2013-02-18T20:34:15.000Z</time>
      </trkpt>
      <trkpt lat="48.88684" lon="2.283">
        <ele>74.9</ele>
        <time>2013-02-18T20:34:16.000Z</time>
      </trkpt>
      <trkpt lat="48.88684" lon="2.28295">
        <ele>75.9</ele>
        <time>2013-02-18T20:34:17.000Z</time>
      </trkpt>
      <trkpt lat="48.88684" lon="2.28289">
        <ele>75.4</ele>
        <time>2013-02-18T20:34:18.000Z</time>
      </trkpt>
      <trkpt lat="48.88685" lon="2.28284">
        <ele>75.1</ele>
        <time>2013-02-18T20:34:19.000Z</time>
      </trkpt>
      <trkpt lat="48.88685" lon="2.28279">
        <ele>74.9</ele>
        <time>2013-02-18T20:34:20.000Z</time>
      </trkpt>
      <trkpt lat="48.88685" lon="2.28273">
        <ele>74.6</ele>
        <time>2013-02-18T20:34:21.000Z</time>
      </trkpt>
      <trkpt lat="48.88686" lon="2.28267">
        <ele>75</ele>
        <time>2013-02-18T20:34:22.000Z</time>
      </trkpt>
      <trkpt lat="48.88688" lon="2.28254">
        <ele>75.7</ele>
        <time>2013-02-18T20:34:23.922Z</time>
      </trkpt>
      <trkpt lat="48.8869" lon="2.28248">
        <ele>75.7</ele>
        <time>2013-02-18T20:34:25.000Z</time>
      </trkpt>
      <trkpt lat="48.88691" lon="2.28242">
        <ele>75.2</ele>
        <time>2013-02-18T20:34:26.000Z</time>
      </trkpt>
      <trkpt lat="48.88692" lon="2.28236">
        <ele>75.7</ele>
        <time>2013-02-18T20:34:27.000Z</time>
      </trkpt>
      <trkpt lat="48.88693" lon="2.28228">
        <ele>76.3</ele>
        <time>2013-02-18T20:34:28.000Z</time>
      </trkpt>
      <trkpt lat="48.88695" lon="2.28213">
        <ele>75.7</ele>
        <time>2013-02-18T20:34:29.000Z</time>
      </trkpt>
      <trkpt lat="48.88696" lon="2.28206">
        <ele>75.5</ele>
        <time>2013-02-18T20:34:30.000Z</time>
      </trkpt>
      <trkpt lat="48.88698" lon="2.28199">
        <ele>75.4</ele>
        <time>2013-02-18T20:34:31.000Z</time>
      </trkpt>
      <trkpt lat="48.88698" lon="2.28191">
        <ele>75.6</ele>
        <time>2013-02-18T20:34:32.000Z</time>
      </trkpt>
      <trkpt lat="48.88699" lon="2.28181">
        <ele>76</ele>
        <time>2013-02-18T20:34:33.000Z</time>
      </trkpt>
      <trkpt lat="48.88702" lon="2.28172">
        <ele>75.7</ele>
        <time>2013-02-18T20:34:34.000Z</time>
      </trkpt>
      <trkpt lat="48.88704" lon="2.28163">
        <ele>76.2</ele>
        <time>2013-02-18T20:34:35.000Z</time>
      </trkpt>
      <trkpt lat="48.88705" lon="2.28154">
        <ele>75.8</ele>
        <time>2013-02-18T20:34:36.000Z</time>
      </trkpt>
      <trkpt lat="48.88706" lon="2.28145">
        <ele>75.8</ele>
        <time>2013-02-18T20:34:37.000Z</time>
      </trkpt>
      <trkpt lat="48.88708" lon="2.28137">
        <ele>75.9</ele>
        <time>2013-02-18T20:34:38.000Z</time>
      </trkpt>
      <trkpt lat="48.88709" lon="2.28127">
        <ele>76.1</ele>
        <time>2013-02-18T20:34:39.000Z</time>
      </trkpt>
      <trkpt lat="48.8871" lon="2.28117">
        <ele>76.3</ele>
        <time>2013-02-18T20:34:40.000Z</time>
      </trkpt>
      <trkpt lat="48.88711" lon="2.28108">
        <ele>76.6</ele>
        <time>2013-02-18T20:34:41.000Z</time>
      </trkpt>
      <trkpt lat="48.88713" lon="2.28099">
        <ele>76.7</ele>
        <time>2013-02-18T20:34:42.000Z</time>
      </trkpt>
      <trkpt lat="48.88715" lon="2.2809">
        <ele>76.2</ele>
        <time>2013-02-18T20:34:43.000Z</time>
      </trkpt>
      <trkpt lat="48.88717" lon="2.2808">
        <ele>75.6</ele>
        <time>2013-02-18T20:34:44.000Z</time>
      </trkpt>
      <trkpt lat="48.88719" lon="2.28071">
        <ele>75.7</ele>
        <time>2013-02-18T20:34:45.000Z</time>
      </trkpt>
      <trkpt lat="48.8872" lon="2.28059">
        <ele>75.6</ele>
        <time>2013-02-18T20:34:46.000Z</time>
      </trkpt>
      <trkpt lat="48.88722" lon="2.28049">
        <ele>75.9</ele>
        <time>2013-02-18T20:34:47.000Z</time>
      </trkpt>
      <trkpt lat="48.88725" lon="2.28039">
        <ele>75.8</ele>
        <time>2013-02-18T20:34:48.000Z</time>
      </trkpt>
      <trkpt lat="48.88726" lon="2.28027">
        <ele>76.8</ele>
        <time>2013-02-18T20:34:49.000Z</time>
      </trkpt>
      <trkpt lat="48.88727" lon="2.28017">
        <ele>76.8</ele>
        <time>2013-02-18T20:34:50.000Z</time>
      </trkpt>
      <trkpt lat="48.8873" lon="2.28007">
        <ele>77.4</ele>
        <time>2013-02-18T20:34:51.000Z</time>
      </trkpt>
      <trkpt lat="48.88731" lon="2.27998">
        <ele>77.3</ele>
        <time>2013-02-18T20:34:52.000Z</time>
      </trkpt>
      <trkpt lat="48.88733" lon="2.2799">
        <ele>77.7</ele>
        <time>2013-02-18T20:34:53.000Z</time>
      </trkpt>
      <trkpt lat="48.88735" lon="2.27981">
        <ele>78.2</ele>
        <time>2013-02-18T20:34:54.000Z</time>
      </trkpt>
      <trkpt lat="48.88736" lon="2.2797">
        <ele>78</ele>
        <time>2013-02-18T20:34:55.000Z</time>
      </trkpt>
      <trkpt lat="48.88738" lon="2.2796">
        <ele>78.4</ele>
        <time>2013-02-18T20:34:56.000Z</time>
      </trkpt>
      <trkpt lat="48.8874" lon="2.27951">
        <ele>79.1</ele>
        <time>2013-02-18T20:34:57.000Z</time>
      </trkpt>
      <trkpt lat="48.88741" lon="2.27941">
        <ele>79.3</ele>
        <time>2013-02-18T20:34:58.000Z</time>
      </trkpt>
      <trkpt lat="48.88742" lon="2.27933">
        <ele>79.2</ele>
        <time>2013-02-18T20:34:59.000Z</time>
      </trkpt>
      <trkpt lat="48.88743" lon="2.27927">
        <ele>78</ele>
        <time>2013-02-18T20:35:00.000Z</time>
      </trkpt>
      <trkpt lat="48.88745" lon="2.27921">
        <ele>77</ele>
        <time>2013-02-18T20:35:01.000Z</time>
      </trkpt>
      <trkpt lat="48.88745" lon="2.27913">
        <ele>76.3</ele>
        <time>2013-02-18T20:35:02.000Z</time>
      </trkpt>
      <trkpt lat="48.88747" lon="2.27906">
        <ele>76.4</ele>
        <time>2013-02-18T20:35:03.000Z</time>
      </trkpt>
      <trkpt lat="48.88748" lon="2.27899">
        <ele>77</ele>
        <time>2013-02-18T20:35:04.000Z</time>
      </trkpt>
      <trkpt lat="48.8875" lon="2.27892">
        <ele>77.5</ele>
        <time>2013-02-18T20:35:05.000Z</time>
      </trkpt>
      <trkpt lat="48.88752" lon="2.27886">
        <ele>77</ele>
        <time>2013-02-18T20:35:06.000Z</time>
      </trkpt>
      <trkpt lat="48.88753" lon="2.27882">
        <ele>76.7</ele>
        <time>2013-02-18T20:35:07.000Z</time>
      </trkpt>
      <trkpt lat="48.88754" lon="2.27876">
        <ele>76.8</ele>
        <time>2013-02-18T20:35:08.000Z</time>
      </trkpt>
      <trkpt lat="48.88756" lon="2.27871">
        <ele>77.3</ele>
        <time>2013-02-18T20:35:09.000Z</time>
      </trkpt>
      <trkpt lat="48.88757" lon="2.27866">
        <ele>77.3</ele>
        <time>2013-02-18T20:35:10.000Z</time>
      </trkpt>
      <trkpt lat="48.88757" lon="2.27862">
        <ele>77.4</ele>
        <time>2013-02-18T20:35:11.000Z</time>
      </trkpt>
      <trkpt lat="48.88758" lon="2.27857">
        <ele>77.4</ele>
        <time>2013-02-18T20:35:12.000Z</time>
      </trkpt>
      <trkpt lat="48.8876" lon="2.27853">
        <ele>77.9</ele>
        <time>2013-02-18T20:35:13.000Z</time>
      </trkpt>
      <trkpt lat="48.88762" lon="2.2785">
        <ele>78</ele>
        <time>2013-02-18T20:35:14.000Z</time>
      </trkpt>
      <trkpt lat="48.88765" lon="2.27846">
        <ele>78.8</ele>
        <time>2013-02-18T20:35:15.000Z</time>
      </trkpt>
      <trkpt lat="48.88768" lon="2.27843">
        <ele>78.5</ele>
        <time>2013-02-18T20:35:16.000Z</time>
      </trkpt>
      <trkpt lat="48.88771" lon="2.27841">
        <ele>78.3</ele>
        <time>2013-02-18T20:35:17.000Z</time>
      </trkpt>
      <trkpt lat="48.88774" lon="2.27838">
        <ele>79</ele>
        <time>2013-02-18T20:35:18.000Z</time>
      </trkpt>
      <trkpt lat="48.88777" lon="2.27835">
        <ele>78.5</ele>
        <time>2013-02-18T20:35:19.000Z</time>
      </trkpt>
      <trkpt lat="48.88781" lon="2.27832">
        <ele>79.2</ele>
        <time>2013-02-18T20:35:20.000Z</time>
      </trkpt>
      <trkpt lat="48.88784" lon="2.27829">
        <ele>79.8</ele>
        <time>2013-02-18T20:35:21.000Z</time>
      </trkpt>
      <trkpt lat="48.88788" lon="2.27826">
        <ele>79.7</ele>
        <time>2013-02-18T20:35:22.000Z</time>
      </trkpt>
      <trkpt lat="48.88797" lon="2.27817">
        <ele>79.9</ele>
        <time>2013-02-18T20:35:24.433Z</time>
      </trkpt>
      <trkpt lat="48.88798" lon="2.27815">
        <ele>79.9</ele>
        <time>2013-02-18T20:35:25.000Z</time>
      </trkpt>
      <trkpt lat="48.88802" lon="2.27812">
        <ele>80.2</ele>
        <time>2013-02-18T20:35:26.000Z</time>
      </trkpt>
      <trkpt lat="48.88805" lon="2.2781">
        <ele>80.3</ele>
        <time>2013-02-18T20:35:27.000Z</time>
      </trkpt>
      <trkpt lat="48.88809" lon="2.27808">
        <ele>80</ele>
        <time>2013-02-18T20:35:28.000Z</time>
      </trkpt>
      <trkpt lat="48.88813" lon="2.27806">
        <ele>79.7</ele>
        <time>2013-02-18T20:35:29.000Z</time>
      </trkpt>
      <trkpt lat="48.88819" lon="2.278">
        <ele>79.9</ele>
        <time>2013-02-18T20:35:30.000Z</time>
      </trkpt>
      <trkpt lat="48.88823" lon="2.27796">
        <ele>79.6</ele>
        <time>2013-02-18T20:35:31.000Z</time>
      </trkpt>
      <trkpt lat="48.88827" lon="2.27791">
        <ele>78.9</ele>
        <time>2013-02-18T20:35:32.000Z</time>
      </trkpt>
      <trkpt lat="48.88833" lon="2.27788">
        <ele>79.4</ele>
        <time>2013-02-18T20:35:33.000Z</time>
      </trkpt>
      <trkpt lat="48.88838" lon="2.27783">
        <ele>79.3</ele>
        <time>2013-02-18T20:35:34.000Z</time>
      </trkpt>
      <trkpt lat="48.88842" lon="2.2778">
        <ele>78.7</ele>
        <time>2013-02-18T20:35:35.000Z</time>
      </trkpt>
      <trkpt lat="48.88845" lon="2.27776">
        <ele>79.1</ele>
        <time>2013-02-18T20:35:36.000Z</time>
      </trkpt>
      <trkpt lat="48.88849" lon="2.2777">
        <ele>79</ele>
        <time>2013-02-18T20:35:37.000Z</time>
      </trkpt>
      <trkpt lat="48.88854" lon="2.27764">
        <ele>79.4</ele>
        <time>2013-02-18T20:35:38.000Z</time>
      </trkpt>
      <trkpt lat="48.88859" lon="2.27761">
        <ele>79</ele>
        <time>2013-02-18T20:35:39.000Z</time>
      </trkpt>
      <trkpt lat="48.88864" lon="2.27753">
        <ele>80.2</ele>
        <time>2013-02-18T20:35:40.000Z</time>
      </trkpt>
      <trkpt lat="48.88869" lon="2.27748">
        <ele>78.8</ele>
        <time>2013-02-18T20:35:41.000Z</time>
      </trkpt>
      <trkpt lat="48.88874" lon="2.27745">
        <ele>77.4</ele>
        <time>2013-02-18T20:35:42.000Z</time>
      </trkpt>
      <trkpt lat="48.88878" lon="2.27741">
        <ele>77.7</ele>
        <time>2013-02-18T20:35:43.000Z</time>
      </trkpt>
      <trkpt lat="48.88882" lon="2.27738">
        <ele>77.6</ele>
        <time>2013-02-18T20:35:44.000Z</time>
      </trkpt>
      <trkpt lat="48.88886" lon="2.27732">
        <ele>77.4</ele>
        <time>2013-02-18T20:35:45.000Z</time>
      </trkpt>
      <trkpt lat="48.88893" lon="2.27726">
        <ele>80.3</ele>
        <time>2013-02-18T20:35:46.000Z</time>
      </trkpt>
      <trkpt lat="48.88896" lon="2.27722">
        <ele>81.4</ele>
        <time>2013-02-18T20:35:47.000Z</time>
      </trkpt>
      <trkpt lat="48.88902" lon="2.27718">
        <ele>81.3</ele>
        <time>2013-02-18T20:35:48.000Z</time>
      </trkpt>
      <trkpt lat="48.88907" lon="2.27714">
        <ele>81.7</ele>
        <time>2013-02-18T20:35:49.000Z</time>
      </trkpt>
      <trkpt lat="48.88913" lon="2.27708">
        <ele>80.7</ele>
        <time>2013-02-18T20:35:50.000Z</time>
      </trkpt>
      <trkpt lat="48.88918" lon="2.27704">
        <ele>80.7</ele>
        <time>2013-02-18T20:35:51.000Z</time>
      </trkpt>
      <trkpt lat="48.88922" lon="2.27698">
        <ele>78.7</ele>
        <time>2013-02-18T20:35:52.000Z</time>
      </trkpt>
      <trkpt lat="48.88926" lon="2.27694">
        <ele>78.2</ele>
        <time>2013-02-18T20:35:53.000Z</time>
      </trkpt>
      <trkpt lat="48.88934" lon="2.27686">
        <ele>79.1</ele>
        <time>2013-02-18T20:35:54.000Z</time>
      </trkpt>
      <trkpt lat="48.88939" lon="2.27682">
        <ele>78.9</ele>
        <time>2013-02-18T20:35:55.000Z</time>
      </trkpt>
      <trkpt lat="48.88945" lon="2.27678">
        <ele>79.8</ele>
        <time>2013-02-18T20:35:56.000Z</time>
      </trkpt>
      <trkpt lat="48.88952" lon="2.27674">
        <ele>80</ele>
        <time>2013-02-18T20:35:57.000Z</time>
      </trkpt>
      <trkpt lat="48.88957" lon="2.2767">
        <ele>80</ele>
        <time>2013-02-18T20:35:58.000Z</time>
      </trkpt>
      <trkpt lat="48.88965" lon="2.27668">
        <ele>78.5</ele>
        <time>2013-02-18T20:35:59.000Z</time>
      </trkpt>
      <trkpt lat="48.88971" lon="2.27664">
        <ele>78.5</ele>
        <time>2013-02-18T20:36:00.000Z</time>
      </trkpt>
      <trkpt lat="48.88978" lon="2.27657">
        <ele>78</ele>
        <time>2013-02-18T20:36:01.000Z</time>
      </trkpt>
      <trkpt lat="48.88983" lon="2.27652">
        <ele>77.7</ele>
        <time>2013-02-18T20:36:02.000Z</time>
      </trkpt>
      <trkpt lat="48.88988" lon="2.27646">
        <ele>77.3</ele>
        <time>2013-02-18T20:36:03.000Z</time>
      </trkpt>
      <trkpt lat="48.88993" lon="2.27643">
        <ele>78.9</ele>
        <time>2013-02-18T20:36:04.000Z</time>
      </trkpt>
      <trkpt lat="48.88999" lon="2.27639">
        <ele>78.3</ele>
        <time>2013-02-18T20:36:05.000Z</time>
      </trkpt>
      <trkpt lat="48.89003" lon="2.27634">
        <ele>78.9</ele>
        <time>2013-02-18T20:36:06.000Z</time>
      </trkpt>
      <trkpt lat="48.89008" lon="2.27629">
        <ele>79.4</ele>
        <time>2013-02-18T20:36:07.000Z</time>
      </trkpt>
      <trkpt lat="48.89013" lon="2.27624">
        <ele>79.3</ele>
        <time>2013-02-18T20:36:08.000Z</time>
      </trkpt>
      <trkpt lat="48.89017" lon="2.27621">
        <ele>79.4</ele>
        <time>2013-02-18T20:36:09.000Z</time>
      </trkpt>
      <trkpt lat="48.89021" lon="2.27618">
        <ele>79.1</ele>
        <time>2013-02-18T20:36:10.000Z</time>
      </trkpt>
      <trkpt lat="48.89024" lon="2.27617">
        <ele>78.8</ele>
        <time>2013-02-18T20:36:11.000Z</time>
      </trkpt>
      <trkpt lat="48.89025" lon="2.27611">
        <ele>80.1</ele>
        <time>2013-02-18T20:36:12.000Z</time>
      </trkpt>
      <trkpt lat="48.89025" lon="2.27609">
        <ele>79.7</ele>
        <time>2013-02-18T20:36:13.000Z</time>
      </trkpt>
      <trkpt lat="48.89022" lon="2.27609">
        <ele>77.3</ele>
        <time>2013-02-18T20:36:17.000Z</time>
      </trkpt>
      <trkpt lat="48.89021" lon="2.2761">
        <ele>77.9</ele>
        <time>2013-02-18T20:36:18.000Z</time>
      </trkpt>
      <trkpt lat="48.89019" lon="2.27613">
        <ele>75.7</ele>
        <time>2013-02-18T20:36:19.000Z</time>
      </trkpt>
      <trkpt lat="48.89015" lon="2.27618">
        <ele>76.3</ele>
        <time>2013-02-18T20:36:20.000Z</time>
      </trkpt>
      <trkpt lat="48.89012" lon="2.2762">
        <ele>75.6</ele>
        <time>2013-02-18T20:36:21.000Z</time>
      </trkpt>
      <trkpt lat="48.89009" lon="2.27623">
        <ele>76.6</ele>
        <time>2013-02-18T20:36:22.000Z</time>
      </trkpt>
      <trkpt lat="48.89003" lon="2.27627">
        <ele>74.4</ele>
        <time>2013-02-18T20:36:23.946Z</time>
      </trkpt>
      <trkpt lat="48.89" lon="2.27629">
        <ele>75.4</ele>
        <time>2013-02-18T20:36:25.000Z</time>
      </trkpt>
      <trkpt lat="48.88997" lon="2.27631">
        <ele>74.1</ele>
        <time>2013-02-18T20:36:26.000Z</time>
      </trkpt>
      <trkpt lat="48.88993" lon="2.27632">
        <ele>73.6</ele>
        <time>2013-02-18T20:36:27.000Z</time>
      </trkpt>
      <trkpt lat="48.8899" lon="2.27634">
        <ele>73.2</ele>
        <time>2013-02-18T20:36:28.000Z</time>
      </trkpt>
      <trkpt lat="48.88986" lon="2.27635">
        <ele>72.8</ele>
        <time>2013-02-18T20:36:29.000Z</time>
      </trkpt>
      <trkpt lat="48.88983" lon="2.27635">
        <ele>73.1</ele>
        <time>2013-02-18T20:36:30.000Z</time>
      </trkpt>
      <trkpt lat="48.88979" lon="2.27631">
        <ele>71.9</ele>
        <time>2013-02-18T20:36:31.000Z</time>
      </trkpt>
      <trkpt lat="48.88976" lon="2.27629">
        <ele>71.9</ele>
        <time>2013-02-18T20:36:32.000Z</time>
      </trkpt>
      <trkpt lat="48.88973" lon="2.27626">
        <ele>74.1</ele>
        <time>2013-02-18T20:36:33.000Z</time>
      </trkpt>
      <trkpt lat="48.8897" lon="2.27623">
        <ele>74.2</ele>
        <time>2013-02-18T20:36:34.000Z</time>
      </trkpt>
      <trkpt lat="48.88968" lon="2.27619">
        <ele>74.5</ele>
        <time>2013-02-18T20:36:35.000Z</time>
      </trkpt>
      <trkpt lat="48.88966" lon="2.27614">
        <ele>74.4</ele>
        <time>2013-02-18T20:36:36.000Z</time>
      </trkpt>
      <trkpt lat="48.88965" lon="2.27609">
        <ele>74.6</ele>
        <time>2013-02-18T20:36:37.000Z</time>
      </trkpt>
      <trkpt lat="48.88965" lon="2.27603">
        <ele>74.2</ele>
        <time>2013-02-18T20:36:38.000Z</time>
      </trkpt>
      <trkpt lat="48.88965" lon="2.27598">
        <ele>73.6</ele>
        <time>2013-02-18T20:36:39.000Z</time>
      </trkpt>
      <trkpt lat="48.88966" lon="2.27592">
        <ele>73.2</ele>
        <time>2013-02-18T20:36:40.000Z</time>
      </trkpt>
      <trkpt lat="48.88968" lon="2.27587">
        <ele>72</ele>
        <time>2013-02-18T20:36:41.000Z</time>
      </trkpt>
      <trkpt lat="48.8897" lon="2.27582">
        <ele>71.9</ele>
        <time>2013-02-18T20:36:42.000Z</time>
      </trkpt>
      <trkpt lat="48.88973" lon="2.27578">
        <ele>70.9</ele>
        <time>2013-02-18T20:36:43.000Z</time>
      </trkpt>
      <trkpt lat="48.88976" lon="2.27574">
        <ele>71.3</ele>
        <time>2013-02-18T20:36:44.000Z</time>
      </trkpt>
      <trkpt lat="48.88979" lon="2.27571">
        <ele>71.9</ele>
        <time>2013-02-18T20:36:45.000Z</time>
      </trkpt>
      <trkpt lat="48.88983" lon="2.27568">
        <ele>71.4</ele>
        <time>2013-02-18T20:36:46.000Z</time>
      </trkpt>
      <trkpt lat="48.88986" lon="2.27564">
        <ele>70.7</ele>
        <time>2013-02-18T20:36:47.000Z</time>
      </trkpt>
      <trkpt lat="48.8899" lon="2.2756">
        <ele>71.6</ele>
        <time>2013-02-18T20:36:48.000Z</time>
      </trkpt>
      <trkpt lat="48.88993" lon="2.27555">
        <ele>72.9</ele>
        <time>2013-02-18T20:36:49.000Z</time>
      </trkpt>
      <trkpt lat="48.88996" lon="2.2755">
        <ele>73.2</ele>
        <time>2013-02-18T20:36:50.000Z</time>
      </trkpt>
      <trkpt lat="48.88998" lon="2.27546">
        <ele>72.9</ele>
        <time>2013-02-18T20:36:51.000Z</time>
      </trkpt>
      <trkpt lat="48.89001" lon="2.27542">
        <ele>72.5</ele>
        <time>2013-02-18T20:36:52.000Z</time>
      </trkpt>
      <trkpt lat="48.89005" lon="2.27538">
        <ele>71.9</ele>
        <time>2013-02-18T20:36:53.000Z</time>
      </trkpt>
      <trkpt lat="48.89008" lon="2.27533">
        <ele>72.9</ele>
        <time>2013-02-18T20:36:54.000Z</time>
      </trkpt>
      <trkpt lat="48.8901" lon="2.27529">
        <ele>74.1</ele>
        <time>2013-02-18T20:36:55.000Z</time>
      </trkpt>
      <trkpt lat="48.89013" lon="2.27524">
        <ele>74.3</ele>
        <time>2013-02-18T20:36:56.000Z</time>
      </trkpt>
      <trkpt lat="48.89016" lon="2.2752">
        <ele>74.1</ele>
        <time>2013-02-18T20:36:57.000Z</time>
      </trkpt>
      <trkpt lat="48.89019" lon="2.27517">
        <ele>71.2</ele>
        <time>2013-02-18T20:36:58.000Z</time>
      </trkpt>
      <trkpt lat="48.89021" lon="2.27514">
        <ele>70.6</ele>
        <time>2013-02-18T20:36:59.000Z</time>
      </trkpt>
      <trkpt lat="48.89024" lon="2.27511">
        <ele>69.9</ele>
        <time>2013-02-18T20:37:00.000Z</time>
      </trkpt>
      <trkpt lat="48.89027" lon="2.27508">
        <ele>69.4</ele>
        <time>2013-02-18T20:37:01.000Z</time>
      </trkpt>
      <trkpt lat="48.89031" lon="2.27506">
        <ele>69.6</ele>
        <time>2013-02-18T20:37:02.000Z</time>
      </trkpt>
      <trkpt lat="48.89034" lon="2.27505">
        <ele>68.3</ele>
        <time>2013-02-18T20:37:03.000Z</time>
      </trkpt>
      <trkpt lat="48.89037" lon="2.27504">
        <ele>66.7</ele>
        <time>2013-02-18T20:37:04.000Z</time>
      </trkpt>
      <trkpt lat="48.89039" lon="2.27501">
        <ele>68.1</ele>
        <time>2013-02-18T20:37:05.000Z</time>
      </trkpt>
      <trkpt lat="48.89042" lon="2.27496">
        <ele>68.7</ele>
        <time>2013-02-18T20:37:06.000Z</time>
      </trkpt>
      <trkpt lat="48.89044" lon="2.27492">
        <ele>68.3</ele>
        <time>2013-02-18T20:37:07.000Z</time>
      </trkpt>
      <trkpt lat="48.89046" lon="2.27487">
        <ele>68.2</ele>
        <time>2013-02-18T20:37:08.000Z</time>
      </trkpt>
      <trkpt lat="48.89048" lon="2.27483">
        <ele>68.1</ele>
        <time>2013-02-18T20:37:09.000Z</time>
      </trkpt>
      <trkpt lat="48.8905" lon="2.27478">
        <ele>68.1</ele>
        <time>2013-02-18T20:37:10.000Z</time>
      </trkpt>
      <trkpt lat="48.89051" lon="2.27473">
        <ele>67.8</ele>
        <time>2013-02-18T20:37:11.000Z</time>
      </trkpt>
      <trkpt lat="48.89053" lon="2.27468">
        <ele>68.7</ele>
        <time>2013-02-18T20:37:12.000Z</time>
      </trkpt>
      <trkpt lat="48.89054" lon="2.27463">
        <ele>70.7</ele>
        <time>2013-02-18T20:37:13.000Z</time>
      </trkpt>
      <trkpt lat="48.89055" lon="2.27458">
        <ele>74.3</ele>
        <time>2013-02-18T20:37:14.000Z</time>
      </trkpt>
      <trkpt lat="48.89055" lon="2.27452">
        <ele>75.9</ele>
        <time>2013-02-18T20:37:15.000Z</time>
      </trkpt>
      <trkpt lat="48.89053" lon="2.27447">
        <ele>79</ele>
        <time>2013-02-18T20:37:16.000Z</time>
      </trkpt>
      <trkpt lat="48.8905" lon="2.27442">
        <ele>79.6</ele>
        <time>2013-02-18T20:37:17.000Z</time>
      </trkpt>
      <trkpt lat="48.89047" lon="2.27438">
        <ele>79.3</ele>
        <time>2013-02-18T20:37:18.000Z</time>
      </trkpt>
      <trkpt lat="48.89043" lon="2.27434">
        <ele>80.6</ele>
        <time>2013-02-18T20:37:19.000Z</time>
      </trkpt>
      <trkpt lat="48.89039" lon="2.2743">
        <ele>81</ele>
        <time>2013-02-18T20:37:20.000Z</time>
      </trkpt>
      <trkpt lat="48.89035" lon="2.27426">
        <ele>80.4</ele>
        <time>2013-02-18T20:37:21.000Z</time>
      </trkpt>
      <trkpt lat="48.89032" lon="2.27422">
        <ele>80.5</ele>
        <time>2013-02-18T20:37:22.000Z</time>
      </trkpt>
      <trkpt lat="48.89025" lon="2.27415">
        <ele>79.3</ele>
        <time>2013-02-18T20:37:24.083Z</time>
      </trkpt>
      <trkpt lat="48.89022" lon="2.27412">
        <ele>80</ele>
        <time>2013-02-18T20:37:25.000Z</time>
      </trkpt>
      <trkpt lat="48.89019" lon="2.27409">
        <ele>79.4</ele>
        <time>2013-02-18T20:37:26.000Z</time>
      </trkpt>
      <trkpt lat="48.89016" lon="2.27405">
        <ele>80.1</ele>
        <time>2013-02-18T20:37:27.000Z</time>
      </trkpt>
      <trkpt lat="48.89013" lon="2.274">
        <ele>80.6</ele>
        <time>2013-02-18T20:37:28.000Z</time>
      </trkpt>
      <trkpt lat="48.8901" lon="2.27396">
        <ele>79.5</ele>
        <time>2013-02-18T20:37:29.000Z</time>
      </trkpt>
      <trkpt lat="48.89008" lon="2.27391">
        <ele>79.4</ele>
        <time>2013-02-18T20:37:30.000Z</time>
      </trkpt>
      <trkpt lat="48.89005" lon="2.27387">
        <ele>78.8</ele>
        <time>2013-02-18T20:37:31.000Z</time>
      </trkpt>
      <trkpt lat="48.89002" lon="2.27383">
        <ele>78.3</ele>
        <time>2013-02-18T20:37:32.000Z</time>
      </trkpt>
      <trkpt lat="48.88999" lon="2.2738">
        <ele>77.7</ele>
        <time>2013-02-18T20:37:33.000Z</time>
      </trkpt>
      <trkpt lat="48.88996" lon="2.27376">
        <ele>78</ele>
        <time>2013-02-18T20:37:34.000Z</time>
      </trkpt>
      <trkpt lat="48.88995" lon="2.27371">
        <ele>74.5</ele>
        <time>2013-02-18T20:37:35.000Z</time>
      </trkpt>
      <trkpt lat="48.88993" lon="2.27367">
        <ele>76.6</ele>
        <time>2013-02-18T20:37:36.000Z</time>
      </trkpt>
      <trkpt lat="48.88994" lon="2.27362">
        <ele>74.3</ele>
        <time>2013-02-18T20:37:37.000Z</time>
      </trkpt>
      <trkpt lat="48.88994" lon="2.27358">
        <ele>73.7</ele>
        <time>2013-02-18T20:37:38.000Z</time>
      </trkpt>
      <trkpt lat="48.88993" lon="2.27354">
        <ele>73.5</ele>
        <time>2013-02-18T20:37:39.000Z</time>
      </trkpt>
      <trkpt lat="48.88991" lon="2.27351">
        <ele>74.8</ele>
        <time>2013-02-18T20:37:40.000Z</time>
      </trkpt>
      <trkpt lat="48.88988" lon="2.27348">
        <ele>75.1</ele>
        <time>2013-02-18T20:37:41.000Z</time>
      </trkpt>
      <trkpt lat="48.88984" lon="2.27344">
        <ele>75.6</ele>
        <time>2013-02-18T20:37:42.000Z</time>
      </trkpt>
      <trkpt lat="48.8898" lon="2.2734">
        <ele>75.2</ele>
        <time>2013-02-18T20:37:43.000Z</time>
      </trkpt>
      <trkpt lat="48.88977" lon="2.27337">
        <ele>73.6</ele>
        <time>2013-02-18T20:37:44.000Z</time>
      </trkpt>
      <trkpt lat="48.88974" lon="2.27334">
        <ele>74.4</ele>
        <time>2013-02-18T20:37:45.000Z</time>
      </trkpt>
      <trkpt lat="48.8897" lon="2.27332">
        <ele>74.4</ele>
        <time>2013-02-18T20:37:46.000Z</time>
      </trkpt>
      <trkpt lat="48.88967" lon="2.27329">
        <ele>74.8</ele>
        <time>2013-02-18T20:37:47.000Z</time>
      </trkpt>
      <trkpt lat="48.88964" lon="2.27325">
        <ele>75.8</ele>
        <time>2013-02-18T20:37:48.000Z</time>
      </trkpt>
      <trkpt lat="48.88961" lon="2.27322">
        <ele>75.2</ele>
        <time>2013-02-18T20:37:49.000Z</time>
      </trkpt>
      <trkpt lat="48.88958" lon="2.27318">
        <ele>75.7</ele>
        <time>2013-02-18T20:37:50.000Z</time>
      </trkpt>
      <trkpt lat="48.88955" lon="2.27315">
        <ele>77.5</ele>
        <time>2013-02-18T20:37:51.000Z</time>
      </trkpt>
      <trkpt lat="48.88954" lon="2.27314">
        <ele>77.9</ele>
        <time>2013-02-18T20:37:52.000Z</time>
      </trkpt>
      <trkpt lat="48.88951" lon="2.27309">
        <ele>79.2</ele>
        <time>2013-02-18T20:37:55.000Z</time>
      </trkpt>
      <trkpt lat="48.8895" lon="2.27309">
        <ele>79.3</ele>
        <time>2013-02-18T20:37:56.000Z</time>
      </trkpt>
      <trkpt lat="48.88947" lon="2.27305">
        <ele>82.2</ele>
        <time>2013-02-18T20:38:31.000Z</time>
      </trkpt>
      <trkpt lat="48.88947" lon="2.27303">
        <ele>82.7</ele>
        <time>2013-02-18T20:38:32.000Z</time>
      </trkpt>
      <trkpt lat="48.88944" lon="2.27298">
        <ele>84.6</ele>
        <time>2013-02-18T20:38:34.000Z</time>
      </trkpt>
      <trkpt lat="48.88943" lon="2.27296">
        <ele>85</ele>
        <time>2013-02-18T20:38:35.000Z</time>
      </trkpt>
      <trkpt lat="48.88941" lon="2.27293">
        <ele>84.5</ele>
        <time>2013-02-18T20:38:36.000Z</time>
      </trkpt>
      <trkpt lat="48.88939" lon="2.27291">
        <ele>84.7</ele>
        <time>2013-02-18T20:38:37.000Z</time>
      </trkpt>
      <trkpt lat="48.88937" lon="2.27288">
        <ele>84.8</ele>
        <time>2013-02-18T20:38:38.000Z</time>
      </trkpt>
      <trkpt lat="48.88935" lon="2.27285">
        <ele>84.4</ele>
        <time>2013-02-18T20:38:39.000Z</time>
      </trkpt>
      <trkpt lat="48.88933" lon="2.27282">
        <ele>82.8</ele>
        <time>2013-02-18T20:38:40.000Z</time>
      </trkpt>
      <trkpt lat="48.88931" lon="2.27281">
        <ele>82.1</ele>
        <time>2013-02-18T20:38:41.000Z</time>
      </trkpt>
      <trkpt lat="48.88928" lon="2.2728">
        <ele>81.6</ele>
        <time>2013-02-18T20:38:42.000Z</time>
      </trkpt>
      <trkpt lat="48.88925" lon="2.27279">
        <ele>80.6</ele>
        <time>2013-02-18T20:38:43.000Z</time>
      </trkpt>
      <trkpt lat="48.88923" lon="2.27277">
        <ele>79.7</ele>
        <time>2013-02-18T20:38:44.000Z</time>
      </trkpt>
      <trkpt lat="48.8892" lon="2.27274">
        <ele>80.8</ele>
        <time>2013-02-18T20:38:45.000Z</time>
      </trkpt>
      <trkpt lat="48.88916" lon="2.2727">
        <ele>79.7</ele>
        <time>2013-02-18T20:38:46.000Z</time>
      </trkpt>
      <trkpt lat="48.88913" lon="2.27266">
        <ele>79.4</ele>
        <time>2013-02-18T20:38:47.000Z</time>
      </trkpt>
      <trkpt lat="48.88909" lon="2.27262">
        <ele>78.3</ele>
        <time>2013-02-18T20:38:48.000Z</time>
      </trkpt>
      <trkpt lat="48.88905" lon="2.27258">
        <ele>78.3</ele>
        <time>2013-02-18T20:38:49.000Z</time>
      </trkpt>
      <trkpt lat="48.88901" lon="2.27254">
        <ele>77.5</ele>
        <time>2013-02-18T20:38:50.000Z</time>
      </trkpt>
      <trkpt lat="48.88897" lon="2.2725">
        <ele>77.8</ele>
        <time>2013-02-18T20:38:51.000Z</time>
      </trkpt>
      <trkpt lat="48.88893" lon="2.27246">
        <ele>78</ele>
        <time>2013-02-18T20:38:52.000Z</time>
      </trkpt>
      <trkpt lat="48.88889" lon="2.27241">
        <ele>78.4</ele>
        <time>2013-02-18T20:38:53.000Z</time>
      </trkpt>
      <trkpt lat="48.88885" lon="2.27235">
        <ele>78.2</ele>
        <time>2013-02-18T20:38:54.000Z</time>
      </trkpt>
      <trkpt lat="48.88881" lon="2.2723">
        <ele>79</ele>
        <time>2013-02-18T20:38:55.000Z</time>
      </trkpt>
      <trkpt lat="48.88874" lon="2.2722">
        <ele>78</ele>
        <time>2013-02-18T20:38:56.000Z</time>
      </trkpt>
      <trkpt lat="48.8887" lon="2.27216">
        <ele>77.5</ele>
        <time>2013-02-18T20:38:57.000Z</time>
      </trkpt>
      <trkpt lat="48.88866" lon="2.27212">
        <ele>76.9</ele>
        <time>2013-02-18T20:38:58.000Z</time>
      </trkpt>
      <trkpt lat="48.88861" lon="2.2721">
        <ele>76.7</ele>
        <time>2013-02-18T20:38:59.000Z</time>
      </trkpt>
      <trkpt lat="48.88857" lon="2.27205">
        <ele>77.2</ele>
        <time>2013-02-18T20:39:00.000Z</time>
      </trkpt>
      <trkpt lat="48.88853" lon="2.27202">
        <ele>76.7</ele>
        <time>2013-02-18T20:39:01.000Z</time>
      </trkpt>
      <trkpt lat="48.88848" lon="2.27196">
        <ele>78.2</ele>
        <time>2013-02-18T20:39:02.000Z</time>
      </trkpt>
      <trkpt lat="48.88843" lon="2.27193">
        <ele>78.8</ele>
        <time>2013-02-18T20:39:03.000Z</time>
      </trkpt>
      <trkpt lat="48.88839" lon="2.27189">
        <ele>79</ele>
        <time>2013-02-18T20:39:04.000Z</time>
      </trkpt>
      <trkpt lat="48.88838" lon="2.27186">
        <ele>77.8</ele>
        <time>2013-02-18T20:39:05.000Z</time>
      </trkpt>
      <trkpt lat="48.88837" lon="2.27183">
        <ele>78.1</ele>
        <time>2013-02-18T20:39:06.000Z</time>
      </trkpt>
      <trkpt lat="48.88834" lon="2.2718">
        <ele>77.9</ele>
        <time>2013-02-18T20:39:07.000Z</time>
      </trkpt>
      <trkpt lat="48.88831" lon="2.27176">
        <ele>77.5</ele>
        <time>2013-02-18T20:39:08.000Z</time>
      </trkpt>
      <trkpt lat="48.88827" lon="2.27171">
        <ele>77.6</ele>
        <time>2013-02-18T20:39:09.000Z</time>
      </trkpt>
      <trkpt lat="48.88825" lon="2.27166">
        <ele>77</ele>
        <time>2013-02-18T20:39:10.000Z</time>
      </trkpt>
      <trkpt lat="48.88822" lon="2.27159">
        <ele>75.9</ele>
        <time>2013-02-18T20:39:11.000Z</time>
      </trkpt>
      <trkpt lat="48.88818" lon="2.27154">
        <ele>75.9</ele>
        <time>2013-02-18T20:39:12.000Z</time>
      </trkpt>
      <trkpt lat="48.88815" lon="2.27149">
        <ele>76.1</ele>
        <time>2013-02-18T20:39:13.000Z</time>
      </trkpt>
      <trkpt lat="48.88811" lon="2.27144">
        <ele>75.2</ele>
        <time>2013-02-18T20:39:14.000Z</time>
      </trkpt>
      <trkpt lat="48.88807" lon="2.27139">
        <ele>75.4</ele>
        <time>2013-02-18T20:39:15.000Z</time>
      </trkpt>
      <trkpt lat="48.88803" lon="2.27133">
        <ele>75</ele>
        <time>2013-02-18T20:39:16.000Z</time>
      </trkpt>
      <trkpt lat="48.88799" lon="2.27126">
        <ele>75.6</ele>
        <time>2013-02-18T20:39:17.000Z</time>
      </trkpt>
      <trkpt lat="48.88795" lon="2.2712">
        <ele>75.4</ele>
        <time>2013-02-18T20:39:18.000Z</time>
      </trkpt>
      <trkpt lat="48.8879" lon="2.27115">
        <ele>76.5</ele>
        <time>2013-02-18T20:39:19.000Z</time>
      </trkpt>
      <trkpt lat="48.88785" lon="2.27109">
        <ele>76.2</ele>
        <time>2013-02-18T20:39:20.000Z</time>
      </trkpt>
      <trkpt lat="48.8878" lon="2.27103">
        <ele>77.5</ele>
        <time>2013-02-18T20:39:21.000Z</time>
      </trkpt>
      <trkpt lat="48.88775" lon="2.27099">
        <ele>77.3</ele>
        <time>2013-02-18T20:39:22.000Z</time>
      </trkpt>
      <trkpt lat="48.88767" lon="2.2709">
        <ele>76.9</ele>
        <time>2013-02-18T20:39:23.978Z</time>
      </trkpt>
      <trkpt lat="48.88764" lon="2.27085">
        <ele>77.8</ele>
        <time>2013-02-18T20:39:25.000Z</time>
      </trkpt>
      <trkpt lat="48.88762" lon="2.27082">
        <ele>77.9</ele>
        <time>2013-02-18T20:39:26.000Z</time>
      </trkpt>
      <trkpt lat="48.88759" lon="2.27079">
        <ele>78.1</ele>
        <time>2013-02-18T20:39:27.000Z</time>
      </trkpt>
      <trkpt lat="48.88756" lon="2.27076">
        <ele>78.5</ele>
        <time>2013-02-18T20:39:28.000Z</time>
      </trkpt>
      <trkpt lat="48.88752" lon="2.27071">
        <ele>79.5</ele>
        <time>2013-02-18T20:39:29.000Z</time>
      </trkpt>
      <trkpt lat="48.88748" lon="2.27065">
        <ele>81.1</ele>
        <time>2013-02-18T20:39:30.000Z</time>
      </trkpt>
      <trkpt lat="48.88745" lon="2.27062">
        <ele>80.4</ele>
        <time>2013-02-18T20:39:31.000Z</time>
      </trkpt>
      <trkpt lat="48.8874" lon="2.27057">
        <ele>80.9</ele>
        <time>2013-02-18T20:39:32.000Z</time>
      </trkpt>
      <trkpt lat="48.88738" lon="2.27051">
        <ele>82</ele>
        <time>2013-02-18T20:39:33.000Z</time>
      </trkpt>
      <trkpt lat="48.88734" lon="2.27041">
        <ele>82.4</ele>
        <time>2013-02-18T20:39:34.000Z</time>
      </trkpt>
      <trkpt lat="48.8873" lon="2.27034">
        <ele>83.2</ele>
        <time>2013-02-18T20:39:35.000Z</time>
      </trkpt>
      <trkpt lat="48.88726" lon="2.27029">
        <ele>83.8</ele>
        <time>2013-02-18T20:39:36.000Z</time>
      </trkpt>
      <trkpt lat="48.88725" lon="2.27026">
        <ele>82.8</ele>
        <time>2013-02-18T20:39:37.000Z</time>
      </trkpt>
      <trkpt lat="48.88719" lon="2.27021">
        <ele>83.3</ele>
        <time>2013-02-18T20:39:38.000Z</time>
      </trkpt>
      <trkpt lat="48.88714" lon="2.27017">
        <ele>82.2</ele>
        <time>2013-02-18T20:39:39.000Z</time>
      </trkpt>
      <trkpt lat="48.88709" lon="2.27011">
        <ele>83.5</ele>
        <time>2013-02-18T20:39:40.000Z</time>
      </trkpt>
      <trkpt lat="48.88705" lon="2.27005">
        <ele>83.5</ele>
        <time>2013-02-18T20:39:41.000Z</time>
      </trkpt>
      <trkpt lat="48.88701" lon="2.27">
        <ele>84.3</ele>
        <time>2013-02-18T20:39:42.000Z</time>
      </trkpt>
      <trkpt lat="48.88697" lon="2.26994">
        <ele>83.5</ele>
        <time>2013-02-18T20:39:43.000Z</time>
      </trkpt>
      <trkpt lat="48.88693" lon="2.26988">
        <ele>83.1</ele>
        <time>2013-02-18T20:39:44.000Z</time>
      </trkpt>
      <trkpt lat="48.88688" lon="2.26983">
        <ele>83.4</ele>
        <time>2013-02-18T20:39:45.000Z</time>
      </trkpt>
      <trkpt lat="48.88683" lon="2.26977">
        <ele>83.7</ele>
        <time>2013-02-18T20:39:46.000Z</time>
      </trkpt>
      <trkpt lat="48.88676" lon="2.26972">
        <ele>84.2</ele>
        <time>2013-02-18T20:39:47.000Z</time>
      </trkpt>
      <trkpt lat="48.88672" lon="2.26967">
        <ele>84.7</ele>
        <time>2013-02-18T20:39:48.000Z</time>
      </trkpt>
      <trkpt lat="48.88665" lon="2.26962">
        <ele>84.8</ele>
        <time>2013-02-18T20:39:49.000Z</time>
      </trkpt>
      <trkpt lat="48.88661" lon="2.26957">
        <ele>85.1</ele>
        <time>2013-02-18T20:39:50.000Z</time>
      </trkpt>
      <trkpt lat="48.88658" lon="2.26953">
        <ele>85.4</ele>
        <time>2013-02-18T20:39:51.000Z</time>
      </trkpt>
      <trkpt lat="48.88653" lon="2.2695">
        <ele>86</ele>
        <time>2013-02-18T20:39:52.000Z</time>
      </trkpt>
      <trkpt lat="48.88649" lon="2.26946">
        <ele>85.9</ele>
        <time>2013-02-18T20:39:53.000Z</time>
      </trkpt>
      <trkpt lat="48.88645" lon="2.26942">
        <ele>84.8</ele>
        <time>2013-02-18T20:39:54.000Z</time>
      </trkpt>
      <trkpt lat="48.88638" lon="2.26937">
        <ele>85.1</ele>
        <time>2013-02-18T20:39:55.000Z</time>
      </trkpt>
      <trkpt lat="48.88632" lon="2.26931">
        <ele>82.2</ele>
        <time>2013-02-18T20:39:56.000Z</time>
      </trkpt>
      <trkpt lat="48.88628" lon="2.26927">
        <ele>82.5</ele>
        <time>2013-02-18T20:39:57.000Z</time>
      </trkpt>
      <trkpt lat="48.88624" lon="2.26922">
        <ele>83</ele>
        <time>2013-02-18T20:39:58.000Z</time>
      </trkpt>
      <trkpt lat="48.88618" lon="2.26918">
        <ele>83.5</ele>
        <time>2013-02-18T20:39:59.000Z</time>
      </trkpt>
      <trkpt lat="48.88614" lon="2.26913">
        <ele>83.7</ele>
        <time>2013-02-18T20:40:00.000Z</time>
      </trkpt>
      <trkpt lat="48.88612" lon="2.2691">
        <ele>82.2</ele>
        <time>2013-02-18T20:40:01.000Z</time>
      </trkpt>
      <trkpt lat="48.88609" lon="2.26905">
        <ele>82.8</ele>
        <time>2013-02-18T20:40:02.000Z</time>
      </trkpt>
      <trkpt lat="48.88606" lon="2.269">
        <ele>82</ele>
        <time>2013-02-18T20:40:03.000Z</time>
      </trkpt>
      <trkpt lat="48.88603" lon="2.26894">
        <ele>83.2</ele>
        <time>2013-02-18T20:40:04.000Z</time>
      </trkpt>
      <trkpt lat="48.88601" lon="2.2689">
        <ele>82.7</ele>
        <time>2013-02-18T20:40:05.000Z</time>
      </trkpt>
      <trkpt lat="48.88599" lon="2.26887">
        <ele>82</ele>
        <time>2013-02-18T20:40:06.000Z</time>
      </trkpt>
      <trkpt lat="48.88596" lon="2.26883">
        <ele>81.8</ele>
        <time>2013-02-18T20:40:07.000Z</time>
      </trkpt>
      <trkpt lat="48.88594" lon="2.2688">
        <ele>81.2</ele>
        <time>2013-02-18T20:40:08.000Z</time>
      </trkpt>
      <trkpt lat="48.88592" lon="2.26876">
        <ele>81.7</ele>
        <time>2013-02-18T20:40:09.000Z</time>
      </trkpt>
      <trkpt lat="48.8859" lon="2.26873">
        <ele>82.4</ele>
        <time>2013-02-18T20:40:10.000Z</time>
      </trkpt>
      <trkpt lat="48.88588" lon="2.2687">
        <ele>82.3</ele>
        <time>2013-02-18T20:40:11.000Z</time>
      </trkpt>
      <trkpt lat="48.88585" lon="2.26866">
        <ele>82</ele>
        <time>2013-02-18T20:40:12.000Z</time>
      </trkpt>
      <trkpt lat="48.88583" lon="2.26863">
        <ele>81.4</ele>
        <time>2013-02-18T20:40:13.000Z</time>
      </trkpt>
      <trkpt lat="48.8858" lon="2.2686">
        <ele>81.4</ele>
        <time>2013-02-18T20:40:14.000Z</time>
      </trkpt>
      <trkpt lat="48.88578" lon="2.26856">
        <ele>81.3</ele>
        <time>2013-02-18T20:40:15.000Z</time>
      </trkpt>
      <trkpt lat="48.88576" lon="2.26854">
        <ele>81.7</ele>
        <time>2013-02-18T20:40:16.000Z</time>
      </trkpt>
      <trkpt lat="48.88574" lon="2.26851">
        <ele>82.2</ele>
        <time>2013-02-18T20:40:17.000Z</time>
      </trkpt>
      <trkpt lat="48.88572" lon="2.26847">
        <ele>82.3</ele>
        <time>2013-02-18T20:40:18.000Z</time>
      </trkpt>
      <trkpt lat="48.8857" lon="2.26845">
        <ele>82.2</ele>
        <time>2013-02-18T20:40:19.000Z</time>
      </trkpt>
      <trkpt lat="48.88567" lon="2.26842">
        <ele>81.9</ele>
        <time>2013-02-18T20:40:20.000Z</time>
      </trkpt>
      <trkpt lat="48.88565" lon="2.2684">
        <ele>82.5</ele>
        <time>2013-02-18T20:40:21.000Z</time>
      </trkpt>
      <trkpt lat="48.88562" lon="2.26837">
        <ele>82.1</ele>
        <time>2013-02-18T20:40:22.000Z</time>
      </trkpt>
      <trkpt lat="48.88557" lon="2.26831">
        <ele>82.4</ele>
        <time>2013-02-18T20:40:23.899Z</time>
      </trkpt>
      <trkpt lat="48.88554" lon="2.26828">
        <ele>82.9</ele>
        <time>2013-02-18T20:40:25.000Z</time>
      </trkpt>
      <trkpt lat="48.88552" lon="2.26826">
        <ele>82.7</ele>
        <time>2013-02-18T20:40:26.000Z</time>
      </trkpt>
      <trkpt lat="48.8855" lon="2.26823">
        <ele>82.4</ele>
        <time>2013-02-18T20:40:27.000Z</time>
      </trkpt>
      <trkpt lat="48.88547" lon="2.2682">
        <ele>82.3</ele>
        <time>2013-02-18T20:40:28.000Z</time>
      </trkpt>
      <trkpt lat="48.88545" lon="2.26817">
        <ele>83.2</ele>
        <time>2013-02-18T20:40:29.000Z</time>
      </trkpt>
      <trkpt lat="48.88542" lon="2.26814">
        <ele>83.4</ele>
        <time>2013-02-18T20:40:30.000Z</time>
      </trkpt>
      <trkpt lat="48.88539" lon="2.2681">
        <ele>84</ele>
        <time>2013-02-18T20:40:31.000Z</time>
      </trkpt>
      <trkpt lat="48.88535" lon="2.26807">
        <ele>83.9</ele>
        <time>2013-02-18T20:40:32.000Z</time>
      </trkpt>
      <trkpt lat="48.88532" lon="2.26803">
        <ele>85</ele>
        <time>2013-02-18T20:40:33.000Z</time>
      </trkpt>
      <trkpt lat="48.88529" lon="2.26801">
        <ele>84.4</ele>
        <time>2013-02-18T20:40:34.000Z</time>
      </trkpt>
      <trkpt lat="48.88527" lon="2.26798">
        <ele>84.9</ele>
        <time>2013-02-18T20:40:35.000Z</time>
      </trkpt>
      <trkpt lat="48.88524" lon="2.26796">
        <ele>83.6</ele>
        <time>2013-02-18T20:40:36.000Z</time>
      </trkpt>
      <trkpt lat="48.88521" lon="2.26794">
        <ele>85.2</ele>
        <time>2013-02-18T20:40:37.000Z</time>
      </trkpt>
      <trkpt lat="48.88518" lon="2.26793">
        <ele>86.1</ele>
        <time>2013-02-18T20:40:38.000Z</time>
      </trkpt>
      <trkpt lat="48.88515" lon="2.26791">
        <ele>85.4</ele>
        <time>2013-02-18T20:40:39.000Z</time>
      </trkpt>
      <trkpt lat="48.88512" lon="2.26788">
        <ele>84.9</ele>
        <time>2013-02-18T20:40:40.000Z</time>
      </trkpt>
      <trkpt lat="48.8851" lon="2.26785">
        <ele>84.7</ele>
        <time>2013-02-18T20:40:41.000Z</time>
      </trkpt>
      <trkpt lat="48.88507" lon="2.26781">
        <ele>85</ele>
        <time>2013-02-18T20:40:42.000Z</time>
      </trkpt>
      <trkpt lat="48.88504" lon="2.26778">
        <ele>82.9</ele>
        <time>2013-02-18T20:40:43.000Z</time>
      </trkpt>
      <trkpt lat="48.88502" lon="2.26775">
        <ele>81.3</ele>
        <time>2013-02-18T20:40:44.000Z</time>
      </trkpt>
      <trkpt lat="48.88499" lon="2.26771">
        <ele>80.2</ele>
        <time>2013-02-18T20:40:45.000Z</time>
      </trkpt>
      <trkpt lat="48.88497" lon="2.26768">
        <ele>80.1</ele>
        <time>2013-02-18T20:40:46.000Z</time>
      </trkpt>
      <trkpt lat="48.88495" lon="2.26764">
        <ele>78</ele>
        <time>2013-02-18T20:40:47.000Z</time>
      </trkpt>
      <trkpt lat="48.88494" lon="2.26761">
        <ele>78.2</ele>
        <time>2013-02-18T20:40:48.000Z</time>
      </trkpt>
      <trkpt lat="48.88492" lon="2.26756">
        <ele>78.1</ele>
        <time>2013-02-18T20:40:51.000Z</time>
      </trkpt>
      <trkpt lat="48.88491" lon="2.26754">
        <ele>78.7</ele>
        <time>2013-02-18T20:40:52.000Z</time>
      </trkpt>
      <trkpt lat="48.88488" lon="2.26751">
        <ele>79.4</ele>
        <time>2013-02-18T20:40:55.000Z</time>
      </trkpt>
      <trkpt lat="48.88487" lon="2.26749">
        <ele>81.1</ele>
        <time>2013-02-18T20:40:56.000Z</time>
      </trkpt>
      <trkpt lat="48.88485" lon="2.26744">
        <ele>80.4</ele>
        <time>2013-02-18T20:40:58.000Z</time>
      </trkpt>
      <trkpt lat="48.88484" lon="2.26741">
        <ele>79.7</ele>
        <time>2013-02-18T20:40:59.000Z</time>
      </trkpt>
      <trkpt lat="48.88484" lon="2.26737">
        <ele>79.5</ele>
        <time>2013-02-18T20:41:00.000Z</time>
      </trkpt>
      <trkpt lat="48.88484" lon="2.26733">
        <ele>79.5</ele>
        <time>2013-02-18T20:41:01.000Z</time>
      </trkpt>
      <trkpt lat="48.88484" lon="2.26729">
        <ele>79.2</ele>
        <time>2013-02-18T20:41:02.000Z</time>
      </trkpt>
      <trkpt lat="48.88485" lon="2.26724">
        <ele>79.3</ele>
        <time>2013-02-18T20:41:03.000Z</time>
      </trkpt>
      <trkpt lat="48.88487" lon="2.26719">
        <ele>78.6</ele>
        <time>2013-02-18T20:41:04.000Z</time>
      </trkpt>
      <trkpt lat="48.88488" lon="2.26713">
        <ele>80.5</ele>
        <time>2013-02-18T20:41:05.000Z</time>
      </trkpt>
      <trkpt lat="48.88489" lon="2.26708">
        <ele>80.4</ele>
        <time>2013-02-18T20:41:06.000Z</time>
      </trkpt>
      <trkpt lat="48.8849" lon="2.26703">
        <ele>80.8</ele>
        <time>2013-02-18T20:41:07.000Z</time>
      </trkpt>
      <trkpt lat="48.88491" lon="2.26698">
        <ele>80.6</ele>
        <time>2013-02-18T20:41:08.000Z</time>
      </trkpt>
      <trkpt lat="48.88492" lon="2.26693">
        <ele>80.5</ele>
        <time>2013-02-18T20:41:09.000Z</time>
      </trkpt>
      <trkpt lat="48.88493" lon="2.26688">
        <ele>80.2</ele>
        <time>2013-02-18T20:41:10.000Z</time>
      </trkpt>
      <trkpt lat="48.88494" lon="2.26682">
        <ele>81.3</ele>
        <time>2013-02-18T20:41:11.000Z</time>
      </trkpt>
      <trkpt lat="48.88493" lon="2.26677">
        <ele>81.9</ele>
        <time>2013-02-18T20:41:12.000Z</time>
      </trkpt>
      <trkpt lat="48.88492" lon="2.26674">
        <ele>83.2</ele>
        <time>2013-02-18T20:41:13.000Z</time>
      </trkpt>
      <trkpt lat="48.8849" lon="2.26671">
        <ele>83.9</ele>
        <time>2013-02-18T20:41:14.000Z</time>
      </trkpt>
      <trkpt lat="48.88488" lon="2.26668">
        <ele>84.5</ele>
        <time>2013-02-18T20:41:15.000Z</time>
      </trkpt>
      <trkpt lat="48.88486" lon="2.26665">
        <ele>83.9</ele>
        <time>2013-02-18T20:41:16.000Z</time>
      </trkpt>
      <trkpt lat="48.88483" lon="2.26662">
        <ele>84</ele>
        <time>2013-02-18T20:41:17.000Z</time>
      </trkpt>
      <trkpt lat="48.88481" lon="2.26658">
        <ele>83.9</ele>
        <time>2013-02-18T20:41:18.000Z</time>
      </trkpt>
      <trkpt lat="48.88479" lon="2.26654">
        <ele>84</ele>
        <time>2013-02-18T20:41:19.000Z</time>
      </trkpt>
      <trkpt lat="48.88476" lon="2.2665">
        <ele>83.9</ele>
        <time>2013-02-18T20:41:20.000Z</time>
      </trkpt>
      <trkpt lat="48.88473" lon="2.26646">
        <ele>83.9</ele>
        <time>2013-02-18T20:41:21.000Z</time>
      </trkpt>
      <trkpt lat="48.8847" lon="2.26641">
        <ele>84.8</ele>
        <time>2013-02-18T20:41:22.000Z</time>
      </trkpt>
      <trkpt lat="48.88459" lon="2.26627">
        <ele>85.1</ele>
        <time>2013-02-18T20:41:25.000Z</time>
      </trkpt>
      <trkpt lat="48.88457" lon="2.26623">
        <ele>83.2</ele>
        <time>2013-02-18T20:41:26.000Z</time>
      </trkpt>
      <trkpt lat="48.88455" lon="2.26619">
        <ele>82.3</ele>
        <time>2013-02-18T20:41:27.000Z</time>
      </trkpt>
      <trkpt lat="48.88454" lon="2.26616">
        <ele>82.4</ele>
        <time>2013-02-18T20:41:28.000Z</time>
      </trkpt>
      <trkpt lat="48.88452" lon="2.26612">
        <ele>81.8</ele>
        <time>2013-02-18T20:41:29.000Z</time>
      </trkpt>
      <trkpt lat="48.88451" lon="2.26609">
        <ele>80.5</ele>
        <time>2013-02-18T20:41:30.000Z</time>
      </trkpt>
      <trkpt lat="48.88449" lon="2.26605">
        <ele>81.8</ele>
        <time>2013-02-18T20:41:31.000Z</time>
      </trkpt>
      <trkpt lat="48.88447" lon="2.26601">
        <ele>82.1</ele>
        <time>2013-02-18T20:41:32.000Z</time>
      </trkpt>
      <trkpt lat="48.88445" lon="2.26596">
        <ele>83.4</ele>
        <time>2013-02-18T20:41:33.000Z</time>
      </trkpt>
      <trkpt lat="48.88442" lon="2.26592">
        <ele>84.9</ele>
        <time>2013-02-18T20:41:34.000Z</time>
      </trkpt>
      <trkpt lat="48.88439" lon="2.26587">
        <ele>85.8</ele>
        <time>2013-02-18T20:41:35.000Z</time>
      </trkpt>
      <trkpt lat="48.88437" lon="2.26583">
        <ele>86.1</ele>
        <time>2013-02-18T20:41:36.000Z</time>
      </trkpt>
      <trkpt lat="48.88434" lon="2.26579">
        <ele>86.9</ele>
        <time>2013-02-18T20:41:37.000Z</time>
      </trkpt>
      <trkpt lat="48.88431" lon="2.26575">
        <ele>87</ele>
        <time>2013-02-18T20:41:38.000Z</time>
      </trkpt>
      <trkpt lat="48.88426" lon="2.26572">
        <ele>85.1</ele>
        <time>2013-02-18T20:41:39.000Z</time>
      </trkpt>
      <trkpt lat="48.88422" lon="2.26569">
        <ele>82.6</ele>
        <time>2013-02-18T20:41:40.000Z</time>
      </trkpt>
      <trkpt lat="48.88417" lon="2.26566">
        <ele>81.6</ele>
        <time>2013-02-18T20:41:41.000Z</time>
      </trkpt>
      <trkpt lat="48.88413" lon="2.26563">
        <ele>80.6</ele>
        <time>2013-02-18T20:41:42.000Z</time>
      </trkpt>
      <trkpt lat="48.8841" lon="2.2656">
        <ele>81.7</ele>
        <time>2013-02-18T20:41:43.000Z</time>
      </trkpt>
      <trkpt lat="48.88406" lon="2.26556">
        <ele>81.8</ele>
        <time>2013-02-18T20:41:44.000Z</time>
      </trkpt>
      <trkpt lat="48.88403" lon="2.26553">
        <ele>81.7</ele>
        <time>2013-02-18T20:41:45.000Z</time>
      </trkpt>
      <trkpt lat="48.88399" lon="2.26551">
        <ele>83.6</ele>
        <time>2013-02-18T20:41:46.000Z</time>
      </trkpt>
      <trkpt lat="48.88396" lon="2.26548">
        <ele>83.2</ele>
        <time>2013-02-18T20:41:47.000Z</time>
      </trkpt>
      <trkpt lat="48.88394" lon="2.26546">
        <ele>84.8</ele>
        <time>2013-02-18T20:41:48.000Z</time>
      </trkpt>
      <trkpt lat="48.8839" lon="2.26545">
        <ele>84.3</ele>
        <time>2013-02-18T20:41:49.000Z</time>
      </trkpt>
      <trkpt lat="48.88387" lon="2.26543">
        <ele>83.8</ele>
        <time>2013-02-18T20:41:50.000Z</time>
      </trkpt>
      <trkpt lat="48.88384" lon="2.26541">
        <ele>82.5</ele>
        <time>2013-02-18T20:41:51.000Z</time>
      </trkpt>
      <trkpt lat="48.88381" lon="2.26539">
        <ele>82.9</ele>
        <time>2013-02-18T20:41:52.000Z</time>
      </trkpt>
      <trkpt lat="48.88379" lon="2.26538">
        <ele>82.8</ele>
        <time>2013-02-18T20:41:53.000Z</time>
      </trkpt>
      <trkpt lat="48.88377" lon="2.26537">
        <ele>83.3</ele>
        <time>2013-02-18T20:41:54.000Z</time>
      </trkpt>
      <trkpt lat="48.88374" lon="2.26536">
        <ele>83.2</ele>
        <time>2013-02-18T20:41:55.000Z</time>
      </trkpt>
      <trkpt lat="48.88372" lon="2.26534">
        <ele>83.5</ele>
        <time>2013-02-18T20:41:56.000Z</time>
      </trkpt>
      <trkpt lat="48.88369" lon="2.26532">
        <ele>82.3</ele>
        <time>2013-02-18T20:41:57.000Z</time>
      </trkpt>
      <trkpt lat="48.88367" lon="2.2653">
        <ele>82.6</ele>
        <time>2013-02-18T20:41:58.000Z</time>
      </trkpt>
      <trkpt lat="48.88364" lon="2.26528">
        <ele>83.8</ele>
        <time>2013-02-18T20:41:59.000Z</time>
      </trkpt>
      <trkpt lat="48.88363" lon="2.26527">
        <ele>83.5</ele>
        <time>2013-02-18T20:42:00.000Z</time>
      </trkpt>
      <trkpt lat="48.8836" lon="2.26525">
        <ele>85</ele>
        <time>2013-02-18T20:42:01.000Z</time>
      </trkpt>
      <trkpt lat="48.88357" lon="2.26521">
        <ele>85.6</ele>
        <time>2013-02-18T20:42:03.000Z</time>
      </trkpt>
      <trkpt lat="48.88356" lon="2.26519">
        <ele>85.5</ele>
        <time>2013-02-18T20:42:04.000Z</time>
      </trkpt>
      <trkpt lat="48.88352" lon="2.26516">
        <ele>85.1</ele>
        <time>2013-02-18T20:42:07.000Z</time>
      </trkpt>
      <trkpt lat="48.88351" lon="2.26516">
        <ele>84.7</ele>
        <time>2013-02-18T20:42:08.000Z</time>
      </trkpt>
      <trkpt lat="48.88348" lon="2.26519">
        <ele>84.6</ele>
        <time>2013-02-18T20:42:12.000Z</time>
      </trkpt>
      <trkpt lat="48.88347" lon="2.26521">
        <ele>84.2</ele>
        <time>2013-02-18T20:42:13.000Z</time>
      </trkpt>
      <trkpt lat="48.88345" lon="2.26524">
        <ele>83.2</ele>
        <time>2013-02-18T20:42:16.000Z</time>
      </trkpt>
      <trkpt lat="48.88344" lon="2.26526">
        <ele>82.5</ele>
        <time>2013-02-18T20:42:17.000Z</time>
      </trkpt>
      <trkpt lat="48.88342" lon="2.26532">
        <ele>82.9</ele>
        <time>2013-02-18T20:42:21.000Z</time>
      </trkpt>
      <trkpt lat="48.88342" lon="2.26533">
        <ele>82.8</ele>
        <time>2013-02-18T20:42:22.000Z</time>
      </trkpt>
      <trkpt lat="48.8834" lon="2.26529">
        <ele>83.4</ele>
        <time>2013-02-18T20:43:17.000Z</time>
      </trkpt>
      <trkpt lat="48.88338" lon="2.26526">
        <ele>83.3</ele>
        <time>2013-02-18T20:43:18.000Z</time>
      </trkpt>
      <trkpt lat="48.88336" lon="2.26523">
        <ele>86.3</ele>
        <time>2013-02-18T20:43:19.000Z</time>
      </trkpt>
      <trkpt lat="48.88335" lon="2.26519">
        <ele>87.8</ele>
        <time>2013-02-18T20:43:20.000Z</time>
      </trkpt>
      <trkpt lat="48.88332" lon="2.26514">
        <ele>85.3</ele>
        <time>2013-02-18T20:43:21.000Z</time>
      </trkpt>
      <trkpt lat="48.88327" lon="2.26504">
        <ele>88.5</ele>
        <time>2013-02-18T20:43:22.000Z</time>
      </trkpt>
      <trkpt lat="48.88324" lon="2.26498">
        <ele>87.7</ele>
        <time>2013-02-18T20:43:24.011Z</time>
      </trkpt>
      <trkpt lat="48.88325" lon="2.26496">
        <ele>87.8</ele>
        <time>2013-02-18T20:43:25.000Z</time>
      </trkpt>
      <trkpt lat="48.88326" lon="2.2649">
        <ele>88.3</ele>
        <time>2013-02-18T20:43:28.000Z</time>
      </trkpt>
      <trkpt lat="48.88326" lon="2.26488">
        <ele>88.1</ele>
        <time>2013-02-18T20:43:29.000Z</time>
      </trkpt>
      <trkpt lat="48.88324" lon="2.26483">
        <ele>87.6</ele>
        <time>2013-02-18T20:43:32.000Z</time>
      </trkpt>
      <trkpt lat="48.88323" lon="2.26482">
        <ele>88.1</ele>
        <time>2013-02-18T20:43:33.000Z</time>
      </trkpt>
      <trkpt lat="48.88319" lon="2.26483">
        <ele>83.1</ele>
        <time>2013-02-18T20:43:47.000Z</time>
      </trkpt>
      <trkpt lat="48.88318" lon="2.26483">
        <ele>83.9</ele>
        <time>2013-02-18T20:43:48.000Z</time>
      </trkpt>
      <trkpt lat="48.88318" lon="2.26477">
        <ele>81.3</ele>
        <time>2013-02-18T20:43:58.000Z</time>
      </trkpt>
      <trkpt lat="48.88317" lon="2.26473">
        <ele>80.7</ele>
        <time>2013-02-18T20:43:59.000Z</time>
      </trkpt>
      <trkpt lat="48.88314" lon="2.26468">
        <ele>79.1</ele>
        <time>2013-02-18T20:44:01.000Z</time>
      </trkpt>
      <trkpt lat="48.88312" lon="2.26466">
        <ele>79.5</ele>
        <time>2013-02-18T20:44:02.000Z</time>
      </trkpt>
      <trkpt lat="48.8831" lon="2.26463">
        <ele>79.6</ele>
        <time>2013-02-18T20:44:03.000Z</time>
      </trkpt>
      <trkpt lat="48.88307" lon="2.2646">
        <ele>81.2</ele>
        <time>2013-02-18T20:44:04.000Z</time>
      </trkpt>
      <trkpt lat="48.88304" lon="2.26456">
        <ele>79.9</ele>
        <time>2013-02-18T20:44:05.000Z</time>
      </trkpt>
      <trkpt lat="48.883" lon="2.26453">
        <ele>80</ele>
        <time>2013-02-18T20:44:06.000Z</time>
      </trkpt>
      <trkpt lat="48.88297" lon="2.26448">
        <ele>78.8</ele>
        <time>2013-02-18T20:44:07.000Z</time>
      </trkpt>
      <trkpt lat="48.88294" lon="2.26444">
        <ele>79.2</ele>
        <time>2013-02-18T20:44:08.000Z</time>
      </trkpt>
      <trkpt lat="48.88291" lon="2.26439">
        <ele>79.2</ele>
        <time>2013-02-18T20:44:09.000Z</time>
      </trkpt>
      <trkpt lat="48.88288" lon="2.26434">
        <ele>79</ele>
        <time>2013-02-18T20:44:10.000Z</time>
      </trkpt>
      <trkpt lat="48.88286" lon="2.26429">
        <ele>79.2</ele>
        <time>2013-02-18T20:44:11.000Z</time>
      </trkpt>
      <trkpt lat="48.88283" lon="2.26424">
        <ele>79.5</ele>
        <time>2013-02-18T20:44:12.000Z</time>
      </trkpt>
      <trkpt lat="48.8828" lon="2.26419">
        <ele>79.5</ele>
        <time>2013-02-18T20:44:13.000Z</time>
      </trkpt>
      <trkpt lat="48.88277" lon="2.26415">
        <ele>79.3</ele>
        <time>2013-02-18T20:44:14.000Z</time>
      </trkpt>
      <trkpt lat="48.88274" lon="2.2641">
        <ele>80.9</ele>
        <time>2013-02-18T20:44:15.000Z</time>
      </trkpt>
      <trkpt lat="48.88271" lon="2.26406">
        <ele>80.3</ele>
        <time>2013-02-18T20:44:16.000Z</time>
      </trkpt>
      <trkpt lat="48.88267" lon="2.26401">
        <ele>79.8</ele>
        <time>2013-02-18T20:44:17.000Z</time>
      </trkpt>
      <trkpt lat="48.88264" lon="2.26396">
        <ele>80.1</ele>
        <time>2013-02-18T20:44:18.000Z</time>
      </trkpt>
      <trkpt lat="48.88261" lon="2.2639">
        <ele>81.4</ele>
        <time>2013-02-18T20:44:19.000Z</time>
      </trkpt>
      <trkpt lat="48.88257" lon="2.26385">
        <ele>81</ele>
        <time>2013-02-18T20:44:20.000Z</time>
      </trkpt>
      <trkpt lat="48.88257" lon="2.26374">
        <ele>80.7</ele>
        <time>2013-02-18T20:44:21.000Z</time>
      </trkpt>
      <trkpt lat="48.88256" lon="2.26368">
        <ele>80.4</ele>
        <time>2013-02-18T20:44:22.000Z</time>
      </trkpt>
      <trkpt lat="48.88252" lon="2.26347">
        <ele>82.6</ele>
        <time>2013-02-18T20:44:25.000Z</time>
      </trkpt>
      <trkpt lat="48.88248" lon="2.26342">
        <ele>82.8</ele>
        <time>2013-02-18T20:44:26.000Z</time>
      </trkpt>
      <trkpt lat="48.88242" lon="2.2634">
        <ele>81</ele>
        <time>2013-02-18T20:44:27.000Z</time>
      </trkpt>
      <trkpt lat="48.88239" lon="2.26336">
        <ele>81.5</ele>
        <time>2013-02-18T20:44:28.000Z</time>
      </trkpt>
      <trkpt lat="48.88236" lon="2.26331">
        <ele>80.4</ele>
        <time>2013-02-18T20:44:29.000Z</time>
      </trkpt>
      <trkpt lat="48.88232" lon="2.26328">
        <ele>80.4</ele>
        <time>2013-02-18T20:44:30.000Z</time>
      </trkpt>
      <trkpt lat="48.88226" lon="2.26325">
        <ele>80.3</ele>
        <time>2013-02-18T20:44:31.000Z</time>
      </trkpt>
      <trkpt lat="48.8822" lon="2.2632">
        <ele>81.5</ele>
        <time>2013-02-18T20:44:32.000Z</time>
      </trkpt>
      <trkpt lat="48.88217" lon="2.26314">
        <ele>81.1</ele>
        <time>2013-02-18T20:44:33.000Z</time>
      </trkpt>
      <trkpt lat="48.88213" lon="2.26309">
        <ele>81.8</ele>
        <time>2013-02-18T20:44:34.000Z</time>
      </trkpt>
      <trkpt lat="48.88208" lon="2.26304">
        <ele>82.7</ele>
        <time>2013-02-18T20:44:35.000Z</time>
      </trkpt>
      <trkpt lat="48.88204" lon="2.26299">
        <ele>83.1</ele>
        <time>2013-02-18T20:44:36.000Z</time>
      </trkpt>
      <trkpt lat="48.882" lon="2.26294">
        <ele>82.7</ele>
        <time>2013-02-18T20:44:37.000Z</time>
      </trkpt>
      <trkpt lat="48.88197" lon="2.2629">
        <ele>82.6</ele>
        <time>2013-02-18T20:44:38.000Z</time>
      </trkpt>
      <trkpt lat="48.88194" lon="2.26284">
        <ele>82.9</ele>
        <time>2013-02-18T20:44:39.000Z</time>
      </trkpt>
      <trkpt lat="48.88191" lon="2.26275">
        <ele>82.9</ele>
        <time>2013-02-18T20:44:40.000Z</time>
      </trkpt>
      <trkpt lat="48.88187" lon="2.26269">
        <ele>83.3</ele>
        <time>2013-02-18T20:44:41.000Z</time>
      </trkpt>
      <trkpt lat="48.88184" lon="2.26264">
        <ele>81.8</ele>
        <time>2013-02-18T20:44:42.000Z</time>
      </trkpt>
      <trkpt lat="48.88182" lon="2.26259">
        <ele>79.9</ele>
        <time>2013-02-18T20:44:43.000Z</time>
      </trkpt>
      <trkpt lat="48.88179" lon="2.26253">
        <ele>79.9</ele>
        <time>2013-02-18T20:44:44.000Z</time>
      </trkpt>
      <trkpt lat="48.88176" lon="2.2625">
        <ele>80</ele>
        <time>2013-02-18T20:44:45.000Z</time>
      </trkpt>
      <trkpt lat="48.88173" lon="2.26246">
        <ele>79.6</ele>
        <time>2013-02-18T20:44:46.000Z</time>
      </trkpt>
      <trkpt lat="48.88171" lon="2.26243">
        <ele>79.1</ele>
        <time>2013-02-18T20:44:47.000Z</time>
      </trkpt>
      <trkpt lat="48.8817" lon="2.26239">
        <ele>78.5</ele>
        <time>2013-02-18T20:44:48.000Z</time>
      </trkpt>
      <trkpt lat="48.88167" lon="2.26236">
        <ele>78.6</ele>
        <time>2013-02-18T20:44:49.000Z</time>
      </trkpt>
      <trkpt lat="48.88162" lon="2.26232">
        <ele>79.3</ele>
        <time>2013-02-18T20:44:50.000Z</time>
      </trkpt>
      <trkpt lat="48.8816" lon="2.26228">
        <ele>79.1</ele>
        <time>2013-02-18T20:44:51.000Z</time>
      </trkpt>
      <trkpt lat="48.88158" lon="2.26223">
        <ele>79.8</ele>
        <time>2013-02-18T20:44:52.000Z</time>
      </trkpt>
      <trkpt lat="48.88154" lon="2.2622">
        <ele>80.5</ele>
        <time>2013-02-18T20:44:53.000Z</time>
      </trkpt>
      <trkpt lat="48.8815" lon="2.26218">
        <ele>80.5</ele>
        <time>2013-02-18T20:44:54.000Z</time>
      </trkpt>
      <trkpt lat="48.88147" lon="2.26215">
        <ele>79.3</ele>
        <time>2013-02-18T20:44:55.000Z</time>
      </trkpt>
      <trkpt lat="48.88143" lon="2.26213">
        <ele>79.3</ele>
        <time>2013-02-18T20:44:56.000Z</time>
      </trkpt>
      <trkpt lat="48.8814" lon="2.26211">
        <ele>78.1</ele>
        <time>2013-02-18T20:44:57.000Z</time>
      </trkpt>
      <trkpt lat="48.88137" lon="2.26209">
        <ele>78.8</ele>
        <time>2013-02-18T20:44:58.000Z</time>
      </trkpt>
      <trkpt lat="48.88133" lon="2.26207">
        <ele>79.6</ele>
        <time>2013-02-18T20:44:59.000Z</time>
      </trkpt>
      <trkpt lat="48.88128" lon="2.26206">
        <ele>80.8</ele>
        <time>2013-02-18T20:45:00.000Z</time>
      </trkpt>
      <trkpt lat="48.88124" lon="2.26204">
        <ele>80.6</ele>
        <time>2013-02-18T20:45:01.000Z</time>
      </trkpt>
      <trkpt lat="48.88119" lon="2.26202">
        <ele>79.9</ele>
        <time>2013-02-18T20:45:02.000Z</time>
      </trkpt>
      <trkpt lat="48.88114" lon="2.262">
        <ele>80.5</ele>
        <time>2013-02-18T20:45:03.000Z</time>
      </trkpt>
      <trkpt lat="48.88107" lon="2.26198">
        <ele>81</ele>
        <time>2013-02-18T20:45:04.000Z</time>
      </trkpt>
      <trkpt lat="48.88102" lon="2.26196">
        <ele>81.2</ele>
        <time>2013-02-18T20:45:05.000Z</time>
      </trkpt>
      <trkpt lat="48.88097" lon="2.26195">
        <ele>81</ele>
        <time>2013-02-18T20:45:06.000Z</time>
      </trkpt>
      <trkpt lat="48.88092" lon="2.26193">
        <ele>81.6</ele>
        <time>2013-02-18T20:45:07.000Z</time>
      </trkpt>
      <trkpt lat="48.88088" lon="2.26192">
        <ele>81.9</ele>
        <time>2013-02-18T20:45:08.000Z</time>
      </trkpt>
      <trkpt lat="48.88084" lon="2.26191">
        <ele>81.2</ele>
        <time>2013-02-18T20:45:09.000Z</time>
      </trkpt>
      <trkpt lat="48.88079" lon="2.26191">
        <ele>81.1</ele>
        <time>2013-02-18T20:45:10.000Z</time>
      </trkpt>
      <trkpt lat="48.88075" lon="2.26189">
        <ele>81.2</ele>
        <time>2013-02-18T20:45:11.000Z</time>
      </trkpt>
      <trkpt lat="48.88071" lon="2.26187">
        <ele>81.8</ele>
        <time>2013-02-18T20:45:12.000Z</time>
      </trkpt>
      <trkpt lat="48.88067" lon="2.26186">
        <ele>82.1</ele>
        <time>2013-02-18T20:45:13.000Z</time>
      </trkpt>
      <trkpt lat="48.88063" lon="2.26184">
        <ele>80.9</ele>
        <time>2013-02-18T20:45:14.000Z</time>
      </trkpt>
      <trkpt lat="48.88059" lon="2.26183">
        <ele>81</ele>
        <time>2013-02-18T20:45:15.000Z</time>
      </trkpt>
      <trkpt lat="48.88054" lon="2.26182">
        <ele>81.1</ele>
        <time>2013-02-18T20:45:16.000Z</time>
      </trkpt>
      <trkpt lat="48.8805" lon="2.2618">
        <ele>81.1</ele>
        <time>2013-02-18T20:45:17.000Z</time>
      </trkpt>
      <trkpt lat="48.88045" lon="2.26177">
        <ele>81.6</ele>
        <time>2013-02-18T20:45:18.000Z</time>
      </trkpt>
      <trkpt lat="48.88041" lon="2.26176">
        <ele>80.5</ele>
        <time>2013-02-18T20:45:19.000Z</time>
      </trkpt>
      <trkpt lat="48.88037" lon="2.26174">
        <ele>80.1</ele>
        <time>2013-02-18T20:45:20.000Z</time>
      </trkpt>
      <trkpt lat="48.88033" lon="2.26173">
        <ele>80</ele>
        <time>2013-02-18T20:45:21.000Z</time>
      </trkpt>
      <trkpt lat="48.8803" lon="2.26172">
        <ele>80.8</ele>
        <time>2013-02-18T20:45:22.000Z</time>
      </trkpt>
      <trkpt lat="48.88024" lon="2.26169">
        <ele>80.7</ele>
        <time>2013-02-18T20:45:23.926Z</time>
      </trkpt>
      <trkpt lat="48.88021" lon="2.26167">
        <ele>80.6</ele>
        <time>2013-02-18T20:45:25.000Z</time>
      </trkpt>
      <trkpt lat="48.88019" lon="2.26166">
        <ele>79.6</ele>
        <time>2013-02-18T20:45:26.000Z</time>
      </trkpt>
      <trkpt lat="48.88015" lon="2.26164">
        <ele>77.6</ele>
        <time>2013-02-18T20:45:28.000Z</time>
      </trkpt>
      <trkpt lat="48.88014" lon="2.26163">
        <ele>77.3</ele>
        <time>2013-02-18T20:45:29.000Z</time>
      </trkpt>
      <trkpt lat="48.8801" lon="2.2616">
        <ele>77.9</ele>
        <time>2013-02-18T20:45:44.000Z</time>
      </trkpt>
      <trkpt lat="48.8801" lon="2.26158">
        <ele>77.8</ele>
        <time>2013-02-18T20:45:45.000Z</time>
      </trkpt>
      <trkpt lat="48.88009" lon="2.26155">
        <ele>78.7</ele>
        <time>2013-02-18T20:45:46.000Z</time>
      </trkpt>
      <trkpt lat="48.88009" lon="2.26151">
        <ele>78</ele>
        <time>2013-02-18T20:45:47.000Z</time>
      </trkpt>
      <trkpt lat="48.88009" lon="2.26146">
        <ele>77.2</ele>
        <time>2013-02-18T20:45:48.000Z</time>
      </trkpt>
      <trkpt lat="48.88009" lon="2.26141">
        <ele>77.3</ele>
        <time>2013-02-18T20:45:49.000Z</time>
      </trkpt>
      <trkpt lat="48.88009" lon="2.26135">
        <ele>77.4</ele>
        <time>2013-02-18T20:45:50.000Z</time>
      </trkpt>
      <trkpt lat="48.8801" lon="2.2613">
        <ele>75.7</ele>
        <time>2013-02-18T20:45:51.000Z</time>
      </trkpt>
      <trkpt lat="48.8801" lon="2.26126">
        <ele>74.6</ele>
        <time>2013-02-18T20:45:52.000Z</time>
      </trkpt>
      <trkpt lat="48.88011" lon="2.26121">
        <ele>76.6</ele>
        <time>2013-02-18T20:45:53.000Z</time>
      </trkpt>
      <trkpt lat="48.88012" lon="2.26115">
        <ele>75.3</ele>
        <time>2013-02-18T20:45:54.000Z</time>
      </trkpt>
      <trkpt lat="48.88013" lon="2.26109">
        <ele>75.1</ele>
        <time>2013-02-18T20:45:55.000Z</time>
      </trkpt>
      <trkpt lat="48.88014" lon="2.26102">
        <ele>74.7</ele>
        <time>2013-02-18T20:45:56.000Z</time>
      </trkpt>
      <trkpt lat="48.88015" lon="2.26095">
        <ele>75</ele>
        <time>2013-02-18T20:45:57.000Z</time>
      </trkpt>
      <trkpt lat="48.88015" lon="2.26089">
        <ele>74.7</ele>
        <time>2013-02-18T20:45:58.000Z</time>
      </trkpt>
      <trkpt lat="48.88016" lon="2.26082">
        <ele>74.4</ele>
        <time>2013-02-18T20:45:59.000Z</time>
      </trkpt>
      <trkpt lat="48.88017" lon="2.26075">
        <ele>74.1</ele>
        <time>2013-02-18T20:46:00.000Z</time>
      </trkpt>
      <trkpt lat="48.88018" lon="2.26068">
        <ele>75.8</ele>
        <time>2013-02-18T20:46:01.000Z</time>
      </trkpt>
      <trkpt lat="48.88021" lon="2.26055">
        <ele>76.6</ele>
        <time>2013-02-18T20:46:02.000Z</time>
      </trkpt>
      <trkpt lat="48.88022" lon="2.26048">
        <ele>77.1</ele>
        <time>2013-02-18T20:46:03.000Z</time>
      </trkpt>
      <trkpt lat="48.88023" lon="2.26041">
        <ele>77.4</ele>
        <time>2013-02-18T20:46:04.000Z</time>
      </trkpt>
      <trkpt lat="48.88025" lon="2.26034">
        <ele>77.4</ele>
        <time>2013-02-18T20:46:05.000Z</time>
      </trkpt>
      <trkpt lat="48.88025" lon="2.26027">
        <ele>76.1</ele>
        <time>2013-02-18T20:46:06.000Z</time>
      </trkpt>
      <trkpt lat="48.88026" lon="2.26021">
        <ele>74.7</ele>
        <time>2013-02-18T20:46:07.000Z</time>
      </trkpt>
      <trkpt lat="48.88027" lon="2.26015">
        <ele>74.1</ele>
        <time>2013-02-18T20:46:08.000Z</time>
      </trkpt>
      <trkpt lat="48.88028" lon="2.26009">
        <ele>73.5</ele>
        <time>2013-02-18T20:46:09.000Z</time>
      </trkpt>
      <trkpt lat="48.88029" lon="2.26003">
        <ele>73.7</ele>
        <time>2013-02-18T20:46:10.000Z</time>
      </trkpt>
      <trkpt lat="48.8803" lon="2.25993">
        <ele>73.7</ele>
        <time>2013-02-18T20:46:11.000Z</time>
      </trkpt>
      <trkpt lat="48.8803" lon="2.25986">
        <ele>73.8</ele>
        <time>2013-02-18T20:46:12.000Z</time>
      </trkpt>
      <trkpt lat="48.88031" lon="2.25979">
        <ele>73.5</ele>
        <time>2013-02-18T20:46:13.000Z</time>
      </trkpt>
      <trkpt lat="48.88032" lon="2.2597">
        <ele>73.2</ele>
        <time>2013-02-18T20:46:14.000Z</time>
      </trkpt>
      <trkpt lat="48.88033" lon="2.25963">
        <ele>73</ele>
        <time>2013-02-18T20:46:15.000Z</time>
      </trkpt>
      <trkpt lat="48.88034" lon="2.25957">
        <ele>72.9</ele>
        <time>2013-02-18T20:46:16.000Z</time>
      </trkpt>
      <trkpt lat="48.88035" lon="2.2595">
        <ele>72.7</ele>
        <time>2013-02-18T20:46:17.000Z</time>
      </trkpt>
      <trkpt lat="48.88037" lon="2.25946">
        <ele>72.7</ele>
        <time>2013-02-18T20:46:18.000Z</time>
      </trkpt>
      <trkpt lat="48.88039" lon="2.25938">
        <ele>73.6</ele>
        <time>2013-02-18T20:46:19.000Z</time>
      </trkpt>
      <trkpt lat="48.88039" lon="2.25929">
        <ele>75.9</ele>
        <time>2013-02-18T20:46:20.000Z</time>
      </trkpt>
      <trkpt lat="48.8804" lon="2.2592">
        <ele>77.7</ele>
        <time>2013-02-18T20:46:21.000Z</time>
      </trkpt>
      <trkpt lat="48.88041" lon="2.25914">
        <ele>78.4</ele>
        <time>2013-02-18T20:46:22.000Z</time>
      </trkpt>
      <trkpt lat="48.8804" lon="2.25899">
        <ele>78.4</ele>
        <time>2013-02-18T20:46:24.116Z</time>
      </trkpt>
      <trkpt lat="48.8804" lon="2.25892">
        <ele>78.5</ele>
        <time>2013-02-18T20:46:25.000Z</time>
      </trkpt>
      <trkpt lat="48.8804" lon="2.25886">
        <ele>78.8</ele>
        <time>2013-02-18T20:46:26.000Z</time>
      </trkpt>
      <trkpt lat="48.88042" lon="2.25881">
        <ele>78.9</ele>
        <time>2013-02-18T20:46:27.000Z</time>
      </trkpt>
      <trkpt lat="48.88042" lon="2.25877">
        <ele>79.3</ele>
        <time>2013-02-18T20:46:28.000Z</time>
      </trkpt>
      <trkpt lat="48.88043" lon="2.25872">
        <ele>79.7</ele>
        <time>2013-02-18T20:46:29.000Z</time>
      </trkpt>
      <trkpt lat="48.88043" lon="2.25866">
        <ele>79.6</ele>
        <time>2013-02-18T20:46:30.000Z</time>
      </trkpt>
      <trkpt lat="48.88043" lon="2.25861">
        <ele>79.6</ele>
        <time>2013-02-18T20:46:31.000Z</time>
      </trkpt>
      <trkpt lat="48.88042" lon="2.25855">
        <ele>79.6</ele>
        <time>2013-02-18T20:46:32.000Z</time>
      </trkpt>
      <trkpt lat="48.8804" lon="2.25847">
        <ele>79.3</ele>
        <time>2013-02-18T20:46:33.000Z</time>
      </trkpt>
      <trkpt lat="48.88038" lon="2.25838">
        <ele>79.8</ele>
        <time>2013-02-18T20:46:34.000Z</time>
      </trkpt>
      <trkpt lat="48.88036" lon="2.25834">
        <ele>78.5</ele>
        <time>2013-02-18T20:46:35.000Z</time>
      </trkpt>
      <trkpt lat="48.88033" lon="2.2583">
        <ele>78.2</ele>
        <time>2013-02-18T20:46:36.000Z</time>
      </trkpt>
      <trkpt lat="48.8803" lon="2.25827">
        <ele>77.4</ele>
        <time>2013-02-18T20:46:37.000Z</time>
      </trkpt>
      <trkpt lat="48.88026" lon="2.25823">
        <ele>77.6</ele>
        <time>2013-02-18T20:46:38.000Z</time>
      </trkpt>
      <trkpt lat="48.88022" lon="2.25821">
        <ele>77.1</ele>
        <time>2013-02-18T20:46:39.000Z</time>
      </trkpt>
      <trkpt lat="48.88018" lon="2.25819">
        <ele>76.8</ele>
        <time>2013-02-18T20:46:40.000Z</time>
      </trkpt>
      <trkpt lat="48.88013" lon="2.25817">
        <ele>77.5</ele>
        <time>2013-02-18T20:46:41.000Z</time>
      </trkpt>
      <trkpt lat="48.88009" lon="2.25816">
        <ele>77.2</ele>
        <time>2013-02-18T20:46:42.000Z</time>
      </trkpt>
      <trkpt lat="48.88004" lon="2.25815">
        <ele>76.6</ele>
        <time>2013-02-18T20:46:43.000Z</time>
      </trkpt>
      <trkpt lat="48.88" lon="2.25813">
        <ele>76.8</ele>
        <time>2013-02-18T20:46:44.000Z</time>
      </trkpt>
      <trkpt lat="48.87996" lon="2.25811">
        <ele>77.2</ele>
        <time>2013-02-18T20:46:45.000Z</time>
      </trkpt>
      <trkpt lat="48.87992" lon="2.25809">
        <ele>77.5</ele>
        <time>2013-02-18T20:46:46.000Z</time>
      </trkpt>
      <trkpt lat="48.87989" lon="2.25808">
        <ele>77</ele>
        <time>2013-02-18T20:46:47.000Z</time>
      </trkpt>
      <trkpt lat="48.87985" lon="2.25806">
        <ele>75.8</ele>
        <time>2013-02-18T20:46:48.000Z</time>
      </trkpt>
      <trkpt lat="48.87982" lon="2.25804">
        <ele>75</ele>
        <time>2013-02-18T20:46:49.000Z</time>
      </trkpt>
      <trkpt lat="48.8798" lon="2.25803">
        <ele>75.2</ele>
        <time>2013-02-18T20:46:50.000Z</time>
      </trkpt>
      <trkpt lat="48.87977" lon="2.25801">
        <ele>75.3</ele>
        <time>2013-02-18T20:46:51.000Z</time>
      </trkpt>
      <trkpt lat="48.87975" lon="2.258">
        <ele>73.7</ele>
        <time>2013-02-18T20:46:52.000Z</time>
      </trkpt>
      <trkpt lat="48.87971" lon="2.25798">
        <ele>72.8</ele>
        <time>2013-02-18T20:46:53.000Z</time>
      </trkpt>
      <trkpt lat="48.87968" lon="2.25796">
        <ele>72.5</ele>
        <time>2013-02-18T20:46:54.000Z</time>
      </trkpt>
      <trkpt lat="48.87964" lon="2.25794">
        <ele>71.5</ele>
        <time>2013-02-18T20:46:55.000Z</time>
      </trkpt>
      <trkpt lat="48.87961" lon="2.25792">
        <ele>70.6</ele>
        <time>2013-02-18T20:46:56.000Z</time>
      </trkpt>
      <trkpt lat="48.87957" lon="2.25789">
        <ele>70.2</ele>
        <time>2013-02-18T20:46:57.000Z</time>
      </trkpt>
      <trkpt lat="48.87952" lon="2.25786">
        <ele>69.6</ele>
        <time>2013-02-18T20:46:58.000Z</time>
      </trkpt>
      <trkpt lat="48.87944" lon="2.25782">
        <ele>70</ele>
        <time>2013-02-18T20:46:59.000Z</time>
      </trkpt>
      <trkpt lat="48.87938" lon="2.25779">
        <ele>70.1</ele>
        <time>2013-02-18T20:47:00.000Z</time>
      </trkpt>
      <trkpt lat="48.87933" lon="2.25778">
        <ele>69.6</ele>
        <time>2013-02-18T20:47:01.000Z</time>
      </trkpt>
      <trkpt lat="48.87928" lon="2.25776">
        <ele>69.5</ele>
        <time>2013-02-18T20:47:02.000Z</time>
      </trkpt>
      <trkpt lat="48.87921" lon="2.25774">
        <ele>70.5</ele>
        <time>2013-02-18T20:47:03.000Z</time>
      </trkpt>
      <trkpt lat="48.87915" lon="2.25771">
        <ele>70.1</ele>
        <time>2013-02-18T20:47:04.000Z</time>
      </trkpt>
      <trkpt lat="48.87911" lon="2.25768">
        <ele>70.5</ele>
        <time>2013-02-18T20:47:05.000Z</time>
      </trkpt>
      <trkpt lat="48.87906" lon="2.25766">
        <ele>71</ele>
        <time>2013-02-18T20:47:06.000Z</time>
      </trkpt>
      <trkpt lat="48.87902" lon="2.25764">
        <ele>72.5</ele>
        <time>2013-02-18T20:47:07.000Z</time>
      </trkpt>
      <trkpt lat="48.87898" lon="2.2576">
        <ele>71.7</ele>
        <time>2013-02-18T20:47:08.000Z</time>
      </trkpt>
      <trkpt lat="48.87892" lon="2.25758">
        <ele>71.7</ele>
        <time>2013-02-18T20:47:09.000Z</time>
      </trkpt>
      <trkpt lat="48.87886" lon="2.25755">
        <ele>71.8</ele>
        <time>2013-02-18T20:47:10.000Z</time>
      </trkpt>
      <trkpt lat="48.87881" lon="2.25752">
        <ele>71.8</ele>
        <time>2013-02-18T20:47:11.000Z</time>
      </trkpt>
      <trkpt lat="48.87876" lon="2.25749">
        <ele>71.5</ele>
        <time>2013-02-18T20:47:12.000Z</time>
      </trkpt>
      <trkpt lat="48.8787" lon="2.25746">
        <ele>72</ele>
        <time>2013-02-18T20:47:13.000Z</time>
      </trkpt>
      <trkpt lat="48.87865" lon="2.25743">
        <ele>70.8</ele>
        <time>2013-02-18T20:47:14.000Z</time>
      </trkpt>
      <trkpt lat="48.87861" lon="2.2574">
        <ele>71.1</ele>
        <time>2013-02-18T20:47:15.000Z</time>
      </trkpt>
      <trkpt lat="48.87856" lon="2.25737">
        <ele>70.4</ele>
        <time>2013-02-18T20:47:16.000Z</time>
      </trkpt>
      <trkpt lat="48.87851" lon="2.25735">
        <ele>69.8</ele>
        <time>2013-02-18T20:47:17.000Z</time>
      </trkpt>
      <trkpt lat="48.87846" lon="2.25732">
        <ele>70.4</ele>
        <time>2013-02-18T20:47:18.000Z</time>
      </trkpt>
      <trkpt lat="48.87841" lon="2.25729">
        <ele>70.3</ele>
        <time>2013-02-18T20:47:19.000Z</time>
      </trkpt>
      <trkpt lat="48.87836" lon="2.25726">
        <ele>70.2</ele>
        <time>2013-02-18T20:47:20.000Z</time>
      </trkpt>
      <trkpt lat="48.87832" lon="2.25722">
        <ele>70</ele>
        <time>2013-02-18T20:47:21.000Z</time>
      </trkpt>
      <trkpt lat="48.87829" lon="2.25719">
        <ele>70.3</ele>
        <time>2013-02-18T20:47:22.000Z</time>
      </trkpt>
      <trkpt lat="48.87816" lon="2.25714">
        <ele>70.8</ele>
        <time>2013-02-18T20:47:25.000Z</time>
      </trkpt>
      <trkpt lat="48.87811" lon="2.25709">
        <ele>70.5</ele>
        <time>2013-02-18T20:47:26.000Z</time>
      </trkpt>
      <trkpt lat="48.87806" lon="2.25707">
        <ele>70.4</ele>
        <time>2013-02-18T20:47:27.000Z</time>
      </trkpt>
      <trkpt lat="48.87798" lon="2.25704">
        <ele>69.8</ele>
        <time>2013-02-18T20:47:28.000Z</time>
      </trkpt>
      <trkpt lat="48.87792" lon="2.25701">
        <ele>69.4</ele>
        <time>2013-02-18T20:47:29.000Z</time>
      </trkpt>
      <trkpt lat="48.87785" lon="2.25697">
        <ele>70.3</ele>
        <time>2013-02-18T20:47:30.000Z</time>
      </trkpt>
      <trkpt lat="48.8778" lon="2.25691">
        <ele>70.4</ele>
        <time>2013-02-18T20:47:31.000Z</time>
      </trkpt>
      <trkpt lat="48.87773" lon="2.25688">
        <ele>70.6</ele>
        <time>2013-02-18T20:47:32.000Z</time>
      </trkpt>
      <trkpt lat="48.87766" lon="2.25686">
        <ele>71.2</ele>
        <time>2013-02-18T20:47:33.000Z</time>
      </trkpt>
      <trkpt lat="48.87757" lon="2.25682">
        <ele>71.9</ele>
        <time>2013-02-18T20:47:34.000Z</time>
      </trkpt>
      <trkpt lat="48.87751" lon="2.25679">
        <ele>72.1</ele>
        <time>2013-02-18T20:47:35.000Z</time>
      </trkpt>
      <trkpt lat="48.87743" lon="2.25675">
        <ele>73.8</ele>
        <time>2013-02-18T20:47:36.000Z</time>
      </trkpt>
      <trkpt lat="48.87737" lon="2.25671">
        <ele>74</ele>
        <time>2013-02-18T20:47:37.000Z</time>
      </trkpt>
      <trkpt lat="48.87727" lon="2.25668">
        <ele>74.9</ele>
        <time>2013-02-18T20:47:38.000Z</time>
      </trkpt>
      <trkpt lat="48.87723" lon="2.25665">
        <ele>74.8</ele>
        <time>2013-02-18T20:47:39.000Z</time>
      </trkpt>
      <trkpt lat="48.87712" lon="2.25663">
        <ele>75.4</ele>
        <time>2013-02-18T20:47:40.000Z</time>
      </trkpt>
      <trkpt lat="48.87705" lon="2.2566">
        <ele>74.3</ele>
        <time>2013-02-18T20:47:41.000Z</time>
      </trkpt>
      <trkpt lat="48.87703" lon="2.25657">
        <ele>71.3</ele>
        <time>2013-02-18T20:47:42.000Z</time>
      </trkpt>
      <trkpt lat="48.87699" lon="2.25656">
        <ele>70.4</ele>
        <time>2013-02-18T20:47:43.000Z</time>
      </trkpt>
      <trkpt lat="48.87697" lon="2.25654">
        <ele>70.5</ele>
        <time>2013-02-18T20:47:44.000Z</time>
      </trkpt>
      <trkpt lat="48.87692" lon="2.25655">
        <ele>69</ele>
        <time>2013-02-18T20:47:45.000Z</time>
      </trkpt>
      <trkpt lat="48.8769" lon="2.25653">
        <ele>68.9</ele>
        <time>2013-02-18T20:47:46.000Z</time>
      </trkpt>
      <trkpt lat="48.87687" lon="2.2565">
        <ele>69.2</ele>
        <time>2013-02-18T20:47:47.000Z</time>
      </trkpt>
      <trkpt lat="48.87683" lon="2.25649">
        <ele>70.4</ele>
        <time>2013-02-18T20:47:48.000Z</time>
      </trkpt>
      <trkpt lat="48.87678" lon="2.25648">
        <ele>72.9</ele>
        <time>2013-02-18T20:47:49.000Z</time>
      </trkpt>
      <trkpt lat="48.87674" lon="2.25646">
        <ele>72.5</ele>
        <time>2013-02-18T20:47:50.000Z</time>
      </trkpt>
      <trkpt lat="48.8767" lon="2.25643">
        <ele>72.7</ele>
        <time>2013-02-18T20:47:51.000Z</time>
      </trkpt>
      <trkpt lat="48.87666" lon="2.25641">
        <ele>73.1</ele>
        <time>2013-02-18T20:47:52.000Z</time>
      </trkpt>
      <trkpt lat="48.87662" lon="2.25638">
        <ele>72.8</ele>
        <time>2013-02-18T20:47:53.000Z</time>
      </trkpt>
      <trkpt lat="48.87658" lon="2.25635">
        <ele>73.7</ele>
        <time>2013-02-18T20:47:54.000Z</time>
      </trkpt>
      <trkpt lat="48.87655" lon="2.25632">
        <ele>73.2</ele>
        <time>2013-02-18T20:47:55.000Z</time>
      </trkpt>
      <trkpt lat="48.87651" lon="2.25629">
        <ele>71</ele>
        <time>2013-02-18T20:47:56.000Z</time>
      </trkpt>
      <trkpt lat="48.8764" lon="2.25627">
        <ele>71.2</ele>
        <time>2013-02-18T20:47:57.000Z</time>
      </trkpt>
      <trkpt lat="48.87634" lon="2.25624">
        <ele>70.7</ele>
        <time>2013-02-18T20:47:58.000Z</time>
      </trkpt>
      <trkpt lat="48.87629" lon="2.25621">
        <ele>70.6</ele>
        <time>2013-02-18T20:47:59.000Z</time>
      </trkpt>
      <trkpt lat="48.87624" lon="2.25619">
        <ele>71.6</ele>
        <time>2013-02-18T20:48:00.000Z</time>
      </trkpt>
      <trkpt lat="48.8762" lon="2.25621">
        <ele>71.5</ele>
        <time>2013-02-18T20:48:01.000Z</time>
      </trkpt>
      <trkpt lat="48.87617" lon="2.2562">
        <ele>68.2</ele>
        <time>2013-02-18T20:48:03.000Z</time>
      </trkpt>
      <trkpt lat="48.87612" lon="2.25617">
        <ele>69.6</ele>
        <time>2013-02-18T20:48:04.000Z</time>
      </trkpt>
      <trkpt lat="48.87608" lon="2.25615">
        <ele>70.7</ele>
        <time>2013-02-18T20:48:05.000Z</time>
      </trkpt>
      <trkpt lat="48.87604" lon="2.2561">
        <ele>69.8</ele>
        <time>2013-02-18T20:48:06.000Z</time>
      </trkpt>
      <trkpt lat="48.876" lon="2.25607">
        <ele>69.6</ele>
        <time>2013-02-18T20:48:07.000Z</time>
      </trkpt>
      <trkpt lat="48.87595" lon="2.25604">
        <ele>70.3</ele>
        <time>2013-02-18T20:48:08.000Z</time>
      </trkpt>
      <trkpt lat="48.87591" lon="2.25602">
        <ele>69.8</ele>
        <time>2013-02-18T20:48:09.000Z</time>
      </trkpt>
      <trkpt lat="48.87588" lon="2.25599">
        <ele>69.6</ele>
        <time>2013-02-18T20:48:10.000Z</time>
      </trkpt>
      <trkpt lat="48.87584" lon="2.25597">
        <ele>68.6</ele>
        <time>2013-02-18T20:48:11.000Z</time>
      </trkpt>
      <trkpt lat="48.87579" lon="2.25593">
        <ele>69.7</ele>
        <time>2013-02-18T20:48:12.000Z</time>
      </trkpt>
      <trkpt lat="48.87574" lon="2.2559">
        <ele>69.7</ele>
        <time>2013-02-18T20:48:13.000Z</time>
      </trkpt>
      <trkpt lat="48.87569" lon="2.25588">
        <ele>68.4</ele>
        <time>2013-02-18T20:48:14.000Z</time>
      </trkpt>
      <trkpt lat="48.87564" lon="2.25586">
        <ele>70.4</ele>
        <time>2013-02-18T20:48:15.000Z</time>
      </trkpt>
      <trkpt lat="48.8756" lon="2.25584">
        <ele>71.3</ele>
        <time>2013-02-18T20:48:16.000Z</time>
      </trkpt>
      <trkpt lat="48.87556" lon="2.25581">
        <ele>68.7</ele>
        <time>2013-02-18T20:48:17.000Z</time>
      </trkpt>
      <trkpt lat="48.87554" lon="2.25579">
        <ele>67.5</ele>
        <time>2013-02-18T20:48:18.000Z</time>
      </trkpt>
      <trkpt lat="48.87551" lon="2.25576">
        <ele>68.1</ele>
        <time>2013-02-18T20:48:19.000Z</time>
      </trkpt>
      <trkpt lat="48.87548" lon="2.25573">
        <ele>67.9</ele>
        <time>2013-02-18T20:48:20.000Z</time>
      </trkpt>
      <trkpt lat="48.87544" lon="2.25571">
        <ele>67.4</ele>
        <time>2013-02-18T20:48:21.000Z</time>
      </trkpt>
      <trkpt lat="48.87541" lon="2.25568">
        <ele>67.1</ele>
        <time>2013-02-18T20:48:22.000Z</time>
      </trkpt>
      <trkpt lat="48.87526" lon="2.25561">
        <ele>68.6</ele>
        <time>2013-02-18T20:48:26.000Z</time>
      </trkpt>
      <trkpt lat="48.87522" lon="2.25559">
        <ele>65.9</ele>
        <time>2013-02-18T20:48:27.000Z</time>
      </trkpt>
      <trkpt lat="48.87519" lon="2.25557">
        <ele>64.1</ele>
        <time>2013-02-18T20:48:28.000Z</time>
      </trkpt>
      <trkpt lat="48.87516" lon="2.25555">
        <ele>63.1</ele>
        <time>2013-02-18T20:48:29.000Z</time>
      </trkpt>
      <trkpt lat="48.87512" lon="2.25552">
        <ele>63</ele>
        <time>2013-02-18T20:48:30.000Z</time>
      </trkpt>
      <trkpt lat="48.87509" lon="2.2555">
        <ele>62.3</ele>
        <time>2013-02-18T20:48:31.000Z</time>
      </trkpt>
      <trkpt lat="48.87505" lon="2.25548">
        <ele>61.8</ele>
        <time>2013-02-18T20:48:32.000Z</time>
      </trkpt>
      <trkpt lat="48.87502" lon="2.25546">
        <ele>62</ele>
        <time>2013-02-18T20:48:33.000Z</time>
      </trkpt>
      <trkpt lat="48.87499" lon="2.25544">
        <ele>61.6</ele>
        <time>2013-02-18T20:48:34.000Z</time>
      </trkpt>
      <trkpt lat="48.87495" lon="2.25541">
        <ele>61.6</ele>
        <time>2013-02-18T20:48:35.000Z</time>
      </trkpt>
      <trkpt lat="48.87492" lon="2.25539">
        <ele>61.9</ele>
        <time>2013-02-18T20:48:36.000Z</time>
      </trkpt>
      <trkpt lat="48.87488" lon="2.25537">
        <ele>61.7</ele>
        <time>2013-02-18T20:48:37.000Z</time>
      </trkpt>
      <trkpt lat="48.87484" lon="2.25535">
        <ele>63.3</ele>
        <time>2013-02-18T20:48:38.000Z</time>
      </trkpt>
      <trkpt lat="48.87478" lon="2.25533">
        <ele>67.5</ele>
        <time>2013-02-18T20:48:39.000Z</time>
      </trkpt>
      <trkpt lat="48.87471" lon="2.25532">
        <ele>69.7</ele>
        <time>2013-02-18T20:48:40.000Z</time>
      </trkpt>
      <trkpt lat="48.87466" lon="2.25532">
        <ele>71.2</ele>
        <time>2013-02-18T20:48:41.000Z</time>
      </trkpt>
      <trkpt lat="48.87462" lon="2.25531">
        <ele>72.7</ele>
        <time>2013-02-18T20:48:42.000Z</time>
      </trkpt>
      <trkpt lat="48.87458" lon="2.25531">
        <ele>73.4</ele>
        <time>2013-02-18T20:48:43.000Z</time>
      </trkpt>
      <trkpt lat="48.87454" lon="2.2553">
        <ele>73.8</ele>
        <time>2013-02-18T20:48:44.000Z</time>
      </trkpt>
      <trkpt lat="48.87451" lon="2.25529">
        <ele>74.2</ele>
        <time>2013-02-18T20:48:45.000Z</time>
      </trkpt>
      <trkpt lat="48.87448" lon="2.25529">
        <ele>74.3</ele>
        <time>2013-02-18T20:48:46.000Z</time>
      </trkpt>
      <trkpt lat="48.87446" lon="2.25528">
        <ele>74.3</ele>
        <time>2013-02-18T20:48:47.000Z</time>
      </trkpt>
      <trkpt lat="48.87442" lon="2.25526">
        <ele>75.1</ele>
        <time>2013-02-18T20:48:49.000Z</time>
      </trkpt>
      <trkpt lat="48.87441" lon="2.25526">
        <ele>75.5</ele>
        <time>2013-02-18T20:48:50.000Z</time>
      </trkpt>
      <trkpt lat="48.87439" lon="2.25521">
        <ele>75.1</ele>
        <time>2013-02-18T20:48:54.000Z</time>
      </trkpt>
      <trkpt lat="48.87438" lon="2.2552">
        <ele>76.1</ele>
        <time>2013-02-18T20:48:55.000Z</time>
      </trkpt>
      <trkpt lat="48.87435" lon="2.25516">
        <ele>77.2</ele>
        <time>2013-02-18T20:48:58.000Z</time>
      </trkpt>
      <trkpt lat="48.87435" lon="2.25514">
        <ele>76.8</ele>
        <time>2013-02-18T20:48:59.000Z</time>
      </trkpt>
      <trkpt lat="48.87434" lon="2.25509">
        <ele>77.4</ele>
        <time>2013-02-18T20:49:02.000Z</time>
      </trkpt>
      <trkpt lat="48.87433" lon="2.25507">
        <ele>77.3</ele>
        <time>2013-02-18T20:49:03.000Z</time>
      </trkpt>
      <trkpt lat="48.87431" lon="2.25503">
        <ele>78</ele>
        <time>2013-02-18T20:49:06.000Z</time>
      </trkpt>
      <trkpt lat="48.8743" lon="2.25502">
        <ele>77.3</ele>
        <time>2013-02-18T20:49:07.000Z</time>
      </trkpt>
      <trkpt lat="48.87426" lon="2.255">
        <ele>77.5</ele>
        <time>2013-02-18T20:49:10.000Z</time>
      </trkpt>
      <trkpt lat="48.87425" lon="2.25499">
        <ele>76.8</ele>
        <time>2013-02-18T20:49:11.000Z</time>
      </trkpt>
      <trkpt lat="48.87422" lon="2.25499">
        <ele>78</ele>
        <time>2013-02-18T20:49:13.000Z</time>
      </trkpt>
      <trkpt lat="48.87421" lon="2.25498">
        <ele>78.5</ele>
        <time>2013-02-18T20:49:14.000Z</time>
      </trkpt>
      <trkpt lat="48.87419" lon="2.25498">
        <ele>78</ele>
        <time>2013-02-18T20:49:15.000Z</time>
      </trkpt>
      <trkpt lat="48.87416" lon="2.25497">
        <ele>78</ele>
        <time>2013-02-18T20:49:16.000Z</time>
      </trkpt>
      <trkpt lat="48.87413" lon="2.25497">
        <ele>77.9</ele>
        <time>2013-02-18T20:49:17.000Z</time>
      </trkpt>
      <trkpt lat="48.8741" lon="2.25497">
        <ele>78.5</ele>
        <time>2013-02-18T20:49:18.000Z</time>
      </trkpt>
      <trkpt lat="48.87407" lon="2.25498">
        <ele>78.5</ele>
        <time>2013-02-18T20:49:19.000Z</time>
      </trkpt>
      <trkpt lat="48.87405" lon="2.25499">
        <ele>78</ele>
        <time>2013-02-18T20:49:20.000Z</time>
      </trkpt>
      <trkpt lat="48.87402" lon="2.25499">
        <ele>78.1</ele>
        <time>2013-02-18T20:49:21.000Z</time>
      </trkpt>
      <trkpt lat="48.87399" lon="2.255">
        <ele>78.4</ele>
        <time>2013-02-18T20:49:22.000Z</time>
      </trkpt>
      <trkpt lat="48.87394" lon="2.25498">
        <ele>79.6</ele>
        <time>2013-02-18T20:49:24.154Z</time>
      </trkpt>
      <trkpt lat="48.87392" lon="2.25496">
        <ele>79.7</ele>
        <time>2013-02-18T20:49:25.000Z</time>
      </trkpt>
      <trkpt lat="48.8739" lon="2.25493">
        <ele>79.3</ele>
        <time>2013-02-18T20:49:26.000Z</time>
      </trkpt>
      <trkpt lat="48.87388" lon="2.2549">
        <ele>79.1</ele>
        <time>2013-02-18T20:49:27.000Z</time>
      </trkpt>
      <trkpt lat="48.87387" lon="2.25486">
        <ele>79</ele>
        <time>2013-02-18T20:49:28.000Z</time>
      </trkpt>
      <trkpt lat="48.87385" lon="2.25482">
        <ele>79</ele>
        <time>2013-02-18T20:49:29.000Z</time>
      </trkpt>
      <trkpt lat="48.87384" lon="2.25478">
        <ele>78.9</ele>
        <time>2013-02-18T20:49:30.000Z</time>
      </trkpt>
      <trkpt lat="48.87383" lon="2.25473">
        <ele>78.3</ele>
        <time>2013-02-18T20:49:31.000Z</time>
      </trkpt>
      <trkpt lat="48.87382" lon="2.25467">
        <ele>78.2</ele>
        <time>2013-02-18T20:49:32.000Z</time>
      </trkpt>
      <trkpt lat="48.87381" lon="2.25462">
        <ele>77.6</ele>
        <time>2013-02-18T20:49:33.000Z</time>
      </trkpt>
      <trkpt lat="48.87379" lon="2.25457">
        <ele>77</ele>
        <time>2013-02-18T20:49:34.000Z</time>
      </trkpt>
      <trkpt lat="48.87378" lon="2.25452">
        <ele>76.5</ele>
        <time>2013-02-18T20:49:35.000Z</time>
      </trkpt>
      <trkpt lat="48.87377" lon="2.25447">
        <ele>76.3</ele>
        <time>2013-02-18T20:49:36.000Z</time>
      </trkpt>
      <trkpt lat="48.87376" lon="2.25442">
        <ele>75.6</ele>
        <time>2013-02-18T20:49:37.000Z</time>
      </trkpt>
      <trkpt lat="48.87375" lon="2.25437">
        <ele>75.2</ele>
        <time>2013-02-18T20:49:38.000Z</time>
      </trkpt>
      <trkpt lat="48.87373" lon="2.25431">
        <ele>77.4</ele>
        <time>2013-02-18T20:49:39.000Z</time>
      </trkpt>
      <trkpt lat="48.87372" lon="2.25426">
        <ele>76.4</ele>
        <time>2013-02-18T20:49:40.000Z</time>
      </trkpt>
      <trkpt lat="48.8737" lon="2.25421">
        <ele>75.9</ele>
        <time>2013-02-18T20:49:41.000Z</time>
      </trkpt>
      <trkpt lat="48.87369" lon="2.25415">
        <ele>75.7</ele>
        <time>2013-02-18T20:49:42.000Z</time>
      </trkpt>
      <trkpt lat="48.87368" lon="2.25408">
        <ele>76.1</ele>
        <time>2013-02-18T20:49:43.000Z</time>
      </trkpt>
      <trkpt lat="48.87367" lon="2.25398">
        <ele>77.8</ele>
        <time>2013-02-18T20:49:44.000Z</time>
      </trkpt>
      <trkpt lat="48.87366" lon="2.2538">
        <ele>79.2</ele>
        <time>2013-02-18T20:49:45.000Z</time>
      </trkpt>
      <trkpt lat="48.87365" lon="2.25372">
        <ele>79.6</ele>
        <time>2013-02-18T20:49:46.000Z</time>
      </trkpt>
      <trkpt lat="48.87365" lon="2.25363">
        <ele>80.1</ele>
        <time>2013-02-18T20:49:47.000Z</time>
      </trkpt>
      <trkpt lat="48.87364" lon="2.25357">
        <ele>80.1</ele>
        <time>2013-02-18T20:49:48.000Z</time>
      </trkpt>
      <trkpt lat="48.87363" lon="2.25348">
        <ele>79.9</ele>
        <time>2013-02-18T20:49:49.000Z</time>
      </trkpt>
      <trkpt lat="48.87362" lon="2.2534">
        <ele>80.6</ele>
        <time>2013-02-18T20:49:50.000Z</time>
      </trkpt>
      <trkpt lat="48.87361" lon="2.25332">
        <ele>80.2</ele>
        <time>2013-02-18T20:49:51.000Z</time>
      </trkpt>
      <trkpt lat="48.8736" lon="2.25323">
        <ele>80.8</ele>
        <time>2013-02-18T20:49:52.000Z</time>
      </trkpt>
      <trkpt lat="48.8736" lon="2.25315">
        <ele>82.5</ele>
        <time>2013-02-18T20:49:53.000Z</time>
      </trkpt>
      <trkpt lat="48.8736" lon="2.25308">
        <ele>82</ele>
        <time>2013-02-18T20:49:54.000Z</time>
      </trkpt>
      <trkpt lat="48.8736" lon="2.253">
        <ele>82.3</ele>
        <time>2013-02-18T20:49:55.000Z</time>
      </trkpt>
      <trkpt lat="48.8736" lon="2.25295">
        <ele>82.7</ele>
        <time>2013-02-18T20:49:56.000Z</time>
      </trkpt>
      <trkpt lat="48.87359" lon="2.25288">
        <ele>81.6</ele>
        <time>2013-02-18T20:49:57.000Z</time>
      </trkpt>
      <trkpt lat="48.8736" lon="2.25281">
        <ele>81.7</ele>
        <time>2013-02-18T20:49:58.000Z</time>
      </trkpt>
      <trkpt lat="48.8736" lon="2.25275">
        <ele>81.5</ele>
        <time>2013-02-18T20:49:59.000Z</time>
      </trkpt>
      <trkpt lat="48.8736" lon="2.25268">
        <ele>81.1</ele>
        <time>2013-02-18T20:50:00.000Z</time>
      </trkpt>
      <trkpt lat="48.87361" lon="2.25259">
        <ele>81.6</ele>
        <time>2013-02-18T20:50:01.000Z</time>
      </trkpt>
      <trkpt lat="48.87361" lon="2.25251">
        <ele>81.6</ele>
        <time>2013-02-18T20:50:02.000Z</time>
      </trkpt>
      <trkpt lat="48.87361" lon="2.25243">
        <ele>82.6</ele>
        <time>2013-02-18T20:50:03.000Z</time>
      </trkpt>
      <trkpt lat="48.87361" lon="2.25235">
        <ele>82.5</ele>
        <time>2013-02-18T20:50:04.000Z</time>
      </trkpt>
      <trkpt lat="48.87362" lon="2.25227">
        <ele>82.5</ele>
        <time>2013-02-18T20:50:05.000Z</time>
      </trkpt>
      <trkpt lat="48.87363" lon="2.25218">
        <ele>82.5</ele>
        <time>2013-02-18T20:50:06.000Z</time>
      </trkpt>
      <trkpt lat="48.87364" lon="2.2521">
        <ele>82.6</ele>
        <time>2013-02-18T20:50:07.000Z</time>
      </trkpt>
      <trkpt lat="48.87365" lon="2.25202">
        <ele>82.6</ele>
        <time>2013-02-18T20:50:08.000Z</time>
      </trkpt>
      <trkpt lat="48.87367" lon="2.25193">
        <ele>82.9</ele>
        <time>2013-02-18T20:50:09.000Z</time>
      </trkpt>
      <trkpt lat="48.87369" lon="2.25184">
        <ele>82.7</ele>
        <time>2013-02-18T20:50:10.000Z</time>
      </trkpt>
      <trkpt lat="48.87371" lon="2.25177">
        <ele>82.7</ele>
        <time>2013-02-18T20:50:11.000Z</time>
      </trkpt>
      <trkpt lat="48.87373" lon="2.25169">
        <ele>82.5</ele>
        <time>2013-02-18T20:50:12.000Z</time>
      </trkpt>
      <trkpt lat="48.87374" lon="2.25162">
        <ele>82.6</ele>
        <time>2013-02-18T20:50:13.000Z</time>
      </trkpt>
      <trkpt lat="48.87376" lon="2.25155">
        <ele>82.5</ele>
        <time>2013-02-18T20:50:14.000Z</time>
      </trkpt>
      <trkpt lat="48.87378" lon="2.25148">
        <ele>79.8</ele>
        <time>2013-02-18T20:50:15.000Z</time>
      </trkpt>
      <trkpt lat="48.87381" lon="2.25141">
        <ele>80.5</ele>
        <time>2013-02-18T20:50:16.000Z</time>
      </trkpt>
      <trkpt lat="48.87383" lon="2.25133">
        <ele>81.2</ele>
        <time>2013-02-18T20:50:17.000Z</time>
      </trkpt>
      <trkpt lat="48.87385" lon="2.25126">
        <ele>81</ele>
        <time>2013-02-18T20:50:18.000Z</time>
      </trkpt>
      <trkpt lat="48.87387" lon="2.25118">
        <ele>83.6</ele>
        <time>2013-02-18T20:50:19.000Z</time>
      </trkpt>
      <trkpt lat="48.87389" lon="2.25113">
        <ele>83.8</ele>
        <time>2013-02-18T20:50:20.000Z</time>
      </trkpt>
      <trkpt lat="48.87392" lon="2.25105">
        <ele>83.8</ele>
        <time>2013-02-18T20:50:21.000Z</time>
      </trkpt>
      <trkpt lat="48.87395" lon="2.25098">
        <ele>84.3</ele>
        <time>2013-02-18T20:50:22.000Z</time>
      </trkpt>
      <trkpt lat="48.87401" lon="2.25085">
        <ele>84.4</ele>
        <time>2013-02-18T20:50:24.062Z</time>
      </trkpt>
      <trkpt lat="48.87402" lon="2.25078">
        <ele>84.5</ele>
        <time>2013-02-18T20:50:25.000Z</time>
      </trkpt>
      <trkpt lat="48.87405" lon="2.25069">
        <ele>84.4</ele>
        <time>2013-02-18T20:50:26.000Z</time>
      </trkpt>
      <trkpt lat="48.87407" lon="2.25062">
        <ele>84.8</ele>
        <time>2013-02-18T20:50:27.000Z</time>
      </trkpt>
      <trkpt lat="48.87414" lon="2.25054">
        <ele>84.6</ele>
        <time>2013-02-18T20:50:28.000Z</time>
      </trkpt>
      <trkpt lat="48.87418" lon="2.25045">
        <ele>85.1</ele>
        <time>2013-02-18T20:50:29.000Z</time>
      </trkpt>
      <trkpt lat="48.87423" lon="2.25038">
        <ele>85.7</ele>
        <time>2013-02-18T20:50:30.000Z</time>
      </trkpt>
      <trkpt lat="48.87427" lon="2.25031">
        <ele>85.6</ele>
        <time>2013-02-18T20:50:31.000Z</time>
      </trkpt>
      <trkpt lat="48.87431" lon="2.25025">
        <ele>85.3</ele>
        <time>2013-02-18T20:50:32.000Z</time>
      </trkpt>
      <trkpt lat="48.87435" lon="2.2502">
        <ele>85.5</ele>
        <time>2013-02-18T20:50:33.000Z</time>
      </trkpt>
      <trkpt lat="48.87439" lon="2.25016">
        <ele>85.1</ele>
        <time>2013-02-18T20:50:34.000Z</time>
      </trkpt>
      <trkpt lat="48.87442" lon="2.2501">
        <ele>85.1</ele>
        <time>2013-02-18T20:50:35.000Z</time>
      </trkpt>
      <trkpt lat="48.87446" lon="2.25004">
        <ele>85.1</ele>
        <time>2013-02-18T20:50:36.000Z</time>
      </trkpt>
      <trkpt lat="48.87448" lon="2.24997">
        <ele>85.2</ele>
        <time>2013-02-18T20:50:37.000Z</time>
      </trkpt>
      <trkpt lat="48.8745" lon="2.24989">
        <ele>85.1</ele>
        <time>2013-02-18T20:50:38.000Z</time>
      </trkpt>
      <trkpt lat="48.87452" lon="2.24982">
        <ele>84.2</ele>
        <time>2013-02-18T20:50:39.000Z</time>
      </trkpt>
      <trkpt lat="48.87454" lon="2.24973">
        <ele>85.1</ele>
        <time>2013-02-18T20:50:40.000Z</time>
      </trkpt>
      <trkpt lat="48.87455" lon="2.24968">
        <ele>83.8</ele>
        <time>2013-02-18T20:50:41.000Z</time>
      </trkpt>
      <trkpt lat="48.87456" lon="2.24962">
        <ele>82.6</ele>
        <time>2013-02-18T20:50:42.000Z</time>
      </trkpt>
      <trkpt lat="48.87455" lon="2.24958">
        <ele>77</ele>
        <time>2013-02-18T20:50:44.000Z</time>
      </trkpt>
      <trkpt lat="48.87454" lon="2.24951">
        <ele>77.2</ele>
        <time>2013-02-18T20:50:45.000Z</time>
      </trkpt>
      <trkpt lat="48.87455" lon="2.24944">
        <ele>76.9</ele>
        <time>2013-02-18T20:50:46.000Z</time>
      </trkpt>
      <trkpt lat="48.87455" lon="2.24937">
        <ele>76.6</ele>
        <time>2013-02-18T20:50:47.000Z</time>
      </trkpt>
      <trkpt lat="48.87454" lon="2.24929">
        <ele>76.4</ele>
        <time>2013-02-18T20:50:48.000Z</time>
      </trkpt>
      <trkpt lat="48.87454" lon="2.24924">
        <ele>75.8</ele>
        <time>2013-02-18T20:50:49.000Z</time>
      </trkpt>
      <trkpt lat="48.87453" lon="2.24916">
        <ele>75.7</ele>
        <time>2013-02-18T20:50:50.000Z</time>
      </trkpt>
      <trkpt lat="48.87453" lon="2.24908">
        <ele>75.4</ele>
        <time>2013-02-18T20:50:51.000Z</time>
      </trkpt>
      <trkpt lat="48.87453" lon="2.24901">
        <ele>75.7</ele>
        <time>2013-02-18T20:50:52.000Z</time>
      </trkpt>
      <trkpt lat="48.87452" lon="2.24893">
        <ele>75.5</ele>
        <time>2013-02-18T20:50:53.000Z</time>
      </trkpt>
      <trkpt lat="48.87451" lon="2.24885">
        <ele>76.2</ele>
        <time>2013-02-18T20:50:54.000Z</time>
      </trkpt>
      <trkpt lat="48.87448" lon="2.24879">
        <ele>75.7</ele>
        <time>2013-02-18T20:50:55.000Z</time>
      </trkpt>
      <trkpt lat="48.87445" lon="2.24873">
        <ele>75.7</ele>
        <time>2013-02-18T20:50:56.000Z</time>
      </trkpt>
      <trkpt lat="48.8744" lon="2.24869">
        <ele>74.9</ele>
        <time>2013-02-18T20:50:57.000Z</time>
      </trkpt>
      <trkpt lat="48.87436" lon="2.24863">
        <ele>75.5</ele>
        <time>2013-02-18T20:50:58.000Z</time>
      </trkpt>
      <trkpt lat="48.87431" lon="2.24858">
        <ele>76.1</ele>
        <time>2013-02-18T20:50:59.000Z</time>
      </trkpt>
      <trkpt lat="48.87428" lon="2.24853">
        <ele>77</ele>
        <time>2013-02-18T20:51:00.000Z</time>
      </trkpt>
      <trkpt lat="48.87423" lon="2.24849">
        <ele>76.1</ele>
        <time>2013-02-18T20:51:01.000Z</time>
      </trkpt>
      <trkpt lat="48.87418" lon="2.24844">
        <ele>76.4</ele>
        <time>2013-02-18T20:51:02.000Z</time>
      </trkpt>
      <trkpt lat="48.87413" lon="2.24838">
        <ele>76.5</ele>
        <time>2013-02-18T20:51:03.000Z</time>
      </trkpt>
      <trkpt lat="48.87408" lon="2.24833">
        <ele>75.8</ele>
        <time>2013-02-18T20:51:04.000Z</time>
      </trkpt>
      <trkpt lat="48.87402" lon="2.24826">
        <ele>75.9</ele>
        <time>2013-02-18T20:51:05.000Z</time>
      </trkpt>
      <trkpt lat="48.87399" lon="2.24821">
        <ele>75.2</ele>
        <time>2013-02-18T20:51:06.000Z</time>
      </trkpt>
      <trkpt lat="48.87394" lon="2.24816">
        <ele>74.7</ele>
        <time>2013-02-18T20:51:07.000Z</time>
      </trkpt>
      <trkpt lat="48.8739" lon="2.24811">
        <ele>74.6</ele>
        <time>2013-02-18T20:51:08.000Z</time>
      </trkpt>
      <trkpt lat="48.87384" lon="2.24806">
        <ele>75</ele>
        <time>2013-02-18T20:51:09.000Z</time>
      </trkpt>
      <trkpt lat="48.8738" lon="2.24801">
        <ele>74.8</ele>
        <time>2013-02-18T20:51:10.000Z</time>
      </trkpt>
      <trkpt lat="48.87375" lon="2.24795">
        <ele>74.9</ele>
        <time>2013-02-18T20:51:11.000Z</time>
      </trkpt>
      <trkpt lat="48.87371" lon="2.2479">
        <ele>75.6</ele>
        <time>2013-02-18T20:51:12.000Z</time>
      </trkpt>
      <trkpt lat="48.87366" lon="2.24785">
        <ele>75</ele>
        <time>2013-02-18T20:51:13.000Z</time>
      </trkpt>
      <trkpt lat="48.87361" lon="2.24782">
        <ele>74.5</ele>
        <time>2013-02-18T20:51:14.000Z</time>
      </trkpt>
      <trkpt lat="48.87356" lon="2.24777">
        <ele>74.8</ele>
        <time>2013-02-18T20:51:15.000Z</time>
      </trkpt>
      <trkpt lat="48.87351" lon="2.24772">
        <ele>74.6</ele>
        <time>2013-02-18T20:51:16.000Z</time>
      </trkpt>
      <trkpt lat="48.87347" lon="2.24767">
        <ele>75.4</ele>
        <time>2013-02-18T20:51:17.000Z</time>
      </trkpt>
      <trkpt lat="48.87342" lon="2.24764">
        <ele>75.1</ele>
        <time>2013-02-18T20:51:18.000Z</time>
      </trkpt>
      <trkpt lat="48.87338" lon="2.2476">
        <ele>75.4</ele>
        <time>2013-02-18T20:51:19.000Z</time>
      </trkpt>
      <trkpt lat="48.87336" lon="2.24758">
        <ele>74.3</ele>
        <time>2013-02-18T20:51:20.000Z</time>
      </trkpt>
      <trkpt lat="48.87332" lon="2.24756">
        <ele>74.2</ele>
        <time>2013-02-18T20:51:21.000Z</time>
      </trkpt>
      <trkpt lat="48.87328" lon="2.24753">
        <ele>72.9</ele>
        <time>2013-02-18T20:51:22.000Z</time>
      </trkpt>
      <trkpt lat="48.8732" lon="2.24749">
        <ele>72.5</ele>
        <time>2013-02-18T20:51:23.729Z</time>
      </trkpt>
      <trkpt lat="48.87316" lon="2.24745">
        <ele>73.3</ele>
        <time>2013-02-18T20:51:25.000Z</time>
      </trkpt>
      <trkpt lat="48.87311" lon="2.24742">
        <ele>72.5</ele>
        <time>2013-02-18T20:51:26.000Z</time>
      </trkpt>
      <trkpt lat="48.87307" lon="2.24738">
        <ele>72.2</ele>
        <time>2013-02-18T20:51:27.000Z</time>
      </trkpt>
      <trkpt lat="48.87302" lon="2.24734">
        <ele>72.7</ele>
        <time>2013-02-18T20:51:28.000Z</time>
      </trkpt>
      <trkpt lat="48.87299" lon="2.24731">
        <ele>73.4</ele>
        <time>2013-02-18T20:51:29.000Z</time>
      </trkpt>
      <trkpt lat="48.87296" lon="2.24727">
        <ele>73.3</ele>
        <time>2013-02-18T20:51:30.000Z</time>
      </trkpt>
      <trkpt lat="48.87292" lon="2.24724">
        <ele>73.4</ele>
        <time>2013-02-18T20:51:31.000Z</time>
      </trkpt>
      <trkpt lat="48.87288" lon="2.2472">
        <ele>73.5</ele>
        <time>2013-02-18T20:51:32.000Z</time>
      </trkpt>
      <trkpt lat="48.87282" lon="2.24714">
        <ele>74.7</ele>
        <time>2013-02-18T20:51:33.000Z</time>
      </trkpt>
      <trkpt lat="48.87278" lon="2.2471">
        <ele>74.7</ele>
        <time>2013-02-18T20:51:34.000Z</time>
      </trkpt>
      <trkpt lat="48.87274" lon="2.24705">
        <ele>75.8</ele>
        <time>2013-02-18T20:51:35.000Z</time>
      </trkpt>
      <trkpt lat="48.8727" lon="2.24701">
        <ele>76.1</ele>
        <time>2013-02-18T20:51:36.000Z</time>
      </trkpt>
      <trkpt lat="48.87267" lon="2.24696">
        <ele>75.2</ele>
        <time>2013-02-18T20:51:37.000Z</time>
      </trkpt>
      <trkpt lat="48.87263" lon="2.24691">
        <ele>75.2</ele>
        <time>2013-02-18T20:51:38.000Z</time>
      </trkpt>
      <trkpt lat="48.87258" lon="2.24688">
        <ele>75.2</ele>
        <time>2013-02-18T20:51:39.000Z</time>
      </trkpt>
      <trkpt lat="48.87254" lon="2.24684">
        <ele>75.1</ele>
        <time>2013-02-18T20:51:40.000Z</time>
      </trkpt>
      <trkpt lat="48.8725" lon="2.24679">
        <ele>73.4</ele>
        <time>2013-02-18T20:51:41.000Z</time>
      </trkpt>
      <trkpt lat="48.87246" lon="2.24675">
        <ele>72.4</ele>
        <time>2013-02-18T20:51:42.000Z</time>
      </trkpt>
      <trkpt lat="48.87239" lon="2.24671">
        <ele>73.3</ele>
        <time>2013-02-18T20:51:43.000Z</time>
      </trkpt>
      <trkpt lat="48.87234" lon="2.24667">
        <ele>73.6</ele>
        <time>2013-02-18T20:51:44.000Z</time>
      </trkpt>
      <trkpt lat="48.8723" lon="2.24662">
        <ele>73.6</ele>
        <time>2013-02-18T20:51:45.000Z</time>
      </trkpt>
      <trkpt lat="48.87224" lon="2.24658">
        <ele>72.9</ele>
        <time>2013-02-18T20:51:46.000Z</time>
      </trkpt>
      <trkpt lat="48.8722" lon="2.24654">
        <ele>72.9</ele>
        <time>2013-02-18T20:51:47.000Z</time>
      </trkpt>
      <trkpt lat="48.87215" lon="2.24651">
        <ele>72.4</ele>
        <time>2013-02-18T20:51:48.000Z</time>
      </trkpt>
      <trkpt lat="48.87211" lon="2.24647">
        <ele>72.6</ele>
        <time>2013-02-18T20:51:49.000Z</time>
      </trkpt>
      <trkpt lat="48.87206" lon="2.24643">
        <ele>71.9</ele>
        <time>2013-02-18T20:51:50.000Z</time>
      </trkpt>
      <trkpt lat="48.87201" lon="2.24639">
        <ele>71.5</ele>
        <time>2013-02-18T20:51:51.000Z</time>
      </trkpt>
      <trkpt lat="48.87196" lon="2.24635">
        <ele>71.4</ele>
        <time>2013-02-18T20:51:52.000Z</time>
      </trkpt>
      <trkpt lat="48.87191" lon="2.24631">
        <ele>71.3</ele>
        <time>2013-02-18T20:51:53.000Z</time>
      </trkpt>
      <trkpt lat="48.87186" lon="2.24626">
        <ele>72.2</ele>
        <time>2013-02-18T20:51:54.000Z</time>
      </trkpt>
      <trkpt lat="48.87181" lon="2.24621">
        <ele>71.6</ele>
        <time>2013-02-18T20:51:55.000Z</time>
      </trkpt>
      <trkpt lat="48.87176" lon="2.24619">
        <ele>71.3</ele>
        <time>2013-02-18T20:51:56.000Z</time>
      </trkpt>
      <trkpt lat="48.8717" lon="2.24615">
        <ele>71</ele>
        <time>2013-02-18T20:51:57.000Z</time>
      </trkpt>
      <trkpt lat="48.87165" lon="2.24611">
        <ele>71.1</ele>
        <time>2013-02-18T20:51:58.000Z</time>
      </trkpt>
      <trkpt lat="48.8716" lon="2.24606">
        <ele>70.7</ele>
        <time>2013-02-18T20:51:59.000Z</time>
      </trkpt>
      <trkpt lat="48.87155" lon="2.24601">
        <ele>70.2</ele>
        <time>2013-02-18T20:52:00.000Z</time>
      </trkpt>
      <trkpt lat="48.8715" lon="2.24597">
        <ele>68.6</ele>
        <time>2013-02-18T20:52:01.000Z</time>
      </trkpt>
      <trkpt lat="48.87144" lon="2.24592">
        <ele>68.9</ele>
        <time>2013-02-18T20:52:02.000Z</time>
      </trkpt>
      <trkpt lat="48.87138" lon="2.24588">
        <ele>68.8</ele>
        <time>2013-02-18T20:52:03.000Z</time>
      </trkpt>
      <trkpt lat="48.87133" lon="2.24584">
        <ele>68.6</ele>
        <time>2013-02-18T20:52:04.000Z</time>
      </trkpt>
      <trkpt lat="48.87128" lon="2.24579">
        <ele>68.9</ele>
        <time>2013-02-18T20:52:05.000Z</time>
      </trkpt>
      <trkpt lat="48.87123" lon="2.24574">
        <ele>68.6</ele>
        <time>2013-02-18T20:52:06.000Z</time>
      </trkpt>
      <trkpt lat="48.87115" lon="2.24569">
        <ele>68.8</ele>
        <time>2013-02-18T20:52:07.000Z</time>
      </trkpt>
      <trkpt lat="48.87109" lon="2.24564">
        <ele>68.3</ele>
        <time>2013-02-18T20:52:08.000Z</time>
      </trkpt>
      <trkpt lat="48.87104" lon="2.24563">
        <ele>68.9</ele>
        <time>2013-02-18T20:52:09.000Z</time>
      </trkpt>
      <trkpt lat="48.87099" lon="2.24559">
        <ele>68.8</ele>
        <time>2013-02-18T20:52:10.000Z</time>
      </trkpt>
      <trkpt lat="48.87093" lon="2.24556">
        <ele>69.1</ele>
        <time>2013-02-18T20:52:11.000Z</time>
      </trkpt>
      <trkpt lat="48.87087" lon="2.24553">
        <ele>69.2</ele>
        <time>2013-02-18T20:52:12.000Z</time>
      </trkpt>
      <trkpt lat="48.87081" lon="2.24549">
        <ele>68.5</ele>
        <time>2013-02-18T20:52:13.000Z</time>
      </trkpt>
      <trkpt lat="48.87076" lon="2.24546">
        <ele>68.3</ele>
        <time>2013-02-18T20:52:14.000Z</time>
      </trkpt>
      <trkpt lat="48.8707" lon="2.2454">
        <ele>69.3</ele>
        <time>2013-02-18T20:52:15.000Z</time>
      </trkpt>
      <trkpt lat="48.87065" lon="2.24536">
        <ele>69.2</ele>
        <time>2013-02-18T20:52:16.000Z</time>
      </trkpt>
      <trkpt lat="48.87059" lon="2.24532">
        <ele>69.8</ele>
        <time>2013-02-18T20:52:17.000Z</time>
      </trkpt>
      <trkpt lat="48.87055" lon="2.24528">
        <ele>68.6</ele>
        <time>2013-02-18T20:52:18.000Z</time>
      </trkpt>
      <trkpt lat="48.87049" lon="2.24524">
        <ele>68.4</ele>
        <time>2013-02-18T20:52:19.000Z</time>
      </trkpt>
      <trkpt lat="48.87045" lon="2.2452">
        <ele>68</ele>
        <time>2013-02-18T20:52:20.000Z</time>
      </trkpt>
      <trkpt lat="48.8704" lon="2.24516">
        <ele>67.2</ele>
        <time>2013-02-18T20:52:21.000Z</time>
      </trkpt>
      <trkpt lat="48.87035" lon="2.24512">
        <ele>67.7</ele>
        <time>2013-02-18T20:52:22.000Z</time>
      </trkpt>
      <trkpt lat="48.87026" lon="2.24505">
        <ele>67.6</ele>
        <time>2013-02-18T20:52:23.930Z</time>
      </trkpt>
      <trkpt lat="48.87023" lon="2.24501">
        <ele>67.5</ele>
        <time>2013-02-18T20:52:25.000Z</time>
      </trkpt>
      <trkpt lat="48.87018" lon="2.24496">
        <ele>67.4</ele>
        <time>2013-02-18T20:52:26.000Z</time>
      </trkpt>
      <trkpt lat="48.87011" lon="2.24492">
        <ele>68.1</ele>
        <time>2013-02-18T20:52:27.000Z</time>
      </trkpt>
      <trkpt lat="48.87004" lon="2.24488">
        <ele>68.7</ele>
        <time>2013-02-18T20:52:28.000Z</time>
      </trkpt>
      <trkpt lat="48.86998" lon="2.24483">
        <ele>68.9</ele>
        <time>2013-02-18T20:52:29.000Z</time>
      </trkpt>
      <trkpt lat="48.86994" lon="2.24479">
        <ele>69.6</ele>
        <time>2013-02-18T20:52:30.000Z</time>
      </trkpt>
      <trkpt lat="48.86988" lon="2.24475">
        <ele>69.4</ele>
        <time>2013-02-18T20:52:31.000Z</time>
      </trkpt>
      <trkpt lat="48.86983" lon="2.24471">
        <ele>69.6</ele>
        <time>2013-02-18T20:52:32.000Z</time>
      </trkpt>
      <trkpt lat="48.86976" lon="2.24467">
        <ele>69.5</ele>
        <time>2013-02-18T20:52:33.000Z</time>
      </trkpt>
      <trkpt lat="48.86972" lon="2.24463">
        <ele>69.3</ele>
        <time>2013-02-18T20:52:34.000Z</time>
      </trkpt>
      <trkpt lat="48.86967" lon="2.24459">
        <ele>69.1</ele>
        <time>2013-02-18T20:52:35.000Z</time>
      </trkpt>
      <trkpt lat="48.86963" lon="2.24455">
        <ele>68.2</ele>
        <time>2013-02-18T20:52:36.000Z</time>
      </trkpt>
      <trkpt lat="48.86958" lon="2.24451">
        <ele>68.8</ele>
        <time>2013-02-18T20:52:37.000Z</time>
      </trkpt>
      <trkpt lat="48.86953" lon="2.24447">
        <ele>67</ele>
        <time>2013-02-18T20:52:38.000Z</time>
      </trkpt>
      <trkpt lat="48.86948" lon="2.24444">
        <ele>65.9</ele>
        <time>2013-02-18T20:52:39.000Z</time>
      </trkpt>
      <trkpt lat="48.86941" lon="2.24439">
        <ele>67.8</ele>
        <time>2013-02-18T20:52:40.000Z</time>
      </trkpt>
      <trkpt lat="48.86936" lon="2.24434">
        <ele>67.1</ele>
        <time>2013-02-18T20:52:41.000Z</time>
      </trkpt>
      <trkpt lat="48.8693" lon="2.24431">
        <ele>68.3</ele>
        <time>2013-02-18T20:52:42.000Z</time>
      </trkpt>
      <trkpt lat="48.86925" lon="2.24426">
        <ele>68.8</ele>
        <time>2013-02-18T20:52:43.000Z</time>
      </trkpt>
      <trkpt lat="48.8692" lon="2.24421">
        <ele>68.9</ele>
        <time>2013-02-18T20:52:44.000Z</time>
      </trkpt>
      <trkpt lat="48.86915" lon="2.24418">
        <ele>68.3</ele>
        <time>2013-02-18T20:52:45.000Z</time>
      </trkpt>
      <trkpt lat="48.8691" lon="2.24413">
        <ele>68.6</ele>
        <time>2013-02-18T20:52:46.000Z</time>
      </trkpt>
      <trkpt lat="48.86905" lon="2.24409">
        <ele>69.4</ele>
        <time>2013-02-18T20:52:47.000Z</time>
      </trkpt>
      <trkpt lat="48.86899" lon="2.24404">
        <ele>70.2</ele>
        <time>2013-02-18T20:52:48.000Z</time>
      </trkpt>
      <trkpt lat="48.86895" lon="2.24401">
        <ele>70.2</ele>
        <time>2013-02-18T20:52:49.000Z</time>
      </trkpt>
      <trkpt lat="48.8689" lon="2.24396">
        <ele>70.1</ele>
        <time>2013-02-18T20:52:50.000Z</time>
      </trkpt>
      <trkpt lat="48.86885" lon="2.24391">
        <ele>70.5</ele>
        <time>2013-02-18T20:52:51.000Z</time>
      </trkpt>
      <trkpt lat="48.8688" lon="2.24386">
        <ele>70.8</ele>
        <time>2013-02-18T20:52:52.000Z</time>
      </trkpt>
      <trkpt lat="48.86875" lon="2.24381">
        <ele>72.6</ele>
        <time>2013-02-18T20:52:53.000Z</time>
      </trkpt>
      <trkpt lat="48.8687" lon="2.24377">
        <ele>73</ele>
        <time>2013-02-18T20:52:54.000Z</time>
      </trkpt>
      <trkpt lat="48.86865" lon="2.24372">
        <ele>73</ele>
        <time>2013-02-18T20:52:55.000Z</time>
      </trkpt>
      <trkpt lat="48.86859" lon="2.24367">
        <ele>73.5</ele>
        <time>2013-02-18T20:52:56.000Z</time>
      </trkpt>
      <trkpt lat="48.86853" lon="2.24363">
        <ele>72.7</ele>
        <time>2013-02-18T20:52:57.000Z</time>
      </trkpt>
      <trkpt lat="48.86848" lon="2.24358">
        <ele>72.2</ele>
        <time>2013-02-18T20:52:58.000Z</time>
      </trkpt>
      <trkpt lat="48.86843" lon="2.24353">
        <ele>72.2</ele>
        <time>2013-02-18T20:52:59.000Z</time>
      </trkpt>
      <trkpt lat="48.86837" lon="2.24349">
        <ele>71.9</ele>
        <time>2013-02-18T20:53:00.000Z</time>
      </trkpt>
      <trkpt lat="48.86831" lon="2.24345">
        <ele>71.8</ele>
        <time>2013-02-18T20:53:01.000Z</time>
      </trkpt>
      <trkpt lat="48.86826" lon="2.24339">
        <ele>72.7</ele>
        <time>2013-02-18T20:53:02.000Z</time>
      </trkpt>
      <trkpt lat="48.86821" lon="2.24335">
        <ele>72.2</ele>
        <time>2013-02-18T20:53:03.000Z</time>
      </trkpt>
      <trkpt lat="48.86816" lon="2.2433">
        <ele>72</ele>
        <time>2013-02-18T20:53:04.000Z</time>
      </trkpt>
      <trkpt lat="48.86812" lon="2.24325">
        <ele>71.7</ele>
        <time>2013-02-18T20:53:05.000Z</time>
      </trkpt>
      <trkpt lat="48.86806" lon="2.24319">
        <ele>71.9</ele>
        <time>2013-02-18T20:53:06.000Z</time>
      </trkpt>
      <trkpt lat="48.86801" lon="2.24315">
        <ele>72.5</ele>
        <time>2013-02-18T20:53:07.000Z</time>
      </trkpt>
      <trkpt lat="48.86795" lon="2.24309">
        <ele>72.4</ele>
        <time>2013-02-18T20:53:08.000Z</time>
      </trkpt>
      <trkpt lat="48.8679" lon="2.24305">
        <ele>73</ele>
        <time>2013-02-18T20:53:09.000Z</time>
      </trkpt>
      <trkpt lat="48.86785" lon="2.243">
        <ele>73.5</ele>
        <time>2013-02-18T20:53:10.000Z</time>
      </trkpt>
      <trkpt lat="48.8678" lon="2.24296">
        <ele>73.2</ele>
        <time>2013-02-18T20:53:11.000Z</time>
      </trkpt>
      <trkpt lat="48.86775" lon="2.24292">
        <ele>73.3</ele>
        <time>2013-02-18T20:53:12.000Z</time>
      </trkpt>
      <trkpt lat="48.8677" lon="2.24287">
        <ele>72.5</ele>
        <time>2013-02-18T20:53:13.000Z</time>
      </trkpt>
      <trkpt lat="48.86765" lon="2.24283">
        <ele>72.2</ele>
        <time>2013-02-18T20:53:14.000Z</time>
      </trkpt>
      <trkpt lat="48.8676" lon="2.24278">
        <ele>72.2</ele>
        <time>2013-02-18T20:53:15.000Z</time>
      </trkpt>
      <trkpt lat="48.86756" lon="2.24273">
        <ele>72.2</ele>
        <time>2013-02-18T20:53:16.000Z</time>
      </trkpt>
      <trkpt lat="48.86752" lon="2.24268">
        <ele>72.2</ele>
        <time>2013-02-18T20:53:17.000Z</time>
      </trkpt>
      <trkpt lat="48.86748" lon="2.24263">
        <ele>72.1</ele>
        <time>2013-02-18T20:53:18.000Z</time>
      </trkpt>
      <trkpt lat="48.86743" lon="2.24255">
        <ele>71.7</ele>
        <time>2013-02-18T20:53:19.000Z</time>
      </trkpt>
      <trkpt lat="48.86739" lon="2.24249">
        <ele>71.7</ele>
        <time>2013-02-18T20:53:20.000Z</time>
      </trkpt>
      <trkpt lat="48.86735" lon="2.24242">
        <ele>71.7</ele>
        <time>2013-02-18T20:53:21.000Z</time>
      </trkpt>
      <trkpt lat="48.86733" lon="2.24235">
        <ele>71.7</ele>
        <time>2013-02-18T20:53:22.000Z</time>
      </trkpt>
      <trkpt lat="48.86728" lon="2.24219">
        <ele>71.1</ele>
        <time>2013-02-18T20:53:24.044Z</time>
      </trkpt>
      <trkpt lat="48.86725" lon="2.24212">
        <ele>69.9</ele>
        <time>2013-02-18T20:53:25.000Z</time>
      </trkpt>
      <trkpt lat="48.86723" lon="2.24203">
        <ele>69.6</ele>
        <time>2013-02-18T20:53:26.000Z</time>
      </trkpt>
      <trkpt lat="48.86721" lon="2.24195">
        <ele>69</ele>
        <time>2013-02-18T20:53:27.000Z</time>
      </trkpt>
      <trkpt lat="48.8672" lon="2.24187">
        <ele>68.4</ele>
        <time>2013-02-18T20:53:28.000Z</time>
      </trkpt>
      <trkpt lat="48.86718" lon="2.24179">
        <ele>68.5</ele>
        <time>2013-02-18T20:53:29.000Z</time>
      </trkpt>
      <trkpt lat="48.86717" lon="2.24167">
        <ele>67.9</ele>
        <time>2013-02-18T20:53:30.000Z</time>
      </trkpt>
      <trkpt lat="48.86716" lon="2.24159">
        <ele>67.8</ele>
        <time>2013-02-18T20:53:31.000Z</time>
      </trkpt>
      <trkpt lat="48.86714" lon="2.24151">
        <ele>68.6</ele>
        <time>2013-02-18T20:53:32.000Z</time>
      </trkpt>
      <trkpt lat="48.86712" lon="2.24142">
        <ele>68.9</ele>
        <time>2013-02-18T20:53:33.000Z</time>
      </trkpt>
      <trkpt lat="48.8671" lon="2.24132">
        <ele>69.9</ele>
        <time>2013-02-18T20:53:34.000Z</time>
      </trkpt>
      <trkpt lat="48.86709" lon="2.24124">
        <ele>71.2</ele>
        <time>2013-02-18T20:53:35.000Z</time>
      </trkpt>
      <trkpt lat="48.86708" lon="2.24116">
        <ele>72.4</ele>
        <time>2013-02-18T20:53:36.000Z</time>
      </trkpt>
      <trkpt lat="48.86707" lon="2.24109">
        <ele>73.3</ele>
        <time>2013-02-18T20:53:37.000Z</time>
      </trkpt>
      <trkpt lat="48.86706" lon="2.24101">
        <ele>73.7</ele>
        <time>2013-02-18T20:53:38.000Z</time>
      </trkpt>
      <trkpt lat="48.86706" lon="2.24094">
        <ele>74.1</ele>
        <time>2013-02-18T20:53:39.000Z</time>
      </trkpt>
      <trkpt lat="48.86705" lon="2.24084">
        <ele>76</ele>
        <time>2013-02-18T20:53:40.000Z</time>
      </trkpt>
      <trkpt lat="48.86704" lon="2.24076">
        <ele>75.4</ele>
        <time>2013-02-18T20:53:41.000Z</time>
      </trkpt>
      <trkpt lat="48.86703" lon="2.24071">
        <ele>74.1</ele>
        <time>2013-02-18T20:53:42.000Z</time>
      </trkpt>
      <trkpt lat="48.86701" lon="2.24065">
        <ele>73.8</ele>
        <time>2013-02-18T20:53:43.000Z</time>
      </trkpt>
      <trkpt lat="48.867" lon="2.24058">
        <ele>73.7</ele>
        <time>2013-02-18T20:53:44.000Z</time>
      </trkpt>
      <trkpt lat="48.86699" lon="2.24051">
        <ele>74.1</ele>
        <time>2013-02-18T20:53:45.000Z</time>
      </trkpt>
      <trkpt lat="48.86699" lon="2.24043">
        <ele>74.8</ele>
        <time>2013-02-18T20:53:46.000Z</time>
      </trkpt>
      <trkpt lat="48.86698" lon="2.24035">
        <ele>74.8</ele>
        <time>2013-02-18T20:53:47.000Z</time>
      </trkpt>
      <trkpt lat="48.86698" lon="2.24028">
        <ele>74.6</ele>
        <time>2013-02-18T20:53:48.000Z</time>
      </trkpt>
      <trkpt lat="48.86699" lon="2.24022">
        <ele>74.8</ele>
        <time>2013-02-18T20:53:49.000Z</time>
      </trkpt>
      <trkpt lat="48.86698" lon="2.24016">
        <ele>75</ele>
        <time>2013-02-18T20:53:50.000Z</time>
      </trkpt>
      <trkpt lat="48.867" lon="2.24009">
        <ele>74.4</ele>
        <time>2013-02-18T20:53:51.000Z</time>
      </trkpt>
      <trkpt lat="48.86699" lon="2.24002">
        <ele>74.6</ele>
        <time>2013-02-18T20:53:52.000Z</time>
      </trkpt>
      <trkpt lat="48.86699" lon="2.23991">
        <ele>75.5</ele>
        <time>2013-02-18T20:53:53.000Z</time>
      </trkpt>
      <trkpt lat="48.86698" lon="2.23985">
        <ele>76</ele>
        <time>2013-02-18T20:53:54.000Z</time>
      </trkpt>
      <trkpt lat="48.86698" lon="2.23979">
        <ele>76.3</ele>
        <time>2013-02-18T20:53:55.000Z</time>
      </trkpt>
      <trkpt lat="48.86697" lon="2.23973">
        <ele>76.4</ele>
        <time>2013-02-18T20:53:56.000Z</time>
      </trkpt>
      <trkpt lat="48.86697" lon="2.23966">
        <ele>76.4</ele>
        <time>2013-02-18T20:53:57.000Z</time>
      </trkpt>
      <trkpt lat="48.86698" lon="2.23958">
        <ele>76.8</ele>
        <time>2013-02-18T20:53:58.000Z</time>
      </trkpt>
      <trkpt lat="48.86698" lon="2.23951">
        <ele>76.7</ele>
        <time>2013-02-18T20:53:59.000Z</time>
      </trkpt>
      <trkpt lat="48.86695" lon="2.23943">
        <ele>77.5</ele>
        <time>2013-02-18T20:54:00.000Z</time>
      </trkpt>
      <trkpt lat="48.86694" lon="2.23937">
        <ele>77.4</ele>
        <time>2013-02-18T20:54:01.000Z</time>
      </trkpt>
      <trkpt lat="48.86695" lon="2.23929">
        <ele>76.6</ele>
        <time>2013-02-18T20:54:02.000Z</time>
      </trkpt>
      <trkpt lat="48.86694" lon="2.23922">
        <ele>76.7</ele>
        <time>2013-02-18T20:54:03.000Z</time>
      </trkpt>
      <trkpt lat="48.86693" lon="2.23915">
        <ele>76.9</ele>
        <time>2013-02-18T20:54:04.000Z</time>
      </trkpt>
      <trkpt lat="48.86692" lon="2.23908">
        <ele>77</ele>
        <time>2013-02-18T20:54:05.000Z</time>
      </trkpt>
      <trkpt lat="48.86691" lon="2.23902">
        <ele>77</ele>
        <time>2013-02-18T20:54:06.000Z</time>
      </trkpt>
      <trkpt lat="48.86691" lon="2.23896">
        <ele>77</ele>
        <time>2013-02-18T20:54:07.000Z</time>
      </trkpt>
      <trkpt lat="48.8669" lon="2.23889">
        <ele>76.8</ele>
        <time>2013-02-18T20:54:08.000Z</time>
      </trkpt>
      <trkpt lat="48.86689" lon="2.23882">
        <ele>76.8</ele>
        <time>2013-02-18T20:54:09.000Z</time>
      </trkpt>
      <trkpt lat="48.86687" lon="2.23877">
        <ele>77</ele>
        <time>2013-02-18T20:54:10.000Z</time>
      </trkpt>
      <trkpt lat="48.86686" lon="2.2387">
        <ele>77</ele>
        <time>2013-02-18T20:54:11.000Z</time>
      </trkpt>
      <trkpt lat="48.86684" lon="2.2386">
        <ele>76.6</ele>
        <time>2013-02-18T20:54:12.000Z</time>
      </trkpt>
      <trkpt lat="48.86682" lon="2.23855">
        <ele>74.9</ele>
        <time>2013-02-18T20:54:13.000Z</time>
      </trkpt>
      <trkpt lat="48.8668" lon="2.23849">
        <ele>75.5</ele>
        <time>2013-02-18T20:54:14.000Z</time>
      </trkpt>
      <trkpt lat="48.8668" lon="2.23842">
        <ele>74.6</ele>
        <time>2013-02-18T20:54:15.000Z</time>
      </trkpt>
      <trkpt lat="48.86678" lon="2.23834">
        <ele>74.5</ele>
        <time>2013-02-18T20:54:16.000Z</time>
      </trkpt>
      <trkpt lat="48.86676" lon="2.23828">
        <ele>74.2</ele>
        <time>2013-02-18T20:54:17.000Z</time>
      </trkpt>
      <trkpt lat="48.86673" lon="2.2382">
        <ele>74.9</ele>
        <time>2013-02-18T20:54:18.000Z</time>
      </trkpt>
      <trkpt lat="48.86672" lon="2.23812">
        <ele>75.2</ele>
        <time>2013-02-18T20:54:19.000Z</time>
      </trkpt>
      <trkpt lat="48.86671" lon="2.23803">
        <ele>74.6</ele>
        <time>2013-02-18T20:54:20.000Z</time>
      </trkpt>
      <trkpt lat="48.8667" lon="2.23796">
        <ele>74.1</ele>
        <time>2013-02-18T20:54:21.000Z</time>
      </trkpt>
      <trkpt lat="48.86669" lon="2.23788">
        <ele>75.4</ele>
        <time>2013-02-18T20:54:22.000Z</time>
      </trkpt>
      <trkpt lat="48.86667" lon="2.23774">
        <ele>75.4</ele>
        <time>2013-02-18T20:54:24.169Z</time>
      </trkpt>
      <trkpt lat="48.86664" lon="2.23766">
        <ele>75.7</ele>
        <time>2013-02-18T20:54:25.000Z</time>
      </trkpt>
      <trkpt lat="48.86662" lon="2.23759">
        <ele>76.4</ele>
        <time>2013-02-18T20:54:26.000Z</time>
      </trkpt>
      <trkpt lat="48.8666" lon="2.2375">
        <ele>76.3</ele>
        <time>2013-02-18T20:54:27.000Z</time>
      </trkpt>
      <trkpt lat="48.86658" lon="2.23742">
        <ele>76.6</ele>
        <time>2013-02-18T20:54:28.000Z</time>
      </trkpt>
      <trkpt lat="48.86655" lon="2.23732">
        <ele>76.7</ele>
        <time>2013-02-18T20:54:29.000Z</time>
      </trkpt>
      <trkpt lat="48.86652" lon="2.23724">
        <ele>77.2</ele>
        <time>2013-02-18T20:54:30.000Z</time>
      </trkpt>
      <trkpt lat="48.8665" lon="2.23717">
        <ele>77.5</ele>
        <time>2013-02-18T20:54:31.000Z</time>
      </trkpt>
      <trkpt lat="48.86647" lon="2.23709">
        <ele>78.1</ele>
        <time>2013-02-18T20:54:32.000Z</time>
      </trkpt>
      <trkpt lat="48.86644" lon="2.23701">
        <ele>77.2</ele>
        <time>2013-02-18T20:54:33.000Z</time>
      </trkpt>
      <trkpt lat="48.86642" lon="2.23693">
        <ele>77</ele>
        <time>2013-02-18T20:54:34.000Z</time>
      </trkpt>
      <trkpt lat="48.86638" lon="2.23685">
        <ele>76.7</ele>
        <time>2013-02-18T20:54:35.000Z</time>
      </trkpt>
      <trkpt lat="48.86634" lon="2.2368">
        <ele>75.9</ele>
        <time>2013-02-18T20:54:36.000Z</time>
      </trkpt>
      <trkpt lat="48.86631" lon="2.23672">
        <ele>76.2</ele>
        <time>2013-02-18T20:54:37.000Z</time>
      </trkpt>
      <trkpt lat="48.86628" lon="2.23664">
        <ele>75.9</ele>
        <time>2013-02-18T20:54:38.000Z</time>
      </trkpt>
      <trkpt lat="48.86625" lon="2.23656">
        <ele>75.3</ele>
        <time>2013-02-18T20:54:39.000Z</time>
      </trkpt>
      <trkpt lat="48.86621" lon="2.2365">
        <ele>75.2</ele>
        <time>2013-02-18T20:54:40.000Z</time>
      </trkpt>
      <trkpt lat="48.86618" lon="2.2364">
        <ele>74.4</ele>
        <time>2013-02-18T20:54:41.000Z</time>
      </trkpt>
      <trkpt lat="48.86614" lon="2.23632">
        <ele>74.2</ele>
        <time>2013-02-18T20:54:42.000Z</time>
      </trkpt>
      <trkpt lat="48.86609" lon="2.23623">
        <ele>74.3</ele>
        <time>2013-02-18T20:54:43.000Z</time>
      </trkpt>
      <trkpt lat="48.86606" lon="2.23613">
        <ele>74.8</ele>
        <time>2013-02-18T20:54:44.000Z</time>
      </trkpt>
      <trkpt lat="48.86602" lon="2.23605">
        <ele>75</ele>
        <time>2013-02-18T20:54:45.000Z</time>
      </trkpt>
      <trkpt lat="48.86598" lon="2.23597">
        <ele>75.1</ele>
        <time>2013-02-18T20:54:46.000Z</time>
      </trkpt>
      <trkpt lat="48.86594" lon="2.2359">
        <ele>74.7</ele>
        <time>2013-02-18T20:54:47.000Z</time>
      </trkpt>
      <trkpt lat="48.8659" lon="2.23581">
        <ele>74.4</ele>
        <time>2013-02-18T20:54:48.000Z</time>
      </trkpt>
      <trkpt lat="48.86586" lon="2.23573">
        <ele>74.2</ele>
        <time>2013-02-18T20:54:49.000Z</time>
      </trkpt>
      <trkpt lat="48.86582" lon="2.23564">
        <ele>74.4</ele>
        <time>2013-02-18T20:54:50.000Z</time>
      </trkpt>
      <trkpt lat="48.86579" lon="2.23556">
        <ele>74.1</ele>
        <time>2013-02-18T20:54:51.000Z</time>
      </trkpt>
      <trkpt lat="48.86574" lon="2.23549">
        <ele>73.7</ele>
        <time>2013-02-18T20:54:52.000Z</time>
      </trkpt>
      <trkpt lat="48.8657" lon="2.23542">
        <ele>74</ele>
        <time>2013-02-18T20:54:53.000Z</time>
      </trkpt>
      <trkpt lat="48.86567" lon="2.23536">
        <ele>73</ele>
        <time>2013-02-18T20:54:54.000Z</time>
      </trkpt>
      <trkpt lat="48.86563" lon="2.2353">
        <ele>72.9</ele>
        <time>2013-02-18T20:54:55.000Z</time>
      </trkpt>
      <trkpt lat="48.86558" lon="2.23523">
        <ele>74.4</ele>
        <time>2013-02-18T20:54:56.000Z</time>
      </trkpt>
      <trkpt lat="48.86555" lon="2.23518">
        <ele>74.5</ele>
        <time>2013-02-18T20:54:57.000Z</time>
      </trkpt>
      <trkpt lat="48.86552" lon="2.23515">
        <ele>76.3</ele>
        <time>2013-02-18T20:54:58.000Z</time>
      </trkpt>
      <trkpt lat="48.86549" lon="2.23512">
        <ele>78.2</ele>
        <time>2013-02-18T20:54:59.000Z</time>
      </trkpt>
      <trkpt lat="48.86545" lon="2.23507">
        <ele>78.1</ele>
        <time>2013-02-18T20:55:00.000Z</time>
      </trkpt>
      <trkpt lat="48.86543" lon="2.23503">
        <ele>78</ele>
        <time>2013-02-18T20:55:01.000Z</time>
      </trkpt>
      <trkpt lat="48.86539" lon="2.23499">
        <ele>78.4</ele>
        <time>2013-02-18T20:55:02.000Z</time>
      </trkpt>
      <trkpt lat="48.86536" lon="2.23495">
        <ele>78.7</ele>
        <time>2013-02-18T20:55:03.000Z</time>
      </trkpt>
      <trkpt lat="48.86534" lon="2.23491">
        <ele>79.1</ele>
        <time>2013-02-18T20:55:04.000Z</time>
      </trkpt>
      <trkpt lat="48.8653" lon="2.23482">
        <ele>79.3</ele>
        <time>2013-02-18T20:55:05.000Z</time>
      </trkpt>
      <trkpt lat="48.86527" lon="2.23478">
        <ele>79.5</ele>
        <time>2013-02-18T20:55:06.000Z</time>
      </trkpt>
      <trkpt lat="48.86524" lon="2.23474">
        <ele>76.1</ele>
        <time>2013-02-18T20:55:09.000Z</time>
      </trkpt>
      <trkpt lat="48.86523" lon="2.23472">
        <ele>76.9</ele>
        <time>2013-02-18T20:55:10.000Z</time>
      </trkpt>
      <trkpt lat="48.86521" lon="2.23468">
        <ele>77.3</ele>
        <time>2013-02-18T20:55:12.000Z</time>
      </trkpt>
      <trkpt lat="48.8652" lon="2.23466">
        <ele>77.3</ele>
        <time>2013-02-18T20:55:13.000Z</time>
      </trkpt>
      <trkpt lat="48.86517" lon="2.23462">
        <ele>75.8</ele>
        <time>2013-02-18T20:55:16.000Z</time>
      </trkpt>
      <trkpt lat="48.86517" lon="2.23461">
        <ele>75.8</ele>
        <time>2013-02-18T20:55:17.000Z</time>
      </trkpt>
      <trkpt lat="48.86514" lon="2.23457">
        <ele>75.1</ele>
        <time>2013-02-18T20:55:21.000Z</time>
      </trkpt>
      <trkpt lat="48.86513" lon="2.23456">
        <ele>75.1</ele>
        <time>2013-02-18T20:55:22.000Z</time>
      </trkpt>
      <trkpt lat="48.86511" lon="2.23455">
        <ele>74.3</ele>
        <time>2013-02-18T20:57:51.000Z</time>
      </trkpt>
      <trkpt lat="48.86508" lon="2.23454">
        <ele>75.1</ele>
        <time>2013-02-18T20:57:52.000Z</time>
      </trkpt>
      <trkpt lat="48.86506" lon="2.23453">
        <ele>74.8</ele>
        <time>2013-02-18T20:57:53.000Z</time>
      </trkpt>
      <trkpt lat="48.86504" lon="2.23453">
        <ele>74.2</ele>
        <time>2013-02-18T20:57:54.000Z</time>
      </trkpt>
      <trkpt lat="48.86501" lon="2.23455">
        <ele>73.7</ele>
        <time>2013-02-18T20:57:55.000Z</time>
      </trkpt>
      <trkpt lat="48.86498" lon="2.23457">
        <ele>73.9</ele>
        <time>2013-02-18T20:57:56.000Z</time>
      </trkpt>
      <trkpt lat="48.86495" lon="2.23459">
        <ele>73.2</ele>
        <time>2013-02-18T20:57:57.000Z</time>
      </trkpt>
      <trkpt lat="48.86492" lon="2.23461">
        <ele>72.8</ele>
        <time>2013-02-18T20:57:58.000Z</time>
      </trkpt>
      <trkpt lat="48.86489" lon="2.23464">
        <ele>72.2</ele>
        <time>2013-02-18T20:57:59.000Z</time>
      </trkpt>
      <trkpt lat="48.86486" lon="2.23467">
        <ele>71.9</ele>
        <time>2013-02-18T20:58:00.000Z</time>
      </trkpt>
      <trkpt lat="48.86483" lon="2.23472">
        <ele>71.6</ele>
        <time>2013-02-18T20:58:01.000Z</time>
      </trkpt>
      <trkpt lat="48.86481" lon="2.23475">
        <ele>71.1</ele>
        <time>2013-02-18T20:58:02.000Z</time>
      </trkpt>
      <trkpt lat="48.86477" lon="2.23481">
        <ele>70.3</ele>
        <time>2013-02-18T20:58:03.000Z</time>
      </trkpt>
      <trkpt lat="48.86474" lon="2.23486">
        <ele>70.3</ele>
        <time>2013-02-18T20:58:04.000Z</time>
      </trkpt>
      <trkpt lat="48.86472" lon="2.23491">
        <ele>69</ele>
        <time>2013-02-18T20:58:05.000Z</time>
      </trkpt>
      <trkpt lat="48.86469" lon="2.23495">
        <ele>68.9</ele>
        <time>2013-02-18T20:58:06.000Z</time>
      </trkpt>
      <trkpt lat="48.86466" lon="2.235">
        <ele>67.8</ele>
        <time>2013-02-18T20:58:07.000Z</time>
      </trkpt>
      <trkpt lat="48.86464" lon="2.23504">
        <ele>67.6</ele>
        <time>2013-02-18T20:58:08.000Z</time>
      </trkpt>
      <trkpt lat="48.86461" lon="2.2351">
        <ele>68.3</ele>
        <time>2013-02-18T20:58:09.000Z</time>
      </trkpt>
      <trkpt lat="48.86459" lon="2.23514">
        <ele>68.5</ele>
        <time>2013-02-18T20:58:10.000Z</time>
      </trkpt>
      <trkpt lat="48.86457" lon="2.23519">
        <ele>68.5</ele>
        <time>2013-02-18T20:58:11.000Z</time>
      </trkpt>
      <trkpt lat="48.86455" lon="2.23523">
        <ele>68.1</ele>
        <time>2013-02-18T20:58:12.000Z</time>
      </trkpt>
      <trkpt lat="48.86452" lon="2.23528">
        <ele>68.1</ele>
        <time>2013-02-18T20:58:13.000Z</time>
      </trkpt>
      <trkpt lat="48.8645" lon="2.23532">
        <ele>67.4</ele>
        <time>2013-02-18T20:58:14.000Z</time>
      </trkpt>
      <trkpt lat="48.86448" lon="2.23536">
        <ele>67.3</ele>
        <time>2013-02-18T20:58:15.000Z</time>
      </trkpt>
      <trkpt lat="48.86447" lon="2.23541">
        <ele>65.8</ele>
        <time>2013-02-18T20:58:16.000Z</time>
      </trkpt>
      <trkpt lat="48.86445" lon="2.23545">
        <ele>65.5</ele>
        <time>2013-02-18T20:58:17.000Z</time>
      </trkpt>
      <trkpt lat="48.86443" lon="2.23549">
        <ele>65.4</ele>
        <time>2013-02-18T20:58:18.000Z</time>
      </trkpt>
      <trkpt lat="48.8644" lon="2.23553">
        <ele>65.4</ele>
        <time>2013-02-18T20:58:19.000Z</time>
      </trkpt>
      <trkpt lat="48.86438" lon="2.23558">
        <ele>65.2</ele>
        <time>2013-02-18T20:58:20.000Z</time>
      </trkpt>
      <trkpt lat="48.86436" lon="2.23562">
        <ele>65.4</ele>
        <time>2013-02-18T20:58:21.000Z</time>
      </trkpt>
      <trkpt lat="48.86434" lon="2.23567">
        <ele>64.7</ele>
        <time>2013-02-18T20:58:22.000Z</time>
      </trkpt>
      <trkpt lat="48.86431" lon="2.23575">
        <ele>64.7</ele>
        <time>2013-02-18T20:58:23.708Z</time>
      </trkpt>
      <trkpt lat="48.86428" lon="2.23581">
        <ele>64.8</ele>
        <time>2013-02-18T20:58:25.000Z</time>
      </trkpt>
      <trkpt lat="48.86425" lon="2.23585">
        <ele>65.3</ele>
        <time>2013-02-18T20:58:26.000Z</time>
      </trkpt>
      <trkpt lat="48.86422" lon="2.2359">
        <ele>65.8</ele>
        <time>2013-02-18T20:58:27.000Z</time>
      </trkpt>
      <trkpt lat="48.86419" lon="2.23593">
        <ele>65.6</ele>
        <time>2013-02-18T20:58:28.000Z</time>
      </trkpt>
      <trkpt lat="48.86415" lon="2.23596">
        <ele>65.7</ele>
        <time>2013-02-18T20:58:29.000Z</time>
      </trkpt>
      <trkpt lat="48.86412" lon="2.23599">
        <ele>65.4</ele>
        <time>2013-02-18T20:58:30.000Z</time>
      </trkpt>
      <trkpt lat="48.86408" lon="2.23603">
        <ele>65.4</ele>
        <time>2013-02-18T20:58:31.000Z</time>
      </trkpt>
      <trkpt lat="48.86407" lon="2.23609">
        <ele>66</ele>
        <time>2013-02-18T20:58:32.000Z</time>
      </trkpt>
      <trkpt lat="48.86405" lon="2.23615">
        <ele>66.2</ele>
        <time>2013-02-18T20:58:33.000Z</time>
      </trkpt>
      <trkpt lat="48.86403" lon="2.2362">
        <ele>66.4</ele>
        <time>2013-02-18T20:58:34.000Z</time>
      </trkpt>
      <trkpt lat="48.864" lon="2.23624">
        <ele>66.4</ele>
        <time>2013-02-18T20:58:35.000Z</time>
      </trkpt>
      <trkpt lat="48.86397" lon="2.23629">
        <ele>66.5</ele>
        <time>2013-02-18T20:58:36.000Z</time>
      </trkpt>
      <trkpt lat="48.86395" lon="2.23634">
        <ele>66.5</ele>
        <time>2013-02-18T20:58:37.000Z</time>
      </trkpt>
      <trkpt lat="48.86393" lon="2.2364">
        <ele>66.1</ele>
        <time>2013-02-18T20:58:38.000Z</time>
      </trkpt>
      <trkpt lat="48.86392" lon="2.23646">
        <ele>65.9</ele>
        <time>2013-02-18T20:58:39.000Z</time>
      </trkpt>
      <trkpt lat="48.86391" lon="2.23651">
        <ele>65.8</ele>
        <time>2013-02-18T20:58:40.000Z</time>
      </trkpt>
      <trkpt lat="48.86389" lon="2.23657">
        <ele>65.8</ele>
        <time>2013-02-18T20:58:41.000Z</time>
      </trkpt>
      <trkpt lat="48.86387" lon="2.23663">
        <ele>65.8</ele>
        <time>2013-02-18T20:58:42.000Z</time>
      </trkpt>
      <trkpt lat="48.86386" lon="2.23669">
        <ele>66.3</ele>
        <time>2013-02-18T20:58:43.000Z</time>
      </trkpt>
      <trkpt lat="48.86384" lon="2.23675">
        <ele>66.3</ele>
        <time>2013-02-18T20:58:44.000Z</time>
      </trkpt>
      <trkpt lat="48.86382" lon="2.2368">
        <ele>66.4</ele>
        <time>2013-02-18T20:58:45.000Z</time>
      </trkpt>
      <trkpt lat="48.8638" lon="2.23686">
        <ele>66.5</ele>
        <time>2013-02-18T20:58:46.000Z</time>
      </trkpt>
      <trkpt lat="48.86378" lon="2.23691">
        <ele>66.5</ele>
        <time>2013-02-18T20:58:47.000Z</time>
      </trkpt>
      <trkpt lat="48.86375" lon="2.23696">
        <ele>66.5</ele>
        <time>2013-02-18T20:58:48.000Z</time>
      </trkpt>
      <trkpt lat="48.86373" lon="2.23702">
        <ele>66.9</ele>
        <time>2013-02-18T20:58:49.000Z</time>
      </trkpt>
      <trkpt lat="48.8637" lon="2.23707">
        <ele>66.7</ele>
        <time>2013-02-18T20:58:50.000Z</time>
      </trkpt>
      <trkpt lat="48.86366" lon="2.23713">
        <ele>67.1</ele>
        <time>2013-02-18T20:58:51.000Z</time>
      </trkpt>
      <trkpt lat="48.86363" lon="2.23718">
        <ele>67.7</ele>
        <time>2013-02-18T20:58:52.000Z</time>
      </trkpt>
      <trkpt lat="48.86359" lon="2.23723">
        <ele>67.4</ele>
        <time>2013-02-18T20:58:53.000Z</time>
      </trkpt>
      <trkpt lat="48.86355" lon="2.23728">
        <ele>67</ele>
        <time>2013-02-18T20:58:54.000Z</time>
      </trkpt>
      <trkpt lat="48.86351" lon="2.23732">
        <ele>66.8</ele>
        <time>2013-02-18T20:58:55.000Z</time>
      </trkpt>
      <trkpt lat="48.86347" lon="2.23736">
        <ele>67.3</ele>
        <time>2013-02-18T20:58:56.000Z</time>
      </trkpt>
      <trkpt lat="48.86343" lon="2.23741">
        <ele>66.7</ele>
        <time>2013-02-18T20:58:57.000Z</time>
      </trkpt>
      <trkpt lat="48.86338" lon="2.23746">
        <ele>67.3</ele>
        <time>2013-02-18T20:58:58.000Z</time>
      </trkpt>
      <trkpt lat="48.86333" lon="2.2375">
        <ele>66.9</ele>
        <time>2013-02-18T20:58:59.000Z</time>
      </trkpt>
      <trkpt lat="48.86328" lon="2.23754">
        <ele>66.7</ele>
        <time>2013-02-18T20:59:00.000Z</time>
      </trkpt>
      <trkpt lat="48.86323" lon="2.23758">
        <ele>66.8</ele>
        <time>2013-02-18T20:59:01.000Z</time>
      </trkpt>
      <trkpt lat="48.86318" lon="2.23763">
        <ele>66.7</ele>
        <time>2013-02-18T20:59:02.000Z</time>
      </trkpt>
      <trkpt lat="48.86313" lon="2.23767">
        <ele>66.7</ele>
        <time>2013-02-18T20:59:03.000Z</time>
      </trkpt>
      <trkpt lat="48.86307" lon="2.23771">
        <ele>66.9</ele>
        <time>2013-02-18T20:59:04.000Z</time>
      </trkpt>
      <trkpt lat="48.86301" lon="2.23776">
        <ele>66.3</ele>
        <time>2013-02-18T20:59:05.000Z</time>
      </trkpt>
      <trkpt lat="48.86296" lon="2.23779">
        <ele>66.6</ele>
        <time>2013-02-18T20:59:06.000Z</time>
      </trkpt>
      <trkpt lat="48.86291" lon="2.23783">
        <ele>66.3</ele>
        <time>2013-02-18T20:59:07.000Z</time>
      </trkpt>
      <trkpt lat="48.86287" lon="2.23785">
        <ele>67</ele>
        <time>2013-02-18T20:59:08.000Z</time>
      </trkpt>
      <trkpt lat="48.86283" lon="2.23786">
        <ele>66.8</ele>
        <time>2013-02-18T20:59:09.000Z</time>
      </trkpt>
      <trkpt lat="48.86279" lon="2.2379">
        <ele>66.8</ele>
        <time>2013-02-18T20:59:10.000Z</time>
      </trkpt>
      <trkpt lat="48.86273" lon="2.23795">
        <ele>67.2</ele>
        <time>2013-02-18T20:59:11.000Z</time>
      </trkpt>
      <trkpt lat="48.86269" lon="2.23799">
        <ele>67.5</ele>
        <time>2013-02-18T20:59:12.000Z</time>
      </trkpt>
      <trkpt lat="48.86265" lon="2.23801">
        <ele>67.6</ele>
        <time>2013-02-18T20:59:13.000Z</time>
      </trkpt>
      <trkpt lat="48.86261" lon="2.23804">
        <ele>67.6</ele>
        <time>2013-02-18T20:59:14.000Z</time>
      </trkpt>
      <trkpt lat="48.86256" lon="2.23809">
        <ele>68.5</ele>
        <time>2013-02-18T20:59:15.000Z</time>
      </trkpt>
      <trkpt lat="48.86251" lon="2.23813">
        <ele>69.5</ele>
        <time>2013-02-18T20:59:16.000Z</time>
      </trkpt>
      <trkpt lat="48.86246" lon="2.23818">
        <ele>70.2</ele>
        <time>2013-02-18T20:59:17.000Z</time>
      </trkpt>
      <trkpt lat="48.86242" lon="2.2382">
        <ele>70</ele>
        <time>2013-02-18T20:59:18.000Z</time>
      </trkpt>
      <trkpt lat="48.86238" lon="2.23823">
        <ele>70.5</ele>
        <time>2013-02-18T20:59:19.000Z</time>
      </trkpt>
      <trkpt lat="48.86234" lon="2.23826">
        <ele>70.9</ele>
        <time>2013-02-18T20:59:20.000Z</time>
      </trkpt>
      <trkpt lat="48.86231" lon="2.2383">
        <ele>70.4</ele>
        <time>2013-02-18T20:59:21.000Z</time>
      </trkpt>
      <trkpt lat="48.86227" lon="2.23835">
        <ele>70.6</ele>
        <time>2013-02-18T20:59:22.000Z</time>
      </trkpt>
      <trkpt lat="48.86219" lon="2.23843">
        <ele>70.7</ele>
        <time>2013-02-18T20:59:23.978Z</time>
      </trkpt>
      <trkpt lat="48.86218" lon="2.23848">
        <ele>70.4</ele>
        <time>2013-02-18T20:59:25.000Z</time>
      </trkpt>
      <trkpt lat="48.86215" lon="2.23853">
        <ele>69.5</ele>
        <time>2013-02-18T20:59:26.000Z</time>
      </trkpt>
      <trkpt lat="48.86212" lon="2.23858">
        <ele>70.9</ele>
        <time>2013-02-18T20:59:27.000Z</time>
      </trkpt>
      <trkpt lat="48.86209" lon="2.23862">
        <ele>70.9</ele>
        <time>2013-02-18T20:59:28.000Z</time>
      </trkpt>
      <trkpt lat="48.86205" lon="2.23867">
        <ele>71.4</ele>
        <time>2013-02-18T20:59:29.000Z</time>
      </trkpt>
      <trkpt lat="48.86203" lon="2.2387">
        <ele>71.2</ele>
        <time>2013-02-18T20:59:30.000Z</time>
      </trkpt>
      <trkpt lat="48.862" lon="2.23871">
        <ele>71.6</ele>
        <time>2013-02-18T20:59:31.000Z</time>
      </trkpt>
      <trkpt lat="48.86197" lon="2.23872">
        <ele>71.6</ele>
        <time>2013-02-18T20:59:32.000Z</time>
      </trkpt>
      <trkpt lat="48.86195" lon="2.23875">
        <ele>72.6</ele>
        <time>2013-02-18T20:59:33.000Z</time>
      </trkpt>
      <trkpt lat="48.86192" lon="2.23877">
        <ele>72.9</ele>
        <time>2013-02-18T20:59:34.000Z</time>
      </trkpt>
      <trkpt lat="48.8619" lon="2.23881">
        <ele>73.9</ele>
        <time>2013-02-18T20:59:35.000Z</time>
      </trkpt>
      <trkpt lat="48.86188" lon="2.23883">
        <ele>74.1</ele>
        <time>2013-02-18T20:59:36.000Z</time>
      </trkpt>
      <trkpt lat="48.86185" lon="2.23886">
        <ele>73.9</ele>
        <time>2013-02-18T20:59:37.000Z</time>
      </trkpt>
      <trkpt lat="48.86182" lon="2.2389">
        <ele>74.7</ele>
        <time>2013-02-18T20:59:38.000Z</time>
      </trkpt>
      <trkpt lat="48.8618" lon="2.23893">
        <ele>75.1</ele>
        <time>2013-02-18T20:59:39.000Z</time>
      </trkpt>
      <trkpt lat="48.86177" lon="2.23897">
        <ele>75.5</ele>
        <time>2013-02-18T20:59:40.000Z</time>
      </trkpt>
      <trkpt lat="48.86174" lon="2.239">
        <ele>75.9</ele>
        <time>2013-02-18T20:59:41.000Z</time>
      </trkpt>
      <trkpt lat="48.86171" lon="2.23903">
        <ele>75.1</ele>
        <time>2013-02-18T20:59:42.000Z</time>
      </trkpt>
      <trkpt lat="48.86169" lon="2.23907">
        <ele>74.7</ele>
        <time>2013-02-18T20:59:43.000Z</time>
      </trkpt>
      <trkpt lat="48.86166" lon="2.2391">
        <ele>74.7</ele>
        <time>2013-02-18T20:59:44.000Z</time>
      </trkpt>
      <trkpt lat="48.86163" lon="2.23913">
        <ele>74.2</ele>
        <time>2013-02-18T20:59:45.000Z</time>
      </trkpt>
      <trkpt lat="48.86161" lon="2.23916">
        <ele>74</ele>
        <time>2013-02-18T20:59:46.000Z</time>
      </trkpt>
      <trkpt lat="48.86158" lon="2.23918">
        <ele>73.4</ele>
        <time>2013-02-18T20:59:47.000Z</time>
      </trkpt>
      <trkpt lat="48.86156" lon="2.2392">
        <ele>73.2</ele>
        <time>2013-02-18T20:59:48.000Z</time>
      </trkpt>
      <trkpt lat="48.86154" lon="2.23923">
        <ele>73</ele>
        <time>2013-02-18T20:59:49.000Z</time>
      </trkpt>
      <trkpt lat="48.86152" lon="2.23924">
        <ele>72.9</ele>
        <time>2013-02-18T20:59:50.000Z</time>
      </trkpt>
      <trkpt lat="48.86149" lon="2.23928">
        <ele>75.2</ele>
        <time>2013-02-18T20:59:51.000Z</time>
      </trkpt>
      <trkpt lat="48.86147" lon="2.2393">
        <ele>75.4</ele>
        <time>2013-02-18T20:59:52.000Z</time>
      </trkpt>
      <trkpt lat="48.86144" lon="2.23933">
        <ele>76.8</ele>
        <time>2013-02-18T20:59:53.000Z</time>
      </trkpt>
      <trkpt lat="48.86142" lon="2.23936">
        <ele>77.3</ele>
        <time>2013-02-18T20:59:54.000Z</time>
      </trkpt>
      <trkpt lat="48.8614" lon="2.2394">
        <ele>77.3</ele>
        <time>2013-02-18T20:59:55.000Z</time>
      </trkpt>
      <trkpt lat="48.86138" lon="2.23943">
        <ele>78</ele>
        <time>2013-02-18T20:59:56.000Z</time>
      </trkpt>
      <trkpt lat="48.86136" lon="2.23947">
        <ele>78.5</ele>
        <time>2013-02-18T20:59:57.000Z</time>
      </trkpt>
      <trkpt lat="48.86134" lon="2.2395">
        <ele>79.7</ele>
        <time>2013-02-18T20:59:58.000Z</time>
      </trkpt>
      <trkpt lat="48.86132" lon="2.23952">
        <ele>79.4</ele>
        <time>2013-02-18T20:59:59.000Z</time>
      </trkpt>
      <trkpt lat="48.8613" lon="2.23955">
        <ele>80</ele>
        <time>2013-02-18T21:00:00.000Z</time>
      </trkpt>
      <trkpt lat="48.86129" lon="2.23958">
        <ele>80.5</ele>
        <time>2013-02-18T21:00:01.000Z</time>
      </trkpt>
      <trkpt lat="48.86127" lon="2.23961">
        <ele>80</ele>
        <time>2013-02-18T21:00:02.000Z</time>
      </trkpt>
      <trkpt lat="48.86125" lon="2.23964">
        <ele>80.8</ele>
        <time>2013-02-18T21:00:03.000Z</time>
      </trkpt>
      <trkpt lat="48.86122" lon="2.23967">
        <ele>81.1</ele>
        <time>2013-02-18T21:00:04.000Z</time>
      </trkpt>
      <trkpt lat="48.8612" lon="2.23969">
        <ele>81.1</ele>
        <time>2013-02-18T21:00:05.000Z</time>
      </trkpt>
      <trkpt lat="48.86117" lon="2.23972">
        <ele>80.3</ele>
        <time>2013-02-18T21:00:06.000Z</time>
      </trkpt>
      <trkpt lat="48.86115" lon="2.23974">
        <ele>79.6</ele>
        <time>2013-02-18T21:00:07.000Z</time>
      </trkpt>
      <trkpt lat="48.86113" lon="2.23977">
        <ele>78.1</ele>
        <time>2013-02-18T21:00:08.000Z</time>
      </trkpt>
      <trkpt lat="48.86111" lon="2.23981">
        <ele>77.8</ele>
        <time>2013-02-18T21:00:09.000Z</time>
      </trkpt>
      <trkpt lat="48.86108" lon="2.23984">
        <ele>75.8</ele>
        <time>2013-02-18T21:00:10.000Z</time>
      </trkpt>
      <trkpt lat="48.86106" lon="2.23986">
        <ele>74.7</ele>
        <time>2013-02-18T21:00:11.000Z</time>
      </trkpt>
      <trkpt lat="48.86103" lon="2.23991">
        <ele>74.9</ele>
        <time>2013-02-18T21:00:12.000Z</time>
      </trkpt>
      <trkpt lat="48.861" lon="2.23996">
        <ele>74.1</ele>
        <time>2013-02-18T21:00:13.000Z</time>
      </trkpt>
      <trkpt lat="48.86097" lon="2.24001">
        <ele>73.4</ele>
        <time>2013-02-18T21:00:14.000Z</time>
      </trkpt>
      <trkpt lat="48.86094" lon="2.24006">
        <ele>73.8</ele>
        <time>2013-02-18T21:00:15.000Z</time>
      </trkpt>
      <trkpt lat="48.86092" lon="2.2401">
        <ele>74</ele>
        <time>2013-02-18T21:00:16.000Z</time>
      </trkpt>
      <trkpt lat="48.86087" lon="2.24017">
        <ele>74.1</ele>
        <time>2013-02-18T21:00:17.000Z</time>
      </trkpt>
      <trkpt lat="48.86085" lon="2.24021">
        <ele>74.6</ele>
        <time>2013-02-18T21:00:18.000Z</time>
      </trkpt>
      <trkpt lat="48.86081" lon="2.24028">
        <ele>74.8</ele>
        <time>2013-02-18T21:00:19.000Z</time>
      </trkpt>
      <trkpt lat="48.86078" lon="2.24031">
        <ele>75</ele>
        <time>2013-02-18T21:00:20.000Z</time>
      </trkpt>
      <trkpt lat="48.86074" lon="2.24038">
        <ele>75.6</ele>
        <time>2013-02-18T21:00:21.000Z</time>
      </trkpt>
      <trkpt lat="48.86071" lon="2.24043">
        <ele>75.2</ele>
        <time>2013-02-18T21:00:22.000Z</time>
      </trkpt>
      <trkpt lat="48.86067" lon="2.2405">
        <ele>75.2</ele>
        <time>2013-02-18T21:00:23.700Z</time>
      </trkpt>
      <trkpt lat="48.86063" lon="2.24054">
        <ele>73.2</ele>
        <time>2013-02-18T21:00:25.000Z</time>
      </trkpt>
      <trkpt lat="48.8606" lon="2.24057">
        <ele>72.5</ele>
        <time>2013-02-18T21:00:26.000Z</time>
      </trkpt>
      <trkpt lat="48.86058" lon="2.24058">
        <ele>71.7</ele>
        <time>2013-02-18T21:00:27.000Z</time>
      </trkpt>
      <trkpt lat="48.86055" lon="2.24061">
        <ele>70.9</ele>
        <time>2013-02-18T21:00:28.000Z</time>
      </trkpt>
      <trkpt lat="48.86053" lon="2.24063">
        <ele>69.8</ele>
        <time>2013-02-18T21:00:29.000Z</time>
      </trkpt>
      <trkpt lat="48.8605" lon="2.2407">
        <ele>70.5</ele>
        <time>2013-02-18T21:00:30.000Z</time>
      </trkpt>
      <trkpt lat="48.86047" lon="2.24076">
        <ele>71.2</ele>
        <time>2013-02-18T21:00:31.000Z</time>
      </trkpt>
      <trkpt lat="48.86044" lon="2.24081">
        <ele>71.2</ele>
        <time>2013-02-18T21:00:32.000Z</time>
      </trkpt>
      <trkpt lat="48.8604" lon="2.24089">
        <ele>72.4</ele>
        <time>2013-02-18T21:00:33.000Z</time>
      </trkpt>
      <trkpt lat="48.86037" lon="2.24094">
        <ele>72.6</ele>
        <time>2013-02-18T21:00:34.000Z</time>
      </trkpt>
      <trkpt lat="48.86032" lon="2.24101">
        <ele>72.5</ele>
        <time>2013-02-18T21:00:35.000Z</time>
      </trkpt>
      <trkpt lat="48.86029" lon="2.24105">
        <ele>72.2</ele>
        <time>2013-02-18T21:00:36.000Z</time>
      </trkpt>
      <trkpt lat="48.86022" lon="2.24123">
        <ele>73.4</ele>
        <time>2013-02-18T21:00:37.000Z</time>
      </trkpt>
      <trkpt lat="48.86019" lon="2.24127">
        <ele>73.6</ele>
        <time>2013-02-18T21:00:38.000Z</time>
      </trkpt>
      <trkpt lat="48.86015" lon="2.24135">
        <ele>74.9</ele>
        <time>2013-02-18T21:00:39.000Z</time>
      </trkpt>
      <trkpt lat="48.86012" lon="2.2414">
        <ele>74.7</ele>
        <time>2013-02-18T21:00:40.000Z</time>
      </trkpt>
      <trkpt lat="48.86009" lon="2.24148">
        <ele>75.1</ele>
        <time>2013-02-18T21:00:41.000Z</time>
      </trkpt>
      <trkpt lat="48.86005" lon="2.24153">
        <ele>75.5</ele>
        <time>2013-02-18T21:00:42.000Z</time>
      </trkpt>
      <trkpt lat="48.86003" lon="2.24158">
        <ele>75.5</ele>
        <time>2013-02-18T21:00:43.000Z</time>
      </trkpt>
      <trkpt lat="48.86" lon="2.24163">
        <ele>75.7</ele>
        <time>2013-02-18T21:00:44.000Z</time>
      </trkpt>
      <trkpt lat="48.85998" lon="2.24168">
        <ele>76.3</ele>
        <time>2013-02-18T21:00:45.000Z</time>
      </trkpt>
      <trkpt lat="48.85994" lon="2.24174">
        <ele>76.4</ele>
        <time>2013-02-18T21:00:46.000Z</time>
      </trkpt>
      <trkpt lat="48.85991" lon="2.24179">
        <ele>77</ele>
        <time>2013-02-18T21:00:47.000Z</time>
      </trkpt>
      <trkpt lat="48.85988" lon="2.24184">
        <ele>77.2</ele>
        <time>2013-02-18T21:00:48.000Z</time>
      </trkpt>
      <trkpt lat="48.85986" lon="2.24189">
        <ele>77.4</ele>
        <time>2013-02-18T21:00:49.000Z</time>
      </trkpt>
      <trkpt lat="48.85983" lon="2.24193">
        <ele>77.6</ele>
        <time>2013-02-18T21:00:50.000Z</time>
      </trkpt>
      <trkpt lat="48.8598" lon="2.24199">
        <ele>78.3</ele>
        <time>2013-02-18T21:00:51.000Z</time>
      </trkpt>
      <trkpt lat="48.85978" lon="2.24203">
        <ele>78.6</ele>
        <time>2013-02-18T21:00:52.000Z</time>
      </trkpt>
      <trkpt lat="48.85975" lon="2.24212">
        <ele>79.4</ele>
        <time>2013-02-18T21:00:53.000Z</time>
      </trkpt>
      <trkpt lat="48.85972" lon="2.24217">
        <ele>79.5</ele>
        <time>2013-02-18T21:00:54.000Z</time>
      </trkpt>
      <trkpt lat="48.85969" lon="2.24224">
        <ele>80.9</ele>
        <time>2013-02-18T21:00:55.000Z</time>
      </trkpt>
      <trkpt lat="48.85966" lon="2.24229">
        <ele>81.1</ele>
        <time>2013-02-18T21:00:56.000Z</time>
      </trkpt>
      <trkpt lat="48.85963" lon="2.24237">
        <ele>82.9</ele>
        <time>2013-02-18T21:00:57.000Z</time>
      </trkpt>
      <trkpt lat="48.85959" lon="2.24243">
        <ele>83.4</ele>
        <time>2013-02-18T21:00:58.000Z</time>
      </trkpt>
      <trkpt lat="48.85956" lon="2.24247">
        <ele>84</ele>
        <time>2013-02-18T21:00:59.000Z</time>
      </trkpt>
      <trkpt lat="48.85954" lon="2.24252">
        <ele>83.3</ele>
        <time>2013-02-18T21:01:00.000Z</time>
      </trkpt>
      <trkpt lat="48.85951" lon="2.24256">
        <ele>83.3</ele>
        <time>2013-02-18T21:01:01.000Z</time>
      </trkpt>
      <trkpt lat="48.85948" lon="2.24261">
        <ele>83.2</ele>
        <time>2013-02-18T21:01:02.000Z</time>
      </trkpt>
      <trkpt lat="48.85945" lon="2.24266">
        <ele>82.3</ele>
        <time>2013-02-18T21:01:03.000Z</time>
      </trkpt>
      <trkpt lat="48.85942" lon="2.2427">
        <ele>81.9</ele>
        <time>2013-02-18T21:01:04.000Z</time>
      </trkpt>
      <trkpt lat="48.85939" lon="2.24276">
        <ele>83.2</ele>
        <time>2013-02-18T21:01:05.000Z</time>
      </trkpt>
      <trkpt lat="48.85937" lon="2.24279">
        <ele>83.2</ele>
        <time>2013-02-18T21:01:06.000Z</time>
      </trkpt>
      <trkpt lat="48.85934" lon="2.24285">
        <ele>84.5</ele>
        <time>2013-02-18T21:01:07.000Z</time>
      </trkpt>
      <trkpt lat="48.85931" lon="2.24289">
        <ele>84.8</ele>
        <time>2013-02-18T21:01:08.000Z</time>
      </trkpt>
      <trkpt lat="48.85929" lon="2.24296">
        <ele>82.8</ele>
        <time>2013-02-18T21:01:09.000Z</time>
      </trkpt>
      <trkpt lat="48.85926" lon="2.243">
        <ele>82.4</ele>
        <time>2013-02-18T21:01:10.000Z</time>
      </trkpt>
      <trkpt lat="48.85923" lon="2.24306">
        <ele>83.8</ele>
        <time>2013-02-18T21:01:11.000Z</time>
      </trkpt>
      <trkpt lat="48.85921" lon="2.2431">
        <ele>84.1</ele>
        <time>2013-02-18T21:01:12.000Z</time>
      </trkpt>
      <trkpt lat="48.85918" lon="2.24318">
        <ele>82.9</ele>
        <time>2013-02-18T21:01:13.000Z</time>
      </trkpt>
      <trkpt lat="48.85914" lon="2.24324">
        <ele>82.9</ele>
        <time>2013-02-18T21:01:14.000Z</time>
      </trkpt>
      <trkpt lat="48.85911" lon="2.24331">
        <ele>82.3</ele>
        <time>2013-02-18T21:01:15.000Z</time>
      </trkpt>
      <trkpt lat="48.85908" lon="2.24337">
        <ele>81.6</ele>
        <time>2013-02-18T21:01:16.000Z</time>
      </trkpt>
      <trkpt lat="48.85905" lon="2.24342">
        <ele>78.8</ele>
        <time>2013-02-18T21:01:17.000Z</time>
      </trkpt>
      <trkpt lat="48.85903" lon="2.24347">
        <ele>77.8</ele>
        <time>2013-02-18T21:01:18.000Z</time>
      </trkpt>
      <trkpt lat="48.859" lon="2.24351">
        <ele>76.8</ele>
        <time>2013-02-18T21:01:19.000Z</time>
      </trkpt>
      <trkpt lat="48.85898" lon="2.24356">
        <ele>76.3</ele>
        <time>2013-02-18T21:01:20.000Z</time>
      </trkpt>
      <trkpt lat="48.85895" lon="2.24361">
        <ele>75.3</ele>
        <time>2013-02-18T21:01:21.000Z</time>
      </trkpt>
      <trkpt lat="48.85893" lon="2.24365">
        <ele>74.8</ele>
        <time>2013-02-18T21:01:22.000Z</time>
      </trkpt>
      <trkpt lat="48.85887" lon="2.24379">
        <ele>72.5</ele>
        <time>2013-02-18T21:01:25.000Z</time>
      </trkpt>
      <trkpt lat="48.85884" lon="2.24384">
        <ele>73.3</ele>
        <time>2013-02-18T21:01:26.000Z</time>
      </trkpt>
      <trkpt lat="48.85882" lon="2.24389">
        <ele>73.8</ele>
        <time>2013-02-18T21:01:27.000Z</time>
      </trkpt>
      <trkpt lat="48.85879" lon="2.24394">
        <ele>74</ele>
        <time>2013-02-18T21:01:28.000Z</time>
      </trkpt>
      <trkpt lat="48.85877" lon="2.244">
        <ele>74.3</ele>
        <time>2013-02-18T21:01:29.000Z</time>
      </trkpt>
      <trkpt lat="48.85874" lon="2.24405">
        <ele>74.9</ele>
        <time>2013-02-18T21:01:30.000Z</time>
      </trkpt>
      <trkpt lat="48.85872" lon="2.24409">
        <ele>73.8</ele>
        <time>2013-02-18T21:01:31.000Z</time>
      </trkpt>
      <trkpt lat="48.8587" lon="2.24413">
        <ele>73.7</ele>
        <time>2013-02-18T21:01:32.000Z</time>
      </trkpt>
      <trkpt lat="48.85868" lon="2.24417">
        <ele>73.9</ele>
        <time>2013-02-18T21:01:33.000Z</time>
      </trkpt>
      <trkpt lat="48.85867" lon="2.24421">
        <ele>73.9</ele>
        <time>2013-02-18T21:01:34.000Z</time>
      </trkpt>
      <trkpt lat="48.85866" lon="2.24424">
        <ele>74</ele>
        <time>2013-02-18T21:01:35.000Z</time>
      </trkpt>
      <trkpt lat="48.85864" lon="2.2443">
        <ele>75.4</ele>
        <time>2013-02-18T21:01:37.000Z</time>
      </trkpt>
      <trkpt lat="48.85863" lon="2.24433">
        <ele>75.2</ele>
        <time>2013-02-18T21:01:38.000Z</time>
      </trkpt>
      <trkpt lat="48.85862" lon="2.24439">
        <ele>77.1</ele>
        <time>2013-02-18T21:01:40.000Z</time>
      </trkpt>
      <trkpt lat="48.85861" lon="2.24442">
        <ele>77.6</ele>
        <time>2013-02-18T21:01:41.000Z</time>
      </trkpt>
      <trkpt lat="48.85859" lon="2.24448">
        <ele>78.8</ele>
        <time>2013-02-18T21:01:43.000Z</time>
      </trkpt>
      <trkpt lat="48.85858" lon="2.2445">
        <ele>78.8</ele>
        <time>2013-02-18T21:01:44.000Z</time>
      </trkpt>
      <trkpt lat="48.85859" lon="2.24455">
        <ele>81.6</ele>
        <time>2013-02-18T21:01:47.000Z</time>
      </trkpt>
      <trkpt lat="48.85859" lon="2.24458">
        <ele>82.2</ele>
        <time>2013-02-18T21:01:48.000Z</time>
      </trkpt>
      <trkpt lat="48.85861" lon="2.24463">
        <ele>82.1</ele>
        <time>2013-02-18T21:01:54.000Z</time>
      </trkpt>
      <trkpt lat="48.85861" lon="2.24464">
        <ele>83.4</ele>
        <time>2013-02-18T21:01:55.000Z</time>
      </trkpt>
      <trkpt lat="48.85862" lon="2.2447">
        <ele>86.6</ele>
        <time>2013-02-18T21:03:06.000Z</time>
      </trkpt>
      <trkpt lat="48.85861" lon="2.24472">
        <ele>85.2</ele>
        <time>2013-02-18T21:03:07.000Z</time>
      </trkpt>
      <trkpt lat="48.85859" lon="2.24477">
        <ele>85.5</ele>
        <time>2013-02-18T21:03:09.000Z</time>
      </trkpt>
      <trkpt lat="48.85858" lon="2.24479">
        <ele>85.4</ele>
        <time>2013-02-18T21:03:10.000Z</time>
      </trkpt>
      <trkpt lat="48.85857" lon="2.24483">
        <ele>86.2</ele>
        <time>2013-02-18T21:03:11.000Z</time>
      </trkpt>
      <trkpt lat="48.85855" lon="2.24487">
        <ele>86.1</ele>
        <time>2013-02-18T21:03:12.000Z</time>
      </trkpt>
      <trkpt lat="48.85854" lon="2.24491">
        <ele>85.7</ele>
        <time>2013-02-18T21:03:13.000Z</time>
      </trkpt>
      <trkpt lat="48.85853" lon="2.24496">
        <ele>85.4</ele>
        <time>2013-02-18T21:03:14.000Z</time>
      </trkpt>
      <trkpt lat="48.85851" lon="2.245">
        <ele>85.4</ele>
        <time>2013-02-18T21:03:15.000Z</time>
      </trkpt>
      <trkpt lat="48.8585" lon="2.24505">
        <ele>86.3</ele>
        <time>2013-02-18T21:03:16.000Z</time>
      </trkpt>
      <trkpt lat="48.85848" lon="2.24509">
        <ele>86.5</ele>
        <time>2013-02-18T21:03:17.000Z</time>
      </trkpt>
      <trkpt lat="48.85846" lon="2.24514">
        <ele>86.1</ele>
        <time>2013-02-18T21:03:18.000Z</time>
      </trkpt>
      <trkpt lat="48.85845" lon="2.24519">
        <ele>86.6</ele>
        <time>2013-02-18T21:03:19.000Z</time>
      </trkpt>
      <trkpt lat="48.85843" lon="2.24524">
        <ele>86.6</ele>
        <time>2013-02-18T21:03:20.000Z</time>
      </trkpt>
      <trkpt lat="48.85842" lon="2.2453">
        <ele>87.7</ele>
        <time>2013-02-18T21:03:21.000Z</time>
      </trkpt>
      <trkpt lat="48.85841" lon="2.24535">
        <ele>88.5</ele>
        <time>2013-02-18T21:03:22.000Z</time>
      </trkpt>
      <trkpt lat="48.85838" lon="2.24545">
        <ele>88.5</ele>
        <time>2013-02-18T21:03:23.991Z</time>
      </trkpt>
      <trkpt lat="48.85837" lon="2.2455">
        <ele>86.6</ele>
        <time>2013-02-18T21:03:25.000Z</time>
      </trkpt>
      <trkpt lat="48.85836" lon="2.24555">
        <ele>84.3</ele>
        <time>2013-02-18T21:03:26.000Z</time>
      </trkpt>
      <trkpt lat="48.85834" lon="2.2456">
        <ele>83.4</ele>
        <time>2013-02-18T21:03:27.000Z</time>
      </trkpt>
      <trkpt lat="48.85832" lon="2.24564">
        <ele>81.8</ele>
        <time>2013-02-18T21:03:28.000Z</time>
      </trkpt>
      <trkpt lat="48.8583" lon="2.24569">
        <ele>80.1</ele>
        <time>2013-02-18T21:03:29.000Z</time>
      </trkpt>
      <trkpt lat="48.85828" lon="2.24575">
        <ele>83.7</ele>
        <time>2013-02-18T21:03:30.000Z</time>
      </trkpt>
      <trkpt lat="48.85825" lon="2.24582">
        <ele>82.1</ele>
        <time>2013-02-18T21:03:31.000Z</time>
      </trkpt>
      <trkpt lat="48.85823" lon="2.24589">
        <ele>80.1</ele>
        <time>2013-02-18T21:03:32.000Z</time>
      </trkpt>
      <trkpt lat="48.85819" lon="2.246">
        <ele>79.8</ele>
        <time>2013-02-18T21:03:33.000Z</time>
      </trkpt>
      <trkpt lat="48.85818" lon="2.24608">
        <ele>80.5</ele>
        <time>2013-02-18T21:03:34.000Z</time>
      </trkpt>
      <trkpt lat="48.85817" lon="2.24616">
        <ele>81</ele>
        <time>2013-02-18T21:03:35.000Z</time>
      </trkpt>
      <trkpt lat="48.85816" lon="2.24622">
        <ele>81.1</ele>
        <time>2013-02-18T21:03:36.000Z</time>
      </trkpt>
      <trkpt lat="48.85815" lon="2.24631">
        <ele>81.5</ele>
        <time>2013-02-18T21:03:37.000Z</time>
      </trkpt>
      <trkpt lat="48.85814" lon="2.24641">
        <ele>83.7</ele>
        <time>2013-02-18T21:03:38.000Z</time>
      </trkpt>
      <trkpt lat="48.85813" lon="2.2465">
        <ele>83.9</ele>
        <time>2013-02-18T21:03:39.000Z</time>
      </trkpt>
      <trkpt lat="48.85812" lon="2.24658">
        <ele>83.3</ele>
        <time>2013-02-18T21:03:40.000Z</time>
      </trkpt>
      <trkpt lat="48.8581" lon="2.24665">
        <ele>82.5</ele>
        <time>2013-02-18T21:03:41.000Z</time>
      </trkpt>
      <trkpt lat="48.85807" lon="2.24672">
        <ele>81.5</ele>
        <time>2013-02-18T21:03:42.000Z</time>
      </trkpt>
      <trkpt lat="48.85805" lon="2.2468">
        <ele>80.8</ele>
        <time>2013-02-18T21:03:43.000Z</time>
      </trkpt>
      <trkpt lat="48.85805" lon="2.24689">
        <ele>81.7</ele>
        <time>2013-02-18T21:03:44.000Z</time>
      </trkpt>
      <trkpt lat="48.85803" lon="2.24697">
        <ele>82</ele>
        <time>2013-02-18T21:03:45.000Z</time>
      </trkpt>
      <trkpt lat="48.85801" lon="2.24705">
        <ele>81.9</ele>
        <time>2013-02-18T21:03:46.000Z</time>
      </trkpt>
      <trkpt lat="48.858" lon="2.24713">
        <ele>81.9</ele>
        <time>2013-02-18T21:03:47.000Z</time>
      </trkpt>
      <trkpt lat="48.858" lon="2.2472">
        <ele>82.3</ele>
        <time>2013-02-18T21:03:48.000Z</time>
      </trkpt>
      <trkpt lat="48.85798" lon="2.24728">
        <ele>82.3</ele>
        <time>2013-02-18T21:03:49.000Z</time>
      </trkpt>
      <trkpt lat="48.85797" lon="2.24735">
        <ele>82.1</ele>
        <time>2013-02-18T21:03:50.000Z</time>
      </trkpt>
      <trkpt lat="48.85795" lon="2.24744">
        <ele>81.6</ele>
        <time>2013-02-18T21:03:51.000Z</time>
      </trkpt>
      <trkpt lat="48.85794" lon="2.24751">
        <ele>82.3</ele>
        <time>2013-02-18T21:03:52.000Z</time>
      </trkpt>
      <trkpt lat="48.85793" lon="2.24758">
        <ele>81.1</ele>
        <time>2013-02-18T21:03:53.000Z</time>
      </trkpt>
      <trkpt lat="48.85792" lon="2.24767">
        <ele>81.4</ele>
        <time>2013-02-18T21:03:54.000Z</time>
      </trkpt>
      <trkpt lat="48.85791" lon="2.24774">
        <ele>80.9</ele>
        <time>2013-02-18T21:03:55.000Z</time>
      </trkpt>
      <trkpt lat="48.8579" lon="2.24783">
        <ele>81.4</ele>
        <time>2013-02-18T21:03:56.000Z</time>
      </trkpt>
      <trkpt lat="48.85789" lon="2.2479">
        <ele>81.2</ele>
        <time>2013-02-18T21:03:57.000Z</time>
      </trkpt>
      <trkpt lat="48.85789" lon="2.24797">
        <ele>81.1</ele>
        <time>2013-02-18T21:03:58.000Z</time>
      </trkpt>
      <trkpt lat="48.85789" lon="2.24805">
        <ele>81.4</ele>
        <time>2013-02-18T21:03:59.000Z</time>
      </trkpt>
      <trkpt lat="48.85788" lon="2.24812">
        <ele>81.9</ele>
        <time>2013-02-18T21:04:00.000Z</time>
      </trkpt>
      <trkpt lat="48.85787" lon="2.24821">
        <ele>82.3</ele>
        <time>2013-02-18T21:04:01.000Z</time>
      </trkpt>
      <trkpt lat="48.85786" lon="2.24829">
        <ele>81.9</ele>
        <time>2013-02-18T21:04:02.000Z</time>
      </trkpt>
      <trkpt lat="48.85786" lon="2.24838">
        <ele>81.4</ele>
        <time>2013-02-18T21:04:03.000Z</time>
      </trkpt>
      <trkpt lat="48.85785" lon="2.24847">
        <ele>81.7</ele>
        <time>2013-02-18T21:04:04.000Z</time>
      </trkpt>
      <trkpt lat="48.85785" lon="2.24855">
        <ele>82.1</ele>
        <time>2013-02-18T21:04:05.000Z</time>
      </trkpt>
      <trkpt lat="48.85785" lon="2.24864">
        <ele>83.1</ele>
        <time>2013-02-18T21:04:06.000Z</time>
      </trkpt>
      <trkpt lat="48.85785" lon="2.24872">
        <ele>84</ele>
        <time>2013-02-18T21:04:07.000Z</time>
      </trkpt>
      <trkpt lat="48.85785" lon="2.24881">
        <ele>84.3</ele>
        <time>2013-02-18T21:04:08.000Z</time>
      </trkpt>
      <trkpt lat="48.85784" lon="2.24888">
        <ele>84.5</ele>
        <time>2013-02-18T21:04:09.000Z</time>
      </trkpt>
      <trkpt lat="48.85783" lon="2.24898">
        <ele>85.5</ele>
        <time>2013-02-18T21:04:10.000Z</time>
      </trkpt>
      <trkpt lat="48.85782" lon="2.24906">
        <ele>85.7</ele>
        <time>2013-02-18T21:04:11.000Z</time>
      </trkpt>
      <trkpt lat="48.85783" lon="2.24914">
        <ele>86.7</ele>
        <time>2013-02-18T21:04:12.000Z</time>
      </trkpt>
      <trkpt lat="48.85783" lon="2.24922">
        <ele>87</ele>
        <time>2013-02-18T21:04:13.000Z</time>
      </trkpt>
      <trkpt lat="48.85783" lon="2.24931">
        <ele>87.5</ele>
        <time>2013-02-18T21:04:14.000Z</time>
      </trkpt>
      <trkpt lat="48.85783" lon="2.2494">
        <ele>87.4</ele>
        <time>2013-02-18T21:04:15.000Z</time>
      </trkpt>
      <trkpt lat="48.85782" lon="2.24947">
        <ele>87.2</ele>
        <time>2013-02-18T21:04:16.000Z</time>
      </trkpt>
      <trkpt lat="48.85781" lon="2.24955">
        <ele>87.2</ele>
        <time>2013-02-18T21:04:17.000Z</time>
      </trkpt>
      <trkpt lat="48.85781" lon="2.24962">
        <ele>87</ele>
        <time>2013-02-18T21:04:18.000Z</time>
      </trkpt>
      <trkpt lat="48.8578" lon="2.24968">
        <ele>85.8</ele>
        <time>2013-02-18T21:04:19.000Z</time>
      </trkpt>
      <trkpt lat="48.8578" lon="2.24977">
        <ele>86.5</ele>
        <time>2013-02-18T21:04:20.000Z</time>
      </trkpt>
      <trkpt lat="48.8578" lon="2.24985">
        <ele>87.2</ele>
        <time>2013-02-18T21:04:21.000Z</time>
      </trkpt>
      <trkpt lat="48.8578" lon="2.24993">
        <ele>87.3</ele>
        <time>2013-02-18T21:04:22.000Z</time>
      </trkpt>
      <trkpt lat="48.8578" lon="2.25008">
        <ele>87.4</ele>
        <time>2013-02-18T21:04:23.856Z</time>
      </trkpt>
      <trkpt lat="48.8578" lon="2.25012">
        <ele>88.8</ele>
        <time>2013-02-18T21:04:25.000Z</time>
      </trkpt>
      <trkpt lat="48.8578" lon="2.25018">
        <ele>89.8</ele>
        <time>2013-02-18T21:04:26.000Z</time>
      </trkpt>
      <trkpt lat="48.85781" lon="2.25026">
        <ele>90.9</ele>
        <time>2013-02-18T21:04:27.000Z</time>
      </trkpt>
      <trkpt lat="48.85781" lon="2.25033">
        <ele>90.7</ele>
        <time>2013-02-18T21:04:28.000Z</time>
      </trkpt>
      <trkpt lat="48.8578" lon="2.25041">
        <ele>90.2</ele>
        <time>2013-02-18T21:04:29.000Z</time>
      </trkpt>
      <trkpt lat="48.8578" lon="2.25048">
        <ele>89.5</ele>
        <time>2013-02-18T21:04:30.000Z</time>
      </trkpt>
      <trkpt lat="48.85779" lon="2.25055">
        <ele>89.5</ele>
        <time>2013-02-18T21:04:31.000Z</time>
      </trkpt>
      <trkpt lat="48.8578" lon="2.25061">
        <ele>89.2</ele>
        <time>2013-02-18T21:04:32.000Z</time>
      </trkpt>
      <trkpt lat="48.85781" lon="2.25068">
        <ele>89.1</ele>
        <time>2013-02-18T21:04:33.000Z</time>
      </trkpt>
      <trkpt lat="48.8578" lon="2.25077">
        <ele>89.4</ele>
        <time>2013-02-18T21:04:34.000Z</time>
      </trkpt>
      <trkpt lat="48.85781" lon="2.25085">
        <ele>89.8</ele>
        <time>2013-02-18T21:04:35.000Z</time>
      </trkpt>
      <trkpt lat="48.8578" lon="2.25092">
        <ele>88.4</ele>
        <time>2013-02-18T21:04:36.000Z</time>
      </trkpt>
      <trkpt lat="48.85779" lon="2.25098">
        <ele>88.4</ele>
        <time>2013-02-18T21:04:37.000Z</time>
      </trkpt>
      <trkpt lat="48.8578" lon="2.25105">
        <ele>88.2</ele>
        <time>2013-02-18T21:04:38.000Z</time>
      </trkpt>
      <trkpt lat="48.85783" lon="2.25115">
        <ele>88.8</ele>
        <time>2013-02-18T21:04:39.000Z</time>
      </trkpt>
      <trkpt lat="48.85783" lon="2.25123">
        <ele>88.3</ele>
        <time>2013-02-18T21:04:40.000Z</time>
      </trkpt>
      <trkpt lat="48.85783" lon="2.25131">
        <ele>87.7</ele>
        <time>2013-02-18T21:04:41.000Z</time>
      </trkpt>
      <trkpt lat="48.85784" lon="2.25136">
        <ele>87.8</ele>
        <time>2013-02-18T21:04:42.000Z</time>
      </trkpt>
      <trkpt lat="48.85785" lon="2.25143">
        <ele>86.4</ele>
        <time>2013-02-18T21:04:43.000Z</time>
      </trkpt>
      <trkpt lat="48.85785" lon="2.2515">
        <ele>86.3</ele>
        <time>2013-02-18T21:04:44.000Z</time>
      </trkpt>
      <trkpt lat="48.85785" lon="2.25155">
        <ele>84.9</ele>
        <time>2013-02-18T21:04:45.000Z</time>
      </trkpt>
      <trkpt lat="48.85786" lon="2.25162">
        <ele>82.5</ele>
        <time>2013-02-18T21:04:46.000Z</time>
      </trkpt>
      <trkpt lat="48.85786" lon="2.25169">
        <ele>82.6</ele>
        <time>2013-02-18T21:04:47.000Z</time>
      </trkpt>
      <trkpt lat="48.85786" lon="2.25177">
        <ele>83.1</ele>
        <time>2013-02-18T21:04:48.000Z</time>
      </trkpt>
      <trkpt lat="48.85787" lon="2.25184">
        <ele>83</ele>
        <time>2013-02-18T21:04:49.000Z</time>
      </trkpt>
      <trkpt lat="48.85787" lon="2.25193">
        <ele>83.1</ele>
        <time>2013-02-18T21:04:50.000Z</time>
      </trkpt>
      <trkpt lat="48.85787" lon="2.25201">
        <ele>83.1</ele>
        <time>2013-02-18T21:04:51.000Z</time>
      </trkpt>
      <trkpt lat="48.85788" lon="2.25209">
        <ele>82.8</ele>
        <time>2013-02-18T21:04:52.000Z</time>
      </trkpt>
      <trkpt lat="48.85788" lon="2.25217">
        <ele>82.8</ele>
        <time>2013-02-18T21:04:53.000Z</time>
      </trkpt>
      <trkpt lat="48.85789" lon="2.25224">
        <ele>82.7</ele>
        <time>2013-02-18T21:04:54.000Z</time>
      </trkpt>
      <trkpt lat="48.8579" lon="2.25233">
        <ele>82.9</ele>
        <time>2013-02-18T21:04:55.000Z</time>
      </trkpt>
      <trkpt lat="48.8579" lon="2.25242">
        <ele>83.6</ele>
        <time>2013-02-18T21:04:56.000Z</time>
      </trkpt>
      <trkpt lat="48.8579" lon="2.2525">
        <ele>84.2</ele>
        <time>2013-02-18T21:04:57.000Z</time>
      </trkpt>
      <trkpt lat="48.85792" lon="2.25258">
        <ele>83.4</ele>
        <time>2013-02-18T21:04:58.000Z</time>
      </trkpt>
      <trkpt lat="48.85794" lon="2.25265">
        <ele>84.4</ele>
        <time>2013-02-18T21:04:59.000Z</time>
      </trkpt>
      <trkpt lat="48.85795" lon="2.25275">
        <ele>85.1</ele>
        <time>2013-02-18T21:05:00.000Z</time>
      </trkpt>
      <trkpt lat="48.85795" lon="2.25283">
        <ele>85.4</ele>
        <time>2013-02-18T21:05:01.000Z</time>
      </trkpt>
      <trkpt lat="48.85797" lon="2.25293">
        <ele>85.8</ele>
        <time>2013-02-18T21:05:02.000Z</time>
      </trkpt>
      <trkpt lat="48.85797" lon="2.25302">
        <ele>86.4</ele>
        <time>2013-02-18T21:05:03.000Z</time>
      </trkpt>
      <trkpt lat="48.85798" lon="2.25313">
        <ele>87.2</ele>
        <time>2013-02-18T21:05:04.000Z</time>
      </trkpt>
      <trkpt lat="48.85798" lon="2.25322">
        <ele>87.4</ele>
        <time>2013-02-18T21:05:05.000Z</time>
      </trkpt>
      <trkpt lat="48.85798" lon="2.2533">
        <ele>87.4</ele>
        <time>2013-02-18T21:05:06.000Z</time>
      </trkpt>
      <trkpt lat="48.85801" lon="2.25339">
        <ele>87.9</ele>
        <time>2013-02-18T21:05:07.000Z</time>
      </trkpt>
      <trkpt lat="48.85802" lon="2.25347">
        <ele>88.6</ele>
        <time>2013-02-18T21:05:08.000Z</time>
      </trkpt>
      <trkpt lat="48.85803" lon="2.25355">
        <ele>89.2</ele>
        <time>2013-02-18T21:05:09.000Z</time>
      </trkpt>
      <trkpt lat="48.85804" lon="2.25364">
        <ele>89.2</ele>
        <time>2013-02-18T21:05:10.000Z</time>
      </trkpt>
      <trkpt lat="48.85805" lon="2.25371">
        <ele>89.7</ele>
        <time>2013-02-18T21:05:11.000Z</time>
      </trkpt>
      <trkpt lat="48.85805" lon="2.25379">
        <ele>90.4</ele>
        <time>2013-02-18T21:05:12.000Z</time>
      </trkpt>
      <trkpt lat="48.85807" lon="2.25387">
        <ele>91</ele>
        <time>2013-02-18T21:05:13.000Z</time>
      </trkpt>
      <trkpt lat="48.85806" lon="2.25394">
        <ele>90.4</ele>
        <time>2013-02-18T21:05:14.000Z</time>
      </trkpt>
      <trkpt lat="48.85807" lon="2.254">
        <ele>90.3</ele>
        <time>2013-02-18T21:05:15.000Z</time>
      </trkpt>
      <trkpt lat="48.85808" lon="2.25406">
        <ele>90.7</ele>
        <time>2013-02-18T21:05:16.000Z</time>
      </trkpt>
      <trkpt lat="48.85809" lon="2.25415">
        <ele>90.4</ele>
        <time>2013-02-18T21:05:17.000Z</time>
      </trkpt>
      <trkpt lat="48.8581" lon="2.25421">
        <ele>90.4</ele>
        <time>2013-02-18T21:05:18.000Z</time>
      </trkpt>
      <trkpt lat="48.8581" lon="2.2543">
        <ele>90.4</ele>
        <time>2013-02-18T21:05:19.000Z</time>
      </trkpt>
      <trkpt lat="48.8581" lon="2.25437">
        <ele>89.8</ele>
        <time>2013-02-18T21:05:20.000Z</time>
      </trkpt>
      <trkpt lat="48.85811" lon="2.25443">
        <ele>89.4</ele>
        <time>2013-02-18T21:05:21.000Z</time>
      </trkpt>
      <trkpt lat="48.85812" lon="2.2545">
        <ele>89.4</ele>
        <time>2013-02-18T21:05:22.000Z</time>
      </trkpt>
      <trkpt lat="48.85815" lon="2.2547">
        <ele>89.6</ele>
        <time>2013-02-18T21:05:25.000Z</time>
      </trkpt>
      <trkpt lat="48.85817" lon="2.25479">
        <ele>89.3</ele>
        <time>2013-02-18T21:05:26.000Z</time>
      </trkpt>
      <trkpt lat="48.85818" lon="2.25489">
        <ele>89.2</ele>
        <time>2013-02-18T21:05:27.000Z</time>
      </trkpt>
      <trkpt lat="48.85819" lon="2.255">
        <ele>90.3</ele>
        <time>2013-02-18T21:05:28.000Z</time>
      </trkpt>
      <trkpt lat="48.85819" lon="2.25508">
        <ele>90.4</ele>
        <time>2013-02-18T21:05:29.000Z</time>
      </trkpt>
      <trkpt lat="48.85818" lon="2.2552">
        <ele>90.3</ele>
        <time>2013-02-18T21:05:30.000Z</time>
      </trkpt>
      <trkpt lat="48.85819" lon="2.25528">
        <ele>90.9</ele>
        <time>2013-02-18T21:05:31.000Z</time>
      </trkpt>
      <trkpt lat="48.85821" lon="2.25533">
        <ele>89.8</ele>
        <time>2013-02-18T21:05:32.000Z</time>
      </trkpt>
      <trkpt lat="48.85821" lon="2.25541">
        <ele>90.5</ele>
        <time>2013-02-18T21:05:33.000Z</time>
      </trkpt>
      <trkpt lat="48.85822" lon="2.25548">
        <ele>90.5</ele>
        <time>2013-02-18T21:05:34.000Z</time>
      </trkpt>
      <trkpt lat="48.85823" lon="2.25557">
        <ele>92.4</ele>
        <time>2013-02-18T21:05:35.000Z</time>
      </trkpt>
      <trkpt lat="48.85825" lon="2.25565">
        <ele>92.4</ele>
        <time>2013-02-18T21:05:36.000Z</time>
      </trkpt>
      <trkpt lat="48.85826" lon="2.25572">
        <ele>91.6</ele>
        <time>2013-02-18T21:05:37.000Z</time>
      </trkpt>
      <trkpt lat="48.85826" lon="2.25578">
        <ele>91.1</ele>
        <time>2013-02-18T21:05:38.000Z</time>
      </trkpt>
      <trkpt lat="48.85828" lon="2.25585">
        <ele>90.9</ele>
        <time>2013-02-18T21:05:39.000Z</time>
      </trkpt>
      <trkpt lat="48.85829" lon="2.25591">
        <ele>90.7</ele>
        <time>2013-02-18T21:05:40.000Z</time>
      </trkpt>
      <trkpt lat="48.8583" lon="2.25596">
        <ele>91.1</ele>
        <time>2013-02-18T21:05:41.000Z</time>
      </trkpt>
      <trkpt lat="48.85829" lon="2.25601">
        <ele>90.5</ele>
        <time>2013-02-18T21:05:42.000Z</time>
      </trkpt>
      <trkpt lat="48.85828" lon="2.25606">
        <ele>90.5</ele>
        <time>2013-02-18T21:05:43.000Z</time>
      </trkpt>
      <trkpt lat="48.85829" lon="2.2561">
        <ele>90.5</ele>
        <time>2013-02-18T21:05:44.000Z</time>
      </trkpt>
      <trkpt lat="48.85829" lon="2.25615">
        <ele>90.7</ele>
        <time>2013-02-18T21:05:45.000Z</time>
      </trkpt>
      <trkpt lat="48.85829" lon="2.25619">
        <ele>90.3</ele>
        <time>2013-02-18T21:05:46.000Z</time>
      </trkpt>
      <trkpt lat="48.8583" lon="2.25624">
        <ele>90.2</ele>
        <time>2013-02-18T21:05:47.000Z</time>
      </trkpt>
      <trkpt lat="48.8583" lon="2.25628">
        <ele>90.1</ele>
        <time>2013-02-18T21:05:48.000Z</time>
      </trkpt>
      <trkpt lat="48.85831" lon="2.25632">
        <ele>90</ele>
        <time>2013-02-18T21:05:49.000Z</time>
      </trkpt>
      <trkpt lat="48.85832" lon="2.25636">
        <ele>89.8</ele>
        <time>2013-02-18T21:05:50.000Z</time>
      </trkpt>
      <trkpt lat="48.85832" lon="2.2564">
        <ele>90.2</ele>
        <time>2013-02-18T21:05:51.000Z</time>
      </trkpt>
      <trkpt lat="48.85833" lon="2.25644">
        <ele>90.4</ele>
        <time>2013-02-18T21:05:52.000Z</time>
      </trkpt>
      <trkpt lat="48.85834" lon="2.25648">
        <ele>91.1</ele>
        <time>2013-02-18T21:05:53.000Z</time>
      </trkpt>
      <trkpt lat="48.85834" lon="2.25652">
        <ele>91.2</ele>
        <time>2013-02-18T21:05:54.000Z</time>
      </trkpt>
      <trkpt lat="48.85834" lon="2.25657">
        <ele>90.5</ele>
        <time>2013-02-18T21:05:55.000Z</time>
      </trkpt>
      <trkpt lat="48.85835" lon="2.25661">
        <ele>90.3</ele>
        <time>2013-02-18T21:05:56.000Z</time>
      </trkpt>
      <trkpt lat="48.85836" lon="2.25669">
        <ele>90.5</ele>
        <time>2013-02-18T21:05:57.000Z</time>
      </trkpt>
      <trkpt lat="48.85836" lon="2.25675">
        <ele>90</ele>
        <time>2013-02-18T21:05:58.000Z</time>
      </trkpt>
      <trkpt lat="48.85837" lon="2.25682">
        <ele>90.3</ele>
        <time>2013-02-18T21:05:59.000Z</time>
      </trkpt>
      <trkpt lat="48.85838" lon="2.25688">
        <ele>89.6</ele>
        <time>2013-02-18T21:06:00.000Z</time>
      </trkpt>
      <trkpt lat="48.85838" lon="2.25694">
        <ele>89.7</ele>
        <time>2013-02-18T21:06:01.000Z</time>
      </trkpt>
      <trkpt lat="48.85839" lon="2.257">
        <ele>89.5</ele>
        <time>2013-02-18T21:06:02.000Z</time>
      </trkpt>
      <trkpt lat="48.85839" lon="2.25706">
        <ele>89.6</ele>
        <time>2013-02-18T21:06:03.000Z</time>
      </trkpt>
      <trkpt lat="48.8584" lon="2.25712">
        <ele>89.3</ele>
        <time>2013-02-18T21:06:04.000Z</time>
      </trkpt>
      <trkpt lat="48.8584" lon="2.25717">
        <ele>89.9</ele>
        <time>2013-02-18T21:06:05.000Z</time>
      </trkpt>
      <trkpt lat="48.85841" lon="2.25722">
        <ele>89.8</ele>
        <time>2013-02-18T21:06:06.000Z</time>
      </trkpt>
      <trkpt lat="48.85841" lon="2.25727">
        <ele>90.2</ele>
        <time>2013-02-18T21:06:07.000Z</time>
      </trkpt>
      <trkpt lat="48.85842" lon="2.25732">
        <ele>90.2</ele>
        <time>2013-02-18T21:06:08.000Z</time>
      </trkpt>
      <trkpt lat="48.85842" lon="2.25738">
        <ele>89.7</ele>
        <time>2013-02-18T21:06:09.000Z</time>
      </trkpt>
      <trkpt lat="48.85843" lon="2.25743">
        <ele>89.6</ele>
        <time>2013-02-18T21:06:10.000Z</time>
      </trkpt>
      <trkpt lat="48.85843" lon="2.25748">
        <ele>89.1</ele>
        <time>2013-02-18T21:06:11.000Z</time>
      </trkpt>
      <trkpt lat="48.85844" lon="2.25754">
        <ele>88.9</ele>
        <time>2013-02-18T21:06:12.000Z</time>
      </trkpt>
      <trkpt lat="48.85844" lon="2.2576">
        <ele>89.5</ele>
        <time>2013-02-18T21:06:13.000Z</time>
      </trkpt>
      <trkpt lat="48.85844" lon="2.25767">
        <ele>89.5</ele>
        <time>2013-02-18T21:06:14.000Z</time>
      </trkpt>
      <trkpt lat="48.85844" lon="2.25772">
        <ele>89.5</ele>
        <time>2013-02-18T21:06:15.000Z</time>
      </trkpt>
      <trkpt lat="48.85843" lon="2.25779">
        <ele>89</ele>
        <time>2013-02-18T21:06:16.000Z</time>
      </trkpt>
      <trkpt lat="48.85843" lon="2.25784">
        <ele>89.2</ele>
        <time>2013-02-18T21:06:17.000Z</time>
      </trkpt>
      <trkpt lat="48.85843" lon="2.2579">
        <ele>88.6</ele>
        <time>2013-02-18T21:06:18.000Z</time>
      </trkpt>
      <trkpt lat="48.85842" lon="2.25797">
        <ele>88.2</ele>
        <time>2013-02-18T21:06:19.000Z</time>
      </trkpt>
      <trkpt lat="48.85841" lon="2.25802">
        <ele>88.1</ele>
        <time>2013-02-18T21:06:20.000Z</time>
      </trkpt>
      <trkpt lat="48.85841" lon="2.25806">
        <ele>89.5</ele>
        <time>2013-02-18T21:06:21.000Z</time>
      </trkpt>
      <trkpt lat="48.85841" lon="2.25799">
        <ele>88.7</ele>
        <time>2013-02-18T21:06:23.678Z</time>
      </trkpt>
      <trkpt lat="48.85841" lon="2.25798">
        <ele>88.6</ele>
        <time>2013-02-18T21:06:25.000Z</time>
      </trkpt>
      <trkpt lat="48.85841" lon="2.25805">
        <ele>86.7</ele>
        <time>2013-02-18T21:06:28.000Z</time>
      </trkpt>
      <trkpt lat="48.85839" lon="2.25812">
        <ele>88.2</ele>
        <time>2013-02-18T21:06:29.000Z</time>
      </trkpt>
      <trkpt lat="48.85838" lon="2.25817">
        <ele>88.1</ele>
        <time>2013-02-18T21:06:30.000Z</time>
      </trkpt>
      <trkpt lat="48.85837" lon="2.25823">
        <ele>87.8</ele>
        <time>2013-02-18T21:06:31.000Z</time>
      </trkpt>
      <trkpt lat="48.85836" lon="2.25828">
        <ele>88.5</ele>
        <time>2013-02-18T21:06:32.000Z</time>
      </trkpt>
      <trkpt lat="48.85835" lon="2.25834">
        <ele>88.8</ele>
        <time>2013-02-18T21:06:33.000Z</time>
      </trkpt>
      <trkpt lat="48.85835" lon="2.25839">
        <ele>88.8</ele>
        <time>2013-02-18T21:06:34.000Z</time>
      </trkpt>
      <trkpt lat="48.85834" lon="2.25843">
        <ele>88.1</ele>
        <time>2013-02-18T21:06:35.000Z</time>
      </trkpt>
      <trkpt lat="48.85834" lon="2.25848">
        <ele>87.2</ele>
        <time>2013-02-18T21:06:38.000Z</time>
      </trkpt>
      <trkpt lat="48.85834" lon="2.2585">
        <ele>87.5</ele>
        <time>2013-02-18T21:06:39.000Z</time>
      </trkpt>
      <trkpt lat="48.85833" lon="2.25856">
        <ele>87.8</ele>
        <time>2013-02-18T21:06:42.000Z</time>
      </trkpt>
      <trkpt lat="48.85832" lon="2.25858">
        <ele>87</ele>
        <time>2013-02-18T21:06:43.000Z</time>
      </trkpt>
      <trkpt lat="48.85832" lon="2.25864">
        <ele>87.9</ele>
        <time>2013-02-18T21:06:46.000Z</time>
      </trkpt>
      <trkpt lat="48.85832" lon="2.25866">
        <ele>87.7</ele>
        <time>2013-02-18T21:06:47.000Z</time>
      </trkpt>
      <trkpt lat="48.85833" lon="2.25872">
        <ele>87.3</ele>
        <time>2013-02-18T21:06:52.000Z</time>
      </trkpt>
      <trkpt lat="48.85833" lon="2.25873">
        <ele>87.3</ele>
        <time>2013-02-18T21:06:53.000Z</time>
      </trkpt>
      <trkpt lat="48.85834" lon="2.25878">
        <ele>89</ele>
        <time>2013-02-18T21:07:10.000Z</time>
      </trkpt>
      <trkpt lat="48.85835" lon="2.25882">
        <ele>87.5</ele>
        <time>2013-02-18T21:07:11.000Z</time>
      </trkpt>
      <trkpt lat="48.85835" lon="2.25888">
        <ele>87.3</ele>
        <time>2013-02-18T21:07:13.000Z</time>
      </trkpt>
      <trkpt lat="48.85835" lon="2.25891">
        <ele>87</ele>
        <time>2013-02-18T21:07:14.000Z</time>
      </trkpt>
      <trkpt lat="48.85835" lon="2.25895">
        <ele>86.7</ele>
        <time>2013-02-18T21:07:15.000Z</time>
      </trkpt>
      <trkpt lat="48.85835" lon="2.25898">
        <ele>86.6</ele>
        <time>2013-02-18T21:07:16.000Z</time>
      </trkpt>
      <trkpt lat="48.85835" lon="2.25902">
        <ele>86.6</ele>
        <time>2013-02-18T21:07:17.000Z</time>
      </trkpt>
      <trkpt lat="48.85835" lon="2.25905">
        <ele>86.3</ele>
        <time>2013-02-18T21:07:18.000Z</time>
      </trkpt>
      <trkpt lat="48.85835" lon="2.2591">
        <ele>86.6</ele>
        <time>2013-02-18T21:07:19.000Z</time>
      </trkpt>
      <trkpt lat="48.85835" lon="2.25913">
        <ele>86.5</ele>
        <time>2013-02-18T21:07:20.000Z</time>
      </trkpt>
      <trkpt lat="48.85835" lon="2.25917">
        <ele>86.9</ele>
        <time>2013-02-18T21:07:21.000Z</time>
      </trkpt>
      <trkpt lat="48.85836" lon="2.25921">
        <ele>87</ele>
        <time>2013-02-18T21:07:22.000Z</time>
      </trkpt>
      <trkpt lat="48.85836" lon="2.25927">
        <ele>87</ele>
        <time>2013-02-18T21:07:23.857Z</time>
      </trkpt>
      <trkpt lat="48.85836" lon="2.2593">
        <ele>87.1</ele>
        <time>2013-02-18T21:07:25.000Z</time>
      </trkpt>
      <trkpt lat="48.85836" lon="2.25936">
        <ele>87.1</ele>
        <time>2013-02-18T21:07:29.000Z</time>
      </trkpt>
      <trkpt lat="48.85837" lon="2.25938">
        <ele>86.9</ele>
        <time>2013-02-18T21:07:30.000Z</time>
      </trkpt>
      <trkpt lat="48.85838" lon="2.25944">
        <ele>89.1</ele>
        <time>2013-02-18T21:07:36.000Z</time>
      </trkpt>
      <trkpt lat="48.85838" lon="2.25944">
        <ele>89.1</ele>
        <time>2013-02-18T21:07:37.000Z</time>
      </trkpt>
      <trkpt lat="48.85839" lon="2.25948">
        <ele>90.3</ele>
        <time>2013-02-18T21:07:40.000Z</time>
      </trkpt>
      <trkpt lat="48.8584" lon="2.25953">
        <ele>90.3</ele>
        <time>2013-02-18T21:07:41.000Z</time>
      </trkpt>
      <trkpt lat="48.85841" lon="2.25955">
        <ele>90.3</ele>
        <time>2013-02-18T21:07:42.000Z</time>
      </trkpt>
      <trkpt lat="48.85842" lon="2.25959">
        <ele>89.5</ele>
        <time>2013-02-18T21:07:43.000Z</time>
      </trkpt>
      <trkpt lat="48.85843" lon="2.25962">
        <ele>89.1</ele>
        <time>2013-02-18T21:07:44.000Z</time>
      </trkpt>
      <trkpt lat="48.85842" lon="2.25967">
        <ele>88.9</ele>
        <time>2013-02-18T21:07:45.000Z</time>
      </trkpt>
      <trkpt lat="48.85842" lon="2.2597">
        <ele>88.9</ele>
        <time>2013-02-18T21:07:46.000Z</time>
      </trkpt>
      <trkpt lat="48.85841" lon="2.25976">
        <ele>88.3</ele>
        <time>2013-02-18T21:07:47.000Z</time>
      </trkpt>
      <trkpt lat="48.85841" lon="2.25981">
        <ele>88.1</ele>
        <time>2013-02-18T21:07:48.000Z</time>
      </trkpt>
      <trkpt lat="48.85841" lon="2.25986">
        <ele>88.1</ele>
        <time>2013-02-18T21:07:49.000Z</time>
      </trkpt>
      <trkpt lat="48.85842" lon="2.25992">
        <ele>87.5</ele>
        <time>2013-02-18T21:07:50.000Z</time>
      </trkpt>
      <trkpt lat="48.85842" lon="2.25997">
        <ele>87.8</ele>
        <time>2013-02-18T21:07:51.000Z</time>
      </trkpt>
      <trkpt lat="48.85841" lon="2.26002">
        <ele>87.5</ele>
        <time>2013-02-18T21:07:52.000Z</time>
      </trkpt>
      <trkpt lat="48.85841" lon="2.26008">
        <ele>86.2</ele>
        <time>2013-02-18T21:07:53.000Z</time>
      </trkpt>
      <trkpt lat="48.85841" lon="2.26013">
        <ele>86</ele>
        <time>2013-02-18T21:07:54.000Z</time>
      </trkpt>
      <trkpt lat="48.8584" lon="2.26021">
        <ele>85.1</ele>
        <time>2013-02-18T21:07:55.000Z</time>
      </trkpt>
      <trkpt lat="48.85839" lon="2.26028">
        <ele>85.2</ele>
        <time>2013-02-18T21:07:56.000Z</time>
      </trkpt>
      <trkpt lat="48.85838" lon="2.26038">
        <ele>85.7</ele>
        <time>2013-02-18T21:07:57.000Z</time>
      </trkpt>
      <trkpt lat="48.85837" lon="2.26045">
        <ele>85.8</ele>
        <time>2013-02-18T21:07:58.000Z</time>
      </trkpt>
      <trkpt lat="48.85837" lon="2.26053">
        <ele>87.3</ele>
        <time>2013-02-18T21:07:59.000Z</time>
      </trkpt>
      <trkpt lat="48.85837" lon="2.26059">
        <ele>87.5</ele>
        <time>2013-02-18T21:08:00.000Z</time>
      </trkpt>
      <trkpt lat="48.85837" lon="2.26069">
        <ele>88.7</ele>
        <time>2013-02-18T21:08:01.000Z</time>
      </trkpt>
      <trkpt lat="48.85836" lon="2.26076">
        <ele>89</ele>
        <time>2013-02-18T21:08:02.000Z</time>
      </trkpt>
      <trkpt lat="48.85835" lon="2.26082">
        <ele>88.3</ele>
        <time>2013-02-18T21:08:03.000Z</time>
      </trkpt>
      <trkpt lat="48.85834" lon="2.26089">
        <ele>88</ele>
        <time>2013-02-18T21:08:04.000Z</time>
      </trkpt>
      <trkpt lat="48.85833" lon="2.26096">
        <ele>87.9</ele>
        <time>2013-02-18T21:08:05.000Z</time>
      </trkpt>
      <trkpt lat="48.85832" lon="2.26104">
        <ele>87.8</ele>
        <time>2013-02-18T21:08:06.000Z</time>
      </trkpt>
      <trkpt lat="48.8583" lon="2.26112">
        <ele>87.3</ele>
        <time>2013-02-18T21:08:07.000Z</time>
      </trkpt>
      <trkpt lat="48.85828" lon="2.26119">
        <ele>87.9</ele>
        <time>2013-02-18T21:08:08.000Z</time>
      </trkpt>
      <trkpt lat="48.85826" lon="2.26126">
        <ele>87.1</ele>
        <time>2013-02-18T21:08:09.000Z</time>
      </trkpt>
      <trkpt lat="48.85825" lon="2.26133">
        <ele>87.1</ele>
        <time>2013-02-18T21:08:10.000Z</time>
      </trkpt>
      <trkpt lat="48.85823" lon="2.2614">
        <ele>85.9</ele>
        <time>2013-02-18T21:08:11.000Z</time>
      </trkpt>
      <trkpt lat="48.85822" lon="2.26147">
        <ele>85.7</ele>
        <time>2013-02-18T21:08:12.000Z</time>
      </trkpt>
      <trkpt lat="48.85819" lon="2.26153">
        <ele>85.1</ele>
        <time>2013-02-18T21:08:13.000Z</time>
      </trkpt>
      <trkpt lat="48.85818" lon="2.2616">
        <ele>85</ele>
        <time>2013-02-18T21:08:14.000Z</time>
      </trkpt>
      <trkpt lat="48.85816" lon="2.26166">
        <ele>84.3</ele>
        <time>2013-02-18T21:08:15.000Z</time>
      </trkpt>
      <trkpt lat="48.85815" lon="2.26172">
        <ele>84.3</ele>
        <time>2013-02-18T21:08:16.000Z</time>
      </trkpt>
      <trkpt lat="48.85812" lon="2.26177">
        <ele>84</ele>
        <time>2013-02-18T21:08:17.000Z</time>
      </trkpt>
      <trkpt lat="48.85811" lon="2.26183">
        <ele>83.8</ele>
        <time>2013-02-18T21:08:18.000Z</time>
      </trkpt>
      <trkpt lat="48.85809" lon="2.26189">
        <ele>84.2</ele>
        <time>2013-02-18T21:08:19.000Z</time>
      </trkpt>
      <trkpt lat="48.85808" lon="2.26195">
        <ele>84.2</ele>
        <time>2013-02-18T21:08:20.000Z</time>
      </trkpt>
      <trkpt lat="48.85806" lon="2.26202">
        <ele>84.2</ele>
        <time>2013-02-18T21:08:21.000Z</time>
      </trkpt>
      <trkpt lat="48.85804" lon="2.26209">
        <ele>84.6</ele>
        <time>2013-02-18T21:08:22.000Z</time>
      </trkpt>
      <trkpt lat="48.85801" lon="2.26221">
        <ele>84.6</ele>
        <time>2013-02-18T21:08:23.950Z</time>
      </trkpt>
      <trkpt lat="48.85799" lon="2.26227">
        <ele>83.9</ele>
        <time>2013-02-18T21:08:25.000Z</time>
      </trkpt>
      <trkpt lat="48.85798" lon="2.26232">
        <ele>84.4</ele>
        <time>2013-02-18T21:08:26.000Z</time>
      </trkpt>
      <trkpt lat="48.85796" lon="2.26238">
        <ele>84.4</ele>
        <time>2013-02-18T21:08:27.000Z</time>
      </trkpt>
      <trkpt lat="48.85794" lon="2.26242">
        <ele>82.8</ele>
        <time>2013-02-18T21:08:28.000Z</time>
      </trkpt>
      <trkpt lat="48.85793" lon="2.26248">
        <ele>82.5</ele>
        <time>2013-02-18T21:08:29.000Z</time>
      </trkpt>
      <trkpt lat="48.85791" lon="2.26253">
        <ele>82.4</ele>
        <time>2013-02-18T21:08:30.000Z</time>
      </trkpt>
      <trkpt lat="48.85789" lon="2.26258">
        <ele>81.9</ele>
        <time>2013-02-18T21:08:31.000Z</time>
      </trkpt>
      <trkpt lat="48.85788" lon="2.26263">
        <ele>81.9</ele>
        <time>2013-02-18T21:08:32.000Z</time>
      </trkpt>
      <trkpt lat="48.85786" lon="2.26269">
        <ele>82</ele>
        <time>2013-02-18T21:08:33.000Z</time>
      </trkpt>
      <trkpt lat="48.85785" lon="2.26274">
        <ele>81.5</ele>
        <time>2013-02-18T21:08:34.000Z</time>
      </trkpt>
      <trkpt lat="48.85783" lon="2.2628">
        <ele>81.4</ele>
        <time>2013-02-18T21:08:35.000Z</time>
      </trkpt>
      <trkpt lat="48.85781" lon="2.26286">
        <ele>82.4</ele>
        <time>2013-02-18T21:08:36.000Z</time>
      </trkpt>
      <trkpt lat="48.8578" lon="2.26291">
        <ele>82.9</ele>
        <time>2013-02-18T21:08:37.000Z</time>
      </trkpt>
      <trkpt lat="48.85778" lon="2.26297">
        <ele>83.8</ele>
        <time>2013-02-18T21:08:38.000Z</time>
      </trkpt>
      <trkpt lat="48.85776" lon="2.26301">
        <ele>83.6</ele>
        <time>2013-02-18T21:08:39.000Z</time>
      </trkpt>
      <trkpt lat="48.85775" lon="2.26306">
        <ele>82.2</ele>
        <time>2013-02-18T21:08:40.000Z</time>
      </trkpt>
      <trkpt lat="48.85774" lon="2.26311">
        <ele>82.3</ele>
        <time>2013-02-18T21:08:41.000Z</time>
      </trkpt>
      <trkpt lat="48.85772" lon="2.26317">
        <ele>82.3</ele>
        <time>2013-02-18T21:08:42.000Z</time>
      </trkpt>
      <trkpt lat="48.8577" lon="2.26322">
        <ele>82.4</ele>
        <time>2013-02-18T21:08:43.000Z</time>
      </trkpt>
      <trkpt lat="48.85769" lon="2.26327">
        <ele>82.4</ele>
        <time>2013-02-18T21:08:44.000Z</time>
      </trkpt>
      <trkpt lat="48.85767" lon="2.26333">
        <ele>82.8</ele>
        <time>2013-02-18T21:08:45.000Z</time>
      </trkpt>
      <trkpt lat="48.85766" lon="2.26339">
        <ele>82.8</ele>
        <time>2013-02-18T21:08:46.000Z</time>
      </trkpt>
      <trkpt lat="48.85764" lon="2.26348">
        <ele>84.7</ele>
        <time>2013-02-18T21:08:47.000Z</time>
      </trkpt>
      <trkpt lat="48.85762" lon="2.26354">
        <ele>85.2</ele>
        <time>2013-02-18T21:08:48.000Z</time>
      </trkpt>
      <trkpt lat="48.8576" lon="2.26364">
        <ele>85.1</ele>
        <time>2013-02-18T21:08:49.000Z</time>
      </trkpt>
      <trkpt lat="48.85758" lon="2.2637">
        <ele>85.1</ele>
        <time>2013-02-18T21:08:50.000Z</time>
      </trkpt>
      <trkpt lat="48.85756" lon="2.26375">
        <ele>84.9</ele>
        <time>2013-02-18T21:08:51.000Z</time>
      </trkpt>
      <trkpt lat="48.85754" lon="2.2638">
        <ele>85</ele>
        <time>2013-02-18T21:08:52.000Z</time>
      </trkpt>
      <trkpt lat="48.85752" lon="2.26387">
        <ele>85</ele>
        <time>2013-02-18T21:08:53.000Z</time>
      </trkpt>
      <trkpt lat="48.85751" lon="2.26392">
        <ele>84.7</ele>
        <time>2013-02-18T21:08:54.000Z</time>
      </trkpt>
      <trkpt lat="48.8575" lon="2.26398">
        <ele>84.7</ele>
        <time>2013-02-18T21:08:55.000Z</time>
      </trkpt>
      <trkpt lat="48.85748" lon="2.26403">
        <ele>84.9</ele>
        <time>2013-02-18T21:08:56.000Z</time>
      </trkpt>
      <trkpt lat="48.85747" lon="2.26409">
        <ele>84.9</ele>
        <time>2013-02-18T21:08:57.000Z</time>
      </trkpt>
      <trkpt lat="48.85746" lon="2.26415">
        <ele>85.4</ele>
        <time>2013-02-18T21:08:58.000Z</time>
      </trkpt>
      <trkpt lat="48.85745" lon="2.2642">
        <ele>85</ele>
        <time>2013-02-18T21:08:59.000Z</time>
      </trkpt>
      <trkpt lat="48.85743" lon="2.26425">
        <ele>84.1</ele>
        <time>2013-02-18T21:09:00.000Z</time>
      </trkpt>
      <trkpt lat="48.85742" lon="2.26429">
        <ele>84.6</ele>
        <time>2013-02-18T21:09:01.000Z</time>
      </trkpt>
      <trkpt lat="48.8574" lon="2.26435">
        <ele>84.5</ele>
        <time>2013-02-18T21:09:02.000Z</time>
      </trkpt>
      <trkpt lat="48.85739" lon="2.26439">
        <ele>84.8</ele>
        <time>2013-02-18T21:09:03.000Z</time>
      </trkpt>
      <trkpt lat="48.85737" lon="2.26444">
        <ele>84.8</ele>
        <time>2013-02-18T21:09:04.000Z</time>
      </trkpt>
      <trkpt lat="48.85736" lon="2.26448">
        <ele>84.9</ele>
        <time>2013-02-18T21:09:05.000Z</time>
      </trkpt>
      <trkpt lat="48.85735" lon="2.26453">
        <ele>87.4</ele>
        <time>2013-02-18T21:09:15.000Z</time>
      </trkpt>
      <trkpt lat="48.85736" lon="2.26455">
        <ele>88.6</ele>
        <time>2013-02-18T21:09:16.000Z</time>
      </trkpt>
      <trkpt lat="48.85734" lon="2.26459">
        <ele>90.2</ele>
        <time>2013-02-18T21:09:22.000Z</time>
      </trkpt>
      <trkpt lat="48.85732" lon="2.26466">
        <ele>90.2</ele>
        <time>2013-02-18T21:09:24.096Z</time>
      </trkpt>
      <trkpt lat="48.8573" lon="2.26472">
        <ele>88.2</ele>
        <time>2013-02-18T21:09:26.000Z</time>
      </trkpt>
      <trkpt lat="48.85729" lon="2.26475">
        <ele>87.5</ele>
        <time>2013-02-18T21:09:27.000Z</time>
      </trkpt>
      <trkpt lat="48.85728" lon="2.2648">
        <ele>88.1</ele>
        <time>2013-02-18T21:09:28.000Z</time>
      </trkpt>
      <trkpt lat="48.85727" lon="2.26486">
        <ele>88.1</ele>
        <time>2013-02-18T21:09:29.000Z</time>
      </trkpt>
      <trkpt lat="48.85725" lon="2.26491">
        <ele>88.2</ele>
        <time>2013-02-18T21:09:30.000Z</time>
      </trkpt>
      <trkpt lat="48.85724" lon="2.26497">
        <ele>88.2</ele>
        <time>2013-02-18T21:09:31.000Z</time>
      </trkpt>
      <trkpt lat="48.85722" lon="2.26502">
        <ele>88.2</ele>
        <time>2013-02-18T21:09:32.000Z</time>
      </trkpt>
      <trkpt lat="48.85721" lon="2.26508">
        <ele>87.9</ele>
        <time>2013-02-18T21:09:33.000Z</time>
      </trkpt>
      <trkpt lat="48.85719" lon="2.26513">
        <ele>87.8</ele>
        <time>2013-02-18T21:09:34.000Z</time>
      </trkpt>
      <trkpt lat="48.85718" lon="2.26519">
        <ele>87.6</ele>
        <time>2013-02-18T21:09:35.000Z</time>
      </trkpt>
      <trkpt lat="48.85716" lon="2.26525">
        <ele>87.6</ele>
        <time>2013-02-18T21:09:36.000Z</time>
      </trkpt>
      <trkpt lat="48.85715" lon="2.26531">
        <ele>87.9</ele>
        <time>2013-02-18T21:09:37.000Z</time>
      </trkpt>
      <trkpt lat="48.85713" lon="2.26538">
        <ele>88.1</ele>
        <time>2013-02-18T21:09:38.000Z</time>
      </trkpt>
      <trkpt lat="48.85711" lon="2.26544">
        <ele>88.1</ele>
        <time>2013-02-18T21:09:39.000Z</time>
      </trkpt>
      <trkpt lat="48.8571" lon="2.2655">
        <ele>88.1</ele>
        <time>2013-02-18T21:09:40.000Z</time>
      </trkpt>
      <trkpt lat="48.85708" lon="2.26557">
        <ele>88.1</ele>
        <time>2013-02-18T21:09:41.000Z</time>
      </trkpt>
      <trkpt lat="48.85706" lon="2.26563">
        <ele>88.2</ele>
        <time>2013-02-18T21:09:42.000Z</time>
      </trkpt>
      <trkpt lat="48.85704" lon="2.2657">
        <ele>88.3</ele>
        <time>2013-02-18T21:09:43.000Z</time>
      </trkpt>
      <trkpt lat="48.85706" lon="2.26573">
        <ele>86.9</ele>
        <time>2013-02-18T21:09:45.000Z</time>
      </trkpt>
      <trkpt lat="48.85706" lon="2.26579">
        <ele>86.9</ele>
        <time>2013-02-18T21:09:46.000Z</time>
      </trkpt>
      <trkpt lat="48.85706" lon="2.26585">
        <ele>87</ele>
        <time>2013-02-18T21:09:47.000Z</time>
      </trkpt>
      <trkpt lat="48.85707" lon="2.26592">
        <ele>86.8</ele>
        <time>2013-02-18T21:09:48.000Z</time>
      </trkpt>
      <trkpt lat="48.85706" lon="2.26598">
        <ele>86.8</ele>
        <time>2013-02-18T21:09:49.000Z</time>
      </trkpt>
      <trkpt lat="48.85707" lon="2.26606">
        <ele>86.7</ele>
        <time>2013-02-18T21:09:50.000Z</time>
      </trkpt>
      <trkpt lat="48.85704" lon="2.26621">
        <ele>88.8</ele>
        <time>2013-02-18T21:09:51.000Z</time>
      </trkpt>
      <trkpt lat="48.85704" lon="2.26629">
        <ele>89.3</ele>
        <time>2013-02-18T21:09:52.000Z</time>
      </trkpt>
      <trkpt lat="48.85704" lon="2.26636">
        <ele>88.8</ele>
        <time>2013-02-18T21:09:53.000Z</time>
      </trkpt>
      <trkpt lat="48.85705" lon="2.26643">
        <ele>88.7</ele>
        <time>2013-02-18T21:09:54.000Z</time>
      </trkpt>
      <trkpt lat="48.85705" lon="2.26654">
        <ele>89.5</ele>
        <time>2013-02-18T21:09:55.000Z</time>
      </trkpt>
      <trkpt lat="48.85708" lon="2.2666">
        <ele>89.5</ele>
        <time>2013-02-18T21:09:56.000Z</time>
      </trkpt>
      <trkpt lat="48.85709" lon="2.26666">
        <ele>89.5</ele>
        <time>2013-02-18T21:09:57.000Z</time>
      </trkpt>
      <trkpt lat="48.85712" lon="2.26679">
        <ele>92</ele>
        <time>2013-02-18T21:09:58.000Z</time>
      </trkpt>
      <trkpt lat="48.85715" lon="2.26689">
        <ele>93.3</ele>
        <time>2013-02-18T21:09:59.000Z</time>
      </trkpt>
      <trkpt lat="48.85718" lon="2.26695">
        <ele>93.4</ele>
        <time>2013-02-18T21:10:00.000Z</time>
      </trkpt>
      <trkpt lat="48.85719" lon="2.267">
        <ele>92.2</ele>
        <time>2013-02-18T21:10:01.000Z</time>
      </trkpt>
      <trkpt lat="48.85722" lon="2.26706">
        <ele>93</ele>
        <time>2013-02-18T21:10:02.000Z</time>
      </trkpt>
      <trkpt lat="48.85725" lon="2.26714">
        <ele>93.1</ele>
        <time>2013-02-18T21:10:03.000Z</time>
      </trkpt>
      <trkpt lat="48.85728" lon="2.26723">
        <ele>93.2</ele>
        <time>2013-02-18T21:10:04.000Z</time>
      </trkpt>
      <trkpt lat="48.85732" lon="2.2673">
        <ele>94.1</ele>
        <time>2013-02-18T21:10:05.000Z</time>
      </trkpt>
      <trkpt lat="48.85735" lon="2.26735">
        <ele>94.2</ele>
        <time>2013-02-18T21:10:06.000Z</time>
      </trkpt>
      <trkpt lat="48.85738" lon="2.26741">
        <ele>94.5</ele>
        <time>2013-02-18T21:10:07.000Z</time>
      </trkpt>
      <trkpt lat="48.85743" lon="2.26749">
        <ele>95.1</ele>
        <time>2013-02-18T21:10:08.000Z</time>
      </trkpt>
      <trkpt lat="48.85744" lon="2.26759">
        <ele>95.1</ele>
        <time>2013-02-18T21:10:09.000Z</time>
      </trkpt>
      <trkpt lat="48.85746" lon="2.26765">
        <ele>94.8</ele>
        <time>2013-02-18T21:10:10.000Z</time>
      </trkpt>
      <trkpt lat="48.85747" lon="2.26768">
        <ele>92.4</ele>
        <time>2013-02-18T21:10:11.000Z</time>
      </trkpt>
      <trkpt lat="48.8575" lon="2.26774">
        <ele>92.2</ele>
        <time>2013-02-18T21:10:12.000Z</time>
      </trkpt>
      <trkpt lat="48.85754" lon="2.26779">
        <ele>91.2</ele>
        <time>2013-02-18T21:10:13.000Z</time>
      </trkpt>
      <trkpt lat="48.85756" lon="2.26787">
        <ele>91.5</ele>
        <time>2013-02-18T21:10:14.000Z</time>
      </trkpt>
      <trkpt lat="48.85758" lon="2.26796">
        <ele>92</ele>
        <time>2013-02-18T21:10:15.000Z</time>
      </trkpt>
      <trkpt lat="48.8576" lon="2.26805">
        <ele>91.5</ele>
        <time>2013-02-18T21:10:16.000Z</time>
      </trkpt>
      <trkpt lat="48.85764" lon="2.26813">
        <ele>91.8</ele>
        <time>2013-02-18T21:10:17.000Z</time>
      </trkpt>
      <trkpt lat="48.85767" lon="2.2682">
        <ele>92.5</ele>
        <time>2013-02-18T21:10:18.000Z</time>
      </trkpt>
      <trkpt lat="48.85768" lon="2.26828">
        <ele>93.1</ele>
        <time>2013-02-18T21:10:19.000Z</time>
      </trkpt>
      <trkpt lat="48.85771" lon="2.26836">
        <ele>93.7</ele>
        <time>2013-02-18T21:10:20.000Z</time>
      </trkpt>
      <trkpt lat="48.85773" lon="2.26843">
        <ele>94</ele>
        <time>2013-02-18T21:10:21.000Z</time>
      </trkpt>
      <trkpt lat="48.85777" lon="2.2685">
        <ele>93.8</ele>
        <time>2013-02-18T21:10:22.000Z</time>
      </trkpt>
      <trkpt lat="48.85782" lon="2.2687">
        <ele>92.7</ele>
        <time>2013-02-18T21:10:25.000Z</time>
      </trkpt>
      <trkpt lat="48.85786" lon="2.26881">
        <ele>91.8</ele>
        <time>2013-02-18T21:10:26.000Z</time>
      </trkpt>
      <trkpt lat="48.85792" lon="2.26891">
        <ele>92.2</ele>
        <time>2013-02-18T21:10:27.000Z</time>
      </trkpt>
      <trkpt lat="48.85794" lon="2.26899">
        <ele>91.3</ele>
        <time>2013-02-18T21:10:28.000Z</time>
      </trkpt>
      <trkpt lat="48.85797" lon="2.26905">
        <ele>90.9</ele>
        <time>2013-02-18T21:10:29.000Z</time>
      </trkpt>
      <trkpt lat="48.85799" lon="2.2691">
        <ele>90.8</ele>
        <time>2013-02-18T21:10:30.000Z</time>
      </trkpt>
      <trkpt lat="48.85802" lon="2.26916">
        <ele>90.8</ele>
        <time>2013-02-18T21:10:31.000Z</time>
      </trkpt>
      <trkpt lat="48.85804" lon="2.26924">
        <ele>89.6</ele>
        <time>2013-02-18T21:10:32.000Z</time>
      </trkpt>
      <trkpt lat="48.85806" lon="2.2693">
        <ele>88.6</ele>
        <time>2013-02-18T21:10:33.000Z</time>
      </trkpt>
      <trkpt lat="48.85808" lon="2.26938">
        <ele>87.3</ele>
        <time>2013-02-18T21:10:34.000Z</time>
      </trkpt>
      <trkpt lat="48.85809" lon="2.26943">
        <ele>86.6</ele>
        <time>2013-02-18T21:10:35.000Z</time>
      </trkpt>
      <trkpt lat="48.8581" lon="2.26948">
        <ele>86.1</ele>
        <time>2013-02-18T21:10:36.000Z</time>
      </trkpt>
      <trkpt lat="48.85812" lon="2.26954">
        <ele>85.7</ele>
        <time>2013-02-18T21:10:37.000Z</time>
      </trkpt>
      <trkpt lat="48.85814" lon="2.2696">
        <ele>85.8</ele>
        <time>2013-02-18T21:10:38.000Z</time>
      </trkpt>
      <trkpt lat="48.85816" lon="2.26965">
        <ele>85.9</ele>
        <time>2013-02-18T21:10:39.000Z</time>
      </trkpt>
      <trkpt lat="48.85819" lon="2.26972">
        <ele>88.9</ele>
        <time>2013-02-18T21:10:40.000Z</time>
      </trkpt>
      <trkpt lat="48.8582" lon="2.26976">
        <ele>89.7</ele>
        <time>2013-02-18T21:10:41.000Z</time>
      </trkpt>
      <trkpt lat="48.85822" lon="2.2698">
        <ele>89.6</ele>
        <time>2013-02-18T21:10:42.000Z</time>
      </trkpt>
      <trkpt lat="48.85823" lon="2.26985">
        <ele>89.5</ele>
        <time>2013-02-18T21:10:43.000Z</time>
      </trkpt>
      <trkpt lat="48.85825" lon="2.26989">
        <ele>89.5</ele>
        <time>2013-02-18T21:10:44.000Z</time>
      </trkpt>
      <trkpt lat="48.85826" lon="2.26994">
        <ele>88.8</ele>
        <time>2013-02-18T21:10:45.000Z</time>
      </trkpt>
      <trkpt lat="48.85827" lon="2.26999">
        <ele>90.2</ele>
        <time>2013-02-18T21:10:46.000Z</time>
      </trkpt>
      <trkpt lat="48.85828" lon="2.27004">
        <ele>92.7</ele>
        <time>2013-02-18T21:10:47.000Z</time>
      </trkpt>
      <trkpt lat="48.85829" lon="2.27009">
        <ele>92.6</ele>
        <time>2013-02-18T21:10:48.000Z</time>
      </trkpt>
      <trkpt lat="48.85831" lon="2.27014">
        <ele>93.5</ele>
        <time>2013-02-18T21:10:49.000Z</time>
      </trkpt>
      <trkpt lat="48.85832" lon="2.27019">
        <ele>94.2</ele>
        <time>2013-02-18T21:10:50.000Z</time>
      </trkpt>
      <trkpt lat="48.85833" lon="2.27024">
        <ele>95.1</ele>
        <time>2013-02-18T21:10:51.000Z</time>
      </trkpt>
      <trkpt lat="48.85835" lon="2.27029">
        <ele>96.7</ele>
        <time>2013-02-18T21:10:52.000Z</time>
      </trkpt>
      <trkpt lat="48.85836" lon="2.27034">
        <ele>96.7</ele>
        <time>2013-02-18T21:10:53.000Z</time>
      </trkpt>
      <trkpt lat="48.85837" lon="2.27038">
        <ele>97.4</ele>
        <time>2013-02-18T21:10:54.000Z</time>
      </trkpt>
      <trkpt lat="48.85838" lon="2.27044">
        <ele>97.8</ele>
        <time>2013-02-18T21:10:55.000Z</time>
      </trkpt>
      <trkpt lat="48.85838" lon="2.27047">
        <ele>97.9</ele>
        <time>2013-02-18T21:10:56.000Z</time>
      </trkpt>
      <trkpt lat="48.85839" lon="2.27052">
        <ele>99.7</ele>
        <time>2013-02-18T21:10:57.000Z</time>
      </trkpt>
      <trkpt lat="48.85839" lon="2.27056">
        <ele>99.7</ele>
        <time>2013-02-18T21:10:58.000Z</time>
      </trkpt>
      <trkpt lat="48.85839" lon="2.27061">
        <ele>99.7</ele>
        <time>2013-02-18T21:10:59.000Z</time>
      </trkpt>
      <trkpt lat="48.85839" lon="2.27065">
        <ele>99.8</ele>
        <time>2013-02-18T21:11:00.000Z</time>
      </trkpt>
      <trkpt lat="48.8584" lon="2.27071">
        <ele>101.6</ele>
        <time>2013-02-18T21:11:01.000Z</time>
      </trkpt>
      <trkpt lat="48.8584" lon="2.27075">
        <ele>101.9</ele>
        <time>2013-02-18T21:11:02.000Z</time>
      </trkpt>
      <trkpt lat="48.85839" lon="2.27081">
        <ele>98.4</ele>
        <time>2013-02-18T21:11:03.000Z</time>
      </trkpt>
      <trkpt lat="48.85838" lon="2.27087">
        <ele>99.3</ele>
        <time>2013-02-18T21:11:04.000Z</time>
      </trkpt>
      <trkpt lat="48.85838" lon="2.27093">
        <ele>98.4</ele>
        <time>2013-02-18T21:11:05.000Z</time>
      </trkpt>
      <trkpt lat="48.85837" lon="2.271">
        <ele>98.1</ele>
        <time>2013-02-18T21:11:06.000Z</time>
      </trkpt>
      <trkpt lat="48.85836" lon="2.27106">
        <ele>98.7</ele>
        <time>2013-02-18T21:11:07.000Z</time>
      </trkpt>
      <trkpt lat="48.85836" lon="2.27112">
        <ele>99.2</ele>
        <time>2013-02-18T21:11:08.000Z</time>
      </trkpt>
      <trkpt lat="48.85836" lon="2.27118">
        <ele>99.6</ele>
        <time>2013-02-18T21:11:09.000Z</time>
      </trkpt>
      <trkpt lat="48.85836" lon="2.27122">
        <ele>99.6</ele>
        <time>2013-02-18T21:11:10.000Z</time>
      </trkpt>
      <trkpt lat="48.85836" lon="2.2713">
        <ele>101.1</ele>
        <time>2013-02-18T21:11:11.000Z</time>
      </trkpt>
      <trkpt lat="48.85836" lon="2.27135">
        <ele>101.2</ele>
        <time>2013-02-18T21:11:12.000Z</time>
      </trkpt>
      <trkpt lat="48.85834" lon="2.27141">
        <ele>102.3</ele>
        <time>2013-02-18T21:11:13.000Z</time>
      </trkpt>
      <trkpt lat="48.85834" lon="2.27146">
        <ele>102.2</ele>
        <time>2013-02-18T21:11:14.000Z</time>
      </trkpt>
      <trkpt lat="48.85833" lon="2.27154">
        <ele>104.4</ele>
        <time>2013-02-18T21:11:15.000Z</time>
      </trkpt>
      <trkpt lat="48.85833" lon="2.27158">
        <ele>104.3</ele>
        <time>2013-02-18T21:11:16.000Z</time>
      </trkpt>
      <trkpt lat="48.85833" lon="2.27166">
        <ele>105</ele>
        <time>2013-02-18T21:11:17.000Z</time>
      </trkpt>
      <trkpt lat="48.85833" lon="2.27173">
        <ele>106</ele>
        <time>2013-02-18T21:11:18.000Z</time>
      </trkpt>
      <trkpt lat="48.85833" lon="2.27179">
        <ele>106.1</ele>
        <time>2013-02-18T21:11:19.000Z</time>
      </trkpt>
      <trkpt lat="48.85832" lon="2.27186">
        <ele>105.6</ele>
        <time>2013-02-18T21:11:20.000Z</time>
      </trkpt>
      <trkpt lat="48.85832" lon="2.27191">
        <ele>106.3</ele>
        <time>2013-02-18T21:11:21.000Z</time>
      </trkpt>
      <trkpt lat="48.85831" lon="2.27197">
        <ele>106.3</ele>
        <time>2013-02-18T21:11:22.000Z</time>
      </trkpt>
      <trkpt lat="48.85831" lon="2.27207">
        <ele>106.4</ele>
        <time>2013-02-18T21:11:23.868Z</time>
      </trkpt>
      <trkpt lat="48.85831" lon="2.27212">
        <ele>106.4</ele>
        <time>2013-02-18T21:11:25.000Z</time>
      </trkpt>
      <trkpt lat="48.85831" lon="2.27216">
        <ele>107.4</ele>
        <time>2013-02-18T21:11:26.000Z</time>
      </trkpt>
      <trkpt lat="48.8583" lon="2.2722">
        <ele>107.1</ele>
        <time>2013-02-18T21:11:27.000Z</time>
      </trkpt>
      <trkpt lat="48.8583" lon="2.27223">
        <ele>107.4</ele>
        <time>2013-02-18T21:11:28.000Z</time>
      </trkpt>
      <trkpt lat="48.8583" lon="2.2723">
        <ele>107.9</ele>
        <time>2013-02-18T21:11:30.000Z</time>
      </trkpt>
      <trkpt lat="48.8583" lon="2.27233">
        <ele>108.7</ele>
        <time>2013-02-18T21:11:31.000Z</time>
      </trkpt>
      <trkpt lat="48.8583" lon="2.27238">
        <ele>110</ele>
        <time>2013-02-18T21:11:33.000Z</time>
      </trkpt>
      <trkpt lat="48.8583" lon="2.2724">
        <ele>110.9</ele>
        <time>2013-02-18T21:11:34.000Z</time>
      </trkpt>
      <trkpt lat="48.8583" lon="2.27245">
        <ele>112.5</ele>
        <time>2013-02-18T21:11:36.000Z</time>
      </trkpt>
      <trkpt lat="48.85829" lon="2.27247">
        <ele>112.7</ele>
        <time>2013-02-18T21:11:37.000Z</time>
      </trkpt>
      <trkpt lat="48.85828" lon="2.27252">
        <ele>113.5</ele>
        <time>2013-02-18T21:11:39.000Z</time>
      </trkpt>
      <trkpt lat="48.85827" lon="2.27254">
        <ele>113.7</ele>
        <time>2013-02-18T21:11:40.000Z</time>
      </trkpt>
      <trkpt lat="48.85826" lon="2.27261">
        <ele>116.3</ele>
        <time>2013-02-18T21:12:02.000Z</time>
      </trkpt>
      <trkpt lat="48.85826" lon="2.27261">
        <ele>116.4</ele>
        <time>2013-02-18T21:12:03.000Z</time>
      </trkpt>
      <trkpt lat="48.85824" lon="2.27266">
        <ele>115</ele>
        <time>2013-02-18T21:12:07.000Z</time>
      </trkpt>
      <trkpt lat="48.85824" lon="2.2727">
        <ele>113.7</ele>
        <time>2013-02-18T21:12:08.000Z</time>
      </trkpt>
      <trkpt lat="48.85823" lon="2.27276">
        <ele>113.3</ele>
        <time>2013-02-18T21:12:09.000Z</time>
      </trkpt>
      <trkpt lat="48.85823" lon="2.27282">
        <ele>113.8</ele>
        <time>2013-02-18T21:12:10.000Z</time>
      </trkpt>
      <trkpt lat="48.85822" lon="2.27288">
        <ele>114.2</ele>
        <time>2013-02-18T21:12:11.000Z</time>
      </trkpt>
      <trkpt lat="48.85823" lon="2.27293">
        <ele>116</ele>
        <time>2013-02-18T21:12:12.000Z</time>
      </trkpt>
      <trkpt lat="48.85822" lon="2.27297">
        <ele>116.3</ele>
        <time>2013-02-18T21:12:13.000Z</time>
      </trkpt>
      <trkpt lat="48.85823" lon="2.27303">
        <ele>112.2</ele>
        <time>2013-02-18T21:12:14.000Z</time>
      </trkpt>
      <trkpt lat="48.85823" lon="2.27308">
        <ele>112.5</ele>
        <time>2013-02-18T21:12:15.000Z</time>
      </trkpt>
      <trkpt lat="48.85822" lon="2.27313">
        <ele>112.5</ele>
        <time>2013-02-18T21:12:16.000Z</time>
      </trkpt>
      <trkpt lat="48.85822" lon="2.27317">
        <ele>111.9</ele>
        <time>2013-02-18T21:12:17.000Z</time>
      </trkpt>
      <trkpt lat="48.85822" lon="2.27322">
        <ele>111.8</ele>
        <time>2013-02-18T21:12:18.000Z</time>
      </trkpt>
      <trkpt lat="48.85822" lon="2.27326">
        <ele>112.2</ele>
        <time>2013-02-18T21:12:19.000Z</time>
      </trkpt>
      <trkpt lat="48.85822" lon="2.27331">
        <ele>112.2</ele>
        <time>2013-02-18T21:12:20.000Z</time>
      </trkpt>
      <trkpt lat="48.85821" lon="2.27336">
        <ele>112.6</ele>
        <time>2013-02-18T21:12:21.000Z</time>
      </trkpt>
      <trkpt lat="48.85821" lon="2.27341">
        <ele>112.2</ele>
        <time>2013-02-18T21:12:22.000Z</time>
      </trkpt>
      <trkpt lat="48.8582" lon="2.27355">
        <ele>111.2</ele>
        <time>2013-02-18T21:12:25.000Z</time>
      </trkpt>
      <trkpt lat="48.85819" lon="2.27359">
        <ele>111.3</ele>
        <time>2013-02-18T21:12:26.000Z</time>
      </trkpt>
      <trkpt lat="48.85818" lon="2.27362">
        <ele>111.1</ele>
        <time>2013-02-18T21:12:27.000Z</time>
      </trkpt>
      <trkpt lat="48.85818" lon="2.27367">
        <ele>108.4</ele>
        <time>2013-02-18T21:12:28.000Z</time>
      </trkpt>
      <trkpt lat="48.85819" lon="2.27372">
        <ele>106.9</ele>
        <time>2013-02-18T21:12:29.000Z</time>
      </trkpt>
      <trkpt lat="48.8582" lon="2.27377">
        <ele>105.5</ele>
        <time>2013-02-18T21:12:30.000Z</time>
      </trkpt>
      <trkpt lat="48.85821" lon="2.27383">
        <ele>104</ele>
        <time>2013-02-18T21:12:31.000Z</time>
      </trkpt>
      <trkpt lat="48.85822" lon="2.27388">
        <ele>103.6</ele>
        <time>2013-02-18T21:12:32.000Z</time>
      </trkpt>
      <trkpt lat="48.85823" lon="2.27394">
        <ele>103.3</ele>
        <time>2013-02-18T21:12:33.000Z</time>
      </trkpt>
      <trkpt lat="48.85824" lon="2.274">
        <ele>104.3</ele>
        <time>2013-02-18T21:12:34.000Z</time>
      </trkpt>
      <trkpt lat="48.85824" lon="2.27408">
        <ele>105.7</ele>
        <time>2013-02-18T21:12:35.000Z</time>
      </trkpt>
      <trkpt lat="48.85825" lon="2.27417">
        <ele>107.8</ele>
        <time>2013-02-18T21:12:36.000Z</time>
      </trkpt>
      <trkpt lat="48.85825" lon="2.27425">
        <ele>106.8</ele>
        <time>2013-02-18T21:12:37.000Z</time>
      </trkpt>
      <trkpt lat="48.85824" lon="2.27433">
        <ele>107.8</ele>
        <time>2013-02-18T21:12:38.000Z</time>
      </trkpt>
      <trkpt lat="48.85824" lon="2.27441">
        <ele>109.4</ele>
        <time>2013-02-18T21:12:39.000Z</time>
      </trkpt>
      <trkpt lat="48.85824" lon="2.27448">
        <ele>108.8</ele>
        <time>2013-02-18T21:12:40.000Z</time>
      </trkpt>
      <trkpt lat="48.85825" lon="2.27455">
        <ele>108.9</ele>
        <time>2013-02-18T21:12:41.000Z</time>
      </trkpt>
      <trkpt lat="48.85825" lon="2.27462">
        <ele>108.4</ele>
        <time>2013-02-18T21:12:42.000Z</time>
      </trkpt>
      <trkpt lat="48.85826" lon="2.27469">
        <ele>108.9</ele>
        <time>2013-02-18T21:12:43.000Z</time>
      </trkpt>
      <trkpt lat="48.85827" lon="2.27474">
        <ele>108.6</ele>
        <time>2013-02-18T21:12:44.000Z</time>
      </trkpt>
      <trkpt lat="48.85829" lon="2.27482">
        <ele>110.6</ele>
        <time>2013-02-18T21:12:45.000Z</time>
      </trkpt>
      <trkpt lat="48.85831" lon="2.27488">
        <ele>111.2</ele>
        <time>2013-02-18T21:12:46.000Z</time>
      </trkpt>
      <trkpt lat="48.85834" lon="2.27494">
        <ele>111.6</ele>
        <time>2013-02-18T21:12:47.000Z</time>
      </trkpt>
      <trkpt lat="48.85836" lon="2.27499">
        <ele>108.3</ele>
        <time>2013-02-18T21:12:49.000Z</time>
      </trkpt>
      <trkpt lat="48.85837" lon="2.275">
        <ele>107.6</ele>
        <time>2013-02-18T21:12:50.000Z</time>
      </trkpt>
      <trkpt lat="48.85839" lon="2.27506">
        <ele>105.8</ele>
        <time>2013-02-18T21:12:52.000Z</time>
      </trkpt>
      <trkpt lat="48.8584" lon="2.27514">
        <ele>104.6</ele>
        <time>2013-02-18T21:12:53.000Z</time>
      </trkpt>
      <trkpt lat="48.85842" lon="2.2752">
        <ele>103.8</ele>
        <time>2013-02-18T21:12:54.000Z</time>
      </trkpt>
      <trkpt lat="48.85843" lon="2.27527">
        <ele>103.2</ele>
        <time>2013-02-18T21:12:55.000Z</time>
      </trkpt>
      <trkpt lat="48.85845" lon="2.27533">
        <ele>102.6</ele>
        <time>2013-02-18T21:12:56.000Z</time>
      </trkpt>
      <trkpt lat="48.85847" lon="2.27539">
        <ele>101.7</ele>
        <time>2013-02-18T21:12:57.000Z</time>
      </trkpt>
      <trkpt lat="48.8585" lon="2.27545">
        <ele>101.5</ele>
        <time>2013-02-18T21:12:58.000Z</time>
      </trkpt>
      <trkpt lat="48.85853" lon="2.27551">
        <ele>101.1</ele>
        <time>2013-02-18T21:12:59.000Z</time>
      </trkpt>
      <trkpt lat="48.85857" lon="2.27558">
        <ele>102.1</ele>
        <time>2013-02-18T21:13:00.000Z</time>
      </trkpt>
      <trkpt lat="48.85865" lon="2.27569">
        <ele>101.7</ele>
        <time>2013-02-18T21:13:01.000Z</time>
      </trkpt>
      <trkpt lat="48.85868" lon="2.27575">
        <ele>101.7</ele>
        <time>2013-02-18T21:13:02.000Z</time>
      </trkpt>
      <trkpt lat="48.85872" lon="2.2758">
        <ele>100.5</ele>
        <time>2013-02-18T21:13:03.000Z</time>
      </trkpt>
      <trkpt lat="48.85875" lon="2.27586">
        <ele>99.7</ele>
        <time>2013-02-18T21:13:04.000Z</time>
      </trkpt>
      <trkpt lat="48.85878" lon="2.27593">
        <ele>99.8</ele>
        <time>2013-02-18T21:13:05.000Z</time>
      </trkpt>
      <trkpt lat="48.85881" lon="2.27597">
        <ele>97.5</ele>
        <time>2013-02-18T21:13:06.000Z</time>
      </trkpt>
      <trkpt lat="48.85886" lon="2.27602">
        <ele>97</ele>
        <time>2013-02-18T21:13:07.000Z</time>
      </trkpt>
      <trkpt lat="48.85888" lon="2.27607">
        <ele>94.8</ele>
        <time>2013-02-18T21:13:08.000Z</time>
      </trkpt>
      <trkpt lat="48.8589" lon="2.27612">
        <ele>93.7</ele>
        <time>2013-02-18T21:13:09.000Z</time>
      </trkpt>
      <trkpt lat="48.85891" lon="2.27612">
        <ele>90.9</ele>
        <time>2013-02-18T21:13:10.000Z</time>
      </trkpt>
      <trkpt lat="48.85893" lon="2.27617">
        <ele>90.1</ele>
        <time>2013-02-18T21:13:11.000Z</time>
      </trkpt>
      <trkpt lat="48.85896" lon="2.27619">
        <ele>88.6</ele>
        <time>2013-02-18T21:13:12.000Z</time>
      </trkpt>
      <trkpt lat="48.85899" lon="2.27624">
        <ele>88.7</ele>
        <time>2013-02-18T21:13:13.000Z</time>
      </trkpt>
      <trkpt lat="48.85901" lon="2.2763">
        <ele>88.8</ele>
        <time>2013-02-18T21:13:14.000Z</time>
      </trkpt>
      <trkpt lat="48.85905" lon="2.27636">
        <ele>88.8</ele>
        <time>2013-02-18T21:13:15.000Z</time>
      </trkpt>
      <trkpt lat="48.85908" lon="2.27643">
        <ele>88.5</ele>
        <time>2013-02-18T21:13:16.000Z</time>
      </trkpt>
      <trkpt lat="48.8591" lon="2.27655">
        <ele>88.1</ele>
        <time>2013-02-18T21:13:17.000Z</time>
      </trkpt>
      <trkpt lat="48.85911" lon="2.27662">
        <ele>87.5</ele>
        <time>2013-02-18T21:13:18.000Z</time>
      </trkpt>
      <trkpt lat="48.85913" lon="2.27668">
        <ele>86.3</ele>
        <time>2013-02-18T21:13:19.000Z</time>
      </trkpt>
      <trkpt lat="48.85914" lon="2.27675">
        <ele>86.4</ele>
        <time>2013-02-18T21:13:20.000Z</time>
      </trkpt>
      <trkpt lat="48.85915" lon="2.27681">
        <ele>87.2</ele>
        <time>2013-02-18T21:13:21.000Z</time>
      </trkpt>
      <trkpt lat="48.85918" lon="2.27696">
        <ele>88.3</ele>
        <time>2013-02-18T21:13:22.000Z</time>
      </trkpt>
      <trkpt lat="48.85923" lon="2.27715">
        <ele>102.4</ele>
        <time>2013-02-18T21:13:25.000Z</time>
      </trkpt>
      <trkpt lat="48.85918" lon="2.2772">
        <ele>98.9</ele>
        <time>2013-02-18T21:13:26.000Z</time>
      </trkpt>
      <trkpt lat="48.85921" lon="2.27728">
        <ele>95.8</ele>
        <time>2013-02-18T21:13:27.000Z</time>
      </trkpt>
      <trkpt lat="48.85925" lon="2.27736">
        <ele>94.2</ele>
        <time>2013-02-18T21:13:28.000Z</time>
      </trkpt>
      <trkpt lat="48.85929" lon="2.27744">
        <ele>92.8</ele>
        <time>2013-02-18T21:13:29.000Z</time>
      </trkpt>
      <trkpt lat="48.85933" lon="2.27755">
        <ele>90.9</ele>
        <time>2013-02-18T21:13:30.000Z</time>
      </trkpt>
      <trkpt lat="48.85934" lon="2.27759">
        <ele>89.4</ele>
        <time>2013-02-18T21:13:31.000Z</time>
      </trkpt>
      <trkpt lat="48.85935" lon="2.27767">
        <ele>87.2</ele>
        <time>2013-02-18T21:13:32.000Z</time>
      </trkpt>
      <trkpt lat="48.85937" lon="2.27777">
        <ele>84.6</ele>
        <time>2013-02-18T21:13:33.000Z</time>
      </trkpt>
      <trkpt lat="48.85939" lon="2.27785">
        <ele>83.2</ele>
        <time>2013-02-18T21:13:34.000Z</time>
      </trkpt>
      <trkpt lat="48.85942" lon="2.27792">
        <ele>82.5</ele>
        <time>2013-02-18T21:13:35.000Z</time>
      </trkpt>
      <trkpt lat="48.85944" lon="2.27799">
        <ele>83.7</ele>
        <time>2013-02-18T21:13:36.000Z</time>
      </trkpt>
      <trkpt lat="48.85947" lon="2.27806">
        <ele>83.2</ele>
        <time>2013-02-18T21:13:37.000Z</time>
      </trkpt>
      <trkpt lat="48.85949" lon="2.27812">
        <ele>82.6</ele>
        <time>2013-02-18T21:13:38.000Z</time>
      </trkpt>
      <trkpt lat="48.85951" lon="2.27819">
        <ele>82.4</ele>
        <time>2013-02-18T21:13:39.000Z</time>
      </trkpt>
      <trkpt lat="48.85954" lon="2.27825">
        <ele>83.1</ele>
        <time>2013-02-18T21:13:40.000Z</time>
      </trkpt>
      <trkpt lat="48.85957" lon="2.27831">
        <ele>82.9</ele>
        <time>2013-02-18T21:13:41.000Z</time>
      </trkpt>
      <trkpt lat="48.8596" lon="2.27837">
        <ele>82.7</ele>
        <time>2013-02-18T21:13:42.000Z</time>
      </trkpt>
      <trkpt lat="48.85963" lon="2.27843">
        <ele>82.7</ele>
        <time>2013-02-18T21:13:43.000Z</time>
      </trkpt>
      <trkpt lat="48.85964" lon="2.27849">
        <ele>82.9</ele>
        <time>2013-02-18T21:13:44.000Z</time>
      </trkpt>
      <trkpt lat="48.85965" lon="2.27856">
        <ele>84.1</ele>
        <time>2013-02-18T21:13:45.000Z</time>
      </trkpt>
      <trkpt lat="48.85966" lon="2.27861">
        <ele>84.4</ele>
        <time>2013-02-18T21:13:46.000Z</time>
      </trkpt>
      <trkpt lat="48.85966" lon="2.27865">
        <ele>85.1</ele>
        <time>2013-02-18T21:13:47.000Z</time>
      </trkpt>
      <trkpt lat="48.85968" lon="2.2787">
        <ele>87.3</ele>
        <time>2013-02-18T21:13:48.000Z</time>
      </trkpt>
      <trkpt lat="48.85969" lon="2.27874">
        <ele>87.3</ele>
        <time>2013-02-18T21:13:49.000Z</time>
      </trkpt>
      <trkpt lat="48.85969" lon="2.27879">
        <ele>87.8</ele>
        <time>2013-02-18T21:13:50.000Z</time>
      </trkpt>
      <trkpt lat="48.8597" lon="2.27885">
        <ele>88.2</ele>
        <time>2013-02-18T21:13:51.000Z</time>
      </trkpt>
      <trkpt lat="48.8597" lon="2.27891">
        <ele>88</ele>
        <time>2013-02-18T21:13:52.000Z</time>
      </trkpt>
      <trkpt lat="48.85971" lon="2.27896">
        <ele>86.9</ele>
        <time>2013-02-18T21:13:53.000Z</time>
      </trkpt>
      <trkpt lat="48.85973" lon="2.27902">
        <ele>88.6</ele>
        <time>2013-02-18T21:13:54.000Z</time>
      </trkpt>
      <trkpt lat="48.85974" lon="2.27908">
        <ele>90.5</ele>
        <time>2013-02-18T21:13:55.000Z</time>
      </trkpt>
      <trkpt lat="48.85976" lon="2.27915">
        <ele>92.2</ele>
        <time>2013-02-18T21:13:56.000Z</time>
      </trkpt>
      <trkpt lat="48.85978" lon="2.27921">
        <ele>92.5</ele>
        <time>2013-02-18T21:13:57.000Z</time>
      </trkpt>
      <trkpt lat="48.85981" lon="2.27926">
        <ele>92.2</ele>
        <time>2013-02-18T21:13:58.000Z</time>
      </trkpt>
      <trkpt lat="48.85983" lon="2.27931">
        <ele>92.2</ele>
        <time>2013-02-18T21:13:59.000Z</time>
      </trkpt>
      <trkpt lat="48.85986" lon="2.27936">
        <ele>92</ele>
        <time>2013-02-18T21:14:00.000Z</time>
      </trkpt>
      <trkpt lat="48.85988" lon="2.27942">
        <ele>92.2</ele>
        <time>2013-02-18T21:14:01.000Z</time>
      </trkpt>
      <trkpt lat="48.85989" lon="2.27949">
        <ele>92.5</ele>
        <time>2013-02-18T21:14:02.000Z</time>
      </trkpt>
      <trkpt lat="48.8599" lon="2.27955">
        <ele>91.8</ele>
        <time>2013-02-18T21:14:03.000Z</time>
      </trkpt>
      <trkpt lat="48.8599" lon="2.27962">
        <ele>92.1</ele>
        <time>2013-02-18T21:14:04.000Z</time>
      </trkpt>
      <trkpt lat="48.85991" lon="2.27969">
        <ele>92</ele>
        <time>2013-02-18T21:14:05.000Z</time>
      </trkpt>
      <trkpt lat="48.85992" lon="2.27976">
        <ele>91</ele>
        <time>2013-02-18T21:14:06.000Z</time>
      </trkpt>
      <trkpt lat="48.85992" lon="2.27983">
        <ele>91</ele>
        <time>2013-02-18T21:14:07.000Z</time>
      </trkpt>
      <trkpt lat="48.85993" lon="2.27989">
        <ele>91</ele>
        <time>2013-02-18T21:14:08.000Z</time>
      </trkpt>
      <trkpt lat="48.85994" lon="2.27995">
        <ele>90.3</ele>
        <time>2013-02-18T21:14:09.000Z</time>
      </trkpt>
      <trkpt lat="48.85995" lon="2.28001">
        <ele>90.6</ele>
        <time>2013-02-18T21:14:10.000Z</time>
      </trkpt>
      <trkpt lat="48.85996" lon="2.28007">
        <ele>91</ele>
        <time>2013-02-18T21:14:11.000Z</time>
      </trkpt>
      <trkpt lat="48.85997" lon="2.28013">
        <ele>90.5</ele>
        <time>2013-02-18T21:14:12.000Z</time>
      </trkpt>
      <trkpt lat="48.85998" lon="2.28019">
        <ele>89.8</ele>
        <time>2013-02-18T21:14:13.000Z</time>
      </trkpt>
      <trkpt lat="48.85999" lon="2.28025">
        <ele>89.7</ele>
        <time>2013-02-18T21:14:14.000Z</time>
      </trkpt>
      <trkpt lat="48.86" lon="2.2803">
        <ele>88.2</ele>
        <time>2013-02-18T21:14:15.000Z</time>
      </trkpt>
      <trkpt lat="48.86002" lon="2.28035">
        <ele>87.4</ele>
        <time>2013-02-18T21:14:16.000Z</time>
      </trkpt>
      <trkpt lat="48.86005" lon="2.2804">
        <ele>87.2</ele>
        <time>2013-02-18T21:14:17.000Z</time>
      </trkpt>
      <trkpt lat="48.86008" lon="2.28045">
        <ele>88.1</ele>
        <time>2013-02-18T21:14:18.000Z</time>
      </trkpt>
      <trkpt lat="48.86011" lon="2.28051">
        <ele>89.2</ele>
        <time>2013-02-18T21:14:19.000Z</time>
      </trkpt>
      <trkpt lat="48.86013" lon="2.28056">
        <ele>88.4</ele>
        <time>2013-02-18T21:14:20.000Z</time>
      </trkpt>
      <trkpt lat="48.86015" lon="2.2806">
        <ele>88.2</ele>
        <time>2013-02-18T21:14:21.000Z</time>
      </trkpt>
      <trkpt lat="48.86018" lon="2.28065">
        <ele>88.5</ele>
        <time>2013-02-18T21:14:22.000Z</time>
      </trkpt>
      <trkpt lat="48.86026" lon="2.28077">
        <ele>87.6</ele>
        <time>2013-02-18T21:14:25.000Z</time>
      </trkpt>
      <trkpt lat="48.86027" lon="2.2808">
        <ele>86</ele>
        <time>2013-02-18T21:14:26.000Z</time>
      </trkpt>
      <trkpt lat="48.86028" lon="2.28084">
        <ele>86.2</ele>
        <time>2013-02-18T21:14:27.000Z</time>
      </trkpt>
      <trkpt lat="48.86027" lon="2.28088">
        <ele>86.5</ele>
        <time>2013-02-18T21:14:28.000Z</time>
      </trkpt>
      <trkpt lat="48.86027" lon="2.28093">
        <ele>88</ele>
        <time>2013-02-18T21:14:29.000Z</time>
      </trkpt>
      <trkpt lat="48.86026" lon="2.281">
        <ele>89.3</ele>
        <time>2013-02-18T21:14:30.000Z</time>
      </trkpt>
      <trkpt lat="48.86025" lon="2.28107">
        <ele>89.8</ele>
        <time>2013-02-18T21:14:31.000Z</time>
      </trkpt>
      <trkpt lat="48.86025" lon="2.28114">
        <ele>91.4</ele>
        <time>2013-02-18T21:14:32.000Z</time>
      </trkpt>
      <trkpt lat="48.86026" lon="2.2812">
        <ele>92.2</ele>
        <time>2013-02-18T21:14:33.000Z</time>
      </trkpt>
      <trkpt lat="48.86028" lon="2.28125">
        <ele>92</ele>
        <time>2013-02-18T21:14:34.000Z</time>
      </trkpt>
      <trkpt lat="48.86029" lon="2.2813">
        <ele>91.2</ele>
        <time>2013-02-18T21:14:35.000Z</time>
      </trkpt>
      <trkpt lat="48.86031" lon="2.28135">
        <ele>91.4</ele>
        <time>2013-02-18T21:14:36.000Z</time>
      </trkpt>
      <trkpt lat="48.86032" lon="2.2814">
        <ele>89.6</ele>
        <time>2013-02-18T21:14:37.000Z</time>
      </trkpt>
      <trkpt lat="48.86034" lon="2.28144">
        <ele>89.6</ele>
        <time>2013-02-18T21:14:38.000Z</time>
      </trkpt>
      <trkpt lat="48.86035" lon="2.28148">
        <ele>89.3</ele>
        <time>2013-02-18T21:14:39.000Z</time>
      </trkpt>
      <trkpt lat="48.86037" lon="2.28152">
        <ele>88.1</ele>
        <time>2013-02-18T21:14:40.000Z</time>
      </trkpt>
      <trkpt lat="48.86039" lon="2.28155">
        <ele>88.4</ele>
        <time>2013-02-18T21:14:41.000Z</time>
      </trkpt>
      <trkpt lat="48.86041" lon="2.28159">
        <ele>89.4</ele>
        <time>2013-02-18T21:14:42.000Z</time>
      </trkpt>
      <trkpt lat="48.86044" lon="2.28163">
        <ele>90.6</ele>
        <time>2013-02-18T21:14:43.000Z</time>
      </trkpt>
      <trkpt lat="48.86047" lon="2.28166">
        <ele>91.6</ele>
        <time>2013-02-18T21:14:44.000Z</time>
      </trkpt>
      <trkpt lat="48.86049" lon="2.28171">
        <ele>90.5</ele>
        <time>2013-02-18T21:14:45.000Z</time>
      </trkpt>
      <trkpt lat="48.86052" lon="2.28175">
        <ele>91.2</ele>
        <time>2013-02-18T21:14:46.000Z</time>
      </trkpt>
      <trkpt lat="48.86054" lon="2.28179">
        <ele>92</ele>
        <time>2013-02-18T21:14:47.000Z</time>
      </trkpt>
      <trkpt lat="48.86056" lon="2.28182">
        <ele>91.4</ele>
        <time>2013-02-18T21:14:48.000Z</time>
      </trkpt>
      <trkpt lat="48.86058" lon="2.28186">
        <ele>91.9</ele>
        <time>2013-02-18T21:14:49.000Z</time>
      </trkpt>
      <trkpt lat="48.86061" lon="2.2819">
        <ele>92.3</ele>
        <time>2013-02-18T21:14:50.000Z</time>
      </trkpt>
      <trkpt lat="48.86063" lon="2.28194">
        <ele>95.2</ele>
        <time>2013-02-18T21:14:51.000Z</time>
      </trkpt>
      <trkpt lat="48.86067" lon="2.282">
        <ele>94.6</ele>
        <time>2013-02-18T21:14:52.000Z</time>
      </trkpt>
      <trkpt lat="48.8607" lon="2.28205">
        <ele>97.3</ele>
        <time>2013-02-18T21:14:53.000Z</time>
      </trkpt>
      <trkpt lat="48.86072" lon="2.2821">
        <ele>97.7</ele>
        <time>2013-02-18T21:14:54.000Z</time>
      </trkpt>
      <trkpt lat="48.86075" lon="2.28216">
        <ele>99</ele>
        <time>2013-02-18T21:14:55.000Z</time>
      </trkpt>
      <trkpt lat="48.86078" lon="2.2822">
        <ele>99.6</ele>
        <time>2013-02-18T21:14:56.000Z</time>
      </trkpt>
      <trkpt lat="48.8608" lon="2.28225">
        <ele>100.8</ele>
        <time>2013-02-18T21:14:57.000Z</time>
      </trkpt>
      <trkpt lat="48.86082" lon="2.28231">
        <ele>102</ele>
        <time>2013-02-18T21:14:58.000Z</time>
      </trkpt>
      <trkpt lat="48.86084" lon="2.28237">
        <ele>103</ele>
        <time>2013-02-18T21:14:59.000Z</time>
      </trkpt>
      <trkpt lat="48.86086" lon="2.28243">
        <ele>103.9</ele>
        <time>2013-02-18T21:15:00.000Z</time>
      </trkpt>
      <trkpt lat="48.86088" lon="2.28251">
        <ele>103.8</ele>
        <time>2013-02-18T21:15:01.000Z</time>
      </trkpt>
      <trkpt lat="48.8609" lon="2.28259">
        <ele>105.4</ele>
        <time>2013-02-18T21:15:02.000Z</time>
      </trkpt>
      <trkpt lat="48.86091" lon="2.28266">
        <ele>107.3</ele>
        <time>2013-02-18T21:15:03.000Z</time>
      </trkpt>
      <trkpt lat="48.86092" lon="2.28273">
        <ele>107.5</ele>
        <time>2013-02-18T21:15:04.000Z</time>
      </trkpt>
      <trkpt lat="48.86093" lon="2.2828">
        <ele>107.2</ele>
        <time>2013-02-18T21:15:05.000Z</time>
      </trkpt>
      <trkpt lat="48.86094" lon="2.28286">
        <ele>106.5</ele>
        <time>2013-02-18T21:15:06.000Z</time>
      </trkpt>
      <trkpt lat="48.86095" lon="2.28292">
        <ele>106.4</ele>
        <time>2013-02-18T21:15:07.000Z</time>
      </trkpt>
      <trkpt lat="48.86095" lon="2.28296">
        <ele>106</ele>
        <time>2013-02-18T21:15:08.000Z</time>
      </trkpt>
      <trkpt lat="48.86096" lon="2.28301">
        <ele>105.7</ele>
        <time>2013-02-18T21:15:09.000Z</time>
      </trkpt>
      <trkpt lat="48.86096" lon="2.28304">
        <ele>105.2</ele>
        <time>2013-02-18T21:15:10.000Z</time>
      </trkpt>
      <trkpt lat="48.86095" lon="2.28309">
        <ele>105.2</ele>
        <time>2013-02-18T21:15:11.000Z</time>
      </trkpt>
      <trkpt lat="48.86094" lon="2.28313">
        <ele>105.3</ele>
        <time>2013-02-18T21:15:12.000Z</time>
      </trkpt>
      <trkpt lat="48.86094" lon="2.28317">
        <ele>105.1</ele>
        <time>2013-02-18T21:15:13.000Z</time>
      </trkpt>
      <trkpt lat="48.86095" lon="2.28322">
        <ele>105</ele>
        <time>2013-02-18T21:15:14.000Z</time>
      </trkpt>
      <trkpt lat="48.86095" lon="2.28326">
        <ele>104.7</ele>
        <time>2013-02-18T21:15:15.000Z</time>
      </trkpt>
      <trkpt lat="48.86096" lon="2.28331">
        <ele>105.7</ele>
        <time>2013-02-18T21:15:16.000Z</time>
      </trkpt>
      <trkpt lat="48.86097" lon="2.28335">
        <ele>105.4</ele>
        <time>2013-02-18T21:15:17.000Z</time>
      </trkpt>
      <trkpt lat="48.86098" lon="2.28339">
        <ele>105.6</ele>
        <time>2013-02-18T21:15:18.000Z</time>
      </trkpt>
      <trkpt lat="48.861" lon="2.28342">
        <ele>106</ele>
        <time>2013-02-18T21:15:19.000Z</time>
      </trkpt>
      <trkpt lat="48.86102" lon="2.28346">
        <ele>106.5</ele>
        <time>2013-02-18T21:15:21.000Z</time>
      </trkpt>
      <trkpt lat="48.86103" lon="2.28348">
        <ele>106.2</ele>
        <time>2013-02-18T21:15:22.000Z</time>
      </trkpt>
      <trkpt lat="48.86105" lon="2.28353">
        <ele>107.4</ele>
        <time>2013-02-18T21:15:25.000Z</time>
      </trkpt>
      <trkpt lat="48.86105" lon="2.28354">
        <ele>108</ele>
        <time>2013-02-18T21:15:26.000Z</time>
      </trkpt>
      <trkpt lat="48.86109" lon="2.28356">
        <ele>119</ele>
        <time>2013-02-18T21:15:39.000Z</time>
      </trkpt>
      <trkpt lat="48.8611" lon="2.28356">
        <ele>119.2</ele>
        <time>2013-02-18T21:15:40.000Z</time>
      </trkpt>
      <trkpt lat="48.86113" lon="2.2836">
        <ele>121.4</ele>
        <time>2013-02-18T21:15:50.000Z</time>
      </trkpt>
      <trkpt lat="48.86113" lon="2.28362">
        <ele>121.8</ele>
        <time>2013-02-18T21:15:51.000Z</time>
      </trkpt>
      <trkpt lat="48.86116" lon="2.28366">
        <ele>121.8</ele>
        <time>2013-02-18T21:15:54.000Z</time>
      </trkpt>
      <trkpt lat="48.86116" lon="2.28367">
        <ele>121.7</ele>
        <time>2013-02-18T21:15:55.000Z</time>
      </trkpt>
      <trkpt lat="48.86117" lon="2.28373">
        <ele>119.3</ele>
        <time>2013-02-18T21:15:59.000Z</time>
      </trkpt>
      <trkpt lat="48.86117" lon="2.28375">
        <ele>119.4</ele>
        <time>2013-02-18T21:16:00.000Z</time>
      </trkpt>
      <trkpt lat="48.86121" lon="2.28377">
        <ele>124.3</ele>
        <time>2013-02-18T21:16:09.000Z</time>
      </trkpt>
      <trkpt lat="48.86122" lon="2.28377">
        <ele>124.8</ele>
        <time>2013-02-18T21:16:10.000Z</time>
      </trkpt>
      <trkpt lat="48.86123" lon="2.28383">
        <ele>121.3</ele>
        <time>2013-02-18T21:16:19.000Z</time>
      </trkpt>
      <trkpt lat="48.86123" lon="2.28385">
        <ele>120.5</ele>
        <time>2013-02-18T21:16:20.000Z</time>
      </trkpt>
      <trkpt lat="48.86124" lon="2.28391">
        <ele>118.8</ele>
        <time>2013-02-18T21:16:22.000Z</time>
      </trkpt>
      <trkpt lat="48.86125" lon="2.28396">
        <ele>118.5</ele>
        <time>2013-02-18T21:16:23.999Z</time>
      </trkpt>
      <trkpt lat="48.86126" lon="2.28401">
        <ele>118.2</ele>
        <time>2013-02-18T21:16:25.000Z</time>
      </trkpt>
      <trkpt lat="48.86127" lon="2.28405">
        <ele>118.3</ele>
        <time>2013-02-18T21:16:26.000Z</time>
      </trkpt>
      <trkpt lat="48.86128" lon="2.2841">
        <ele>118.6</ele>
        <time>2013-02-18T21:16:27.000Z</time>
      </trkpt>
      <trkpt lat="48.86129" lon="2.28414">
        <ele>118.4</ele>
        <time>2013-02-18T21:16:28.000Z</time>
      </trkpt>
      <trkpt lat="48.86131" lon="2.28419">
        <ele>117.7</ele>
        <time>2013-02-18T21:16:29.000Z</time>
      </trkpt>
      <trkpt lat="48.86133" lon="2.28423">
        <ele>116</ele>
        <time>2013-02-18T21:16:30.000Z</time>
      </trkpt>
      <trkpt lat="48.86135" lon="2.28428">
        <ele>113.2</ele>
        <time>2013-02-18T21:16:31.000Z</time>
      </trkpt>
      <trkpt lat="48.86139" lon="2.28434">
        <ele>111.6</ele>
        <time>2013-02-18T21:16:32.000Z</time>
      </trkpt>
      <trkpt lat="48.86142" lon="2.2844">
        <ele>111.6</ele>
        <time>2013-02-18T21:16:33.000Z</time>
      </trkpt>
      <trkpt lat="48.86145" lon="2.28445">
        <ele>110.8</ele>
        <time>2013-02-18T21:16:34.000Z</time>
      </trkpt>
      <trkpt lat="48.86147" lon="2.28451">
        <ele>109.4</ele>
        <time>2013-02-18T21:16:35.000Z</time>
      </trkpt>
      <trkpt lat="48.86149" lon="2.28456">
        <ele>108.6</ele>
        <time>2013-02-18T21:16:36.000Z</time>
      </trkpt>
      <trkpt lat="48.86151" lon="2.28462">
        <ele>107.8</ele>
        <time>2013-02-18T21:16:37.000Z</time>
      </trkpt>
      <trkpt lat="48.86153" lon="2.28469">
        <ele>107.7</ele>
        <time>2013-02-18T21:16:38.000Z</time>
      </trkpt>
      <trkpt lat="48.86155" lon="2.28476">
        <ele>107.2</ele>
        <time>2013-02-18T21:16:39.000Z</time>
      </trkpt>
      <trkpt lat="48.86157" lon="2.28482">
        <ele>105.7</ele>
        <time>2013-02-18T21:16:40.000Z</time>
      </trkpt>
      <trkpt lat="48.86159" lon="2.28489">
        <ele>105.7</ele>
        <time>2013-02-18T21:16:41.000Z</time>
      </trkpt>
      <trkpt lat="48.86161" lon="2.28496">
        <ele>105.9</ele>
        <time>2013-02-18T21:16:42.000Z</time>
      </trkpt>
      <trkpt lat="48.86163" lon="2.28503">
        <ele>104.6</ele>
        <time>2013-02-18T21:16:43.000Z</time>
      </trkpt>
      <trkpt lat="48.86163" lon="2.28518">
        <ele>104.1</ele>
        <time>2013-02-18T21:16:44.000Z</time>
      </trkpt>
      <trkpt lat="48.86164" lon="2.28527">
        <ele>102.8</ele>
        <time>2013-02-18T21:16:45.000Z</time>
      </trkpt>
      <trkpt lat="48.86165" lon="2.28535">
        <ele>102</ele>
        <time>2013-02-18T21:16:46.000Z</time>
      </trkpt>
      <trkpt lat="48.86167" lon="2.28543">
        <ele>102.3</ele>
        <time>2013-02-18T21:16:47.000Z</time>
      </trkpt>
      <trkpt lat="48.8617" lon="2.28552">
        <ele>102.5</ele>
        <time>2013-02-18T21:16:48.000Z</time>
      </trkpt>
      <trkpt lat="48.86172" lon="2.2856">
        <ele>102.3</ele>
        <time>2013-02-18T21:16:49.000Z</time>
      </trkpt>
      <trkpt lat="48.86175" lon="2.28567">
        <ele>102.4</ele>
        <time>2013-02-18T21:16:50.000Z</time>
      </trkpt>
      <trkpt lat="48.86177" lon="2.28575">
        <ele>102.9</ele>
        <time>2013-02-18T21:16:51.000Z</time>
      </trkpt>
      <trkpt lat="48.8618" lon="2.28582">
        <ele>103.7</ele>
        <time>2013-02-18T21:16:52.000Z</time>
      </trkpt>
      <trkpt lat="48.86182" lon="2.2859">
        <ele>104</ele>
        <time>2013-02-18T21:16:53.000Z</time>
      </trkpt>
      <trkpt lat="48.86185" lon="2.28597">
        <ele>104.2</ele>
        <time>2013-02-18T21:16:54.000Z</time>
      </trkpt>
      <trkpt lat="48.86186" lon="2.28603">
        <ele>104.1</ele>
        <time>2013-02-18T21:16:55.000Z</time>
      </trkpt>
      <trkpt lat="48.86188" lon="2.28611">
        <ele>104.8</ele>
        <time>2013-02-18T21:16:56.000Z</time>
      </trkpt>
      <trkpt lat="48.8619" lon="2.28614">
        <ele>103.1</ele>
        <time>2013-02-18T21:16:57.000Z</time>
      </trkpt>
      <trkpt lat="48.86191" lon="2.28619">
        <ele>103</ele>
        <time>2013-02-18T21:16:58.000Z</time>
      </trkpt>
      <trkpt lat="48.86192" lon="2.28624">
        <ele>103.3</ele>
        <time>2013-02-18T21:16:59.000Z</time>
      </trkpt>
      <trkpt lat="48.86194" lon="2.2863">
        <ele>103.3</ele>
        <time>2013-02-18T21:17:00.000Z</time>
      </trkpt>
      <trkpt lat="48.86195" lon="2.28634">
        <ele>104.7</ele>
        <time>2013-02-18T21:17:01.000Z</time>
      </trkpt>
      <trkpt lat="48.86198" lon="2.28641">
        <ele>106.4</ele>
        <time>2013-02-18T21:17:02.000Z</time>
      </trkpt>
      <trkpt lat="48.86199" lon="2.28647">
        <ele>107.1</ele>
        <time>2013-02-18T21:17:03.000Z</time>
      </trkpt>
      <trkpt lat="48.86199" lon="2.28651">
        <ele>107.5</ele>
        <time>2013-02-18T21:17:04.000Z</time>
      </trkpt>
      <trkpt lat="48.86199" lon="2.28656">
        <ele>107.6</ele>
        <time>2013-02-18T21:17:05.000Z</time>
      </trkpt>
      <trkpt lat="48.862" lon="2.28658">
        <ele>107.9</ele>
        <time>2013-02-18T21:17:06.000Z</time>
      </trkpt>
      <trkpt lat="48.862" lon="2.28664">
        <ele>107</ele>
        <time>2013-02-18T21:17:10.000Z</time>
      </trkpt>
      <trkpt lat="48.86201" lon="2.28666">
        <ele>107.8</ele>
        <time>2013-02-18T21:17:11.000Z</time>
      </trkpt>
      <trkpt lat="48.86203" lon="2.28671">
        <ele>107.3</ele>
        <time>2013-02-18T21:17:13.000Z</time>
      </trkpt>
      <trkpt lat="48.86204" lon="2.28673">
        <ele>107.3</ele>
        <time>2013-02-18T21:17:14.000Z</time>
      </trkpt>
      <trkpt lat="48.86206" lon="2.28678">
        <ele>107.1</ele>
        <time>2013-02-18T21:17:15.000Z</time>
      </trkpt>
      <trkpt lat="48.86208" lon="2.28682">
        <ele>107</ele>
        <time>2013-02-18T21:17:16.000Z</time>
      </trkpt>
      <trkpt lat="48.8621" lon="2.28687">
        <ele>106.6</ele>
        <time>2013-02-18T21:17:17.000Z</time>
      </trkpt>
      <trkpt lat="48.86212" lon="2.28691">
        <ele>106.4</ele>
        <time>2013-02-18T21:17:18.000Z</time>
      </trkpt>
      <trkpt lat="48.86214" lon="2.28696">
        <ele>106.5</ele>
        <time>2013-02-18T21:17:19.000Z</time>
      </trkpt>
      <trkpt lat="48.86216" lon="2.28701">
        <ele>106.7</ele>
        <time>2013-02-18T21:17:20.000Z</time>
      </trkpt>
      <trkpt lat="48.86218" lon="2.28706">
        <ele>106.8</ele>
        <time>2013-02-18T21:17:21.000Z</time>
      </trkpt>
      <trkpt lat="48.8622" lon="2.2871">
        <ele>106.3</ele>
        <time>2013-02-18T21:17:22.000Z</time>
      </trkpt>
      <trkpt lat="48.86225" lon="2.28723">
        <ele>103.5</ele>
        <time>2013-02-18T21:17:25.000Z</time>
      </trkpt>
      <trkpt lat="48.86226" lon="2.28727">
        <ele>102.3</ele>
        <time>2013-02-18T21:17:26.000Z</time>
      </trkpt>
      <trkpt lat="48.86226" lon="2.28731">
        <ele>101.9</ele>
        <time>2013-02-18T21:17:27.000Z</time>
      </trkpt>
      <trkpt lat="48.86226" lon="2.28735">
        <ele>100.8</ele>
        <time>2013-02-18T21:17:28.000Z</time>
      </trkpt>
      <trkpt lat="48.86228" lon="2.28738">
        <ele>101.5</ele>
        <time>2013-02-18T21:17:29.000Z</time>
      </trkpt>
      <trkpt lat="48.86231" lon="2.28742">
        <ele>101.6</ele>
        <time>2013-02-18T21:17:30.000Z</time>
      </trkpt>
      <trkpt lat="48.86235" lon="2.28745">
        <ele>103.1</ele>
        <time>2013-02-18T21:17:31.000Z</time>
      </trkpt>
      <trkpt lat="48.86239" lon="2.28748">
        <ele>103.4</ele>
        <time>2013-02-18T21:17:32.000Z</time>
      </trkpt>
      <trkpt lat="48.86244" lon="2.28753">
        <ele>104.2</ele>
        <time>2013-02-18T21:17:33.000Z</time>
      </trkpt>
      <trkpt lat="48.86249" lon="2.28757">
        <ele>104.9</ele>
        <time>2013-02-18T21:17:34.000Z</time>
      </trkpt>
      <trkpt lat="48.86254" lon="2.28761">
        <ele>105.1</ele>
        <time>2013-02-18T21:17:35.000Z</time>
      </trkpt>
      <trkpt lat="48.86259" lon="2.28764">
        <ele>105.2</ele>
        <time>2013-02-18T21:17:36.000Z</time>
      </trkpt>
      <trkpt lat="48.86263" lon="2.28768">
        <ele>105.2</ele>
        <time>2013-02-18T21:17:37.000Z</time>
      </trkpt>
      <trkpt lat="48.86267" lon="2.28772">
        <ele>105.3</ele>
        <time>2013-02-18T21:17:38.000Z</time>
      </trkpt>
      <trkpt lat="48.8627" lon="2.28776">
        <ele>104.9</ele>
        <time>2013-02-18T21:17:39.000Z</time>
      </trkpt>
      <trkpt lat="48.86273" lon="2.28781">
        <ele>106</ele>
        <time>2013-02-18T21:17:40.000Z</time>
      </trkpt>
      <trkpt lat="48.86276" lon="2.28786">
        <ele>106.4</ele>
        <time>2013-02-18T21:17:41.000Z</time>
      </trkpt>
      <trkpt lat="48.86278" lon="2.2879">
        <ele>107</ele>
        <time>2013-02-18T21:17:42.000Z</time>
      </trkpt>
      <trkpt lat="48.8628" lon="2.28794">
        <ele>107.2</ele>
        <time>2013-02-18T21:17:43.000Z</time>
      </trkpt>
      <trkpt lat="48.86282" lon="2.28799">
        <ele>108.8</ele>
        <time>2013-02-18T21:17:44.000Z</time>
      </trkpt>
      <trkpt lat="48.86284" lon="2.28803">
        <ele>110.1</ele>
        <time>2013-02-18T21:17:45.000Z</time>
      </trkpt>
      <trkpt lat="48.86287" lon="2.28806">
        <ele>110.5</ele>
        <time>2013-02-18T21:17:46.000Z</time>
      </trkpt>
      <trkpt lat="48.8629" lon="2.28809">
        <ele>111.4</ele>
        <time>2013-02-18T21:17:47.000Z</time>
      </trkpt>
      <trkpt lat="48.86293" lon="2.28812">
        <ele>112.1</ele>
        <time>2013-02-18T21:17:48.000Z</time>
      </trkpt>
      <trkpt lat="48.86296" lon="2.28815">
        <ele>113.2</ele>
        <time>2013-02-18T21:17:49.000Z</time>
      </trkpt>
      <trkpt lat="48.86298" lon="2.28818">
        <ele>111.8</ele>
        <time>2013-02-18T21:17:50.000Z</time>
      </trkpt>
      <trkpt lat="48.863" lon="2.28819">
        <ele>113</ele>
        <time>2013-02-18T21:17:51.000Z</time>
      </trkpt>
      <trkpt lat="48.86303" lon="2.28822">
        <ele>113</ele>
        <time>2013-02-18T21:17:53.000Z</time>
      </trkpt>
      <trkpt lat="48.86305" lon="2.28822">
        <ele>113.2</ele>
        <time>2013-02-18T21:17:54.000Z</time>
      </trkpt>
      <trkpt lat="48.86309" lon="2.28823">
        <ele>115.4</ele>
        <time>2013-02-18T21:17:56.000Z</time>
      </trkpt>
      <trkpt lat="48.8631" lon="2.28824">
        <ele>114.1</ele>
        <time>2013-02-18T21:17:57.000Z</time>
      </trkpt>
      <trkpt lat="48.86312" lon="2.2883">
        <ele>113.6</ele>
        <time>2013-02-18T21:18:48.000Z</time>
      </trkpt>
      <trkpt lat="48.86314" lon="2.28833">
        <ele>113.6</ele>
        <time>2013-02-18T21:18:49.000Z</time>
      </trkpt>
      <trkpt lat="48.86319" lon="2.28838">
        <ele>114</ele>
        <time>2013-02-18T21:18:50.000Z</time>
      </trkpt>
      <trkpt lat="48.86322" lon="2.28843">
        <ele>113.9</ele>
        <time>2013-02-18T21:18:51.000Z</time>
      </trkpt>
      <trkpt lat="48.86324" lon="2.28848">
        <ele>111.6</ele>
        <time>2013-02-18T21:18:52.000Z</time>
      </trkpt>
      <trkpt lat="48.86327" lon="2.28854">
        <ele>111.3</ele>
        <time>2013-02-18T21:18:53.000Z</time>
      </trkpt>
      <trkpt lat="48.8633" lon="2.2886">
        <ele>109.7</ele>
        <time>2013-02-18T21:18:54.000Z</time>
      </trkpt>
      <trkpt lat="48.86332" lon="2.28866">
        <ele>110</ele>
        <time>2013-02-18T21:18:55.000Z</time>
      </trkpt>
      <trkpt lat="48.86333" lon="2.28872">
        <ele>108.5</ele>
        <time>2013-02-18T21:18:56.000Z</time>
      </trkpt>
      <trkpt lat="48.86335" lon="2.28878">
        <ele>108.1</ele>
        <time>2013-02-18T21:18:57.000Z</time>
      </trkpt>
      <trkpt lat="48.86337" lon="2.28884">
        <ele>107.3</ele>
        <time>2013-02-18T21:18:58.000Z</time>
      </trkpt>
      <trkpt lat="48.86338" lon="2.2889">
        <ele>106.8</ele>
        <time>2013-02-18T21:18:59.000Z</time>
      </trkpt>
      <trkpt lat="48.8634" lon="2.28897">
        <ele>107.1</ele>
        <time>2013-02-18T21:19:00.000Z</time>
      </trkpt>
      <trkpt lat="48.86342" lon="2.28903">
        <ele>106.6</ele>
        <time>2013-02-18T21:19:01.000Z</time>
      </trkpt>
      <trkpt lat="48.86344" lon="2.28909">
        <ele>107.3</ele>
        <time>2013-02-18T21:19:02.000Z</time>
      </trkpt>
      <trkpt lat="48.86346" lon="2.28915">
        <ele>106.1</ele>
        <time>2013-02-18T21:19:03.000Z</time>
      </trkpt>
      <trkpt lat="48.86347" lon="2.28922">
        <ele>106.6</ele>
        <time>2013-02-18T21:19:04.000Z</time>
      </trkpt>
      <trkpt lat="48.86349" lon="2.28934">
        <ele>105.6</ele>
        <time>2013-02-18T21:19:05.000Z</time>
      </trkpt>
      <trkpt lat="48.86351" lon="2.28943">
        <ele>105.2</ele>
        <time>2013-02-18T21:19:06.000Z</time>
      </trkpt>
      <trkpt lat="48.86353" lon="2.28951">
        <ele>105</ele>
        <time>2013-02-18T21:19:07.000Z</time>
      </trkpt>
      <trkpt lat="48.86356" lon="2.28961">
        <ele>104.9</ele>
        <time>2013-02-18T21:19:08.000Z</time>
      </trkpt>
      <trkpt lat="48.86358" lon="2.2897">
        <ele>104.5</ele>
        <time>2013-02-18T21:19:09.000Z</time>
      </trkpt>
      <trkpt lat="48.86359" lon="2.28978">
        <ele>105.7</ele>
        <time>2013-02-18T21:19:10.000Z</time>
      </trkpt>
      <trkpt lat="48.86361" lon="2.28985">
        <ele>103.8</ele>
        <time>2013-02-18T21:19:11.000Z</time>
      </trkpt>
      <trkpt lat="48.86362" lon="2.28993">
        <ele>104</ele>
        <time>2013-02-18T21:19:12.000Z</time>
      </trkpt>
      <trkpt lat="48.86365" lon="2.29002">
        <ele>104.1</ele>
        <time>2013-02-18T21:19:13.000Z</time>
      </trkpt>
      <trkpt lat="48.86367" lon="2.29011">
        <ele>104.2</ele>
        <time>2013-02-18T21:19:14.000Z</time>
      </trkpt>
      <trkpt lat="48.86368" lon="2.2902">
        <ele>104.9</ele>
        <time>2013-02-18T21:19:15.000Z</time>
      </trkpt>
      <trkpt lat="48.8637" lon="2.29029">
        <ele>104.7</ele>
        <time>2013-02-18T21:19:16.000Z</time>
      </trkpt>
      <trkpt lat="48.86372" lon="2.29038">
        <ele>103.9</ele>
        <time>2013-02-18T21:19:17.000Z</time>
      </trkpt>
      <trkpt lat="48.86376" lon="2.29049">
        <ele>103.6</ele>
        <time>2013-02-18T21:19:18.000Z</time>
      </trkpt>
      <trkpt lat="48.86378" lon="2.2906">
        <ele>103.4</ele>
        <time>2013-02-18T21:19:19.000Z</time>
      </trkpt>
      <trkpt lat="48.86381" lon="2.29068">
        <ele>101.5</ele>
        <time>2013-02-18T21:19:20.000Z</time>
      </trkpt>
      <trkpt lat="48.86383" lon="2.29077">
        <ele>101.8</ele>
        <time>2013-02-18T21:19:21.000Z</time>
      </trkpt>
      <trkpt lat="48.86386" lon="2.29086">
        <ele>101.2</ele>
        <time>2013-02-18T21:19:22.000Z</time>
      </trkpt>
      <trkpt lat="48.8639" lon="2.29101">
        <ele>101.2</ele>
        <time>2013-02-18T21:19:23.759Z</time>
      </trkpt>
      <trkpt lat="48.86393" lon="2.29113">
        <ele>101.3</ele>
        <time>2013-02-18T21:19:25.000Z</time>
      </trkpt>
      <trkpt lat="48.86396" lon="2.29122">
        <ele>101.5</ele>
        <time>2013-02-18T21:19:26.000Z</time>
      </trkpt>
      <trkpt lat="48.86399" lon="2.29131">
        <ele>102.2</ele>
        <time>2013-02-18T21:19:27.000Z</time>
      </trkpt>
      <trkpt lat="48.86402" lon="2.29142">
        <ele>101.6</ele>
        <time>2013-02-18T21:19:28.000Z</time>
      </trkpt>
      <trkpt lat="48.86405" lon="2.29152">
        <ele>101.4</ele>
        <time>2013-02-18T21:19:29.000Z</time>
      </trkpt>
      <trkpt lat="48.86407" lon="2.29162">
        <ele>100.4</ele>
        <time>2013-02-18T21:19:30.000Z</time>
      </trkpt>
      <trkpt lat="48.86408" lon="2.29171">
        <ele>99.4</ele>
        <time>2013-02-18T21:19:31.000Z</time>
      </trkpt>
      <trkpt lat="48.8641" lon="2.29179">
        <ele>98.7</ele>
        <time>2013-02-18T21:19:32.000Z</time>
      </trkpt>
      <trkpt lat="48.86414" lon="2.29189">
        <ele>99.3</ele>
        <time>2013-02-18T21:19:33.000Z</time>
      </trkpt>
      <trkpt lat="48.86417" lon="2.29199">
        <ele>100</ele>
        <time>2013-02-18T21:19:34.000Z</time>
      </trkpt>
      <trkpt lat="48.86421" lon="2.29209">
        <ele>98.8</ele>
        <time>2013-02-18T21:19:35.000Z</time>
      </trkpt>
      <trkpt lat="48.86423" lon="2.29219">
        <ele>97.8</ele>
        <time>2013-02-18T21:19:36.000Z</time>
      </trkpt>
      <trkpt lat="48.86426" lon="2.29229">
        <ele>97.9</ele>
        <time>2013-02-18T21:19:37.000Z</time>
      </trkpt>
      <trkpt lat="48.86427" lon="2.2924">
        <ele>98.3</ele>
        <time>2013-02-18T21:19:38.000Z</time>
      </trkpt>
      <trkpt lat="48.8643" lon="2.2925">
        <ele>97.9</ele>
        <time>2013-02-18T21:19:39.000Z</time>
      </trkpt>
      <trkpt lat="48.86432" lon="2.29259">
        <ele>97.5</ele>
        <time>2013-02-18T21:19:40.000Z</time>
      </trkpt>
      <trkpt lat="48.86435" lon="2.29267">
        <ele>97.6</ele>
        <time>2013-02-18T21:19:41.000Z</time>
      </trkpt>
      <trkpt lat="48.86438" lon="2.29276">
        <ele>97.4</ele>
        <time>2013-02-18T21:19:42.000Z</time>
      </trkpt>
      <trkpt lat="48.86442" lon="2.29286">
        <ele>97.9</ele>
        <time>2013-02-18T21:19:43.000Z</time>
      </trkpt>
      <trkpt lat="48.86444" lon="2.29293">
        <ele>97.6</ele>
        <time>2013-02-18T21:19:44.000Z</time>
      </trkpt>
      <trkpt lat="48.86447" lon="2.29298">
        <ele>97.5</ele>
        <time>2013-02-18T21:19:45.000Z</time>
      </trkpt>
      <trkpt lat="48.86447" lon="2.29306">
        <ele>97.4</ele>
        <time>2013-02-18T21:19:46.000Z</time>
      </trkpt>
      <trkpt lat="48.86447" lon="2.29313">
        <ele>97.6</ele>
        <time>2013-02-18T21:19:47.000Z</time>
      </trkpt>
      <trkpt lat="48.86448" lon="2.29319">
        <ele>95.1</ele>
        <time>2013-02-18T21:19:48.000Z</time>
      </trkpt>
      <trkpt lat="48.86449" lon="2.29324">
        <ele>94.5</ele>
        <time>2013-02-18T21:19:49.000Z</time>
      </trkpt>
      <trkpt lat="48.86451" lon="2.2933">
        <ele>95.2</ele>
        <time>2013-02-18T21:19:50.000Z</time>
      </trkpt>
      <trkpt lat="48.86452" lon="2.29335">
        <ele>93.9</ele>
        <time>2013-02-18T21:19:51.000Z</time>
      </trkpt>
      <trkpt lat="48.86453" lon="2.29343">
        <ele>94.2</ele>
        <time>2013-02-18T21:19:52.000Z</time>
      </trkpt>
      <trkpt lat="48.86454" lon="2.29349">
        <ele>92.8</ele>
        <time>2013-02-18T21:19:53.000Z</time>
      </trkpt>
      <trkpt lat="48.86456" lon="2.29355">
        <ele>92.7</ele>
        <time>2013-02-18T21:19:54.000Z</time>
      </trkpt>
      <trkpt lat="48.86458" lon="2.29363">
        <ele>92.8</ele>
        <time>2013-02-18T21:19:55.000Z</time>
      </trkpt>
      <trkpt lat="48.8646" lon="2.29372">
        <ele>97.7</ele>
        <time>2013-02-18T21:19:56.000Z</time>
      </trkpt>
      <trkpt lat="48.86461" lon="2.2938">
        <ele>96.8</ele>
        <time>2013-02-18T21:19:57.000Z</time>
      </trkpt>
      <trkpt lat="48.86463" lon="2.29388">
        <ele>95.9</ele>
        <time>2013-02-18T21:19:58.000Z</time>
      </trkpt>
      <trkpt lat="48.86464" lon="2.29396">
        <ele>95.3</ele>
        <time>2013-02-18T21:19:59.000Z</time>
      </trkpt>
      <trkpt lat="48.86466" lon="2.29404">
        <ele>95.2</ele>
        <time>2013-02-18T21:20:00.000Z</time>
      </trkpt>
      <trkpt lat="48.86469" lon="2.29413">
        <ele>95.2</ele>
        <time>2013-02-18T21:20:01.000Z</time>
      </trkpt>
      <trkpt lat="48.86472" lon="2.2942">
        <ele>94.9</ele>
        <time>2013-02-18T21:20:02.000Z</time>
      </trkpt>
      <trkpt lat="48.86473" lon="2.29428">
        <ele>94.2</ele>
        <time>2013-02-18T21:20:03.000Z</time>
      </trkpt>
      <trkpt lat="48.86476" lon="2.29433">
        <ele>93.8</ele>
        <time>2013-02-18T21:20:04.000Z</time>
      </trkpt>
      <trkpt lat="48.86479" lon="2.29441">
        <ele>93.7</ele>
        <time>2013-02-18T21:20:05.000Z</time>
      </trkpt>
      <trkpt lat="48.8648" lon="2.29448">
        <ele>93.4</ele>
        <time>2013-02-18T21:20:06.000Z</time>
      </trkpt>
      <trkpt lat="48.86481" lon="2.29456">
        <ele>92.9</ele>
        <time>2013-02-18T21:20:07.000Z</time>
      </trkpt>
      <trkpt lat="48.86483" lon="2.29466">
        <ele>92.5</ele>
        <time>2013-02-18T21:20:08.000Z</time>
      </trkpt>
      <trkpt lat="48.86483" lon="2.29473">
        <ele>91.7</ele>
        <time>2013-02-18T21:20:09.000Z</time>
      </trkpt>
      <trkpt lat="48.86487" lon="2.29484">
        <ele>92.4</ele>
        <time>2013-02-18T21:20:10.000Z</time>
      </trkpt>
      <trkpt lat="48.86486" lon="2.29495">
        <ele>92.6</ele>
        <time>2013-02-18T21:20:11.000Z</time>
      </trkpt>
      <trkpt lat="48.86483" lon="2.29504">
        <ele>92.9</ele>
        <time>2013-02-18T21:20:12.000Z</time>
      </trkpt>
      <trkpt lat="48.86486" lon="2.29513">
        <ele>92.9</ele>
        <time>2013-02-18T21:20:13.000Z</time>
      </trkpt>
      <trkpt lat="48.86488" lon="2.29524">
        <ele>92.8</ele>
        <time>2013-02-18T21:20:14.000Z</time>
      </trkpt>
      <trkpt lat="48.86486" lon="2.29534">
        <ele>91.4</ele>
        <time>2013-02-18T21:20:15.000Z</time>
      </trkpt>
      <trkpt lat="48.86481" lon="2.29544">
        <ele>89.2</ele>
        <time>2013-02-18T21:20:16.000Z</time>
      </trkpt>
      <trkpt lat="48.86481" lon="2.29556">
        <ele>88.1</ele>
        <time>2013-02-18T21:20:17.000Z</time>
      </trkpt>
      <trkpt lat="48.86479" lon="2.29566">
        <ele>88.2</ele>
        <time>2013-02-18T21:20:18.000Z</time>
      </trkpt>
      <trkpt lat="48.86479" lon="2.29578">
        <ele>93.2</ele>
        <time>2013-02-18T21:20:19.000Z</time>
      </trkpt>
      <trkpt lat="48.86481" lon="2.29588">
        <ele>91</ele>
        <time>2013-02-18T21:20:20.000Z</time>
      </trkpt>
      <trkpt lat="48.86482" lon="2.29597">
        <ele>89.1</ele>
        <time>2013-02-18T21:20:21.000Z</time>
      </trkpt>
      <trkpt lat="48.86483" lon="2.29606">
        <ele>87.4</ele>
        <time>2013-02-18T21:20:22.000Z</time>
      </trkpt>
      <trkpt lat="48.86484" lon="2.29635">
        <ele>86.9</ele>
        <time>2013-02-18T21:20:25.000Z</time>
      </trkpt>
      <trkpt lat="48.86485" lon="2.29645">
        <ele>86.5</ele>
        <time>2013-02-18T21:20:26.000Z</time>
      </trkpt>
      <trkpt lat="48.86483" lon="2.29655">
        <ele>85.6</ele>
        <time>2013-02-18T21:20:27.000Z</time>
      </trkpt>
      <trkpt lat="48.86485" lon="2.29667">
        <ele>85.9</ele>
        <time>2013-02-18T21:20:28.000Z</time>
      </trkpt>
      <trkpt lat="48.86486" lon="2.29676">
        <ele>84.3</ele>
        <time>2013-02-18T21:20:29.000Z</time>
      </trkpt>
      <trkpt lat="48.86486" lon="2.29687">
        <ele>84.4</ele>
        <time>2013-02-18T21:20:30.000Z</time>
      </trkpt>
      <trkpt lat="48.86486" lon="2.29697">
        <ele>84</ele>
        <time>2013-02-18T21:20:31.000Z</time>
      </trkpt>
      <trkpt lat="48.86485" lon="2.29708">
        <ele>84.1</ele>
        <time>2013-02-18T21:20:32.000Z</time>
      </trkpt>
      <trkpt lat="48.86486" lon="2.29718">
        <ele>84.5</ele>
        <time>2013-02-18T21:20:33.000Z</time>
      </trkpt>
      <trkpt lat="48.86487" lon="2.2973">
        <ele>84.3</ele>
        <time>2013-02-18T21:20:34.000Z</time>
      </trkpt>
      <trkpt lat="48.86487" lon="2.29744">
        <ele>84.5</ele>
        <time>2013-02-18T21:20:35.000Z</time>
      </trkpt>
      <trkpt lat="48.86489" lon="2.29755">
        <ele>84.2</ele>
        <time>2013-02-18T21:20:36.000Z</time>
      </trkpt>
      <trkpt lat="48.8649" lon="2.29766">
        <ele>83.9</ele>
        <time>2013-02-18T21:20:37.000Z</time>
      </trkpt>
      <trkpt lat="48.86491" lon="2.29778">
        <ele>83.6</ele>
        <time>2013-02-18T21:20:38.000Z</time>
      </trkpt>
      <trkpt lat="48.86494" lon="2.29792">
        <ele>83.9</ele>
        <time>2013-02-18T21:20:39.000Z</time>
      </trkpt>
      <trkpt lat="48.86495" lon="2.29803">
        <ele>83.9</ele>
        <time>2013-02-18T21:20:40.000Z</time>
      </trkpt>
      <trkpt lat="48.86499" lon="2.29818">
        <ele>84.1</ele>
        <time>2013-02-18T21:20:41.000Z</time>
      </trkpt>
      <trkpt lat="48.865" lon="2.29831">
        <ele>84.5</ele>
        <time>2013-02-18T21:20:42.000Z</time>
      </trkpt>
      <trkpt lat="48.86502" lon="2.29844">
        <ele>84.6</ele>
        <time>2013-02-18T21:20:43.000Z</time>
      </trkpt>
      <trkpt lat="48.86506" lon="2.29856">
        <ele>85</ele>
        <time>2013-02-18T21:20:44.000Z</time>
      </trkpt>
      <trkpt lat="48.86508" lon="2.29865">
        <ele>85.2</ele>
        <time>2013-02-18T21:20:45.000Z</time>
      </trkpt>
      <trkpt lat="48.86504" lon="2.29872">
        <ele>85.4</ele>
        <time>2013-02-18T21:20:46.000Z</time>
      </trkpt>
      <trkpt lat="48.86501" lon="2.29885">
        <ele>85.9</ele>
        <time>2013-02-18T21:20:47.000Z</time>
      </trkpt>
      <trkpt lat="48.86497" lon="2.29896">
        <ele>86.4</ele>
        <time>2013-02-18T21:20:48.000Z</time>
      </trkpt>
      <trkpt lat="48.86499" lon="2.29907">
        <ele>87.1</ele>
        <time>2013-02-18T21:20:49.000Z</time>
      </trkpt>
      <trkpt lat="48.86502" lon="2.29914">
        <ele>87.2</ele>
        <time>2013-02-18T21:20:50.000Z</time>
      </trkpt>
      <trkpt lat="48.86504" lon="2.29922">
        <ele>87.3</ele>
        <time>2013-02-18T21:20:51.000Z</time>
      </trkpt>
      <trkpt lat="48.86505" lon="2.29932">
        <ele>88.5</ele>
        <time>2013-02-18T21:20:52.000Z</time>
      </trkpt>
      <trkpt lat="48.86504" lon="2.29942">
        <ele>89.7</ele>
        <time>2013-02-18T21:20:53.000Z</time>
      </trkpt>
      <trkpt lat="48.86504" lon="2.29952">
        <ele>90.1</ele>
        <time>2013-02-18T21:20:54.000Z</time>
      </trkpt>
      <trkpt lat="48.86504" lon="2.29959">
        <ele>90.7</ele>
        <time>2013-02-18T21:20:55.000Z</time>
      </trkpt>
      <trkpt lat="48.86502" lon="2.29968">
        <ele>91.8</ele>
        <time>2013-02-18T21:20:56.000Z</time>
      </trkpt>
      <trkpt lat="48.86502" lon="2.29974">
        <ele>92.3</ele>
        <time>2013-02-18T21:20:57.000Z</time>
      </trkpt>
      <trkpt lat="48.865" lon="2.29982">
        <ele>92.4</ele>
        <time>2013-02-18T21:20:58.000Z</time>
      </trkpt>
      <trkpt lat="48.86499" lon="2.29988">
        <ele>92.8</ele>
        <time>2013-02-18T21:20:59.000Z</time>
      </trkpt>
      <trkpt lat="48.865" lon="2.2999">
        <ele>91.5</ele>
        <time>2013-02-18T21:21:00.000Z</time>
      </trkpt>
      <trkpt lat="48.86499" lon="2.29994">
        <ele>91.2</ele>
        <time>2013-02-18T21:21:01.000Z</time>
      </trkpt>
      <trkpt lat="48.86497" lon="2.29999">
        <ele>90.9</ele>
        <time>2013-02-18T21:21:02.000Z</time>
      </trkpt>
      <trkpt lat="48.86495" lon="2.30003">
        <ele>90.9</ele>
        <time>2013-02-18T21:21:03.000Z</time>
      </trkpt>
      <trkpt lat="48.86497" lon="2.30006">
        <ele>91.5</ele>
        <time>2013-02-18T21:21:04.000Z</time>
      </trkpt>
      <trkpt lat="48.86494" lon="2.30012">
        <ele>92.5</ele>
        <time>2013-02-18T21:21:07.000Z</time>
      </trkpt>
      <trkpt lat="48.86494" lon="2.30015">
        <ele>92.2</ele>
        <time>2013-02-18T21:21:08.000Z</time>
      </trkpt>
      <trkpt lat="48.86492" lon="2.30019">
        <ele>91.5</ele>
        <time>2013-02-18T21:21:09.000Z</time>
      </trkpt>
      <trkpt lat="48.86489" lon="2.30022">
        <ele>89.9</ele>
        <time>2013-02-18T21:21:10.000Z</time>
      </trkpt>
      <trkpt lat="48.86487" lon="2.30024">
        <ele>88.7</ele>
        <time>2013-02-18T21:21:11.000Z</time>
      </trkpt>
      <trkpt lat="48.86485" lon="2.30028">
        <ele>88.4</ele>
        <time>2013-02-18T21:21:12.000Z</time>
      </trkpt>
      <trkpt lat="48.86483" lon="2.30032">
        <ele>87.6</ele>
        <time>2013-02-18T21:21:13.000Z</time>
      </trkpt>
      <trkpt lat="48.86481" lon="2.30037">
        <ele>86.4</ele>
        <time>2013-02-18T21:21:14.000Z</time>
      </trkpt>
      <trkpt lat="48.86479" lon="2.30042">
        <ele>85.2</ele>
        <time>2013-02-18T21:21:15.000Z</time>
      </trkpt>
      <trkpt lat="48.86477" lon="2.30048">
        <ele>84.3</ele>
        <time>2013-02-18T21:21:16.000Z</time>
      </trkpt>
      <trkpt lat="48.86475" lon="2.30053">
        <ele>82.9</ele>
        <time>2013-02-18T21:21:17.000Z</time>
      </trkpt>
      <trkpt lat="48.86473" lon="2.30058">
        <ele>81.9</ele>
        <time>2013-02-18T21:21:18.000Z</time>
      </trkpt>
      <trkpt lat="48.8647" lon="2.30063">
        <ele>80.5</ele>
        <time>2013-02-18T21:21:19.000Z</time>
      </trkpt>
      <trkpt lat="48.86468" lon="2.30068">
        <ele>80.1</ele>
        <time>2013-02-18T21:21:20.000Z</time>
      </trkpt>
      <trkpt lat="48.86466" lon="2.30072">
        <ele>80.4</ele>
        <time>2013-02-18T21:21:21.000Z</time>
      </trkpt>
      <trkpt lat="48.86464" lon="2.30077">
        <ele>80.2</ele>
        <time>2013-02-18T21:21:22.000Z</time>
      </trkpt>
      <trkpt lat="48.86458" lon="2.3009">
        <ele>79.7</ele>
        <time>2013-02-18T21:21:25.000Z</time>
      </trkpt>
      <trkpt lat="48.86455" lon="2.30094">
        <ele>79</ele>
        <time>2013-02-18T21:21:26.000Z</time>
      </trkpt>
      <trkpt lat="48.86452" lon="2.30098">
        <ele>79.6</ele>
        <time>2013-02-18T21:21:27.000Z</time>
      </trkpt>
      <trkpt lat="48.8645" lon="2.30101">
        <ele>79.6</ele>
        <time>2013-02-18T21:21:28.000Z</time>
      </trkpt>
      <trkpt lat="48.86447" lon="2.30105">
        <ele>78.9</ele>
        <time>2013-02-18T21:21:29.000Z</time>
      </trkpt>
      <trkpt lat="48.86444" lon="2.30108">
        <ele>78.4</ele>
        <time>2013-02-18T21:21:30.000Z</time>
      </trkpt>
      <trkpt lat="48.86441" lon="2.30111">
        <ele>78.4</ele>
        <time>2013-02-18T21:21:31.000Z</time>
      </trkpt>
      <trkpt lat="48.86438" lon="2.30114">
        <ele>78.4</ele>
        <time>2013-02-18T21:21:32.000Z</time>
      </trkpt>
      <trkpt lat="48.86435" lon="2.30117">
        <ele>77.8</ele>
        <time>2013-02-18T21:21:33.000Z</time>
      </trkpt>
      <trkpt lat="48.86433" lon="2.3012">
        <ele>76.9</ele>
        <time>2013-02-18T21:21:34.000Z</time>
      </trkpt>
      <trkpt lat="48.86431" lon="2.30123">
        <ele>77.2</ele>
        <time>2013-02-18T21:21:35.000Z</time>
      </trkpt>
      <trkpt lat="48.86427" lon="2.30126">
        <ele>73.9</ele>
        <time>2013-02-18T21:21:38.000Z</time>
      </trkpt>
      <trkpt lat="48.86426" lon="2.30127">
        <ele>74.3</ele>
        <time>2013-02-18T21:21:39.000Z</time>
      </trkpt>
      <trkpt lat="48.86423" lon="2.3013">
        <ele>73.2</ele>
        <time>2013-02-18T21:21:41.000Z</time>
      </trkpt>
      <trkpt lat="48.86422" lon="2.30132">
        <ele>73.4</ele>
        <time>2013-02-18T21:21:42.000Z</time>
      </trkpt>
      <trkpt lat="48.86419" lon="2.30137">
        <ele>76.3</ele>
        <time>2013-02-18T21:21:43.000Z</time>
      </trkpt>
      <trkpt lat="48.86416" lon="2.30141">
        <ele>77.2</ele>
        <time>2013-02-18T21:21:44.000Z</time>
      </trkpt>
      <trkpt lat="48.86413" lon="2.30145">
        <ele>77.2</ele>
        <time>2013-02-18T21:21:45.000Z</time>
      </trkpt>
      <trkpt lat="48.86412" lon="2.30148">
        <ele>75.7</ele>
        <time>2013-02-18T21:21:46.000Z</time>
      </trkpt>
      <trkpt lat="48.86408" lon="2.30148">
        <ele>74</ele>
        <time>2013-02-18T21:21:55.000Z</time>
      </trkpt>
      <trkpt lat="48.86407" lon="2.30146">
        <ele>73.7</ele>
        <time>2013-02-18T21:21:56.000Z</time>
      </trkpt>
      <trkpt lat="48.86404" lon="2.30145">
        <ele>72.9</ele>
        <time>2013-02-18T21:22:12.000Z</time>
      </trkpt>
      <trkpt lat="48.86403" lon="2.30145">
        <ele>72.4</ele>
        <time>2013-02-18T21:22:13.000Z</time>
      </trkpt>
      <trkpt lat="48.86399" lon="2.30141">
        <ele>72.2</ele>
        <time>2013-02-18T21:22:42.000Z</time>
      </trkpt>
      <trkpt lat="48.86399" lon="2.30141">
        <ele>72</ele>
        <time>2013-02-18T21:22:43.000Z</time>
      </trkpt>
      <trkpt lat="48.86399" lon="2.30145">
        <ele>74.5</ele>
        <time>2013-02-18T21:23:09.000Z</time>
      </trkpt>
      <trkpt lat="48.86401" lon="2.30149">
        <ele>74.2</ele>
        <time>2013-02-18T21:23:10.000Z</time>
      </trkpt>
      <trkpt lat="48.86402" lon="2.30152">
        <ele>73.8</ele>
        <time>2013-02-18T21:23:11.000Z</time>
      </trkpt>
      <trkpt lat="48.86403" lon="2.30156">
        <ele>74.1</ele>
        <time>2013-02-18T21:23:12.000Z</time>
      </trkpt>
      <trkpt lat="48.86405" lon="2.3016">
        <ele>74.1</ele>
        <time>2013-02-18T21:23:13.000Z</time>
      </trkpt>
      <trkpt lat="48.86406" lon="2.30163">
        <ele>74</ele>
        <time>2013-02-18T21:23:14.000Z</time>
      </trkpt>
      <trkpt lat="48.86407" lon="2.30167">
        <ele>75.1</ele>
        <time>2013-02-18T21:23:15.000Z</time>
      </trkpt>
      <trkpt lat="48.86408" lon="2.3017">
        <ele>75.5</ele>
        <time>2013-02-18T21:23:16.000Z</time>
      </trkpt>
      <trkpt lat="48.86409" lon="2.30173">
        <ele>76.1</ele>
        <time>2013-02-18T21:23:17.000Z</time>
      </trkpt>
      <trkpt lat="48.86411" lon="2.30177">
        <ele>76.1</ele>
        <time>2013-02-18T21:23:18.000Z</time>
      </trkpt>
      <trkpt lat="48.86413" lon="2.30182">
        <ele>76</ele>
        <time>2013-02-18T21:23:19.000Z</time>
      </trkpt>
      <trkpt lat="48.86415" lon="2.30187">
        <ele>76.6</ele>
        <time>2013-02-18T21:23:20.000Z</time>
      </trkpt>
      <trkpt lat="48.86417" lon="2.30192">
        <ele>76.4</ele>
        <time>2013-02-18T21:23:21.000Z</time>
      </trkpt>
      <trkpt lat="48.86419" lon="2.30195">
        <ele>76.5</ele>
        <time>2013-02-18T21:23:22.000Z</time>
      </trkpt>
      <trkpt lat="48.86423" lon="2.30201">
        <ele>76.4</ele>
        <time>2013-02-18T21:23:23.886Z</time>
      </trkpt>
      <trkpt lat="48.86426" lon="2.30202">
        <ele>75.6</ele>
        <time>2013-02-18T21:23:26.000Z</time>
      </trkpt>
      <trkpt lat="48.86429" lon="2.30202">
        <ele>75.5</ele>
        <time>2013-02-18T21:23:27.000Z</time>
      </trkpt>
      <trkpt lat="48.86431" lon="2.30201">
        <ele>75.8</ele>
        <time>2013-02-18T21:23:28.000Z</time>
      </trkpt>
      <trkpt lat="48.86434" lon="2.302">
        <ele>75.7</ele>
        <time>2013-02-18T21:23:29.000Z</time>
      </trkpt>
      <trkpt lat="48.86438" lon="2.30199">
        <ele>75</ele>
        <time>2013-02-18T21:23:30.000Z</time>
      </trkpt>
      <trkpt lat="48.86442" lon="2.30198">
        <ele>75.3</ele>
        <time>2013-02-18T21:23:31.000Z</time>
      </trkpt>
      <trkpt lat="48.86446" lon="2.30197">
        <ele>75.2</ele>
        <time>2013-02-18T21:23:32.000Z</time>
      </trkpt>
      <trkpt lat="48.86449" lon="2.30196">
        <ele>75.2</ele>
        <time>2013-02-18T21:23:33.000Z</time>
      </trkpt>
      <trkpt lat="48.86453" lon="2.30196">
        <ele>75.5</ele>
        <time>2013-02-18T21:23:34.000Z</time>
      </trkpt>
      <trkpt lat="48.86456" lon="2.30196">
        <ele>75.5</ele>
        <time>2013-02-18T21:23:35.000Z</time>
      </trkpt>
      <trkpt lat="48.8646" lon="2.30196">
        <ele>75</ele>
        <time>2013-02-18T21:23:36.000Z</time>
      </trkpt>
      <trkpt lat="48.86463" lon="2.30199">
        <ele>74.6</ele>
        <time>2013-02-18T21:23:37.000Z</time>
      </trkpt>
      <trkpt lat="48.86466" lon="2.30202">
        <ele>74.8</ele>
        <time>2013-02-18T21:23:38.000Z</time>
      </trkpt>
      <trkpt lat="48.86469" lon="2.30206">
        <ele>75.3</ele>
        <time>2013-02-18T21:23:39.000Z</time>
      </trkpt>
      <trkpt lat="48.86472" lon="2.30211">
        <ele>76.1</ele>
        <time>2013-02-18T21:23:40.000Z</time>
      </trkpt>
      <trkpt lat="48.86476" lon="2.30216">
        <ele>76</ele>
        <time>2013-02-18T21:23:41.000Z</time>
      </trkpt>
      <trkpt lat="48.86479" lon="2.3022">
        <ele>76.1</ele>
        <time>2013-02-18T21:23:42.000Z</time>
      </trkpt>
      <trkpt lat="48.86482" lon="2.30225">
        <ele>73</ele>
        <time>2013-02-18T21:23:43.000Z</time>
      </trkpt>
      <trkpt lat="48.86485" lon="2.30229">
        <ele>72.6</ele>
        <time>2013-02-18T21:23:44.000Z</time>
      </trkpt>
      <trkpt lat="48.86487" lon="2.30234">
        <ele>72.2</ele>
        <time>2013-02-18T21:23:45.000Z</time>
      </trkpt>
      <trkpt lat="48.8649" lon="2.30239">
        <ele>72.1</ele>
        <time>2013-02-18T21:23:46.000Z</time>
      </trkpt>
      <trkpt lat="48.86492" lon="2.30243">
        <ele>71.1</ele>
        <time>2013-02-18T21:23:47.000Z</time>
      </trkpt>
      <trkpt lat="48.86494" lon="2.30248">
        <ele>70.6</ele>
        <time>2013-02-18T21:23:48.000Z</time>
      </trkpt>
      <trkpt lat="48.86497" lon="2.30253">
        <ele>70</ele>
        <time>2013-02-18T21:23:49.000Z</time>
      </trkpt>
      <trkpt lat="48.86499" lon="2.30257">
        <ele>70.7</ele>
        <time>2013-02-18T21:23:50.000Z</time>
      </trkpt>
      <trkpt lat="48.86502" lon="2.30262">
        <ele>70.4</ele>
        <time>2013-02-18T21:23:51.000Z</time>
      </trkpt>
      <trkpt lat="48.86505" lon="2.30267">
        <ele>69.7</ele>
        <time>2013-02-18T21:23:52.000Z</time>
      </trkpt>
      <trkpt lat="48.86507" lon="2.30272">
        <ele>69.7</ele>
        <time>2013-02-18T21:23:53.000Z</time>
      </trkpt>
      <trkpt lat="48.8651" lon="2.30277">
        <ele>69.8</ele>
        <time>2013-02-18T21:23:54.000Z</time>
      </trkpt>
      <trkpt lat="48.86512" lon="2.30283">
        <ele>69.8</ele>
        <time>2013-02-18T21:23:55.000Z</time>
      </trkpt>
      <trkpt lat="48.86516" lon="2.30291">
        <ele>68.2</ele>
        <time>2013-02-18T21:23:56.000Z</time>
      </trkpt>
      <trkpt lat="48.86518" lon="2.30297">
        <ele>67.6</ele>
        <time>2013-02-18T21:23:57.000Z</time>
      </trkpt>
      <trkpt lat="48.8652" lon="2.30303">
        <ele>69.5</ele>
        <time>2013-02-18T21:23:58.000Z</time>
      </trkpt>
      <trkpt lat="48.86524" lon="2.30309">
        <ele>69.2</ele>
        <time>2013-02-18T21:23:59.000Z</time>
      </trkpt>
      <trkpt lat="48.86527" lon="2.30316">
        <ele>69.1</ele>
        <time>2013-02-18T21:24:00.000Z</time>
      </trkpt>
      <trkpt lat="48.86532" lon="2.30322">
        <ele>69.5</ele>
        <time>2013-02-18T21:24:01.000Z</time>
      </trkpt>
      <trkpt lat="48.86535" lon="2.30329">
        <ele>69.4</ele>
        <time>2013-02-18T21:24:02.000Z</time>
      </trkpt>
      <trkpt lat="48.86537" lon="2.30336">
        <ele>69.8</ele>
        <time>2013-02-18T21:24:03.000Z</time>
      </trkpt>
      <trkpt lat="48.86541" lon="2.30343">
        <ele>69.8</ele>
        <time>2013-02-18T21:24:04.000Z</time>
      </trkpt>
      <trkpt lat="48.86543" lon="2.3035">
        <ele>70</ele>
        <time>2013-02-18T21:24:05.000Z</time>
      </trkpt>
      <trkpt lat="48.86547" lon="2.30355">
        <ele>69.8</ele>
        <time>2013-02-18T21:24:06.000Z</time>
      </trkpt>
      <trkpt lat="48.86551" lon="2.3036">
        <ele>70.1</ele>
        <time>2013-02-18T21:24:07.000Z</time>
      </trkpt>
      <trkpt lat="48.86554" lon="2.30367">
        <ele>70</ele>
        <time>2013-02-18T21:24:08.000Z</time>
      </trkpt>
      <trkpt lat="48.86558" lon="2.30374">
        <ele>70.5</ele>
        <time>2013-02-18T21:24:09.000Z</time>
      </trkpt>
      <trkpt lat="48.86562" lon="2.3038">
        <ele>71.4</ele>
        <time>2013-02-18T21:24:10.000Z</time>
      </trkpt>
      <trkpt lat="48.86564" lon="2.30387">
        <ele>71.4</ele>
        <time>2013-02-18T21:24:11.000Z</time>
      </trkpt>
      <trkpt lat="48.86568" lon="2.30392">
        <ele>71</ele>
        <time>2013-02-18T21:24:12.000Z</time>
      </trkpt>
      <trkpt lat="48.86572" lon="2.30398">
        <ele>70.8</ele>
        <time>2013-02-18T21:24:13.000Z</time>
      </trkpt>
      <trkpt lat="48.86575" lon="2.30403">
        <ele>70.4</ele>
        <time>2013-02-18T21:24:14.000Z</time>
      </trkpt>
      <trkpt lat="48.86578" lon="2.30408">
        <ele>69.6</ele>
        <time>2013-02-18T21:24:15.000Z</time>
      </trkpt>
      <trkpt lat="48.86582" lon="2.30413">
        <ele>70.2</ele>
        <time>2013-02-18T21:24:16.000Z</time>
      </trkpt>
      <trkpt lat="48.86584" lon="2.30418">
        <ele>69.4</ele>
        <time>2013-02-18T21:24:17.000Z</time>
      </trkpt>
      <trkpt lat="48.86588" lon="2.30424">
        <ele>69</ele>
        <time>2013-02-18T21:24:18.000Z</time>
      </trkpt>
      <trkpt lat="48.8659" lon="2.30428">
        <ele>68.3</ele>
        <time>2013-02-18T21:24:19.000Z</time>
      </trkpt>
      <trkpt lat="48.86593" lon="2.30434">
        <ele>67.9</ele>
        <time>2013-02-18T21:24:20.000Z</time>
      </trkpt>
      <trkpt lat="48.86597" lon="2.30438">
        <ele>68.8</ele>
        <time>2013-02-18T21:24:21.000Z</time>
      </trkpt>
      <trkpt lat="48.866" lon="2.30444">
        <ele>69.4</ele>
        <time>2013-02-18T21:24:22.000Z</time>
      </trkpt>
      <trkpt lat="48.86607" lon="2.30459">
        <ele>69.3</ele>
        <time>2013-02-18T21:24:25.000Z</time>
      </trkpt>
      <trkpt lat="48.86608" lon="2.30464">
        <ele>69</ele>
        <time>2013-02-18T21:24:26.000Z</time>
      </trkpt>
      <trkpt lat="48.86612" lon="2.30469">
        <ele>69.7</ele>
        <time>2013-02-18T21:24:27.000Z</time>
      </trkpt>
      <trkpt lat="48.86616" lon="2.30476">
        <ele>70</ele>
        <time>2013-02-18T21:24:28.000Z</time>
      </trkpt>
      <trkpt lat="48.86619" lon="2.30481">
        <ele>70</ele>
        <time>2013-02-18T21:24:29.000Z</time>
      </trkpt>
      <trkpt lat="48.86622" lon="2.30487">
        <ele>70.5</ele>
        <time>2013-02-18T21:24:30.000Z</time>
      </trkpt>
      <trkpt lat="48.86625" lon="2.30492">
        <ele>70.3</ele>
        <time>2013-02-18T21:24:31.000Z</time>
      </trkpt>
      <trkpt lat="48.86628" lon="2.30498">
        <ele>69.9</ele>
        <time>2013-02-18T21:24:32.000Z</time>
      </trkpt>
      <trkpt lat="48.86631" lon="2.30504">
        <ele>69.9</ele>
        <time>2013-02-18T21:24:33.000Z</time>
      </trkpt>
      <trkpt lat="48.86635" lon="2.30509">
        <ele>70.1</ele>
        <time>2013-02-18T21:24:34.000Z</time>
      </trkpt>
      <trkpt lat="48.86639" lon="2.30515">
        <ele>70.5</ele>
        <time>2013-02-18T21:24:35.000Z</time>
      </trkpt>
      <trkpt lat="48.86642" lon="2.30521">
        <ele>70.7</ele>
        <time>2013-02-18T21:24:36.000Z</time>
      </trkpt>
      <trkpt lat="48.86645" lon="2.30526">
        <ele>70.5</ele>
        <time>2013-02-18T21:24:37.000Z</time>
      </trkpt>
      <trkpt lat="48.86648" lon="2.3053">
        <ele>71.2</ele>
        <time>2013-02-18T21:24:38.000Z</time>
      </trkpt>
      <trkpt lat="48.8665" lon="2.30535">
        <ele>70.4</ele>
        <time>2013-02-18T21:24:39.000Z</time>
      </trkpt>
      <trkpt lat="48.86653" lon="2.30542">
        <ele>70.6</ele>
        <time>2013-02-18T21:24:40.000Z</time>
      </trkpt>
      <trkpt lat="48.86656" lon="2.30549">
        <ele>71</ele>
        <time>2013-02-18T21:24:41.000Z</time>
      </trkpt>
      <trkpt lat="48.86659" lon="2.30555">
        <ele>71.4</ele>
        <time>2013-02-18T21:24:42.000Z</time>
      </trkpt>
      <trkpt lat="48.86663" lon="2.3056">
        <ele>72.3</ele>
        <time>2013-02-18T21:24:43.000Z</time>
      </trkpt>
      <trkpt lat="48.86666" lon="2.30565">
        <ele>71.7</ele>
        <time>2013-02-18T21:24:44.000Z</time>
      </trkpt>
      <trkpt lat="48.86669" lon="2.30572">
        <ele>72.7</ele>
        <time>2013-02-18T21:24:45.000Z</time>
      </trkpt>
      <trkpt lat="48.86672" lon="2.30577">
        <ele>73.4</ele>
        <time>2013-02-18T21:24:46.000Z</time>
      </trkpt>
      <trkpt lat="48.86676" lon="2.30582">
        <ele>73.7</ele>
        <time>2013-02-18T21:24:47.000Z</time>
      </trkpt>
      <trkpt lat="48.86677" lon="2.30587">
        <ele>72.3</ele>
        <time>2013-02-18T21:24:48.000Z</time>
      </trkpt>
      <trkpt lat="48.86682" lon="2.30592">
        <ele>73</ele>
        <time>2013-02-18T21:24:49.000Z</time>
      </trkpt>
      <trkpt lat="48.86685" lon="2.30596">
        <ele>73.7</ele>
        <time>2013-02-18T21:24:50.000Z</time>
      </trkpt>
      <trkpt lat="48.86688" lon="2.30601">
        <ele>74.6</ele>
        <time>2013-02-18T21:24:51.000Z</time>
      </trkpt>
      <trkpt lat="48.86691" lon="2.30607">
        <ele>74.7</ele>
        <time>2013-02-18T21:24:52.000Z</time>
      </trkpt>
      <trkpt lat="48.86693" lon="2.30612">
        <ele>74.6</ele>
        <time>2013-02-18T21:24:53.000Z</time>
      </trkpt>
      <trkpt lat="48.86696" lon="2.30618">
        <ele>74.9</ele>
        <time>2013-02-18T21:24:54.000Z</time>
      </trkpt>
      <trkpt lat="48.86699" lon="2.30623">
        <ele>75.4</ele>
        <time>2013-02-18T21:24:55.000Z</time>
      </trkpt>
      <trkpt lat="48.86702" lon="2.30628">
        <ele>75.8</ele>
        <time>2013-02-18T21:24:56.000Z</time>
      </trkpt>
      <trkpt lat="48.86704" lon="2.30634">
        <ele>76.3</ele>
        <time>2013-02-18T21:24:57.000Z</time>
      </trkpt>
      <trkpt lat="48.86707" lon="2.3064">
        <ele>79.3</ele>
        <time>2013-02-18T21:24:58.000Z</time>
      </trkpt>
      <trkpt lat="48.86711" lon="2.30649">
        <ele>78.9</ele>
        <time>2013-02-18T21:24:59.000Z</time>
      </trkpt>
      <trkpt lat="48.86713" lon="2.30655">
        <ele>79.2</ele>
        <time>2013-02-18T21:25:00.000Z</time>
      </trkpt>
      <trkpt lat="48.86715" lon="2.30661">
        <ele>80.7</ele>
        <time>2013-02-18T21:25:01.000Z</time>
      </trkpt>
      <trkpt lat="48.86718" lon="2.30667">
        <ele>80</ele>
        <time>2013-02-18T21:25:02.000Z</time>
      </trkpt>
      <trkpt lat="48.8672" lon="2.30672">
        <ele>78</ele>
        <time>2013-02-18T21:25:03.000Z</time>
      </trkpt>
      <trkpt lat="48.86723" lon="2.30678">
        <ele>76.8</ele>
        <time>2013-02-18T21:25:04.000Z</time>
      </trkpt>
      <trkpt lat="48.86726" lon="2.30683">
        <ele>78.2</ele>
        <time>2013-02-18T21:25:05.000Z</time>
      </trkpt>
      <trkpt lat="48.86728" lon="2.30688">
        <ele>77.6</ele>
        <time>2013-02-18T21:25:06.000Z</time>
      </trkpt>
      <trkpt lat="48.8673" lon="2.30694">
        <ele>76.3</ele>
        <time>2013-02-18T21:25:07.000Z</time>
      </trkpt>
      <trkpt lat="48.86733" lon="2.307">
        <ele>76</ele>
        <time>2013-02-18T21:25:08.000Z</time>
      </trkpt>
      <trkpt lat="48.86735" lon="2.30706">
        <ele>76.7</ele>
        <time>2013-02-18T21:25:09.000Z</time>
      </trkpt>
      <trkpt lat="48.86739" lon="2.30712">
        <ele>78.9</ele>
        <time>2013-02-18T21:25:10.000Z</time>
      </trkpt>
      <trkpt lat="48.86742" lon="2.30717">
        <ele>78.9</ele>
        <time>2013-02-18T21:25:11.000Z</time>
      </trkpt>
      <trkpt lat="48.86744" lon="2.30721">
        <ele>77.4</ele>
        <time>2013-02-18T21:25:12.000Z</time>
      </trkpt>
      <trkpt lat="48.86746" lon="2.30727">
        <ele>77.9</ele>
        <time>2013-02-18T21:25:13.000Z</time>
      </trkpt>
      <trkpt lat="48.86747" lon="2.30732">
        <ele>76.6</ele>
        <time>2013-02-18T21:25:14.000Z</time>
      </trkpt>
      <trkpt lat="48.86749" lon="2.30738">
        <ele>76.2</ele>
        <time>2013-02-18T21:25:15.000Z</time>
      </trkpt>
      <trkpt lat="48.86751" lon="2.30743">
        <ele>76.1</ele>
        <time>2013-02-18T21:25:16.000Z</time>
      </trkpt>
      <trkpt lat="48.86754" lon="2.30748">
        <ele>75.6</ele>
        <time>2013-02-18T21:25:17.000Z</time>
      </trkpt>
      <trkpt lat="48.86756" lon="2.30752">
        <ele>77.4</ele>
        <time>2013-02-18T21:25:18.000Z</time>
      </trkpt>
      <trkpt lat="48.86759" lon="2.30757">
        <ele>77</ele>
        <time>2013-02-18T21:25:19.000Z</time>
      </trkpt>
      <trkpt lat="48.86762" lon="2.30762">
        <ele>77</ele>
        <time>2013-02-18T21:25:20.000Z</time>
      </trkpt>
      <trkpt lat="48.86765" lon="2.30766">
        <ele>78.3</ele>
        <time>2013-02-18T21:25:21.000Z</time>
      </trkpt>
      <trkpt lat="48.86768" lon="2.30771">
        <ele>79.6</ele>
        <time>2013-02-18T21:25:22.000Z</time>
      </trkpt>
      <trkpt lat="48.86773" lon="2.30778">
        <ele>79.7</ele>
        <time>2013-02-18T21:25:23.645Z</time>
      </trkpt>
      <trkpt lat="48.86777" lon="2.30784">
        <ele>79.4</ele>
        <time>2013-02-18T21:25:25.000Z</time>
      </trkpt>
      <trkpt lat="48.86782" lon="2.30793">
        <ele>79.4</ele>
        <time>2013-02-18T21:25:26.000Z</time>
      </trkpt>
      <trkpt lat="48.86784" lon="2.30798">
        <ele>79.4</ele>
        <time>2013-02-18T21:25:27.000Z</time>
      </trkpt>
      <trkpt lat="48.86786" lon="2.30804">
        <ele>78.5</ele>
        <time>2013-02-18T21:25:28.000Z</time>
      </trkpt>
      <trkpt lat="48.86789" lon="2.3081">
        <ele>78.6</ele>
        <time>2013-02-18T21:25:29.000Z</time>
      </trkpt>
      <trkpt lat="48.86792" lon="2.30817">
        <ele>78.8</ele>
        <time>2013-02-18T21:25:30.000Z</time>
      </trkpt>
      <trkpt lat="48.86796" lon="2.30822">
        <ele>79.2</ele>
        <time>2013-02-18T21:25:31.000Z</time>
      </trkpt>
      <trkpt lat="48.86799" lon="2.30828">
        <ele>79.3</ele>
        <time>2013-02-18T21:25:32.000Z</time>
      </trkpt>
      <trkpt lat="48.86804" lon="2.30833">
        <ele>77.1</ele>
        <time>2013-02-18T21:25:33.000Z</time>
      </trkpt>
      <trkpt lat="48.86807" lon="2.30839">
        <ele>77.3</ele>
        <time>2013-02-18T21:25:34.000Z</time>
      </trkpt>
      <trkpt lat="48.8681" lon="2.30844">
        <ele>77.1</ele>
        <time>2013-02-18T21:25:35.000Z</time>
      </trkpt>
      <trkpt lat="48.86813" lon="2.30849">
        <ele>77.1</ele>
        <time>2013-02-18T21:25:36.000Z</time>
      </trkpt>
      <trkpt lat="48.86815" lon="2.30855">
        <ele>77.6</ele>
        <time>2013-02-18T21:25:37.000Z</time>
      </trkpt>
      <trkpt lat="48.86817" lon="2.3086">
        <ele>78.5</ele>
        <time>2013-02-18T21:25:38.000Z</time>
      </trkpt>
      <trkpt lat="48.8682" lon="2.30865">
        <ele>79.2</ele>
        <time>2013-02-18T21:25:39.000Z</time>
      </trkpt>
      <trkpt lat="48.86824" lon="2.30869">
        <ele>79.7</ele>
        <time>2013-02-18T21:25:40.000Z</time>
      </trkpt>
      <trkpt lat="48.86826" lon="2.30874">
        <ele>79.4</ele>
        <time>2013-02-18T21:25:41.000Z</time>
      </trkpt>
      <trkpt lat="48.86829" lon="2.3088">
        <ele>78.2</ele>
        <time>2013-02-18T21:25:42.000Z</time>
      </trkpt>
      <trkpt lat="48.86831" lon="2.30885">
        <ele>77.5</ele>
        <time>2013-02-18T21:25:43.000Z</time>
      </trkpt>
      <trkpt lat="48.86833" lon="2.30889">
        <ele>77.5</ele>
        <time>2013-02-18T21:25:44.000Z</time>
      </trkpt>
      <trkpt lat="48.86835" lon="2.30894">
        <ele>77.9</ele>
        <time>2013-02-18T21:25:45.000Z</time>
      </trkpt>
      <trkpt lat="48.86837" lon="2.30899">
        <ele>78.4</ele>
        <time>2013-02-18T21:25:46.000Z</time>
      </trkpt>
      <trkpt lat="48.8684" lon="2.30904">
        <ele>79.9</ele>
        <time>2013-02-18T21:25:47.000Z</time>
      </trkpt>
      <trkpt lat="48.86842" lon="2.30908">
        <ele>80.6</ele>
        <time>2013-02-18T21:25:48.000Z</time>
      </trkpt>
      <trkpt lat="48.86846" lon="2.30914">
        <ele>80.6</ele>
        <time>2013-02-18T21:25:49.000Z</time>
      </trkpt>
      <trkpt lat="48.86849" lon="2.30919">
        <ele>80.6</ele>
        <time>2013-02-18T21:25:50.000Z</time>
      </trkpt>
      <trkpt lat="48.86851" lon="2.30924">
        <ele>79.6</ele>
        <time>2013-02-18T21:25:51.000Z</time>
      </trkpt>
      <trkpt lat="48.86854" lon="2.30928">
        <ele>79.2</ele>
        <time>2013-02-18T21:25:52.000Z</time>
      </trkpt>
      <trkpt lat="48.86856" lon="2.30933">
        <ele>78.4</ele>
        <time>2013-02-18T21:25:53.000Z</time>
      </trkpt>
      <trkpt lat="48.86858" lon="2.30937">
        <ele>78.9</ele>
        <time>2013-02-18T21:25:54.000Z</time>
      </trkpt>
      <trkpt lat="48.86859" lon="2.3094">
        <ele>78.5</ele>
        <time>2013-02-18T21:25:55.000Z</time>
      </trkpt>
      <trkpt lat="48.86861" lon="2.30944">
        <ele>78.6</ele>
        <time>2013-02-18T21:25:56.000Z</time>
      </trkpt>
      <trkpt lat="48.86862" lon="2.30947">
        <ele>78.9</ele>
        <time>2013-02-18T21:25:57.000Z</time>
      </trkpt>
      <trkpt lat="48.86863" lon="2.3095">
        <ele>79.4</ele>
        <time>2013-02-18T21:25:58.000Z</time>
      </trkpt>
      <trkpt lat="48.86864" lon="2.30954">
        <ele>79.3</ele>
        <time>2013-02-18T21:25:59.000Z</time>
      </trkpt>
      <trkpt lat="48.86864" lon="2.30958">
        <ele>79.3</ele>
        <time>2013-02-18T21:26:00.000Z</time>
      </trkpt>
      <trkpt lat="48.86864" lon="2.30962">
        <ele>79.4</ele>
        <time>2013-02-18T21:26:01.000Z</time>
      </trkpt>
      <trkpt lat="48.86865" lon="2.30965">
        <ele>79.6</ele>
        <time>2013-02-18T21:26:02.000Z</time>
      </trkpt>
      <trkpt lat="48.86868" lon="2.30968">
        <ele>78.4</ele>
        <time>2013-02-18T21:26:04.000Z</time>
      </trkpt>
      <trkpt lat="48.86869" lon="2.3097">
        <ele>78</ele>
        <time>2013-02-18T21:26:05.000Z</time>
      </trkpt>
      <trkpt lat="48.86872" lon="2.30974">
        <ele>77.9</ele>
        <time>2013-02-18T21:26:07.000Z</time>
      </trkpt>
      <trkpt lat="48.86874" lon="2.30976">
        <ele>78</ele>
        <time>2013-02-18T21:26:08.000Z</time>
      </trkpt>
      <trkpt lat="48.86876" lon="2.30981">
        <ele>78.2</ele>
        <time>2013-02-18T21:26:10.000Z</time>
      </trkpt>
      <trkpt lat="48.86878" lon="2.30984">
        <ele>77.6</ele>
        <time>2013-02-18T21:26:11.000Z</time>
      </trkpt>
      <trkpt lat="48.86879" lon="2.30988">
        <ele>76.7</ele>
        <time>2013-02-18T21:26:13.000Z</time>
      </trkpt>
      <trkpt lat="48.86879" lon="2.30991">
        <ele>76.3</ele>
        <time>2013-02-18T21:26:14.000Z</time>
      </trkpt>
      <trkpt lat="48.8688" lon="2.30995">
        <ele>76.6</ele>
        <time>2013-02-18T21:26:17.000Z</time>
      </trkpt>
      <trkpt lat="48.8688" lon="2.30997">
        <ele>76</ele>
        <time>2013-02-18T21:26:18.000Z</time>
      </trkpt>
      <trkpt lat="48.86878" lon="2.31003">
        <ele>75.3</ele>
        <time>2013-02-18T21:26:22.000Z</time>
      </trkpt>
      <trkpt lat="48.86876" lon="2.31005">
        <ele>74.3</ele>
        <time>2013-02-18T21:26:25.000Z</time>
      </trkpt>
      <trkpt lat="48.86873" lon="2.31008">
        <ele>72.1</ele>
        <time>2013-02-18T21:26:31.000Z</time>
      </trkpt>
      <trkpt lat="48.86872" lon="2.31009">
        <ele>71.4</ele>
        <time>2013-02-18T21:26:32.000Z</time>
      </trkpt>
      <trkpt lat="48.86873" lon="2.31015">
        <ele>72.2</ele>
        <time>2013-02-18T21:26:34.000Z</time>
      </trkpt>
      <trkpt lat="48.86873" lon="2.31018">
        <ele>70.9</ele>
        <time>2013-02-18T21:26:35.000Z</time>
      </trkpt>
      <trkpt lat="48.86872" lon="2.31023">
        <ele>70.8</ele>
        <time>2013-02-18T21:26:37.000Z</time>
      </trkpt>
      <trkpt lat="48.86872" lon="2.31026">
        <ele>71</ele>
        <time>2013-02-18T21:26:38.000Z</time>
      </trkpt>
      <trkpt lat="48.86874" lon="2.31032">
        <ele>72.2</ele>
        <time>2013-02-18T21:26:40.000Z</time>
      </trkpt>
      <trkpt lat="48.86875" lon="2.31033">
        <ele>73.8</ele>
        <time>2013-02-18T21:26:41.000Z</time>
      </trkpt>
      <trkpt lat="48.86876" lon="2.31037">
        <ele>74.3</ele>
        <time>2013-02-18T21:26:43.000Z</time>
      </trkpt>
      <trkpt lat="48.86877" lon="2.31039">
        <ele>74.9</ele>
        <time>2013-02-18T21:26:44.000Z</time>
      </trkpt>
      <trkpt lat="48.86877" lon="2.31045">
        <ele>74.9</ele>
        <time>2013-02-18T21:26:55.000Z</time>
      </trkpt>
      <trkpt lat="48.86878" lon="2.31046">
        <ele>74.9</ele>
        <time>2013-02-18T21:26:56.000Z</time>
      </trkpt>
      <trkpt lat="48.86881" lon="2.31048">
        <ele>74.9</ele>
        <time>2013-02-18T21:26:58.000Z</time>
      </trkpt>
      <trkpt lat="48.86883" lon="2.31049">
        <ele>75</ele>
        <time>2013-02-18T21:26:59.000Z</time>
      </trkpt>
      <trkpt lat="48.86887" lon="2.31051">
        <ele>73.3</ele>
        <time>2013-02-18T21:27:01.000Z</time>
      </trkpt>
      <trkpt lat="48.86889" lon="2.31051">
        <ele>73.1</ele>
        <time>2013-02-18T21:27:02.000Z</time>
      </trkpt>
      <trkpt lat="48.86893" lon="2.31051">
        <ele>72.4</ele>
        <time>2013-02-18T21:27:04.000Z</time>
      </trkpt>
      <trkpt lat="48.86894" lon="2.31051">
        <ele>72.2</ele>
        <time>2013-02-18T21:27:05.000Z</time>
      </trkpt>
      <trkpt lat="48.86898" lon="2.31049">
        <ele>72</ele>
        <time>2013-02-18T21:27:07.000Z</time>
      </trkpt>
      <trkpt lat="48.86899" lon="2.31048">
        <ele>71.7</ele>
        <time>2013-02-18T21:27:08.000Z</time>
      </trkpt>
      <trkpt lat="48.86903" lon="2.31047">
        <ele>71.1</ele>
        <time>2013-02-18T21:27:10.000Z</time>
      </trkpt>
      <trkpt lat="48.86905" lon="2.31048">
        <ele>71.2</ele>
        <time>2013-02-18T21:27:11.000Z</time>
      </trkpt>
      <trkpt lat="48.86907" lon="2.31051">
        <ele>72.2</ele>
        <time>2013-02-18T21:27:13.000Z</time>
      </trkpt>
      <trkpt lat="48.86909" lon="2.31054">
        <ele>72.2</ele>
        <time>2013-02-18T21:27:14.000Z</time>
      </trkpt>
      <trkpt lat="48.8691" lon="2.31057">
        <ele>72.3</ele>
        <time>2013-02-18T21:27:15.000Z</time>
      </trkpt>
      <trkpt lat="48.86912" lon="2.31061">
        <ele>71.7</ele>
        <time>2013-02-18T21:27:16.000Z</time>
      </trkpt>
      <trkpt lat="48.86914" lon="2.31065">
        <ele>71.2</ele>
        <time>2013-02-18T21:27:17.000Z</time>
      </trkpt>
      <trkpt lat="48.86916" lon="2.31069">
        <ele>71.2</ele>
        <time>2013-02-18T21:27:18.000Z</time>
      </trkpt>
      <trkpt lat="48.86918" lon="2.31072">
        <ele>71.8</ele>
        <time>2013-02-18T21:27:19.000Z</time>
      </trkpt>
      <trkpt lat="48.8692" lon="2.31076">
        <ele>73.3</ele>
        <time>2013-02-18T21:27:20.000Z</time>
      </trkpt>
      <trkpt lat="48.86922" lon="2.3108">
        <ele>73.3</ele>
        <time>2013-02-18T21:27:21.000Z</time>
      </trkpt>
      <trkpt lat="48.86924" lon="2.31084">
        <ele>73.4</ele>
        <time>2013-02-18T21:27:22.000Z</time>
      </trkpt>
      <trkpt lat="48.86927" lon="2.3109">
        <ele>73.2</ele>
        <time>2013-02-18T21:27:23.770Z</time>
      </trkpt>
      <trkpt lat="48.8693" lon="2.31094">
        <ele>72.6</ele>
        <time>2013-02-18T21:27:25.000Z</time>
      </trkpt>
      <trkpt lat="48.86932" lon="2.31098">
        <ele>70.6</ele>
        <time>2013-02-18T21:27:26.000Z</time>
      </trkpt>
      <trkpt lat="48.86933" lon="2.31102">
        <ele>70.8</ele>
        <time>2013-02-18T21:27:27.000Z</time>
      </trkpt>
      <trkpt lat="48.86935" lon="2.31106">
        <ele>70.3</ele>
        <time>2013-02-18T21:27:28.000Z</time>
      </trkpt>
      <trkpt lat="48.86937" lon="2.31111">
        <ele>69.1</ele>
        <time>2013-02-18T21:27:29.000Z</time>
      </trkpt>
      <trkpt lat="48.8694" lon="2.31115">
        <ele>69.4</ele>
        <time>2013-02-18T21:27:30.000Z</time>
      </trkpt>
      <trkpt lat="48.86942" lon="2.31121">
        <ele>69.9</ele>
        <time>2013-02-18T21:27:31.000Z</time>
      </trkpt>
      <trkpt lat="48.86945" lon="2.31127">
        <ele>70.3</ele>
        <time>2013-02-18T21:27:32.000Z</time>
      </trkpt>
      <trkpt lat="48.86948" lon="2.31132">
        <ele>70.5</ele>
        <time>2013-02-18T21:27:33.000Z</time>
      </trkpt>
      <trkpt lat="48.8695" lon="2.31137">
        <ele>70.7</ele>
        <time>2013-02-18T21:27:34.000Z</time>
      </trkpt>
      <trkpt lat="48.86953" lon="2.31142">
        <ele>70.2</ele>
        <time>2013-02-18T21:27:35.000Z</time>
      </trkpt>
      <trkpt lat="48.86956" lon="2.31148">
        <ele>69.8</ele>
        <time>2013-02-18T21:27:36.000Z</time>
      </trkpt>
      <trkpt lat="48.86959" lon="2.31153">
        <ele>70.6</ele>
        <time>2013-02-18T21:27:37.000Z</time>
      </trkpt>
      <trkpt lat="48.86965" lon="2.31161">
        <ele>70.8</ele>
        <time>2013-02-18T21:27:38.000Z</time>
      </trkpt>
      <trkpt lat="48.86967" lon="2.31167">
        <ele>71</ele>
        <time>2013-02-18T21:27:39.000Z</time>
      </trkpt>
      <trkpt lat="48.8697" lon="2.31172">
        <ele>70.2</ele>
        <time>2013-02-18T21:27:40.000Z</time>
      </trkpt>
      <trkpt lat="48.86972" lon="2.31176">
        <ele>69.5</ele>
        <time>2013-02-18T21:27:41.000Z</time>
      </trkpt>
      <trkpt lat="48.86976" lon="2.31181">
        <ele>68.8</ele>
        <time>2013-02-18T21:27:42.000Z</time>
      </trkpt>
      <trkpt lat="48.86979" lon="2.31187">
        <ele>67.8</ele>
        <time>2013-02-18T21:27:43.000Z</time>
      </trkpt>
      <trkpt lat="48.86982" lon="2.31193">
        <ele>68.6</ele>
        <time>2013-02-18T21:27:44.000Z</time>
      </trkpt>
      <trkpt lat="48.86984" lon="2.31199">
        <ele>69.8</ele>
        <time>2013-02-18T21:27:45.000Z</time>
      </trkpt>
      <trkpt lat="48.86986" lon="2.31203">
        <ele>69.9</ele>
        <time>2013-02-18T21:27:46.000Z</time>
      </trkpt>
      <trkpt lat="48.86989" lon="2.31209">
        <ele>71</ele>
        <time>2013-02-18T21:27:47.000Z</time>
      </trkpt>
      <trkpt lat="48.86992" lon="2.31214">
        <ele>70.4</ele>
        <time>2013-02-18T21:27:48.000Z</time>
      </trkpt>
      <trkpt lat="48.86995" lon="2.31219">
        <ele>70.2</ele>
        <time>2013-02-18T21:27:49.000Z</time>
      </trkpt>
      <trkpt lat="48.86997" lon="2.31225">
        <ele>69.6</ele>
        <time>2013-02-18T21:27:50.000Z</time>
      </trkpt>
      <trkpt lat="48.87" lon="2.3123">
        <ele>68.9</ele>
        <time>2013-02-18T21:27:51.000Z</time>
      </trkpt>
      <trkpt lat="48.87002" lon="2.31236">
        <ele>68.2</ele>
        <time>2013-02-18T21:27:52.000Z</time>
      </trkpt>
      <trkpt lat="48.87005" lon="2.31241">
        <ele>67.8</ele>
        <time>2013-02-18T21:27:53.000Z</time>
      </trkpt>
      <trkpt lat="48.87008" lon="2.31247">
        <ele>68</ele>
        <time>2013-02-18T21:27:54.000Z</time>
      </trkpt>
      <trkpt lat="48.87015" lon="2.31255">
        <ele>68.9</ele>
        <time>2013-02-18T21:27:55.000Z</time>
      </trkpt>
      <trkpt lat="48.87018" lon="2.31259">
        <ele>68.7</ele>
        <time>2013-02-18T21:27:56.000Z</time>
      </trkpt>
      <trkpt lat="48.8702" lon="2.31264">
        <ele>68.3</ele>
        <time>2013-02-18T21:27:57.000Z</time>
      </trkpt>
      <trkpt lat="48.87022" lon="2.31271">
        <ele>69.2</ele>
        <time>2013-02-18T21:27:58.000Z</time>
      </trkpt>
      <trkpt lat="48.87024" lon="2.31275">
        <ele>67.8</ele>
        <time>2013-02-18T21:27:59.000Z</time>
      </trkpt>
      <trkpt lat="48.87026" lon="2.31281">
        <ele>68</ele>
        <time>2013-02-18T21:28:00.000Z</time>
      </trkpt>
      <trkpt lat="48.87029" lon="2.31286">
        <ele>67.2</ele>
        <time>2013-02-18T21:28:01.000Z</time>
      </trkpt>
      <trkpt lat="48.87032" lon="2.31291">
        <ele>65.6</ele>
        <time>2013-02-18T21:28:02.000Z</time>
      </trkpt>
      <trkpt lat="48.87034" lon="2.31297">
        <ele>65.1</ele>
        <time>2013-02-18T21:28:03.000Z</time>
      </trkpt>
      <trkpt lat="48.87036" lon="2.31302">
        <ele>64.6</ele>
        <time>2013-02-18T21:28:04.000Z</time>
      </trkpt>
      <trkpt lat="48.87039" lon="2.31306">
        <ele>63.8</ele>
        <time>2013-02-18T21:28:05.000Z</time>
      </trkpt>
      <trkpt lat="48.87043" lon="2.3131">
        <ele>64.7</ele>
        <time>2013-02-18T21:28:06.000Z</time>
      </trkpt>
      <trkpt lat="48.87047" lon="2.31314">
        <ele>64.4</ele>
        <time>2013-02-18T21:28:07.000Z</time>
      </trkpt>
      <trkpt lat="48.8705" lon="2.31318">
        <ele>64.5</ele>
        <time>2013-02-18T21:28:08.000Z</time>
      </trkpt>
      <trkpt lat="48.87054" lon="2.31322">
        <ele>64.5</ele>
        <time>2013-02-18T21:28:09.000Z</time>
      </trkpt>
      <trkpt lat="48.87058" lon="2.31325">
        <ele>63.8</ele>
        <time>2013-02-18T21:28:10.000Z</time>
      </trkpt>
      <trkpt lat="48.87062" lon="2.31328">
        <ele>63.4</ele>
        <time>2013-02-18T21:28:11.000Z</time>
      </trkpt>
      <trkpt lat="48.87066" lon="2.31331">
        <ele>64</ele>
        <time>2013-02-18T21:28:12.000Z</time>
      </trkpt>
      <trkpt lat="48.8707" lon="2.31335">
        <ele>62.9</ele>
        <time>2013-02-18T21:28:13.000Z</time>
      </trkpt>
      <trkpt lat="48.87073" lon="2.31339">
        <ele>61.7</ele>
        <time>2013-02-18T21:28:14.000Z</time>
      </trkpt>
      <trkpt lat="48.87078" lon="2.31345">
        <ele>61.5</ele>
        <time>2013-02-18T21:28:15.000Z</time>
      </trkpt>
      <trkpt lat="48.87083" lon="2.31347">
        <ele>61.7</ele>
        <time>2013-02-18T21:28:16.000Z</time>
      </trkpt>
      <trkpt lat="48.87088" lon="2.31351">
        <ele>61.9</ele>
        <time>2013-02-18T21:28:17.000Z</time>
      </trkpt>
      <trkpt lat="48.87091" lon="2.31356">
        <ele>62.2</ele>
        <time>2013-02-18T21:28:18.000Z</time>
      </trkpt>
      <trkpt lat="48.87096" lon="2.31358">
        <ele>61.7</ele>
        <time>2013-02-18T21:28:19.000Z</time>
      </trkpt>
      <trkpt lat="48.87099" lon="2.31362">
        <ele>62</ele>
        <time>2013-02-18T21:28:20.000Z</time>
      </trkpt>
      <trkpt lat="48.87105" lon="2.31364">
        <ele>63.7</ele>
        <time>2013-02-18T21:28:21.000Z</time>
      </trkpt>
      <trkpt lat="48.8711" lon="2.31367">
        <ele>65.5</ele>
        <time>2013-02-18T21:28:22.000Z</time>
      </trkpt>
      <trkpt lat="48.87122" lon="2.31378">
        <ele>65.7</ele>
        <time>2013-02-18T21:28:25.000Z</time>
      </trkpt>
      <trkpt lat="48.87126" lon="2.31382">
        <ele>65.8</ele>
        <time>2013-02-18T21:28:26.000Z</time>
      </trkpt>
      <trkpt lat="48.87132" lon="2.31384">
        <ele>66</ele>
        <time>2013-02-18T21:28:27.000Z</time>
      </trkpt>
      <trkpt lat="48.87137" lon="2.31387">
        <ele>66.7</ele>
        <time>2013-02-18T21:28:28.000Z</time>
      </trkpt>
      <trkpt lat="48.87142" lon="2.3139">
        <ele>66.6</ele>
        <time>2013-02-18T21:28:29.000Z</time>
      </trkpt>
      <trkpt lat="48.87144" lon="2.31394">
        <ele>65.8</ele>
        <time>2013-02-18T21:28:30.000Z</time>
      </trkpt>
      <trkpt lat="48.87149" lon="2.31397">
        <ele>66.1</ele>
        <time>2013-02-18T21:28:31.000Z</time>
      </trkpt>
      <trkpt lat="48.87153" lon="2.314">
        <ele>66.1</ele>
        <time>2013-02-18T21:28:32.000Z</time>
      </trkpt>
      <trkpt lat="48.87156" lon="2.31402">
        <ele>66.1</ele>
        <time>2013-02-18T21:28:33.000Z</time>
      </trkpt>
      <trkpt lat="48.87159" lon="2.31405">
        <ele>66.2</ele>
        <time>2013-02-18T21:28:34.000Z</time>
      </trkpt>
      <trkpt lat="48.87159" lon="2.31407">
        <ele>65.8</ele>
        <time>2013-02-18T21:28:35.000Z</time>
      </trkpt>
      <trkpt lat="48.87158" lon="2.31412">
        <ele>66.6</ele>
        <time>2013-02-18T21:28:37.000Z</time>
      </trkpt>
      <trkpt lat="48.87158" lon="2.31414">
        <ele>68.3</ele>
        <time>2013-02-18T21:28:38.000Z</time>
      </trkpt>
      <trkpt lat="48.87159" lon="2.31418">
        <ele>67.9</ele>
        <time>2013-02-18T21:28:40.000Z</time>
      </trkpt>
      <trkpt lat="48.87159" lon="2.31421">
        <ele>66.9</ele>
        <time>2013-02-18T21:28:41.000Z</time>
      </trkpt>
      <trkpt lat="48.87159" lon="2.31424">
        <ele>66.4</ele>
        <time>2013-02-18T21:28:42.000Z</time>
      </trkpt>
      <trkpt lat="48.87158" lon="2.31429">
        <ele>65.5</ele>
        <time>2013-02-18T21:28:43.000Z</time>
      </trkpt>
      <trkpt lat="48.87158" lon="2.31433">
        <ele>65.8</ele>
        <time>2013-02-18T21:28:44.000Z</time>
      </trkpt>
      <trkpt lat="48.87157" lon="2.31438">
        <ele>66.7</ele>
        <time>2013-02-18T21:28:45.000Z</time>
      </trkpt>
      <trkpt lat="48.87156" lon="2.31444">
        <ele>68.4</ele>
        <time>2013-02-18T21:28:46.000Z</time>
      </trkpt>
      <trkpt lat="48.87154" lon="2.31451">
        <ele>69.1</ele>
        <time>2013-02-18T21:28:47.000Z</time>
      </trkpt>
      <trkpt lat="48.87153" lon="2.31457">
        <ele>68.1</ele>
        <time>2013-02-18T21:28:48.000Z</time>
      </trkpt>
      <trkpt lat="48.87151" lon="2.31463">
        <ele>67.8</ele>
        <time>2013-02-18T21:28:49.000Z</time>
      </trkpt>
      <trkpt lat="48.87149" lon="2.31469">
        <ele>68.1</ele>
        <time>2013-02-18T21:28:50.000Z</time>
      </trkpt>
      <trkpt lat="48.87148" lon="2.31475">
        <ele>69.2</ele>
        <time>2013-02-18T21:28:51.000Z</time>
      </trkpt>
      <trkpt lat="48.87147" lon="2.31481">
        <ele>68.7</ele>
        <time>2013-02-18T21:28:52.000Z</time>
      </trkpt>
      <trkpt lat="48.87146" lon="2.31487">
        <ele>68.1</ele>
        <time>2013-02-18T21:28:53.000Z</time>
      </trkpt>
      <trkpt lat="48.87145" lon="2.31493">
        <ele>68</ele>
        <time>2013-02-18T21:28:54.000Z</time>
      </trkpt>
      <trkpt lat="48.87144" lon="2.31499">
        <ele>67.7</ele>
        <time>2013-02-18T21:28:55.000Z</time>
      </trkpt>
      <trkpt lat="48.87143" lon="2.31505">
        <ele>67.3</ele>
        <time>2013-02-18T21:28:56.000Z</time>
      </trkpt>
      <trkpt lat="48.87142" lon="2.31511">
        <ele>67.5</ele>
        <time>2013-02-18T21:28:57.000Z</time>
      </trkpt>
      <trkpt lat="48.87141" lon="2.31517">
        <ele>67.4</ele>
        <time>2013-02-18T21:28:58.000Z</time>
      </trkpt>
      <trkpt lat="48.8714" lon="2.31523">
        <ele>67.4</ele>
        <time>2013-02-18T21:28:59.000Z</time>
      </trkpt>
      <trkpt lat="48.87139" lon="2.31529">
        <ele>67.8</ele>
        <time>2013-02-18T21:29:00.000Z</time>
      </trkpt>
      <trkpt lat="48.87138" lon="2.31535">
        <ele>67.6</ele>
        <time>2013-02-18T21:29:01.000Z</time>
      </trkpt>
      <trkpt lat="48.87137" lon="2.31541">
        <ele>68.2</ele>
        <time>2013-02-18T21:29:02.000Z</time>
      </trkpt>
      <trkpt lat="48.87136" lon="2.31547">
        <ele>68.4</ele>
        <time>2013-02-18T21:29:03.000Z</time>
      </trkpt>
      <trkpt lat="48.87134" lon="2.31553">
        <ele>68.2</ele>
        <time>2013-02-18T21:29:04.000Z</time>
      </trkpt>
      <trkpt lat="48.87133" lon="2.3156">
        <ele>68.4</ele>
        <time>2013-02-18T21:29:05.000Z</time>
      </trkpt>
      <trkpt lat="48.87131" lon="2.31566">
        <ele>68.4</ele>
        <time>2013-02-18T21:29:06.000Z</time>
      </trkpt>
      <trkpt lat="48.8713" lon="2.31572">
        <ele>68.6</ele>
        <time>2013-02-18T21:29:07.000Z</time>
      </trkpt>
      <trkpt lat="48.87128" lon="2.31578">
        <ele>68.4</ele>
        <time>2013-02-18T21:29:08.000Z</time>
      </trkpt>
      <trkpt lat="48.87126" lon="2.31584">
        <ele>68</ele>
        <time>2013-02-18T21:29:09.000Z</time>
      </trkpt>
      <trkpt lat="48.87125" lon="2.3159">
        <ele>68</ele>
        <time>2013-02-18T21:29:10.000Z</time>
      </trkpt>
      <trkpt lat="48.87122" lon="2.31596">
        <ele>71.2</ele>
        <time>2013-02-18T21:29:11.000Z</time>
      </trkpt>
      <trkpt lat="48.8712" lon="2.31602">
        <ele>72.7</ele>
        <time>2013-02-18T21:29:12.000Z</time>
      </trkpt>
      <trkpt lat="48.87118" lon="2.31608">
        <ele>74.1</ele>
        <time>2013-02-18T21:29:13.000Z</time>
      </trkpt>
      <trkpt lat="48.87116" lon="2.31613">
        <ele>72.4</ele>
        <time>2013-02-18T21:29:14.000Z</time>
      </trkpt>
      <trkpt lat="48.87114" lon="2.31619">
        <ele>74.3</ele>
        <time>2013-02-18T21:29:15.000Z</time>
      </trkpt>
      <trkpt lat="48.87112" lon="2.31624">
        <ele>72.9</ele>
        <time>2013-02-18T21:29:16.000Z</time>
      </trkpt>
      <trkpt lat="48.8711" lon="2.31628">
        <ele>72.1</ele>
        <time>2013-02-18T21:29:17.000Z</time>
      </trkpt>
      <trkpt lat="48.87108" lon="2.31633">
        <ele>72.2</ele>
        <time>2013-02-18T21:29:18.000Z</time>
      </trkpt>
      <trkpt lat="48.87106" lon="2.31637">
        <ele>72.1</ele>
        <time>2013-02-18T21:29:19.000Z</time>
      </trkpt>
      <trkpt lat="48.87104" lon="2.31642">
        <ele>72.1</ele>
        <time>2013-02-18T21:29:20.000Z</time>
      </trkpt>
      <trkpt lat="48.87102" lon="2.31645">
        <ele>71.4</ele>
        <time>2013-02-18T21:29:21.000Z</time>
      </trkpt>
      <trkpt lat="48.871" lon="2.3165">
        <ele>72.3</ele>
        <time>2013-02-18T21:29:22.000Z</time>
      </trkpt>
      <trkpt lat="48.87096" lon="2.31658">
        <ele>72.2</ele>
        <time>2013-02-18T21:29:24.067Z</time>
      </trkpt>
      <trkpt lat="48.87093" lon="2.31663">
        <ele>72.8</ele>
        <time>2013-02-18T21:29:25.000Z</time>
      </trkpt>
      <trkpt lat="48.87091" lon="2.31668">
        <ele>72.7</ele>
        <time>2013-02-18T21:29:26.000Z</time>
      </trkpt>
      <trkpt lat="48.87088" lon="2.31674">
        <ele>73.2</ele>
        <time>2013-02-18T21:29:27.000Z</time>
      </trkpt>
      <trkpt lat="48.87085" lon="2.31683">
        <ele>73.5</ele>
        <time>2013-02-18T21:29:28.000Z</time>
      </trkpt>
      <trkpt lat="48.87082" lon="2.31688">
        <ele>73.4</ele>
        <time>2013-02-18T21:29:29.000Z</time>
      </trkpt>
      <trkpt lat="48.87079" lon="2.31691">
        <ele>73.2</ele>
        <time>2013-02-18T21:29:30.000Z</time>
      </trkpt>
      <trkpt lat="48.87077" lon="2.31698">
        <ele>73.3</ele>
        <time>2013-02-18T21:29:31.000Z</time>
      </trkpt>
      <trkpt lat="48.87073" lon="2.31702">
        <ele>73.3</ele>
        <time>2013-02-18T21:29:32.000Z</time>
      </trkpt>
      <trkpt lat="48.8707" lon="2.31708">
        <ele>73.6</ele>
        <time>2013-02-18T21:29:33.000Z</time>
      </trkpt>
      <trkpt lat="48.87067" lon="2.31713">
        <ele>73.2</ele>
        <time>2013-02-18T21:29:34.000Z</time>
      </trkpt>
      <trkpt lat="48.87063" lon="2.3172">
        <ele>72.6</ele>
        <time>2013-02-18T21:29:35.000Z</time>
      </trkpt>
      <trkpt lat="48.8706" lon="2.31724">
        <ele>72.3</ele>
        <time>2013-02-18T21:29:36.000Z</time>
      </trkpt>
      <trkpt lat="48.87056" lon="2.31729">
        <ele>72.3</ele>
        <time>2013-02-18T21:29:37.000Z</time>
      </trkpt>
      <trkpt lat="48.87053" lon="2.31736">
        <ele>72.5</ele>
        <time>2013-02-18T21:29:38.000Z</time>
      </trkpt>
      <trkpt lat="48.8705" lon="2.31741">
        <ele>72.3</ele>
        <time>2013-02-18T21:29:39.000Z</time>
      </trkpt>
      <trkpt lat="48.87047" lon="2.31747">
        <ele>72.4</ele>
        <time>2013-02-18T21:29:40.000Z</time>
      </trkpt>
      <trkpt lat="48.87043" lon="2.31752">
        <ele>72.5</ele>
        <time>2013-02-18T21:29:41.000Z</time>
      </trkpt>
      <trkpt lat="48.87041" lon="2.31758">
        <ele>72.5</ele>
        <time>2013-02-18T21:29:42.000Z</time>
      </trkpt>
      <trkpt lat="48.87038" lon="2.31764">
        <ele>72.1</ele>
        <time>2013-02-18T21:29:43.000Z</time>
      </trkpt>
      <trkpt lat="48.87035" lon="2.31768">
        <ele>71.8</ele>
        <time>2013-02-18T21:29:44.000Z</time>
      </trkpt>
      <trkpt lat="48.87033" lon="2.31772">
        <ele>71.8</ele>
        <time>2013-02-18T21:29:45.000Z</time>
      </trkpt>
      <trkpt lat="48.87029" lon="2.31777">
        <ele>71.9</ele>
        <time>2013-02-18T21:29:46.000Z</time>
      </trkpt>
      <trkpt lat="48.87026" lon="2.31782">
        <ele>72.1</ele>
        <time>2013-02-18T21:29:47.000Z</time>
      </trkpt>
      <trkpt lat="48.87022" lon="2.31786">
        <ele>72.1</ele>
        <time>2013-02-18T21:29:48.000Z</time>
      </trkpt>
      <trkpt lat="48.8702" lon="2.31792">
        <ele>72.9</ele>
        <time>2013-02-18T21:29:49.000Z</time>
      </trkpt>
      <trkpt lat="48.87016" lon="2.31797">
        <ele>72.9</ele>
        <time>2013-02-18T21:29:50.000Z</time>
      </trkpt>
      <trkpt lat="48.87013" lon="2.31801">
        <ele>73</ele>
        <time>2013-02-18T21:29:51.000Z</time>
      </trkpt>
      <trkpt lat="48.87009" lon="2.31806">
        <ele>72.6</ele>
        <time>2013-02-18T21:29:52.000Z</time>
      </trkpt>
      <trkpt lat="48.87005" lon="2.31807">
        <ele>73.3</ele>
        <time>2013-02-18T21:29:53.000Z</time>
      </trkpt>
      <trkpt lat="48.87002" lon="2.31813">
        <ele>73</ele>
        <time>2013-02-18T21:29:54.000Z</time>
      </trkpt>
      <trkpt lat="48.86998" lon="2.31817">
        <ele>74.2</ele>
        <time>2013-02-18T21:29:55.000Z</time>
      </trkpt>
      <trkpt lat="48.86996" lon="2.31823">
        <ele>73.9</ele>
        <time>2013-02-18T21:29:56.000Z</time>
      </trkpt>
      <trkpt lat="48.86994" lon="2.31831">
        <ele>73.8</ele>
        <time>2013-02-18T21:29:57.000Z</time>
      </trkpt>
      <trkpt lat="48.86992" lon="2.31837">
        <ele>74.4</ele>
        <time>2013-02-18T21:29:58.000Z</time>
      </trkpt>
      <trkpt lat="48.8699" lon="2.31841">
        <ele>74.7</ele>
        <time>2013-02-18T21:29:59.000Z</time>
      </trkpt>
      <trkpt lat="48.86987" lon="2.31845">
        <ele>74.9</ele>
        <time>2013-02-18T21:30:00.000Z</time>
      </trkpt>
      <trkpt lat="48.86985" lon="2.31852">
        <ele>76</ele>
        <time>2013-02-18T21:30:01.000Z</time>
      </trkpt>
      <trkpt lat="48.86982" lon="2.31857">
        <ele>76.4</ele>
        <time>2013-02-18T21:30:02.000Z</time>
      </trkpt>
      <trkpt lat="48.8698" lon="2.31863">
        <ele>77.3</ele>
        <time>2013-02-18T21:30:03.000Z</time>
      </trkpt>
      <trkpt lat="48.86977" lon="2.31869">
        <ele>77.5</ele>
        <time>2013-02-18T21:30:04.000Z</time>
      </trkpt>
      <trkpt lat="48.86975" lon="2.31874">
        <ele>77.5</ele>
        <time>2013-02-18T21:30:05.000Z</time>
      </trkpt>
      <trkpt lat="48.86972" lon="2.31881">
        <ele>77.4</ele>
        <time>2013-02-18T21:30:06.000Z</time>
      </trkpt>
      <trkpt lat="48.86969" lon="2.31886">
        <ele>76.8</ele>
        <time>2013-02-18T21:30:07.000Z</time>
      </trkpt>
      <trkpt lat="48.86967" lon="2.31893">
        <ele>76.3</ele>
        <time>2013-02-18T21:30:08.000Z</time>
      </trkpt>
      <trkpt lat="48.86964" lon="2.31899">
        <ele>75.8</ele>
        <time>2013-02-18T21:30:09.000Z</time>
      </trkpt>
      <trkpt lat="48.86962" lon="2.31906">
        <ele>75.7</ele>
        <time>2013-02-18T21:30:10.000Z</time>
      </trkpt>
      <trkpt lat="48.8696" lon="2.31913">
        <ele>75.6</ele>
        <time>2013-02-18T21:30:11.000Z</time>
      </trkpt>
      <trkpt lat="48.86957" lon="2.3192">
        <ele>75.6</ele>
        <time>2013-02-18T21:30:12.000Z</time>
      </trkpt>
      <trkpt lat="48.86954" lon="2.31925">
        <ele>74.9</ele>
        <time>2013-02-18T21:30:13.000Z</time>
      </trkpt>
      <trkpt lat="48.86951" lon="2.31933">
        <ele>74.6</ele>
        <time>2013-02-18T21:30:14.000Z</time>
      </trkpt>
      <trkpt lat="48.8695" lon="2.3194">
        <ele>74.3</ele>
        <time>2013-02-18T21:30:15.000Z</time>
      </trkpt>
      <trkpt lat="48.86948" lon="2.31947">
        <ele>74.1</ele>
        <time>2013-02-18T21:30:16.000Z</time>
      </trkpt>
      <trkpt lat="48.86946" lon="2.31955">
        <ele>74.2</ele>
        <time>2013-02-18T21:30:17.000Z</time>
      </trkpt>
      <trkpt lat="48.86944" lon="2.31961">
        <ele>74.6</ele>
        <time>2013-02-18T21:30:18.000Z</time>
      </trkpt>
      <trkpt lat="48.86941" lon="2.31968">
        <ele>74.1</ele>
        <time>2013-02-18T21:30:19.000Z</time>
      </trkpt>
      <trkpt lat="48.86939" lon="2.31976">
        <ele>73.7</ele>
        <time>2013-02-18T21:30:20.000Z</time>
      </trkpt>
      <trkpt lat="48.86935" lon="2.31983">
        <ele>74.1</ele>
        <time>2013-02-18T21:30:21.000Z</time>
      </trkpt>
      <trkpt lat="48.86933" lon="2.31991">
        <ele>74</ele>
        <time>2013-02-18T21:30:22.000Z</time>
      </trkpt>
      <trkpt lat="48.86929" lon="2.32001">
        <ele>74.1</ele>
        <time>2013-02-18T21:30:23.609Z</time>
      </trkpt>
      <trkpt lat="48.8693" lon="2.32007">
        <ele>73.2</ele>
        <time>2013-02-18T21:30:25.000Z</time>
      </trkpt>
      <trkpt lat="48.86926" lon="2.32016">
        <ele>74.2</ele>
        <time>2013-02-18T21:30:26.000Z</time>
      </trkpt>
      <trkpt lat="48.86924" lon="2.32024">
        <ele>73.9</ele>
        <time>2013-02-18T21:30:27.000Z</time>
      </trkpt>
      <trkpt lat="48.86922" lon="2.32031">
        <ele>74.5</ele>
        <time>2013-02-18T21:30:28.000Z</time>
      </trkpt>
      <trkpt lat="48.86919" lon="2.3204">
        <ele>74.9</ele>
        <time>2013-02-18T21:30:29.000Z</time>
      </trkpt>
      <trkpt lat="48.86918" lon="2.32047">
        <ele>74.7</ele>
        <time>2013-02-18T21:30:30.000Z</time>
      </trkpt>
      <trkpt lat="48.86915" lon="2.32053">
        <ele>75.4</ele>
        <time>2013-02-18T21:30:31.000Z</time>
      </trkpt>
      <trkpt lat="48.86914" lon="2.32059">
        <ele>75.2</ele>
        <time>2013-02-18T21:30:32.000Z</time>
      </trkpt>
      <trkpt lat="48.86912" lon="2.32066">
        <ele>75.9</ele>
        <time>2013-02-18T21:30:33.000Z</time>
      </trkpt>
      <trkpt lat="48.8691" lon="2.32072">
        <ele>75.9</ele>
        <time>2013-02-18T21:30:34.000Z</time>
      </trkpt>
      <trkpt lat="48.86911" lon="2.32079">
        <ele>75.7</ele>
        <time>2013-02-18T21:30:35.000Z</time>
      </trkpt>
      <trkpt lat="48.8691" lon="2.32085">
        <ele>76.3</ele>
        <time>2013-02-18T21:30:36.000Z</time>
      </trkpt>
      <trkpt lat="48.86909" lon="2.32093">
        <ele>76.6</ele>
        <time>2013-02-18T21:30:37.000Z</time>
      </trkpt>
      <trkpt lat="48.86907" lon="2.32099">
        <ele>77.2</ele>
        <time>2013-02-18T21:30:38.000Z</time>
      </trkpt>
      <trkpt lat="48.86906" lon="2.32107">
        <ele>77.7</ele>
        <time>2013-02-18T21:30:39.000Z</time>
      </trkpt>
      <trkpt lat="48.86903" lon="2.3212">
        <ele>79</ele>
        <time>2013-02-18T21:30:40.000Z</time>
      </trkpt>
      <trkpt lat="48.86901" lon="2.32129">
        <ele>80.1</ele>
        <time>2013-02-18T21:30:41.000Z</time>
      </trkpt>
      <trkpt lat="48.86897" lon="2.3214">
        <ele>81.9</ele>
        <time>2013-02-18T21:30:42.000Z</time>
      </trkpt>
      <trkpt lat="48.86895" lon="2.32146">
        <ele>82.2</ele>
        <time>2013-02-18T21:30:43.000Z</time>
      </trkpt>
      <trkpt lat="48.86893" lon="2.32153">
        <ele>82.8</ele>
        <time>2013-02-18T21:30:44.000Z</time>
      </trkpt>
      <trkpt lat="48.86894" lon="2.32159">
        <ele>81.5</ele>
        <time>2013-02-18T21:30:45.000Z</time>
      </trkpt>
      <trkpt lat="48.86895" lon="2.32167">
        <ele>80.2</ele>
        <time>2013-02-18T21:30:46.000Z</time>
      </trkpt>
      <trkpt lat="48.86894" lon="2.32174">
        <ele>80.6</ele>
        <time>2013-02-18T21:30:47.000Z</time>
      </trkpt>
      <trkpt lat="48.86892" lon="2.32181">
        <ele>79.9</ele>
        <time>2013-02-18T21:30:48.000Z</time>
      </trkpt>
      <trkpt lat="48.86891" lon="2.32188">
        <ele>80.2</ele>
        <time>2013-02-18T21:30:49.000Z</time>
      </trkpt>
      <trkpt lat="48.8689" lon="2.32194">
        <ele>80.3</ele>
        <time>2013-02-18T21:30:50.000Z</time>
      </trkpt>
      <trkpt lat="48.86887" lon="2.32197">
        <ele>77.9</ele>
        <time>2013-02-18T21:30:51.000Z</time>
      </trkpt>
      <trkpt lat="48.86886" lon="2.32203">
        <ele>78.7</ele>
        <time>2013-02-18T21:30:52.000Z</time>
      </trkpt>
      <trkpt lat="48.86886" lon="2.32208">
        <ele>78.3</ele>
        <time>2013-02-18T21:30:53.000Z</time>
      </trkpt>
      <trkpt lat="48.86883" lon="2.32214">
        <ele>77.9</ele>
        <time>2013-02-18T21:30:54.000Z</time>
      </trkpt>
      <trkpt lat="48.86881" lon="2.32219">
        <ele>77.6</ele>
        <time>2013-02-18T21:30:55.000Z</time>
      </trkpt>
      <trkpt lat="48.8688" lon="2.32225">
        <ele>77.4</ele>
        <time>2013-02-18T21:30:56.000Z</time>
      </trkpt>
      <trkpt lat="48.86878" lon="2.3223">
        <ele>77.4</ele>
        <time>2013-02-18T21:30:57.000Z</time>
      </trkpt>
      <trkpt lat="48.86877" lon="2.32237">
        <ele>77.5</ele>
        <time>2013-02-18T21:30:58.000Z</time>
      </trkpt>
      <trkpt lat="48.86875" lon="2.32243">
        <ele>77.5</ele>
        <time>2013-02-18T21:30:59.000Z</time>
      </trkpt>
      <trkpt lat="48.86874" lon="2.32248">
        <ele>77.9</ele>
        <time>2013-02-18T21:31:00.000Z</time>
      </trkpt>
      <trkpt lat="48.86872" lon="2.32254">
        <ele>78.2</ele>
        <time>2013-02-18T21:31:01.000Z</time>
      </trkpt>
      <trkpt lat="48.8687" lon="2.32259">
        <ele>78.7</ele>
        <time>2013-02-18T21:31:02.000Z</time>
      </trkpt>
      <trkpt lat="48.86868" lon="2.32265">
        <ele>78.8</ele>
        <time>2013-02-18T21:31:03.000Z</time>
      </trkpt>
      <trkpt lat="48.86867" lon="2.3227">
        <ele>78.9</ele>
        <time>2013-02-18T21:31:04.000Z</time>
      </trkpt>
      <trkpt lat="48.86865" lon="2.32276">
        <ele>78.8</ele>
        <time>2013-02-18T21:31:05.000Z</time>
      </trkpt>
      <trkpt lat="48.86864" lon="2.32281">
        <ele>79.2</ele>
        <time>2013-02-18T21:31:06.000Z</time>
      </trkpt>
      <trkpt lat="48.86863" lon="2.32287">
        <ele>80</ele>
        <time>2013-02-18T21:31:07.000Z</time>
      </trkpt>
      <trkpt lat="48.86862" lon="2.32292">
        <ele>79.8</ele>
        <time>2013-02-18T21:31:08.000Z</time>
      </trkpt>
      <trkpt lat="48.8686" lon="2.32296">
        <ele>79.8</ele>
        <time>2013-02-18T21:31:09.000Z</time>
      </trkpt>
      <trkpt lat="48.86858" lon="2.32301">
        <ele>79.7</ele>
        <time>2013-02-18T21:31:10.000Z</time>
      </trkpt>
      <trkpt lat="48.86857" lon="2.32305">
        <ele>78.9</ele>
        <time>2013-02-18T21:31:11.000Z</time>
      </trkpt>
      <trkpt lat="48.86855" lon="2.32309">
        <ele>80.2</ele>
        <time>2013-02-18T21:31:12.000Z</time>
      </trkpt>
      <trkpt lat="48.86854" lon="2.32313">
        <ele>79.3</ele>
        <time>2013-02-18T21:31:14.000Z</time>
      </trkpt>
      <trkpt lat="48.86854" lon="2.32315">
        <ele>80.9</ele>
        <time>2013-02-18T21:31:15.000Z</time>
      </trkpt>
      <trkpt lat="48.86852" lon="2.32321">
        <ele>81.5</ele>
        <time>2013-02-18T21:31:18.000Z</time>
      </trkpt>
      <trkpt lat="48.86851" lon="2.32323">
        <ele>81.5</ele>
        <time>2013-02-18T21:31:19.000Z</time>
      </trkpt>
      <trkpt lat="48.86847" lon="2.32322">
        <ele>75.4</ele>
        <time>2013-02-18T21:31:22.000Z</time>
      </trkpt>
      <trkpt lat="48.86846" lon="2.32322">
        <ele>75.2</ele>
        <time>2013-02-18T21:31:24.071Z</time>
      </trkpt>
      <trkpt lat="48.86843" lon="2.32317">
        <ele>74.8</ele>
        <time>2013-02-18T21:31:31.000Z</time>
      </trkpt>
      <trkpt lat="48.86843" lon="2.32316">
        <ele>74.5</ele>
        <time>2013-02-18T21:31:32.000Z</time>
      </trkpt>
      <trkpt lat="48.86842" lon="2.32321">
        <ele>75.2</ele>
        <time>2013-02-18T21:31:48.000Z</time>
      </trkpt>
      <trkpt lat="48.86841" lon="2.32325">
        <ele>75.2</ele>
        <time>2013-02-18T21:31:49.000Z</time>
      </trkpt>
      <trkpt lat="48.86839" lon="2.32329">
        <ele>74.8</ele>
        <time>2013-02-18T21:31:50.000Z</time>
      </trkpt>
      <trkpt lat="48.86837" lon="2.32332">
        <ele>75.5</ele>
        <time>2013-02-18T21:31:51.000Z</time>
      </trkpt>
      <trkpt lat="48.86836" lon="2.32336">
        <ele>75.1</ele>
        <time>2013-02-18T21:31:52.000Z</time>
      </trkpt>
      <trkpt lat="48.86834" lon="2.3234">
        <ele>75</ele>
        <time>2013-02-18T21:31:53.000Z</time>
      </trkpt>
      <trkpt lat="48.86833" lon="2.32343">
        <ele>74.3</ele>
        <time>2013-02-18T21:31:54.000Z</time>
      </trkpt>
      <trkpt lat="48.86831" lon="2.32348">
        <ele>74.5</ele>
        <time>2013-02-18T21:31:55.000Z</time>
      </trkpt>
      <trkpt lat="48.8683" lon="2.32353">
        <ele>74.6</ele>
        <time>2013-02-18T21:31:56.000Z</time>
      </trkpt>
      <trkpt lat="48.86828" lon="2.32357">
        <ele>74.3</ele>
        <time>2013-02-18T21:31:57.000Z</time>
      </trkpt>
      <trkpt lat="48.86826" lon="2.32362">
        <ele>74</ele>
        <time>2013-02-18T21:31:58.000Z</time>
      </trkpt>
      <trkpt lat="48.86824" lon="2.32367">
        <ele>74.1</ele>
        <time>2013-02-18T21:31:59.000Z</time>
      </trkpt>
      <trkpt lat="48.86822" lon="2.32372">
        <ele>74.4</ele>
        <time>2013-02-18T21:32:00.000Z</time>
      </trkpt>
      <trkpt lat="48.8682" lon="2.32376">
        <ele>75.1</ele>
        <time>2013-02-18T21:32:01.000Z</time>
      </trkpt>
      <trkpt lat="48.86818" lon="2.32381">
        <ele>76</ele>
        <time>2013-02-18T21:32:02.000Z</time>
      </trkpt>
      <trkpt lat="48.86816" lon="2.32386">
        <ele>76.3</ele>
        <time>2013-02-18T21:32:03.000Z</time>
      </trkpt>
      <trkpt lat="48.86814" lon="2.32391">
        <ele>77.7</ele>
        <time>2013-02-18T21:32:04.000Z</time>
      </trkpt>
      <trkpt lat="48.86812" lon="2.32397">
        <ele>77.8</ele>
        <time>2013-02-18T21:32:05.000Z</time>
      </trkpt>
      <trkpt lat="48.8681" lon="2.32402">
        <ele>78.9</ele>
        <time>2013-02-18T21:32:06.000Z</time>
      </trkpt>
      <trkpt lat="48.86809" lon="2.32407">
        <ele>78.2</ele>
        <time>2013-02-18T21:32:07.000Z</time>
      </trkpt>
      <trkpt lat="48.86807" lon="2.32412">
        <ele>78.6</ele>
        <time>2013-02-18T21:32:08.000Z</time>
      </trkpt>
      <trkpt lat="48.86806" lon="2.32417">
        <ele>78.7</ele>
        <time>2013-02-18T21:32:09.000Z</time>
      </trkpt>
      <trkpt lat="48.86804" lon="2.32422">
        <ele>78.5</ele>
        <time>2013-02-18T21:32:10.000Z</time>
      </trkpt>
      <trkpt lat="48.86802" lon="2.32427">
        <ele>79.6</ele>
        <time>2013-02-18T21:32:11.000Z</time>
      </trkpt>
      <trkpt lat="48.868" lon="2.32432">
        <ele>79.9</ele>
        <time>2013-02-18T21:32:12.000Z</time>
      </trkpt>
      <trkpt lat="48.86798" lon="2.32438">
        <ele>79.4</ele>
        <time>2013-02-18T21:32:13.000Z</time>
      </trkpt>
      <trkpt lat="48.86796" lon="2.32445">
        <ele>79.6</ele>
        <time>2013-02-18T21:32:14.000Z</time>
      </trkpt>
      <trkpt lat="48.86795" lon="2.32451">
        <ele>79.3</ele>
        <time>2013-02-18T21:32:15.000Z</time>
      </trkpt>
      <trkpt lat="48.86793" lon="2.32458">
        <ele>79.6</ele>
        <time>2013-02-18T21:32:16.000Z</time>
      </trkpt>
      <trkpt lat="48.86791" lon="2.32464">
        <ele>79.6</ele>
        <time>2013-02-18T21:32:17.000Z</time>
      </trkpt>
      <trkpt lat="48.86788" lon="2.32472">
        <ele>78.8</ele>
        <time>2013-02-18T21:32:18.000Z</time>
      </trkpt>
      <trkpt lat="48.86785" lon="2.32476">
        <ele>79.3</ele>
        <time>2013-02-18T21:32:19.000Z</time>
      </trkpt>
      <trkpt lat="48.86784" lon="2.32482">
        <ele>79.2</ele>
        <time>2013-02-18T21:32:20.000Z</time>
      </trkpt>
      <trkpt lat="48.86782" lon="2.32488">
        <ele>79.1</ele>
        <time>2013-02-18T21:32:21.000Z</time>
      </trkpt>
      <trkpt lat="48.86781" lon="2.32495">
        <ele>78.9</ele>
        <time>2013-02-18T21:32:22.000Z</time>
      </trkpt>
      <trkpt lat="48.86774" lon="2.32511">
        <ele>77.9</ele>
        <time>2013-02-18T21:32:25.000Z</time>
      </trkpt>
      <trkpt lat="48.86772" lon="2.32517">
        <ele>77.8</ele>
        <time>2013-02-18T21:32:26.000Z</time>
      </trkpt>
      <trkpt lat="48.86772" lon="2.32524">
        <ele>77.5</ele>
        <time>2013-02-18T21:32:27.000Z</time>
      </trkpt>
      <trkpt lat="48.8677" lon="2.32531">
        <ele>78.5</ele>
        <time>2013-02-18T21:32:28.000Z</time>
      </trkpt>
      <trkpt lat="48.86768" lon="2.32536">
        <ele>77.6</ele>
        <time>2013-02-18T21:32:29.000Z</time>
      </trkpt>
      <trkpt lat="48.86767" lon="2.32542">
        <ele>77</ele>
        <time>2013-02-18T21:32:30.000Z</time>
      </trkpt>
      <trkpt lat="48.86765" lon="2.32549">
        <ele>76.4</ele>
        <time>2013-02-18T21:32:31.000Z</time>
      </trkpt>
      <trkpt lat="48.86764" lon="2.32555">
        <ele>75.4</ele>
        <time>2013-02-18T21:32:32.000Z</time>
      </trkpt>
      <trkpt lat="48.86761" lon="2.32562">
        <ele>76.4</ele>
        <time>2013-02-18T21:32:33.000Z</time>
      </trkpt>
      <trkpt lat="48.8676" lon="2.32569">
        <ele>75.9</ele>
        <time>2013-02-18T21:32:34.000Z</time>
      </trkpt>
      <trkpt lat="48.8676" lon="2.32576">
        <ele>76</ele>
        <time>2013-02-18T21:32:35.000Z</time>
      </trkpt>
      <trkpt lat="48.86759" lon="2.32583">
        <ele>76.8</ele>
        <time>2013-02-18T21:32:36.000Z</time>
      </trkpt>
      <trkpt lat="48.86758" lon="2.32589">
        <ele>78.3</ele>
        <time>2013-02-18T21:32:37.000Z</time>
      </trkpt>
      <trkpt lat="48.86756" lon="2.32596">
        <ele>78</ele>
        <time>2013-02-18T21:32:38.000Z</time>
      </trkpt>
      <trkpt lat="48.86755" lon="2.32602">
        <ele>78.3</ele>
        <time>2013-02-18T21:32:39.000Z</time>
      </trkpt>
      <trkpt lat="48.86754" lon="2.32609">
        <ele>77.7</ele>
        <time>2013-02-18T21:32:40.000Z</time>
      </trkpt>
      <trkpt lat="48.86752" lon="2.32617">
        <ele>79.1</ele>
        <time>2013-02-18T21:32:41.000Z</time>
      </trkpt>
      <trkpt lat="48.86749" lon="2.32623">
        <ele>79.3</ele>
        <time>2013-02-18T21:32:42.000Z</time>
      </trkpt>
      <trkpt lat="48.86745" lon="2.3263">
        <ele>79.8</ele>
        <time>2013-02-18T21:32:43.000Z</time>
      </trkpt>
      <trkpt lat="48.86744" lon="2.32636">
        <ele>79.7</ele>
        <time>2013-02-18T21:32:44.000Z</time>
      </trkpt>
      <trkpt lat="48.86742" lon="2.32643">
        <ele>80.2</ele>
        <time>2013-02-18T21:32:45.000Z</time>
      </trkpt>
      <trkpt lat="48.86741" lon="2.32648">
        <ele>80.2</ele>
        <time>2013-02-18T21:32:46.000Z</time>
      </trkpt>
      <trkpt lat="48.86739" lon="2.32653">
        <ele>79.4</ele>
        <time>2013-02-18T21:32:47.000Z</time>
      </trkpt>
      <trkpt lat="48.86737" lon="2.32659">
        <ele>79.7</ele>
        <time>2013-02-18T21:32:48.000Z</time>
      </trkpt>
      <trkpt lat="48.86735" lon="2.32665">
        <ele>79.7</ele>
        <time>2013-02-18T21:32:49.000Z</time>
      </trkpt>
      <trkpt lat="48.86733" lon="2.3267">
        <ele>80.1</ele>
        <time>2013-02-18T21:32:50.000Z</time>
      </trkpt>
      <trkpt lat="48.86732" lon="2.32674">
        <ele>80.3</ele>
        <time>2013-02-18T21:32:51.000Z</time>
      </trkpt>
      <trkpt lat="48.8673" lon="2.32682">
        <ele>80.8</ele>
        <time>2013-02-18T21:32:52.000Z</time>
      </trkpt>
      <trkpt lat="48.86728" lon="2.32688">
        <ele>81.2</ele>
        <time>2013-02-18T21:32:53.000Z</time>
      </trkpt>
      <trkpt lat="48.86726" lon="2.32693">
        <ele>81.8</ele>
        <time>2013-02-18T21:32:54.000Z</time>
      </trkpt>
      <trkpt lat="48.86725" lon="2.32699">
        <ele>81.8</ele>
        <time>2013-02-18T21:32:55.000Z</time>
      </trkpt>
      <trkpt lat="48.86723" lon="2.32704">
        <ele>81.6</ele>
        <time>2013-02-18T21:32:56.000Z</time>
      </trkpt>
      <trkpt lat="48.86721" lon="2.3271">
        <ele>81.4</ele>
        <time>2013-02-18T21:32:57.000Z</time>
      </trkpt>
      <trkpt lat="48.86719" lon="2.32715">
        <ele>81</ele>
        <time>2013-02-18T21:32:58.000Z</time>
      </trkpt>
      <trkpt lat="48.86717" lon="2.3272">
        <ele>80.2</ele>
        <time>2013-02-18T21:32:59.000Z</time>
      </trkpt>
      <trkpt lat="48.86715" lon="2.32725">
        <ele>80.5</ele>
        <time>2013-02-18T21:33:00.000Z</time>
      </trkpt>
      <trkpt lat="48.86713" lon="2.32729">
        <ele>80.3</ele>
        <time>2013-02-18T21:33:01.000Z</time>
      </trkpt>
      <trkpt lat="48.8671" lon="2.32734">
        <ele>80.5</ele>
        <time>2013-02-18T21:33:02.000Z</time>
      </trkpt>
      <trkpt lat="48.86708" lon="2.32739">
        <ele>79.4</ele>
        <time>2013-02-18T21:33:03.000Z</time>
      </trkpt>
      <trkpt lat="48.86705" lon="2.32744">
        <ele>80.1</ele>
        <time>2013-02-18T21:33:04.000Z</time>
      </trkpt>
      <trkpt lat="48.86703" lon="2.32748">
        <ele>78.9</ele>
        <time>2013-02-18T21:33:05.000Z</time>
      </trkpt>
      <trkpt lat="48.867" lon="2.32754">
        <ele>77.7</ele>
        <time>2013-02-18T21:33:06.000Z</time>
      </trkpt>
      <trkpt lat="48.86698" lon="2.32759">
        <ele>78.1</ele>
        <time>2013-02-18T21:33:07.000Z</time>
      </trkpt>
      <trkpt lat="48.86697" lon="2.32762">
        <ele>78.3</ele>
        <time>2013-02-18T21:33:08.000Z</time>
      </trkpt>
      <trkpt lat="48.86696" lon="2.32766">
        <ele>77.9</ele>
        <time>2013-02-18T21:33:09.000Z</time>
      </trkpt>
      <trkpt lat="48.86694" lon="2.3277">
        <ele>78.3</ele>
        <time>2013-02-18T21:33:10.000Z</time>
      </trkpt>
      <trkpt lat="48.86693" lon="2.32775">
        <ele>78.4</ele>
        <time>2013-02-18T21:33:11.000Z</time>
      </trkpt>
      <trkpt lat="48.86692" lon="2.32779">
        <ele>79</ele>
        <time>2013-02-18T21:33:12.000Z</time>
      </trkpt>
      <trkpt lat="48.8669" lon="2.32782">
        <ele>78.3</ele>
        <time>2013-02-18T21:33:13.000Z</time>
      </trkpt>
      <trkpt lat="48.86689" lon="2.32786">
        <ele>78</ele>
        <time>2013-02-18T21:33:14.000Z</time>
      </trkpt>
      <trkpt lat="48.86687" lon="2.3279">
        <ele>78.4</ele>
        <time>2013-02-18T21:33:15.000Z</time>
      </trkpt>
      <trkpt lat="48.86686" lon="2.32793">
        <ele>78.3</ele>
        <time>2013-02-18T21:33:16.000Z</time>
      </trkpt>
      <trkpt lat="48.86684" lon="2.32797">
        <ele>79.4</ele>
        <time>2013-02-18T21:33:17.000Z</time>
      </trkpt>
      <trkpt lat="48.86683" lon="2.32802">
        <ele>81</ele>
        <time>2013-02-18T21:33:18.000Z</time>
      </trkpt>
      <trkpt lat="48.86683" lon="2.32807">
        <ele>81.7</ele>
        <time>2013-02-18T21:33:19.000Z</time>
      </trkpt>
      <trkpt lat="48.86681" lon="2.32811">
        <ele>81.5</ele>
        <time>2013-02-18T21:33:20.000Z</time>
      </trkpt>
      <trkpt lat="48.86679" lon="2.32816">
        <ele>82.2</ele>
        <time>2013-02-18T21:33:21.000Z</time>
      </trkpt>
      <trkpt lat="48.86677" lon="2.3282">
        <ele>83.3</ele>
        <time>2013-02-18T21:33:22.000Z</time>
      </trkpt>
      <trkpt lat="48.86673" lon="2.32831">
        <ele>82.6</ele>
        <time>2013-02-18T21:33:25.000Z</time>
      </trkpt>
      <trkpt lat="48.8667" lon="2.32836">
        <ele>82.2</ele>
        <time>2013-02-18T21:33:27.000Z</time>
      </trkpt>
      <trkpt lat="48.86669" lon="2.32838">
        <ele>80.4</ele>
        <time>2013-02-18T21:33:28.000Z</time>
      </trkpt>
      <trkpt lat="48.86667" lon="2.3284">
        <ele>79.7</ele>
        <time>2013-02-18T21:33:29.000Z</time>
      </trkpt>
      <trkpt lat="48.86665" lon="2.32842">
        <ele>80.3</ele>
        <time>2013-02-18T21:33:30.000Z</time>
      </trkpt>
      <trkpt lat="48.86663" lon="2.32846">
        <ele>77.6</ele>
        <time>2013-02-18T21:33:31.000Z</time>
      </trkpt>
      <trkpt lat="48.86661" lon="2.3285">
        <ele>80.2</ele>
        <time>2013-02-18T21:33:32.000Z</time>
      </trkpt>
      <trkpt lat="48.86658" lon="2.32855">
        <ele>80.7</ele>
        <time>2013-02-18T21:33:33.000Z</time>
      </trkpt>
      <trkpt lat="48.86656" lon="2.3286">
        <ele>80.8</ele>
        <time>2013-02-18T21:33:34.000Z</time>
      </trkpt>
      <trkpt lat="48.86653" lon="2.32866">
        <ele>80.3</ele>
        <time>2013-02-18T21:33:35.000Z</time>
      </trkpt>
      <trkpt lat="48.86651" lon="2.32871">
        <ele>81.4</ele>
        <time>2013-02-18T21:33:36.000Z</time>
      </trkpt>
      <trkpt lat="48.86648" lon="2.32877">
        <ele>82</ele>
        <time>2013-02-18T21:33:37.000Z</time>
      </trkpt>
      <trkpt lat="48.86645" lon="2.32883">
        <ele>82.3</ele>
        <time>2013-02-18T21:33:38.000Z</time>
      </trkpt>
      <trkpt lat="48.86642" lon="2.32888">
        <ele>81.7</ele>
        <time>2013-02-18T21:33:39.000Z</time>
      </trkpt>
      <trkpt lat="48.86639" lon="2.32894">
        <ele>81.7</ele>
        <time>2013-02-18T21:33:40.000Z</time>
      </trkpt>
      <trkpt lat="48.86637" lon="2.32899">
        <ele>81.6</ele>
        <time>2013-02-18T21:33:41.000Z</time>
      </trkpt>
      <trkpt lat="48.86634" lon="2.32904">
        <ele>81.8</ele>
        <time>2013-02-18T21:33:42.000Z</time>
      </trkpt>
      <trkpt lat="48.86631" lon="2.32908">
        <ele>81.9</ele>
        <time>2013-02-18T21:33:43.000Z</time>
      </trkpt>
      <trkpt lat="48.86627" lon="2.32913">
        <ele>81.5</ele>
        <time>2013-02-18T21:33:44.000Z</time>
      </trkpt>
      <trkpt lat="48.86624" lon="2.32918">
        <ele>81.1</ele>
        <time>2013-02-18T21:33:45.000Z</time>
      </trkpt>
      <trkpt lat="48.86621" lon="2.32925">
        <ele>81.1</ele>
        <time>2013-02-18T21:33:46.000Z</time>
      </trkpt>
      <trkpt lat="48.86618" lon="2.32929">
        <ele>81.7</ele>
        <time>2013-02-18T21:33:47.000Z</time>
      </trkpt>
      <trkpt lat="48.86614" lon="2.32934">
        <ele>82.6</ele>
        <time>2013-02-18T21:33:48.000Z</time>
      </trkpt>
      <trkpt lat="48.86611" lon="2.32938">
        <ele>82.7</ele>
        <time>2013-02-18T21:33:49.000Z</time>
      </trkpt>
      <trkpt lat="48.86608" lon="2.32942">
        <ele>82.6</ele>
        <time>2013-02-18T21:33:50.000Z</time>
      </trkpt>
      <trkpt lat="48.86605" lon="2.32947">
        <ele>83</ele>
        <time>2013-02-18T21:33:51.000Z</time>
      </trkpt>
      <trkpt lat="48.866" lon="2.32953">
        <ele>82.5</ele>
        <time>2013-02-18T21:33:52.000Z</time>
      </trkpt>
      <trkpt lat="48.86598" lon="2.32957">
        <ele>83.1</ele>
        <time>2013-02-18T21:33:53.000Z</time>
      </trkpt>
      <trkpt lat="48.86595" lon="2.32961">
        <ele>83.5</ele>
        <time>2013-02-18T21:33:54.000Z</time>
      </trkpt>
      <trkpt lat="48.86593" lon="2.32968">
        <ele>83.7</ele>
        <time>2013-02-18T21:33:55.000Z</time>
      </trkpt>
      <trkpt lat="48.8659" lon="2.32972">
        <ele>83.8</ele>
        <time>2013-02-18T21:33:56.000Z</time>
      </trkpt>
      <trkpt lat="48.86588" lon="2.32978">
        <ele>84.4</ele>
        <time>2013-02-18T21:33:57.000Z</time>
      </trkpt>
      <trkpt lat="48.86585" lon="2.32984">
        <ele>84.4</ele>
        <time>2013-02-18T21:33:58.000Z</time>
      </trkpt>
      <trkpt lat="48.86582" lon="2.3299">
        <ele>84.2</ele>
        <time>2013-02-18T21:33:59.000Z</time>
      </trkpt>
      <trkpt lat="48.86586" lon="2.33007">
        <ele>84.4</ele>
        <time>2013-02-18T21:34:00.000Z</time>
      </trkpt>
      <trkpt lat="48.86582" lon="2.33011">
        <ele>83.9</ele>
        <time>2013-02-18T21:34:01.000Z</time>
      </trkpt>
      <trkpt lat="48.86579" lon="2.33014">
        <ele>83.1</ele>
        <time>2013-02-18T21:34:02.000Z</time>
      </trkpt>
      <trkpt lat="48.86576" lon="2.33016">
        <ele>83.3</ele>
        <time>2013-02-18T21:34:03.000Z</time>
      </trkpt>
      <trkpt lat="48.86574" lon="2.33024">
        <ele>83.3</ele>
        <time>2013-02-18T21:34:04.000Z</time>
      </trkpt>
      <trkpt lat="48.86573" lon="2.3303">
        <ele>83.4</ele>
        <time>2013-02-18T21:34:05.000Z</time>
      </trkpt>
      <trkpt lat="48.8657" lon="2.33036">
        <ele>83.3</ele>
        <time>2013-02-18T21:34:06.000Z</time>
      </trkpt>
      <trkpt lat="48.86566" lon="2.3304">
        <ele>82.9</ele>
        <time>2013-02-18T21:34:07.000Z</time>
      </trkpt>
      <trkpt lat="48.86563" lon="2.33046">
        <ele>82.8</ele>
        <time>2013-02-18T21:34:08.000Z</time>
      </trkpt>
      <trkpt lat="48.86561" lon="2.33052">
        <ele>83</ele>
        <time>2013-02-18T21:34:09.000Z</time>
      </trkpt>
      <trkpt lat="48.86559" lon="2.33058">
        <ele>82.8</ele>
        <time>2013-02-18T21:34:10.000Z</time>
      </trkpt>
      <trkpt lat="48.86557" lon="2.33063">
        <ele>82.6</ele>
        <time>2013-02-18T21:34:11.000Z</time>
      </trkpt>
      <trkpt lat="48.86554" lon="2.33068">
        <ele>82.6</ele>
        <time>2013-02-18T21:34:12.000Z</time>
      </trkpt>
      <trkpt lat="48.86552" lon="2.33072">
        <ele>82.5</ele>
        <time>2013-02-18T21:34:13.000Z</time>
      </trkpt>
      <trkpt lat="48.86548" lon="2.33075">
        <ele>80.9</ele>
        <time>2013-02-18T21:34:14.000Z</time>
      </trkpt>
      <trkpt lat="48.86544" lon="2.33078">
        <ele>81.2</ele>
        <time>2013-02-18T21:34:15.000Z</time>
      </trkpt>
      <trkpt lat="48.86541" lon="2.33082">
        <ele>81.4</ele>
        <time>2013-02-18T21:34:16.000Z</time>
      </trkpt>
      <trkpt lat="48.86537" lon="2.33086">
        <ele>81.4</ele>
        <time>2013-02-18T21:34:17.000Z</time>
      </trkpt>
      <trkpt lat="48.86533" lon="2.33094">
        <ele>82.3</ele>
        <time>2013-02-18T21:34:18.000Z</time>
      </trkpt>
      <trkpt lat="48.8653" lon="2.331">
        <ele>82.1</ele>
        <time>2013-02-18T21:34:19.000Z</time>
      </trkpt>
      <trkpt lat="48.86527" lon="2.33106">
        <ele>81.9</ele>
        <time>2013-02-18T21:34:20.000Z</time>
      </trkpt>
      <trkpt lat="48.86525" lon="2.33111">
        <ele>81.2</ele>
        <time>2013-02-18T21:34:21.000Z</time>
      </trkpt>
      <trkpt lat="48.86522" lon="2.3312">
        <ele>81.3</ele>
        <time>2013-02-18T21:34:22.000Z</time>
      </trkpt>
      <trkpt lat="48.86517" lon="2.3314">
        <ele>81.6</ele>
        <time>2013-02-18T21:34:25.000Z</time>
      </trkpt>
      <trkpt lat="48.86515" lon="2.33146">
        <ele>81.7</ele>
        <time>2013-02-18T21:34:26.000Z</time>
      </trkpt>
      <trkpt lat="48.86511" lon="2.33152">
        <ele>82</ele>
        <time>2013-02-18T21:34:27.000Z</time>
      </trkpt>
      <trkpt lat="48.86508" lon="2.33158">
        <ele>82</ele>
        <time>2013-02-18T21:34:28.000Z</time>
      </trkpt>
      <trkpt lat="48.86505" lon="2.33164">
        <ele>82.5</ele>
        <time>2013-02-18T21:34:29.000Z</time>
      </trkpt>
      <trkpt lat="48.865" lon="2.3317">
        <ele>82.3</ele>
        <time>2013-02-18T21:34:30.000Z</time>
      </trkpt>
      <trkpt lat="48.86496" lon="2.33175">
        <ele>82.7</ele>
        <time>2013-02-18T21:34:31.000Z</time>
      </trkpt>
      <trkpt lat="48.8649" lon="2.33181">
        <ele>82.6</ele>
        <time>2013-02-18T21:34:32.000Z</time>
      </trkpt>
      <trkpt lat="48.86486" lon="2.33189">
        <ele>82.5</ele>
        <time>2013-02-18T21:34:33.000Z</time>
      </trkpt>
      <trkpt lat="48.86482" lon="2.33193">
        <ele>82.5</ele>
        <time>2013-02-18T21:34:34.000Z</time>
      </trkpt>
      <trkpt lat="48.86482" lon="2.33196">
        <ele>82.7</ele>
        <time>2013-02-18T21:34:35.000Z</time>
      </trkpt>
      <trkpt lat="48.86476" lon="2.33201">
        <ele>83.9</ele>
        <time>2013-02-18T21:34:36.000Z</time>
      </trkpt>
      <trkpt lat="48.86475" lon="2.33205">
        <ele>83.7</ele>
        <time>2013-02-18T21:34:37.000Z</time>
      </trkpt>
      <trkpt lat="48.86473" lon="2.3322">
        <ele>84.5</ele>
        <time>2013-02-18T21:34:38.000Z</time>
      </trkpt>
      <trkpt lat="48.86474" lon="2.33224">
        <ele>84.6</ele>
        <time>2013-02-18T21:34:39.000Z</time>
      </trkpt>
      <trkpt lat="48.86477" lon="2.33238">
        <ele>85.2</ele>
        <time>2013-02-18T21:34:40.000Z</time>
      </trkpt>
      <trkpt lat="48.86475" lon="2.33246">
        <ele>85.1</ele>
        <time>2013-02-18T21:34:41.000Z</time>
      </trkpt>
      <trkpt lat="48.86471" lon="2.33252">
        <ele>84.9</ele>
        <time>2013-02-18T21:34:42.000Z</time>
      </trkpt>
      <trkpt lat="48.8647" lon="2.33257">
        <ele>84.8</ele>
        <time>2013-02-18T21:34:43.000Z</time>
      </trkpt>
      <trkpt lat="48.86471" lon="2.33268">
        <ele>82.8</ele>
        <time>2013-02-18T21:34:44.000Z</time>
      </trkpt>
      <trkpt lat="48.86466" lon="2.33265">
        <ele>82.9</ele>
        <time>2013-02-18T21:34:45.000Z</time>
      </trkpt>
      <trkpt lat="48.86464" lon="2.33271">
        <ele>83.4</ele>
        <time>2013-02-18T21:34:46.000Z</time>
      </trkpt>
      <trkpt lat="48.86461" lon="2.33278">
        <ele>83.7</ele>
        <time>2013-02-18T21:34:47.000Z</time>
      </trkpt>
      <trkpt lat="48.86459" lon="2.33284">
        <ele>83.8</ele>
        <time>2013-02-18T21:34:48.000Z</time>
      </trkpt>
      <trkpt lat="48.8646" lon="2.33295">
        <ele>84.1</ele>
        <time>2013-02-18T21:34:49.000Z</time>
      </trkpt>
      <trkpt lat="48.86457" lon="2.33302">
        <ele>83.4</ele>
        <time>2013-02-18T21:34:50.000Z</time>
      </trkpt>
      <trkpt lat="48.86455" lon="2.33307">
        <ele>83.4</ele>
        <time>2013-02-18T21:34:51.000Z</time>
      </trkpt>
      <trkpt lat="48.86452" lon="2.33313">
        <ele>82.9</ele>
        <time>2013-02-18T21:34:52.000Z</time>
      </trkpt>
      <trkpt lat="48.86448" lon="2.33319">
        <ele>82.6</ele>
        <time>2013-02-18T21:34:53.000Z</time>
      </trkpt>
      <trkpt lat="48.86448" lon="2.33327">
        <ele>82.8</ele>
        <time>2013-02-18T21:34:54.000Z</time>
      </trkpt>
      <trkpt lat="48.86446" lon="2.33331">
        <ele>82.9</ele>
        <time>2013-02-18T21:34:55.000Z</time>
      </trkpt>
      <trkpt lat="48.86447" lon="2.33343">
        <ele>83.1</ele>
        <time>2013-02-18T21:34:56.000Z</time>
      </trkpt>
      <trkpt lat="48.86443" lon="2.33342">
        <ele>83.3</ele>
        <time>2013-02-18T21:34:57.000Z</time>
      </trkpt>
      <trkpt lat="48.86439" lon="2.33346">
        <ele>83.1</ele>
        <time>2013-02-18T21:34:58.000Z</time>
      </trkpt>
      <trkpt lat="48.86433" lon="2.3335">
        <ele>83</ele>
        <time>2013-02-18T21:34:59.000Z</time>
      </trkpt>
      <trkpt lat="48.86441" lon="2.33358">
        <ele>82.9</ele>
        <time>2013-02-18T21:35:00.000Z</time>
      </trkpt>
      <trkpt lat="48.86432" lon="2.33353">
        <ele>84</ele>
        <time>2013-02-18T21:35:01.000Z</time>
      </trkpt>
      <trkpt lat="48.86432" lon="2.3336">
        <ele>84</ele>
        <time>2013-02-18T21:35:02.000Z</time>
      </trkpt>
      <trkpt lat="48.86428" lon="2.33361">
        <ele>84.8</ele>
        <time>2013-02-18T21:35:03.000Z</time>
      </trkpt>
      <trkpt lat="48.86423" lon="2.33365">
        <ele>84.4</ele>
        <time>2013-02-18T21:35:04.000Z</time>
      </trkpt>
      <trkpt lat="48.86422" lon="2.33372">
        <ele>85.3</ele>
        <time>2013-02-18T21:35:05.000Z</time>
      </trkpt>
      <trkpt lat="48.8642" lon="2.33377">
        <ele>85</ele>
        <time>2013-02-18T21:35:06.000Z</time>
      </trkpt>
      <trkpt lat="48.86418" lon="2.33382">
        <ele>84.7</ele>
        <time>2013-02-18T21:35:07.000Z</time>
      </trkpt>
      <trkpt lat="48.86417" lon="2.33389">
        <ele>84.7</ele>
        <time>2013-02-18T21:35:08.000Z</time>
      </trkpt>
      <trkpt lat="48.86414" lon="2.33394">
        <ele>84.5</ele>
        <time>2013-02-18T21:35:09.000Z</time>
      </trkpt>
      <trkpt lat="48.86412" lon="2.334">
        <ele>84.5</ele>
        <time>2013-02-18T21:35:10.000Z</time>
      </trkpt>
      <trkpt lat="48.86409" lon="2.33405">
        <ele>84.2</ele>
        <time>2013-02-18T21:35:11.000Z</time>
      </trkpt>
      <trkpt lat="48.86407" lon="2.3341">
        <ele>84.2</ele>
        <time>2013-02-18T21:35:12.000Z</time>
      </trkpt>
      <trkpt lat="48.86404" lon="2.33415">
        <ele>77.3</ele>
        <time>2013-02-18T21:35:13.000Z</time>
      </trkpt>
      <trkpt lat="48.864" lon="2.33418">
        <ele>78.2</ele>
        <time>2013-02-18T21:35:14.000Z</time>
      </trkpt>
      <trkpt lat="48.86396" lon="2.33421">
        <ele>77.1</ele>
        <time>2013-02-18T21:35:15.000Z</time>
      </trkpt>
      <trkpt lat="48.86392" lon="2.33423">
        <ele>76.2</ele>
        <time>2013-02-18T21:35:16.000Z</time>
      </trkpt>
      <trkpt lat="48.86388" lon="2.33425">
        <ele>76.2</ele>
        <time>2013-02-18T21:35:17.000Z</time>
      </trkpt>
      <trkpt lat="48.86385" lon="2.33429">
        <ele>75.3</ele>
        <time>2013-02-18T21:35:18.000Z</time>
      </trkpt>
      <trkpt lat="48.86381" lon="2.33433">
        <ele>74.6</ele>
        <time>2013-02-18T21:35:19.000Z</time>
      </trkpt>
      <trkpt lat="48.86378" lon="2.33437">
        <ele>74.8</ele>
        <time>2013-02-18T21:35:20.000Z</time>
      </trkpt>
      <trkpt lat="48.86374" lon="2.33442">
        <ele>75.1</ele>
        <time>2013-02-18T21:35:21.000Z</time>
      </trkpt>
      <trkpt lat="48.86372" lon="2.33447">
        <ele>74.1</ele>
        <time>2013-02-18T21:35:22.000Z</time>
      </trkpt>
      <trkpt lat="48.86364" lon="2.33461">
        <ele>73.1</ele>
        <time>2013-02-18T21:35:25.000Z</time>
      </trkpt>
      <trkpt lat="48.86362" lon="2.33465">
        <ele>72.9</ele>
        <time>2013-02-18T21:35:26.000Z</time>
      </trkpt>
      <trkpt lat="48.86359" lon="2.33469">
        <ele>71.3</ele>
        <time>2013-02-18T21:35:27.000Z</time>
      </trkpt>
      <trkpt lat="48.86357" lon="2.33473">
        <ele>71</ele>
        <time>2013-02-18T21:35:28.000Z</time>
      </trkpt>
      <trkpt lat="48.86354" lon="2.33477">
        <ele>71.9</ele>
        <time>2013-02-18T21:35:29.000Z</time>
      </trkpt>
      <trkpt lat="48.86352" lon="2.33482">
        <ele>72.8</ele>
        <time>2013-02-18T21:35:30.000Z</time>
      </trkpt>
      <trkpt lat="48.8635" lon="2.33487">
        <ele>72.2</ele>
        <time>2013-02-18T21:35:31.000Z</time>
      </trkpt>
      <trkpt lat="48.86348" lon="2.33491">
        <ele>71.9</ele>
        <time>2013-02-18T21:35:32.000Z</time>
      </trkpt>
      <trkpt lat="48.86346" lon="2.33496">
        <ele>70.8</ele>
        <time>2013-02-18T21:35:33.000Z</time>
      </trkpt>
      <trkpt lat="48.86344" lon="2.33501">
        <ele>69.7</ele>
        <time>2013-02-18T21:35:34.000Z</time>
      </trkpt>
      <trkpt lat="48.86342" lon="2.33504">
        <ele>68.8</ele>
        <time>2013-02-18T21:35:35.000Z</time>
      </trkpt>
      <trkpt lat="48.8634" lon="2.33508">
        <ele>69.4</ele>
        <time>2013-02-18T21:35:36.000Z</time>
      </trkpt>
      <trkpt lat="48.86338" lon="2.33511">
        <ele>69.9</ele>
        <time>2013-02-18T21:35:37.000Z</time>
      </trkpt>
      <trkpt lat="48.86336" lon="2.33514">
        <ele>70.1</ele>
        <time>2013-02-18T21:35:38.000Z</time>
      </trkpt>
      <trkpt lat="48.86335" lon="2.33518">
        <ele>70.5</ele>
        <time>2013-02-18T21:35:39.000Z</time>
      </trkpt>
      <trkpt lat="48.86333" lon="2.33521">
        <ele>70.7</ele>
        <time>2013-02-18T21:35:40.000Z</time>
      </trkpt>
      <trkpt lat="48.86332" lon="2.33524">
        <ele>70.5</ele>
        <time>2013-02-18T21:35:41.000Z</time>
      </trkpt>
      <trkpt lat="48.86331" lon="2.33527">
        <ele>70.6</ele>
        <time>2013-02-18T21:35:42.000Z</time>
      </trkpt>
      <trkpt lat="48.86329" lon="2.3353">
        <ele>71.8</ele>
        <time>2013-02-18T21:35:43.000Z</time>
      </trkpt>
      <trkpt lat="48.86326" lon="2.33534">
        <ele>73.7</ele>
        <time>2013-02-18T21:35:45.000Z</time>
      </trkpt>
      <trkpt lat="48.86324" lon="2.33535">
        <ele>74</ele>
        <time>2013-02-18T21:35:46.000Z</time>
      </trkpt>
      <trkpt lat="48.86321" lon="2.33537">
        <ele>73.4</ele>
        <time>2013-02-18T21:35:48.000Z</time>
      </trkpt>
      <trkpt lat="48.86319" lon="2.33537">
        <ele>72.8</ele>
        <time>2013-02-18T21:35:49.000Z</time>
      </trkpt>
      <trkpt lat="48.86319" lon="2.33544">
        <ele>74.2</ele>
        <time>2013-02-18T21:36:02.000Z</time>
      </trkpt>
      <trkpt lat="48.86319" lon="2.33544">
        <ele>73.9</ele>
        <time>2013-02-18T21:36:03.000Z</time>
      </trkpt>
      <trkpt lat="48.86316" lon="2.33548">
        <ele>75.9</ele>
        <time>2013-02-18T21:36:07.000Z</time>
      </trkpt>
      <trkpt lat="48.86315" lon="2.3355">
        <ele>76.7</ele>
        <time>2013-02-18T21:36:08.000Z</time>
      </trkpt>
      <trkpt lat="48.86313" lon="2.33552">
        <ele>76.2</ele>
        <time>2013-02-18T21:36:09.000Z</time>
      </trkpt>
      <trkpt lat="48.86311" lon="2.33555">
        <ele>76.1</ele>
        <time>2013-02-18T21:36:10.000Z</time>
      </trkpt>
      <trkpt lat="48.86309" lon="2.33557">
        <ele>75.6</ele>
        <time>2013-02-18T21:36:11.000Z</time>
      </trkpt>
      <trkpt lat="48.86308" lon="2.3356">
        <ele>76.1</ele>
        <time>2013-02-18T21:36:12.000Z</time>
      </trkpt>
      <trkpt lat="48.86307" lon="2.33563">
        <ele>75.7</ele>
        <time>2013-02-18T21:36:13.000Z</time>
      </trkpt>
      <trkpt lat="48.86307" lon="2.33567">
        <ele>76.2</ele>
        <time>2013-02-18T21:36:14.000Z</time>
      </trkpt>
      <trkpt lat="48.86308" lon="2.33571">
        <ele>77.1</ele>
        <time>2013-02-18T21:36:15.000Z</time>
      </trkpt>
      <trkpt lat="48.86308" lon="2.33574">
        <ele>77.5</ele>
        <time>2013-02-18T21:36:16.000Z</time>
      </trkpt>
      <trkpt lat="48.86309" lon="2.33579">
        <ele>75.6</ele>
        <time>2013-02-18T21:36:18.000Z</time>
      </trkpt>
      <trkpt lat="48.8631" lon="2.33582">
        <ele>75.6</ele>
        <time>2013-02-18T21:36:19.000Z</time>
      </trkpt>
      <trkpt lat="48.8631" lon="2.33587">
        <ele>75</ele>
        <time>2013-02-18T21:36:21.000Z</time>
      </trkpt>
      <trkpt lat="48.86309" lon="2.3359">
        <ele>75</ele>
        <time>2013-02-18T21:36:22.000Z</time>
      </trkpt>
      <trkpt lat="48.86307" lon="2.33602">
        <ele>74.9</ele>
        <time>2013-02-18T21:36:26.000Z</time>
      </trkpt>
      <trkpt lat="48.86306" lon="2.33607">
        <ele>74</ele>
        <time>2013-02-18T21:36:27.000Z</time>
      </trkpt>
      <trkpt lat="48.86304" lon="2.33612">
        <ele>72.6</ele>
        <time>2013-02-18T21:36:28.000Z</time>
      </trkpt>
      <trkpt lat="48.86303" lon="2.33617">
        <ele>71.7</ele>
        <time>2013-02-18T21:36:29.000Z</time>
      </trkpt>
      <trkpt lat="48.86301" lon="2.33622">
        <ele>71.3</ele>
        <time>2013-02-18T21:36:30.000Z</time>
      </trkpt>
      <trkpt lat="48.863" lon="2.33628">
        <ele>71.4</ele>
        <time>2013-02-18T21:36:31.000Z</time>
      </trkpt>
      <trkpt lat="48.86299" lon="2.33634">
        <ele>71.7</ele>
        <time>2013-02-18T21:36:32.000Z</time>
      </trkpt>
      <trkpt lat="48.86297" lon="2.3364">
        <ele>72.5</ele>
        <time>2013-02-18T21:36:33.000Z</time>
      </trkpt>
      <trkpt lat="48.86296" lon="2.33645">
        <ele>72.8</ele>
        <time>2013-02-18T21:36:34.000Z</time>
      </trkpt>
      <trkpt lat="48.86294" lon="2.3365">
        <ele>73.2</ele>
        <time>2013-02-18T21:36:35.000Z</time>
      </trkpt>
      <trkpt lat="48.86291" lon="2.33655">
        <ele>73.1</ele>
        <time>2013-02-18T21:36:36.000Z</time>
      </trkpt>
      <trkpt lat="48.86289" lon="2.33661">
        <ele>74.2</ele>
        <time>2013-02-18T21:36:37.000Z</time>
      </trkpt>
      <trkpt lat="48.86288" lon="2.33667">
        <ele>75.6</ele>
        <time>2013-02-18T21:36:38.000Z</time>
      </trkpt>
      <trkpt lat="48.86285" lon="2.33672">
        <ele>76.4</ele>
        <time>2013-02-18T21:36:39.000Z</time>
      </trkpt>
      <trkpt lat="48.86283" lon="2.33678">
        <ele>76.5</ele>
        <time>2013-02-18T21:36:40.000Z</time>
      </trkpt>
      <trkpt lat="48.86281" lon="2.33683">
        <ele>74.4</ele>
        <time>2013-02-18T21:36:41.000Z</time>
      </trkpt>
      <trkpt lat="48.86279" lon="2.33689">
        <ele>75.3</ele>
        <time>2013-02-18T21:36:42.000Z</time>
      </trkpt>
      <trkpt lat="48.86277" lon="2.33696">
        <ele>74.5</ele>
        <time>2013-02-18T21:36:43.000Z</time>
      </trkpt>
      <trkpt lat="48.86275" lon="2.33703">
        <ele>75.7</ele>
        <time>2013-02-18T21:36:44.000Z</time>
      </trkpt>
      <trkpt lat="48.86274" lon="2.3371">
        <ele>75.7</ele>
        <time>2013-02-18T21:36:45.000Z</time>
      </trkpt>
      <trkpt lat="48.86273" lon="2.33716">
        <ele>75.8</ele>
        <time>2013-02-18T21:36:46.000Z</time>
      </trkpt>
      <trkpt lat="48.86272" lon="2.33723">
        <ele>76.7</ele>
        <time>2013-02-18T21:36:47.000Z</time>
      </trkpt>
      <trkpt lat="48.86272" lon="2.3373">
        <ele>77.1</ele>
        <time>2013-02-18T21:36:48.000Z</time>
      </trkpt>
      <trkpt lat="48.86271" lon="2.33737">
        <ele>77.4</ele>
        <time>2013-02-18T21:36:49.000Z</time>
      </trkpt>
      <trkpt lat="48.86271" lon="2.33743">
        <ele>77</ele>
        <time>2013-02-18T21:36:50.000Z</time>
      </trkpt>
      <trkpt lat="48.8627" lon="2.33749">
        <ele>77.3</ele>
        <time>2013-02-18T21:36:51.000Z</time>
      </trkpt>
      <trkpt lat="48.86269" lon="2.33755">
        <ele>76.7</ele>
        <time>2013-02-18T21:36:52.000Z</time>
      </trkpt>
      <trkpt lat="48.86267" lon="2.33761">
        <ele>75.8</ele>
        <time>2013-02-18T21:36:53.000Z</time>
      </trkpt>
      <trkpt lat="48.86266" lon="2.33767">
        <ele>76.5</ele>
        <time>2013-02-18T21:36:54.000Z</time>
      </trkpt>
      <trkpt lat="48.86265" lon="2.33773">
        <ele>76.6</ele>
        <time>2013-02-18T21:36:55.000Z</time>
      </trkpt>
      <trkpt lat="48.86263" lon="2.33779">
        <ele>75.7</ele>
        <time>2013-02-18T21:36:56.000Z</time>
      </trkpt>
      <trkpt lat="48.86262" lon="2.33785">
        <ele>75.6</ele>
        <time>2013-02-18T21:36:57.000Z</time>
      </trkpt>
      <trkpt lat="48.8626" lon="2.33791">
        <ele>75.6</ele>
        <time>2013-02-18T21:36:58.000Z</time>
      </trkpt>
      <trkpt lat="48.86259" lon="2.33797">
        <ele>75.6</ele>
        <time>2013-02-18T21:36:59.000Z</time>
      </trkpt>
      <trkpt lat="48.86257" lon="2.33803">
        <ele>75.7</ele>
        <time>2013-02-18T21:37:00.000Z</time>
      </trkpt>
      <trkpt lat="48.86256" lon="2.33809">
        <ele>75.5</ele>
        <time>2013-02-18T21:37:01.000Z</time>
      </trkpt>
      <trkpt lat="48.86254" lon="2.33815">
        <ele>75.9</ele>
        <time>2013-02-18T21:37:02.000Z</time>
      </trkpt>
      <trkpt lat="48.86253" lon="2.33824">
        <ele>74.7</ele>
        <time>2013-02-18T21:37:03.000Z</time>
      </trkpt>
      <trkpt lat="48.86252" lon="2.33832">
        <ele>75.7</ele>
        <time>2013-02-18T21:37:04.000Z</time>
      </trkpt>
      <trkpt lat="48.8625" lon="2.33836">
        <ele>75.1</ele>
        <time>2013-02-18T21:37:05.000Z</time>
      </trkpt>
      <trkpt lat="48.86248" lon="2.33842">
        <ele>75.3</ele>
        <time>2013-02-18T21:37:06.000Z</time>
      </trkpt>
      <trkpt lat="48.86247" lon="2.33849">
        <ele>75.3</ele>
        <time>2013-02-18T21:37:07.000Z</time>
      </trkpt>
      <trkpt lat="48.86245" lon="2.33856">
        <ele>75.1</ele>
        <time>2013-02-18T21:37:08.000Z</time>
      </trkpt>
      <trkpt lat="48.86244" lon="2.33863">
        <ele>75.7</ele>
        <time>2013-02-18T21:37:09.000Z</time>
      </trkpt>
      <trkpt lat="48.86242" lon="2.33869">
        <ele>75.9</ele>
        <time>2013-02-18T21:37:10.000Z</time>
      </trkpt>
      <trkpt lat="48.86241" lon="2.33877">
        <ele>75.7</ele>
        <time>2013-02-18T21:37:11.000Z</time>
      </trkpt>
      <trkpt lat="48.8624" lon="2.33884">
        <ele>75.8</ele>
        <time>2013-02-18T21:37:12.000Z</time>
      </trkpt>
      <trkpt lat="48.86237" lon="2.3389">
        <ele>76</ele>
        <time>2013-02-18T21:37:13.000Z</time>
      </trkpt>
      <trkpt lat="48.86235" lon="2.33896">
        <ele>75.9</ele>
        <time>2013-02-18T21:37:14.000Z</time>
      </trkpt>
      <trkpt lat="48.86233" lon="2.33902">
        <ele>75</ele>
        <time>2013-02-18T21:37:15.000Z</time>
      </trkpt>
      <trkpt lat="48.86231" lon="2.33908">
        <ele>75.2</ele>
        <time>2013-02-18T21:37:16.000Z</time>
      </trkpt>
      <trkpt lat="48.8623" lon="2.33914">
        <ele>75.4</ele>
        <time>2013-02-18T21:37:17.000Z</time>
      </trkpt>
      <trkpt lat="48.86228" lon="2.33919">
        <ele>74.6</ele>
        <time>2013-02-18T21:37:18.000Z</time>
      </trkpt>
      <trkpt lat="48.86227" lon="2.33927">
        <ele>76.1</ele>
        <time>2013-02-18T21:37:19.000Z</time>
      </trkpt>
      <trkpt lat="48.86226" lon="2.33934">
        <ele>76.5</ele>
        <time>2013-02-18T21:37:20.000Z</time>
      </trkpt>
      <trkpt lat="48.86225" lon="2.3394">
        <ele>77</ele>
        <time>2013-02-18T21:37:21.000Z</time>
      </trkpt>
      <trkpt lat="48.86223" lon="2.33944">
        <ele>73.6</ele>
        <time>2013-02-18T21:37:22.000Z</time>
      </trkpt>
      <trkpt lat="48.8622" lon="2.33951">
        <ele>73.3</ele>
        <time>2013-02-18T21:37:23.621Z</time>
      </trkpt>
      <trkpt lat="48.86217" lon="2.33958">
        <ele>72.3</ele>
        <time>2013-02-18T21:37:25.000Z</time>
      </trkpt>
      <trkpt lat="48.86216" lon="2.33962">
        <ele>72.4</ele>
        <time>2013-02-18T21:37:26.000Z</time>
      </trkpt>
      <trkpt lat="48.86215" lon="2.33967">
        <ele>72.5</ele>
        <time>2013-02-18T21:37:27.000Z</time>
      </trkpt>
      <trkpt lat="48.86214" lon="2.33972">
        <ele>72.2</ele>
        <time>2013-02-18T21:37:28.000Z</time>
      </trkpt>
      <trkpt lat="48.86213" lon="2.33977">
        <ele>71.9</ele>
        <time>2013-02-18T21:37:29.000Z</time>
      </trkpt>
      <trkpt lat="48.86212" lon="2.33983">
        <ele>71.5</ele>
        <time>2013-02-18T21:37:30.000Z</time>
      </trkpt>
      <trkpt lat="48.86211" lon="2.33988">
        <ele>71.4</ele>
        <time>2013-02-18T21:37:31.000Z</time>
      </trkpt>
      <trkpt lat="48.8621" lon="2.33994">
        <ele>71.4</ele>
        <time>2013-02-18T21:37:32.000Z</time>
      </trkpt>
      <trkpt lat="48.86208" lon="2.33999">
        <ele>71</ele>
        <time>2013-02-18T21:37:33.000Z</time>
      </trkpt>
      <trkpt lat="48.86207" lon="2.34004">
        <ele>70.7</ele>
        <time>2013-02-18T21:37:34.000Z</time>
      </trkpt>
      <trkpt lat="48.86206" lon="2.34008">
        <ele>71.2</ele>
        <time>2013-02-18T21:37:35.000Z</time>
      </trkpt>
      <trkpt lat="48.86205" lon="2.34014">
        <ele>72</ele>
        <time>2013-02-18T21:37:37.000Z</time>
      </trkpt>
      <trkpt lat="48.86205" lon="2.34016">
        <ele>71.1</ele>
        <time>2013-02-18T21:37:38.000Z</time>
      </trkpt>
      <trkpt lat="48.86204" lon="2.34022">
        <ele>73.1</ele>
        <time>2013-02-18T21:37:41.000Z</time>
      </trkpt>
      <trkpt lat="48.86202" lon="2.34025">
        <ele>72</ele>
        <time>2013-02-18T21:37:42.000Z</time>
      </trkpt>
      <trkpt lat="48.86202" lon="2.34028">
        <ele>71.5</ele>
        <time>2013-02-18T21:37:43.000Z</time>
      </trkpt>
      <trkpt lat="48.86201" lon="2.34032">
        <ele>71.4</ele>
        <time>2013-02-18T21:37:44.000Z</time>
      </trkpt>
      <trkpt lat="48.86199" lon="2.34036">
        <ele>71.9</ele>
        <time>2013-02-18T21:37:45.000Z</time>
      </trkpt>
      <trkpt lat="48.86197" lon="2.34041">
        <ele>71.3</ele>
        <time>2013-02-18T21:37:46.000Z</time>
      </trkpt>
      <trkpt lat="48.86196" lon="2.34046">
        <ele>71.2</ele>
        <time>2013-02-18T21:37:47.000Z</time>
      </trkpt>
      <trkpt lat="48.86194" lon="2.34051">
        <ele>70.5</ele>
        <time>2013-02-18T21:37:48.000Z</time>
      </trkpt>
      <trkpt lat="48.86192" lon="2.34055">
        <ele>68.6</ele>
        <time>2013-02-18T21:37:49.000Z</time>
      </trkpt>
      <trkpt lat="48.86191" lon="2.3406">
        <ele>68.3</ele>
        <time>2013-02-18T21:37:50.000Z</time>
      </trkpt>
      <trkpt lat="48.8619" lon="2.34066">
        <ele>67.5</ele>
        <time>2013-02-18T21:37:51.000Z</time>
      </trkpt>
      <trkpt lat="48.86189" lon="2.34071">
        <ele>67.3</ele>
        <time>2013-02-18T21:37:52.000Z</time>
      </trkpt>
      <trkpt lat="48.86188" lon="2.34077">
        <ele>67.1</ele>
        <time>2013-02-18T21:37:53.000Z</time>
      </trkpt>
      <trkpt lat="48.86187" lon="2.34082">
        <ele>67.1</ele>
        <time>2013-02-18T21:37:54.000Z</time>
      </trkpt>
      <trkpt lat="48.86186" lon="2.34087">
        <ele>67.7</ele>
        <time>2013-02-18T21:37:55.000Z</time>
      </trkpt>
      <trkpt lat="48.86184" lon="2.34092">
        <ele>67.4</ele>
        <time>2013-02-18T21:37:56.000Z</time>
      </trkpt>
      <trkpt lat="48.86183" lon="2.34097">
        <ele>67.7</ele>
        <time>2013-02-18T21:37:57.000Z</time>
      </trkpt>
      <trkpt lat="48.86182" lon="2.34102">
        <ele>69.7</ele>
        <time>2013-02-18T21:37:58.000Z</time>
      </trkpt>
      <trkpt lat="48.86181" lon="2.34107">
        <ele>70.8</ele>
        <time>2013-02-18T21:37:59.000Z</time>
      </trkpt>
      <trkpt lat="48.86182" lon="2.34109">
        <ele>70.9</ele>
        <time>2013-02-18T21:38:00.000Z</time>
      </trkpt>
      <trkpt lat="48.86179" lon="2.34111">
        <ele>67</ele>
        <time>2013-02-18T21:38:11.000Z</time>
      </trkpt>
      <trkpt lat="48.86178" lon="2.34114">
        <ele>66.4</ele>
        <time>2013-02-18T21:38:12.000Z</time>
      </trkpt>
      <trkpt lat="48.86177" lon="2.34118">
        <ele>66.5</ele>
        <time>2013-02-18T21:38:13.000Z</time>
      </trkpt>
      <trkpt lat="48.86176" lon="2.34122">
        <ele>66.8</ele>
        <time>2013-02-18T21:38:14.000Z</time>
      </trkpt>
      <trkpt lat="48.86175" lon="2.34126">
        <ele>66.5</ele>
        <time>2013-02-18T21:38:15.000Z</time>
      </trkpt>
      <trkpt lat="48.86173" lon="2.34131">
        <ele>68.9</ele>
        <time>2013-02-18T21:38:16.000Z</time>
      </trkpt>
      <trkpt lat="48.86172" lon="2.34135">
        <ele>69.2</ele>
        <time>2013-02-18T21:38:17.000Z</time>
      </trkpt>
      <trkpt lat="48.8617" lon="2.3414">
        <ele>69.4</ele>
        <time>2013-02-18T21:38:18.000Z</time>
      </trkpt>
      <trkpt lat="48.86169" lon="2.34145">
        <ele>69.4</ele>
        <time>2013-02-18T21:38:19.000Z</time>
      </trkpt>
      <trkpt lat="48.86168" lon="2.3415">
        <ele>69.8</ele>
        <time>2013-02-18T21:38:20.000Z</time>
      </trkpt>
      <trkpt lat="48.86168" lon="2.34155">
        <ele>69.7</ele>
        <time>2013-02-18T21:38:21.000Z</time>
      </trkpt>
      <trkpt lat="48.86167" lon="2.3416">
        <ele>69.9</ele>
        <time>2013-02-18T21:38:22.000Z</time>
      </trkpt>
      <trkpt lat="48.86167" lon="2.34167">
        <ele>69.8</ele>
        <time>2013-02-18T21:38:23.577Z</time>
      </trkpt>
      <trkpt lat="48.86167" lon="2.34175">
        <ele>69.3</ele>
        <time>2013-02-18T21:38:25.000Z</time>
      </trkpt>
      <trkpt lat="48.86167" lon="2.34181">
        <ele>69.1</ele>
        <time>2013-02-18T21:38:26.000Z</time>
      </trkpt>
      <trkpt lat="48.86167" lon="2.34187">
        <ele>69.1</ele>
        <time>2013-02-18T21:38:27.000Z</time>
      </trkpt>
      <trkpt lat="48.86166" lon="2.34193">
        <ele>68.8</ele>
        <time>2013-02-18T21:38:28.000Z</time>
      </trkpt>
      <trkpt lat="48.86166" lon="2.34199">
        <ele>68.7</ele>
        <time>2013-02-18T21:38:29.000Z</time>
      </trkpt>
      <trkpt lat="48.86165" lon="2.34204">
        <ele>69.1</ele>
        <time>2013-02-18T21:38:30.000Z</time>
      </trkpt>
      <trkpt lat="48.86163" lon="2.34211">
        <ele>70.7</ele>
        <time>2013-02-18T21:38:31.000Z</time>
      </trkpt>
      <trkpt lat="48.86162" lon="2.34217">
        <ele>71.1</ele>
        <time>2013-02-18T21:38:32.000Z</time>
      </trkpt>
      <trkpt lat="48.86161" lon="2.34223">
        <ele>71.1</ele>
        <time>2013-02-18T21:38:33.000Z</time>
      </trkpt>
      <trkpt lat="48.86159" lon="2.34229">
        <ele>71.2</ele>
        <time>2013-02-18T21:38:34.000Z</time>
      </trkpt>
      <trkpt lat="48.86159" lon="2.34235">
        <ele>72</ele>
        <time>2013-02-18T21:38:35.000Z</time>
      </trkpt>
      <trkpt lat="48.86158" lon="2.34241">
        <ele>72.2</ele>
        <time>2013-02-18T21:38:36.000Z</time>
      </trkpt>
      <trkpt lat="48.86157" lon="2.34247">
        <ele>72.2</ele>
        <time>2013-02-18T21:38:37.000Z</time>
      </trkpt>
      <trkpt lat="48.86156" lon="2.34253">
        <ele>71.6</ele>
        <time>2013-02-18T21:38:38.000Z</time>
      </trkpt>
      <trkpt lat="48.86155" lon="2.34258">
        <ele>71.6</ele>
        <time>2013-02-18T21:38:39.000Z</time>
      </trkpt>
      <trkpt lat="48.86153" lon="2.34264">
        <ele>71.4</ele>
        <time>2013-02-18T21:38:40.000Z</time>
      </trkpt>
      <trkpt lat="48.86152" lon="2.3427">
        <ele>71.5</ele>
        <time>2013-02-18T21:38:41.000Z</time>
      </trkpt>
      <trkpt lat="48.86151" lon="2.34275">
        <ele>71.3</ele>
        <time>2013-02-18T21:38:42.000Z</time>
      </trkpt>
      <trkpt lat="48.8615" lon="2.3428">
        <ele>71</ele>
        <time>2013-02-18T21:38:43.000Z</time>
      </trkpt>
      <trkpt lat="48.86148" lon="2.34286">
        <ele>70.7</ele>
        <time>2013-02-18T21:38:44.000Z</time>
      </trkpt>
      <trkpt lat="48.86148" lon="2.34293">
        <ele>71.9</ele>
        <time>2013-02-18T21:38:45.000Z</time>
      </trkpt>
      <trkpt lat="48.86147" lon="2.34299">
        <ele>71.7</ele>
        <time>2013-02-18T21:38:46.000Z</time>
      </trkpt>
      <trkpt lat="48.86146" lon="2.34306">
        <ele>72.4</ele>
        <time>2013-02-18T21:38:47.000Z</time>
      </trkpt>
      <trkpt lat="48.86146" lon="2.34313">
        <ele>73.4</ele>
        <time>2013-02-18T21:38:48.000Z</time>
      </trkpt>
      <trkpt lat="48.86145" lon="2.34319">
        <ele>73.2</ele>
        <time>2013-02-18T21:38:49.000Z</time>
      </trkpt>
      <trkpt lat="48.86144" lon="2.34326">
        <ele>74</ele>
        <time>2013-02-18T21:38:50.000Z</time>
      </trkpt>
      <trkpt lat="48.86143" lon="2.34332">
        <ele>73.9</ele>
        <time>2013-02-18T21:38:51.000Z</time>
      </trkpt>
      <trkpt lat="48.86142" lon="2.34339">
        <ele>74</ele>
        <time>2013-02-18T21:38:52.000Z</time>
      </trkpt>
      <trkpt lat="48.8614" lon="2.34345">
        <ele>74.2</ele>
        <time>2013-02-18T21:38:53.000Z</time>
      </trkpt>
      <trkpt lat="48.86138" lon="2.3435">
        <ele>74</ele>
        <time>2013-02-18T21:38:54.000Z</time>
      </trkpt>
      <trkpt lat="48.86137" lon="2.34356">
        <ele>74.4</ele>
        <time>2013-02-18T21:38:55.000Z</time>
      </trkpt>
      <trkpt lat="48.86135" lon="2.34362">
        <ele>74.2</ele>
        <time>2013-02-18T21:38:56.000Z</time>
      </trkpt>
      <trkpt lat="48.86134" lon="2.34369">
        <ele>74.8</ele>
        <time>2013-02-18T21:38:57.000Z</time>
      </trkpt>
      <trkpt lat="48.86133" lon="2.34376">
        <ele>74.8</ele>
        <time>2013-02-18T21:38:58.000Z</time>
      </trkpt>
      <trkpt lat="48.86131" lon="2.34383">
        <ele>74.6</ele>
        <time>2013-02-18T21:38:59.000Z</time>
      </trkpt>
      <trkpt lat="48.8613" lon="2.34389">
        <ele>74.7</ele>
        <time>2013-02-18T21:39:00.000Z</time>
      </trkpt>
      <trkpt lat="48.86129" lon="2.34395">
        <ele>74.5</ele>
        <time>2013-02-18T21:39:01.000Z</time>
      </trkpt>
      <trkpt lat="48.86127" lon="2.344">
        <ele>74.8</ele>
        <time>2013-02-18T21:39:02.000Z</time>
      </trkpt>
      <trkpt lat="48.86126" lon="2.34405">
        <ele>75</ele>
        <time>2013-02-18T21:39:03.000Z</time>
      </trkpt>
      <trkpt lat="48.86124" lon="2.34411">
        <ele>74.1</ele>
        <time>2013-02-18T21:39:04.000Z</time>
      </trkpt>
      <trkpt lat="48.86124" lon="2.34417">
        <ele>73.7</ele>
        <time>2013-02-18T21:39:05.000Z</time>
      </trkpt>
      <trkpt lat="48.86123" lon="2.34423">
        <ele>73.7</ele>
        <time>2013-02-18T21:39:06.000Z</time>
      </trkpt>
      <trkpt lat="48.86123" lon="2.34428">
        <ele>71.3</ele>
        <time>2013-02-18T21:39:07.000Z</time>
      </trkpt>
      <trkpt lat="48.86123" lon="2.34435">
        <ele>72.1</ele>
        <time>2013-02-18T21:39:08.000Z</time>
      </trkpt>
      <trkpt lat="48.86123" lon="2.3444">
        <ele>72.7</ele>
        <time>2013-02-18T21:39:09.000Z</time>
      </trkpt>
      <trkpt lat="48.86123" lon="2.34447">
        <ele>73.6</ele>
        <time>2013-02-18T21:39:10.000Z</time>
      </trkpt>
      <trkpt lat="48.86123" lon="2.34453">
        <ele>74</ele>
        <time>2013-02-18T21:39:11.000Z</time>
      </trkpt>
      <trkpt lat="48.86121" lon="2.34458">
        <ele>76.7</ele>
        <time>2013-02-18T21:39:12.000Z</time>
      </trkpt>
      <trkpt lat="48.8612" lon="2.34464">
        <ele>77</ele>
        <time>2013-02-18T21:39:13.000Z</time>
      </trkpt>
      <trkpt lat="48.86118" lon="2.3447">
        <ele>77</ele>
        <time>2013-02-18T21:39:14.000Z</time>
      </trkpt>
      <trkpt lat="48.86117" lon="2.34476">
        <ele>77.5</ele>
        <time>2013-02-18T21:39:15.000Z</time>
      </trkpt>
      <trkpt lat="48.86115" lon="2.34481">
        <ele>76.2</ele>
        <time>2013-02-18T21:39:16.000Z</time>
      </trkpt>
      <trkpt lat="48.86114" lon="2.34487">
        <ele>76.5</ele>
        <time>2013-02-18T21:39:17.000Z</time>
      </trkpt>
      <trkpt lat="48.86113" lon="2.34493">
        <ele>77</ele>
        <time>2013-02-18T21:39:18.000Z</time>
      </trkpt>
      <trkpt lat="48.86112" lon="2.34498">
        <ele>77.1</ele>
        <time>2013-02-18T21:39:19.000Z</time>
      </trkpt>
      <trkpt lat="48.8611" lon="2.34504">
        <ele>77.2</ele>
        <time>2013-02-18T21:39:20.000Z</time>
      </trkpt>
      <trkpt lat="48.86109" lon="2.34509">
        <ele>77</ele>
        <time>2013-02-18T21:39:21.000Z</time>
      </trkpt>
      <trkpt lat="48.86107" lon="2.34515">
        <ele>77.1</ele>
        <time>2013-02-18T21:39:22.000Z</time>
      </trkpt>
      <trkpt lat="48.86105" lon="2.34524">
        <ele>77.2</ele>
        <time>2013-02-18T21:39:23.902Z</time>
      </trkpt>
      <trkpt lat="48.86103" lon="2.34529">
        <ele>75.1</ele>
        <time>2013-02-18T21:39:25.000Z</time>
      </trkpt>
      <trkpt lat="48.86102" lon="2.34534">
        <ele>75</ele>
        <time>2013-02-18T21:39:26.000Z</time>
      </trkpt>
      <trkpt lat="48.861" lon="2.34539">
        <ele>74.8</ele>
        <time>2013-02-18T21:39:27.000Z</time>
      </trkpt>
      <trkpt lat="48.86098" lon="2.34543">
        <ele>75.3</ele>
        <time>2013-02-18T21:39:28.000Z</time>
      </trkpt>
      <trkpt lat="48.86095" lon="2.34548">
        <ele>75.1</ele>
        <time>2013-02-18T21:39:29.000Z</time>
      </trkpt>
      <trkpt lat="48.86093" lon="2.34552">
        <ele>74.5</ele>
        <time>2013-02-18T21:39:30.000Z</time>
      </trkpt>
      <trkpt lat="48.8609" lon="2.34557">
        <ele>75.6</ele>
        <time>2013-02-18T21:39:31.000Z</time>
      </trkpt>
      <trkpt lat="48.86087" lon="2.34561">
        <ele>74.8</ele>
        <time>2013-02-18T21:39:32.000Z</time>
      </trkpt>
      <trkpt lat="48.86085" lon="2.34566">
        <ele>74.6</ele>
        <time>2013-02-18T21:39:33.000Z</time>
      </trkpt>
      <trkpt lat="48.86081" lon="2.34571">
        <ele>74.5</ele>
        <time>2013-02-18T21:39:34.000Z</time>
      </trkpt>
      <trkpt lat="48.86078" lon="2.34575">
        <ele>73.9</ele>
        <time>2013-02-18T21:39:35.000Z</time>
      </trkpt>
      <trkpt lat="48.86074" lon="2.3458">
        <ele>74.5</ele>
        <time>2013-02-18T21:39:36.000Z</time>
      </trkpt>
      <trkpt lat="48.8607" lon="2.34585">
        <ele>76.5</ele>
        <time>2013-02-18T21:39:37.000Z</time>
      </trkpt>
      <trkpt lat="48.86065" lon="2.34588">
        <ele>77.2</ele>
        <time>2013-02-18T21:39:38.000Z</time>
      </trkpt>
      <trkpt lat="48.86061" lon="2.34592">
        <ele>78</ele>
        <time>2013-02-18T21:39:39.000Z</time>
      </trkpt>
      <trkpt lat="48.86056" lon="2.34595">
        <ele>79.6</ele>
        <time>2013-02-18T21:39:40.000Z</time>
      </trkpt>
      <trkpt lat="48.86052" lon="2.34598">
        <ele>79.1</ele>
        <time>2013-02-18T21:39:41.000Z</time>
      </trkpt>
      <trkpt lat="48.86048" lon="2.34601">
        <ele>80.5</ele>
        <time>2013-02-18T21:39:42.000Z</time>
      </trkpt>
      <trkpt lat="48.86044" lon="2.34605">
        <ele>81.2</ele>
        <time>2013-02-18T21:39:43.000Z</time>
      </trkpt>
      <trkpt lat="48.86041" lon="2.34608">
        <ele>80.7</ele>
        <time>2013-02-18T21:39:44.000Z</time>
      </trkpt>
      <trkpt lat="48.86038" lon="2.34611">
        <ele>81.2</ele>
        <time>2013-02-18T21:39:45.000Z</time>
      </trkpt>
      <trkpt lat="48.86035" lon="2.34615">
        <ele>82.3</ele>
        <time>2013-02-18T21:39:46.000Z</time>
      </trkpt>
      <trkpt lat="48.86032" lon="2.34619">
        <ele>83.7</ele>
        <time>2013-02-18T21:39:47.000Z</time>
      </trkpt>
      <trkpt lat="48.86029" lon="2.34623">
        <ele>85.2</ele>
        <time>2013-02-18T21:39:48.000Z</time>
      </trkpt>
      <trkpt lat="48.86027" lon="2.34627">
        <ele>86.2</ele>
        <time>2013-02-18T21:39:49.000Z</time>
      </trkpt>
      <trkpt lat="48.86024" lon="2.34631">
        <ele>86</ele>
        <time>2013-02-18T21:39:50.000Z</time>
      </trkpt>
      <trkpt lat="48.86021" lon="2.34635">
        <ele>87.5</ele>
        <time>2013-02-18T21:39:51.000Z</time>
      </trkpt>
      <trkpt lat="48.86018" lon="2.34638">
        <ele>86.8</ele>
        <time>2013-02-18T21:39:52.000Z</time>
      </trkpt>
      <trkpt lat="48.86015" lon="2.34641">
        <ele>86.9</ele>
        <time>2013-02-18T21:39:53.000Z</time>
      </trkpt>
      <trkpt lat="48.86012" lon="2.34643">
        <ele>87.1</ele>
        <time>2013-02-18T21:39:54.000Z</time>
      </trkpt>
      <trkpt lat="48.86009" lon="2.34646">
        <ele>87.4</ele>
        <time>2013-02-18T21:39:55.000Z</time>
      </trkpt>
      <trkpt lat="48.86006" lon="2.3465">
        <ele>86.9</ele>
        <time>2013-02-18T21:39:56.000Z</time>
      </trkpt>
      <trkpt lat="48.86002" lon="2.34653">
        <ele>86.7</ele>
        <time>2013-02-18T21:39:57.000Z</time>
      </trkpt>
      <trkpt lat="48.85999" lon="2.34656">
        <ele>86.7</ele>
        <time>2013-02-18T21:39:58.000Z</time>
      </trkpt>
      <trkpt lat="48.85996" lon="2.34659">
        <ele>87</ele>
        <time>2013-02-18T21:39:59.000Z</time>
      </trkpt>
      <trkpt lat="48.85993" lon="2.34662">
        <ele>87</ele>
        <time>2013-02-18T21:40:00.000Z</time>
      </trkpt>
      <trkpt lat="48.8599" lon="2.34665">
        <ele>87.3</ele>
        <time>2013-02-18T21:40:01.000Z</time>
      </trkpt>
      <trkpt lat="48.85987" lon="2.34668">
        <ele>87.1</ele>
        <time>2013-02-18T21:40:02.000Z</time>
      </trkpt>
      <trkpt lat="48.85984" lon="2.34671">
        <ele>86.8</ele>
        <time>2013-02-18T21:40:03.000Z</time>
      </trkpt>
      <trkpt lat="48.85981" lon="2.34673">
        <ele>87</ele>
        <time>2013-02-18T21:40:04.000Z</time>
      </trkpt>
      <trkpt lat="48.85978" lon="2.34676">
        <ele>85.9</ele>
        <time>2013-02-18T21:40:05.000Z</time>
      </trkpt>
      <trkpt lat="48.85976" lon="2.34678">
        <ele>85.5</ele>
        <time>2013-02-18T21:40:06.000Z</time>
      </trkpt>
      <trkpt lat="48.85973" lon="2.34682">
        <ele>84.8</ele>
        <time>2013-02-18T21:40:07.000Z</time>
      </trkpt>
      <trkpt lat="48.85971" lon="2.34685">
        <ele>84.6</ele>
        <time>2013-02-18T21:40:08.000Z</time>
      </trkpt>
      <trkpt lat="48.85969" lon="2.34688">
        <ele>84.7</ele>
        <time>2013-02-18T21:40:09.000Z</time>
      </trkpt>
      <trkpt lat="48.85967" lon="2.3469">
        <ele>83.4</ele>
        <time>2013-02-18T21:40:10.000Z</time>
      </trkpt>
      <trkpt lat="48.85966" lon="2.34693">
        <ele>82.8</ele>
        <time>2013-02-18T21:40:11.000Z</time>
      </trkpt>
      <trkpt lat="48.85964" lon="2.34696">
        <ele>83.7</ele>
        <time>2013-02-18T21:40:12.000Z</time>
      </trkpt>
      <trkpt lat="48.85963" lon="2.34698">
        <ele>84.8</ele>
        <time>2013-02-18T21:40:13.000Z</time>
      </trkpt>
      <trkpt lat="48.85961" lon="2.34704">
        <ele>89</ele>
        <time>2013-02-18T21:40:19.000Z</time>
      </trkpt>
      <trkpt lat="48.85961" lon="2.34705">
        <ele>90.5</ele>
        <time>2013-02-18T21:40:20.000Z</time>
      </trkpt>
      <trkpt lat="48.85957" lon="2.347">
        <ele>90.1</ele>
        <time>2013-02-18T21:40:38.000Z</time>
      </trkpt>
    </trkseg>
  </trk>
</gpx>